<?xml version="1.0" encoding="UTF-8" standalone="no" ?>
<gpx xmlns="http://www.topografix.com/GPX/1/1" xmlns:xsi="http://www.w3.org/2001/XMLSchema-instance" xsi:schemaLocation="http://www.topografix.com/GPX/1/1 http://www.topografix.com/GPX/1/1/gpx.xsd" version="1.1" creator="VisuGPX - https://www.visugpx.com">
  <metadata>
    <name>gr36</name>
  </metadata>
  <trk>
    <name><![CDATA[gr36_4]]></name>
    <trkseg>
      <trkpt lat="43.21645" lon="2.35102">
        <ele>107.034</ele>
        <time>2019-10-31T20:55:34Z</time>
      </trkpt>
      <trkpt lat="43.21643" lon="2.35164">
        <ele>105.215</ele>
        <time>2019-10-31T20:55:14Z</time>
      </trkpt>
      <trkpt lat="43.21718" lon="2.35168">
        <ele>106.039</ele>
        <time>2019-10-31T20:54:54Z</time>
      </trkpt>
      <trkpt lat="43.21728" lon="2.35276">
        <ele>105.257</ele>
        <time>2019-10-31T20:54:34Z</time>
      </trkpt>
      <trkpt lat="43.2177" lon="2.35334">
        <ele>105.051</ele>
        <time>2019-10-31T20:54:14Z</time>
      </trkpt>
      <trkpt lat="43.21861" lon="2.35389">
        <ele>106.028</ele>
        <time>2019-10-31T20:53:54Z</time>
      </trkpt>
      <trkpt lat="43.22197" lon="2.35635">
        <ele>108.483</ele>
        <time>2019-10-31T20:53:34Z</time>
      </trkpt>
      <trkpt lat="43.22255" lon="2.35734">
        <ele>108.557</ele>
        <time>2019-10-31T20:53:14Z</time>
      </trkpt>
      <trkpt lat="43.22386" lon="2.36202">
        <ele>108.708</ele>
        <time>2019-10-31T20:52:54Z</time>
      </trkpt>
      <trkpt lat="43.22405" lon="2.36285">
        <ele>110.215</ele>
        <time>2019-10-31T20:52:34Z</time>
      </trkpt>
      <trkpt lat="43.22399" lon="2.36571">
        <ele>108.087</ele>
        <time>2019-10-31T20:52:14Z</time>
      </trkpt>
      <trkpt lat="43.22408" lon="2.3668">
        <ele>104.917</ele>
        <time>2019-10-31T20:51:54Z</time>
      </trkpt>
      <trkpt lat="43.22443" lon="2.36764">
        <ele>103.857</ele>
        <time>2019-10-31T20:51:34Z</time>
      </trkpt>
      <trkpt lat="43.22501" lon="2.36816">
        <ele>104.738</ele>
        <time>2019-10-31T20:51:14Z</time>
      </trkpt>
      <trkpt lat="43.22643" lon="2.36852">
        <ele>107.712</ele>
        <time>2019-10-31T20:50:54Z</time>
      </trkpt>
      <trkpt lat="43.22708" lon="2.36888">
        <ele>105.08</ele>
        <time>2019-10-31T20:50:34Z</time>
      </trkpt>
      <trkpt lat="43.22748" lon="2.36946">
        <ele>106.564</ele>
        <time>2019-10-31T20:50:14Z</time>
      </trkpt>
      <trkpt lat="43.22776" lon="2.37049">
        <ele>107.131</ele>
        <time>2019-10-31T20:49:54Z</time>
      </trkpt>
      <trkpt lat="43.22794" lon="2.37264">
        <ele>103.656</ele>
        <time>2019-10-31T20:49:34Z</time>
      </trkpt>
      <trkpt lat="43.22827" lon="2.37373">
        <ele>102.92</ele>
        <time>2019-10-31T20:49:14Z</time>
      </trkpt>
      <trkpt lat="43.22887" lon="2.37457">
        <ele>103.008</ele>
        <time>2019-10-31T20:48:54Z</time>
      </trkpt>
      <trkpt lat="43.22993" lon="2.3753">
        <ele>101.91</ele>
        <time>2019-10-31T20:48:34Z</time>
      </trkpt>
      <trkpt lat="43.23063" lon="2.37534">
        <ele>103.364</ele>
        <time>2019-10-31T20:48:14Z</time>
      </trkpt>
      <trkpt lat="43.23654" lon="2.37255">
        <ele>100.943</ele>
        <time>2019-10-31T20:47:54Z</time>
      </trkpt>
      <trkpt lat="43.23703" lon="2.37253">
        <ele>99.49</ele>
        <time>2019-10-31T20:47:34Z</time>
      </trkpt>
      <trkpt lat="43.2375" lon="2.37294">
        <ele>95.081</ele>
        <time>2019-10-31T20:47:14Z</time>
      </trkpt>
      <trkpt lat="43.23858" lon="2.37545">
        <ele>94.095</ele>
        <time>2019-10-31T20:46:54Z</time>
      </trkpt>
      <trkpt lat="43.24078" lon="2.38006">
        <ele>95.613</ele>
        <time>2019-10-31T20:46:34Z</time>
      </trkpt>
      <trkpt lat="43.24295" lon="2.38335">
        <ele>96.267</ele>
        <time>2019-10-31T20:46:14Z</time>
      </trkpt>
      <trkpt lat="43.24341" lon="2.38436">
        <ele>95.454</ele>
        <time>2019-10-31T20:45:54Z</time>
      </trkpt>
      <trkpt lat="43.24355" lon="2.38532">
        <ele>95.339</ele>
        <time>2019-10-31T20:45:34Z</time>
      </trkpt>
      <trkpt lat="43.24353" lon="2.3871">
        <ele>94.793</ele>
        <time>2019-10-31T20:45:14Z</time>
      </trkpt>
      <trkpt lat="43.24286" lon="2.38865">
        <ele>94.508</ele>
        <time>2019-10-31T20:44:54Z</time>
      </trkpt>
      <trkpt lat="43.24242" lon="2.38978">
        <ele>95.72</ele>
        <time>2019-10-31T20:44:34Z</time>
      </trkpt>
      <trkpt lat="43.24222" lon="2.39126">
        <ele>94.528</ele>
        <time>2019-10-31T20:44:14Z</time>
      </trkpt>
      <trkpt lat="43.24242" lon="2.3935">
        <ele>94.475</ele>
        <time>2019-10-31T20:43:54Z</time>
      </trkpt>
      <trkpt lat="43.24272" lon="2.39444">
        <ele>94.049</ele>
        <time>2019-10-31T20:43:34Z</time>
      </trkpt>
      <trkpt lat="43.24372" lon="2.39603">
        <ele>95.08</ele>
        <time>2019-10-31T20:43:14Z</time>
      </trkpt>
      <trkpt lat="43.24381" lon="2.3968">
        <ele>95.064</ele>
        <time>2019-10-31T20:42:54Z</time>
      </trkpt>
      <trkpt lat="43.24262" lon="2.40298">
        <ele>93.042</ele>
        <time>2019-10-31T20:42:34Z</time>
      </trkpt>
      <trkpt lat="43.24256" lon="2.40502">
        <ele>94.066</ele>
        <time>2019-10-31T20:42:14Z</time>
      </trkpt>
      <trkpt lat="43.24216" lon="2.40614">
        <ele>92.823</ele>
        <time>2019-10-31T20:41:54Z</time>
      </trkpt>
      <trkpt lat="43.2414" lon="2.40671">
        <ele>92.238</ele>
        <time>2019-10-31T20:41:34Z</time>
      </trkpt>
      <trkpt lat="43.2404" lon="2.40768">
        <ele>92.892</ele>
        <time>2019-10-31T20:41:14Z</time>
      </trkpt>
      <trkpt lat="43.23889" lon="2.41023">
        <ele>93.808</ele>
        <time>2019-10-31T20:40:54Z</time>
      </trkpt>
      <trkpt lat="43.23804" lon="2.41137">
        <ele>93.816</ele>
        <time>2019-10-31T20:40:34Z</time>
      </trkpt>
      <trkpt lat="43.23536" lon="2.4133">
        <ele>93.206</ele>
        <time>2019-10-31T20:40:14Z</time>
      </trkpt>
      <trkpt lat="43.23612" lon="2.41502">
        <ele>98.064</ele>
        <time>2019-10-31T20:39:54Z</time>
      </trkpt>
      <trkpt lat="43.23682" lon="2.41446">
        <ele>98.087</ele>
        <time>2019-10-31T20:39:34Z</time>
      </trkpt>
      <trkpt lat="43.23826" lon="2.41229">
        <ele>100.728</ele>
        <time>2019-10-31T20:39:14Z</time>
      </trkpt>
      <trkpt lat="43.23898" lon="2.41219">
        <ele>105.452</ele>
        <time>2019-10-31T20:38:54Z</time>
      </trkpt>
      <trkpt lat="43.23987" lon="2.4124">
        <ele>114.77</ele>
        <time>2019-10-31T20:38:34Z</time>
      </trkpt>
      <trkpt lat="43.2408" lon="2.41289">
        <ele>120.914</ele>
        <time>2019-10-31T20:38:14Z</time>
      </trkpt>
      <trkpt lat="43.24223" lon="2.41307">
        <ele>124.141</ele>
        <time>2019-10-31T20:37:54Z</time>
      </trkpt>
      <trkpt lat="43.24311" lon="2.41281">
        <ele>129.726</ele>
        <time>2019-10-31T20:37:34Z</time>
      </trkpt>
      <trkpt lat="43.24514" lon="2.41122">
        <ele>135.31</ele>
        <time>2019-10-31T20:37:14Z</time>
      </trkpt>
      <trkpt lat="43.24656" lon="2.41058">
        <ele>129.008</ele>
        <time>2019-10-31T20:36:54Z</time>
      </trkpt>
      <trkpt lat="43.24717" lon="2.41">
        <ele>125.022</ele>
        <time>2019-10-31T20:36:34Z</time>
      </trkpt>
      <trkpt lat="43.24841" lon="2.40933">
        <ele>122.002</ele>
        <time>2019-10-31T20:36:14Z</time>
      </trkpt>
      <trkpt lat="43.25075" lon="2.40854">
        <ele>118.349</ele>
        <time>2019-10-31T20:35:54Z</time>
      </trkpt>
      <trkpt lat="43.25152" lon="2.40841">
        <ele>113.044</ele>
        <time>2019-10-31T20:35:34Z</time>
      </trkpt>
      <trkpt lat="43.25261" lon="2.40809">
        <ele>112.255</ele>
        <time>2019-10-31T20:35:14Z</time>
      </trkpt>
      <trkpt lat="43.25352" lon="2.40841">
        <ele>110.739</ele>
        <time>2019-10-31T20:34:54Z</time>
      </trkpt>
      <trkpt lat="43.25425" lon="2.40882">
        <ele>110.287</ele>
        <time>2019-10-31T20:34:34Z</time>
      </trkpt>
      <trkpt lat="43.25524" lon="2.41017">
        <ele>110.041</ele>
        <time>2019-10-31T20:34:14Z</time>
      </trkpt>
      <trkpt lat="43.25564" lon="2.41045">
        <ele>110.018</ele>
        <time>2019-10-31T20:33:54Z</time>
      </trkpt>
      <trkpt lat="43.25607" lon="2.41094">
        <ele>111.363</ele>
        <time>2019-10-31T20:33:34Z</time>
      </trkpt>
      <trkpt lat="43.25705" lon="2.41178">
        <ele>114.037</ele>
        <time>2019-10-31T20:33:14Z</time>
      </trkpt>
      <trkpt lat="43.25753" lon="2.4121">
        <ele>115.808</ele>
        <time>2019-10-31T20:32:54Z</time>
      </trkpt>
      <trkpt lat="43.25802" lon="2.41274">
        <ele>119.711</ele>
        <time>2019-10-31T20:32:34Z</time>
      </trkpt>
      <trkpt lat="43.25888" lon="2.41287">
        <ele>120.065</ele>
        <time>2019-10-31T20:32:14Z</time>
      </trkpt>
      <trkpt lat="43.25914" lon="2.41277">
        <ele>120.015</ele>
        <time>2019-10-31T20:31:54Z</time>
      </trkpt>
      <trkpt lat="43.25952" lon="2.41221">
        <ele>120.072</ele>
        <time>2019-10-31T20:31:34Z</time>
      </trkpt>
      <trkpt lat="43.2598" lon="2.41144">
        <ele>120.043</ele>
        <time>2019-10-31T20:31:14Z</time>
      </trkpt>
      <trkpt lat="43.25978" lon="2.41071">
        <ele>120.077</ele>
        <time>2019-10-31T20:30:54Z</time>
      </trkpt>
      <trkpt lat="43.25982" lon="2.41019">
        <ele>120.245</ele>
        <time>2019-10-31T20:30:34Z</time>
      </trkpt>
      <trkpt lat="43.26077" lon="2.40882">
        <ele>125.529</ele>
        <time>2019-10-31T20:30:14Z</time>
      </trkpt>
      <trkpt lat="43.26171" lon="2.40785">
        <ele>129.926</ele>
        <time>2019-10-31T20:29:54Z</time>
      </trkpt>
      <trkpt lat="43.26294" lon="2.4071">
        <ele>122.711</ele>
        <time>2019-10-31T20:29:34Z</time>
      </trkpt>
      <trkpt lat="43.26389" lon="2.40614">
        <ele>125.175</ele>
        <time>2019-10-31T20:29:14Z</time>
      </trkpt>
      <trkpt lat="43.26448" lon="2.40516">
        <ele>126.008</ele>
        <time>2020-12-27T10:40:35Z</time>
      </trkpt>
      <trkpt lat="43.26533" lon="2.4032">
        <ele>129.821</ele>
        <time>2019-10-31T20:28:34Z</time>
      </trkpt>
      <trkpt lat="43.26644" lon="2.40101">
        <ele>125.065</ele>
        <time>2019-10-31T20:28:14Z</time>
      </trkpt>
      <trkpt lat="43.26736" lon="2.40084">
        <ele>127.093</ele>
        <time>2019-10-31T20:27:54Z</time>
      </trkpt>
      <trkpt lat="43.26827" lon="2.40032">
        <ele>127.147</ele>
        <time>2019-10-31T20:27:34Z</time>
      </trkpt>
      <trkpt lat="43.2687" lon="2.40044">
        <ele>132.548</ele>
        <time>2020-12-27T10:38:55Z</time>
      </trkpt>
      <trkpt lat="43.26898" lon="2.40068">
        <ele>136.252</ele>
        <time>2020-12-27T10:38:35Z</time>
      </trkpt>
      <trkpt lat="43.26889" lon="2.40118">
        <ele>139.32</ele>
        <time>2020-12-27T10:38:15Z</time>
      </trkpt>
      <trkpt lat="43.2691" lon="2.40128">
        <ele>141.254</ele>
        <time>2020-12-27T10:37:55Z</time>
      </trkpt>
      <trkpt lat="43.26921" lon="2.40171">
        <ele>136.731</ele>
        <time>2019-10-31T20:26:14Z</time>
      </trkpt>
      <trkpt lat="43.26944" lon="2.40167">
        <ele>136.056</ele>
        <time>2019-10-31T20:25:54Z</time>
      </trkpt>
      <trkpt lat="43.27007" lon="2.40116">
        <ele>131.25</ele>
        <time>2019-10-31T20:25:34Z</time>
      </trkpt>
      <trkpt lat="43.27" lon="2.40084">
        <ele>130.008</ele>
        <time>2019-10-31T20:25:14Z</time>
      </trkpt>
      <trkpt lat="43.27039" lon="2.40075">
        <ele>129.722</ele>
        <time>2019-10-31T20:24:54Z</time>
      </trkpt>
      <trkpt lat="43.27107" lon="2.40088">
        <ele>132.302</ele>
        <time>2019-10-31T20:24:34Z</time>
      </trkpt>
      <trkpt lat="43.27205" lon="2.40137">
        <ele>138.049</ele>
        <time>2019-10-31T20:24:14Z</time>
      </trkpt>
      <trkpt lat="43.27213" lon="2.40202">
        <ele>139.735</ele>
        <time>2019-10-31T20:23:54Z</time>
      </trkpt>
      <trkpt lat="43.27203" lon="2.40315">
        <ele>142.346</ele>
        <time>2019-10-31T20:23:34Z</time>
      </trkpt>
      <trkpt lat="43.27235" lon="2.4038">
        <ele>141.36</ele>
        <time>2019-10-31T20:23:14Z</time>
      </trkpt>
      <trkpt lat="43.27293" lon="2.40412">
        <ele>139.378</ele>
        <time>2019-10-31T20:22:54Z</time>
      </trkpt>
      <trkpt lat="43.27353" lon="2.40416">
        <ele>136.582</ele>
        <time>2019-10-31T20:22:34Z</time>
      </trkpt>
      <trkpt lat="43.27497" lon="2.40438">
        <ele>126.359</ele>
        <time>2019-10-31T20:22:14Z</time>
      </trkpt>
      <trkpt lat="43.2758" lon="2.40431">
        <ele>128.544</ele>
        <time>2019-10-31T20:21:54Z</time>
      </trkpt>
      <trkpt lat="43.27705" lon="2.40461">
        <ele>129.098</ele>
        <time>2019-10-31T20:21:34Z</time>
      </trkpt>
      <trkpt lat="43.27749" lon="2.40483">
        <ele>129.008</ele>
        <time>2019-10-31T20:21:14Z</time>
      </trkpt>
      <trkpt lat="43.27881" lon="2.40607">
        <ele>129.514</ele>
        <time>2019-10-31T20:20:54Z</time>
      </trkpt>
      <trkpt lat="43.27997" lon="2.40663">
        <ele>130.068</ele>
        <time>2019-10-31T20:20:34Z</time>
      </trkpt>
      <trkpt lat="43.28094" lon="2.40736">
        <ele>130.527</ele>
        <time>2019-10-31T20:20:14Z</time>
      </trkpt>
      <trkpt lat="43.28142" lon="2.40732">
        <ele>130.018</ele>
        <time>2019-10-31T20:19:54Z</time>
      </trkpt>
      <trkpt lat="43.28166" lon="2.40854">
        <ele>133.879</ele>
        <time>2019-10-31T20:19:34Z</time>
      </trkpt>
      <trkpt lat="43.28177" lon="2.41019">
        <ele>139.073</ele>
        <time>2019-10-31T20:19:14Z</time>
      </trkpt>
      <trkpt lat="43.2818" lon="2.41225">
        <ele>149.171</ele>
        <time>2019-10-31T20:18:54Z</time>
      </trkpt>
      <trkpt lat="43.28255" lon="2.41551">
        <ele>150.025</ele>
        <time>2019-10-31T20:18:34Z</time>
      </trkpt>
      <trkpt lat="43.2828" lon="2.41757">
        <ele>150.052</ele>
        <time>2019-10-31T20:18:14Z</time>
      </trkpt>
      <trkpt lat="43.28313" lon="2.41916">
        <ele>151.297</ele>
        <time>2019-10-31T20:17:54Z</time>
      </trkpt>
      <trkpt lat="43.28361" lon="2.42053">
        <ele>155.021</ele>
        <time>2019-10-31T20:17:34Z</time>
      </trkpt>
      <trkpt lat="43.28467" lon="2.42219">
        <ele>159.808</ele>
        <time>2019-10-31T20:17:14Z</time>
      </trkpt>
      <trkpt lat="43.28553" lon="2.42367">
        <ele>164.117</ele>
        <time>2019-10-31T20:16:54Z</time>
      </trkpt>
      <trkpt lat="43.28578" lon="2.42457">
        <ele>165.452</ele>
        <time>2019-10-31T20:16:34Z</time>
      </trkpt>
      <trkpt lat="43.28542" lon="2.42461">
        <ele>164.558</ele>
        <time>2019-10-31T20:16:14Z</time>
      </trkpt>
      <trkpt lat="43.28492" lon="2.42502">
        <ele>165.724</ele>
        <time>2019-10-31T20:15:54Z</time>
      </trkpt>
      <trkpt lat="43.28408" lon="2.42536">
        <ele>172.935</ele>
        <time>2019-10-31T20:15:34Z</time>
      </trkpt>
      <trkpt lat="43.2828" lon="2.42575">
        <ele>174.429</ele>
        <time>2019-10-31T20:15:14Z</time>
      </trkpt>
      <trkpt lat="43.28189" lon="2.42628">
        <ele>169.987</ele>
        <time>2019-10-31T20:14:54Z</time>
      </trkpt>
      <trkpt lat="43.2821" lon="2.42764">
        <ele>169.021</ele>
        <time>2019-10-31T20:14:34Z</time>
      </trkpt>
      <trkpt lat="43.28177" lon="2.42791">
        <ele>167.868</ele>
        <time>2019-10-31T20:14:14Z</time>
      </trkpt>
      <trkpt lat="43.28125" lon="2.42905">
        <ele>162.143</ele>
        <time>2019-10-31T20:13:54Z</time>
      </trkpt>
      <trkpt lat="43.28072" lon="2.42963">
        <ele>158.917</ele>
        <time>2019-10-31T20:13:34Z</time>
      </trkpt>
      <trkpt lat="43.28189" lon="2.43105">
        <ele>153.208</ele>
        <time>2019-10-31T20:13:14Z</time>
      </trkpt>
      <trkpt lat="43.28208" lon="2.4315">
        <ele>153.307</ele>
        <time>2019-10-31T20:12:54Z</time>
      </trkpt>
      <trkpt lat="43.28322" lon="2.43315">
        <ele>153.443</ele>
        <time>2019-10-31T20:12:34Z</time>
      </trkpt>
      <trkpt lat="43.28402" lon="2.43405">
        <ele>153.613</ele>
        <time>2019-10-31T20:12:14Z</time>
      </trkpt>
      <trkpt lat="43.28364" lon="2.43527">
        <ele>146.542</ele>
        <time>2019-10-31T20:11:54Z</time>
      </trkpt>
      <trkpt lat="43.284" lon="2.43579">
        <ele>144.933</ele>
        <time>2019-10-31T20:11:34Z</time>
      </trkpt>
      <trkpt lat="43.28369" lon="2.43806">
        <ele>138.547</ele>
        <time>2019-10-31T20:11:14Z</time>
      </trkpt>
      <trkpt lat="43.28506" lon="2.43851">
        <ele>141.125</ele>
        <time>2019-10-31T20:10:54Z</time>
      </trkpt>
      <trkpt lat="43.28561" lon="2.43897">
        <ele>142.269</ele>
        <time>2019-10-31T20:10:34Z</time>
      </trkpt>
      <trkpt lat="43.28586" lon="2.43847">
        <ele>143.616</ele>
        <time>2019-10-31T20:10:14Z</time>
      </trkpt>
      <trkpt lat="43.28663" lon="2.43787">
        <ele>147.461</ele>
        <time>2019-10-31T20:09:54Z</time>
      </trkpt>
      <trkpt lat="43.28655" lon="2.43748">
        <ele>147.135</ele>
        <time>2019-10-31T20:09:34Z</time>
      </trkpt>
      <trkpt lat="43.28661" lon="2.43633">
        <ele>145.008</ele>
        <time>2019-10-31T20:09:14Z</time>
      </trkpt>
      <trkpt lat="43.28722" lon="2.43585">
        <ele>145.026</ele>
        <time>2019-10-31T20:08:54Z</time>
      </trkpt>
      <trkpt lat="43.28777" lon="2.4359">
        <ele>145.015</ele>
        <time>2019-10-31T20:08:34Z</time>
      </trkpt>
      <trkpt lat="43.28795" lon="2.43573">
        <ele>145.198</ele>
        <time>2019-10-31T20:08:14Z</time>
      </trkpt>
      <trkpt lat="43.28809" lon="2.43508">
        <ele>145.622</ele>
        <time>2019-10-31T20:07:54Z</time>
      </trkpt>
      <trkpt lat="43.28878" lon="2.43437">
        <ele>146.313</ele>
        <time>2019-10-31T20:07:34Z</time>
      </trkpt>
      <trkpt lat="43.28941" lon="2.43401">
        <ele>145.967</ele>
        <time>2019-10-31T20:07:14Z</time>
      </trkpt>
      <trkpt lat="43.28994" lon="2.43341">
        <ele>147.835</ele>
        <time>2019-10-31T20:06:54Z</time>
      </trkpt>
      <trkpt lat="43.29034" lon="2.43311">
        <ele>149.759</ele>
        <time>2019-10-31T20:06:34Z</time>
      </trkpt>
      <trkpt lat="43.29066" lon="2.43244">
        <ele>154.196</ele>
        <time>2019-10-31T20:06:14Z</time>
      </trkpt>
      <trkpt lat="43.29092" lon="2.43128">
        <ele>159.181</ele>
        <time>2019-10-31T20:05:54Z</time>
      </trkpt>
      <trkpt lat="43.29169" lon="2.43025">
        <ele>162.235</ele>
        <time>2019-10-31T20:05:34Z</time>
      </trkpt>
      <trkpt lat="43.29217" lon="2.42978">
        <ele>164.608</ele>
        <time>2019-10-31T20:05:14Z</time>
      </trkpt>
      <trkpt lat="43.2925" lon="2.42929">
        <ele>166.624</ele>
        <time>2019-10-31T20:04:54Z</time>
      </trkpt>
      <trkpt lat="43.29289" lon="2.4283">
        <ele>170.531</ele>
        <time>2019-10-31T20:04:34Z</time>
      </trkpt>
      <trkpt lat="43.29311" lon="2.42725">
        <ele>173.296</ele>
        <time>2019-10-31T20:04:14Z</time>
      </trkpt>
      <trkpt lat="43.29367" lon="2.42596">
        <ele>174.25</ele>
        <time>2019-10-31T20:03:54Z</time>
      </trkpt>
      <trkpt lat="43.29433" lon="2.42502">
        <ele>177.161</ele>
        <time>2019-10-31T20:03:34Z</time>
      </trkpt>
      <trkpt lat="43.29506" lon="2.42452">
        <ele>182.465</ele>
        <time>2019-10-31T20:03:14Z</time>
      </trkpt>
      <trkpt lat="43.29565" lon="2.42382">
        <ele>186.763</ele>
        <time>2019-10-31T20:02:54Z</time>
      </trkpt>
      <trkpt lat="43.29597" lon="2.42362">
        <ele>186.067</ele>
        <time>2019-10-31T20:02:34Z</time>
      </trkpt>
      <trkpt lat="43.29668" lon="2.42253">
        <ele>192.054</ele>
        <time>2019-10-31T20:02:14Z</time>
      </trkpt>
      <trkpt lat="43.29796" lon="2.42163">
        <ele>193.449</ele>
        <time>2019-10-31T20:01:54Z</time>
      </trkpt>
      <trkpt lat="43.29884" lon="2.42146">
        <ele>187.573</ele>
        <time>2019-10-31T20:01:34Z</time>
      </trkpt>
      <trkpt lat="43.2994" lon="2.42092">
        <ele>185.708</ele>
        <time>2019-10-31T20:01:14Z</time>
      </trkpt>
      <trkpt lat="43.29982" lon="2.42023">
        <ele>186.514</ele>
        <time>2019-10-31T20:00:54Z</time>
      </trkpt>
      <trkpt lat="43.30007" lon="2.42025">
        <ele>186.513</ele>
        <time>2019-10-31T20:00:34Z</time>
      </trkpt>
      <trkpt lat="43.30007" lon="2.42081">
        <ele>182.972</ele>
        <time>2019-10-31T20:00:14Z</time>
      </trkpt>
      <trkpt lat="43.30034" lon="2.4209">
        <ele>183.576</ele>
        <time>2019-10-31T19:59:54Z</time>
      </trkpt>
      <trkpt lat="43.3021" lon="2.41961">
        <ele>181.147</ele>
        <time>2019-10-31T19:59:34Z</time>
      </trkpt>
      <trkpt lat="43.30263" lon="2.4197">
        <ele>180.071</ele>
        <time>2019-10-31T19:59:14Z</time>
      </trkpt>
      <trkpt lat="43.30368" lon="2.41912">
        <ele>180.449</ele>
        <time>2019-10-31T19:58:54Z</time>
      </trkpt>
      <trkpt lat="43.30437" lon="2.41931">
        <ele>186.093</ele>
        <time>2019-10-31T19:58:34Z</time>
      </trkpt>
      <trkpt lat="43.3051" lon="2.41929">
        <ele>188.28</ele>
        <time>2019-10-31T19:58:14Z</time>
      </trkpt>
      <trkpt lat="43.30608" lon="2.41952">
        <ele>189.985</ele>
        <time>2019-10-31T19:57:54Z</time>
      </trkpt>
      <trkpt lat="43.3066" lon="2.41991">
        <ele>190.749</ele>
        <time>2019-10-31T19:57:34Z</time>
      </trkpt>
      <trkpt lat="43.30708" lon="2.42083">
        <ele>192.508</ele>
        <time>2019-10-31T19:57:14Z</time>
      </trkpt>
      <trkpt lat="43.30744" lon="2.42103">
        <ele>194.317</ele>
        <time>2019-10-31T19:56:54Z</time>
      </trkpt>
      <trkpt lat="43.30879" lon="2.42062">
        <ele>193.37</ele>
        <time>2019-10-31T19:56:34Z</time>
      </trkpt>
      <trkpt lat="43.30961" lon="2.4212">
        <ele>200.138</ele>
        <time>2019-10-31T19:56:14Z</time>
      </trkpt>
      <trkpt lat="43.31016" lon="2.42116">
        <ele>196.952</ele>
        <time>2019-10-31T19:55:54Z</time>
      </trkpt>
      <trkpt lat="43.31132" lon="2.42161">
        <ele>198.593</ele>
        <time>2019-10-31T19:55:34Z</time>
      </trkpt>
      <trkpt lat="43.31164" lon="2.42234">
        <ele>203.177</ele>
        <time>2019-10-31T19:55:14Z</time>
      </trkpt>
      <trkpt lat="43.31313" lon="2.42283">
        <ele>202.895</ele>
        <time>2019-10-31T19:54:54Z</time>
      </trkpt>
      <trkpt lat="43.31436" lon="2.42238">
        <ele>206.979</ele>
        <time>2019-10-31T19:54:34Z</time>
      </trkpt>
      <trkpt lat="43.31473" lon="2.42201">
        <ele>210.116</ele>
        <time>2019-10-31T19:54:14Z</time>
      </trkpt>
      <trkpt lat="43.31553" lon="2.42148">
        <ele>211.841</ele>
        <time>2019-10-31T19:53:54Z</time>
      </trkpt>
      <trkpt lat="43.31608" lon="2.42152">
        <ele>218.025</ele>
        <time>2019-10-31T19:53:34Z</time>
      </trkpt>
      <trkpt lat="43.3167" lon="2.42118">
        <ele>218.908</ele>
        <time>2019-10-31T19:53:14Z</time>
      </trkpt>
      <trkpt lat="43.31701" lon="2.42199">
        <ele>220.122</ele>
        <time>2019-10-31T19:52:54Z</time>
      </trkpt>
      <trkpt lat="43.3175" lon="2.42201">
        <ele>220.257</ele>
        <time>2019-10-31T19:52:34Z</time>
      </trkpt>
      <trkpt lat="43.31834" lon="2.42137">
        <ele>223.094</ele>
        <time>2019-10-31T19:52:14Z</time>
      </trkpt>
      <trkpt lat="43.31878" lon="2.42055">
        <ele>221.878</ele>
        <time>2019-10-31T19:51:54Z</time>
      </trkpt>
      <trkpt lat="43.31904" lon="2.42047">
        <ele>223.389</ele>
        <time>2019-10-31T19:51:34Z</time>
      </trkpt>
      <trkpt lat="43.31957" lon="2.41989">
        <ele>224.323</ele>
        <time>2019-10-31T19:51:14Z</time>
      </trkpt>
      <trkpt lat="43.32014" lon="2.4198">
        <ele>225.871</ele>
        <time>2019-10-31T19:50:54Z</time>
      </trkpt>
      <trkpt lat="43.32023" lon="2.41946">
        <ele>232.695</ele>
        <time>2019-10-31T19:50:34Z</time>
      </trkpt>
      <trkpt lat="43.32039" lon="2.41944">
        <ele>235.322</ele>
        <time>2019-10-31T19:50:14Z</time>
      </trkpt>
      <trkpt lat="43.32078" lon="2.42058">
        <ele>234.087</ele>
        <time>2020-12-27T10:01:15Z</time>
      </trkpt>
      <trkpt lat="43.32106" lon="2.42092">
        <ele>236.041</ele>
        <time>2020-12-27T10:00:55Z</time>
      </trkpt>
      <trkpt lat="43.32207" lon="2.42109">
        <ele>228.608</ele>
        <time>2019-10-31T19:49:34Z</time>
      </trkpt>
      <trkpt lat="43.32284" lon="2.4209">
        <ele>233.123</ele>
        <time>2019-10-31T19:49:14Z</time>
      </trkpt>
      <trkpt lat="43.32334" lon="2.4203">
        <ele>245.703</ele>
        <time>2020-12-27T09:59:55Z</time>
      </trkpt>
      <trkpt lat="43.32386" lon="2.42025">
        <ele>251.759</ele>
        <time>2019-10-31T19:48:14Z</time>
      </trkpt>
      <trkpt lat="43.3239" lon="2.42033">
        <ele>251.79</ele>
        <time>2019-10-31T19:47:54Z</time>
      </trkpt>
      <trkpt lat="43.32437" lon="2.42033">
        <ele>260.731</ele>
        <time>2019-10-31T19:47:34Z</time>
      </trkpt>
      <trkpt lat="43.32466" lon="2.42029">
        <ele>268.435</ele>
        <time>2019-10-31T19:46:34Z</time>
      </trkpt>
      <trkpt lat="43.32506" lon="2.4201">
        <ele>273.123</ele>
        <time>2020-12-27T09:58:15Z</time>
      </trkpt>
      <trkpt lat="43.32531" lon="2.41988">
        <ele>276.767</ele>
        <time>2020-12-27T09:57:55Z</time>
      </trkpt>
      <trkpt lat="43.32565" lon="2.41983">
        <ele>278.424</ele>
        <time>2019-10-31T19:45:34Z</time>
      </trkpt>
      <trkpt lat="43.32594" lon="2.41954">
        <ele>286.889</ele>
        <time>2020-12-27T09:57:15Z</time>
      </trkpt>
      <trkpt lat="43.32657" lon="2.41937">
        <ele>296.443</ele>
        <time>2020-12-27T09:56:55Z</time>
      </trkpt>
      <trkpt lat="43.32724" lon="2.41952">
        <ele>303.108</ele>
        <time>2019-10-31T19:44:34Z</time>
      </trkpt>
      <trkpt lat="43.32777" lon="2.41933">
        <ele>308.826</ele>
        <time>2019-10-31T19:44:14Z</time>
      </trkpt>
      <trkpt lat="43.32913" lon="2.41832">
        <ele>321.133</ele>
        <time>2019-10-31T19:43:54Z</time>
      </trkpt>
      <trkpt lat="43.32935" lon="2.41903">
        <ele>324.078</ele>
        <time>2019-10-31T19:43:34Z</time>
      </trkpt>
      <trkpt lat="43.3297" lon="2.4183">
        <ele>333.427</ele>
        <time>2019-10-31T19:43:14Z</time>
      </trkpt>
      <trkpt lat="43.33013" lon="2.41826">
        <ele>342.498</ele>
        <time>2019-10-31T19:42:54Z</time>
      </trkpt>
      <trkpt lat="43.33055" lon="2.41781">
        <ele>350.122</ele>
        <time>2019-10-31T19:42:34Z</time>
      </trkpt>
      <trkpt lat="43.33077" lon="2.41774">
        <ele>352.51</ele>
        <time>2019-10-31T19:42:14Z</time>
      </trkpt>
      <trkpt lat="43.33097" lon="2.41822">
        <ele>359.094</ele>
        <time>2019-10-31T19:41:54Z</time>
      </trkpt>
      <trkpt lat="43.33127" lon="2.41826">
        <ele>361.071</ele>
        <time>2019-10-31T19:41:34Z</time>
      </trkpt>
      <trkpt lat="43.33195" lon="2.41867">
        <ele>366.036</ele>
        <time>2019-10-31T19:41:14Z</time>
      </trkpt>
      <trkpt lat="43.33342" lon="2.41847">
        <ele>363.91</ele>
        <time>2019-10-31T19:40:54Z</time>
      </trkpt>
      <trkpt lat="43.33451" lon="2.41794">
        <ele>363.208</ele>
        <time>2019-10-31T19:40:34Z</time>
      </trkpt>
      <trkpt lat="43.33479" lon="2.41815">
        <ele>364.222</ele>
        <time>2019-10-31T19:40:14Z</time>
      </trkpt>
      <trkpt lat="43.33554" lon="2.41785">
        <ele>369.402</ele>
        <time>2019-10-31T19:39:54Z</time>
      </trkpt>
      <trkpt lat="43.33653" lon="2.41729">
        <ele>378.949</ele>
        <time>2019-10-31T19:39:34Z</time>
      </trkpt>
      <trkpt lat="43.33698" lon="2.41665">
        <ele>380.121</ele>
        <time>2019-10-31T19:39:14Z</time>
      </trkpt>
      <trkpt lat="43.33772" lon="2.41625">
        <ele>382.622</ele>
        <time>2020-12-27T09:50:55Z</time>
      </trkpt>
      <trkpt lat="43.33795" lon="2.41617">
        <ele>384.466</ele>
        <time>2020-12-27T09:50:35Z</time>
      </trkpt>
      <trkpt lat="43.33807" lon="2.41632">
        <ele>385.084</ele>
        <time>2020-12-27T09:50:15Z</time>
      </trkpt>
      <trkpt lat="43.33805" lon="2.41691">
        <ele>382.538</ele>
        <time>2020-12-27T09:49:55Z</time>
      </trkpt>
      <trkpt lat="43.33852" lon="2.41663">
        <ele>387.975</ele>
        <time>2020-12-27T09:49:35Z</time>
      </trkpt>
      <trkpt lat="43.33852" lon="2.41707">
        <ele>382.11</ele>
        <time>2019-10-31T19:36:54Z</time>
      </trkpt>
      <trkpt lat="43.33874" lon="2.41718">
        <ele>382.714</ele>
        <time>2019-10-31T19:36:34Z</time>
      </trkpt>
      <trkpt lat="43.33913" lon="2.41699">
        <ele>385.008</ele>
        <time>2019-10-31T19:36:14Z</time>
      </trkpt>
      <trkpt lat="43.33936" lon="2.41704">
        <ele>387.126</ele>
        <time>2019-10-31T19:35:54Z</time>
      </trkpt>
      <trkpt lat="43.3394" lon="2.41733">
        <ele>387.542</ele>
        <time>2019-10-31T19:35:34Z</time>
      </trkpt>
      <trkpt lat="43.33959" lon="2.41787">
        <ele>389.187</ele>
        <time>2019-10-31T19:35:14Z</time>
      </trkpt>
      <trkpt lat="43.3396" lon="2.41819">
        <ele>389.794</ele>
        <time>2019-10-31T19:34:54Z</time>
      </trkpt>
      <trkpt lat="43.33932" lon="2.41852">
        <ele>389.685</ele>
        <time>2019-10-31T19:34:34Z</time>
      </trkpt>
      <trkpt lat="43.33905" lon="2.41914">
        <ele>391.699</ele>
        <time>2019-10-31T19:34:14Z</time>
      </trkpt>
      <trkpt lat="43.3388" lon="2.42047">
        <ele>389.777</ele>
        <time>2019-10-31T19:33:54Z</time>
      </trkpt>
      <trkpt lat="43.3389" lon="2.42131">
        <ele>383.711</ele>
        <time>2019-10-31T19:33:34Z</time>
      </trkpt>
      <trkpt lat="43.33874" lon="2.42167">
        <ele>381.998</ele>
        <time>2019-10-31T19:33:14Z</time>
      </trkpt>
      <trkpt lat="43.33874" lon="2.42216">
        <ele>384.593</ele>
        <time>2019-10-31T19:32:54Z</time>
      </trkpt>
      <trkpt lat="43.33882" lon="2.42274">
        <ele>390.037</ele>
        <time>2019-10-31T19:32:34Z</time>
      </trkpt>
      <trkpt lat="43.33868" lon="2.42433">
        <ele>398.108</ele>
        <time>2019-10-31T19:32:14Z</time>
      </trkpt>
      <trkpt lat="43.33873" lon="2.42607">
        <ele>401.903</ele>
        <time>2019-10-31T19:31:54Z</time>
      </trkpt>
      <trkpt lat="43.33885" lon="2.42684">
        <ele>401.221</ele>
        <time>2019-10-31T19:31:34Z</time>
      </trkpt>
      <trkpt lat="43.33871" lon="2.42766">
        <ele>405.811</ele>
        <time>2019-10-31T19:31:14Z</time>
      </trkpt>
      <trkpt lat="43.33884" lon="2.42867">
        <ele>402.32</ele>
        <time>2019-10-31T19:30:54Z</time>
      </trkpt>
      <trkpt lat="43.34046" lon="2.42881">
        <ele>377.371</ele>
        <time>2019-10-31T19:30:34Z</time>
      </trkpt>
      <trkpt lat="43.34131" lon="2.42857">
        <ele>382.665</ele>
        <time>2019-10-31T19:30:14Z</time>
      </trkpt>
      <trkpt lat="43.34202" lon="2.42861">
        <ele>383.783</ele>
        <time>2019-10-31T19:29:54Z</time>
      </trkpt>
      <trkpt lat="43.34205" lon="2.42872">
        <ele>383.447</ele>
        <time>2019-10-31T19:29:34Z</time>
      </trkpt>
      <trkpt lat="43.34185" lon="2.42891">
        <ele>380.744</ele>
        <time>2019-10-31T19:29:14Z</time>
      </trkpt>
      <trkpt lat="43.34217" lon="2.4291">
        <ele>386.379</ele>
        <time>2019-10-31T19:28:54Z</time>
      </trkpt>
      <trkpt lat="43.34231" lon="2.42952">
        <ele>393.793</ele>
        <time>2019-10-31T19:28:34Z</time>
      </trkpt>
      <trkpt lat="43.3428" lon="2.42988">
        <ele>391.708</ele>
        <time>2019-10-31T19:28:14Z</time>
      </trkpt>
      <trkpt lat="43.34304" lon="2.43038">
        <ele>395.114</ele>
        <time>2019-10-31T19:27:54Z</time>
      </trkpt>
      <trkpt lat="43.34305" lon="2.43141">
        <ele>400.513</ele>
        <time>2019-10-31T19:27:34Z</time>
      </trkpt>
      <trkpt lat="43.34349" lon="2.43154">
        <ele>398.872</ele>
        <time>2019-10-31T19:27:14Z</time>
      </trkpt>
      <trkpt lat="43.34363" lon="2.43188">
        <ele>402.982</ele>
        <time>2019-10-31T19:26:54Z</time>
      </trkpt>
      <trkpt lat="43.3438" lon="2.43193">
        <ele>403.743</ele>
        <time>2019-10-31T19:26:34Z</time>
      </trkpt>
      <trkpt lat="43.34413" lon="2.43208">
        <ele>406.487</ele>
        <time>2019-10-31T19:26:14Z</time>
      </trkpt>
      <trkpt lat="43.34453" lon="2.43246">
        <ele>410.365</ele>
        <time>2019-10-31T19:25:54Z</time>
      </trkpt>
      <trkpt lat="43.34443" lon="2.43341">
        <ele>422.829</ele>
        <time>2019-10-31T19:25:34Z</time>
      </trkpt>
      <trkpt lat="43.34459" lon="2.434">
        <ele>425.146</ele>
        <time>2019-10-31T19:25:14Z</time>
      </trkpt>
      <trkpt lat="43.34481" lon="2.4341">
        <ele>424.331</ele>
        <time>2019-10-31T19:24:54Z</time>
      </trkpt>
      <trkpt lat="43.34508" lon="2.4341">
        <ele>423.875</ele>
        <time>2019-10-31T19:24:34Z</time>
      </trkpt>
      <trkpt lat="43.3457" lon="2.43423">
        <ele>429.308</ele>
        <time>2019-10-31T19:24:14Z</time>
      </trkpt>
      <trkpt lat="43.34587" lon="2.43471">
        <ele>431.427</ele>
        <time>2019-10-31T19:23:54Z</time>
      </trkpt>
      <trkpt lat="43.34588" lon="2.43516">
        <ele>430.607</ele>
        <time>2019-10-31T19:23:34Z</time>
      </trkpt>
      <trkpt lat="43.34621" lon="2.43571">
        <ele>435.999</ele>
        <time>2019-10-31T19:23:14Z</time>
      </trkpt>
      <trkpt lat="43.34635" lon="2.43574">
        <ele>438.328</ele>
        <time>2019-10-31T19:22:54Z</time>
      </trkpt>
      <trkpt lat="43.34636" lon="2.43589">
        <ele>438.779</ele>
        <time>2019-10-31T19:22:34Z</time>
      </trkpt>
      <trkpt lat="43.34628" lon="2.43625">
        <ele>438.413</ele>
        <time>2019-10-31T19:22:14Z</time>
      </trkpt>
      <trkpt lat="43.34619" lon="2.43632">
        <ele>436.771</ele>
        <time>2019-10-31T19:21:54Z</time>
      </trkpt>
      <trkpt lat="43.34627" lon="2.43646">
        <ele>438.615</ele>
        <time>2019-10-31T19:21:34Z</time>
      </trkpt>
      <trkpt lat="43.34648" lon="2.43657">
        <ele>444.052</ele>
        <time>2019-10-31T19:21:14Z</time>
      </trkpt>
      <trkpt lat="43.34667" lon="2.43633">
        <ele>447.687</ele>
        <time>2019-10-31T19:20:54Z</time>
      </trkpt>
      <trkpt lat="43.34689" lon="2.43676">
        <ele>455.871</ele>
        <time>2019-10-31T19:20:34Z</time>
      </trkpt>
      <trkpt lat="43.34754" lon="2.43538">
        <ele>471.308</ele>
        <time>2019-10-31T19:20:14Z</time>
      </trkpt>
      <trkpt lat="43.3472" lon="2.4339">
        <ele>483.414</ele>
        <time>2019-10-31T19:19:54Z</time>
      </trkpt>
      <trkpt lat="43.34729" lon="2.43373">
        <ele>486.459</ele>
        <time>2019-10-31T19:19:34Z</time>
      </trkpt>
      <trkpt lat="43.34759" lon="2.43392">
        <ele>489.656</ele>
        <time>2019-10-31T19:19:14Z</time>
      </trkpt>
      <trkpt lat="43.34792" lon="2.43444">
        <ele>494.072</ele>
        <time>2019-10-31T19:18:54Z</time>
      </trkpt>
      <trkpt lat="43.34829" lon="2.43437">
        <ele>499.023</ele>
        <time>2019-10-31T19:18:34Z</time>
      </trkpt>
      <trkpt lat="43.34915" lon="2.43435">
        <ele>497.067</ele>
        <time>2019-10-31T19:18:14Z</time>
      </trkpt>
      <trkpt lat="43.35002" lon="2.43467">
        <ele>508.235</ele>
        <time>2019-10-31T19:17:54Z</time>
      </trkpt>
      <trkpt lat="43.35116" lon="2.4348">
        <ele>516.259</ele>
        <time>2019-10-31T19:17:34Z</time>
      </trkpt>
      <trkpt lat="43.35304" lon="2.43461">
        <ele>525.326</ele>
        <time>2019-10-31T19:17:14Z</time>
      </trkpt>
      <trkpt lat="43.35405" lon="2.43467">
        <ele>540.951</ele>
        <time>2019-10-31T19:16:54Z</time>
      </trkpt>
      <trkpt lat="43.35472" lon="2.43427">
        <ele>547.175</ele>
        <time>2019-10-31T19:16:34Z</time>
      </trkpt>
      <trkpt lat="43.35556" lon="2.43405">
        <ele>561.008</ele>
        <time>2019-10-31T19:16:14Z</time>
      </trkpt>
      <trkpt lat="43.35761" lon="2.43309">
        <ele>590.926</ele>
        <time>2019-10-31T19:15:54Z</time>
      </trkpt>
      <trkpt lat="43.35865" lon="2.43255">
        <ele>608.415</ele>
        <time>2019-10-31T19:15:34Z</time>
      </trkpt>
      <trkpt lat="43.35896" lon="2.4321">
        <ele>611.898</ele>
        <time>2019-10-31T19:15:14Z</time>
      </trkpt>
      <trkpt lat="43.3589" lon="2.43422">
        <ele>627.498</ele>
        <time>2019-10-31T19:14:54Z</time>
      </trkpt>
      <trkpt lat="43.35943" lon="2.43521">
        <ele>638.039</ele>
        <time>2019-10-31T19:14:34Z</time>
      </trkpt>
      <trkpt lat="43.36041" lon="2.43568">
        <ele>653.963</ele>
        <time>2019-10-31T19:14:14Z</time>
      </trkpt>
      <trkpt lat="43.36157" lon="2.43581">
        <ele>668.231</ele>
        <time>2019-10-31T19:13:54Z</time>
      </trkpt>
      <trkpt lat="43.36222" lon="2.43615">
        <ele>680.775</ele>
        <time>2019-10-31T19:13:34Z</time>
      </trkpt>
      <trkpt lat="43.36261" lon="2.43652">
        <ele>683.482</ele>
        <time>2019-10-31T19:13:14Z</time>
      </trkpt>
      <trkpt lat="43.36338" lon="2.4365">
        <ele>690.537</ele>
        <time>2019-10-31T19:12:54Z</time>
      </trkpt>
      <trkpt lat="43.36421" lon="2.43723">
        <ele>693.681</ele>
        <time>2019-10-31T19:12:34Z</time>
      </trkpt>
      <trkpt lat="43.36424" lon="2.43817">
        <ele>699.908</ele>
        <time>2019-10-31T19:12:14Z</time>
      </trkpt>
      <trkpt lat="43.36416" lon="2.43903">
        <ele>702.817</ele>
        <time>2019-10-31T19:11:54Z</time>
      </trkpt>
      <trkpt lat="43.36446" lon="2.43946">
        <ele>709.207</ele>
        <time>2019-10-31T19:11:34Z</time>
      </trkpt>
      <trkpt lat="43.36449" lon="2.43978">
        <ele>708.055</ele>
        <time>2019-10-31T19:11:14Z</time>
      </trkpt>
      <trkpt lat="43.36517" lon="2.43933">
        <ele>729.468</ele>
        <time>2019-10-31T19:10:54Z</time>
      </trkpt>
      <trkpt lat="43.36581" lon="2.43954">
        <ele>742.339</ele>
        <time>2019-10-31T19:10:34Z</time>
      </trkpt>
      <trkpt lat="43.36584" lon="2.43997">
        <ele>741.233</ele>
        <time>2019-10-31T19:10:14Z</time>
      </trkpt>
      <trkpt lat="43.3665" lon="2.44025">
        <ele>737.741</ele>
        <time>2019-10-31T19:09:54Z</time>
      </trkpt>
      <trkpt lat="43.36672" lon="2.44053">
        <ele>737.545</ele>
        <time>2019-10-31T19:09:34Z</time>
      </trkpt>
      <trkpt lat="43.36689" lon="2.4406">
        <ele>736.682</ele>
        <time>2019-10-31T19:09:14Z</time>
      </trkpt>
      <trkpt lat="43.36704" lon="2.44085">
        <ele>737.147</ele>
        <time>2019-10-31T19:08:54Z</time>
      </trkpt>
      <trkpt lat="43.36728" lon="2.44103">
        <ele>739.091</ele>
        <time>2019-10-31T19:08:34Z</time>
      </trkpt>
      <trkpt lat="43.3679" lon="2.44208">
        <ele>741.008</ele>
        <time>2019-10-31T19:08:14Z</time>
      </trkpt>
      <trkpt lat="43.36839" lon="2.44231">
        <ele>746.214</ele>
        <time>2019-10-31T19:07:54Z</time>
      </trkpt>
      <trkpt lat="43.36912" lon="2.44276">
        <ele>747.959</ele>
        <time>2019-10-31T19:07:34Z</time>
      </trkpt>
      <trkpt lat="43.37018" lon="2.44199">
        <ele>752.856</ele>
        <time>2019-10-31T19:07:14Z</time>
      </trkpt>
      <trkpt lat="43.37144" lon="2.44158">
        <ele>760.345</ele>
        <time>2019-10-31T19:06:54Z</time>
      </trkpt>
      <trkpt lat="43.37208" lon="2.44188">
        <ele>758.376</ele>
        <time>2019-10-31T19:06:34Z</time>
      </trkpt>
      <trkpt lat="43.37313" lon="2.4416">
        <ele>776.02</ele>
        <time>2019-10-31T19:06:14Z</time>
      </trkpt>
      <trkpt lat="43.37414" lon="2.4418">
        <ele>783.378</ele>
        <time>2019-10-31T19:05:54Z</time>
      </trkpt>
      <trkpt lat="43.37506" lon="2.44233">
        <ele>785.642</ele>
        <time>2019-10-31T19:05:34Z</time>
      </trkpt>
      <trkpt lat="43.37572" lon="2.44255">
        <ele>791.889</ele>
        <time>2019-10-31T19:05:14Z</time>
      </trkpt>
      <trkpt lat="43.37665" lon="2.44244">
        <ele>786.954</ele>
        <time>2019-10-31T19:04:54Z</time>
      </trkpt>
      <trkpt lat="43.37799" lon="2.44276">
        <ele>785.068</ele>
        <time>2019-10-31T19:04:34Z</time>
      </trkpt>
      <trkpt lat="43.37899" lon="2.44336">
        <ele>782.608</ele>
        <time>2019-10-31T19:04:14Z</time>
      </trkpt>
      <trkpt lat="43.37976" lon="2.44366">
        <ele>787.508</ele>
        <time>2019-10-31T19:03:54Z</time>
      </trkpt>
      <trkpt lat="43.38066" lon="2.44431">
        <ele>798.626</ele>
        <time>2019-10-31T19:03:34Z</time>
      </trkpt>
      <trkpt lat="43.38174" lon="2.44474">
        <ele>828.025</ele>
        <time>2019-10-31T19:03:14Z</time>
      </trkpt>
      <trkpt lat="43.382" lon="2.44512">
        <ele>838.688</ele>
        <time>2019-10-31T19:02:54Z</time>
      </trkpt>
      <trkpt lat="43.38241" lon="2.44523">
        <ele>848.029</ele>
        <time>2019-10-31T19:02:34Z</time>
      </trkpt>
      <trkpt lat="43.38355" lon="2.44639">
        <ele>846.943</ele>
        <time>2019-10-31T19:02:14Z</time>
      </trkpt>
      <trkpt lat="43.3855" lon="2.44802">
        <ele>868.261</ele>
        <time>2019-10-31T19:01:54Z</time>
      </trkpt>
      <trkpt lat="43.38673" lon="2.44927">
        <ele>878.965</ele>
        <time>2019-10-31T19:01:34Z</time>
      </trkpt>
      <trkpt lat="43.38822" lon="2.45098">
        <ele>903.562</ele>
        <time>2019-10-31T19:01:14Z</time>
      </trkpt>
      <trkpt lat="43.38871" lon="2.4509">
        <ele>905.817</ele>
        <time>2019-10-31T19:00:54Z</time>
      </trkpt>
      <trkpt lat="43.38907" lon="2.44987">
        <ele>901.311</ele>
        <time>2019-10-31T19:00:34Z</time>
      </trkpt>
      <trkpt lat="43.38941" lon="2.44937">
        <ele>900.408</ele>
        <time>2019-10-31T19:00:14Z</time>
      </trkpt>
      <trkpt lat="43.39022" lon="2.44886">
        <ele>897.808</ele>
        <time>2019-10-31T18:59:54Z</time>
      </trkpt>
      <trkpt lat="43.39102" lon="2.44819">
        <ele>893.353</ele>
        <time>2019-10-31T18:59:34Z</time>
      </trkpt>
      <trkpt lat="43.39155" lon="2.44804">
        <ele>890.852</ele>
        <time>2019-10-31T18:59:14Z</time>
      </trkpt>
      <trkpt lat="43.39239" lon="2.44742">
        <ele>881.876</ele>
        <time>2019-10-31T18:58:54Z</time>
      </trkpt>
      <trkpt lat="43.39314" lon="2.44733">
        <ele>877.137</ele>
        <time>2019-10-31T18:58:34Z</time>
      </trkpt>
      <trkpt lat="43.3937" lon="2.44778">
        <ele>874.621</ele>
        <time>2019-10-31T18:58:14Z</time>
      </trkpt>
      <trkpt lat="43.39415" lon="2.44862">
        <ele>871.669</ele>
        <time>2019-10-31T18:57:54Z</time>
      </trkpt>
      <trkpt lat="43.39473" lon="2.45027">
        <ele>857.923</ele>
        <time>2019-10-31T18:57:34Z</time>
      </trkpt>
      <trkpt lat="43.39488" lon="2.45137">
        <ele>854.92</ele>
        <time>2019-10-31T18:57:14Z</time>
      </trkpt>
      <trkpt lat="43.3948" lon="2.45278">
        <ele>848.015</ele>
        <time>2019-10-31T18:56:54Z</time>
      </trkpt>
      <trkpt lat="43.39438" lon="2.45446">
        <ele>839.079</ele>
        <time>2019-10-31T18:56:34Z</time>
      </trkpt>
      <trkpt lat="43.39384" lon="2.45577">
        <ele>834.808</ele>
        <time>2019-10-31T18:56:14Z</time>
      </trkpt>
      <trkpt lat="43.39374" lon="2.45663">
        <ele>831.011</ele>
        <time>2019-10-31T18:55:54Z</time>
      </trkpt>
      <trkpt lat="43.39389" lon="2.45663">
        <ele>825.592</ele>
        <time>2019-10-31T18:55:34Z</time>
      </trkpt>
      <trkpt lat="43.39407" lon="2.45583">
        <ele>826.132</ele>
        <time>2019-10-31T18:55:14Z</time>
      </trkpt>
      <trkpt lat="43.3947" lon="2.4551">
        <ele>817.442</ele>
        <time>2019-10-31T18:54:54Z</time>
      </trkpt>
      <trkpt lat="43.39513" lon="2.45422">
        <ele>815.013</ele>
        <time>2019-10-31T18:54:34Z</time>
      </trkpt>
      <trkpt lat="43.39591" lon="2.45298">
        <ele>803.287</ele>
        <time>2019-10-31T18:54:14Z</time>
      </trkpt>
      <trkpt lat="43.39685" lon="2.45087">
        <ele>795.185</ele>
        <time>2019-10-31T18:53:54Z</time>
      </trkpt>
      <trkpt lat="43.39744" lon="2.45023">
        <ele>789.249</ele>
        <time>2019-10-31T18:53:34Z</time>
      </trkpt>
      <trkpt lat="43.3985" lon="2.45051">
        <ele>780.026</ele>
        <time>2019-10-31T18:53:14Z</time>
      </trkpt>
      <trkpt lat="43.39869" lon="2.44974">
        <ele>774.361</ele>
        <time>2019-10-31T18:52:54Z</time>
      </trkpt>
      <trkpt lat="43.39903" lon="2.44939">
        <ele>769.935</ele>
        <time>2019-10-31T18:52:34Z</time>
      </trkpt>
      <trkpt lat="43.39901" lon="2.44768">
        <ele>769.508</ele>
        <time>2019-10-31T18:52:14Z</time>
      </trkpt>
      <trkpt lat="43.39967" lon="2.44723">
        <ele>771.824</ele>
        <time>2019-10-31T18:51:54Z</time>
      </trkpt>
      <trkpt lat="43.39992" lon="2.4465">
        <ele>773.731</ele>
        <time>2019-10-31T18:51:34Z</time>
      </trkpt>
      <trkpt lat="43.40031" lon="2.44587">
        <ele>775.196</ele>
        <time>2019-10-31T18:51:14Z</time>
      </trkpt>
      <trkpt lat="43.40082" lon="2.44345">
        <ele>768.994</ele>
        <time>2019-10-31T18:50:54Z</time>
      </trkpt>
      <trkpt lat="43.40126" lon="2.4433">
        <ele>770.515</ele>
        <time>2019-10-31T18:50:34Z</time>
      </trkpt>
      <trkpt lat="43.40163" lon="2.44345">
        <ele>773.279</ele>
        <time>2019-10-31T18:50:14Z</time>
      </trkpt>
      <trkpt lat="43.40262" lon="2.44424">
        <ele>782.767</ele>
        <time>2019-10-31T18:49:54Z</time>
      </trkpt>
      <trkpt lat="43.40316" lon="2.44459">
        <ele>787.571</ele>
        <time>2019-10-31T18:49:34Z</time>
      </trkpt>
      <trkpt lat="43.40506" lon="2.44645">
        <ele>804.578</ele>
        <time>2019-10-31T18:49:14Z</time>
      </trkpt>
      <trkpt lat="43.40556" lon="2.4466">
        <ele>807.063</ele>
        <time>2019-10-31T18:48:54Z</time>
      </trkpt>
      <trkpt lat="43.40636" lon="2.44645">
        <ele>810.867</ele>
        <time>2019-10-31T18:48:34Z</time>
      </trkpt>
      <trkpt lat="43.40726" lon="2.44605">
        <ele>812.308</ele>
        <time>2019-10-31T18:48:14Z</time>
      </trkpt>
      <trkpt lat="43.4083" lon="2.44584">
        <ele>827.515</ele>
        <time>2019-10-31T18:47:54Z</time>
      </trkpt>
      <trkpt lat="43.40864" lon="2.44563">
        <ele>839.487</ele>
        <time>2019-10-31T18:47:34Z</time>
      </trkpt>
      <trkpt lat="43.40891" lon="2.44658">
        <ele>836.017</ele>
        <time>2019-10-31T18:47:14Z</time>
      </trkpt>
      <trkpt lat="43.4096" lon="2.44701">
        <ele>837.952</ele>
        <time>2019-10-31T18:46:54Z</time>
      </trkpt>
      <trkpt lat="43.40993" lon="2.44697">
        <ele>841.053</ele>
        <time>2019-10-31T18:46:34Z</time>
      </trkpt>
      <trkpt lat="43.41064" lon="2.44742">
        <ele>837.047</ele>
        <time>2019-10-31T18:46:14Z</time>
      </trkpt>
      <trkpt lat="43.4117" lon="2.44761">
        <ele>838.815</ele>
        <time>2019-10-31T18:45:54Z</time>
      </trkpt>
      <trkpt lat="43.41237" lon="2.44787">
        <ele>839.479</ele>
        <time>2019-10-31T18:45:34Z</time>
      </trkpt>
      <trkpt lat="43.41247" lon="2.44813">
        <ele>840.026</ele>
        <time>2019-10-31T18:45:14Z</time>
      </trkpt>
      <trkpt lat="43.41127" lon="2.44911">
        <ele>847.791</ele>
        <time>2019-10-31T18:44:54Z</time>
      </trkpt>
      <trkpt lat="43.41085" lon="2.44974">
        <ele>854.515</ele>
        <time>2019-10-31T18:44:34Z</time>
      </trkpt>
      <trkpt lat="43.41035" lon="2.45087">
        <ele>868.508</ele>
        <time>2019-10-31T18:44:14Z</time>
      </trkpt>
      <trkpt lat="43.41036" lon="2.45188">
        <ele>882.422</ele>
        <time>2019-10-31T18:43:54Z</time>
      </trkpt>
      <trkpt lat="43.41192" lon="2.45403">
        <ele>945.557</ele>
        <time>2019-10-31T18:43:34Z</time>
      </trkpt>
      <trkpt lat="43.4123" lon="2.45416">
        <ele>955.594</ele>
        <time>2019-10-31T18:43:14Z</time>
      </trkpt>
      <trkpt lat="43.41248" lon="2.45463">
        <ele>964.672</ele>
        <time>2019-10-31T18:42:54Z</time>
      </trkpt>
      <trkpt lat="43.41334" lon="2.45581">
        <ele>1000.953</ele>
        <time>2019-10-31T18:42:34Z</time>
      </trkpt>
      <trkpt lat="43.41326" lon="2.45643">
        <ele>1006.387</ele>
        <time>2019-10-31T18:42:14Z</time>
      </trkpt>
      <trkpt lat="43.41365" lon="2.4569">
        <ele>1019.085</ele>
        <time>2019-10-31T18:41:54Z</time>
      </trkpt>
      <trkpt lat="43.41372" lon="2.45744">
        <ele>1024.929</ele>
        <time>2019-10-31T18:41:34Z</time>
      </trkpt>
      <trkpt lat="43.41418" lon="2.45778">
        <ele>1040.346</ele>
        <time>2019-10-31T18:41:14Z</time>
      </trkpt>
      <trkpt lat="43.41462" lon="2.45765">
        <ele>1051.751</ele>
        <time>2019-10-31T18:40:54Z</time>
      </trkpt>
      <trkpt lat="43.41467" lon="2.45723">
        <ele>1053.965</ele>
        <time>2019-10-31T18:40:34Z</time>
      </trkpt>
      <trkpt lat="43.41484" lon="2.45701">
        <ele>1057.708</ele>
        <time>2019-10-31T18:40:14Z</time>
      </trkpt>
      <trkpt lat="43.41513" lon="2.45735">
        <ele>1059.226</ele>
        <time>2019-10-31T18:39:54Z</time>
      </trkpt>
      <trkpt lat="43.41521" lon="2.45789">
        <ele>1059.715</ele>
        <time>2019-10-31T18:39:34Z</time>
      </trkpt>
      <trkpt lat="43.41551" lon="2.45785">
        <ele>1057.998</ele>
        <time>2019-10-31T18:39:14Z</time>
      </trkpt>
      <trkpt lat="43.42021" lon="2.46276">
        <ele>1125.16</ele>
        <time>2019-10-31T18:38:54Z</time>
      </trkpt>
      <trkpt lat="43.4209" lon="2.46388">
        <ele>1141.451</ele>
        <time>2019-10-31T18:38:34Z</time>
      </trkpt>
      <trkpt lat="43.42157" lon="2.46424">
        <ele>1150.695</ele>
        <time>2019-10-31T18:38:14Z</time>
      </trkpt>
      <trkpt lat="43.42221" lon="2.46439">
        <ele>1163.963</ele>
        <time>2019-10-31T18:37:54Z</time>
      </trkpt>
      <trkpt lat="43.42288" lon="2.46426">
        <ele>1181.987</ele>
        <time>2019-10-31T18:37:34Z</time>
      </trkpt>
      <trkpt lat="43.42349" lon="2.46366">
        <ele>1198.054</ele>
        <time>2019-10-31T18:37:14Z</time>
      </trkpt>
      <trkpt lat="43.42433" lon="2.46358">
        <ele>1200.049</ele>
        <time>2019-10-31T18:36:54Z</time>
      </trkpt>
      <trkpt lat="43.42445" lon="2.46405">
        <ele>1200.063</ele>
        <time>2019-10-31T18:36:34Z</time>
      </trkpt>
      <trkpt lat="43.42481" lon="2.46424">
        <ele>1200.008</ele>
        <time>2019-10-31T18:36:14Z</time>
      </trkpt>
      <trkpt lat="43.42501" lon="2.4642">
        <ele>1200.019</ele>
        <time>2019-10-31T18:35:54Z</time>
      </trkpt>
      <trkpt lat="43.4254" lon="2.46377">
        <ele>1198.89</ele>
        <time>2019-10-31T18:35:34Z</time>
      </trkpt>
      <trkpt lat="43.42621" lon="2.46441">
        <ele>1186.576</ele>
        <time>2019-10-31T18:35:14Z</time>
      </trkpt>
      <trkpt lat="43.42888" lon="2.46607">
        <ele>1155.214</ele>
        <time>2019-10-31T18:34:54Z</time>
      </trkpt>
      <trkpt lat="43.42941" lon="2.46665">
        <ele>1144.655</ele>
        <time>2019-10-31T18:34:34Z</time>
      </trkpt>
      <trkpt lat="43.42963" lon="2.46727">
        <ele>1142.649</ele>
        <time>2019-10-31T18:34:14Z</time>
      </trkpt>
      <trkpt lat="43.43036" lon="2.4675">
        <ele>1142.817</ele>
        <time>2019-10-31T18:33:54Z</time>
      </trkpt>
      <trkpt lat="43.43059" lon="2.46776">
        <ele>1144.571</ele>
        <time>2019-10-31T18:33:34Z</time>
      </trkpt>
      <trkpt lat="43.43136" lon="2.46832">
        <ele>1148.028</ele>
        <time>2019-10-31T18:33:14Z</time>
      </trkpt>
      <trkpt lat="43.43209" lon="2.46845">
        <ele>1149.543</ele>
        <time>2019-10-31T18:32:54Z</time>
      </trkpt>
      <trkpt lat="43.43263" lon="2.46843">
        <ele>1155.327</ele>
        <time>2019-10-31T18:32:34Z</time>
      </trkpt>
      <trkpt lat="43.43376" lon="2.46864">
        <ele>1155.808</ele>
        <time>2019-10-31T18:32:14Z</time>
      </trkpt>
      <trkpt lat="43.4343" lon="2.46892">
        <ele>1153.311</ele>
        <time>2019-10-31T18:31:54Z</time>
      </trkpt>
      <trkpt lat="43.43496" lon="2.46944">
        <ele>1151.065</ele>
        <time>2019-10-31T18:31:34Z</time>
      </trkpt>
      <trkpt lat="43.43521" lon="2.46941">
        <ele>1151.015</ele>
        <time>2019-10-31T18:31:14Z</time>
      </trkpt>
      <trkpt lat="43.43522" lon="2.46883">
        <ele>1149.015</ele>
        <time>2019-10-31T18:30:54Z</time>
      </trkpt>
      <trkpt lat="43.43533" lon="2.46828">
        <ele>1143.976</ele>
        <time>2019-10-31T18:30:34Z</time>
      </trkpt>
      <trkpt lat="43.43578" lon="2.46753">
        <ele>1139.98</ele>
        <time>2019-10-31T18:30:14Z</time>
      </trkpt>
      <trkpt lat="43.43605" lon="2.46733">
        <ele>1139.088</ele>
        <time>2019-10-31T18:29:54Z</time>
      </trkpt>
      <trkpt lat="43.43627" lon="2.4668">
        <ele>1135.042</ele>
        <time>2019-10-31T18:29:34Z</time>
      </trkpt>
      <trkpt lat="43.43703" lon="2.46579">
        <ele>1130.059</ele>
        <time>2019-10-31T18:29:14Z</time>
      </trkpt>
      <trkpt lat="43.43759" lon="2.4651">
        <ele>1127.414</ele>
        <time>2019-10-31T18:28:54Z</time>
      </trkpt>
      <trkpt lat="43.43785" lon="2.46422">
        <ele>1121.918</ele>
        <time>2019-10-31T18:28:34Z</time>
      </trkpt>
      <trkpt lat="43.4374" lon="2.46353">
        <ele>1118.208</ele>
        <time>2019-10-31T18:28:14Z</time>
      </trkpt>
      <trkpt lat="43.43709" lon="2.46199">
        <ele>1114.111</ele>
        <time>2019-10-31T18:27:54Z</time>
      </trkpt>
      <trkpt lat="43.43704" lon="2.46055">
        <ele>1118.583</ele>
        <time>2019-10-31T18:27:34Z</time>
      </trkpt>
      <trkpt lat="43.43779" lon="2.45881">
        <ele>1119.823</ele>
        <time>2019-10-31T18:27:14Z</time>
      </trkpt>
      <trkpt lat="43.43834" lon="2.45819">
        <ele>1128.168</ele>
        <time>2019-10-31T18:26:54Z</time>
      </trkpt>
      <trkpt lat="43.43815" lon="2.4577">
        <ele>1128.349</ele>
        <time>2019-10-31T18:26:34Z</time>
      </trkpt>
      <trkpt lat="43.43814" lon="2.45716">
        <ele>1130.823</ele>
        <time>2019-10-31T18:26:14Z</time>
      </trkpt>
      <trkpt lat="43.43829" lon="2.45712">
        <ele>1132.221</ele>
        <time>2019-10-31T18:25:54Z</time>
      </trkpt>
      <trkpt lat="43.43843" lon="2.45684">
        <ele>1133.875</ele>
        <time>2019-10-31T18:25:34Z</time>
      </trkpt>
      <trkpt lat="43.4387" lon="2.45673">
        <ele>1137.442</ele>
        <time>2019-10-31T18:25:14Z</time>
      </trkpt>
      <trkpt lat="43.43893" lon="2.45647">
        <ele>1137.227</ele>
        <time>2019-10-31T18:24:54Z</time>
      </trkpt>
      <trkpt lat="43.43937" lon="2.45645">
        <ele>1138.661</ele>
        <time>2019-10-31T18:24:34Z</time>
      </trkpt>
      <trkpt lat="43.44005" lon="2.45587">
        <ele>1131.908</ele>
        <time>2019-10-31T18:24:14Z</time>
      </trkpt>
      <trkpt lat="43.44063" lon="2.45525">
        <ele>1127.017</ele>
        <time>2019-10-31T18:23:54Z</time>
      </trkpt>
      <trkpt lat="43.4412" lon="2.4551">
        <ele>1127.107</ele>
        <time>2019-10-31T18:23:34Z</time>
      </trkpt>
      <trkpt lat="43.44156" lon="2.45484">
        <ele>1123.855</ele>
        <time>2019-10-31T18:23:14Z</time>
      </trkpt>
      <trkpt lat="43.44307" lon="2.45527">
        <ele>1115.884</ele>
        <time>2019-10-31T18:22:54Z</time>
      </trkpt>
      <trkpt lat="43.44532" lon="2.4548">
        <ele>1096.025</ele>
        <time>2019-10-31T18:22:34Z</time>
      </trkpt>
      <trkpt lat="43.44575" lon="2.45489">
        <ele>1094.029</ele>
        <time>2019-10-31T18:22:14Z</time>
      </trkpt>
      <trkpt lat="43.44596" lon="2.45484">
        <ele>1092.677</ele>
        <time>2019-10-31T18:21:54Z</time>
      </trkpt>
      <trkpt lat="43.44656" lon="2.45484">
        <ele>1089.821</ele>
        <time>2019-10-31T18:21:34Z</time>
      </trkpt>
      <trkpt lat="43.44723" lon="2.45405">
        <ele>1082.368</ele>
        <time>2019-10-31T18:21:14Z</time>
      </trkpt>
      <trkpt lat="43.44767" lon="2.45308">
        <ele>1074.353</ele>
        <time>2019-10-31T18:20:54Z</time>
      </trkpt>
      <trkpt lat="43.448" lon="2.45231">
        <ele>1080.147</ele>
        <time>2019-10-31T18:20:34Z</time>
      </trkpt>
      <trkpt lat="43.44772" lon="2.45143">
        <ele>1076.408</ele>
        <time>2019-10-31T18:20:14Z</time>
      </trkpt>
      <trkpt lat="43.44806" lon="2.44854">
        <ele>1052.717</ele>
        <time>2019-10-31T18:19:54Z</time>
      </trkpt>
      <trkpt lat="43.44845" lon="2.44723">
        <ele>1040.998</ele>
        <time>2019-10-31T18:19:34Z</time>
      </trkpt>
      <trkpt lat="43.44895" lon="2.44667">
        <ele>1036.118</ele>
        <time>2019-10-31T18:19:14Z</time>
      </trkpt>
      <trkpt lat="43.44934" lon="2.44585">
        <ele>1034.615</ele>
        <time>2019-10-31T18:18:54Z</time>
      </trkpt>
      <trkpt lat="43.44985" lon="2.44298">
        <ele>1022.196</ele>
        <time>2019-10-31T18:18:34Z</time>
      </trkpt>
      <trkpt lat="43.4498" lon="2.44242">
        <ele>1013.83</ele>
        <time>2019-10-31T18:18:14Z</time>
      </trkpt>
      <trkpt lat="43.45001" lon="2.44103">
        <ele>996.858</ele>
        <time>2019-10-31T18:17:54Z</time>
      </trkpt>
      <trkpt lat="43.4505" lon="2.43995">
        <ele>984.292</ele>
        <time>2019-10-31T18:17:34Z</time>
      </trkpt>
      <trkpt lat="43.45107" lon="2.43987">
        <ele>980.059</ele>
        <time>2019-10-31T18:17:14Z</time>
      </trkpt>
      <trkpt lat="43.45147" lon="2.44012">
        <ele>975.714</ele>
        <time>2019-10-31T18:16:54Z</time>
      </trkpt>
      <trkpt lat="43.45183" lon="2.44085">
        <ele>975.138</ele>
        <time>2019-10-31T18:16:34Z</time>
      </trkpt>
      <trkpt lat="43.4523" lon="2.44253">
        <ele>970.608</ele>
        <time>2019-10-31T18:16:14Z</time>
      </trkpt>
      <trkpt lat="43.45281" lon="2.44336">
        <ele>967.214</ele>
        <time>2019-10-31T18:15:54Z</time>
      </trkpt>
      <trkpt lat="43.45365" lon="2.44399">
        <ele>967.804</ele>
        <time>2019-10-31T18:15:34Z</time>
      </trkpt>
      <trkpt lat="43.45401" lon="2.4445">
        <ele>966.524</ele>
        <time>2019-10-31T18:15:14Z</time>
      </trkpt>
      <trkpt lat="43.45476" lon="2.44497">
        <ele>957.021</ele>
        <time>2019-10-31T18:14:54Z</time>
      </trkpt>
      <trkpt lat="43.45563" lon="2.44508">
        <ele>950.822</ele>
        <time>2019-10-31T18:14:34Z</time>
      </trkpt>
      <trkpt lat="43.45638" lon="2.44407">
        <ele>958.196</ele>
        <time>2019-10-31T18:14:14Z</time>
      </trkpt>
      <trkpt lat="43.45713" lon="2.44259">
        <ele>958.994</ele>
        <time>2019-10-31T18:13:54Z</time>
      </trkpt>
      <trkpt lat="43.45756" lon="2.44126">
        <ele>950.468</ele>
        <time>2019-10-31T18:13:34Z</time>
      </trkpt>
      <trkpt lat="43.45804" lon="2.44032">
        <ele>950.055</ele>
        <time>2019-10-31T18:13:14Z</time>
      </trkpt>
      <trkpt lat="43.45955" lon="2.43809">
        <ele>950.06</ele>
        <time>2019-10-31T18:12:54Z</time>
      </trkpt>
      <trkpt lat="43.46047" lon="2.43641">
        <ele>950.064</ele>
        <time>2019-10-31T18:12:34Z</time>
      </trkpt>
      <trkpt lat="43.461" lon="2.43592">
        <ele>950.008</ele>
        <time>2019-10-31T18:12:14Z</time>
      </trkpt>
      <trkpt lat="43.46226" lon="2.43549">
        <ele>949.917</ele>
        <time>2019-10-31T18:11:54Z</time>
      </trkpt>
      <trkpt lat="43.46275" lon="2.4351">
        <ele>948.507</ele>
        <time>2019-10-31T18:11:34Z</time>
      </trkpt>
      <trkpt lat="43.46348" lon="2.4345">
        <ele>941.484</ele>
        <time>2019-10-31T18:11:14Z</time>
      </trkpt>
      <trkpt lat="43.46543" lon="2.43214">
        <ele>913.267</ele>
        <time>2019-10-31T18:10:54Z</time>
      </trkpt>
      <trkpt lat="43.46589" lon="2.43139">
        <ele>906.928</ele>
        <time>2019-10-31T18:10:34Z</time>
      </trkpt>
      <trkpt lat="43.46678" lon="2.43021">
        <ele>885.142</ele>
        <time>2019-10-31T18:10:14Z</time>
      </trkpt>
      <trkpt lat="43.46708" lon="2.42922">
        <ele>874.05</ele>
        <time>2019-10-31T18:09:54Z</time>
      </trkpt>
      <trkpt lat="43.46711" lon="2.42873">
        <ele>869.134</ele>
        <time>2019-10-31T18:09:34Z</time>
      </trkpt>
      <trkpt lat="43.46686" lon="2.42746">
        <ele>859.311</ele>
        <time>2019-10-31T18:09:14Z</time>
      </trkpt>
      <trkpt lat="43.46678" lon="2.42682">
        <ele>860.476</ele>
        <time>2019-10-31T18:08:54Z</time>
      </trkpt>
      <trkpt lat="43.467" lon="2.4262">
        <ele>856.94</ele>
        <time>2019-10-31T18:08:34Z</time>
      </trkpt>
      <trkpt lat="43.467" lon="2.42506">
        <ele>855.408</ele>
        <time>2019-10-31T18:08:14Z</time>
      </trkpt>
      <trkpt lat="43.4672" lon="2.42339">
        <ele>849.517</ele>
        <time>2019-10-31T18:07:54Z</time>
      </trkpt>
      <trkpt lat="43.46706" lon="2.42223">
        <ele>840.561</ele>
        <time>2019-10-31T18:07:34Z</time>
      </trkpt>
      <trkpt lat="43.4675" lon="2.42197">
        <ele>831.948</ele>
        <time>2019-10-31T18:07:14Z</time>
      </trkpt>
      <trkpt lat="43.46801" lon="2.42208">
        <ele>818.722</ele>
        <time>2019-10-31T18:06:54Z</time>
      </trkpt>
      <trkpt lat="43.46817" lon="2.42186">
        <ele>817.073</ele>
        <time>2019-10-31T18:06:34Z</time>
      </trkpt>
      <trkpt lat="43.46854" lon="2.42163">
        <ele>810.897</ele>
        <time>2019-10-31T18:06:14Z</time>
      </trkpt>
      <trkpt lat="43.46882" lon="2.42096">
        <ele>806.025</ele>
        <time>2019-10-31T18:05:54Z</time>
      </trkpt>
      <trkpt lat="43.46946" lon="2.42178">
        <ele>783.759</ele>
        <time>2019-10-31T18:05:34Z</time>
      </trkpt>
      <trkpt lat="43.46951" lon="2.42214">
        <ele>778.696</ele>
        <time>2019-10-31T18:05:14Z</time>
      </trkpt>
      <trkpt lat="43.46979" lon="2.42122">
        <ele>774.171</ele>
        <time>2019-10-31T18:04:54Z</time>
      </trkpt>
      <trkpt lat="43.46988" lon="2.42182">
        <ele>771.455</ele>
        <time>2019-10-31T18:04:34Z</time>
      </trkpt>
      <trkpt lat="43.46979" lon="2.4227">
        <ele>766.108</ele>
        <time>2019-10-31T18:04:14Z</time>
      </trkpt>
      <trkpt lat="43.46996" lon="2.42315">
        <ele>764.326</ele>
        <time>2019-10-31T18:03:54Z</time>
      </trkpt>
      <trkpt lat="43.46993" lon="2.42268">
        <ele>763.715</ele>
        <time>2019-10-31T18:03:34Z</time>
      </trkpt>
      <trkpt lat="43.47016" lon="2.42195">
        <ele>763.298</ele>
        <time>2019-10-31T18:03:14Z</time>
      </trkpt>
      <trkpt lat="43.47025" lon="2.42101">
        <ele>760.921</ele>
        <time>2019-10-31T18:02:54Z</time>
      </trkpt>
      <trkpt lat="43.47021" lon="2.42028">
        <ele>760.162</ele>
        <time>2019-10-31T18:02:34Z</time>
      </trkpt>
      <trkpt lat="43.47053" lon="2.41931">
        <ele>754.846</ele>
        <time>2019-10-31T18:02:14Z</time>
      </trkpt>
      <trkpt lat="43.47092" lon="2.41907">
        <ele>751.114</ele>
        <time>2019-10-31T18:01:54Z</time>
      </trkpt>
      <trkpt lat="43.47173" lon="2.41781">
        <ele>745.298</ele>
        <time>2019-10-31T18:01:34Z</time>
      </trkpt>
      <trkpt lat="43.47176" lon="2.41723">
        <ele>745.775</ele>
        <time>2019-10-31T18:01:14Z</time>
      </trkpt>
      <trkpt lat="43.47382" lon="2.41453">
        <ele>719.02</ele>
        <time>2019-10-31T18:00:54Z</time>
      </trkpt>
      <trkpt lat="43.47384" lon="2.4141">
        <ele>715.774</ele>
        <time>2019-10-31T18:00:34Z</time>
      </trkpt>
      <trkpt lat="43.47278" lon="2.41257">
        <ele>708.808</ele>
        <time>2019-10-31T18:00:14Z</time>
      </trkpt>
      <trkpt lat="43.47278" lon="2.4115">
        <ele>700.626</ele>
        <time>2019-10-31T17:59:54Z</time>
      </trkpt>
      <trkpt lat="43.47237" lon="2.41062">
        <ele>695.842</ele>
        <time>2019-10-31T17:59:34Z</time>
      </trkpt>
      <trkpt lat="43.47233" lon="2.41002">
        <ele>688.187</ele>
        <time>2019-10-31T17:59:14Z</time>
      </trkpt>
      <trkpt lat="43.47197" lon="2.40972">
        <ele>686.672</ele>
        <time>2019-10-31T17:58:54Z</time>
      </trkpt>
      <trkpt lat="43.47236" lon="2.40858">
        <ele>680.443</ele>
        <time>2019-10-31T17:58:34Z</time>
      </trkpt>
      <trkpt lat="43.4737" lon="2.40832">
        <ele>671.327</ele>
        <time>2019-10-31T17:58:14Z</time>
      </trkpt>
      <trkpt lat="43.47457" lon="2.40794">
        <ele>669.045</ele>
        <time>2019-10-31T17:57:54Z</time>
      </trkpt>
      <trkpt lat="43.47524" lon="2.40747">
        <ele>662.729</ele>
        <time>2019-10-31T17:57:34Z</time>
      </trkpt>
      <trkpt lat="43.47644" lon="2.40575">
        <ele>641.326</ele>
        <time>2019-10-31T17:57:14Z</time>
      </trkpt>
      <trkpt lat="43.477" lon="2.40551">
        <ele>633.131</ele>
        <time>2019-10-31T17:56:54Z</time>
      </trkpt>
      <trkpt lat="43.4774" lon="2.40562">
        <ele>627.255</ele>
        <time>2019-10-31T17:56:34Z</time>
      </trkpt>
      <trkpt lat="43.47756" lon="2.40626">
        <ele>619.808</ele>
        <time>2019-10-31T17:56:14Z</time>
      </trkpt>
      <trkpt lat="43.47767" lon="2.40528">
        <ele>612.619</ele>
        <time>2019-10-31T17:55:54Z</time>
      </trkpt>
      <trkpt lat="43.47748" lon="2.40489">
        <ele>608.081</ele>
        <time>2019-10-31T17:55:34Z</time>
      </trkpt>
      <trkpt lat="43.47673" lon="2.40468">
        <ele>607.591</ele>
        <time>2019-10-31T17:55:14Z</time>
      </trkpt>
      <trkpt lat="43.47631" lon="2.40395">
        <ele>600.175</ele>
        <time>2019-10-31T17:54:54Z</time>
      </trkpt>
      <trkpt lat="43.47614" lon="2.40302">
        <ele>590.526</ele>
        <time>2019-10-31T17:54:34Z</time>
      </trkpt>
      <trkpt lat="43.4764" lon="2.40187">
        <ele>579.17</ele>
        <time>2019-10-31T17:54:14Z</time>
      </trkpt>
      <trkpt lat="43.47598" lon="2.40141">
        <ele>576.878</ele>
        <time>2019-10-31T17:53:54Z</time>
      </trkpt>
      <trkpt lat="43.47593" lon="2.40127">
        <ele>575.292</ele>
        <time>2019-10-31T17:53:34Z</time>
      </trkpt>
      <trkpt lat="43.4756" lon="2.40133">
        <ele>572.819</ele>
        <time>2019-10-31T17:53:14Z</time>
      </trkpt>
      <trkpt lat="43.4755" lon="2.40125">
        <ele>570.964</ele>
        <time>2019-10-31T17:52:54Z</time>
      </trkpt>
      <trkpt lat="43.47584" lon="2.39953">
        <ele>565.818</ele>
        <time>2019-10-31T17:52:34Z</time>
      </trkpt>
      <trkpt lat="43.47562" lon="2.39856">
        <ele>562.208</ele>
        <time>2019-10-31T17:52:14Z</time>
      </trkpt>
      <trkpt lat="43.4754" lon="2.39797">
        <ele>556.414</ele>
        <time>2019-10-31T17:51:54Z</time>
      </trkpt>
      <trkpt lat="43.47534" lon="2.39825">
        <ele>555.568</ele>
        <time>2019-10-31T17:51:34Z</time>
      </trkpt>
      <trkpt lat="43.47519" lon="2.39854">
        <ele>551.027</ele>
        <time>2019-10-31T17:51:14Z</time>
      </trkpt>
      <trkpt lat="43.47508" lon="2.39849">
        <ele>547.598</ele>
        <time>2019-10-31T17:50:54Z</time>
      </trkpt>
      <trkpt lat="43.47516" lon="2.39739">
        <ele>543.639</ele>
        <time>2019-10-31T17:50:34Z</time>
      </trkpt>
      <trkpt lat="43.47534" lon="2.39674">
        <ele>539.173</ele>
        <time>2019-10-31T17:50:14Z</time>
      </trkpt>
      <trkpt lat="43.47562" lon="2.39613">
        <ele>533.911</ele>
        <time>2019-10-31T17:49:54Z</time>
      </trkpt>
      <trkpt lat="43.47605" lon="2.39538">
        <ele>528.985</ele>
        <time>2019-10-31T17:49:34Z</time>
      </trkpt>
      <trkpt lat="43.47641" lon="2.3938">
        <ele>519.082</ele>
        <time>2019-10-31T17:49:14Z</time>
      </trkpt>
      <trkpt lat="43.47642" lon="2.39354">
        <ele>517.337</ele>
        <time>2019-10-31T17:48:54Z</time>
      </trkpt>
      <trkpt lat="43.47588" lon="2.39483">
        <ele>507.251</ele>
        <time>2019-10-31T17:48:34Z</time>
      </trkpt>
      <trkpt lat="43.47582" lon="2.39478">
        <ele>502.308</ele>
        <time>2019-10-31T17:48:14Z</time>
      </trkpt>
      <trkpt lat="43.47604" lon="2.39383">
        <ele>494.414</ele>
        <time>2019-10-31T17:47:54Z</time>
      </trkpt>
      <trkpt lat="43.4761" lon="2.39322">
        <ele>497.859</ele>
        <time>2019-10-31T17:47:34Z</time>
      </trkpt>
      <trkpt lat="43.47552" lon="2.39164">
        <ele>479.456</ele>
        <time>2019-10-31T17:47:14Z</time>
      </trkpt>
      <trkpt lat="43.47543" lon="2.39173">
        <ele>475.432</ele>
        <time>2019-10-31T17:46:54Z</time>
      </trkpt>
      <trkpt lat="43.47578" lon="2.39303">
        <ele>475.943</ele>
        <time>2019-10-31T17:46:34Z</time>
      </trkpt>
      <trkpt lat="43.47545" lon="2.39228">
        <ele>466.737</ele>
        <time>2019-10-31T17:46:14Z</time>
      </trkpt>
      <trkpt lat="43.47559" lon="2.39318">
        <ele>458.915</ele>
        <time>2019-10-31T17:45:54Z</time>
      </trkpt>
      <trkpt lat="43.47544" lon="2.39268">
        <ele>456.829</ele>
        <time>2019-10-31T17:45:34Z</time>
      </trkpt>
      <trkpt lat="43.47518" lon="2.39222">
        <ele>450.176</ele>
        <time>2019-10-31T17:45:14Z</time>
      </trkpt>
      <trkpt lat="43.47536" lon="2.39312">
        <ele>442.951</ele>
        <time>2019-10-31T17:44:54Z</time>
      </trkpt>
      <trkpt lat="43.4751" lon="2.3924">
        <ele>441.455</ele>
        <time>2019-10-31T17:44:34Z</time>
      </trkpt>
      <trkpt lat="43.47455" lon="2.39162">
        <ele>425.508</ele>
        <time>2019-10-31T17:44:14Z</time>
      </trkpt>
      <trkpt lat="43.4745" lon="2.39143">
        <ele>421.123</ele>
        <time>2019-10-31T17:43:54Z</time>
      </trkpt>
      <trkpt lat="43.47444" lon="2.39141">
        <ele>417.649</ele>
        <time>2019-10-31T17:43:34Z</time>
      </trkpt>
      <trkpt lat="43.47446" lon="2.39168">
        <ele>419.295</ele>
        <time>2019-10-31T17:43:14Z</time>
      </trkpt>
      <trkpt lat="43.47486" lon="2.39241">
        <ele>426.982</ele>
        <time>2019-10-31T17:42:54Z</time>
      </trkpt>
      <trkpt lat="43.47496" lon="2.39294">
        <ele>420.183</ele>
        <time>2019-10-31T17:42:34Z</time>
      </trkpt>
      <trkpt lat="43.47466" lon="2.3923">
        <ele>418.447</ele>
        <time>2019-10-31T17:42:14Z</time>
      </trkpt>
      <trkpt lat="43.47425" lon="2.39179">
        <ele>407.745</ele>
        <time>2019-10-31T17:41:54Z</time>
      </trkpt>
      <trkpt lat="43.47414" lon="2.39182">
        <ele>402.419</ele>
        <time>2019-10-31T17:41:34Z</time>
      </trkpt>
      <trkpt lat="43.4745" lon="2.39234">
        <ele>406.086</ele>
        <time>2019-10-31T17:41:14Z</time>
      </trkpt>
      <trkpt lat="43.47465" lon="2.39297">
        <ele>397.911</ele>
        <time>2019-10-31T17:40:54Z</time>
      </trkpt>
      <trkpt lat="43.47457" lon="2.3933">
        <ele>392.485</ele>
        <time>2019-10-31T17:40:34Z</time>
      </trkpt>
      <trkpt lat="43.47448" lon="2.39257">
        <ele>396.108</ele>
        <time>2019-10-31T17:40:14Z</time>
      </trkpt>
      <trkpt lat="43.47392" lon="2.39204">
        <ele>389.82</ele>
        <time>2019-10-31T17:39:54Z</time>
      </trkpt>
      <trkpt lat="43.47382" lon="2.39187">
        <ele>387.373</ele>
        <time>2019-10-31T17:39:34Z</time>
      </trkpt>
      <trkpt lat="43.47376" lon="2.39116">
        <ele>384.192</ele>
        <time>2019-10-31T17:39:14Z</time>
      </trkpt>
      <trkpt lat="43.47402" lon="2.39015">
        <ele>375.987</ele>
        <time>2019-10-31T17:38:54Z</time>
      </trkpt>
      <trkpt lat="43.47483" lon="2.38957">
        <ele>371.118</ele>
        <time>2019-10-31T17:38:34Z</time>
      </trkpt>
      <trkpt lat="43.47566" lon="2.38938">
        <ele>372.472</ele>
        <time>2019-10-31T17:38:14Z</time>
      </trkpt>
      <trkpt lat="43.47603" lon="2.3889">
        <ele>374.35</ele>
        <time>2019-10-31T17:37:54Z</time>
      </trkpt>
      <trkpt lat="43.47644" lon="2.38719">
        <ele>364.254</ele>
        <time>2019-10-31T17:37:34Z</time>
      </trkpt>
      <trkpt lat="43.47707" lon="2.38635">
        <ele>361.871</ele>
        <time>2019-10-31T17:37:14Z</time>
      </trkpt>
      <trkpt lat="43.47684" lon="2.38603">
        <ele>366.946</ele>
        <time>2019-10-31T17:36:54Z</time>
      </trkpt>
      <trkpt lat="43.47697" lon="2.38551">
        <ele>367.02</ele>
        <time>2019-10-31T17:36:34Z</time>
      </trkpt>
      <trkpt lat="43.47661" lon="2.38506">
        <ele>376.608</ele>
        <time>2019-10-31T17:36:14Z</time>
      </trkpt>
      <trkpt lat="43.47611" lon="2.38371">
        <ele>382.51</ele>
        <time>2019-10-31T17:35:54Z</time>
      </trkpt>
      <trkpt lat="43.47655" lon="2.38326">
        <ele>367.264</ele>
        <time>2019-10-31T17:35:34Z</time>
      </trkpt>
      <trkpt lat="43.47605" lon="2.38285">
        <ele>358.943</ele>
        <time>2019-10-31T17:35:14Z</time>
      </trkpt>
      <trkpt lat="43.47595" lon="2.38185">
        <ele>349.514</ele>
        <time>2019-10-31T17:34:54Z</time>
      </trkpt>
      <trkpt lat="43.47623" lon="2.38107">
        <ele>349.655</ele>
        <time>2019-10-31T17:34:34Z</time>
      </trkpt>
      <trkpt lat="43.47669" lon="2.38073">
        <ele>353.949</ele>
        <time>2019-10-31T17:34:14Z</time>
      </trkpt>
      <trkpt lat="43.47751" lon="2.38092">
        <ele>343.317</ele>
        <time>2019-10-31T17:33:54Z</time>
      </trkpt>
      <trkpt lat="43.47756" lon="2.38133">
        <ele>340.241</ele>
        <time>2019-10-31T17:33:34Z</time>
      </trkpt>
      <trkpt lat="43.47787" lon="2.38118">
        <ele>342.098</ele>
        <time>2019-10-31T17:33:14Z</time>
      </trkpt>
      <trkpt lat="43.47823" lon="2.38051">
        <ele>344.043</ele>
        <time>2019-10-31T17:32:54Z</time>
      </trkpt>
      <trkpt lat="43.47885" lon="2.37848">
        <ele>372.857</ele>
        <time>2019-10-31T17:32:34Z</time>
      </trkpt>
      <trkpt lat="43.47883" lon="2.37809">
        <ele>385.508</ele>
        <time>2019-10-31T17:32:14Z</time>
      </trkpt>
      <trkpt lat="43.47935" lon="2.3779">
        <ele>366.111</ele>
        <time>2019-10-31T17:31:54Z</time>
      </trkpt>
      <trkpt lat="43.47975" lon="2.37835">
        <ele>350.865</ele>
        <time>2019-10-31T17:31:34Z</time>
      </trkpt>
      <trkpt lat="43.48022" lon="2.37788">
        <ele>326.415</ele>
        <time>2019-10-31T17:31:14Z</time>
      </trkpt>
      <trkpt lat="43.48179" lon="2.37738">
        <ele>289.748</ele>
        <time>2019-10-31T17:30:54Z</time>
      </trkpt>
      <trkpt lat="43.48198" lon="2.37697">
        <ele>280.859</ele>
        <time>2019-10-31T17:30:34Z</time>
      </trkpt>
      <trkpt lat="43.48238" lon="2.37642">
        <ele>271.883</ele>
        <time>2019-10-31T17:30:14Z</time>
      </trkpt>
      <trkpt lat="43.48301" lon="2.37622">
        <ele>270.281</ele>
        <time>2019-10-31T17:29:54Z</time>
      </trkpt>
      <trkpt lat="43.48357" lon="2.37586">
        <ele>270.035</ele>
        <time>2019-10-31T17:29:34Z</time>
      </trkpt>
      <trkpt lat="43.48525" lon="2.3747">
        <ele>270.092</ele>
        <time>2019-10-31T17:29:14Z</time>
      </trkpt>
      <trkpt lat="43.48621" lon="2.37541">
        <ele>272.827</ele>
        <time>2019-10-31T17:28:54Z</time>
      </trkpt>
      <trkpt lat="43.48667" lon="2.37556">
        <ele>264.181</ele>
        <time>2019-10-31T17:28:34Z</time>
      </trkpt>
      <trkpt lat="43.48819" lon="2.37654">
        <ele>260.808</ele>
        <time>2019-10-31T17:28:14Z</time>
      </trkpt>
      <trkpt lat="43.4893" lon="2.3767">
        <ele>254.323</ele>
        <time>2019-10-31T17:27:54Z</time>
      </trkpt>
      <trkpt lat="43.48995" lon="2.37663">
        <ele>250.303</ele>
        <time>2019-10-31T17:27:34Z</time>
      </trkpt>
      <trkpt lat="43.49095" lon="2.3773">
        <ele>251.959</ele>
        <time>2019-10-31T17:27:14Z</time>
      </trkpt>
      <trkpt lat="43.49162" lon="2.37723">
        <ele>250.042</ele>
        <time>2019-10-31T17:26:54Z</time>
      </trkpt>
      <trkpt lat="43.49331" lon="2.37781">
        <ele>248.363</ele>
        <time>2019-10-31T17:26:34Z</time>
      </trkpt>
      <trkpt lat="43.49376" lon="2.37818">
        <ele>242.027</ele>
        <time>2019-10-31T17:26:14Z</time>
      </trkpt>
      <trkpt lat="43.49643" lon="2.38189">
        <ele>241.745</ele>
        <time>2019-10-31T17:25:54Z</time>
      </trkpt>
      <trkpt lat="43.49682" lon="2.38486">
        <ele>241.249</ele>
        <time>2019-10-31T17:25:34Z</time>
      </trkpt>
      <trkpt lat="43.49695" lon="2.38617">
        <ele>239.896</ele>
        <time>2019-10-31T17:25:14Z</time>
      </trkpt>
      <trkpt lat="43.49683" lon="2.3873">
        <ele>239.081</ele>
        <time>2019-10-31T17:24:54Z</time>
      </trkpt>
      <trkpt lat="43.49602" lon="2.39069">
        <ele>237.025</ele>
        <time>2019-10-31T17:24:34Z</time>
      </trkpt>
      <trkpt lat="43.49532" lon="2.40004">
        <ele>232.308</ele>
        <time>2019-10-31T17:24:14Z</time>
      </trkpt>
      <trkpt lat="43.49546" lon="2.40099">
        <ele>229.023</ele>
        <time>2019-10-31T17:23:54Z</time>
      </trkpt>
      <trkpt lat="43.49618" lon="2.40028">
        <ele>229.049</ele>
        <time>2019-10-31T17:23:34Z</time>
      </trkpt>
      <trkpt lat="43.49635" lon="2.40045">
        <ele>229.095</ele>
        <time>2019-10-31T17:23:14Z</time>
      </trkpt>
      <trkpt lat="43.49792" lon="2.40047">
        <ele>227.814</ele>
        <time>2019-10-31T17:22:54Z</time>
      </trkpt>
      <trkpt lat="43.49907" lon="2.40094">
        <ele>228.215</ele>
        <time>2019-10-31T17:22:34Z</time>
      </trkpt>
      <trkpt lat="43.49929" lon="2.40118">
        <ele>233.369</ele>
        <time>2019-10-31T17:22:14Z</time>
      </trkpt>
      <trkpt lat="43.4994" lon="2.40197">
        <ele>238.847</ele>
        <time>2019-10-31T17:21:54Z</time>
      </trkpt>
      <trkpt lat="43.50052" lon="2.40232">
        <ele>240.041</ele>
        <time>2019-10-31T17:21:34Z</time>
      </trkpt>
      <trkpt lat="43.50096" lon="2.40255">
        <ele>239.638</ele>
        <time>2019-10-31T17:21:14Z</time>
      </trkpt>
      <trkpt lat="43.50152" lon="2.40354">
        <ele>239.913</ele>
        <time>2019-10-31T17:20:54Z</time>
      </trkpt>
      <trkpt lat="43.50276" lon="2.40646">
        <ele>241.787</ele>
        <time>2019-10-31T17:20:34Z</time>
      </trkpt>
      <trkpt lat="43.50332" lon="2.4085">
        <ele>240.408</ele>
        <time>2019-10-31T17:20:14Z</time>
      </trkpt>
      <trkpt lat="43.50366" lon="2.40843">
        <ele>241.611</ele>
        <time>2019-10-31T17:19:54Z</time>
      </trkpt>
      <trkpt lat="43.50396" lon="2.40811">
        <ele>244.865</ele>
        <time>2019-10-31T17:19:34Z</time>
      </trkpt>
      <trkpt lat="43.50413" lon="2.40826">
        <ele>247.215</ele>
        <time>2019-10-31T17:19:14Z</time>
      </trkpt>
      <trkpt lat="43.50425" lon="2.40897">
        <ele>251.699</ele>
        <time>2019-10-31T17:18:54Z</time>
      </trkpt>
      <trkpt lat="43.50408" lon="2.40927">
        <ele>250.69</ele>
        <time>2019-10-31T17:18:34Z</time>
      </trkpt>
      <trkpt lat="43.50444" lon="2.41083">
        <ele>270.884</ele>
        <time>2019-10-31T17:18:14Z</time>
      </trkpt>
      <trkpt lat="43.50506" lon="2.41231">
        <ele>294.992</ele>
        <time>2019-10-31T17:17:54Z</time>
      </trkpt>
      <trkpt lat="43.50601" lon="2.41365">
        <ele>323.776</ele>
        <time>2019-10-31T17:17:34Z</time>
      </trkpt>
      <trkpt lat="43.50671" lon="2.41444">
        <ele>336.353</ele>
        <time>2019-10-31T17:17:14Z</time>
      </trkpt>
      <trkpt lat="43.50707" lon="2.4145">
        <ele>341.458</ele>
        <time>2019-10-31T17:16:54Z</time>
      </trkpt>
      <trkpt lat="43.50732" lon="2.41495">
        <ele>347.622</ele>
        <time>2019-10-31T17:16:34Z</time>
      </trkpt>
      <trkpt lat="43.50745" lon="2.4154">
        <ele>351.308</ele>
        <time>2019-10-31T17:16:14Z</time>
      </trkpt>
      <trkpt lat="43.50759" lon="2.41618">
        <ele>354.318</ele>
        <time>2019-10-31T17:15:54Z</time>
      </trkpt>
      <trkpt lat="43.50793" lon="2.41729">
        <ele>356.744</ele>
        <time>2019-10-31T17:15:34Z</time>
      </trkpt>
      <trkpt lat="43.5086" lon="2.4177">
        <ele>369.563</ele>
        <time>2019-10-31T17:15:14Z</time>
      </trkpt>
      <trkpt lat="43.50913" lon="2.41858">
        <ele>370.821</ele>
        <time>2019-10-31T17:14:54Z</time>
      </trkpt>
      <trkpt lat="43.50936" lon="2.41867">
        <ele>377.432</ele>
        <time>2019-10-31T17:14:34Z</time>
      </trkpt>
      <trkpt lat="43.51006" lon="2.42034">
        <ele>386.536</ele>
        <time>2019-10-31T17:14:14Z</time>
      </trkpt>
      <trkpt lat="43.51009" lon="2.4206">
        <ele>385.494</ele>
        <time>2019-10-31T17:13:54Z</time>
      </trkpt>
      <trkpt lat="43.51071" lon="2.42169">
        <ele>397.078</ele>
        <time>2019-10-31T17:13:34Z</time>
      </trkpt>
      <trkpt lat="43.51109" lon="2.42274">
        <ele>405.415</ele>
        <time>2019-10-31T17:13:14Z</time>
      </trkpt>
      <trkpt lat="43.5119" lon="2.42431">
        <ele>419.55</ele>
        <time>2019-10-31T17:12:54Z</time>
      </trkpt>
      <trkpt lat="43.51219" lon="2.4244">
        <ele>420.064</ele>
        <time>2019-10-31T17:12:34Z</time>
      </trkpt>
      <trkpt lat="43.51258" lon="2.42502">
        <ele>423.308</ele>
        <time>2019-10-31T17:12:14Z</time>
      </trkpt>
      <trkpt lat="43.51314" lon="2.42558">
        <ele>426.626</ele>
        <time>2019-10-31T17:11:54Z</time>
      </trkpt>
      <trkpt lat="43.51384" lon="2.42583">
        <ele>429.824</ele>
        <time>2019-10-31T17:11:34Z</time>
      </trkpt>
      <trkpt lat="43.51365" lon="2.42622">
        <ele>429.488</ele>
        <time>2019-10-31T17:11:14Z</time>
      </trkpt>
      <trkpt lat="43.51387" lon="2.4268">
        <ele>434.299</ele>
        <time>2019-10-31T17:10:54Z</time>
      </trkpt>
      <trkpt lat="43.51484" lon="2.42819">
        <ele>447.06</ele>
        <time>2019-10-31T17:10:34Z</time>
      </trkpt>
      <trkpt lat="43.5154" lon="2.42909">
        <ele>453.694</ele>
        <time>2019-10-31T17:10:14Z</time>
      </trkpt>
      <trkpt lat="43.51563" lon="2.42987">
        <ele>458.492</ele>
        <time>2019-10-31T17:09:54Z</time>
      </trkpt>
      <trkpt lat="43.51599" lon="2.4303">
        <ele>460.696</ele>
        <time>2019-10-31T17:09:34Z</time>
      </trkpt>
      <trkpt lat="43.51597" lon="2.43148">
        <ele>462.873</ele>
        <time>2019-10-31T17:09:14Z</time>
      </trkpt>
      <trkpt lat="43.51803" lon="2.43819">
        <ele>478.888</ele>
        <time>2019-10-31T17:08:54Z</time>
      </trkpt>
      <trkpt lat="43.51821" lon="2.43931">
        <ele>481.622</ele>
        <time>2019-10-31T17:08:34Z</time>
      </trkpt>
      <trkpt lat="43.51845" lon="2.44004">
        <ele>481.808</ele>
        <time>2019-10-31T17:08:14Z</time>
      </trkpt>
      <trkpt lat="43.51932" lon="2.44085">
        <ele>481.116</ele>
        <time>2019-10-31T17:07:54Z</time>
      </trkpt>
      <trkpt lat="43.52024" lon="2.44045">
        <ele>481.306</ele>
        <time>2019-10-31T17:07:34Z</time>
      </trkpt>
      <trkpt lat="43.52083" lon="2.44049">
        <ele>472.864</ele>
        <time>2019-10-31T17:07:14Z</time>
      </trkpt>
      <trkpt lat="43.52049" lon="2.44113">
        <ele>470.219</ele>
        <time>2019-10-31T17:06:54Z</time>
      </trkpt>
      <trkpt lat="43.52098" lon="2.44145">
        <ele>479.61</ele>
        <time>2019-10-31T17:06:34Z</time>
      </trkpt>
      <trkpt lat="43.52143" lon="2.44248">
        <ele>494.214</ele>
        <time>2019-10-31T17:06:14Z</time>
      </trkpt>
      <trkpt lat="43.52069" lon="2.44291">
        <ele>490.222</ele>
        <time>2019-10-31T17:05:54Z</time>
      </trkpt>
      <trkpt lat="43.51901" lon="2.44341">
        <ele>477.446</ele>
        <time>2019-10-31T17:05:34Z</time>
      </trkpt>
      <trkpt lat="43.51854" lon="2.44379">
        <ele>474.523</ele>
        <time>2019-10-31T17:05:14Z</time>
      </trkpt>
      <trkpt lat="43.51815" lon="2.44444">
        <ele>472.798</ele>
        <time>2019-10-31T17:04:54Z</time>
      </trkpt>
      <trkpt lat="43.51798" lon="2.44442">
        <ele>470.222</ele>
        <time>2019-10-31T17:04:34Z</time>
      </trkpt>
      <trkpt lat="43.51726" lon="2.44317">
        <ele>453.808</ele>
        <time>2019-10-31T17:04:14Z</time>
      </trkpt>
      <trkpt lat="43.51702" lon="2.44313">
        <ele>452.811</ele>
        <time>2019-10-31T17:03:54Z</time>
      </trkpt>
      <trkpt lat="43.51661" lon="2.44362">
        <ele>452.383</ele>
        <time>2019-10-31T17:03:34Z</time>
      </trkpt>
      <trkpt lat="43.51641" lon="2.44491">
        <ele>447.562</ele>
        <time>2019-10-31T17:03:14Z</time>
      </trkpt>
      <trkpt lat="43.51588" lon="2.44602">
        <ele>433.812</ele>
        <time>2019-10-31T17:02:54Z</time>
      </trkpt>
      <trkpt lat="43.51593" lon="2.44622">
        <ele>431.933</ele>
        <time>2019-10-31T17:02:34Z</time>
      </trkpt>
      <trkpt lat="43.51646" lon="2.44639">
        <ele>443.097</ele>
        <time>2019-10-31T17:02:14Z</time>
      </trkpt>
      <trkpt lat="43.51652" lon="2.44669">
        <ele>435.425</ele>
        <time>2019-10-31T17:01:54Z</time>
      </trkpt>
      <trkpt lat="43.51669" lon="2.44712">
        <ele>433.669</ele>
        <time>2019-10-31T17:01:34Z</time>
      </trkpt>
      <trkpt lat="43.5167" lon="2.44744">
        <ele>422.836</ele>
        <time>2019-10-31T17:01:14Z</time>
      </trkpt>
      <trkpt lat="43.51712" lon="2.448">
        <ele>437.611</ele>
        <time>2019-10-31T17:00:54Z</time>
      </trkpt>
      <trkpt lat="43.5172" lon="2.44871">
        <ele>422.455</ele>
        <time>2019-10-31T17:00:34Z</time>
      </trkpt>
      <trkpt lat="43.5179" lon="2.44873">
        <ele>443.708</ele>
        <time>2019-10-31T17:00:14Z</time>
      </trkpt>
      <trkpt lat="43.51832" lon="2.44935">
        <ele>444.126</ele>
        <time>2019-10-31T16:59:54Z</time>
      </trkpt>
      <trkpt lat="43.51862" lon="2.45057">
        <ele>417.515</ele>
        <time>2019-10-31T16:59:34Z</time>
      </trkpt>
      <trkpt lat="43.51912" lon="2.45092">
        <ele>423.698</ele>
        <time>2019-10-31T16:59:14Z</time>
      </trkpt>
      <trkpt lat="43.51901" lon="2.45182">
        <ele>448.317</ele>
        <time>2019-10-31T16:58:54Z</time>
      </trkpt>
      <trkpt lat="43.51851" lon="2.45248">
        <ele>432.128</ele>
        <time>2019-10-31T16:58:34Z</time>
      </trkpt>
      <trkpt lat="43.51862" lon="2.45349">
        <ele>445.612</ele>
        <time>2019-10-31T16:58:14Z</time>
      </trkpt>
      <trkpt lat="43.51913" lon="2.45472">
        <ele>459.07</ele>
        <time>2019-10-31T16:57:54Z</time>
      </trkpt>
      <trkpt lat="43.51927" lon="2.45407">
        <ele>467.124</ele>
        <time>2019-10-31T16:57:34Z</time>
      </trkpt>
      <trkpt lat="43.51943" lon="2.45371">
        <ele>474.311</ele>
        <time>2019-10-31T16:57:14Z</time>
      </trkpt>
      <trkpt lat="43.51944" lon="2.45403">
        <ele>474.996</ele>
        <time>2019-10-31T16:56:54Z</time>
      </trkpt>
      <trkpt lat="43.51965" lon="2.45497">
        <ele>480.84</ele>
        <time>2019-10-31T16:56:34Z</time>
      </trkpt>
      <trkpt lat="43.52003" lon="2.4557">
        <ele>494.208</ele>
        <time>2019-10-31T16:56:14Z</time>
      </trkpt>
      <trkpt lat="43.52033" lon="2.45652">
        <ele>505.914</ele>
        <time>2019-10-31T16:55:54Z</time>
      </trkpt>
      <trkpt lat="43.52066" lon="2.45703">
        <ele>521.222</ele>
        <time>2019-10-31T16:55:34Z</time>
      </trkpt>
      <trkpt lat="43.52115" lon="2.45896">
        <ele>528.042</ele>
        <time>2019-10-31T16:55:14Z</time>
      </trkpt>
      <trkpt lat="43.52117" lon="2.46008">
        <ele>529.655</ele>
        <time>2019-10-31T16:54:54Z</time>
      </trkpt>
      <trkpt lat="43.52151" lon="2.46102">
        <ele>542.186</ele>
        <time>2019-10-31T16:54:34Z</time>
      </trkpt>
      <trkpt lat="43.52167" lon="2.46242">
        <ele>551.78</ele>
        <time>2019-10-31T16:54:14Z</time>
      </trkpt>
      <trkpt lat="43.52199" lon="2.46321">
        <ele>555.588</ele>
        <time>2019-10-31T16:53:54Z</time>
      </trkpt>
      <trkpt lat="43.5227" lon="2.46311">
        <ele>556.482</ele>
        <time>2019-10-31T16:53:34Z</time>
      </trkpt>
      <trkpt lat="43.52307" lon="2.46238">
        <ele>561.119</ele>
        <time>2019-10-31T16:53:14Z</time>
      </trkpt>
      <trkpt lat="43.52349" lon="2.46212">
        <ele>565.954</ele>
        <time>2019-10-31T16:52:54Z</time>
      </trkpt>
      <trkpt lat="43.52399" lon="2.46124">
        <ele>567.968</ele>
        <time>2019-10-31T16:52:34Z</time>
      </trkpt>
      <trkpt lat="43.52424" lon="2.461">
        <ele>569.808</ele>
        <time>2019-10-31T16:52:14Z</time>
      </trkpt>
      <trkpt lat="43.52473" lon="2.46109">
        <ele>574.014</ele>
        <time>2019-10-31T16:51:54Z</time>
      </trkpt>
      <trkpt lat="43.52489" lon="2.46143">
        <ele>578.268</ele>
        <time>2019-10-31T16:51:34Z</time>
      </trkpt>
      <trkpt lat="43.52595" lon="2.46017">
        <ele>585.027</ele>
        <time>2019-10-31T16:51:14Z</time>
      </trkpt>
      <trkpt lat="43.52665" lon="2.45971">
        <ele>590.854</ele>
        <time>2019-10-31T16:50:54Z</time>
      </trkpt>
      <trkpt lat="43.52668" lon="2.45931">
        <ele>590.455</ele>
        <time>2019-10-31T16:50:34Z</time>
      </trkpt>
      <trkpt lat="43.52644" lon="2.45881">
        <ele>590.549</ele>
        <time>2019-10-31T16:50:14Z</time>
      </trkpt>
      <trkpt lat="43.52727" lon="2.45884">
        <ele>605.627</ele>
        <time>2019-10-31T16:49:54Z</time>
      </trkpt>
      <trkpt lat="43.52774" lon="2.45834">
        <ele>611.121</ele>
        <time>2019-10-31T16:49:34Z</time>
      </trkpt>
      <trkpt lat="43.52987" lon="2.45841">
        <ele>615.758</ele>
        <time>2019-10-31T16:49:14Z</time>
      </trkpt>
      <trkpt lat="43.53085" lon="2.45939">
        <ele>623.753</ele>
        <time>2019-10-31T16:48:54Z</time>
      </trkpt>
      <trkpt lat="43.53107" lon="2.45939">
        <ele>625.357</ele>
        <time>2019-10-31T16:48:34Z</time>
      </trkpt>
      <trkpt lat="43.53135" lon="2.45879">
        <ele>624.808</ele>
        <time>2019-10-31T16:48:14Z</time>
      </trkpt>
      <trkpt lat="43.53234" lon="2.4583">
        <ele>633.017</ele>
        <time>2019-10-31T16:47:54Z</time>
      </trkpt>
      <trkpt lat="43.53281" lon="2.45828">
        <ele>635.698</ele>
        <time>2019-10-31T16:47:34Z</time>
      </trkpt>
      <trkpt lat="43.53303" lon="2.45813">
        <ele>635.218</ele>
        <time>2019-10-31T16:47:14Z</time>
      </trkpt>
      <trkpt lat="43.53315" lon="2.45781">
        <ele>633.237</ele>
        <time>2019-10-31T16:46:54Z</time>
      </trkpt>
      <trkpt lat="43.53354" lon="2.45776">
        <ele>633.698</ele>
        <time>2019-10-31T16:46:34Z</time>
      </trkpt>
      <trkpt lat="43.53464" lon="2.45703">
        <ele>638.992</ele>
        <time>2019-10-31T16:46:14Z</time>
      </trkpt>
      <trkpt lat="43.53525" lon="2.45645">
        <ele>633.81</ele>
        <time>2019-10-31T16:45:54Z</time>
      </trkpt>
      <trkpt lat="43.53511" lon="2.45602">
        <ele>629.814</ele>
        <time>2019-10-31T16:45:34Z</time>
      </trkpt>
      <trkpt lat="43.53525" lon="2.45575">
        <ele>627.731</ele>
        <time>2019-10-31T16:45:14Z</time>
      </trkpt>
      <trkpt lat="43.53551" lon="2.45575">
        <ele>624.616</ele>
        <time>2019-10-31T16:44:54Z</time>
      </trkpt>
      <trkpt lat="43.53576" lon="2.45596">
        <ele>624.21</ele>
        <time>2019-10-31T16:44:34Z</time>
      </trkpt>
      <trkpt lat="43.53657" lon="2.4562">
        <ele>613.208</ele>
        <time>2019-10-31T16:44:14Z</time>
      </trkpt>
      <trkpt lat="43.53665" lon="2.45647">
        <ele>613.014</ele>
        <time>2019-10-31T16:43:54Z</time>
      </trkpt>
      <trkpt lat="43.53684" lon="2.45647">
        <ele>616.322</ele>
        <time>2019-10-31T16:43:34Z</time>
      </trkpt>
      <trkpt lat="43.53735" lon="2.45587">
        <ele>625.242</ele>
        <time>2019-10-31T16:43:14Z</time>
      </trkpt>
      <trkpt lat="43.53786" lon="2.45429">
        <ele>636.277</ele>
        <time>2019-10-31T16:42:54Z</time>
      </trkpt>
      <trkpt lat="43.53833" lon="2.45375">
        <ele>635.918</ele>
        <time>2019-10-31T16:42:34Z</time>
      </trkpt>
      <trkpt lat="43.53889" lon="2.45227">
        <ele>628.772</ele>
        <time>2019-10-31T16:42:14Z</time>
      </trkpt>
      <trkpt lat="43.53999" lon="2.45304">
        <ele>652.94</ele>
        <time>2019-10-31T16:41:54Z</time>
      </trkpt>
      <trkpt lat="43.54038" lon="2.45416">
        <ele>660.974</ele>
        <time>2019-10-31T16:41:34Z</time>
      </trkpt>
      <trkpt lat="43.54066" lon="2.45444">
        <ele>663.331</ele>
        <time>2019-10-31T16:41:14Z</time>
      </trkpt>
      <trkpt lat="43.54102" lon="2.45431">
        <ele>664.296</ele>
        <time>2019-10-31T16:40:54Z</time>
      </trkpt>
      <trkpt lat="43.54139" lon="2.45384">
        <ele>664.75</ele>
        <time>2019-10-31T16:40:34Z</time>
      </trkpt>
      <trkpt lat="43.54175" lon="2.45358">
        <ele>666.408</ele>
        <time>2019-10-31T16:40:14Z</time>
      </trkpt>
      <trkpt lat="43.54213" lon="2.45351">
        <ele>663.31</ele>
        <time>2019-10-31T16:39:54Z</time>
      </trkpt>
      <trkpt lat="43.54267" lon="2.45407">
        <ele>664.364</ele>
        <time>2019-10-31T16:39:34Z</time>
      </trkpt>
      <trkpt lat="43.54297" lon="2.45411">
        <ele>665.343</ele>
        <time>2019-10-31T16:39:14Z</time>
      </trkpt>
      <trkpt lat="43.54356" lon="2.45431">
        <ele>666.757</ele>
        <time>2019-10-31T16:38:54Z</time>
      </trkpt>
      <trkpt lat="43.54421" lon="2.45502">
        <ele>668.128</ele>
        <time>2019-10-31T16:38:34Z</time>
      </trkpt>
      <trkpt lat="43.54508" lon="2.45474">
        <ele>669.492</ele>
        <time>2019-10-31T16:38:14Z</time>
      </trkpt>
      <trkpt lat="43.5458" lon="2.45523">
        <ele>672.27</ele>
        <time>2019-10-31T16:37:54Z</time>
      </trkpt>
      <trkpt lat="43.54651" lon="2.45437">
        <ele>670.064</ele>
        <time>2019-10-31T16:37:34Z</time>
      </trkpt>
      <trkpt lat="43.5474" lon="2.45426">
        <ele>661.211</ele>
        <time>2019-10-31T16:37:14Z</time>
      </trkpt>
      <trkpt lat="43.54819" lon="2.45388">
        <ele>652.686</ele>
        <time>2019-10-31T16:36:54Z</time>
      </trkpt>
      <trkpt lat="43.54872" lon="2.45439">
        <ele>646.48</ele>
        <time>2019-10-31T16:36:34Z</time>
      </trkpt>
      <trkpt lat="43.54895" lon="2.45431">
        <ele>643.308</ele>
        <time>2019-10-31T16:36:14Z</time>
      </trkpt>
      <trkpt lat="43.54914" lon="2.45347">
        <ele>641.315</ele>
        <time>2019-10-31T16:35:54Z</time>
      </trkpt>
      <trkpt lat="43.54909" lon="2.45302">
        <ele>642.405</ele>
        <time>2019-10-31T16:35:34Z</time>
      </trkpt>
      <trkpt lat="43.55088" lon="2.45356">
        <ele>642.844</ele>
        <time>2019-10-31T16:35:14Z</time>
      </trkpt>
      <trkpt lat="43.55132" lon="2.45426">
        <ele>642.972</ele>
        <time>2019-10-31T16:34:54Z</time>
      </trkpt>
      <trkpt lat="43.55188" lon="2.45452">
        <ele>644.093</ele>
        <time>2019-10-31T16:34:34Z</time>
      </trkpt>
      <trkpt lat="43.5523" lon="2.4542">
        <ele>648.117</ele>
        <time>2019-10-31T16:34:14Z</time>
      </trkpt>
      <trkpt lat="43.55301" lon="2.45433">
        <ele>646.225</ele>
        <time>2019-10-31T16:33:54Z</time>
      </trkpt>
      <trkpt lat="43.55331" lon="2.45392">
        <ele>649.129</ele>
        <time>2019-10-31T16:33:34Z</time>
      </trkpt>
      <trkpt lat="43.5534" lon="2.45272">
        <ele>653.926</ele>
        <time>2019-10-31T16:33:14Z</time>
      </trkpt>
      <trkpt lat="43.55365" lon="2.45248">
        <ele>653.431</ele>
        <time>2019-10-31T16:32:54Z</time>
      </trkpt>
      <trkpt lat="43.55396" lon="2.45259">
        <ele>654.845</ele>
        <time>2019-10-31T16:32:34Z</time>
      </trkpt>
      <trkpt lat="43.55427" lon="2.45259">
        <ele>658.408</ele>
        <time>2019-10-31T16:32:14Z</time>
      </trkpt>
      <trkpt lat="43.55482" lon="2.453">
        <ele>661.823</ele>
        <time>2019-10-31T16:31:54Z</time>
      </trkpt>
      <trkpt lat="43.55556" lon="2.45452">
        <ele>663.649</ele>
        <time>2019-10-31T16:31:34Z</time>
      </trkpt>
      <trkpt lat="43.55679" lon="2.45512">
        <ele>668.595</ele>
        <time>2019-10-31T16:31:14Z</time>
      </trkpt>
      <trkpt lat="43.55707" lon="2.45504">
        <ele>673.028</ele>
        <time>2019-10-31T16:30:54Z</time>
      </trkpt>
      <trkpt lat="43.5578" lon="2.45347">
        <ele>689.969</ele>
        <time>2019-10-31T16:30:34Z</time>
      </trkpt>
      <trkpt lat="43.55814" lon="2.45218">
        <ele>697.723</ele>
        <time>2019-10-31T16:30:14Z</time>
      </trkpt>
      <trkpt lat="43.55828" lon="2.45167">
        <ele>700.011</ele>
        <time>2019-10-31T16:29:54Z</time>
      </trkpt>
      <trkpt lat="43.5597" lon="2.44997">
        <ele>710.095</ele>
        <time>2019-10-31T16:29:34Z</time>
      </trkpt>
      <trkpt lat="43.56071" lon="2.44916">
        <ele>710.512</ele>
        <time>2019-10-31T16:29:14Z</time>
      </trkpt>
      <trkpt lat="43.56102" lon="2.44984">
        <ele>714.537</ele>
        <time>2019-10-31T16:28:54Z</time>
      </trkpt>
      <trkpt lat="43.56155" lon="2.4504">
        <ele>719.991</ele>
        <time>2019-10-31T16:28:34Z</time>
      </trkpt>
      <trkpt lat="43.56219" lon="2.45163">
        <ele>724.608</ele>
        <time>2019-10-31T16:28:14Z</time>
      </trkpt>
      <trkpt lat="43.56234" lon="2.45248">
        <ele>727.811</ele>
        <time>2019-10-31T16:27:54Z</time>
      </trkpt>
      <trkpt lat="43.56307" lon="2.45446">
        <ele>725.956</ele>
        <time>2019-10-31T16:27:34Z</time>
      </trkpt>
      <trkpt lat="43.56345" lon="2.45491">
        <ele>723.354</ele>
        <time>2019-10-31T16:27:14Z</time>
      </trkpt>
      <trkpt lat="43.56446" lon="2.45549">
        <ele>712.242</ele>
        <time>2019-10-31T16:26:54Z</time>
      </trkpt>
      <trkpt lat="43.56544" lon="2.45497">
        <ele>714.653</ele>
        <time>2019-10-31T16:26:34Z</time>
      </trkpt>
      <trkpt lat="43.56592" lon="2.45394">
        <ele>718.247</ele>
        <time>2019-10-31T16:26:14Z</time>
      </trkpt>
      <trkpt lat="43.56747" lon="2.45238">
        <ele>708.655</ele>
        <time>2019-10-31T16:25:54Z</time>
      </trkpt>
      <trkpt lat="43.56836" lon="2.45171">
        <ele>698.689</ele>
        <time>2019-10-31T16:25:34Z</time>
      </trkpt>
      <trkpt lat="43.56898" lon="2.45145">
        <ele>685.476</ele>
        <time>2019-10-31T16:25:14Z</time>
      </trkpt>
      <trkpt lat="43.56892" lon="2.4507">
        <ele>680.031</ele>
        <time>2019-10-31T16:24:54Z</time>
      </trkpt>
      <trkpt lat="43.56865" lon="2.45023">
        <ele>673.525</ele>
        <time>2019-10-31T16:24:34Z</time>
      </trkpt>
      <trkpt lat="43.56811" lon="2.45004">
        <ele>670.008</ele>
        <time>2019-10-31T16:24:14Z</time>
      </trkpt>
      <trkpt lat="43.56859" lon="2.4498">
        <ele>664.526</ele>
        <time>2019-10-31T16:23:54Z</time>
      </trkpt>
      <trkpt lat="43.56914" lon="2.44974">
        <ele>661.315</ele>
        <time>2019-10-31T16:23:34Z</time>
      </trkpt>
      <trkpt lat="43.56959" lon="2.45014">
        <ele>659.098</ele>
        <time>2019-10-31T16:23:14Z</time>
      </trkpt>
      <trkpt lat="43.56994" lon="2.45098">
        <ele>653.116</ele>
        <time>2019-10-31T16:22:54Z</time>
      </trkpt>
      <trkpt lat="43.5701" lon="2.45186">
        <ele>646.667</ele>
        <time>2019-10-31T16:22:34Z</time>
      </trkpt>
      <trkpt lat="43.56999" lon="2.45259">
        <ele>642.841</ele>
        <time>2019-10-31T16:22:14Z</time>
      </trkpt>
      <trkpt lat="43.56968" lon="2.45306">
        <ele>648.659</ele>
        <time>2019-10-31T16:21:54Z</time>
      </trkpt>
      <trkpt lat="43.56968" lon="2.45338">
        <ele>646.693</ele>
        <time>2019-10-31T16:21:34Z</time>
      </trkpt>
      <trkpt lat="43.57015" lon="2.4539">
        <ele>643.08</ele>
        <time>2019-10-31T16:21:14Z</time>
      </trkpt>
      <trkpt lat="43.57033" lon="2.45431">
        <ele>641.515</ele>
        <time>2019-10-31T16:20:54Z</time>
      </trkpt>
      <trkpt lat="43.5705" lon="2.4551">
        <ele>640.639</ele>
        <time>2019-10-31T16:20:34Z</time>
      </trkpt>
      <trkpt lat="43.57117" lon="2.4565">
        <ele>630.608</ele>
        <time>2019-10-31T16:20:14Z</time>
      </trkpt>
      <trkpt lat="43.57114" lon="2.45729">
        <ele>635.418</ele>
        <time>2019-10-31T16:19:54Z</time>
      </trkpt>
      <trkpt lat="43.57183" lon="2.45765">
        <ele>626.617</ele>
        <time>2019-10-31T16:19:34Z</time>
      </trkpt>
      <trkpt lat="43.5722" lon="2.45828">
        <ele>624.336</ele>
        <time>2019-10-31T16:19:14Z</time>
      </trkpt>
      <trkpt lat="43.57237" lon="2.45892">
        <ele>625.252</ele>
        <time>2019-10-31T16:18:54Z</time>
      </trkpt>
      <trkpt lat="43.57273" lon="2.45892">
        <ele>620.943</ele>
        <time>2019-10-31T16:18:34Z</time>
      </trkpt>
      <trkpt lat="43.5731" lon="2.45931">
        <ele>621.217</ele>
        <time>2019-10-31T16:18:14Z</time>
      </trkpt>
      <trkpt lat="43.57326" lon="2.45909">
        <ele>618.775</ele>
        <time>2019-10-31T16:17:54Z</time>
      </trkpt>
      <trkpt lat="43.57329" lon="2.45781">
        <ele>612.539</ele>
        <time>2019-10-31T16:17:34Z</time>
      </trkpt>
      <trkpt lat="43.57319" lon="2.45723">
        <ele>613.586</ele>
        <time>2019-10-31T16:17:14Z</time>
      </trkpt>
      <trkpt lat="43.57231" lon="2.45665">
        <ele>607.331</ele>
        <time>2019-10-31T16:16:54Z</time>
      </trkpt>
      <trkpt lat="43.57262" lon="2.45491">
        <ele>603.095</ele>
        <time>2019-10-31T16:16:34Z</time>
      </trkpt>
      <trkpt lat="43.57235" lon="2.45431">
        <ele>598.708</ele>
        <time>2019-10-31T16:16:14Z</time>
      </trkpt>
      <trkpt lat="43.57234" lon="2.4533">
        <ele>593.621</ele>
        <time>2019-10-31T16:15:54Z</time>
      </trkpt>
      <trkpt lat="43.57417" lon="2.45143">
        <ele>581.865</ele>
        <time>2019-10-31T16:15:34Z</time>
      </trkpt>
      <trkpt lat="43.57458" lon="2.45081">
        <ele>571.793</ele>
        <time>2019-10-31T16:15:14Z</time>
      </trkpt>
      <trkpt lat="43.57494" lon="2.45087">
        <ele>577.488</ele>
        <time>2019-10-31T16:14:54Z</time>
      </trkpt>
      <trkpt lat="43.57529" lon="2.4506">
        <ele>571.449</ele>
        <time>2019-10-31T16:14:34Z</time>
      </trkpt>
      <trkpt lat="43.5759" lon="2.45057">
        <ele>571.423</ele>
        <time>2019-10-31T16:14:14Z</time>
      </trkpt>
      <trkpt lat="43.57595" lon="2.45012">
        <ele>570.761</ele>
        <time>2019-10-31T16:13:54Z</time>
      </trkpt>
      <trkpt lat="43.57574" lon="2.44952">
        <ele>564.575</ele>
        <time>2019-10-31T16:13:34Z</time>
      </trkpt>
      <trkpt lat="43.57576" lon="2.44911">
        <ele>560.472</ele>
        <time>2019-10-31T16:13:14Z</time>
      </trkpt>
      <trkpt lat="43.57612" lon="2.44881">
        <ele>562.087</ele>
        <time>2019-10-31T16:12:54Z</time>
      </trkpt>
      <trkpt lat="43.57637" lon="2.44843">
        <ele>559.331</ele>
        <time>2019-10-31T16:12:34Z</time>
      </trkpt>
      <trkpt lat="43.57672" lon="2.44731">
        <ele>551.008</ele>
        <time>2019-10-31T16:12:14Z</time>
      </trkpt>
      <trkpt lat="43.57742" lon="2.44716">
        <ele>551.717</ele>
        <time>2019-10-31T16:11:54Z</time>
      </trkpt>
      <trkpt lat="43.57814" lon="2.44688">
        <ele>543.452</ele>
        <time>2019-10-31T16:11:34Z</time>
      </trkpt>
      <trkpt lat="43.57811" lon="2.44888">
        <ele>538.958</ele>
        <time>2019-10-31T16:11:14Z</time>
      </trkpt>
      <trkpt lat="43.57856" lon="2.44901">
        <ele>532.416</ele>
        <time>2019-10-31T16:10:54Z</time>
      </trkpt>
      <trkpt lat="43.57867" lon="2.44931">
        <ele>531.727</ele>
        <time>2019-10-31T16:10:34Z</time>
      </trkpt>
      <trkpt lat="43.5784" lon="2.45049">
        <ele>531.421</ele>
        <time>2019-10-31T16:10:14Z</time>
      </trkpt>
      <trkpt lat="43.57857" lon="2.45057">
        <ele>528.719</ele>
        <time>2019-10-31T16:09:54Z</time>
      </trkpt>
      <trkpt lat="43.58003" lon="2.45021">
        <ele>522.173</ele>
        <time>2019-10-31T16:09:34Z</time>
      </trkpt>
      <trkpt lat="43.58031" lon="2.45038">
        <ele>516.78</ele>
        <time>2019-10-31T16:09:14Z</time>
      </trkpt>
      <trkpt lat="43.58053" lon="2.45188">
        <ele>511.155</ele>
        <time>2019-10-31T16:08:54Z</time>
      </trkpt>
      <trkpt lat="43.58052" lon="2.45248">
        <ele>505.039</ele>
        <time>2019-10-31T16:08:34Z</time>
      </trkpt>
      <trkpt lat="43.57999" lon="2.45293">
        <ele>509.308</ele>
        <time>2019-10-31T16:08:14Z</time>
      </trkpt>
      <trkpt lat="43.58006" lon="2.45328">
        <ele>509.01</ele>
        <time>2019-10-31T16:07:54Z</time>
      </trkpt>
      <trkpt lat="43.58094" lon="2.4536">
        <ele>499.955</ele>
        <time>2019-10-31T16:07:34Z</time>
      </trkpt>
      <trkpt lat="43.58112" lon="2.45388">
        <ele>496.334</ele>
        <time>2019-10-31T16:07:14Z</time>
      </trkpt>
      <trkpt lat="43.58112" lon="2.45446">
        <ele>495.378</ele>
        <time>2019-10-31T16:06:54Z</time>
      </trkpt>
      <trkpt lat="43.581" lon="2.45525">
        <ele>492.169</ele>
        <time>2019-10-31T16:06:34Z</time>
      </trkpt>
      <trkpt lat="43.58106" lon="2.45568">
        <ele>485.333</ele>
        <time>2019-10-31T16:06:14Z</time>
      </trkpt>
      <trkpt lat="43.5814" lon="2.45579">
        <ele>479.911</ele>
        <time>2019-10-31T16:05:54Z</time>
      </trkpt>
      <trkpt lat="43.58173" lon="2.45562">
        <ele>481.615</ele>
        <time>2019-10-31T16:05:34Z</time>
      </trkpt>
      <trkpt lat="43.58196" lon="2.45484">
        <ele>481.232</ele>
        <time>2019-10-31T16:05:14Z</time>
      </trkpt>
      <trkpt lat="43.58199" lon="2.45396">
        <ele>474.917</ele>
        <time>2019-10-31T16:04:54Z</time>
      </trkpt>
      <trkpt lat="43.58215" lon="2.45255">
        <ele>476.181</ele>
        <time>2019-10-31T16:04:34Z</time>
      </trkpt>
      <trkpt lat="43.58205" lon="2.4513">
        <ele>464.608</ele>
        <time>2019-10-31T16:04:14Z</time>
      </trkpt>
      <trkpt lat="43.58219" lon="2.45049">
        <ele>467.214</ele>
        <time>2019-10-31T16:03:54Z</time>
      </trkpt>
      <trkpt lat="43.58185" lon="2.44877">
        <ele>462.359</ele>
        <time>2019-10-31T16:03:34Z</time>
      </trkpt>
      <trkpt lat="43.58204" lon="2.44759">
        <ele>453.556</ele>
        <time>2019-10-31T16:03:14Z</time>
      </trkpt>
      <trkpt lat="43.5823" lon="2.44748">
        <ele>455.711</ele>
        <time>2019-10-31T16:02:54Z</time>
      </trkpt>
      <trkpt lat="43.58266" lon="2.44753">
        <ele>457.552</ele>
        <time>2019-10-31T16:02:34Z</time>
      </trkpt>
      <trkpt lat="43.5828" lon="2.44686">
        <ele>449.966</ele>
        <time>2019-10-31T16:02:14Z</time>
      </trkpt>
      <trkpt lat="43.58299" lon="2.4465">
        <ele>448.084</ele>
        <time>2019-10-31T16:01:54Z</time>
      </trkpt>
      <trkpt lat="43.58342" lon="2.44611">
        <ele>446.268</ele>
        <time>2019-10-31T16:01:34Z</time>
      </trkpt>
      <trkpt lat="43.58359" lon="2.44587">
        <ele>446.245</ele>
        <time>2019-10-31T16:01:14Z</time>
      </trkpt>
      <trkpt lat="43.5837" lon="2.44519">
        <ele>440.16</ele>
        <time>2019-10-31T16:00:54Z</time>
      </trkpt>
      <trkpt lat="43.58406" lon="2.44399">
        <ele>436.624</ele>
        <time>2019-10-31T16:00:34Z</time>
      </trkpt>
      <trkpt lat="43.58408" lon="2.44231">
        <ele>429.408</ele>
        <time>2019-10-31T16:00:14Z</time>
      </trkpt>
      <trkpt lat="43.58429" lon="2.44167">
        <ele>422.526</ele>
        <time>2019-10-31T15:59:54Z</time>
      </trkpt>
      <trkpt lat="43.58533" lon="2.44019">
        <ele>417.46</ele>
        <time>2019-10-31T15:59:34Z</time>
      </trkpt>
      <trkpt lat="43.58533" lon="2.44019">
        <ele>417.486</ele>
        <time>2019-10-31T15:59:34Z</time>
      </trkpt>
      <trkpt lat="43.58507" lon="2.43878">
        <ele>399.198</ele>
        <time>2019-10-31T18:16:13Z</time>
      </trkpt>
      <trkpt lat="43.58527" lon="2.43817">
        <ele>399.999</ele>
        <time>2019-10-31T18:15:53Z</time>
      </trkpt>
      <trkpt lat="43.58523" lon="2.43753">
        <ele>400.243</ele>
        <time>2019-10-31T18:15:33Z</time>
      </trkpt>
      <trkpt lat="43.58558" lon="2.43473">
        <ele>395.771</ele>
        <time>2019-10-31T18:15:13Z</time>
      </trkpt>
      <trkpt lat="43.58538" lon="2.4341">
        <ele>392.815</ele>
        <time>2019-10-31T18:14:53Z</time>
      </trkpt>
      <trkpt lat="43.5855" lon="2.43312">
        <ele>390.042</ele>
        <time>2019-10-31T18:14:33Z</time>
      </trkpt>
      <trkpt lat="43.58535" lon="2.43296">
        <ele>390.257</ele>
        <time>2019-10-31T18:14:13Z</time>
      </trkpt>
      <trkpt lat="43.5851" lon="2.432">
        <ele>391.951</ele>
        <time>2019-10-31T18:13:53Z</time>
      </trkpt>
      <trkpt lat="43.58511" lon="2.43116">
        <ele>405.308</ele>
        <time>2019-10-31T18:13:33Z</time>
      </trkpt>
      <trkpt lat="43.58474" lon="2.43047">
        <ele>408.711</ele>
        <time>2019-10-31T18:13:13Z</time>
      </trkpt>
      <trkpt lat="43.58459" lon="2.42981">
        <ele>411.556</ele>
        <time>2019-10-31T18:12:53Z</time>
      </trkpt>
      <trkpt lat="43.5847" lon="2.42956">
        <ele>415.254</ele>
        <time>2019-10-31T18:12:33Z</time>
      </trkpt>
      <trkpt lat="43.58515" lon="2.4298">
        <ele>426.669</ele>
        <time>2019-10-31T18:12:13Z</time>
      </trkpt>
      <trkpt lat="43.58587" lon="2.43">
        <ele>440.49</ele>
        <time>2019-10-31T18:11:53Z</time>
      </trkpt>
      <trkpt lat="43.5869" lon="2.42986">
        <ele>448.654</ele>
        <time>2019-10-31T18:11:33Z</time>
      </trkpt>
      <trkpt lat="43.58735" lon="2.42953">
        <ele>454.392</ele>
        <time>2019-10-31T18:11:13Z</time>
      </trkpt>
      <trkpt lat="43.58814" lon="2.42857">
        <ele>463.726</ele>
        <time>2019-10-31T18:10:53Z</time>
      </trkpt>
      <trkpt lat="43.58907" lon="2.42768">
        <ele>458.333</ele>
        <time>2019-10-31T18:10:33Z</time>
      </trkpt>
      <trkpt lat="43.58949" lon="2.42705">
        <ele>459.748</ele>
        <time>2019-10-31T18:10:13Z</time>
      </trkpt>
      <trkpt lat="43.59031" lon="2.42589">
        <ele>480.782</ele>
        <time>2019-10-31T18:09:53Z</time>
      </trkpt>
      <trkpt lat="43.59072" lon="2.42569">
        <ele>491.008</ele>
        <time>2019-10-31T18:09:33Z</time>
      </trkpt>
      <trkpt lat="43.59124" lon="2.42587">
        <ele>498.926</ele>
        <time>2019-10-31T18:09:13Z</time>
      </trkpt>
      <trkpt lat="43.59274" lon="2.42709">
        <ele>517.442</ele>
        <time>2019-10-31T18:08:53Z</time>
      </trkpt>
      <trkpt lat="43.59323" lon="2.42764">
        <ele>520.968</ele>
        <time>2019-10-31T18:08:33Z</time>
      </trkpt>
      <trkpt lat="43.59406" lon="2.428">
        <ele>514.842</ele>
        <time>2019-10-31T18:08:13Z</time>
      </trkpt>
      <trkpt lat="43.59558" lon="2.42823">
        <ele>512.843</ele>
        <time>2019-10-31T18:07:53Z</time>
      </trkpt>
      <trkpt lat="43.59595" lon="2.42808">
        <ele>512.427</ele>
        <time>2019-10-31T18:07:33Z</time>
      </trkpt>
      <trkpt lat="43.59655" lon="2.42829">
        <ele>515.395</ele>
        <time>2019-10-31T18:07:13Z</time>
      </trkpt>
      <trkpt lat="43.59676" lon="2.42764">
        <ele>513.439</ele>
        <time>2019-10-31T18:06:53Z</time>
      </trkpt>
      <trkpt lat="43.59724" lon="2.42675">
        <ele>518.276</ele>
        <time>2019-10-31T18:06:33Z</time>
      </trkpt>
      <trkpt lat="43.59793" lon="2.42566">
        <ele>524.871</ele>
        <time>2019-10-31T18:06:13Z</time>
      </trkpt>
      <trkpt lat="43.5982" lon="2.42464">
        <ele>523.385</ele>
        <time>2019-10-31T18:05:53Z</time>
      </trkpt>
      <trkpt lat="43.59887" lon="2.42295">
        <ele>519.008</ele>
        <time>2019-10-31T18:05:33Z</time>
      </trkpt>
      <trkpt lat="43.5999" lon="2.42216">
        <ele>527.324</ele>
        <time>2019-10-31T18:05:13Z</time>
      </trkpt>
      <trkpt lat="43.60055" lon="2.42197">
        <ele>528.331</ele>
        <time>2019-10-31T18:04:53Z</time>
      </trkpt>
      <trkpt lat="43.60138" lon="2.42194">
        <ele>530.096</ele>
        <time>2019-10-31T18:04:33Z</time>
      </trkpt>
      <trkpt lat="43.60175" lon="2.42227">
        <ele>524.114</ele>
        <time>2019-10-31T18:04:13Z</time>
      </trkpt>
      <trkpt lat="43.60197" lon="2.42323">
        <ele>521.175</ele>
        <time>2019-10-31T18:03:53Z</time>
      </trkpt>
      <trkpt lat="43.60229" lon="2.42381">
        <ele>521.479</ele>
        <time>2019-10-31T18:03:33Z</time>
      </trkpt>
      <trkpt lat="43.60259" lon="2.42338">
        <ele>515.587</ele>
        <time>2019-10-31T18:03:13Z</time>
      </trkpt>
      <trkpt lat="43.60298" lon="2.42332">
        <ele>515.511</ele>
        <time>2019-10-31T18:02:53Z</time>
      </trkpt>
      <trkpt lat="43.60346" lon="2.42342">
        <ele>505.168</ele>
        <time>2019-10-31T18:02:33Z</time>
      </trkpt>
      <trkpt lat="43.60391" lon="2.424">
        <ele>501.393</ele>
        <time>2019-10-31T18:02:13Z</time>
      </trkpt>
      <trkpt lat="43.60445" lon="2.4242">
        <ele>491.147</ele>
        <time>2019-10-31T18:01:53Z</time>
      </trkpt>
      <trkpt lat="43.60512" lon="2.42408">
        <ele>471.808</ele>
        <time>2019-10-31T18:01:33Z</time>
      </trkpt>
      <trkpt lat="43.60574" lon="2.42418">
        <ele>454.503</ele>
        <time>2019-10-31T18:01:13Z</time>
      </trkpt>
      <trkpt lat="43.60612" lon="2.42504">
        <ele>450.321</ele>
        <time>2019-10-31T18:00:53Z</time>
      </trkpt>
      <trkpt lat="43.60586" lon="2.42594">
        <ele>444.311</ele>
        <time>2019-10-31T18:00:33Z</time>
      </trkpt>
      <trkpt lat="43.60569" lon="2.42729">
        <ele>428.994</ele>
        <time>2019-10-31T18:00:13Z</time>
      </trkpt>
      <trkpt lat="43.60572" lon="2.42797">
        <ele>423.525</ele>
        <time>2019-10-31T17:59:53Z</time>
      </trkpt>
      <trkpt lat="43.6061" lon="2.42877">
        <ele>415.749</ele>
        <time>2019-10-31T17:59:33Z</time>
      </trkpt>
      <trkpt lat="43.6063" lon="2.42943">
        <ele>415.197</ele>
        <time>2019-10-31T17:59:13Z</time>
      </trkpt>
      <trkpt lat="43.60686" lon="2.42828">
        <ele>414.921</ele>
        <time>2019-10-31T17:58:53Z</time>
      </trkpt>
      <trkpt lat="43.60665" lon="2.4279">
        <ele>416.548</ele>
        <time>2019-10-31T17:58:33Z</time>
      </trkpt>
      <trkpt lat="43.60641" lon="2.42782">
        <ele>410.533</ele>
        <time>2019-10-31T17:58:13Z</time>
      </trkpt>
      <trkpt lat="43.60636" lon="2.42737">
        <ele>410.447</ele>
        <time>2019-10-31T17:57:53Z</time>
      </trkpt>
      <trkpt lat="43.60654" lon="2.42708">
        <ele>411.808</ele>
        <time>2019-10-31T17:57:33Z</time>
      </trkpt>
      <trkpt lat="43.60665" lon="2.42751">
        <ele>421.403</ele>
        <time>2019-10-31T17:57:13Z</time>
      </trkpt>
      <trkpt lat="43.607" lon="2.42778">
        <ele>430.021</ele>
        <time>2019-10-31T17:56:53Z</time>
      </trkpt>
      <trkpt lat="43.60758" lon="2.42776">
        <ele>442.711</ele>
        <time>2019-10-31T17:56:33Z</time>
      </trkpt>
      <trkpt lat="43.60832" lon="2.42705">
        <ele>463.371</ele>
        <time>2019-10-31T17:56:13Z</time>
      </trkpt>
      <trkpt lat="43.60902" lon="2.42553">
        <ele>480.462</ele>
        <time>2019-10-31T17:55:53Z</time>
      </trkpt>
      <trkpt lat="43.60927" lon="2.42377">
        <ele>495.856</ele>
        <time>2019-10-31T17:55:33Z</time>
      </trkpt>
      <trkpt lat="43.60991" lon="2.42294">
        <ele>509.064</ele>
        <time>2019-10-31T17:55:13Z</time>
      </trkpt>
      <trkpt lat="43.61023" lon="2.42281">
        <ele>508.038</ele>
        <time>2019-10-31T17:54:53Z</time>
      </trkpt>
      <trkpt lat="43.6114" lon="2.42319">
        <ele>525.065</ele>
        <time>2019-10-31T17:54:33Z</time>
      </trkpt>
      <trkpt lat="43.61217" lon="2.42276">
        <ele>531.42</ele>
        <time>2019-10-31T17:54:13Z</time>
      </trkpt>
      <trkpt lat="43.613" lon="2.42306">
        <ele>546.754</ele>
        <time>2019-10-31T17:53:53Z</time>
      </trkpt>
      <trkpt lat="43.6132" lon="2.42274">
        <ele>548.808</ele>
        <time>2019-10-31T17:53:33Z</time>
      </trkpt>
      <trkpt lat="43.61474" lon="2.42316">
        <ele>580.026</ele>
        <time>2019-10-31T17:53:13Z</time>
      </trkpt>
      <trkpt lat="43.61502" lon="2.42394">
        <ele>581.56</ele>
        <time>2019-10-31T17:52:53Z</time>
      </trkpt>
      <trkpt lat="43.61544" lon="2.42449">
        <ele>594.286</ele>
        <time>2019-10-31T17:52:33Z</time>
      </trkpt>
      <trkpt lat="43.61587" lon="2.42446">
        <ele>600.382</ele>
        <time>2019-10-31T17:52:13Z</time>
      </trkpt>
      <trkpt lat="43.61735" lon="2.42482">
        <ele>601.243</ele>
        <time>2019-10-31T17:51:53Z</time>
      </trkpt>
      <trkpt lat="43.61811" lon="2.42441">
        <ele>595.677</ele>
        <time>2019-10-31T17:51:33Z</time>
      </trkpt>
      <trkpt lat="43.61892" lon="2.42342">
        <ele>588.675</ele>
        <time>2019-10-31T17:51:13Z</time>
      </trkpt>
      <trkpt lat="43.61935" lon="2.4233">
        <ele>582.139</ele>
        <time>2019-10-31T17:50:53Z</time>
      </trkpt>
      <trkpt lat="43.61994" lon="2.42289">
        <ele>568.216</ele>
        <time>2019-10-31T17:50:33Z</time>
      </trkpt>
      <trkpt lat="43.62022" lon="2.42214">
        <ele>563.121</ele>
        <time>2019-10-31T17:50:13Z</time>
      </trkpt>
      <trkpt lat="43.62033" lon="2.42263">
        <ele>556.115</ele>
        <time>2019-10-31T17:49:53Z</time>
      </trkpt>
      <trkpt lat="43.62056" lon="2.42254">
        <ele>546.108</ele>
        <time>2019-10-31T17:49:33Z</time>
      </trkpt>
      <trkpt lat="43.62087" lon="2.42216">
        <ele>534.72</ele>
        <time>2019-10-31T17:49:13Z</time>
      </trkpt>
      <trkpt lat="43.62115" lon="2.42287">
        <ele>526.573</ele>
        <time>2019-10-31T17:48:53Z</time>
      </trkpt>
      <trkpt lat="43.62148" lon="2.42287">
        <ele>530.392</ele>
        <time>2019-10-31T17:48:33Z</time>
      </trkpt>
      <trkpt lat="43.62179" lon="2.42182">
        <ele>545.186</ele>
        <time>2019-10-31T17:48:13Z</time>
      </trkpt>
      <trkpt lat="43.62185" lon="2.42068">
        <ele>549.117</ele>
        <time>2019-10-31T17:47:53Z</time>
      </trkpt>
      <trkpt lat="43.6221" lon="2.42018">
        <ele>554.051</ele>
        <time>2019-10-31T17:47:33Z</time>
      </trkpt>
      <trkpt lat="43.62235" lon="2.42016">
        <ele>562.949</ele>
        <time>2019-10-31T17:47:13Z</time>
      </trkpt>
      <trkpt lat="43.62229" lon="2.4195">
        <ele>565.243</ele>
        <time>2019-10-31T17:46:53Z</time>
      </trkpt>
      <trkpt lat="43.62244" lon="2.41903">
        <ele>573.83</ele>
        <time>2019-10-31T17:46:33Z</time>
      </trkpt>
      <trkpt lat="43.62285" lon="2.41881">
        <ele>582.575</ele>
        <time>2019-10-31T17:46:13Z</time>
      </trkpt>
      <trkpt lat="43.62277" lon="2.41952">
        <ele>588.649</ele>
        <time>2019-10-31T17:45:53Z</time>
      </trkpt>
      <trkpt lat="43.62316" lon="2.41911">
        <ele>597.008</ele>
        <time>2019-10-31T17:45:33Z</time>
      </trkpt>
      <trkpt lat="43.62383" lon="2.41838">
        <ele>608.621</ele>
        <time>2019-10-31T17:45:13Z</time>
      </trkpt>
      <trkpt lat="43.62381" lon="2.41772">
        <ele>609.101</ele>
        <time>2019-10-31T17:44:53Z</time>
      </trkpt>
      <trkpt lat="43.62407" lon="2.41664">
        <ele>610.039</ele>
        <time>2019-10-31T17:44:33Z</time>
      </trkpt>
      <trkpt lat="43.62487" lon="2.41495">
        <ele>624.419</ele>
        <time>2019-10-31T17:44:13Z</time>
      </trkpt>
      <trkpt lat="43.62541" lon="2.41345">
        <ele>636.46</ele>
        <time>2019-10-31T17:43:53Z</time>
      </trkpt>
      <trkpt lat="43.62572" lon="2.41229">
        <ele>636.254</ele>
        <time>2019-10-31T17:43:33Z</time>
      </trkpt>
      <trkpt lat="43.6269" lon="2.41184">
        <ele>635.572</ele>
        <time>2019-10-31T17:43:13Z</time>
      </trkpt>
      <trkpt lat="43.62721" lon="2.41201">
        <ele>642.946</ele>
        <time>2019-10-31T17:42:53Z</time>
      </trkpt>
      <trkpt lat="43.62751" lon="2.41139">
        <ele>640.123</ele>
        <time>2019-10-31T17:42:33Z</time>
      </trkpt>
      <trkpt lat="43.62757" lon="2.41057">
        <ele>644.198</ele>
        <time>2019-10-31T17:42:13Z</time>
      </trkpt>
      <trkpt lat="43.62869" lon="2.41051">
        <ele>645.222</ele>
        <time>2019-10-31T17:41:53Z</time>
      </trkpt>
      <trkpt lat="43.62859" lon="2.41143">
        <ele>644.208</ele>
        <time>2019-10-31T17:41:33Z</time>
      </trkpt>
      <trkpt lat="43.63008" lon="2.41192">
        <ele>648.321</ele>
        <time>2019-10-31T17:41:13Z</time>
      </trkpt>
      <trkpt lat="43.63213" lon="2.41227">
        <ele>653.429</ele>
        <time>2019-10-31T17:40:53Z</time>
      </trkpt>
      <trkpt lat="43.63293" lon="2.41209">
        <ele>650.466</ele>
        <time>2019-10-31T17:40:33Z</time>
      </trkpt>
      <trkpt lat="43.63398" lon="2.41276">
        <ele>655.429</ele>
        <time>2019-10-31T17:40:13Z</time>
      </trkpt>
      <trkpt lat="43.63442" lon="2.41282">
        <ele>659.79</ele>
        <time>2019-10-31T17:39:53Z</time>
      </trkpt>
      <trkpt lat="43.6349" lon="2.41257">
        <ele>659.044</ele>
        <time>2019-10-31T17:39:33Z</time>
      </trkpt>
      <trkpt lat="43.6354" lon="2.41184">
        <ele>661.522</ele>
        <time>2019-10-31T17:39:13Z</time>
      </trkpt>
      <trkpt lat="43.63696" lon="2.41156">
        <ele>660.066</ele>
        <time>2019-10-31T17:38:53Z</time>
      </trkpt>
      <trkpt lat="43.63788" lon="2.41156">
        <ele>660.043</ele>
        <time>2019-10-31T17:38:33Z</time>
      </trkpt>
      <trkpt lat="43.63861" lon="2.411">
        <ele>661.018</ele>
        <time>2019-10-31T17:38:13Z</time>
      </trkpt>
      <trkpt lat="43.63872" lon="2.41041">
        <ele>662.632</ele>
        <time>2019-10-31T17:37:53Z</time>
      </trkpt>
      <trkpt lat="43.63875" lon="2.40965">
        <ele>668.008</ele>
        <time>2019-10-31T17:37:33Z</time>
      </trkpt>
      <trkpt lat="43.63852" lon="2.40909">
        <ele>668.716</ele>
        <time>2019-10-31T17:37:13Z</time>
      </trkpt>
      <trkpt lat="43.6386" lon="2.40866">
        <ele>670.906</ele>
        <time>2019-10-31T17:36:53Z</time>
      </trkpt>
      <trkpt lat="43.63836" lon="2.40834">
        <ele>670.064</ele>
        <time>2019-10-31T17:36:33Z</time>
      </trkpt>
      <trkpt lat="43.63813" lon="2.40778">
        <ele>662.826</ele>
        <time>2019-10-31T17:36:13Z</time>
      </trkpt>
      <trkpt lat="43.63796" lon="2.40729">
        <ele>655.127</ele>
        <time>2019-10-31T17:35:53Z</time>
      </trkpt>
      <trkpt lat="43.63818" lon="2.40729">
        <ele>658.571</ele>
        <time>2019-10-31T17:35:33Z</time>
      </trkpt>
      <trkpt lat="43.63822" lon="2.40695">
        <ele>653.499</ele>
        <time>2019-10-31T17:35:13Z</time>
      </trkpt>
      <trkpt lat="43.63881" lon="2.40619">
        <ele>647.453</ele>
        <time>2019-10-31T17:34:53Z</time>
      </trkpt>
      <trkpt lat="43.63864" lon="2.4054">
        <ele>650.43</ele>
        <time>2019-10-31T17:34:33Z</time>
      </trkpt>
      <trkpt lat="43.63909" lon="2.40501">
        <ele>659.075</ele>
        <time>2019-10-31T17:34:13Z</time>
      </trkpt>
      <trkpt lat="43.63878" lon="2.40446">
        <ele>661.359</ele>
        <time>2019-10-31T17:33:53Z</time>
      </trkpt>
      <trkpt lat="43.63884" lon="2.40325">
        <ele>663.708</ele>
        <time>2019-10-31T17:33:33Z</time>
      </trkpt>
      <trkpt lat="43.63923" lon="2.4016">
        <ele>659.713</ele>
        <time>2016-06-10T14:51:20Z</time>
      </trkpt>
      <trkpt lat="43.63982" lon="2.40055">
        <ele>660.449</ele>
        <time>2016-06-10T14:48:00Z</time>
      </trkpt>
      <trkpt lat="43.64019" lon="2.40027">
        <ele>660.637</ele>
        <time>2016-06-10T14:47:00Z</time>
      </trkpt>
      <trkpt lat="43.64096" lon="2.39993">
        <ele>656.589</ele>
        <time>2016-06-10T14:46:20Z</time>
      </trkpt>
      <trkpt lat="43.64116" lon="2.3995">
        <ele>656.74</ele>
        <time>2016-06-10T14:45:40Z</time>
      </trkpt>
      <trkpt lat="43.64131" lon="2.39939">
        <ele>657.814</ele>
        <time>2016-06-10T14:45:20Z</time>
      </trkpt>
      <trkpt lat="43.64172" lon="2.39866">
        <ele>656.552</ele>
        <time>2016-06-10T14:44:40Z</time>
      </trkpt>
      <trkpt lat="43.64178" lon="2.39722">
        <ele>651.026</ele>
        <time>2016-06-10T14:42:00Z</time>
      </trkpt>
      <trkpt lat="43.64203" lon="2.39647">
        <ele>649.853</ele>
        <time>2016-06-10T14:41:40Z</time>
      </trkpt>
      <trkpt lat="43.64232" lon="2.39572">
        <ele>651.368</ele>
        <time>2016-06-10T14:41:20Z</time>
      </trkpt>
      <trkpt lat="43.64237" lon="2.39506">
        <ele>652.332</ele>
        <time>2016-06-10T14:41:00Z</time>
      </trkpt>
      <trkpt lat="43.64288" lon="2.39413">
        <ele>641.108</ele>
        <time>2016-06-10T14:40:40Z</time>
      </trkpt>
      <trkpt lat="43.64314" lon="2.39394">
        <ele>637.719</ele>
        <time>2016-06-10T14:40:20Z</time>
      </trkpt>
      <trkpt lat="43.64324" lon="2.39364">
        <ele>635.581</ele>
        <time>2016-06-10T14:40:00Z</time>
      </trkpt>
      <trkpt lat="43.64373" lon="2.39343">
        <ele>635.167</ele>
        <time>2016-06-10T14:39:40Z</time>
      </trkpt>
      <trkpt lat="43.64422" lon="2.39205">
        <ele>629.57</ele>
        <time>2016-06-10T14:39:20Z</time>
      </trkpt>
      <trkpt lat="43.64451" lon="2.39165">
        <ele>627.321</ele>
        <time>2016-06-10T14:39:00Z</time>
      </trkpt>
      <trkpt lat="43.64487" lon="2.39105">
        <ele>621.775</ele>
        <time>2016-06-10T14:38:40Z</time>
      </trkpt>
      <trkpt lat="43.64538" lon="2.39102">
        <ele>623.263</ele>
        <time>2016-06-10T14:37:20Z</time>
      </trkpt>
      <trkpt lat="43.64561" lon="2.39077">
        <ele>623.857</ele>
        <time>2016-06-10T14:37:00Z</time>
      </trkpt>
      <trkpt lat="43.64561" lon="2.39077">
        <ele>623.864</ele>
        <time>2016-06-10T14:35:20Z</time>
      </trkpt>
      <trkpt lat="43.64568" lon="2.38886">
        <ele>608.819</ele>
        <time>2016-06-10T14:35:00Z</time>
      </trkpt>
      <trkpt lat="43.64575" lon="2.38744">
        <ele>603.893</ele>
        <time>2016-06-10T14:34:40Z</time>
      </trkpt>
      <trkpt lat="43.64618" lon="2.38636">
        <ele>601.608</ele>
        <time>2016-06-10T14:34:20Z</time>
      </trkpt>
      <trkpt lat="43.64653" lon="2.38608">
        <ele>600.325</ele>
        <time>2016-06-10T14:33:00Z</time>
      </trkpt>
      <trkpt lat="43.64722" lon="2.38613">
        <ele>599.305</ele>
        <time>2016-06-10T14:32:40Z</time>
      </trkpt>
      <trkpt lat="43.6479" lon="2.38587">
        <ele>599.079</ele>
        <time>2016-06-10T14:32:20Z</time>
      </trkpt>
      <trkpt lat="43.64838" lon="2.38529">
        <ele>599.069</ele>
        <time>2016-06-10T14:32:00Z</time>
      </trkpt>
      <trkpt lat="43.64881" lon="2.38628">
        <ele>598.74</ele>
        <time>2016-06-10T14:30:40Z</time>
      </trkpt>
      <trkpt lat="43.64894" lon="2.38727">
        <ele>599.054</ele>
        <time>2016-06-10T14:30:20Z</time>
      </trkpt>
      <trkpt lat="43.64945" lon="2.38813">
        <ele>607.782</ele>
        <time>2016-06-10T14:30:00Z</time>
      </trkpt>
      <trkpt lat="43.6494" lon="2.38939">
        <ele>615.556</ele>
        <time>2016-06-10T14:29:40Z</time>
      </trkpt>
      <trkpt lat="43.64957" lon="2.39008">
        <ele>616.683</ele>
        <time>2016-06-10T14:29:20Z</time>
      </trkpt>
      <trkpt lat="43.64979" lon="2.39049">
        <ele>617.068</ele>
        <time>2016-06-10T14:29:00Z</time>
      </trkpt>
      <trkpt lat="43.6499" lon="2.39115">
        <ele>618.732</ele>
        <time>2016-06-10T14:28:40Z</time>
      </trkpt>
      <trkpt lat="43.6499" lon="2.39115">
        <ele>618.708</ele>
        <time>2016-06-10T14:28:20Z</time>
      </trkpt>
      <trkpt lat="43.65032" lon="2.39135">
        <ele>617.018</ele>
        <time>2016-06-10T14:28:00Z</time>
      </trkpt>
      <trkpt lat="43.65041" lon="2.39159">
        <ele>618.944</ele>
        <time>2016-06-10T14:27:40Z</time>
      </trkpt>
      <trkpt lat="43.6506" lon="2.39158">
        <ele>620.863</ele>
        <time>2016-06-10T14:27:20Z</time>
      </trkpt>
      <trkpt lat="43.65094" lon="2.39122">
        <ele>622.996</ele>
        <time>2016-06-10T14:27:00Z</time>
      </trkpt>
      <trkpt lat="43.65151" lon="2.39126">
        <ele>632.267</ele>
        <time>2016-06-10T14:26:40Z</time>
      </trkpt>
      <trkpt lat="43.65134" lon="2.39306">
        <ele>642.071</ele>
        <time>2016-06-10T14:26:20Z</time>
      </trkpt>
      <trkpt lat="43.65159" lon="2.39373">
        <ele>641.779</ele>
        <time>2016-06-10T14:26:00Z</time>
      </trkpt>
      <trkpt lat="43.65159" lon="2.39429">
        <ele>641.923</ele>
        <time>2016-06-10T14:25:40Z</time>
      </trkpt>
      <trkpt lat="43.65189" lon="2.39508">
        <ele>640.48</ele>
        <time>2016-06-10T14:25:20Z</time>
      </trkpt>
      <trkpt lat="43.65232" lon="2.39542">
        <ele>641.455</ele>
        <time>2016-06-10T14:25:00Z</time>
      </trkpt>
      <trkpt lat="43.65293" lon="2.39596">
        <ele>644.399</ele>
        <time>2016-06-10T14:24:40Z</time>
      </trkpt>
      <trkpt lat="43.65319" lon="2.39667">
        <ele>647.008</ele>
        <time>2016-06-10T14:24:20Z</time>
      </trkpt>
      <trkpt lat="43.65322" lon="2.39761">
        <ele>650.017</ele>
        <time>2016-06-10T14:24:00Z</time>
      </trkpt>
      <trkpt lat="43.65378" lon="2.39789">
        <ele>650.67</ele>
        <time>2016-06-10T14:23:40Z</time>
      </trkpt>
      <trkpt lat="43.65457" lon="2.39963">
        <ele>660.438</ele>
        <time>2016-06-10T14:23:20Z</time>
      </trkpt>
      <trkpt lat="43.65457" lon="2.40096">
        <ele>664.994</ele>
        <time>2016-06-10T14:23:00Z</time>
      </trkpt>
      <trkpt lat="43.65508" lon="2.40137">
        <ele>670.055</ele>
        <time>2016-06-10T14:22:40Z</time>
      </trkpt>
      <trkpt lat="43.65533" lon="2.40171">
        <ele>670.039</ele>
        <time>2016-06-10T14:22:20Z</time>
      </trkpt>
      <trkpt lat="43.65553" lon="2.40233">
        <ele>670.017</ele>
        <time>2016-06-10T14:22:00Z</time>
      </trkpt>
      <trkpt lat="43.65577" lon="2.40263">
        <ele>668.491</ele>
        <time>2016-06-10T14:21:40Z</time>
      </trkpt>
      <trkpt lat="43.65619" lon="2.40291">
        <ele>665.138</ele>
        <time>2016-06-10T14:21:20Z</time>
      </trkpt>
      <trkpt lat="43.65639" lon="2.40319">
        <ele>662.523</ele>
        <time>2016-06-10T14:21:00Z</time>
      </trkpt>
      <trkpt lat="43.65715" lon="2.40355">
        <ele>661.057</ele>
        <time>2016-06-10T14:20:40Z</time>
      </trkpt>
      <trkpt lat="43.65758" lon="2.40424">
        <ele>660.108</ele>
        <time>2016-06-10T14:20:20Z</time>
      </trkpt>
      <trkpt lat="43.65786" lon="2.40443">
        <ele>661.909</ele>
        <time>2016-06-10T14:20:00Z</time>
      </trkpt>
      <trkpt lat="43.65817" lon="2.40476">
        <ele>667.654</ele>
        <time>2016-06-10T14:19:40Z</time>
      </trkpt>
      <trkpt lat="43.6587" lon="2.40501">
        <ele>670.014</ele>
        <time>2016-06-10T14:19:20Z</time>
      </trkpt>
      <trkpt lat="43.6592" lon="2.40497">
        <ele>670.085</ele>
        <time>2016-06-10T14:19:00Z</time>
      </trkpt>
      <trkpt lat="43.6594" lon="2.40437">
        <ele>670.086</ele>
        <time>2016-06-10T14:18:40Z</time>
      </trkpt>
      <trkpt lat="43.66016" lon="2.40338">
        <ele>670.05</ele>
        <time>2016-06-10T14:18:20Z</time>
      </trkpt>
      <trkpt lat="43.66084" lon="2.40272">
        <ele>670.098</ele>
        <time>2016-06-10T14:18:00Z</time>
      </trkpt>
      <trkpt lat="43.66126" lon="2.40257">
        <ele>668.792</ele>
        <time>2016-06-10T14:17:40Z</time>
      </trkpt>
      <trkpt lat="43.66201" lon="2.40197">
        <ele>668.459</ele>
        <time>2016-06-10T14:17:20Z</time>
      </trkpt>
      <trkpt lat="43.66251" lon="2.40096">
        <ele>667.954</ele>
        <time>2016-06-10T14:17:00Z</time>
      </trkpt>
      <trkpt lat="43.66314" lon="2.39905">
        <ele>664.948</ele>
        <time>2016-06-10T14:16:20Z</time>
      </trkpt>
      <trkpt lat="43.66337" lon="2.39783">
        <ele>660.308</ele>
        <time>2016-06-10T14:16:00Z</time>
      </trkpt>
      <trkpt lat="43.66355" lon="2.39761">
        <ele>660.214</ele>
        <time>2016-06-10T14:15:40Z</time>
      </trkpt>
      <trkpt lat="43.66361" lon="2.39722">
        <ele>659.068</ele>
        <time>2016-06-10T14:15:20Z</time>
      </trkpt>
      <trkpt lat="43.6635" lon="2.39673">
        <ele>659.227</ele>
        <time>2016-06-10T14:15:00Z</time>
      </trkpt>
      <trkpt lat="43.6637" lon="2.39598">
        <ele>659.715</ele>
        <time>2016-06-10T14:14:40Z</time>
      </trkpt>
      <trkpt lat="43.66413" lon="2.39564">
        <ele>660.066</ele>
        <time>2016-06-10T14:14:20Z</time>
      </trkpt>
      <trkpt lat="43.66443" lon="2.39482">
        <ele>659.19</ele>
        <time>2016-06-10T14:14:00Z</time>
      </trkpt>
      <trkpt lat="43.66449" lon="2.39416">
        <ele>655.698</ele>
        <time>2016-06-10T14:13:40Z</time>
      </trkpt>
      <trkpt lat="43.66477" lon="2.39396">
        <ele>652.782</ele>
        <time>2016-06-10T14:13:20Z</time>
      </trkpt>
      <trkpt lat="43.66544" lon="2.39298">
        <ele>650.079</ele>
        <time>2016-06-10T14:13:00Z</time>
      </trkpt>
      <trkpt lat="43.66575" lon="2.3931">
        <ele>650.124</ele>
        <time>2016-06-10T14:12:40Z</time>
      </trkpt>
      <trkpt lat="43.66592" lon="2.39347">
        <ele>651.438</ele>
        <time>2016-06-10T14:12:20Z</time>
      </trkpt>
      <trkpt lat="43.66646" lon="2.39338">
        <ele>658.108</ele>
        <time>2016-06-10T14:12:00Z</time>
      </trkpt>
      <trkpt lat="43.66677" lon="2.39259">
        <ele>657.611</ele>
        <time>2016-06-10T14:11:40Z</time>
      </trkpt>
      <trkpt lat="43.66735" lon="2.39244">
        <ele>652.347</ele>
        <time>2016-06-10T14:11:20Z</time>
      </trkpt>
      <trkpt lat="43.66747" lon="2.3919">
        <ele>651.726</ele>
        <time>2016-06-10T14:11:00Z</time>
      </trkpt>
      <trkpt lat="43.66786" lon="2.39126">
        <ele>656.859</ele>
        <time>2016-06-10T14:10:40Z</time>
      </trkpt>
      <trkpt lat="43.66788" lon="2.39051">
        <ele>657.39</ele>
        <time>2016-06-10T14:10:20Z</time>
      </trkpt>
      <trkpt lat="43.6682" lon="2.38956">
        <ele>659.454</ele>
        <time>2016-06-10T14:10:00Z</time>
      </trkpt>
      <trkpt lat="43.66859" lon="2.38929">
        <ele>657.032</ele>
        <time>2016-06-10T14:09:40Z</time>
      </trkpt>
      <trkpt lat="43.66906" lon="2.3895">
        <ele>652.496</ele>
        <time>2016-06-10T14:09:20Z</time>
      </trkpt>
      <trkpt lat="43.66963" lon="2.38828">
        <ele>629.583</ele>
        <time>2016-06-10T14:09:00Z</time>
      </trkpt>
      <trkpt lat="43.66988" lon="2.38813">
        <ele>623.198</ele>
        <time>2016-06-10T14:08:40Z</time>
      </trkpt>
      <trkpt lat="43.67034" lon="2.38823">
        <ele>604.432</ele>
        <time>2016-06-10T14:08:20Z</time>
      </trkpt>
      <trkpt lat="43.67034" lon="2.3878">
        <ele>605.408</ele>
        <time>2016-06-10T14:08:00Z</time>
      </trkpt>
      <trkpt lat="43.67072" lon="2.38735">
        <ele>592.013</ele>
        <time>2016-06-10T14:07:40Z</time>
      </trkpt>
      <trkpt lat="43.67104" lon="2.38755">
        <ele>582.121</ele>
        <time>2016-06-10T14:07:20Z</time>
      </trkpt>
      <trkpt lat="43.67165" lon="2.38643">
        <ele>560.461</ele>
        <time>2016-06-10T14:07:00Z</time>
      </trkpt>
      <trkpt lat="43.67191" lon="2.38544">
        <ele>546.689</ele>
        <time>2016-06-10T14:06:40Z</time>
      </trkpt>
      <trkpt lat="43.67236" lon="2.38446">
        <ele>539.42</ele>
        <time>2016-06-10T14:06:20Z</time>
      </trkpt>
      <trkpt lat="43.6734" lon="2.38353">
        <ele>532.284</ele>
        <time>2016-06-10T14:06:00Z</time>
      </trkpt>
      <trkpt lat="43.67418" lon="2.38341">
        <ele>515.812</ele>
        <time>2016-06-10T14:05:40Z</time>
      </trkpt>
      <trkpt lat="43.67533" lon="2.38156">
        <ele>476.926</ele>
        <time>2016-06-10T14:05:20Z</time>
      </trkpt>
      <trkpt lat="43.67568" lon="2.38197">
        <ele>470.643</ele>
        <time>2016-06-10T14:05:00Z</time>
      </trkpt>
      <trkpt lat="43.67534" lon="2.38266">
        <ele>475.748</ele>
        <time>2016-06-10T14:04:40Z</time>
      </trkpt>
      <trkpt lat="43.67606" lon="2.38218">
        <ele>458.182</ele>
        <time>2016-06-10T14:03:20Z</time>
      </trkpt>
      <trkpt lat="43.67646" lon="2.38214">
        <ele>448.008</ele>
        <time>2016-06-10T14:03:00Z</time>
      </trkpt>
      <trkpt lat="43.67781" lon="2.38216">
        <ele>420.721</ele>
        <time>2016-06-10T14:02:40Z</time>
      </trkpt>
      <trkpt lat="43.67796" lon="2.38169">
        <ele>419.129</ele>
        <time>2016-06-10T14:02:20Z</time>
      </trkpt>
      <trkpt lat="43.67776" lon="2.38085">
        <ele>409.366</ele>
        <time>2016-06-10T14:02:00Z</time>
      </trkpt>
      <trkpt lat="43.67744" lon="2.38032">
        <ele>408.581</ele>
        <time>2016-06-10T14:01:40Z</time>
      </trkpt>
      <trkpt lat="43.67723" lon="2.37954">
        <ele>392.812</ele>
        <time>2016-06-10T14:01:20Z</time>
      </trkpt>
      <trkpt lat="43.67668" lon="2.37918">
        <ele>391.386</ele>
        <time>2016-06-10T14:01:00Z</time>
      </trkpt>
      <trkpt lat="43.67619" lon="2.37871">
        <ele>378.834</ele>
        <time>2016-06-10T14:00:40Z</time>
      </trkpt>
      <trkpt lat="43.67562" lon="2.37871">
        <ele>380.168</ele>
        <time>2016-06-10T14:00:20Z</time>
      </trkpt>
      <trkpt lat="43.67542" lon="2.37808">
        <ele>363.325</ele>
        <time>2016-06-10T14:00:00Z</time>
      </trkpt>
      <trkpt lat="43.67499" lon="2.37601">
        <ele>338.87</ele>
        <time>2016-06-10T13:59:40Z</time>
      </trkpt>
      <trkpt lat="43.67492" lon="2.37469">
        <ele>322.164</ele>
        <time>2016-06-10T13:59:20Z</time>
      </trkpt>
      <trkpt lat="43.67457" lon="2.37405">
        <ele>320.708</ele>
        <time>2016-06-10T13:59:00Z</time>
      </trkpt>
      <trkpt lat="43.67486" lon="2.37377">
        <ele>311.917</ele>
        <time>2016-06-10T13:58:40Z</time>
      </trkpt>
      <trkpt lat="43.67536" lon="2.37523">
        <ele>306.607</ele>
        <time>2016-06-10T13:58:20Z</time>
      </trkpt>
      <trkpt lat="43.67601" lon="2.37615">
        <ele>292.484</ele>
        <time>2016-06-10T13:58:00Z</time>
      </trkpt>
      <trkpt lat="43.67624" lon="2.37682">
        <ele>296.03</ele>
        <time>2016-06-10T13:57:40Z</time>
      </trkpt>
      <trkpt lat="43.67691" lon="2.37671">
        <ele>282.261</ele>
        <time>2016-06-10T13:57:20Z</time>
      </trkpt>
      <trkpt lat="43.67751" lon="2.37718">
        <ele>276.695</ele>
        <time>2016-06-10T13:57:00Z</time>
      </trkpt>
      <trkpt lat="43.67826" lon="2.37751">
        <ele>269.873</ele>
        <time>2016-06-10T13:56:40Z</time>
      </trkpt>
      <trkpt lat="43.67893" lon="2.3777">
        <ele>259.827</ele>
        <time>2016-06-10T13:56:20Z</time>
      </trkpt>
      <trkpt lat="43.6793" lon="2.37793">
        <ele>254.784</ele>
        <time>2016-06-10T13:56:00Z</time>
      </trkpt>
      <trkpt lat="43.68014" lon="2.37995">
        <ele>265.539</ele>
        <time>2016-06-10T13:55:40Z</time>
      </trkpt>
      <trkpt lat="43.68097" lon="2.38102">
        <ele>262.883</ele>
        <time>2016-06-10T13:55:20Z</time>
      </trkpt>
      <trkpt lat="43.6818" lon="2.38173">
        <ele>262.408</ele>
        <time>2016-06-10T13:55:00Z</time>
      </trkpt>
      <trkpt lat="43.68206" lon="2.38195">
        <ele>262.62</ele>
        <time>2016-06-10T13:54:40Z</time>
      </trkpt>
      <trkpt lat="43.68273" lon="2.38278">
        <ele>270.728</ele>
        <time>2016-06-10T13:54:20Z</time>
      </trkpt>
      <trkpt lat="43.68278" lon="2.38327">
        <ele>273.075</ele>
        <time>2016-06-10T13:54:00Z</time>
      </trkpt>
      <trkpt lat="43.68213" lon="2.38439">
        <ele>269.15</ele>
        <time>2016-06-10T13:53:40Z</time>
      </trkpt>
      <trkpt lat="43.68127" lon="2.38495">
        <ele>265.511</ele>
        <time>2016-06-10T13:53:20Z</time>
      </trkpt>
      <trkpt lat="43.67891" lon="2.38521">
        <ele>271.125</ele>
        <time>2016-06-10T13:53:00Z</time>
      </trkpt>
      <trkpt lat="43.67806" lon="2.38592">
        <ele>275.413</ele>
        <time>2016-06-10T13:52:40Z</time>
      </trkpt>
      <trkpt lat="43.67775" lon="2.38665">
        <ele>275.127</ele>
        <time>2016-06-10T13:52:20Z</time>
      </trkpt>
      <trkpt lat="43.67762" lon="2.38748">
        <ele>271.484</ele>
        <time>2016-06-10T13:52:00Z</time>
      </trkpt>
      <trkpt lat="43.67854" lon="2.39098">
        <ele>272.489</ele>
        <time>2016-06-10T13:51:40Z</time>
      </trkpt>
      <trkpt lat="43.67858" lon="2.39188">
        <ele>271.283</ele>
        <time>2016-06-10T13:51:20Z</time>
      </trkpt>
      <trkpt lat="43.67826" lon="2.39319">
        <ele>279.708</ele>
        <time>2016-06-10T13:51:00Z</time>
      </trkpt>
      <trkpt lat="43.67813" lon="2.39529">
        <ele>284.625</ele>
        <time>2016-06-10T13:50:40Z</time>
      </trkpt>
      <trkpt lat="43.67821" lon="2.39626">
        <ele>284.005</ele>
        <time>2016-06-10T13:50:20Z</time>
      </trkpt>
      <trkpt lat="43.67846" lon="2.39669">
        <ele>284.479</ele>
        <time>2016-06-10T13:50:00Z</time>
      </trkpt>
      <trkpt lat="43.67967" lon="2.39789">
        <ele>282.159</ele>
        <time>2016-06-10T13:49:40Z</time>
      </trkpt>
      <trkpt lat="43.68029" lon="2.39894">
        <ele>291.24</ele>
        <time>2016-06-10T13:49:20Z</time>
      </trkpt>
      <trkpt lat="43.68094" lon="2.40027">
        <ele>284.834</ele>
        <time>2016-06-10T13:49:00Z</time>
      </trkpt>
      <trkpt lat="43.68104" lon="2.40107">
        <ele>283.662</ele>
        <time>2016-06-10T13:48:40Z</time>
      </trkpt>
      <trkpt lat="43.68074" lon="2.40283">
        <ele>297.236</ele>
        <time>2016-06-10T13:48:20Z</time>
      </trkpt>
      <trkpt lat="43.67992" lon="2.40389">
        <ele>305.563</ele>
        <time>2016-06-10T13:48:00Z</time>
      </trkpt>
      <trkpt lat="43.6798" lon="2.40428">
        <ele>320.228</ele>
        <time>2016-06-10T13:47:40Z</time>
      </trkpt>
      <trkpt lat="43.68093" lon="2.403">
        <ele>302.652</ele>
        <time>2016-06-10T13:47:20Z</time>
      </trkpt>
      <trkpt lat="43.68164" lon="2.40306">
        <ele>310.108</ele>
        <time>2016-06-10T13:47:00Z</time>
      </trkpt>
      <trkpt lat="43.68212" lon="2.40268">
        <ele>316.613</ele>
        <time>2016-06-10T13:46:40Z</time>
      </trkpt>
      <trkpt lat="43.68245" lon="2.40162">
        <ele>315.921</ele>
        <time>2016-06-10T13:46:20Z</time>
      </trkpt>
      <trkpt lat="43.68243" lon="2.40062">
        <ele>328.761</ele>
        <time>2016-06-10T13:46:00Z</time>
      </trkpt>
      <trkpt lat="43.68211" lon="2.39984">
        <ele>309.385</ele>
        <time>2016-06-10T13:45:40Z</time>
      </trkpt>
      <trkpt lat="43.68273" lon="2.39941">
        <ele>306.026</ele>
        <time>2016-06-10T13:45:20Z</time>
      </trkpt>
      <trkpt lat="43.68324" lon="2.39969">
        <ele>316.36</ele>
        <time>2016-06-10T13:45:00Z</time>
      </trkpt>
      <trkpt lat="43.68414" lon="2.39965">
        <ele>305.968</ele>
        <time>2016-06-10T13:44:40Z</time>
      </trkpt>
      <trkpt lat="43.68448" lon="2.39997">
        <ele>304.542</ele>
        <time>2016-06-10T13:44:20Z</time>
      </trkpt>
      <trkpt lat="43.68456" lon="2.40079">
        <ele>315.299</ele>
        <time>2016-06-10T13:44:00Z</time>
      </trkpt>
      <trkpt lat="43.68484" lon="2.40115">
        <ele>314.974</ele>
        <time>2016-06-10T13:43:40Z</time>
      </trkpt>
      <trkpt lat="43.68544" lon="2.40124">
        <ele>303.618</ele>
        <time>2016-06-10T13:43:20Z</time>
      </trkpt>
      <trkpt lat="43.68575" lon="2.40164">
        <ele>306.808</ele>
        <time>2016-06-10T13:43:00Z</time>
      </trkpt>
      <trkpt lat="43.68612" lon="2.40197">
        <ele>305.717</ele>
        <time>2016-06-10T13:42:40Z</time>
      </trkpt>
      <trkpt lat="43.68653" lon="2.40207">
        <ele>300.389</ele>
        <time>2016-06-10T13:42:20Z</time>
      </trkpt>
      <trkpt lat="43.68661" lon="2.4028">
        <ele>306.728</ele>
        <time>2016-06-10T13:42:00Z</time>
      </trkpt>
      <trkpt lat="43.687" lon="2.40355">
        <ele>300.16</ele>
        <time>2016-06-10T13:41:40Z</time>
      </trkpt>
      <trkpt lat="43.68709" lon="2.40467">
        <ele>307.041</ele>
        <time>2016-06-10T13:41:20Z</time>
      </trkpt>
      <trkpt lat="43.68738" lon="2.40493">
        <ele>306.065</ele>
        <time>2016-06-10T13:41:00Z</time>
      </trkpt>
      <trkpt lat="43.68802" lon="2.40489">
        <ele>305.543</ele>
        <time>2016-06-10T13:40:40Z</time>
      </trkpt>
      <trkpt lat="43.68825" lon="2.40443">
        <ele>308.687</ele>
        <time>2016-06-10T13:40:20Z</time>
      </trkpt>
      <trkpt lat="43.68831" lon="2.40304">
        <ele>300.764</ele>
        <time>2016-06-10T13:40:00Z</time>
      </trkpt>
      <trkpt lat="43.68858" lon="2.40287">
        <ele>303.589</ele>
        <time>2016-06-10T13:39:40Z</time>
      </trkpt>
      <trkpt lat="43.68923" lon="2.40351">
        <ele>309.433</ele>
        <time>2016-06-10T13:39:20Z</time>
      </trkpt>
      <trkpt lat="43.68966" lon="2.40355">
        <ele>306.008</ele>
        <time>2016-06-10T13:39:00Z</time>
      </trkpt>
      <trkpt lat="43.69018" lon="2.4031">
        <ele>304.714</ele>
        <time>2016-06-10T13:38:40Z</time>
      </trkpt>
      <trkpt lat="43.69018" lon="2.40237">
        <ele>320.513</ele>
        <time>2016-06-10T13:38:20Z</time>
      </trkpt>
      <trkpt lat="43.69061" lon="2.40173">
        <ele>315.572</ele>
        <time>2016-06-10T13:38:00Z</time>
      </trkpt>
      <trkpt lat="43.69083" lon="2.40096">
        <ele>316.067</ele>
        <time>2016-06-10T13:37:40Z</time>
      </trkpt>
      <trkpt lat="43.69052" lon="2.40081">
        <ele>336.288</ele>
        <time>2016-06-10T13:37:20Z</time>
      </trkpt>
      <trkpt lat="43.69058" lon="2.40059">
        <ele>335.222</ele>
        <time>2016-06-10T13:37:00Z</time>
      </trkpt>
      <trkpt lat="43.69053" lon="2.39995">
        <ele>342.52</ele>
        <time>2016-06-10T13:36:40Z</time>
      </trkpt>
      <trkpt lat="43.69033" lon="2.40016">
        <ele>349.484</ele>
        <time>2016-06-10T13:36:20Z</time>
      </trkpt>
      <trkpt lat="43.68993" lon="2.40152">
        <ele>354.741</ele>
        <time>2016-06-10T13:36:00Z</time>
      </trkpt>
      <trkpt lat="43.68954" lon="2.4013">
        <ele>367.146</ele>
        <time>2016-06-10T13:35:40Z</time>
      </trkpt>
      <trkpt lat="43.68951" lon="2.4007">
        <ele>380.42</ele>
        <time>2016-06-10T13:35:20Z</time>
      </trkpt>
      <trkpt lat="43.68914" lon="2.40053">
        <ele>389.508</ele>
        <time>2016-06-10T13:35:00Z</time>
      </trkpt>
      <trkpt lat="43.68918" lon="2.3986">
        <ele>401.409</ele>
        <time>2016-06-10T13:34:40Z</time>
      </trkpt>
      <trkpt lat="43.68895" lon="2.39804">
        <ele>415.781</ele>
        <time>2016-06-10T13:34:20Z</time>
      </trkpt>
      <trkpt lat="43.68904" lon="2.39768">
        <ele>423.641</ele>
        <time>2016-06-10T13:32:40Z</time>
      </trkpt>
      <trkpt lat="43.68987" lon="2.39744">
        <ele>427.381</ele>
        <time>2016-06-10T13:32:20Z</time>
      </trkpt>
      <trkpt lat="43.69046" lon="2.39643">
        <ele>437.822</ele>
        <time>2016-06-10T13:32:00Z</time>
      </trkpt>
      <trkpt lat="43.69066" lon="2.39639">
        <ele>432.236</ele>
        <time>2016-06-10T13:31:40Z</time>
      </trkpt>
      <trkpt lat="43.69083" lon="2.39598">
        <ele>440.574</ele>
        <time>2016-06-10T13:31:20Z</time>
      </trkpt>
      <trkpt lat="43.69123" lon="2.39613">
        <ele>437.638</ele>
        <time>2016-06-10T13:31:00Z</time>
      </trkpt>
      <trkpt lat="43.69184" lon="2.39527">
        <ele>455.515</ele>
        <time>2016-06-10T13:30:40Z</time>
      </trkpt>
      <trkpt lat="43.69218" lon="2.39321">
        <ele>483.53</ele>
        <time>2016-06-10T13:30:20Z</time>
      </trkpt>
      <trkpt lat="43.69218" lon="2.3922">
        <ele>494.654</ele>
        <time>2016-06-10T13:30:00Z</time>
      </trkpt>
      <trkpt lat="43.6919" lon="2.39177">
        <ele>511.808</ele>
        <time>2016-06-10T13:29:40Z</time>
      </trkpt>
      <trkpt lat="43.69191" lon="2.39059">
        <ele>523.017</ele>
        <time>2016-06-10T13:29:20Z</time>
      </trkpt>
      <trkpt lat="43.69221" lon="2.38954">
        <ele>537.607</ele>
        <time>2016-06-10T13:29:00Z</time>
      </trkpt>
      <trkpt lat="43.69258" lon="2.3895">
        <ele>536.384</ele>
        <time>2016-06-10T13:28:40Z</time>
      </trkpt>
      <trkpt lat="43.69266" lon="2.38924">
        <ele>540.051</ele>
        <time>2016-06-10T13:28:20Z</time>
      </trkpt>
      <trkpt lat="43.69249" lon="2.38907">
        <ele>540.362</ele>
        <time>2016-06-10T13:28:00Z</time>
      </trkpt>
      <trkpt lat="43.69472" lon="2.38658">
        <ele>570.346</ele>
        <time>2016-06-10T13:27:40Z</time>
      </trkpt>
      <trkpt lat="43.695" lon="2.38592">
        <ele>575.394</ele>
        <time>2016-06-10T13:26:40Z</time>
      </trkpt>
      <trkpt lat="43.69548" lon="2.38534">
        <ele>581.638</ele>
        <time>2016-06-10T13:26:20Z</time>
      </trkpt>
      <trkpt lat="43.69579" lon="2.38424">
        <ele>594.955</ele>
        <time>2016-06-10T13:26:00Z</time>
      </trkpt>
      <trkpt lat="43.69569" lon="2.38379">
        <ele>594.89</ele>
        <time>2016-06-10T13:25:40Z</time>
      </trkpt>
      <trkpt lat="43.69669" lon="2.38247">
        <ele>600.044</ele>
        <time>2016-06-10T13:25:20Z</time>
      </trkpt>
      <trkpt lat="43.69724" lon="2.38212">
        <ele>600.008</ele>
        <time>2016-06-10T13:25:00Z</time>
      </trkpt>
      <trkpt lat="43.69846" lon="2.38182">
        <ele>600.017</ele>
        <time>2016-06-10T13:24:40Z</time>
      </trkpt>
      <trkpt lat="43.69989" lon="2.3819">
        <ele>594.261</ele>
        <time>2016-06-10T13:24:20Z</time>
      </trkpt>
      <trkpt lat="43.70099" lon="2.38145">
        <ele>590.481</ele>
        <time>2016-06-10T13:24:00Z</time>
      </trkpt>
      <trkpt lat="43.70212" lon="2.38132">
        <ele>588.449</ele>
        <time>2016-06-10T13:23:40Z</time>
      </trkpt>
      <trkpt lat="43.70317" lon="2.38164">
        <ele>593.56</ele>
        <time>2016-06-10T13:23:20Z</time>
      </trkpt>
      <trkpt lat="43.70439" lon="2.38147">
        <ele>595.324</ele>
        <time>2016-06-10T13:23:00Z</time>
      </trkpt>
      <trkpt lat="43.70598" lon="2.3816">
        <ele>603.692</ele>
        <time>2016-06-10T13:22:40Z</time>
      </trkpt>
      <trkpt lat="43.70684" lon="2.38128">
        <ele>611.316</ele>
        <time>2016-06-10T13:22:20Z</time>
      </trkpt>
      <trkpt lat="43.70833" lon="2.38034">
        <ele>626.963</ele>
        <time>2016-06-10T13:22:00Z</time>
      </trkpt>
      <trkpt lat="43.70878" lon="2.37984">
        <ele>625.498</ele>
        <time>2016-06-10T13:21:40Z</time>
      </trkpt>
      <trkpt lat="43.70921" lon="2.37911">
        <ele>628.962</ele>
        <time>2016-06-10T13:21:20Z</time>
      </trkpt>
      <trkpt lat="43.70974" lon="2.37911">
        <ele>625.308</ele>
        <time>2016-06-10T13:21:00Z</time>
      </trkpt>
      <trkpt lat="43.71076" lon="2.37785">
        <ele>620.318</ele>
        <time>2016-06-10T13:20:40Z</time>
      </trkpt>
      <trkpt lat="43.71134" lon="2.37738">
        <ele>620.044</ele>
        <time>2016-06-10T13:20:20Z</time>
      </trkpt>
      <trkpt lat="43.71289" lon="2.3768">
        <ele>620.063</ele>
        <time>2016-06-10T13:20:00Z</time>
      </trkpt>
      <trkpt lat="43.71416" lon="2.37577">
        <ele>626.78</ele>
        <time>2016-06-10T13:19:40Z</time>
      </trkpt>
      <trkpt lat="43.71509" lon="2.37545">
        <ele>634.861</ele>
        <time>2016-06-10T13:19:20Z</time>
      </trkpt>
      <trkpt lat="43.71576" lon="2.37493">
        <ele>639.845</ele>
        <time>2016-06-10T13:18:40Z</time>
      </trkpt>
      <trkpt lat="43.71666" lon="2.37442">
        <ele>634.823</ele>
        <time>2016-06-10T13:18:20Z</time>
      </trkpt>
      <trkpt lat="43.71791" lon="2.37332">
        <ele>625.927</ele>
        <time>2016-06-10T13:18:00Z</time>
      </trkpt>
      <trkpt lat="43.7188" lon="2.37197">
        <ele>613.594</ele>
        <time>2016-06-10T13:17:40Z</time>
      </trkpt>
      <trkpt lat="43.71928" lon="2.37193">
        <ele>610.219</ele>
        <time>2016-06-10T13:17:20Z</time>
      </trkpt>
      <trkpt lat="43.71943" lon="2.37118">
        <ele>610.063</ele>
        <time>2016-06-10T13:17:00Z</time>
      </trkpt>
      <trkpt lat="43.71971" lon="2.37006">
        <ele>609.208</ele>
        <time>2016-06-10T13:16:20Z</time>
      </trkpt>
      <trkpt lat="43.71977" lon="2.36858">
        <ele>600.915</ele>
        <time>2016-06-10T13:16:00Z</time>
      </trkpt>
      <trkpt lat="43.71968" lon="2.36763">
        <ele>597.541</ele>
        <time>2016-06-10T13:15:40Z</time>
      </trkpt>
      <trkpt lat="43.71895" lon="2.36538">
        <ele>592.071</ele>
        <time>2016-06-10T13:15:20Z</time>
      </trkpt>
      <trkpt lat="43.7183" lon="2.36444">
        <ele>595.379</ele>
        <time>2016-06-10T13:15:00Z</time>
      </trkpt>
      <trkpt lat="43.71963" lon="2.36257">
        <ele>588.83</ele>
        <time>2016-06-10T13:14:40Z</time>
      </trkpt>
      <trkpt lat="43.72007" lon="2.36225">
        <ele>589.084</ele>
        <time>2016-06-10T13:14:20Z</time>
      </trkpt>
      <trkpt lat="43.72061" lon="2.36221">
        <ele>583.542</ele>
        <time>2016-06-10T13:14:00Z</time>
      </trkpt>
      <trkpt lat="43.72104" lon="2.3615">
        <ele>575.056</ele>
        <time>2016-06-10T13:13:40Z</time>
      </trkpt>
      <trkpt lat="43.72103" lon="2.36094">
        <ele>576.063</ele>
        <time>2016-06-10T13:13:20Z</time>
      </trkpt>
      <trkpt lat="43.72128" lon="2.36088">
        <ele>574.678</ele>
        <time>2016-06-10T13:13:00Z</time>
      </trkpt>
      <trkpt lat="43.72143" lon="2.36066">
        <ele>578.972</ele>
        <time>2016-06-10T13:12:40Z</time>
      </trkpt>
      <trkpt lat="43.72187" lon="2.36088">
        <ele>575.108</ele>
        <time>2016-06-10T13:12:20Z</time>
      </trkpt>
      <trkpt lat="43.72227" lon="2.35972">
        <ele>575.014</ele>
        <time>2016-06-10T13:12:00Z</time>
      </trkpt>
      <trkpt lat="43.72235" lon="2.35907">
        <ele>571.668</ele>
        <time>2016-06-10T13:11:40Z</time>
      </trkpt>
      <trkpt lat="43.72273" lon="2.35888">
        <ele>567.565</ele>
        <time>2016-06-10T13:11:20Z</time>
      </trkpt>
      <trkpt lat="43.72314" lon="2.35781">
        <ele>568.916</ele>
        <time>2016-06-10T13:11:00Z</time>
      </trkpt>
      <trkpt lat="43.7234" lon="2.35761">
        <ele>566.387</ele>
        <time>2016-06-10T13:10:40Z</time>
      </trkpt>
      <trkpt lat="43.72367" lon="2.35716">
        <ele>566.791</ele>
        <time>2016-06-10T13:10:20Z</time>
      </trkpt>
      <trkpt lat="43.72429" lon="2.35667">
        <ele>565.669</ele>
        <time>2016-06-10T13:10:00Z</time>
      </trkpt>
      <trkpt lat="43.725" lon="2.35564">
        <ele>561.383</ele>
        <time>2016-06-10T13:09:40Z</time>
      </trkpt>
      <trkpt lat="43.72636" lon="2.35279">
        <ele>554.37</ele>
        <time>2016-06-10T13:09:20Z</time>
      </trkpt>
      <trkpt lat="43.72768" lon="2.35066">
        <ele>550.025</ele>
        <time>2016-06-10T13:09:00Z</time>
      </trkpt>
      <trkpt lat="43.72881" lon="2.34841">
        <ele>548.519</ele>
        <time>2016-06-10T13:08:40Z</time>
      </trkpt>
      <trkpt lat="43.7296" lon="2.34641">
        <ele>540.408</ele>
        <time>2016-06-10T13:08:20Z</time>
      </trkpt>
      <trkpt lat="43.73004" lon="2.34307">
        <ele>540.014</ele>
        <time>2016-06-10T13:08:00Z</time>
      </trkpt>
      <trkpt lat="43.73046" lon="2.34274">
        <ele>540.086</ele>
        <time>2016-06-10T13:07:40Z</time>
      </trkpt>
      <trkpt lat="43.73114" lon="2.34056">
        <ele>541.135</ele>
        <time>2016-06-10T13:07:20Z</time>
      </trkpt>
      <trkpt lat="43.73173" lon="2.33978">
        <ele>542.079</ele>
        <time>2016-06-10T13:07:00Z</time>
      </trkpt>
      <trkpt lat="43.73274" lon="2.33907">
        <ele>545.78</ele>
        <time>2016-06-10T13:06:40Z</time>
      </trkpt>
      <trkpt lat="43.73433" lon="2.33822">
        <ele>556.254</ele>
        <time>2016-06-10T13:06:20Z</time>
      </trkpt>
      <trkpt lat="43.73573" lon="2.33733">
        <ele>563.932</ele>
        <time>2016-06-10T13:06:00Z</time>
      </trkpt>
      <trkpt lat="43.73752" lon="2.335">
        <ele>572.246</ele>
        <time>2016-06-10T13:05:40Z</time>
      </trkpt>
      <trkpt lat="43.73776" lon="2.33416">
        <ele>575.763</ele>
        <time>2016-06-10T13:05:20Z</time>
      </trkpt>
      <trkpt lat="43.7377" lon="2.3335">
        <ele>576.018</ele>
        <time>2016-06-10T13:05:00Z</time>
      </trkpt>
      <trkpt lat="43.73787" lon="2.32935">
        <ele>580.052</ele>
        <time>2016-06-10T13:04:40Z</time>
      </trkpt>
      <trkpt lat="43.73771" lon="2.32729">
        <ele>574.508</ele>
        <time>2016-06-10T13:04:20Z</time>
      </trkpt>
      <trkpt lat="43.7381" lon="2.32556">
        <ele>564.421</ele>
        <time>2016-06-10T13:04:00Z</time>
      </trkpt>
      <trkpt lat="43.73834" lon="2.32386">
        <ele>548.629</ele>
        <time>2016-06-10T13:03:40Z</time>
      </trkpt>
      <trkpt lat="43.73891" lon="2.32317">
        <ele>534.266</ele>
        <time>2016-06-10T13:03:20Z</time>
      </trkpt>
      <trkpt lat="43.74024" lon="2.32202">
        <ele>525.458</ele>
        <time>2016-06-10T13:03:00Z</time>
      </trkpt>
      <trkpt lat="43.74005" lon="2.32257">
        <ele>521.169</ele>
        <time>2016-06-10T13:02:40Z</time>
      </trkpt>
      <trkpt lat="43.73995" lon="2.32416">
        <ele>501.333</ele>
        <time>2016-06-10T13:02:20Z</time>
      </trkpt>
      <trkpt lat="43.73974" lon="2.32545">
        <ele>498.291</ele>
        <time>2016-06-10T13:02:00Z</time>
      </trkpt>
      <trkpt lat="43.7405" lon="2.32674">
        <ele>469.435</ele>
        <time>2016-06-10T13:01:20Z</time>
      </trkpt>
      <trkpt lat="43.74092" lon="2.32847">
        <ele>458.392</ele>
        <time>2016-06-10T13:01:00Z</time>
      </trkpt>
      <trkpt lat="43.74213" lon="2.32908">
        <ele>447.687</ele>
        <time>2016-06-10T13:00:40Z</time>
      </trkpt>
      <trkpt lat="43.7428" lon="2.33103">
        <ele>432.171</ele>
        <time>2016-06-10T13:00:20Z</time>
      </trkpt>
      <trkpt lat="43.7428" lon="2.33165">
        <ele>423.908</ele>
        <time>2016-06-10T13:00:00Z</time>
      </trkpt>
      <trkpt lat="43.74238" lon="2.33225">
        <ele>423.423</ele>
        <time>2016-06-10T12:59:20Z</time>
      </trkpt>
      <trkpt lat="43.74227" lon="2.33358">
        <ele>419.003</ele>
        <time>2016-06-10T12:59:00Z</time>
      </trkpt>
      <trkpt lat="43.74252" lon="2.33435">
        <ele>413.459</ele>
        <time>2016-06-10T12:58:40Z</time>
      </trkpt>
      <trkpt lat="43.74305" lon="2.33485">
        <ele>409.76</ele>
        <time>2016-06-10T12:58:20Z</time>
      </trkpt>
      <trkpt lat="43.7432" lon="2.33526">
        <ele>407.671</ele>
        <time>2016-06-10T12:58:00Z</time>
      </trkpt>
      <trkpt lat="43.74337" lon="2.33526">
        <ele>401.625</ele>
        <time>2016-06-10T12:57:40Z</time>
      </trkpt>
      <trkpt lat="43.74399" lon="2.33592">
        <ele>391.253</ele>
        <time>2016-06-10T12:57:20Z</time>
      </trkpt>
      <trkpt lat="43.74456" lon="2.33598">
        <ele>379.657</ele>
        <time>2016-06-10T12:57:00Z</time>
      </trkpt>
      <trkpt lat="43.74503" lon="2.33751">
        <ele>368.044</ele>
        <time>2016-06-10T12:56:40Z</time>
      </trkpt>
      <trkpt lat="43.74528" lon="2.33781">
        <ele>358.819</ele>
        <time>2016-06-10T12:56:20Z</time>
      </trkpt>
      <trkpt lat="43.74503" lon="2.33961">
        <ele>356.813</ele>
        <time>2016-06-10T12:56:00Z</time>
      </trkpt>
      <trkpt lat="43.74449" lon="2.3401">
        <ele>362.208</ele>
        <time>2016-06-10T12:55:40Z</time>
      </trkpt>
      <trkpt lat="43.74444" lon="2.3406">
        <ele>358.827</ele>
        <time>2016-06-10T12:55:20Z</time>
      </trkpt>
      <trkpt lat="43.74398" lon="2.34096">
        <ele>360.861</ele>
        <time>2016-06-10T12:55:00Z</time>
      </trkpt>
      <trkpt lat="43.74381" lon="2.34098">
        <ele>362.377</ele>
        <time>2016-06-10T12:54:40Z</time>
      </trkpt>
      <trkpt lat="43.74376" lon="2.34225">
        <ele>361.627</ele>
        <time>2016-06-10T12:54:20Z</time>
      </trkpt>
      <trkpt lat="43.74422" lon="2.34264">
        <ele>360.388</ele>
        <time>2016-06-10T12:54:00Z</time>
      </trkpt>
      <trkpt lat="43.7446" lon="2.34332">
        <ele>361.972</ele>
        <time>2016-06-10T12:53:40Z</time>
      </trkpt>
      <trkpt lat="43.74539" lon="2.34345">
        <ele>366.79</ele>
        <time>2016-06-10T12:53:20Z</time>
      </trkpt>
      <trkpt lat="43.7456" lon="2.34328">
        <ele>368.934</ele>
        <time>2016-06-10T12:53:00Z</time>
      </trkpt>
      <trkpt lat="43.74618" lon="2.34311">
        <ele>384.851</ele>
        <time>2016-06-10T12:52:40Z</time>
      </trkpt>
      <trkpt lat="43.74643" lon="2.34277">
        <ele>388.796</ele>
        <time>2016-06-10T12:52:20Z</time>
      </trkpt>
      <trkpt lat="43.74658" lon="2.34341">
        <ele>401.71</ele>
        <time>2016-06-10T12:52:00Z</time>
      </trkpt>
      <trkpt lat="43.74711" lon="2.34395">
        <ele>418.008</ele>
        <time>2016-06-10T12:51:40Z</time>
      </trkpt>
      <trkpt lat="43.74763" lon="2.34483">
        <ele>441.821</ele>
        <time>2016-06-10T12:51:20Z</time>
      </trkpt>
      <trkpt lat="43.74763" lon="2.34635">
        <ele>435.029</ele>
        <time>2016-06-10T12:51:00Z</time>
      </trkpt>
      <trkpt lat="43.74782" lon="2.34714">
        <ele>445.347</ele>
        <time>2016-06-10T12:50:40Z</time>
      </trkpt>
      <trkpt lat="43.74844" lon="2.34757">
        <ele>472.211</ele>
        <time>2016-06-10T12:50:20Z</time>
      </trkpt>
      <trkpt lat="43.74903" lon="2.34828">
        <ele>489.972</ele>
        <time>2016-06-10T12:50:00Z</time>
      </trkpt>
      <trkpt lat="43.7496" lon="2.34847">
        <ele>502.156</ele>
        <time>2016-06-10T12:49:40Z</time>
      </trkpt>
      <trkpt lat="43.75015" lon="2.34957">
        <ele>505.584</ele>
        <time>2016-06-10T12:49:20Z</time>
      </trkpt>
      <trkpt lat="43.75008" lon="2.35066">
        <ele>509.458</ele>
        <time>2016-06-10T12:49:00Z</time>
      </trkpt>
      <trkpt lat="43.75033" lon="2.35118">
        <ele>503.445</ele>
        <time>2016-06-10T12:48:40Z</time>
      </trkpt>
      <trkpt lat="43.75038" lon="2.35152">
        <ele>503.06</ele>
        <time>2016-06-10T12:48:20Z</time>
      </trkpt>
      <trkpt lat="43.75007" lon="2.35206">
        <ele>510.344</ele>
        <time>2016-06-10T12:48:00Z</time>
      </trkpt>
      <trkpt lat="43.75019" lon="2.35244">
        <ele>507.808</ele>
        <time>2016-06-10T12:47:40Z</time>
      </trkpt>
      <trkpt lat="43.75109" lon="2.353">
        <ele>510.126</ele>
        <time>2016-06-10T12:47:20Z</time>
      </trkpt>
      <trkpt lat="43.7519" lon="2.35294">
        <ele>520.142</ele>
        <time>2016-06-10T12:47:00Z</time>
      </trkpt>
      <trkpt lat="43.75303" lon="2.35199">
        <ele>524.887</ele>
        <time>2016-06-10T12:46:40Z</time>
      </trkpt>
      <trkpt lat="43.75467" lon="2.35049">
        <ele>525.035</ele>
        <time>2016-06-10T12:46:20Z</time>
      </trkpt>
      <trkpt lat="43.75524" lon="2.35028">
        <ele>526.046</ele>
        <time>2016-06-10T12:46:00Z</time>
      </trkpt>
      <trkpt lat="43.75614" lon="2.34944">
        <ele>526.93</ele>
        <time>2016-06-10T12:45:40Z</time>
      </trkpt>
      <trkpt lat="43.75718" lon="2.34905">
        <ele>520.958</ele>
        <time>2016-06-10T12:45:20Z</time>
      </trkpt>
      <trkpt lat="43.7583" lon="2.34693">
        <ele>527.122</ele>
        <time>2016-06-10T12:44:40Z</time>
      </trkpt>
      <trkpt lat="43.75946" lon="2.34502">
        <ele>521.149</ele>
        <time>2016-06-10T12:44:20Z</time>
      </trkpt>
      <trkpt lat="43.75974" lon="2.34373">
        <ele>524.584</ele>
        <time>2016-06-10T12:44:00Z</time>
      </trkpt>
      <trkpt lat="43.76017" lon="2.34307">
        <ele>523.758</ele>
        <time>2016-06-10T12:43:40Z</time>
      </trkpt>
      <trkpt lat="43.76041" lon="2.3424">
        <ele>520.308</ele>
        <time>2016-06-10T12:43:20Z</time>
      </trkpt>
      <trkpt lat="43.76092" lon="2.34171">
        <ele>518.311</ele>
        <time>2016-06-10T12:42:20Z</time>
      </trkpt>
      <trkpt lat="43.76079" lon="2.34075">
        <ele>510.247</ele>
        <time>2016-06-10T12:42:00Z</time>
      </trkpt>
      <trkpt lat="43.76045" lon="2.33991">
        <ele>506.826</ele>
        <time>2016-06-10T12:41:40Z</time>
      </trkpt>
      <trkpt lat="43.76059" lon="2.33871">
        <ele>507.765</ele>
        <time>2016-06-10T12:41:20Z</time>
      </trkpt>
      <trkpt lat="43.76116" lon="2.33762">
        <ele>504.226</ele>
        <time>2016-06-10T12:41:00Z</time>
      </trkpt>
      <trkpt lat="43.76121" lon="2.33663">
        <ele>506.26</ele>
        <time>2016-06-10T12:40:20Z</time>
      </trkpt>
      <trkpt lat="43.76163" lon="2.33644">
        <ele>504.398</ele>
        <time>2016-06-10T12:40:00Z</time>
      </trkpt>
      <trkpt lat="43.7625" lon="2.33678">
        <ele>502.062</ele>
        <time>2016-06-10T12:39:40Z</time>
      </trkpt>
      <trkpt lat="43.7638" lon="2.33625">
        <ele>500.599</ele>
        <time>2016-06-10T12:39:20Z</time>
      </trkpt>
      <trkpt lat="43.76445" lon="2.33618">
        <ele>498.074</ele>
        <time>2016-06-10T12:39:00Z</time>
      </trkpt>
      <trkpt lat="43.76546" lon="2.33545">
        <ele>497.878</ele>
        <time>2016-06-10T12:38:40Z</time>
      </trkpt>
      <trkpt lat="43.76615" lon="2.33468">
        <ele>501.008</ele>
        <time>2016-06-10T12:38:20Z</time>
      </trkpt>
      <trkpt lat="43.76733" lon="2.33354">
        <ele>493.017</ele>
        <time>2016-06-10T12:38:00Z</time>
      </trkpt>
      <trkpt lat="43.76791" lon="2.3321">
        <ele>483.589</ele>
        <time>2016-06-10T12:37:40Z</time>
      </trkpt>
      <trkpt lat="43.76857" lon="2.33105">
        <ele>474.428</ele>
        <time>2016-06-10T12:37:20Z</time>
      </trkpt>
      <trkpt lat="43.76892" lon="2.33095">
        <ele>467.621</ele>
        <time>2016-06-10T12:37:00Z</time>
      </trkpt>
      <trkpt lat="43.76919" lon="2.33071">
        <ele>464.512</ele>
        <time>2016-06-10T12:36:40Z</time>
      </trkpt>
      <trkpt lat="43.76973" lon="2.33062">
        <ele>455.676</ele>
        <time>2016-06-10T12:36:20Z</time>
      </trkpt>
      <trkpt lat="43.77159" lon="2.32985">
        <ele>430.414</ele>
        <time>2016-06-10T12:36:00Z</time>
      </trkpt>
      <trkpt lat="43.77255" lon="2.32989">
        <ele>426.628</ele>
        <time>2016-06-10T12:35:40Z</time>
      </trkpt>
      <trkpt lat="43.7719" lon="2.33019">
        <ele>422.485</ele>
        <time>2016-06-10T12:35:20Z</time>
      </trkpt>
      <trkpt lat="43.77128" lon="2.33086">
        <ele>415.49</ele>
        <time>2016-06-10T12:35:00Z</time>
      </trkpt>
      <trkpt lat="43.77127" lon="2.33109">
        <ele>411.014</ele>
        <time>2016-06-10T12:34:40Z</time>
      </trkpt>
      <trkpt lat="43.77176" lon="2.33094">
        <ele>408.608</ele>
        <time>2016-06-10T12:34:20Z</time>
      </trkpt>
      <trkpt lat="43.77237" lon="2.33105">
        <ele>399.317</ele>
        <time>2016-06-10T12:34:00Z</time>
      </trkpt>
      <trkpt lat="43.77305" lon="2.33094">
        <ele>396.361</ele>
        <time>2016-06-10T12:33:40Z</time>
      </trkpt>
      <trkpt lat="43.77317" lon="2.3312">
        <ele>395.181</ele>
        <time>2016-06-10T12:33:20Z</time>
      </trkpt>
      <trkpt lat="43.77342" lon="2.33126">
        <ele>397.134</ele>
        <time>2016-06-10T12:33:00Z</time>
      </trkpt>
      <trkpt lat="43.77523" lon="2.32993">
        <ele>402.735</ele>
        <time>2016-06-10T12:32:40Z</time>
      </trkpt>
      <trkpt lat="43.77574" lon="2.32993">
        <ele>411.949</ele>
        <time>2016-06-10T12:32:20Z</time>
      </trkpt>
      <trkpt lat="43.77632" lon="2.33037">
        <ele>424.977</ele>
        <time>2016-06-10T12:32:00Z</time>
      </trkpt>
      <trkpt lat="43.7767" lon="2.33094">
        <ele>434.621</ele>
        <time>2016-06-10T12:31:40Z</time>
      </trkpt>
      <trkpt lat="43.77674" lon="2.33142">
        <ele>435.798</ele>
        <time>2016-06-10T12:31:20Z</time>
      </trkpt>
      <trkpt lat="43.77697" lon="2.33077">
        <ele>440.743</ele>
        <time>2016-06-10T12:31:00Z</time>
      </trkpt>
      <trkpt lat="43.77736" lon="2.33051">
        <ele>441.487</ele>
        <time>2016-06-10T12:30:40Z</time>
      </trkpt>
      <trkpt lat="43.7788" lon="2.33066">
        <ele>455.208</ele>
        <time>2016-06-10T12:30:20Z</time>
      </trkpt>
      <trkpt lat="43.7796" lon="2.33026">
        <ele>458.409</ele>
        <time>2016-06-10T12:30:00Z</time>
      </trkpt>
      <trkpt lat="43.78022" lon="2.33195">
        <ele>476.254</ele>
        <time>2016-06-10T12:29:40Z</time>
      </trkpt>
      <trkpt lat="43.78046" lon="2.33465">
        <ele>493.814</ele>
        <time>2016-06-10T12:29:20Z</time>
      </trkpt>
      <trkpt lat="43.78067" lon="2.3356">
        <ele>496.728</ele>
        <time>2016-06-10T12:29:00Z</time>
      </trkpt>
      <trkpt lat="43.78131" lon="2.33639">
        <ele>497.299</ele>
        <time>2016-06-10T12:28:40Z</time>
      </trkpt>
      <trkpt lat="43.78213" lon="2.33762">
        <ele>495.993</ele>
        <time>2016-06-10T12:28:20Z</time>
      </trkpt>
      <trkpt lat="43.78247" lon="2.33867">
        <ele>496.031</ele>
        <time>2016-06-10T12:28:00Z</time>
      </trkpt>
      <trkpt lat="43.78245" lon="2.34013">
        <ele>496.665</ele>
        <time>2016-06-10T12:27:40Z</time>
      </trkpt>
      <trkpt lat="43.78213" lon="2.34077">
        <ele>502.172</ele>
        <time>2016-06-10T12:27:20Z</time>
      </trkpt>
      <trkpt lat="43.78176" lon="2.34199">
        <ele>504.297</ele>
        <time>2016-06-10T12:27:00Z</time>
      </trkpt>
      <trkpt lat="43.78168" lon="2.34296">
        <ele>506.591</ele>
        <time>2016-06-10T12:26:40Z</time>
      </trkpt>
      <trkpt lat="43.78185" lon="2.3438">
        <ele>509.308</ele>
        <time>2016-06-10T12:26:20Z</time>
      </trkpt>
      <trkpt lat="43.78208" lon="2.34534">
        <ele>511.52</ele>
        <time>2016-06-10T12:26:00Z</time>
      </trkpt>
      <trkpt lat="43.78239" lon="2.34487">
        <ele>511.8</ele>
        <time>2016-06-10T12:25:40Z</time>
      </trkpt>
      <trkpt lat="43.78371" lon="2.34513">
        <ele>506.457</ele>
        <time>2016-06-10T12:25:20Z</time>
      </trkpt>
      <trkpt lat="43.78424" lon="2.34461">
        <ele>507.329</ele>
        <time>2016-06-10T12:25:00Z</time>
      </trkpt>
      <trkpt lat="43.78479" lon="2.34433">
        <ele>508.47</ele>
        <time>2016-06-10T12:24:40Z</time>
      </trkpt>
      <trkpt lat="43.78568" lon="2.34285">
        <ele>490.894</ele>
        <time>2016-06-10T12:24:20Z</time>
      </trkpt>
      <trkpt lat="43.786" lon="2.34174">
        <ele>480.382</ele>
        <time>2016-06-10T12:24:00Z</time>
      </trkpt>
      <trkpt lat="43.78645" lon="2.34062">
        <ele>468.256</ele>
        <time>2016-06-10T12:23:40Z</time>
      </trkpt>
      <trkpt lat="43.78625" lon="2.33968">
        <ele>459.093</ele>
        <time>2016-06-10T12:23:20Z</time>
      </trkpt>
      <trkpt lat="43.78571" lon="2.33974">
        <ele>452.668</ele>
        <time>2016-06-10T12:23:00Z</time>
      </trkpt>
      <trkpt lat="43.78489" lon="2.34004">
        <ele>441.512</ele>
        <time>2016-06-10T12:22:40Z</time>
      </trkpt>
      <trkpt lat="43.78476" lon="2.33968">
        <ele>432.808</ele>
        <time>2016-06-10T12:22:20Z</time>
      </trkpt>
      <trkpt lat="43.78563" lon="2.33856">
        <ele>423.619</ele>
        <time>2016-06-10T12:22:00Z</time>
      </trkpt>
      <trkpt lat="43.78628" lon="2.33732">
        <ele>409.681</ele>
        <time>2016-06-10T12:21:40Z</time>
      </trkpt>
      <trkpt lat="43.78716" lon="2.33661">
        <ele>410.267</ele>
        <time>2016-06-10T12:21:20Z</time>
      </trkpt>
      <trkpt lat="43.78791" lon="2.3368">
        <ele>406.648</ele>
        <time>2016-06-10T12:21:00Z</time>
      </trkpt>
      <trkpt lat="43.78826" lon="2.33732">
        <ele>404.789</ele>
        <time>2016-06-10T12:20:40Z</time>
      </trkpt>
      <trkpt lat="43.78919" lon="2.33812">
        <ele>401.643</ele>
        <time>2020-12-27T03:14:35Z</time>
      </trkpt>
      <trkpt lat="43.78945" lon="2.33873">
        <ele>395.171</ele>
        <time>2020-12-27T03:14:15Z</time>
      </trkpt>
      <trkpt lat="43.78955" lon="2.33933">
        <ele>392.715</ele>
        <time>2020-12-27T03:13:55Z</time>
      </trkpt>
      <trkpt lat="43.78951" lon="2.34044">
        <ele>392.372</ele>
        <time>2020-12-27T03:13:35Z</time>
      </trkpt>
      <trkpt lat="43.78954" lon="2.34156">
        <ele>389.397</ele>
        <time>2020-12-27T03:13:15Z</time>
      </trkpt>
      <trkpt lat="43.7899" lon="2.34212">
        <ele>387.941</ele>
        <time>2020-12-27T03:12:55Z</time>
      </trkpt>
      <trkpt lat="43.79058" lon="2.3415">
        <ele>372.108</ele>
        <time>2020-12-27T03:12:35Z</time>
      </trkpt>
      <trkpt lat="43.79107" lon="2.34117">
        <ele>363.417</ele>
        <time>2020-12-27T03:12:15Z</time>
      </trkpt>
      <trkpt lat="43.79135" lon="2.34079">
        <ele>355.452</ele>
        <time>2020-12-27T03:11:55Z</time>
      </trkpt>
      <trkpt lat="43.79182" lon="2.34059">
        <ele>352.058</ele>
        <time>2020-12-27T03:11:35Z</time>
      </trkpt>
      <trkpt lat="43.79211" lon="2.34029">
        <ele>344.148</ele>
        <time>2020-12-27T03:11:15Z</time>
      </trkpt>
      <trkpt lat="43.79259" lon="2.34098">
        <ele>350.239</ele>
        <time>2020-12-27T03:10:55Z</time>
      </trkpt>
      <trkpt lat="43.79314" lon="2.34135">
        <ele>338.323</ele>
        <time>2016-06-10T12:17:00Z</time>
      </trkpt>
      <trkpt lat="43.79381" lon="2.34154">
        <ele>323.411</ele>
        <time>2016-06-10T12:16:20Z</time>
      </trkpt>
      <trkpt lat="43.79407" lon="2.34137">
        <ele>305.445</ele>
        <time>2016-06-10T12:16:00Z</time>
      </trkpt>
      <trkpt lat="43.79409" lon="2.34171">
        <ele>313.382</ele>
        <time>2016-06-10T12:15:40Z</time>
      </trkpt>
      <trkpt lat="43.79474" lon="2.34231">
        <ele>299.817</ele>
        <time>2016-06-10T12:15:20Z</time>
      </trkpt>
      <trkpt lat="43.79468" lon="2.3439">
        <ele>301.841</ele>
        <time>2016-06-10T12:15:00Z</time>
      </trkpt>
      <trkpt lat="43.79438" lon="2.3451">
        <ele>312.308</ele>
        <time>2016-06-10T12:14:40Z</time>
      </trkpt>
      <trkpt lat="43.79469" lon="2.34601">
        <ele>311.808</ele>
        <time>2016-06-10T12:14:20Z</time>
      </trkpt>
      <trkpt lat="43.79489" lon="2.34749">
        <ele>321.853</ele>
        <time>2016-06-10T12:14:00Z</time>
      </trkpt>
      <trkpt lat="43.79499" lon="2.34854">
        <ele>329.652</ele>
        <time>2016-06-10T12:13:40Z</time>
      </trkpt>
      <trkpt lat="43.7955" lon="2.3497">
        <ele>326.982</ele>
        <time>2016-06-10T12:13:20Z</time>
      </trkpt>
      <trkpt lat="43.79609" lon="2.35025">
        <ele>323.923</ele>
        <time>2016-06-10T12:13:00Z</time>
      </trkpt>
      <trkpt lat="43.79627" lon="2.35066">
        <ele>330.037</ele>
        <time>2016-06-10T12:12:40Z</time>
      </trkpt>
      <trkpt lat="43.79686" lon="2.35111">
        <ele>328.855</ele>
        <time>2016-06-10T12:12:20Z</time>
      </trkpt>
      <trkpt lat="43.7975" lon="2.3512">
        <ele>320.059</ele>
        <time>2016-06-10T12:11:00Z</time>
      </trkpt>
      <trkpt lat="43.7977" lon="2.35154">
        <ele>319.826</ele>
        <time>2016-06-10T12:10:40Z</time>
      </trkpt>
      <trkpt lat="43.79782" lon="2.35154">
        <ele>318.121</ele>
        <time>2016-06-10T12:10:20Z</time>
      </trkpt>
      <trkpt lat="43.79794" lon="2.35096">
        <ele>316.695</ele>
        <time>2016-06-10T12:10:00Z</time>
      </trkpt>
      <trkpt lat="43.79844" lon="2.35122">
        <ele>319.808</ele>
        <time>2016-06-10T12:09:40Z</time>
      </trkpt>
      <trkpt lat="43.79923" lon="2.35088">
        <ele>330.027</ele>
        <time>2016-06-10T12:09:20Z</time>
      </trkpt>
      <trkpt lat="43.79963" lon="2.35019">
        <ele>325.707</ele>
        <time>2016-06-10T12:09:00Z</time>
      </trkpt>
      <trkpt lat="43.79985" lon="2.34946">
        <ele>325.799</ele>
        <time>2016-06-10T12:08:40Z</time>
      </trkpt>
      <trkpt lat="43.79994" lon="2.34849">
        <ele>324.586</ele>
        <time>2016-06-10T12:08:20Z</time>
      </trkpt>
      <trkpt lat="43.80016" lon="2.34811">
        <ele>330.187</ele>
        <time>2016-06-10T12:08:00Z</time>
      </trkpt>
      <trkpt lat="43.80025" lon="2.34723">
        <ele>325.271</ele>
        <time>2016-06-10T12:07:40Z</time>
      </trkpt>
      <trkpt lat="43.80079" lon="2.34647">
        <ele>333.559</ele>
        <time>2016-06-10T12:07:20Z</time>
      </trkpt>
      <trkpt lat="43.80117" lon="2.3457">
        <ele>324.323</ele>
        <time>2016-06-10T12:07:00Z</time>
      </trkpt>
      <trkpt lat="43.80158" lon="2.3454">
        <ele>325.08</ele>
        <time>2016-06-10T12:06:40Z</time>
      </trkpt>
      <trkpt lat="43.80205" lon="2.34583">
        <ele>332.175</ele>
        <time>2016-06-10T12:06:20Z</time>
      </trkpt>
      <trkpt lat="43.80222" lon="2.34635">
        <ele>333.069</ele>
        <time>2016-06-10T12:06:00Z</time>
      </trkpt>
      <trkpt lat="43.80225" lon="2.3486">
        <ele>342.608</ele>
        <time>2016-06-10T12:05:40Z</time>
      </trkpt>
      <trkpt lat="43.80244" lon="2.3494">
        <ele>363.211</ele>
        <time>2016-06-10T12:05:20Z</time>
      </trkpt>
      <trkpt lat="43.80307" lon="2.34995">
        <ele>372.292</ele>
        <time>2016-06-10T12:05:00Z</time>
      </trkpt>
      <trkpt lat="43.80371" lon="2.35008">
        <ele>366.132</ele>
        <time>2016-06-10T12:04:20Z</time>
      </trkpt>
      <trkpt lat="43.80406" lon="2.35051">
        <ele>367.117</ele>
        <time>2016-06-10T12:04:00Z</time>
      </trkpt>
      <trkpt lat="43.80413" lon="2.351">
        <ele>375.928</ele>
        <time>2016-06-10T12:03:40Z</time>
      </trkpt>
      <trkpt lat="43.80436" lon="2.35151">
        <ele>382.652</ele>
        <time>2016-06-10T12:03:20Z</time>
      </trkpt>
      <trkpt lat="43.80449" lon="2.35221">
        <ele>399.11</ele>
        <time>2016-06-10T12:03:00Z</time>
      </trkpt>
      <trkpt lat="43.80498" lon="2.35279">
        <ele>406.474</ele>
        <time>2016-06-10T12:02:40Z</time>
      </trkpt>
      <trkpt lat="43.8038" lon="2.35356">
        <ele>415.531</ele>
        <time>2016-06-10T12:02:20Z</time>
      </trkpt>
      <trkpt lat="43.80452" lon="2.35539">
        <ele>432.096</ele>
        <time>2016-06-10T12:02:00Z</time>
      </trkpt>
      <trkpt lat="43.80467" lon="2.35684">
        <ele>436.31</ele>
        <time>2016-06-10T12:01:40Z</time>
      </trkpt>
      <trkpt lat="43.80488" lon="2.35824">
        <ele>445.008</ele>
        <time>2016-06-10T12:01:20Z</time>
      </trkpt>
      <trkpt lat="43.8046" lon="2.35824">
        <ele>447.921</ele>
        <time>2016-06-10T12:01:00Z</time>
      </trkpt>
      <trkpt lat="43.80465" lon="2.35886">
        <ele>453.029</ele>
        <time>2016-06-10T12:00:40Z</time>
      </trkpt>
      <trkpt lat="43.80521" lon="2.35974">
        <ele>456.347</ele>
        <time>2016-06-10T12:00:20Z</time>
      </trkpt>
      <trkpt lat="43.8059" lon="2.36111">
        <ele>465.017</ele>
        <time>2016-06-10T12:00:00Z</time>
      </trkpt>
      <trkpt lat="43.80625" lon="2.36253">
        <ele>470.328</ele>
        <time>2016-06-10T11:59:40Z</time>
      </trkpt>
      <trkpt lat="43.80626" lon="2.3642">
        <ele>481.252</ele>
        <time>2016-06-10T11:59:20Z</time>
      </trkpt>
      <trkpt lat="43.80541" lon="2.36459">
        <ele>495.15</ele>
        <time>2016-06-10T11:59:00Z</time>
      </trkpt>
      <trkpt lat="43.80502" lon="2.3648">
        <ele>501.044</ele>
        <time>2016-06-10T11:58:40Z</time>
      </trkpt>
      <trkpt lat="43.80474" lon="2.36527">
        <ele>505.851</ele>
        <time>2016-06-10T11:58:20Z</time>
      </trkpt>
      <trkpt lat="43.80429" lon="2.36841">
        <ele>533.486</ele>
        <time>2016-06-10T11:58:00Z</time>
      </trkpt>
      <trkpt lat="43.80411" lon="2.36884">
        <ele>536.13</ele>
        <time>2016-06-10T11:57:40Z</time>
      </trkpt>
      <trkpt lat="43.80313" lon="2.37188">
        <ele>547.708</ele>
        <time>2016-06-10T11:57:20Z</time>
      </trkpt>
      <trkpt lat="43.80254" lon="2.37017">
        <ele>555.417</ele>
        <time>2016-06-10T11:57:00Z</time>
      </trkpt>
      <trkpt lat="43.80208" lon="2.3692">
        <ele>557.561</ele>
        <time>2016-06-10T11:56:40Z</time>
      </trkpt>
      <trkpt lat="43.80186" lon="2.37169">
        <ele>566.748</ele>
        <time>2016-06-10T11:56:20Z</time>
      </trkpt>
      <trkpt lat="43.80166" lon="2.37291">
        <ele>572.164</ele>
        <time>2016-06-10T11:56:00Z</time>
      </trkpt>
      <trkpt lat="43.80117" lon="2.37343">
        <ele>575.055</ele>
        <time>2016-06-10T11:55:40Z</time>
      </trkpt>
      <trkpt lat="43.801" lon="2.37392">
        <ele>575.119</ele>
        <time>2016-06-10T11:55:20Z</time>
      </trkpt>
      <trkpt lat="43.80089" lon="2.37504">
        <ele>577.437</ele>
        <time>2016-06-10T11:55:00Z</time>
      </trkpt>
      <trkpt lat="43.80098" lon="2.37669">
        <ele>581.951</ele>
        <time>2016-06-10T11:54:40Z</time>
      </trkpt>
      <trkpt lat="43.80095" lon="2.37806">
        <ele>578.088</ele>
        <time>2016-06-10T11:54:20Z</time>
      </trkpt>
      <trkpt lat="43.80106" lon="2.37884">
        <ele>575.073</ele>
        <time>2016-06-10T11:54:00Z</time>
      </trkpt>
      <trkpt lat="43.80143" lon="2.38014">
        <ele>568.947</ele>
        <time>2016-06-10T11:53:40Z</time>
      </trkpt>
      <trkpt lat="43.80151" lon="2.38102">
        <ele>564.108</ele>
        <time>2016-06-10T11:53:20Z</time>
      </trkpt>
      <trkpt lat="43.8014" lon="2.3825">
        <ele>563.907</ele>
        <time>2016-06-10T11:53:00Z</time>
      </trkpt>
      <trkpt lat="43.8018" lon="2.38231">
        <ele>560.043</ele>
        <time>2016-06-10T11:52:40Z</time>
      </trkpt>
      <trkpt lat="43.80333" lon="2.38076">
        <ele>558.013</ele>
        <time>2016-06-10T11:52:20Z</time>
      </trkpt>
      <trkpt lat="43.80319" lon="2.38205">
        <ele>559.031</ele>
        <time>2016-06-10T11:52:00Z</time>
      </trkpt>
      <trkpt lat="43.80293" lon="2.3889">
        <ele>581.152</ele>
        <time>2016-06-10T11:51:40Z</time>
      </trkpt>
      <trkpt lat="43.80339" lon="2.3893">
        <ele>583.236</ele>
        <time>2016-06-10T11:51:20Z</time>
      </trkpt>
      <trkpt lat="43.80376" lon="2.39081">
        <ele>586.714</ele>
        <time>2016-06-10T11:51:00Z</time>
      </trkpt>
      <trkpt lat="43.80341" lon="2.3912">
        <ele>593.318</ele>
        <time>2016-06-10T11:50:40Z</time>
      </trkpt>
      <trkpt lat="43.80316" lon="2.39173">
        <ele>594.155</ele>
        <time>2016-06-10T11:50:20Z</time>
      </trkpt>
      <trkpt lat="43.80301" lon="2.39253">
        <ele>596.36</ele>
        <time>2016-06-10T11:50:00Z</time>
      </trkpt>
      <trkpt lat="43.80301" lon="2.39388">
        <ele>601.164</ele>
        <time>2016-06-10T11:49:40Z</time>
      </trkpt>
      <trkpt lat="43.80239" lon="2.3971">
        <ele>620.008</ele>
        <time>2016-06-10T11:49:20Z</time>
      </trkpt>
      <trkpt lat="43.80189" lon="2.40051">
        <ele>624.217</ele>
        <time>2016-06-10T11:49:00Z</time>
      </trkpt>
      <trkpt lat="43.80202" lon="2.40128">
        <ele>624.861</ele>
        <time>2016-06-10T11:48:40Z</time>
      </trkpt>
      <trkpt lat="43.8025" lon="2.40195">
        <ele>624.081</ele>
        <time>2016-06-10T11:48:20Z</time>
      </trkpt>
      <trkpt lat="43.80254" lon="2.40233">
        <ele>622.557</ele>
        <time>2016-06-10T11:48:00Z</time>
      </trkpt>
      <trkpt lat="43.80247" lon="2.40368">
        <ele>619.038</ele>
        <time>2016-06-10T11:47:40Z</time>
      </trkpt>
      <trkpt lat="43.80196" lon="2.40489">
        <ele>619.582</ele>
        <time>2016-06-10T11:47:20Z</time>
      </trkpt>
      <trkpt lat="43.80134" lon="2.40688">
        <ele>617.24</ele>
        <time>2016-06-10T11:47:00Z</time>
      </trkpt>
      <trkpt lat="43.80098" lon="2.40943">
        <ele>610.664</ele>
        <time>2016-06-10T11:46:40Z</time>
      </trkpt>
      <trkpt lat="43.80104" lon="2.41006">
        <ele>608.381</ele>
        <time>2016-06-10T11:46:20Z</time>
      </trkpt>
      <trkpt lat="43.8009" lon="2.41154">
        <ele>605.436</ele>
        <time>2016-06-10T11:46:00Z</time>
      </trkpt>
      <trkpt lat="43.80138" lon="2.41132">
        <ele>603.36</ele>
        <time>2016-06-10T11:45:20Z</time>
      </trkpt>
      <trkpt lat="43.80182" lon="2.41197">
        <ele>598.008</ele>
        <time>2016-06-10T11:44:00Z</time>
      </trkpt>
      <trkpt lat="43.80298" lon="2.41285">
        <ele>588.509</ele>
        <time>2016-06-10T11:43:40Z</time>
      </trkpt>
      <trkpt lat="43.80398" lon="2.41403">
        <ele>573.481</ele>
        <time>2016-06-10T11:43:20Z</time>
      </trkpt>
      <trkpt lat="43.80463" lon="2.41613">
        <ele>560.841</ele>
        <time>2016-06-10T11:43:00Z</time>
      </trkpt>
      <trkpt lat="43.80487" lon="2.41639">
        <ele>552.342</ele>
        <time>2016-06-10T11:42:40Z</time>
      </trkpt>
      <trkpt lat="43.80563" lon="2.41877">
        <ele>561.453</ele>
        <time>2016-06-10T11:42:20Z</time>
      </trkpt>
      <trkpt lat="43.80598" lon="2.41868">
        <ele>568.477</ele>
        <time>2016-06-10T11:42:00Z</time>
      </trkpt>
      <trkpt lat="43.80767" lon="2.41667">
        <ele>592.285</ele>
        <time>2016-06-10T11:41:40Z</time>
      </trkpt>
      <trkpt lat="43.80925" lon="2.41643">
        <ele>581.839</ele>
        <time>2016-06-10T11:41:20Z</time>
      </trkpt>
      <trkpt lat="43.81007" lon="2.41737">
        <ele>573.746</ele>
        <time>2016-06-10T11:41:00Z</time>
      </trkpt>
      <trkpt lat="43.81026" lon="2.41804">
        <ele>570.641</ele>
        <time>2016-06-10T11:40:40Z</time>
      </trkpt>
      <trkpt lat="43.8107" lon="2.41915">
        <ele>552.295</ele>
        <time>2016-06-10T11:40:20Z</time>
      </trkpt>
      <trkpt lat="43.81066" lon="2.41971">
        <ele>549.408</ele>
        <time>2016-06-10T11:40:00Z</time>
      </trkpt>
      <trkpt lat="43.81078" lon="2.42027">
        <ele>549.323</ele>
        <time>2016-06-10T11:39:40Z</time>
      </trkpt>
      <trkpt lat="43.81115" lon="2.41982">
        <ele>545.849</ele>
        <time>2016-06-10T11:39:20Z</time>
      </trkpt>
      <trkpt lat="43.81162" lon="2.41965">
        <ele>549.495</ele>
        <time>2016-06-10T11:39:00Z</time>
      </trkpt>
      <trkpt lat="43.81179" lon="2.41913">
        <ele>551.955</ele>
        <time>2016-06-10T11:38:40Z</time>
      </trkpt>
      <trkpt lat="43.81264" lon="2.41855">
        <ele>549.176</ele>
        <time>2016-06-10T11:38:20Z</time>
      </trkpt>
      <trkpt lat="43.81286" lon="2.41907">
        <ele>551.47</ele>
        <time>2016-06-10T11:38:00Z</time>
      </trkpt>
      <trkpt lat="43.81331" lon="2.41864">
        <ele>549.458</ele>
        <time>2016-06-10T11:37:40Z</time>
      </trkpt>
      <trkpt lat="43.81338" lon="2.418">
        <ele>548.172</ele>
        <time>2016-06-10T11:37:20Z</time>
      </trkpt>
      <trkpt lat="43.81381" lon="2.4173">
        <ele>554.979</ele>
        <time>2016-06-10T11:37:00Z</time>
      </trkpt>
      <trkpt lat="43.81439" lon="2.4166">
        <ele>565.364</ele>
        <time>2016-06-10T11:36:40Z</time>
      </trkpt>
      <trkpt lat="43.81484" lon="2.41694">
        <ele>577.938</ele>
        <time>2016-06-10T11:36:20Z</time>
      </trkpt>
      <trkpt lat="43.81598" lon="2.41662">
        <ele>591.008</ele>
        <time>2016-06-10T11:36:00Z</time>
      </trkpt>
      <trkpt lat="43.81684" lon="2.41619">
        <ele>593.814</ele>
        <time>2016-06-10T11:35:40Z</time>
      </trkpt>
      <trkpt lat="43.81704" lon="2.41594">
        <ele>593.968</ele>
        <time>2016-06-10T11:35:00Z</time>
      </trkpt>
      <trkpt lat="43.8175" lon="2.41639">
        <ele>595.027</ele>
        <time>2016-06-10T11:34:40Z</time>
      </trkpt>
      <trkpt lat="43.81832" lon="2.41411">
        <ele>596.957</ele>
        <time>2016-06-10T11:33:40Z</time>
      </trkpt>
      <trkpt lat="43.81893" lon="2.41308">
        <ele>602.578</ele>
        <time>2016-06-10T11:33:20Z</time>
      </trkpt>
      <trkpt lat="43.81964" lon="2.41317">
        <ele>600.782</ele>
        <time>2016-06-10T11:33:00Z</time>
      </trkpt>
      <trkpt lat="43.82013" lon="2.41283">
        <ele>599.42</ele>
        <time>2016-06-10T11:32:40Z</time>
      </trkpt>
      <trkpt lat="43.82053" lon="2.41301">
        <ele>600.034</ele>
        <time>2016-06-10T11:32:20Z</time>
      </trkpt>
      <trkpt lat="43.82099" lon="2.41355">
        <ele>607.381</ele>
        <time>2016-06-10T11:32:00Z</time>
      </trkpt>
      <trkpt lat="43.82148" lon="2.41521">
        <ele>605.116</ele>
        <time>2016-06-10T11:31:40Z</time>
      </trkpt>
      <trkpt lat="43.82187" lon="2.41536">
        <ele>604.15</ele>
        <time>2016-06-10T11:31:20Z</time>
      </trkpt>
      <trkpt lat="43.82255" lon="2.41435">
        <ele>610.108</ele>
        <time>2016-06-10T11:31:00Z</time>
      </trkpt>
      <trkpt lat="43.82363" lon="2.4133">
        <ele>609.409</ele>
        <time>2016-06-10T11:30:40Z</time>
      </trkpt>
      <trkpt lat="43.82548" lon="2.4134">
        <ele>602.081</ele>
        <time>2016-06-10T11:30:20Z</time>
      </trkpt>
      <trkpt lat="43.82609" lon="2.41377">
        <ele>601.741</ele>
        <time>2016-06-10T11:30:00Z</time>
      </trkpt>
      <trkpt lat="43.82661" lon="2.41377">
        <ele>600.249</ele>
        <time>2016-06-10T11:29:40Z</time>
      </trkpt>
      <trkpt lat="43.82678" lon="2.41396">
        <ele>599.92</ele>
        <time>2016-06-10T11:29:20Z</time>
      </trkpt>
      <trkpt lat="43.82743" lon="2.41405">
        <ele>599.684</ele>
        <time>2016-06-10T11:29:00Z</time>
      </trkpt>
      <trkpt lat="43.82743" lon="2.41405">
        <ele>599.642</ele>
        <time>2016-06-10T11:28:40Z</time>
      </trkpt>
      <trkpt lat="43.82911" lon="2.41424">
        <ele>592.266</ele>
        <time>2016-06-10T11:28:20Z</time>
      </trkpt>
      <trkpt lat="43.82962" lon="2.41392">
        <ele>589.493</ele>
        <time>2016-06-10T11:28:00Z</time>
      </trkpt>
      <trkpt lat="43.8306" lon="2.41351">
        <ele>572.188</ele>
        <time>2016-06-10T11:27:40Z</time>
      </trkpt>
      <trkpt lat="43.8312" lon="2.41203">
        <ele>563.712</ele>
        <time>2016-06-10T11:27:20Z</time>
      </trkpt>
      <trkpt lat="43.83173" lon="2.41132">
        <ele>557.208</ele>
        <time>2016-06-10T11:27:00Z</time>
      </trkpt>
      <trkpt lat="43.83257" lon="2.41066">
        <ele>547.621</ele>
        <time>2016-06-10T11:26:40Z</time>
      </trkpt>
      <trkpt lat="43.83304" lon="2.41044">
        <ele>546.029</ele>
        <time>2016-06-10T11:26:20Z</time>
      </trkpt>
      <trkpt lat="43.83283" lon="2.41113">
        <ele>537.666</ele>
        <time>2016-06-10T11:26:00Z</time>
      </trkpt>
      <trkpt lat="43.8326" lon="2.41134">
        <ele>537.939</ele>
        <time>2016-06-10T11:25:40Z</time>
      </trkpt>
      <trkpt lat="43.83196" lon="2.41267">
        <ele>533.41</ele>
        <time>2016-06-10T11:25:20Z</time>
      </trkpt>
      <trkpt lat="43.83201" lon="2.41315">
        <ele>527.934</ele>
        <time>2016-06-10T11:25:00Z</time>
      </trkpt>
      <trkpt lat="43.83263" lon="2.41409">
        <ele>498.112</ele>
        <time>2016-06-10T11:24:40Z</time>
      </trkpt>
      <trkpt lat="43.83277" lon="2.41491">
        <ele>494.166</ele>
        <time>2016-06-10T11:24:20Z</time>
      </trkpt>
      <trkpt lat="43.8326" lon="2.41555">
        <ele>494.373</ele>
        <time>2016-06-10T11:24:00Z</time>
      </trkpt>
      <trkpt lat="43.83239" lon="2.41658">
        <ele>482.118</ele>
        <time>2016-06-10T11:23:40Z</time>
      </trkpt>
      <trkpt lat="43.83192" lon="2.4178">
        <ele>464.732</ele>
        <time>2016-06-10T11:23:20Z</time>
      </trkpt>
      <trkpt lat="43.83185" lon="2.4187">
        <ele>455.608</ele>
        <time>2016-06-10T11:23:00Z</time>
      </trkpt>
      <trkpt lat="43.83165" lon="2.41978">
        <ele>441.818</ele>
        <time>2016-06-10T11:22:40Z</time>
      </trkpt>
      <trkpt lat="43.83207" lon="2.42051">
        <ele>431.244</ele>
        <time>2016-06-10T11:22:20Z</time>
      </trkpt>
      <trkpt lat="43.83246" lon="2.42156">
        <ele>418.863</ele>
        <time>2016-06-10T11:22:00Z</time>
      </trkpt>
      <trkpt lat="43.8326" lon="2.42278">
        <ele>409.695</ele>
        <time>2016-06-10T11:21:40Z</time>
      </trkpt>
      <trkpt lat="43.83244" lon="2.42366">
        <ele>406.466</ele>
        <time>2016-06-10T11:21:20Z</time>
      </trkpt>
      <trkpt lat="43.8327" lon="2.4246">
        <ele>403.02</ele>
        <time>2016-06-10T11:21:00Z</time>
      </trkpt>
      <trkpt lat="43.83342" lon="2.4257">
        <ele>404.698</ele>
        <time>2016-06-10T11:20:40Z</time>
      </trkpt>
      <trkpt lat="43.83269" lon="2.42765">
        <ele>412.412</ele>
        <time>2016-06-10T11:20:20Z</time>
      </trkpt>
      <trkpt lat="43.83147" lon="2.43044">
        <ele>427.479</ele>
        <time>2016-06-10T11:20:00Z</time>
      </trkpt>
      <trkpt lat="43.83085" lon="2.43074">
        <ele>438.364</ele>
        <time>2016-06-10T11:19:20Z</time>
      </trkpt>
      <trkpt lat="43.83004" lon="2.43175">
        <ele>446.268</ele>
        <time>2016-06-10T11:19:00Z</time>
      </trkpt>
      <trkpt lat="43.82975" lon="2.43398">
        <ele>454.808</ele>
        <time>2016-06-10T11:18:40Z</time>
      </trkpt>
      <trkpt lat="43.82862" lon="2.43581">
        <ele>468.014</ele>
        <time>2016-06-10T11:18:00Z</time>
      </trkpt>
      <trkpt lat="43.82857" lon="2.43645">
        <ele>466.068</ele>
        <time>2016-06-10T11:17:40Z</time>
      </trkpt>
      <trkpt lat="43.82857" lon="2.43645">
        <ele>466.027</ele>
        <time>2016-06-10T11:17:20Z</time>
      </trkpt>
      <trkpt lat="43.82871" lon="2.43752">
        <ele>461.294</ele>
        <time>2016-06-10T11:17:00Z</time>
      </trkpt>
      <trkpt lat="43.82907" lon="2.43739">
        <ele>459.845</ele>
        <time>2016-06-10T11:16:40Z</time>
      </trkpt>
      <trkpt lat="43.82945" lon="2.43742">
        <ele>459.869</ele>
        <time>2016-06-10T11:16:20Z</time>
      </trkpt>
      <trkpt lat="43.8297" lon="2.43778">
        <ele>462.967</ele>
        <time>2016-06-10T11:16:00Z</time>
      </trkpt>
      <trkpt lat="43.83012" lon="2.43647">
        <ele>461.131</ele>
        <time>2016-06-10T11:15:40Z</time>
      </trkpt>
      <trkpt lat="43.83046" lon="2.43643">
        <ele>466.648</ele>
        <time>2016-06-10T11:15:20Z</time>
      </trkpt>
      <trkpt lat="43.83187" lon="2.43495">
        <ele>476.463</ele>
        <time>2016-06-10T11:15:00Z</time>
      </trkpt>
      <trkpt lat="43.8326" lon="2.43475">
        <ele>477.827</ele>
        <time>2016-06-10T11:14:40Z</time>
      </trkpt>
      <trkpt lat="43.83312" lon="2.43497">
        <ele>489.608</ele>
        <time>2016-06-10T11:14:20Z</time>
      </trkpt>
      <trkpt lat="43.833" lon="2.43438">
        <ele>499.407</ele>
        <time>2020-12-27T02:12:15Z</time>
      </trkpt>
      <trkpt lat="43.83308" lon="2.43399">
        <ele>503.743</ele>
        <time>2020-12-27T02:11:55Z</time>
      </trkpt>
      <trkpt lat="43.83342" lon="2.43393">
        <ele>515.613</ele>
        <time>2020-12-27T02:11:35Z</time>
      </trkpt>
      <trkpt lat="43.83481" lon="2.43396">
        <ele>566.127</ele>
        <time>2020-12-27T02:11:15Z</time>
      </trkpt>
      <trkpt lat="43.83522" lon="2.43372">
        <ele>575.898</ele>
        <time>2020-12-27T02:10:55Z</time>
      </trkpt>
      <trkpt lat="43.83564" lon="2.4333">
        <ele>582.452</ele>
        <time>2020-12-27T02:10:35Z</time>
      </trkpt>
      <trkpt lat="43.83671" lon="2.43146">
        <ele>593.52</ele>
        <time>2020-12-27T02:10:15Z</time>
      </trkpt>
      <trkpt lat="43.83672" lon="2.43083">
        <ele>589.184</ele>
        <time>2020-12-27T02:09:55Z</time>
      </trkpt>
      <trkpt lat="43.83755" lon="2.43334">
        <ele>619.851</ele>
        <time>2020-12-27T02:09:35Z</time>
      </trkpt>
      <trkpt lat="43.83787" lon="2.43319">
        <ele>624.386</ele>
        <time>2020-12-27T02:09:15Z</time>
      </trkpt>
      <trkpt lat="43.83791" lon="2.43204">
        <ele>622.78</ele>
        <time>2020-12-27T02:08:55Z</time>
      </trkpt>
      <trkpt lat="43.83871" lon="2.43186">
        <ele>624.408</ele>
        <time>2016-06-10T11:08:20Z</time>
      </trkpt>
      <trkpt lat="43.83955" lon="2.43076">
        <ele>619.516</ele>
        <time>2016-06-10T11:08:00Z</time>
      </trkpt>
      <trkpt lat="43.84032" lon="2.43018">
        <ele>620.488</ele>
        <time>2016-06-10T11:07:40Z</time>
      </trkpt>
      <trkpt lat="43.84095" lon="2.42933">
        <ele>618.446</ele>
        <time>2016-06-10T11:07:20Z</time>
      </trkpt>
      <trkpt lat="43.84154" lon="2.42909">
        <ele>608.078</ele>
        <time>2016-06-10T11:07:00Z</time>
      </trkpt>
      <trkpt lat="43.84179" lon="2.42845">
        <ele>603.559</ele>
        <time>2016-06-10T11:06:40Z</time>
      </trkpt>
      <trkpt lat="43.84181" lon="2.42718">
        <ele>598.763</ele>
        <time>2016-06-10T11:06:20Z</time>
      </trkpt>
      <trkpt lat="43.84213" lon="2.42392">
        <ele>580.871</ele>
        <time>2016-06-10T11:06:00Z</time>
      </trkpt>
      <trkpt lat="43.84238" lon="2.42291">
        <ele>575.765</ele>
        <time>2016-06-10T11:05:40Z</time>
      </trkpt>
      <trkpt lat="43.84269" lon="2.42413">
        <ele>566.762</ele>
        <time>2016-06-10T11:05:20Z</time>
      </trkpt>
      <trkpt lat="43.84252" lon="2.42555">
        <ele>572.087</ele>
        <time>2016-06-10T11:05:00Z</time>
      </trkpt>
      <trkpt lat="43.84402" lon="2.42604">
        <ele>595.061</ele>
        <time>2016-06-10T11:04:40Z</time>
      </trkpt>
      <trkpt lat="43.8456" lon="2.42594">
        <ele>617.208</ele>
        <time>2016-06-10T11:04:20Z</time>
      </trkpt>
      <trkpt lat="43.84704" lon="2.42624">
        <ele>633.917</ele>
        <time>2016-06-10T11:04:00Z</time>
      </trkpt>
      <trkpt lat="43.84733" lon="2.42636">
        <ele>635.007</ele>
        <time>2016-06-10T11:03:40Z</time>
      </trkpt>
      <trkpt lat="43.84789" lon="2.4284">
        <ele>645.055</ele>
        <time>2016-06-10T11:03:20Z</time>
      </trkpt>
      <trkpt lat="43.84792" lon="2.42905">
        <ele>645.081</ele>
        <time>2016-06-10T11:03:00Z</time>
      </trkpt>
      <trkpt lat="43.84869" lon="2.4289">
        <ele>648.632</ele>
        <time>2016-06-10T11:02:40Z</time>
      </trkpt>
      <trkpt lat="43.84913" lon="2.42939">
        <ele>650.076</ele>
        <time>2016-06-10T11:02:20Z</time>
      </trkpt>
      <trkpt lat="43.84916" lon="2.42982">
        <ele>650.014</ele>
        <time>2016-06-10T11:02:00Z</time>
      </trkpt>
      <trkpt lat="43.84914" lon="2.43061">
        <ele>650.078</ele>
        <time>2016-06-10T11:01:40Z</time>
      </trkpt>
      <trkpt lat="43.84869" lon="2.43181">
        <ele>650.055</ele>
        <time>2016-06-10T11:01:20Z</time>
      </trkpt>
      <trkpt lat="43.85008" lon="2.43222">
        <ele>646.72</ele>
        <time>2016-06-10T11:01:00Z</time>
      </trkpt>
      <trkpt lat="43.85107" lon="2.43186">
        <ele>643.334</ele>
        <time>2016-06-10T11:00:40Z</time>
      </trkpt>
      <trkpt lat="43.85239" lon="2.43046">
        <ele>627.108</ele>
        <time>2016-06-10T11:00:20Z</time>
      </trkpt>
      <trkpt lat="43.85306" lon="2.42905">
        <ele>618.117</ele>
        <time>2016-06-10T11:00:00Z</time>
      </trkpt>
      <trkpt lat="43.85346" lon="2.42752">
        <ele>604.407</ele>
        <time>2016-06-10T10:59:40Z</time>
      </trkpt>
      <trkpt lat="43.85354" lon="2.42596">
        <ele>595.984</ele>
        <time>2016-06-10T10:59:20Z</time>
      </trkpt>
      <trkpt lat="43.85397" lon="2.42454">
        <ele>587.336</ele>
        <time>2016-06-10T10:59:00Z</time>
      </trkpt>
      <trkpt lat="43.85435" lon="2.42355">
        <ele>576.737</ele>
        <time>2016-06-10T10:58:40Z</time>
      </trkpt>
      <trkpt lat="43.85499" lon="2.42238">
        <ele>559.261</ele>
        <time>2016-06-10T10:58:20Z</time>
      </trkpt>
      <trkpt lat="43.8553" lon="2.42224">
        <ele>554.199</ele>
        <time>2016-06-10T10:58:00Z</time>
      </trkpt>
      <trkpt lat="43.85558" lon="2.42169">
        <ele>548.123</ele>
        <time>2016-06-10T10:57:40Z</time>
      </trkpt>
      <trkpt lat="43.85544" lon="2.42115">
        <ele>544.11</ele>
        <time>2016-06-10T10:57:20Z</time>
      </trkpt>
      <trkpt lat="43.85505" lon="2.42109">
        <ele>538.485</ele>
        <time>2016-06-10T10:57:00Z</time>
      </trkpt>
      <trkpt lat="43.85377" lon="2.42177">
        <ele>531.279</ele>
        <time>2016-06-10T10:56:40Z</time>
      </trkpt>
      <trkpt lat="43.85445" lon="2.4207">
        <ele>519.208</ele>
        <time>2016-06-10T10:56:20Z</time>
      </trkpt>
      <trkpt lat="43.85556" lon="2.41965">
        <ele>512.915</ele>
        <time>2016-06-10T10:56:00Z</time>
      </trkpt>
      <trkpt lat="43.85607" lon="2.41885">
        <ele>498.923</ele>
        <time>2016-06-10T10:55:40Z</time>
      </trkpt>
      <trkpt lat="43.85668" lon="2.41845">
        <ele>492.033</ele>
        <time>2016-06-10T10:55:00Z</time>
      </trkpt>
      <trkpt lat="43.85783" lon="2.41844">
        <ele>480.444</ele>
        <time>2016-06-10T10:54:40Z</time>
      </trkpt>
      <trkpt lat="43.85875" lon="2.41885">
        <ele>472.425</ele>
        <time>2016-06-10T10:54:20Z</time>
      </trkpt>
      <trkpt lat="43.85914" lon="2.41939">
        <ele>466.349</ele>
        <time>2016-06-10T10:54:00Z</time>
      </trkpt>
      <trkpt lat="43.85989" lon="2.41899">
        <ele>473.027</ele>
        <time>2016-06-10T10:53:40Z</time>
      </trkpt>
      <trkpt lat="43.85969" lon="2.41838">
        <ele>471.241</ele>
        <time>2016-06-10T10:53:20Z</time>
      </trkpt>
      <trkpt lat="43.85959" lon="2.41763">
        <ele>477.758</ele>
        <time>2016-06-10T10:53:00Z</time>
      </trkpt>
      <trkpt lat="43.85923" lon="2.41707">
        <ele>477.173</ele>
        <time>2016-06-10T10:52:40Z</time>
      </trkpt>
      <trkpt lat="43.85972" lon="2.41737">
        <ele>486.337</ele>
        <time>2016-06-10T10:52:20Z</time>
      </trkpt>
      <trkpt lat="43.8588" lon="2.41624">
        <ele>486.608</ele>
        <time>2016-06-10T10:52:00Z</time>
      </trkpt>
      <trkpt lat="43.85777" lon="2.41551">
        <ele>491.617</ele>
        <time>2016-06-10T10:51:40Z</time>
      </trkpt>
      <trkpt lat="43.86042" lon="2.41626">
        <ele>517.398</ele>
        <time>2016-06-10T10:51:20Z</time>
      </trkpt>
      <trkpt lat="43.86093" lon="2.4166">
        <ele>522.418</ele>
        <time>2016-06-10T10:51:00Z</time>
      </trkpt>
      <trkpt lat="43.86174" lon="2.41714">
        <ele>532.171</ele>
        <time>2016-06-10T10:50:40Z</time>
      </trkpt>
      <trkpt lat="43.86144" lon="2.41789">
        <ele>540.222</ele>
        <time>2016-06-10T10:50:20Z</time>
      </trkpt>
      <trkpt lat="43.86144" lon="2.41883">
        <ele>544.736</ele>
        <time>2016-06-10T10:50:00Z</time>
      </trkpt>
      <trkpt lat="43.86174" lon="2.41952">
        <ele>551.814</ele>
        <time>2016-06-10T10:49:40Z</time>
      </trkpt>
      <trkpt lat="43.86192" lon="2.41978">
        <ele>554.228</ele>
        <time>2016-06-10T10:49:20Z</time>
      </trkpt>
      <trkpt lat="43.86282" lon="2.4219">
        <ele>579.725</ele>
        <time>2016-06-10T10:49:00Z</time>
      </trkpt>
      <trkpt lat="43.86333" lon="2.42264">
        <ele>584.99</ele>
        <time>2016-06-10T10:48:40Z</time>
      </trkpt>
      <trkpt lat="43.86362" lon="2.42327">
        <ele>589.694</ele>
        <time>2016-06-10T10:48:20Z</time>
      </trkpt>
      <trkpt lat="43.86364" lon="2.42403">
        <ele>592.108</ele>
        <time>2016-06-10T10:48:00Z</time>
      </trkpt>
      <trkpt lat="43.8637" lon="2.4243">
        <ele>592.017</ele>
        <time>2016-06-10T10:47:40Z</time>
      </trkpt>
      <trkpt lat="43.86452" lon="2.4243">
        <ele>595.043</ele>
        <time>2016-06-10T10:47:20Z</time>
      </trkpt>
      <trkpt lat="43.86536" lon="2.42525">
        <ele>597.182</ele>
        <time>2016-06-10T10:47:00Z</time>
      </trkpt>
      <trkpt lat="43.86625" lon="2.4269">
        <ele>609.436</ele>
        <time>2016-06-10T10:46:40Z</time>
      </trkpt>
      <trkpt lat="43.86658" lon="2.4278">
        <ele>611.547</ele>
        <time>2016-06-10T10:46:20Z</time>
      </trkpt>
      <trkpt lat="43.86707" lon="2.42819">
        <ele>615.461</ele>
        <time>2016-06-10T10:46:00Z</time>
      </trkpt>
      <trkpt lat="43.86789" lon="2.42836">
        <ele>618.719</ele>
        <time>2016-06-10T10:45:20Z</time>
      </trkpt>
      <trkpt lat="43.86884" lon="2.42903">
        <ele>622.473</ele>
        <time>2016-06-10T10:45:00Z</time>
      </trkpt>
      <trkpt lat="43.86972" lon="2.43055">
        <ele>620.03</ele>
        <time>2016-06-10T10:44:40Z</time>
      </trkpt>
      <trkpt lat="43.8702" lon="2.43231">
        <ele>612.375</ele>
        <time>2016-06-10T10:44:20Z</time>
      </trkpt>
      <trkpt lat="43.87148" lon="2.43456">
        <ele>615.099</ele>
        <time>2016-06-10T10:44:00Z</time>
      </trkpt>
      <trkpt lat="43.86993" lon="2.43435">
        <ele>612.108</ele>
        <time>2016-06-10T10:43:40Z</time>
      </trkpt>
      <trkpt lat="43.86862" lon="2.43516">
        <ele>604.907</ele>
        <time>2016-06-10T10:43:20Z</time>
      </trkpt>
      <trkpt lat="43.86997" lon="2.43555">
        <ele>604.561</ele>
        <time>2016-06-10T10:43:00Z</time>
      </trkpt>
      <trkpt lat="43.87079" lon="2.43651">
        <ele>609.031</ele>
        <time>2016-06-10T10:42:40Z</time>
      </trkpt>
      <trkpt lat="43.87135" lon="2.43685">
        <ele>612.058</ele>
        <time>2016-06-10T10:41:40Z</time>
      </trkpt>
      <trkpt lat="43.87194" lon="2.43784">
        <ele>614.519</ele>
        <time>2016-06-10T10:41:00Z</time>
      </trkpt>
      <trkpt lat="43.87339" lon="2.43874">
        <ele>622.123</ele>
        <time>2016-06-10T10:40:40Z</time>
      </trkpt>
      <trkpt lat="43.87383" lon="2.43859">
        <ele>622.461</ele>
        <time>2016-06-10T10:40:20Z</time>
      </trkpt>
      <trkpt lat="43.87422" lon="2.43814">
        <ele>623.565</ele>
        <time>2016-06-10T10:40:00Z</time>
      </trkpt>
      <trkpt lat="43.87465" lon="2.43701">
        <ele>626.052</ele>
        <time>2016-06-10T10:39:40Z</time>
      </trkpt>
      <trkpt lat="43.87501" lon="2.43673">
        <ele>625.037</ele>
        <time>2016-06-10T10:39:20Z</time>
      </trkpt>
      <trkpt lat="43.87487" lon="2.43789">
        <ele>621.981</ele>
        <time>2016-06-10T10:39:00Z</time>
      </trkpt>
      <trkpt lat="43.87433" lon="2.43975">
        <ele>605.808</ele>
        <time>2016-06-10T10:38:40Z</time>
      </trkpt>
      <trkpt lat="43.87366" lon="2.44147">
        <ele>587.92</ele>
        <time>2016-06-10T10:38:20Z</time>
      </trkpt>
      <trkpt lat="43.8736" lon="2.44272">
        <ele>588.6</ele>
        <time>2016-06-10T10:38:00Z</time>
      </trkpt>
      <trkpt lat="43.87309" lon="2.44342">
        <ele>566.857</ele>
        <time>2016-06-10T10:37:40Z</time>
      </trkpt>
      <trkpt lat="43.87292" lon="2.44381">
        <ele>560.875</ele>
        <time>2016-06-10T10:37:20Z</time>
      </trkpt>
      <trkpt lat="43.87272" lon="2.44344">
        <ele>555.966</ele>
        <time>2016-06-10T10:37:00Z</time>
      </trkpt>
      <trkpt lat="43.87239" lon="2.44355">
        <ele>542.72</ele>
        <time>2016-06-10T10:36:40Z</time>
      </trkpt>
      <trkpt lat="43.87202" lon="2.4442">
        <ele>534.078</ele>
        <time>2016-06-10T10:36:00Z</time>
      </trkpt>
      <trkpt lat="43.87191" lon="2.44375">
        <ele>528.062</ele>
        <time>2016-06-10T10:35:40Z</time>
      </trkpt>
      <trkpt lat="43.87162" lon="2.44435">
        <ele>520.019</ele>
        <time>2016-06-10T10:35:20Z</time>
      </trkpt>
      <trkpt lat="43.87159" lon="2.44465">
        <ele>514.064</ele>
        <time>2016-06-10T10:35:00Z</time>
      </trkpt>
      <trkpt lat="43.87111" lon="2.44443">
        <ele>495.038</ele>
        <time>2016-06-10T10:34:40Z</time>
      </trkpt>
      <trkpt lat="43.87125" lon="2.44495">
        <ele>494.608</ele>
        <time>2016-06-10T10:34:20Z</time>
      </trkpt>
      <trkpt lat="43.87167" lon="2.44542">
        <ele>491.508</ele>
        <time>2016-06-10T10:34:00Z</time>
      </trkpt>
      <trkpt lat="43.87174" lon="2.44626">
        <ele>491.562</ele>
        <time>2016-06-10T10:33:40Z</time>
      </trkpt>
      <trkpt lat="43.87218" lon="2.44709">
        <ele>505.622</ele>
        <time>2016-06-10T10:33:20Z</time>
      </trkpt>
      <trkpt lat="43.87171" lon="2.44797">
        <ele>503.741</ele>
        <time>2016-06-10T10:33:00Z</time>
      </trkpt>
      <trkpt lat="43.86993" lon="2.44819">
        <ele>495.182</ele>
        <time>2016-06-10T10:32:40Z</time>
      </trkpt>
      <trkpt lat="43.86988" lon="2.44913">
        <ele>510.626</ele>
        <time>2016-06-10T10:32:20Z</time>
      </trkpt>
      <trkpt lat="43.86993" lon="2.44999">
        <ele>518.384</ele>
        <time>2016-06-10T10:31:40Z</time>
      </trkpt>
      <trkpt lat="43.8702" lon="2.45061">
        <ele>530.188</ele>
        <time>2016-06-10T10:31:20Z</time>
      </trkpt>
      <trkpt lat="43.87052" lon="2.45166">
        <ele>543.925</ele>
        <time>2016-06-10T10:30:40Z</time>
      </trkpt>
      <trkpt lat="43.87062" lon="2.45083">
        <ele>543.07</ele>
        <time>2016-06-10T10:29:20Z</time>
      </trkpt>
      <trkpt lat="43.87108" lon="2.4501">
        <ele>545.254</ele>
        <time>2016-06-10T10:29:00Z</time>
      </trkpt>
      <trkpt lat="43.87176" lon="2.44984">
        <ele>550.108</ele>
        <time>2016-06-10T10:28:40Z</time>
      </trkpt>
      <trkpt lat="43.87286" lon="2.44986">
        <ele>571.326</ele>
        <time>2016-06-10T10:28:20Z</time>
      </trkpt>
      <trkpt lat="43.87405" lon="2.44958">
        <ele>585.506</ele>
        <time>2016-06-10T10:28:00Z</time>
      </trkpt>
      <trkpt lat="43.87501" lon="2.45098">
        <ele>601.589</ele>
        <time>2016-06-10T10:27:40Z</time>
      </trkpt>
      <trkpt lat="43.87589" lon="2.45274">
        <ele>613.561</ele>
        <time>2016-06-10T10:27:20Z</time>
      </trkpt>
      <trkpt lat="43.87744" lon="2.45565">
        <ele>606.172</ele>
        <time>2016-06-10T10:27:00Z</time>
      </trkpt>
      <trkpt lat="43.87815" lon="2.45641">
        <ele>610.776</ele>
        <time>2016-06-10T10:26:40Z</time>
      </trkpt>
      <trkpt lat="43.87911" lon="2.45864">
        <ele>622.784</ele>
        <time>2016-06-10T10:26:20Z</time>
      </trkpt>
      <trkpt lat="43.87985" lon="2.45909">
        <ele>621.888</ele>
        <time>2016-06-10T10:26:00Z</time>
      </trkpt>
      <trkpt lat="43.88311" lon="2.45975">
        <ele>600.135</ele>
        <time>2016-06-10T10:25:40Z</time>
      </trkpt>
      <trkpt lat="43.88404" lon="2.45967">
        <ele>595.09</ele>
        <time>2016-06-10T10:25:20Z</time>
      </trkpt>
      <trkpt lat="43.88471" lon="2.46087">
        <ele>593.724</ele>
        <time>2016-06-10T10:25:00Z</time>
      </trkpt>
      <trkpt lat="43.88568" lon="2.46179">
        <ele>594.408</ele>
        <time>2016-06-10T10:24:40Z</time>
      </trkpt>
      <trkpt lat="43.88652" lon="2.46175">
        <ele>603.317</ele>
        <time>2016-06-10T10:24:20Z</time>
      </trkpt>
      <trkpt lat="43.88775" lon="2.46269">
        <ele>610.161</ele>
        <time>2016-06-10T10:24:00Z</time>
      </trkpt>
      <trkpt lat="43.88817" lon="2.46196">
        <ele>607.681</ele>
        <time>2016-06-10T10:23:40Z</time>
      </trkpt>
      <trkpt lat="43.88849" lon="2.46074">
        <ele>610.641</ele>
        <time>2016-06-10T10:23:20Z</time>
      </trkpt>
      <trkpt lat="43.88924" lon="2.46029">
        <ele>615.092</ele>
        <time>2016-06-10T10:23:00Z</time>
      </trkpt>
      <trkpt lat="43.89092" lon="2.4607">
        <ele>615.086</ele>
        <time>2016-06-10T10:22:40Z</time>
      </trkpt>
      <trkpt lat="43.89187" lon="2.46123">
        <ele>614.144</ele>
        <time>2016-06-10T10:22:20Z</time>
      </trkpt>
      <trkpt lat="43.89259" lon="2.46138">
        <ele>609.728</ele>
        <time>2016-06-10T10:22:00Z</time>
      </trkpt>
      <trkpt lat="43.89355" lon="2.46426">
        <ele>606.535</ele>
        <time>2016-06-10T10:21:20Z</time>
      </trkpt>
      <trkpt lat="43.89363" lon="2.46512">
        <ele>605.04</ele>
        <time>2016-06-10T10:21:00Z</time>
      </trkpt>
      <trkpt lat="43.89385" lon="2.46567">
        <ele>605.094</ele>
        <time>2016-06-10T10:20:40Z</time>
      </trkpt>
      <trkpt lat="43.89415" lon="2.4667">
        <ele>604.208</ele>
        <time>2016-06-10T10:20:20Z</time>
      </trkpt>
      <trkpt lat="43.89448" lon="2.46705">
        <ele>602.326</ele>
        <time>2016-06-10T10:20:00Z</time>
      </trkpt>
      <trkpt lat="43.89524" lon="2.46726">
        <ele>596.406</ele>
        <time>2016-06-10T10:19:40Z</time>
      </trkpt>
      <trkpt lat="43.89604" lon="2.46756">
        <ele>588.989</ele>
        <time>2016-06-10T10:19:20Z</time>
      </trkpt>
      <trkpt lat="43.89726" lon="2.4681">
        <ele>573.645</ele>
        <time>2016-06-10T10:19:00Z</time>
      </trkpt>
      <trkpt lat="43.8976" lon="2.46876">
        <ele>568.516</ele>
        <time>2016-06-10T10:18:40Z</time>
      </trkpt>
      <trkpt lat="43.89824" lon="2.46954">
        <ele>565.14</ele>
        <time>2016-06-10T10:18:20Z</time>
      </trkpt>
      <trkpt lat="43.89895" lon="2.46989">
        <ele>558.928</ele>
        <time>2016-06-10T10:18:00Z</time>
      </trkpt>
      <trkpt lat="43.89955" lon="2.47059">
        <ele>533.852</ele>
        <time>2016-06-10T10:17:40Z</time>
      </trkpt>
      <trkpt lat="43.89974" lon="2.47128">
        <ele>529.959</ele>
        <time>2016-06-10T10:17:20Z</time>
      </trkpt>
      <trkpt lat="43.89886" lon="2.47117">
        <ele>543.584</ele>
        <time>2016-06-10T10:17:00Z</time>
      </trkpt>
      <trkpt lat="43.89824" lon="2.4717">
        <ele>521.528</ele>
        <time>2016-06-10T10:16:40Z</time>
      </trkpt>
      <trkpt lat="43.89878" lon="2.47183">
        <ele>510.708</ele>
        <time>2016-06-10T10:16:20Z</time>
      </trkpt>
      <trkpt lat="43.89938" lon="2.472">
        <ele>506.22</ele>
        <time>2016-06-10T10:16:00Z</time>
      </trkpt>
      <trkpt lat="43.90015" lon="2.47265">
        <ele>486.1</ele>
        <time>2016-06-10T10:15:40Z</time>
      </trkpt>
      <trkpt lat="43.89988" lon="2.47263">
        <ele>487.929</ele>
        <time>2016-06-10T10:15:20Z</time>
      </trkpt>
      <trkpt lat="43.89949" lon="2.47284">
        <ele>477.862</ele>
        <time>2016-06-10T10:15:00Z</time>
      </trkpt>
      <trkpt lat="43.8993" lon="2.47284">
        <ele>474.363</ele>
        <time>2016-06-10T10:14:40Z</time>
      </trkpt>
      <trkpt lat="43.8992" lon="2.47293">
        <ele>469.377</ele>
        <time>2016-06-10T10:14:20Z</time>
      </trkpt>
      <trkpt lat="43.89889" lon="2.47278">
        <ele>468.065</ele>
        <time>2016-06-10T10:14:00Z</time>
      </trkpt>
      <trkpt lat="43.89824" lon="2.47336">
        <ele>458.239</ele>
        <time>2016-06-10T10:13:40Z</time>
      </trkpt>
      <trkpt lat="43.89783" lon="2.47344">
        <ele>449.976</ele>
        <time>2016-06-10T10:13:20Z</time>
      </trkpt>
      <trkpt lat="43.89862" lon="2.47421">
        <ele>434.881</ele>
        <time>2016-06-10T10:13:00Z</time>
      </trkpt>
      <trkpt lat="43.89958" lon="2.47445">
        <ele>422.845</ele>
        <time>2016-06-10T10:12:40Z</time>
      </trkpt>
      <trkpt lat="43.90091" lon="2.47469">
        <ele>404.008</ele>
        <time>2016-06-10T10:12:20Z</time>
      </trkpt>
      <trkpt lat="43.90128" lon="2.47462">
        <ele>399.624</ele>
        <time>2016-06-10T10:12:00Z</time>
      </trkpt>
      <trkpt lat="43.90202" lon="2.4737">
        <ele>389.031</ele>
        <time>2016-06-10T10:11:40Z</time>
      </trkpt>
      <trkpt lat="43.90213" lon="2.47241">
        <ele>405.196</ele>
        <time>2016-06-10T10:11:20Z</time>
      </trkpt>
      <trkpt lat="43.90263" lon="2.47327">
        <ele>406.09</ele>
        <time>2016-06-10T10:11:00Z</time>
      </trkpt>
      <trkpt lat="43.90326" lon="2.4737">
        <ele>409.541</ele>
        <time>2016-06-10T10:10:40Z</time>
      </trkpt>
      <trkpt lat="43.90399" lon="2.47394">
        <ele>402.475</ele>
        <time>2016-06-10T10:10:20Z</time>
      </trkpt>
      <trkpt lat="43.90419" lon="2.47486">
        <ele>363.243</ele>
        <time>2016-06-10T10:09:40Z</time>
      </trkpt>
      <trkpt lat="43.90329" lon="2.47512">
        <ele>371.527</ele>
        <time>2016-06-10T10:09:20Z</time>
      </trkpt>
      <trkpt lat="43.90289" lon="2.47484">
        <ele>366.074</ele>
        <time>2016-06-10T10:09:00Z</time>
      </trkpt>
      <trkpt lat="43.90272" lon="2.47509">
        <ele>376.169</ele>
        <time>2016-06-10T10:08:40Z</time>
      </trkpt>
      <trkpt lat="43.90309" lon="2.47555">
        <ele>390.923</ele>
        <time>2016-06-10T10:08:20Z</time>
      </trkpt>
      <trkpt lat="43.90374" lon="2.47557">
        <ele>393.808</ele>
        <time>2016-06-10T10:08:00Z</time>
      </trkpt>
      <trkpt lat="43.90461" lon="2.47582">
        <ele>401.421</ele>
        <time>2016-06-10T10:07:40Z</time>
      </trkpt>
      <trkpt lat="43.90493" lon="2.47647">
        <ele>413.356</ele>
        <time>2016-06-10T10:07:20Z</time>
      </trkpt>
      <trkpt lat="43.90543" lon="2.47677">
        <ele>414.674</ele>
        <time>2016-06-10T10:07:00Z</time>
      </trkpt>
      <trkpt lat="43.90552" lon="2.47788">
        <ele>441.658</ele>
        <time>2016-06-10T10:06:40Z</time>
      </trkpt>
      <trkpt lat="43.90583" lon="2.47872">
        <ele>455.389</ele>
        <time>2016-06-10T10:06:20Z</time>
      </trkpt>
      <trkpt lat="43.90668" lon="2.47909">
        <ele>462.773</ele>
        <time>2016-06-10T10:06:00Z</time>
      </trkpt>
      <trkpt lat="43.90787" lon="2.47904">
        <ele>440.511</ele>
        <time>2016-06-10T10:05:40Z</time>
      </trkpt>
      <trkpt lat="43.90813" lon="2.47945">
        <ele>448.035</ele>
        <time>2016-06-10T10:05:20Z</time>
      </trkpt>
      <trkpt lat="43.90858" lon="2.47967">
        <ele>445.262</ele>
        <time>2016-06-10T10:05:00Z</time>
      </trkpt>
      <trkpt lat="43.90915" lon="2.47954">
        <ele>435.487</ele>
        <time>2016-06-10T10:04:40Z</time>
      </trkpt>
      <trkpt lat="43.90954" lon="2.47984">
        <ele>441.061</ele>
        <time>2016-06-10T10:04:20Z</time>
      </trkpt>
      <trkpt lat="43.9102" lon="2.47999">
        <ele>429.308</ele>
        <time>2016-06-10T10:04:00Z</time>
      </trkpt>
      <trkpt lat="43.91064" lon="2.47956">
        <ele>413.108</ele>
        <time>2016-06-10T10:03:40Z</time>
      </trkpt>
      <trkpt lat="43.91077" lon="2.48001">
        <ele>408.153</ele>
        <time>2016-06-10T10:03:20Z</time>
      </trkpt>
      <trkpt lat="43.91091" lon="2.48157">
        <ele>387.552</ele>
        <time>2016-06-10T10:03:00Z</time>
      </trkpt>
      <trkpt lat="43.91064" lon="2.4826">
        <ele>389.235</ele>
        <time>2016-06-10T10:02:40Z</time>
      </trkpt>
      <trkpt lat="43.91087" lon="2.48273">
        <ele>384.516</ele>
        <time>2016-06-10T10:02:20Z</time>
      </trkpt>
      <trkpt lat="43.91067" lon="2.48338">
        <ele>384.05</ele>
        <time>2016-06-10T10:02:00Z</time>
      </trkpt>
      <trkpt lat="43.91099" lon="2.48391">
        <ele>370.938</ele>
        <time>2016-06-10T10:01:40Z</time>
      </trkpt>
      <trkpt lat="43.91073" lon="2.48494">
        <ele>374.162</ele>
        <time>2016-06-10T10:01:20Z</time>
      </trkpt>
      <trkpt lat="43.91096" lon="2.48597">
        <ele>362.659</ele>
        <time>2016-06-10T10:01:00Z</time>
      </trkpt>
      <trkpt lat="43.91084" lon="2.48685">
        <ele>359.974</ele>
        <time>2016-06-10T10:00:40Z</time>
      </trkpt>
      <trkpt lat="43.91107" lon="2.4875">
        <ele>347.458</ele>
        <time>2016-06-10T10:00:20Z</time>
      </trkpt>
      <trkpt lat="43.91045" lon="2.48754">
        <ele>349.408</ele>
        <time>2016-06-10T10:00:00Z</time>
      </trkpt>
      <trkpt lat="43.91039" lon="2.4877">
        <ele>346.611</ele>
        <time>2016-06-10T09:59:40Z</time>
      </trkpt>
      <trkpt lat="43.91099" lon="2.48793">
        <ele>329.647</ele>
        <time>2016-06-10T09:59:20Z</time>
      </trkpt>
      <trkpt lat="43.91176" lon="2.48739">
        <ele>328.226</ele>
        <time>2016-06-10T09:59:00Z</time>
      </trkpt>
      <trkpt lat="43.91186" lon="2.48546">
        <ele>327.678</ele>
        <time>2016-06-10T09:58:40Z</time>
      </trkpt>
      <trkpt lat="43.91251" lon="2.48424">
        <ele>312.219</ele>
        <time>2016-06-10T09:58:20Z</time>
      </trkpt>
      <trkpt lat="43.91257" lon="2.48366">
        <ele>321.653</ele>
        <time>2016-06-10T09:58:00Z</time>
      </trkpt>
      <trkpt lat="43.91339" lon="2.48293">
        <ele>308.071</ele>
        <time>2016-06-10T09:57:40Z</time>
      </trkpt>
      <trkpt lat="43.91384" lon="2.48076">
        <ele>306.095</ele>
        <time>2016-06-10T09:57:20Z</time>
      </trkpt>
      <trkpt lat="43.9143" lon="2.48035">
        <ele>301.242</ele>
        <time>2016-06-10T09:57:00Z</time>
      </trkpt>
      <trkpt lat="43.91479" lon="2.48015">
        <ele>291.327</ele>
        <time>2016-06-10T09:56:40Z</time>
      </trkpt>
      <trkpt lat="43.91572" lon="2.47947">
        <ele>287.531</ele>
        <time>2016-06-10T09:56:20Z</time>
      </trkpt>
      <trkpt lat="43.91634" lon="2.47947">
        <ele>278.208</ele>
        <time>2016-06-10T09:56:00Z</time>
      </trkpt>
      <trkpt lat="43.91671" lon="2.47906">
        <ele>279.42</ele>
        <time>2016-06-10T09:55:40Z</time>
      </trkpt>
      <trkpt lat="43.91725" lon="2.47891">
        <ele>274.4</ele>
        <time>2016-06-10T09:55:20Z</time>
      </trkpt>
      <trkpt lat="43.91782" lon="2.47833">
        <ele>270.057</ele>
        <time>2016-06-10T09:55:00Z</time>
      </trkpt>
      <trkpt lat="43.92153" lon="2.48022">
        <ele>267.594</ele>
        <time>2016-06-10T09:54:40Z</time>
      </trkpt>
      <trkpt lat="43.92217" lon="2.48031">
        <ele>262.165</ele>
        <time>2016-06-10T09:54:20Z</time>
      </trkpt>
      <trkpt lat="43.92356" lon="2.47941">
        <ele>266.379</ele>
        <time>2016-06-10T09:54:00Z</time>
      </trkpt>
      <trkpt lat="43.92453" lon="2.47803">
        <ele>260.397</ele>
        <time>2016-06-10T09:53:40Z</time>
      </trkpt>
      <trkpt lat="43.92444" lon="2.47844">
        <ele>269.431</ele>
        <time>2016-06-10T09:53:20Z</time>
      </trkpt>
      <trkpt lat="43.925" lon="2.47829">
        <ele>275.928</ele>
        <time>2016-06-10T09:53:00Z</time>
      </trkpt>
      <trkpt lat="43.92439" lon="2.47911">
        <ele>287.853</ele>
        <time>2016-06-10T09:52:40Z</time>
      </trkpt>
      <trkpt lat="43.92484" lon="2.47889">
        <ele>292.757</ele>
        <time>2016-06-10T09:52:20Z</time>
      </trkpt>
      <trkpt lat="43.92564" lon="2.47881">
        <ele>300.208</ele>
        <time>2016-06-10T09:51:40Z</time>
      </trkpt>
      <trkpt lat="43.92518" lon="2.47915">
        <ele>310.105</ele>
        <time>2016-06-10T09:51:00Z</time>
      </trkpt>
      <trkpt lat="43.92503" lon="2.47956">
        <ele>318.332</ele>
        <time>2016-06-10T09:50:40Z</time>
      </trkpt>
      <trkpt lat="43.92529" lon="2.47926">
        <ele>316.612</ele>
        <time>2016-06-10T09:50:20Z</time>
      </trkpt>
      <trkpt lat="43.92575" lon="2.47932">
        <ele>320.862</ele>
        <time>2016-06-10T09:50:00Z</time>
      </trkpt>
      <trkpt lat="43.92527" lon="2.47984">
        <ele>334.313</ele>
        <time>2016-06-10T09:49:40Z</time>
      </trkpt>
      <trkpt lat="43.92577" lon="2.4796">
        <ele>332.477</ele>
        <time>2016-06-10T09:48:40Z</time>
      </trkpt>
      <trkpt lat="43.92626" lon="2.47977">
        <ele>338.765</ele>
        <time>2016-06-10T09:48:20Z</time>
      </trkpt>
      <trkpt lat="43.9267" lon="2.47945">
        <ele>338.319</ele>
        <time>2016-06-10T09:48:00Z</time>
      </trkpt>
      <trkpt lat="43.92716" lon="2.47973">
        <ele>347.216</ele>
        <time>2016-06-10T09:47:40Z</time>
      </trkpt>
      <trkpt lat="43.9275" lon="2.47906">
        <ele>355.261</ele>
        <time>2016-06-10T09:47:20Z</time>
      </trkpt>
      <trkpt lat="43.92755" lon="2.47851">
        <ele>351.825</ele>
        <time>2016-06-10T09:47:00Z</time>
      </trkpt>
      <trkpt lat="43.92792" lon="2.47833">
        <ele>352.508</ele>
        <time>2016-06-10T09:46:40Z</time>
      </trkpt>
      <trkpt lat="43.92772" lon="2.47876">
        <ele>358.22</ele>
        <time>2016-06-10T09:46:20Z</time>
      </trkpt>
      <trkpt lat="43.92787" lon="2.47913">
        <ele>363.273</ele>
        <time>2016-06-10T09:46:00Z</time>
      </trkpt>
      <trkpt lat="43.92765" lon="2.48001">
        <ele>370.692</ele>
        <time>2016-06-10T09:45:40Z</time>
      </trkpt>
      <trkpt lat="43.92685" lon="2.48091">
        <ele>371.432</ele>
        <time>2016-06-10T09:45:20Z</time>
      </trkpt>
      <trkpt lat="43.92728" lon="2.481">
        <ele>379.843</ele>
        <time>2016-06-10T09:45:00Z</time>
      </trkpt>
      <trkpt lat="43.92764" lon="2.48039">
        <ele>377.647</ele>
        <time>2016-06-10T09:44:40Z</time>
      </trkpt>
      <trkpt lat="43.92911" lon="2.47994">
        <ele>391.995</ele>
        <time>2016-06-10T09:44:20Z</time>
      </trkpt>
      <trkpt lat="43.92951" lon="2.47949">
        <ele>391.729</ele>
        <time>2016-06-10T09:44:00Z</time>
      </trkpt>
      <trkpt lat="43.9298" lon="2.47945">
        <ele>400.426</ele>
        <time>2016-06-10T09:43:40Z</time>
      </trkpt>
      <trkpt lat="43.9307" lon="2.47799">
        <ele>398.261</ele>
        <time>2016-06-10T09:43:20Z</time>
      </trkpt>
      <trkpt lat="43.93135" lon="2.47754">
        <ele>393.265</ele>
        <time>2016-06-10T09:43:00Z</time>
      </trkpt>
      <trkpt lat="43.93179" lon="2.47754">
        <ele>393.608</ele>
        <time>2016-06-10T09:42:40Z</time>
      </trkpt>
      <trkpt lat="43.93229" lon="2.4772">
        <ele>389.622</ele>
        <time>2016-06-10T09:42:20Z</time>
      </trkpt>
      <trkpt lat="43.93315" lon="2.47565">
        <ele>378.157</ele>
        <time>2016-06-10T09:42:00Z</time>
      </trkpt>
      <trkpt lat="43.93342" lon="2.47473">
        <ele>372.994</ele>
        <time>2016-06-10T09:41:40Z</time>
      </trkpt>
      <trkpt lat="43.93339" lon="2.47301">
        <ele>358.22</ele>
        <time>2016-06-10T09:41:20Z</time>
      </trkpt>
      <trkpt lat="43.934" lon="2.47192">
        <ele>352.791</ele>
        <time>2016-06-10T09:41:00Z</time>
      </trkpt>
      <trkpt lat="43.93428" lon="2.47177">
        <ele>350.415</ele>
        <time>2016-06-10T09:40:40Z</time>
      </trkpt>
      <trkpt lat="43.93479" lon="2.47267">
        <ele>341.973</ele>
        <time>2016-06-10T09:40:20Z</time>
      </trkpt>
      <trkpt lat="43.93473" lon="2.47366">
        <ele>343.347</ele>
        <time>2016-06-10T09:40:00Z</time>
      </trkpt>
      <trkpt lat="43.93512" lon="2.47379">
        <ele>336.114</ele>
        <time>2016-06-10T09:39:40Z</time>
      </trkpt>
      <trkpt lat="43.93532" lon="2.47409">
        <ele>336.219</ele>
        <time>2016-06-10T09:39:20Z</time>
      </trkpt>
      <trkpt lat="43.93553" lon="2.47406">
        <ele>336.173</ele>
        <time>2016-06-10T09:39:00Z</time>
      </trkpt>
      <trkpt lat="43.93603" lon="2.4728">
        <ele>325.908</ele>
        <time>2016-06-10T09:38:40Z</time>
      </trkpt>
      <trkpt lat="43.93679" lon="2.47164">
        <ele>316.614</ele>
        <time>2016-06-10T09:38:20Z</time>
      </trkpt>
      <trkpt lat="43.93768" lon="2.47149">
        <ele>313.313</ele>
        <time>2016-06-10T09:38:00Z</time>
      </trkpt>
      <trkpt lat="43.9381" lon="2.47061">
        <ele>302.372</ele>
        <time>2016-06-10T09:37:40Z</time>
      </trkpt>
      <trkpt lat="43.93873" lon="2.47044">
        <ele>304.845</ele>
        <time>2016-06-10T09:37:20Z</time>
      </trkpt>
      <trkpt lat="43.9392" lon="2.46947">
        <ele>294.596</ele>
        <time>2016-06-10T09:37:00Z</time>
      </trkpt>
      <trkpt lat="43.93992" lon="2.46937">
        <ele>291.41</ele>
        <time>2016-06-10T09:36:40Z</time>
      </trkpt>
      <trkpt lat="43.94043" lon="2.46967">
        <ele>288.818</ele>
        <time>2016-06-10T09:36:20Z</time>
      </trkpt>
      <trkpt lat="43.94087" lon="2.46971">
        <ele>281.482</ele>
        <time>2016-06-10T09:36:00Z</time>
      </trkpt>
      <trkpt lat="43.94119" lon="2.4702">
        <ele>278.989</ele>
        <time>2016-06-10T09:35:40Z</time>
      </trkpt>
      <trkpt lat="43.94171" lon="2.4696">
        <ele>271.214</ele>
        <time>2016-06-10T09:35:20Z</time>
      </trkpt>
      <trkpt lat="43.94187" lon="2.46868">
        <ele>265.058</ele>
        <time>2016-06-10T09:35:00Z</time>
      </trkpt>
      <trkpt lat="43.94199" lon="2.46829">
        <ele>261.508</ele>
        <time>2016-06-10T09:34:40Z</time>
      </trkpt>
      <trkpt lat="43.94247" lon="2.46795">
        <ele>254.82</ele>
        <time>2016-06-10T09:34:20Z</time>
      </trkpt>
      <trkpt lat="43.94273" lon="2.46727">
        <ele>239.3</ele>
        <time>2016-06-10T09:34:00Z</time>
      </trkpt>
      <trkpt lat="43.94307" lon="2.4671">
        <ele>226.929</ele>
        <time>2016-06-10T09:33:40Z</time>
      </trkpt>
      <trkpt lat="43.94328" lon="2.46749">
        <ele>226.154</ele>
        <time>2016-06-10T09:33:20Z</time>
      </trkpt>
      <trkpt lat="43.94338" lon="2.46746">
        <ele>224.035</ele>
        <time>2016-06-10T09:33:00Z</time>
      </trkpt>
      <trkpt lat="43.94324" lon="2.46668">
        <ele>221.829</ele>
        <time>2016-06-10T09:32:40Z</time>
      </trkpt>
      <trkpt lat="43.94337" lon="2.46648">
        <ele>219.627</ele>
        <time>2016-06-10T09:32:20Z</time>
      </trkpt>
      <trkpt lat="43.94312" lon="2.46628">
        <ele>219.951</ele>
        <time>2016-06-10T09:32:00Z</time>
      </trkpt>
      <trkpt lat="43.94192" lon="2.46619">
        <ele>219.658</ele>
        <time>2016-06-10T09:31:40Z</time>
      </trkpt>
      <trkpt lat="43.94198" lon="2.46458">
        <ele>224.783</ele>
        <time>2016-06-10T09:31:20Z</time>
      </trkpt>
      <trkpt lat="43.9412" lon="2.46486">
        <ele>229.977</ele>
        <time>2016-06-10T09:31:00Z</time>
      </trkpt>
      <trkpt lat="43.94043" lon="2.46495">
        <ele>237.508</ele>
        <time>2016-06-10T09:30:40Z</time>
      </trkpt>
      <trkpt lat="43.93983" lon="2.4651">
        <ele>240.617</ele>
        <time>2016-06-10T09:30:20Z</time>
      </trkpt>
      <trkpt lat="43.93986" lon="2.46492">
        <ele>246.398</ele>
        <time>2016-06-10T09:30:00Z</time>
      </trkpt>
      <trkpt lat="43.94042" lon="2.46469">
        <ele>246.818</ele>
        <time>2016-06-10T09:29:40Z</time>
      </trkpt>
      <trkpt lat="43.94141" lon="2.46409">
        <ele>252.456</ele>
        <time>2016-06-10T09:29:20Z</time>
      </trkpt>
      <trkpt lat="43.94164" lon="2.46361">
        <ele>259.477</ele>
        <time>2016-06-10T09:29:00Z</time>
      </trkpt>
      <trkpt lat="43.94099" lon="2.46361">
        <ele>267.341</ele>
        <time>2016-06-10T09:28:40Z</time>
      </trkpt>
      <trkpt lat="43.94119" lon="2.46331">
        <ele>269.029</ele>
        <time>2016-06-10T09:28:20Z</time>
      </trkpt>
      <trkpt lat="43.94119" lon="2.46331">
        <ele>269.033</ele>
        <time>2016-06-10T09:27:40Z</time>
      </trkpt>
      <trkpt lat="43.9407" lon="2.46323">
        <ele>278.08</ele>
        <time>2016-06-10T09:26:40Z</time>
      </trkpt>
      <trkpt lat="43.94003" lon="2.46372">
        <ele>281.395</ele>
        <time>2016-06-10T09:26:20Z</time>
      </trkpt>
      <trkpt lat="43.93977" lon="2.46357">
        <ele>289.439</ele>
        <time>2016-06-10T09:26:00Z</time>
      </trkpt>
      <trkpt lat="43.93977" lon="2.46329">
        <ele>297.108</ele>
        <time>2016-06-10T09:25:40Z</time>
      </trkpt>
      <trkpt lat="43.93997" lon="2.46302">
        <ele>299.21</ele>
        <time>2016-06-10T09:24:40Z</time>
      </trkpt>
      <trkpt lat="43.94003" lon="2.46207">
        <ele>305.855</ele>
        <time>2016-06-10T09:24:20Z</time>
      </trkpt>
      <trkpt lat="43.93994" lon="2.46179">
        <ele>307.834</ele>
        <time>2016-06-10T09:24:00Z</time>
      </trkpt>
      <trkpt lat="43.93977" lon="2.46181">
        <ele>314.759</ele>
        <time>2016-06-10T09:23:40Z</time>
      </trkpt>
      <trkpt lat="43.93949" lon="2.46224">
        <ele>320.92</ele>
        <time>2016-06-10T09:23:20Z</time>
      </trkpt>
      <trkpt lat="43.9393" lon="2.46213">
        <ele>325.234</ele>
        <time>2016-06-10T09:23:00Z</time>
      </trkpt>
      <trkpt lat="43.93932" lon="2.4619">
        <ele>326.292</ele>
        <time>2016-06-10T09:22:40Z</time>
      </trkpt>
      <trkpt lat="43.93923" lon="2.46171">
        <ele>328.746</ele>
        <time>2016-06-10T09:22:20Z</time>
      </trkpt>
      <trkpt lat="43.93823" lon="2.46152">
        <ele>345.263</ele>
        <time>2016-06-10T09:22:00Z</time>
      </trkpt>
      <trkpt lat="43.93774" lon="2.46065">
        <ele>357.018</ele>
        <time>2016-06-10T09:21:40Z</time>
      </trkpt>
      <trkpt lat="43.93734" lon="2.45918">
        <ele>374.862</ele>
        <time>2016-06-10T09:21:20Z</time>
      </trkpt>
      <trkpt lat="43.93729" lon="2.45875">
        <ele>379.108</ele>
        <time>2016-06-10T09:20:20Z</time>
      </trkpt>
      <trkpt lat="43.93696" lon="2.45896">
        <ele>381.218</ele>
        <time>2016-06-10T09:20:00Z</time>
      </trkpt>
      <trkpt lat="43.93652" lon="2.45859">
        <ele>388.644</ele>
        <time>2016-06-10T09:19:40Z</time>
      </trkpt>
      <trkpt lat="43.93617" lon="2.45868">
        <ele>390.063</ele>
        <time>2016-06-10T09:19:20Z</time>
      </trkpt>
      <trkpt lat="43.93579" lon="2.45897">
        <ele>391.262</ele>
        <time>2016-06-10T09:19:00Z</time>
      </trkpt>
      <trkpt lat="43.9355" lon="2.45896">
        <ele>395.253</ele>
        <time>2016-06-10T09:18:20Z</time>
      </trkpt>
      <trkpt lat="43.93518" lon="2.45852">
        <ele>404.967</ele>
        <time>2016-06-10T09:17:40Z</time>
      </trkpt>
      <trkpt lat="43.93431" lon="2.45851">
        <ele>412.075</ele>
        <time>2016-06-10T09:16:00Z</time>
      </trkpt>
      <trkpt lat="43.93339" lon="2.46031">
        <ele>419.469</ele>
        <time>2016-06-10T09:15:40Z</time>
      </trkpt>
      <trkpt lat="43.93315" lon="2.46055">
        <ele>421.636</ele>
        <time>2016-06-10T09:15:20Z</time>
      </trkpt>
      <trkpt lat="43.93332" lon="2.45967">
        <ele>425.381</ele>
        <time>2016-06-10T09:15:00Z</time>
      </trkpt>
      <trkpt lat="43.93243" lon="2.4578">
        <ele>422.275</ele>
        <time>2016-06-10T09:14:40Z</time>
      </trkpt>
      <trkpt lat="43.9321" lon="2.4575">
        <ele>420.008</ele>
        <time>2016-06-10T09:14:20Z</time>
      </trkpt>
      <trkpt lat="43.93141" lon="2.45658">
        <ele>417.52</ele>
        <time>2016-06-10T09:14:00Z</time>
      </trkpt>
      <trkpt lat="43.93127" lon="2.45557">
        <ele>414.273</ele>
        <time>2016-06-10T09:13:40Z</time>
      </trkpt>
      <trkpt lat="43.9305" lon="2.45465">
        <ele>418.292</ele>
        <time>2016-06-10T09:13:20Z</time>
      </trkpt>
      <trkpt lat="43.93034" lon="2.45411">
        <ele>420.51</ele>
        <time>2016-06-10T09:13:00Z</time>
      </trkpt>
      <trkpt lat="43.93125" lon="2.454">
        <ele>424.041</ele>
        <time>2016-06-10T09:12:40Z</time>
      </trkpt>
      <trkpt lat="43.93169" lon="2.45349">
        <ele>424.435</ele>
        <time>2016-06-10T09:12:20Z</time>
      </trkpt>
      <trkpt lat="43.93206" lon="2.45239">
        <ele>434.563</ele>
        <time>2016-06-10T09:12:00Z</time>
      </trkpt>
      <trkpt lat="43.93252" lon="2.45222">
        <ele>433.797</ele>
        <time>2016-06-10T09:11:40Z</time>
      </trkpt>
      <trkpt lat="43.93286" lon="2.45111">
        <ele>443.084</ele>
        <time>2016-06-10T09:11:20Z</time>
      </trkpt>
      <trkpt lat="43.93298" lon="2.45023">
        <ele>444.779</ele>
        <time>2016-06-10T09:11:00Z</time>
      </trkpt>
      <trkpt lat="43.93289" lon="2.44939">
        <ele>445.333</ele>
        <time>2016-06-10T09:10:40Z</time>
      </trkpt>
      <trkpt lat="43.9324" lon="2.44853">
        <ele>452.608</ele>
        <time>2016-06-10T09:10:20Z</time>
      </trkpt>
      <trkpt lat="43.9323" lon="2.44806">
        <ele>455.726</ele>
        <time>2016-06-10T09:10:00Z</time>
      </trkpt>
      <trkpt lat="43.93298" lon="2.44761">
        <ele>462.233</ele>
        <time>2016-06-10T09:09:40Z</time>
      </trkpt>
      <trkpt lat="43.93289" lon="2.44724">
        <ele>464.778</ele>
        <time>2016-06-10T09:09:20Z</time>
      </trkpt>
      <trkpt lat="43.93204" lon="2.44686">
        <ele>472.782</ele>
        <time>2016-06-10T09:09:00Z</time>
      </trkpt>
      <trkpt lat="43.93196" lon="2.44596">
        <ele>469.333</ele>
        <time>2016-06-10T09:08:40Z</time>
      </trkpt>
      <trkpt lat="43.93099" lon="2.44439">
        <ele>480.737</ele>
        <time>2016-06-10T09:08:20Z</time>
      </trkpt>
      <trkpt lat="43.93091" lon="2.44327">
        <ele>485.845</ele>
        <time>2016-06-10T09:08:00Z</time>
      </trkpt>
      <trkpt lat="43.93145" lon="2.44156">
        <ele>489.049</ele>
        <time>2016-06-10T09:07:40Z</time>
      </trkpt>
      <trkpt lat="43.93196" lon="2.44072">
        <ele>489.536</ele>
        <time>2016-06-10T09:07:20Z</time>
      </trkpt>
      <trkpt lat="43.93257" lon="2.439">
        <ele>487.751</ele>
        <time>2016-06-10T09:07:00Z</time>
      </trkpt>
      <trkpt lat="43.93234" lon="2.43849">
        <ele>486.365</ele>
        <time>2016-06-10T09:06:40Z</time>
      </trkpt>
      <trkpt lat="43.93227" lon="2.43765">
        <ele>484.708</ele>
        <time>2016-06-10T09:06:20Z</time>
      </trkpt>
      <trkpt lat="43.93176" lon="2.43677">
        <ele>479.321</ele>
        <time>2016-06-10T09:06:00Z</time>
      </trkpt>
      <trkpt lat="43.93176" lon="2.4363">
        <ele>476.965</ele>
        <time>2016-06-10T09:05:40Z</time>
      </trkpt>
      <trkpt lat="43.93153" lon="2.43587">
        <ele>469.993</ele>
        <time>2016-06-10T09:05:20Z</time>
      </trkpt>
      <trkpt lat="43.93166" lon="2.43463">
        <ele>463.745</ele>
        <time>2016-06-10T09:05:00Z</time>
      </trkpt>
      <trkpt lat="43.93181" lon="2.43456">
        <ele>462.726</ele>
        <time>2016-06-10T09:04:40Z</time>
      </trkpt>
      <trkpt lat="43.9323" lon="2.43527">
        <ele>459.44</ele>
        <time>2016-06-10T09:04:20Z</time>
      </trkpt>
      <trkpt lat="43.93337" lon="2.43499">
        <ele>442.388</ele>
        <time>2016-06-10T09:04:00Z</time>
      </trkpt>
      <trkpt lat="43.93315" lon="2.43475">
        <ele>439.232</ele>
        <time>2016-06-10T09:03:40Z</time>
      </trkpt>
      <trkpt lat="43.93269" lon="2.43471">
        <ele>442.459</ele>
        <time>2016-06-10T09:03:20Z</time>
      </trkpt>
      <trkpt lat="43.93257" lon="2.43387">
        <ele>441.934</ele>
        <time>2016-06-10T09:03:00Z</time>
      </trkpt>
      <trkpt lat="43.93269" lon="2.4325">
        <ele>451.898</ele>
        <time>2016-06-10T09:02:40Z</time>
      </trkpt>
      <trkpt lat="43.93302" lon="2.43194">
        <ele>452.008</ele>
        <time>2016-06-10T09:02:20Z</time>
      </trkpt>
      <trkpt lat="43.93336" lon="2.43229">
        <ele>433.708</ele>
        <time>2016-06-10T09:02:00Z</time>
      </trkpt>
      <trkpt lat="43.93408" lon="2.43173">
        <ele>420.026</ele>
        <time>2016-06-10T09:01:40Z</time>
      </trkpt>
      <trkpt lat="43.93433" lon="2.4304">
        <ele>413.725</ele>
        <time>2016-06-10T09:01:20Z</time>
      </trkpt>
      <trkpt lat="43.93413" lon="2.42933">
        <ele>415.027</ele>
        <time>2016-06-10T09:01:00Z</time>
      </trkpt>
      <trkpt lat="43.9345" lon="2.42851">
        <ele>402.648</ele>
        <time>2016-06-10T09:00:40Z</time>
      </trkpt>
      <trkpt lat="43.93448" lon="2.42778">
        <ele>406.972</ele>
        <time>2016-06-10T09:00:20Z</time>
      </trkpt>
      <trkpt lat="43.93553" lon="2.42563">
        <ele>362.47</ele>
        <time>2016-06-10T09:00:00Z</time>
      </trkpt>
      <trkpt lat="43.93555" lon="2.42501">
        <ele>356.584</ele>
        <time>2016-06-10T08:59:40Z</time>
      </trkpt>
      <trkpt lat="43.93481" lon="2.42229">
        <ele>357.851</ele>
        <time>2016-06-10T08:59:20Z</time>
      </trkpt>
      <trkpt lat="43.93495" lon="2.42072">
        <ele>347.366</ele>
        <time>2016-06-10T08:59:00Z</time>
      </trkpt>
      <trkpt lat="43.93538" lon="2.41982">
        <ele>334.77</ele>
        <time>2016-06-10T08:58:40Z</time>
      </trkpt>
      <trkpt lat="43.9355" lon="2.4192">
        <ele>325.808</ele>
        <time>2016-06-10T08:58:20Z</time>
      </trkpt>
      <trkpt lat="43.93504" lon="2.41709">
        <ele>287.116</ele>
        <time>2016-06-10T08:58:00Z</time>
      </trkpt>
      <trkpt lat="43.93478" lon="2.41626">
        <ele>271.988</ele>
        <time>2016-06-10T08:57:40Z</time>
      </trkpt>
      <trkpt lat="43.93394" lon="2.41525">
        <ele>263.946</ele>
        <time>2016-06-10T08:57:20Z</time>
      </trkpt>
      <trkpt lat="43.93366" lon="2.41433">
        <ele>252.118</ele>
        <time>2016-06-10T08:57:00Z</time>
      </trkpt>
      <trkpt lat="43.93354" lon="2.41302">
        <ele>231.139</ele>
        <time>2016-06-10T08:56:40Z</time>
      </trkpt>
      <trkpt lat="43.93319" lon="2.4124">
        <ele>221.983</ele>
        <time>2016-06-10T08:56:20Z</time>
      </trkpt>
      <trkpt lat="43.93291" lon="2.41263">
        <ele>223.521</ele>
        <time>2016-06-10T08:56:00Z</time>
      </trkpt>
      <trkpt lat="43.93247" lon="2.41164">
        <ele>222.195</ele>
        <time>2016-06-10T08:55:40Z</time>
      </trkpt>
      <trkpt lat="43.93261" lon="2.41064">
        <ele>241.882</ele>
        <time>2016-06-10T08:55:20Z</time>
      </trkpt>
      <trkpt lat="43.93285" lon="2.41049">
        <ele>240.937</ele>
        <time>2016-06-10T08:55:00Z</time>
      </trkpt>
      <trkpt lat="43.93336" lon="2.40965">
        <ele>245.951</ele>
        <time>2016-06-10T08:54:40Z</time>
      </trkpt>
      <trkpt lat="43.93366" lon="2.40845">
        <ele>256.408</ele>
        <time>2016-06-10T08:54:20Z</time>
      </trkpt>
      <trkpt lat="43.93376" lon="2.40744">
        <ele>275.911</ele>
        <time>2016-06-10T08:54:00Z</time>
      </trkpt>
      <trkpt lat="43.93433" lon="2.40632">
        <ele>277.801</ele>
        <time>2016-06-10T08:53:40Z</time>
      </trkpt>
      <trkpt lat="43.93439" lon="2.40566">
        <ele>279.951</ele>
        <time>2016-06-10T08:53:20Z</time>
      </trkpt>
      <trkpt lat="43.9347" lon="2.40484">
        <ele>266.774</ele>
        <time>2016-06-10T08:53:00Z</time>
      </trkpt>
      <trkpt lat="43.93462" lon="2.40478">
        <ele>263.715</ele>
        <time>2016-06-10T08:52:40Z</time>
      </trkpt>
      <trkpt lat="43.93346" lon="2.40534">
        <ele>253.629</ele>
        <time>2016-06-10T08:52:20Z</time>
      </trkpt>
      <trkpt lat="43.93258" lon="2.40534">
        <ele>248.427</ele>
        <time>2016-06-10T08:52:00Z</time>
      </trkpt>
      <trkpt lat="43.93201" lon="2.40506">
        <ele>245.311</ele>
        <time>2016-06-10T08:51:40Z</time>
      </trkpt>
      <trkpt lat="43.93183" lon="2.40458">
        <ele>229.658</ele>
        <time>2016-06-10T08:51:20Z</time>
      </trkpt>
      <trkpt lat="43.93138" lon="2.40458">
        <ele>231.043</ele>
        <time>2016-06-10T08:51:00Z</time>
      </trkpt>
      <trkpt lat="43.93125" lon="2.40435">
        <ele>231.967</ele>
        <time>2016-06-10T08:50:40Z</time>
      </trkpt>
      <trkpt lat="43.93192" lon="2.40379">
        <ele>245.008</ele>
        <time>2016-06-10T08:50:20Z</time>
      </trkpt>
      <trkpt lat="43.93295" lon="2.40383">
        <ele>238.807</ele>
        <time>2016-06-10T08:50:00Z</time>
      </trkpt>
      <trkpt lat="43.93322" lon="2.40351">
        <ele>237.043</ele>
        <time>2016-06-10T08:49:40Z</time>
      </trkpt>
      <trkpt lat="43.93315" lon="2.40321">
        <ele>247.213</ele>
        <time>2016-06-10T08:49:20Z</time>
      </trkpt>
      <trkpt lat="43.93244" lon="2.40336">
        <ele>266.576</ele>
        <time>2016-06-10T08:49:00Z</time>
      </trkpt>
      <trkpt lat="43.93181" lon="2.40308">
        <ele>282.217</ele>
        <time>2016-06-10T08:48:40Z</time>
      </trkpt>
      <trkpt lat="43.93136" lon="2.40319">
        <ele>281.391</ele>
        <time>2016-06-10T08:48:20Z</time>
      </trkpt>
      <trkpt lat="43.93093" lon="2.40304">
        <ele>286.199</ele>
        <time>2016-06-10T08:48:00Z</time>
      </trkpt>
      <trkpt lat="43.93062" lon="2.40252">
        <ele>303.443</ele>
        <time>2016-06-10T08:47:40Z</time>
      </trkpt>
      <trkpt lat="43.9313" lon="2.40255">
        <ele>308.85</ele>
        <time>2016-06-10T08:47:20Z</time>
      </trkpt>
      <trkpt lat="43.93179" lon="2.40216">
        <ele>311.215</ele>
        <time>2016-06-10T08:47:00Z</time>
      </trkpt>
      <trkpt lat="43.93099" lon="2.40201">
        <ele>327.379</ele>
        <time>2016-06-10T08:46:40Z</time>
      </trkpt>
      <trkpt lat="43.93119" lon="2.40177">
        <ele>326.508</ele>
        <time>2016-06-10T08:46:20Z</time>
      </trkpt>
      <trkpt lat="43.93065" lon="2.40128">
        <ele>339.713</ele>
        <time>2016-06-10T08:46:00Z</time>
      </trkpt>
      <trkpt lat="43.93047" lon="2.4007">
        <ele>347.849</ele>
        <time>2016-06-10T08:45:40Z</time>
      </trkpt>
      <trkpt lat="43.93033" lon="2.40077">
        <ele>350.737</ele>
        <time>2016-06-10T08:45:20Z</time>
      </trkpt>
      <trkpt lat="43.93003" lon="2.40055">
        <ele>356.888</ele>
        <time>2016-06-10T08:45:00Z</time>
      </trkpt>
      <trkpt lat="43.92971" lon="2.40066">
        <ele>356.869</ele>
        <time>2016-06-10T08:44:40Z</time>
      </trkpt>
      <trkpt lat="43.92971" lon="2.40066">
        <ele>356.863</ele>
        <time>2016-06-10T08:44:20Z</time>
      </trkpt>
      <trkpt lat="43.92887" lon="2.4016">
        <ele>371.341</ele>
        <time>2016-06-10T08:44:00Z</time>
      </trkpt>
      <trkpt lat="43.92818" lon="2.40154">
        <ele>383.295</ele>
        <time>2016-06-10T08:43:40Z</time>
      </trkpt>
      <trkpt lat="43.92761" lon="2.40124">
        <ele>387.972</ele>
        <time>2016-06-10T08:43:20Z</time>
      </trkpt>
      <trkpt lat="43.9268" lon="2.39991">
        <ele>405.867</ele>
        <time>2016-06-10T08:43:00Z</time>
      </trkpt>
      <trkpt lat="43.92665" lon="2.3998">
        <ele>406.351</ele>
        <time>2016-06-10T08:42:40Z</time>
      </trkpt>
      <trkpt lat="43.92626" lon="2.40023">
        <ele>402.108</ele>
        <time>2016-06-10T08:42:20Z</time>
      </trkpt>
      <trkpt lat="43.92561" lon="2.40012">
        <ele>408.808</ele>
        <time>2016-06-10T08:42:00Z</time>
      </trkpt>
      <trkpt lat="43.9253" lon="2.39997">
        <ele>408.953</ele>
        <time>2016-06-10T08:41:40Z</time>
      </trkpt>
      <trkpt lat="43.92571" lon="2.39995">
        <ele>412.252</ele>
        <time>2016-06-10T08:41:20Z</time>
      </trkpt>
      <trkpt lat="43.92673" lon="2.39911">
        <ele>424.849</ele>
        <time>2016-06-10T08:41:00Z</time>
      </trkpt>
      <trkpt lat="43.92727" lon="2.39963">
        <ele>423.89</ele>
        <time>2016-06-10T08:40:40Z</time>
      </trkpt>
      <trkpt lat="43.9277" lon="2.39954">
        <ele>426.484</ele>
        <time>2016-06-10T08:40:20Z</time>
      </trkpt>
      <trkpt lat="43.92785" lon="2.39864">
        <ele>432.162</ele>
        <time>2016-06-10T08:40:00Z</time>
      </trkpt>
      <trkpt lat="43.92767" lon="2.3978">
        <ele>437.686</ele>
        <time>2016-06-10T08:39:40Z</time>
      </trkpt>
      <trkpt lat="43.927" lon="2.3981">
        <ele>439.793</ele>
        <time>2016-06-10T08:39:20Z</time>
      </trkpt>
      <trkpt lat="43.92602" lon="2.39808">
        <ele>442.568</ele>
        <time>2016-06-10T08:39:00Z</time>
      </trkpt>
      <trkpt lat="43.92526" lon="2.39757">
        <ele>446.972</ele>
        <time>2016-06-10T08:38:40Z</time>
      </trkpt>
      <trkpt lat="43.92492" lon="2.39673">
        <ele>449.808</ele>
        <time>2016-06-10T08:38:20Z</time>
      </trkpt>
      <trkpt lat="43.92402" lon="2.39542">
        <ele>452.716</ele>
        <time>2016-06-10T08:38:00Z</time>
      </trkpt>
      <trkpt lat="43.92391" lon="2.39394">
        <ele>456.306</ele>
        <time>2016-06-10T08:37:40Z</time>
      </trkpt>
      <trkpt lat="43.92421" lon="2.39315">
        <ele>459.964</ele>
        <time>2016-06-10T08:37:20Z</time>
      </trkpt>
      <trkpt lat="43.92402" lon="2.39298">
        <ele>462.287</ele>
        <time>2016-06-10T08:37:00Z</time>
      </trkpt>
      <trkpt lat="43.92404" lon="2.39259">
        <ele>464.348</ele>
        <time>2016-06-10T08:36:40Z</time>
      </trkpt>
      <trkpt lat="43.92374" lon="2.39057">
        <ele>465.192</ele>
        <time>2016-06-10T08:36:20Z</time>
      </trkpt>
      <trkpt lat="43.92398" lon="2.38918">
        <ele>462.11</ele>
        <time>2016-06-10T08:36:00Z</time>
      </trkpt>
      <trkpt lat="43.92475" lon="2.38815">
        <ele>456.464</ele>
        <time>2016-06-10T08:35:40Z</time>
      </trkpt>
      <trkpt lat="43.92575" lon="2.38793">
        <ele>449.651</ele>
        <time>2016-06-10T08:35:20Z</time>
      </trkpt>
      <trkpt lat="43.92792" lon="2.38793">
        <ele>411.586</ele>
        <time>2016-06-10T08:35:00Z</time>
      </trkpt>
      <trkpt lat="43.92858" lon="2.38768">
        <ele>392.54</ele>
        <time>2016-06-10T08:34:40Z</time>
      </trkpt>
      <trkpt lat="43.9292" lon="2.38783">
        <ele>388.808</ele>
        <time>2016-06-10T08:34:20Z</time>
      </trkpt>
      <trkpt lat="43.93014" lon="2.38723">
        <ele>364.611</ele>
        <time>2016-06-10T08:34:00Z</time>
      </trkpt>
      <trkpt lat="43.93085" lon="2.38738">
        <ele>358.247</ele>
        <time>2016-06-10T08:33:40Z</time>
      </trkpt>
      <trkpt lat="43.93142" lon="2.38813">
        <ele>348.445</ele>
        <time>2016-06-10T08:33:20Z</time>
      </trkpt>
      <trkpt lat="43.93175" lon="2.3877">
        <ele>333.351</ele>
        <time>2016-06-10T08:33:00Z</time>
      </trkpt>
      <trkpt lat="43.93218" lon="2.38544">
        <ele>301.472</ele>
        <time>2016-06-10T08:32:40Z</time>
      </trkpt>
      <trkpt lat="43.93213" lon="2.38476">
        <ele>296.996</ele>
        <time>2016-06-10T08:32:20Z</time>
      </trkpt>
      <trkpt lat="43.93342" lon="2.38351">
        <ele>288.494</ele>
        <time>2016-06-10T08:32:00Z</time>
      </trkpt>
      <trkpt lat="43.93479" lon="2.38358">
        <ele>307.228</ele>
        <time>2016-06-10T08:31:40Z</time>
      </trkpt>
      <trkpt lat="43.9349" lon="2.38298">
        <ele>297.365</ele>
        <time>2016-06-10T08:31:20Z</time>
      </trkpt>
      <trkpt lat="43.93581" lon="2.38414">
        <ele>271.08</ele>
        <time>2016-06-10T08:31:00Z</time>
      </trkpt>
      <trkpt lat="43.93628" lon="2.38461">
        <ele>266.274</ele>
        <time>2016-06-10T08:30:40Z</time>
      </trkpt>
      <trkpt lat="43.93714" lon="2.38467">
        <ele>242.508</ele>
        <time>2016-06-10T08:30:20Z</time>
      </trkpt>
      <trkpt lat="43.93909" lon="2.38579">
        <ele>215.826</ele>
        <time>2016-06-10T08:30:00Z</time>
      </trkpt>
      <trkpt lat="43.93988" lon="2.386">
        <ele>214.206</ele>
        <time>2016-06-10T08:29:40Z</time>
      </trkpt>
      <trkpt lat="43.94022" lon="2.38536">
        <ele>201.989</ele>
        <time>2016-06-10T08:29:20Z</time>
      </trkpt>
      <trkpt lat="43.94005" lon="2.38487">
        <ele>203.496</ele>
        <time>2016-06-10T08:29:00Z</time>
      </trkpt>
      <trkpt lat="43.94073" lon="2.38334">
        <ele>211.157</ele>
        <time>2016-06-10T08:28:40Z</time>
      </trkpt>
      <trkpt lat="43.94091" lon="2.38242">
        <ele>214.851</ele>
        <time>2016-06-10T08:28:20Z</time>
      </trkpt>
      <trkpt lat="43.94117" lon="2.3821">
        <ele>210.939</ele>
        <time>2016-06-10T08:28:00Z</time>
      </trkpt>
      <trkpt lat="43.94113" lon="2.38379">
        <ele>200.033</ele>
        <time>2016-06-10T08:27:40Z</time>
      </trkpt>
      <trkpt lat="43.94136" lon="2.38227">
        <ele>205.31</ele>
        <time>2016-06-10T08:27:20Z</time>
      </trkpt>
      <trkpt lat="43.94198" lon="2.38023">
        <ele>205.255</ele>
        <time>2016-06-10T08:27:00Z</time>
      </trkpt>
      <trkpt lat="43.94256" lon="2.37905">
        <ele>205.639</ele>
        <time>2016-06-10T08:26:40Z</time>
      </trkpt>
      <trkpt lat="43.94371" lon="2.37789">
        <ele>213.408</ele>
        <time>2016-06-10T08:26:20Z</time>
      </trkpt>
      <trkpt lat="43.94437" lon="2.37815">
        <ele>203.011</ele>
        <time>2016-06-10T08:26:00Z</time>
      </trkpt>
      <trkpt lat="43.94477" lon="2.37781">
        <ele>203.992</ele>
        <time>2016-06-10T08:25:40Z</time>
      </trkpt>
      <trkpt lat="43.94419" lon="2.37667">
        <ele>204.132</ele>
        <time>2016-06-10T08:25:20Z</time>
      </trkpt>
      <trkpt lat="43.94383" lon="2.3768">
        <ele>240.446</ele>
        <time>2016-06-10T08:25:00Z</time>
      </trkpt>
      <trkpt lat="43.94352" lon="2.37673">
        <ele>260.887</ele>
        <time>2016-06-10T08:24:40Z</time>
      </trkpt>
      <trkpt lat="43.94328" lon="2.37705">
        <ele>271.911</ele>
        <time>2016-06-10T08:24:20Z</time>
      </trkpt>
      <trkpt lat="43.94317" lon="2.37693">
        <ele>278.699</ele>
        <time>2016-06-10T08:24:00Z</time>
      </trkpt>
      <trkpt lat="43.94272" lon="2.37684">
        <ele>298.513</ele>
        <time>2016-06-10T08:23:40Z</time>
      </trkpt>
      <trkpt lat="43.94261" lon="2.37594">
        <ele>302.13</ele>
        <time>2016-06-10T08:23:20Z</time>
      </trkpt>
      <trkpt lat="43.94221" lon="2.37504">
        <ele>350.295</ele>
        <time>2016-06-10T08:23:00Z</time>
      </trkpt>
      <trkpt lat="43.94164" lon="2.37435">
        <ele>377.369</ele>
        <time>2016-06-10T08:22:40Z</time>
      </trkpt>
      <trkpt lat="43.94164" lon="2.37435">
        <ele>377.308</ele>
        <time>2016-06-10T08:22:20Z</time>
      </trkpt>
      <trkpt lat="43.94142" lon="2.37405">
        <ele>386.321</ele>
        <time>2016-06-10T08:22:00Z</time>
      </trkpt>
      <trkpt lat="43.94122" lon="2.37354">
        <ele>395.701</ele>
        <time>2016-06-10T08:21:40Z</time>
      </trkpt>
      <trkpt lat="43.94097" lon="2.37392">
        <ele>406.739</ele>
        <time>2016-06-10T08:21:20Z</time>
      </trkpt>
      <trkpt lat="43.94094" lon="2.37244">
        <ele>395.291</ele>
        <time>2016-06-10T08:21:00Z</time>
      </trkpt>
      <trkpt lat="43.94066" lon="2.37214">
        <ele>398.082</ele>
        <time>2016-06-10T08:20:40Z</time>
      </trkpt>
      <trkpt lat="43.94031" lon="2.37165">
        <ele>392.236</ele>
        <time>2016-06-10T08:20:20Z</time>
      </trkpt>
      <trkpt lat="43.93947" lon="2.3719">
        <ele>387.554</ele>
        <time>2016-06-10T08:20:00Z</time>
      </trkpt>
      <trkpt lat="43.93869" lon="2.37195">
        <ele>380.188</ele>
        <time>2016-06-10T08:19:40Z</time>
      </trkpt>
      <trkpt lat="43.93642" lon="2.37225">
        <ele>363.525</ele>
        <time>2016-06-10T08:19:20Z</time>
      </trkpt>
      <trkpt lat="43.93611" lon="2.3715">
        <ele>356.47</ele>
        <time>2016-06-10T08:19:00Z</time>
      </trkpt>
      <trkpt lat="43.93578" lon="2.37152">
        <ele>354.694</ele>
        <time>2016-06-10T08:18:40Z</time>
      </trkpt>
      <trkpt lat="43.9345" lon="2.36929">
        <ele>361.508</ele>
        <time>2016-06-10T08:18:20Z</time>
      </trkpt>
      <trkpt lat="43.93209" lon="2.36748">
        <ele>383.826</ele>
        <time>2016-06-10T08:18:00Z</time>
      </trkpt>
      <trkpt lat="43.93209" lon="2.36748">
        <ele>383.86</ele>
        <time>2016-06-10T08:17:40Z</time>
      </trkpt>
      <trkpt lat="43.93181" lon="2.36652">
        <ele>393.186</ele>
        <time>2016-06-10T08:17:20Z</time>
      </trkpt>
      <trkpt lat="43.93138" lon="2.36581">
        <ele>404.034</ele>
        <time>2016-06-10T08:17:00Z</time>
      </trkpt>
      <trkpt lat="43.93047" lon="2.36515">
        <ele>414.055</ele>
        <time>2016-06-10T08:16:40Z</time>
      </trkpt>
      <trkpt lat="43.92994" lon="2.36461">
        <ele>422.199</ele>
        <time>2016-06-10T08:16:20Z</time>
      </trkpt>
      <trkpt lat="43.93005" lon="2.36349">
        <ele>423.047</ele>
        <time>2020-12-26T23:26:15Z</time>
      </trkpt>
      <trkpt lat="43.92993" lon="2.36325">
        <ele>425.341</ele>
        <time>2020-12-26T23:25:55Z</time>
      </trkpt>
      <trkpt lat="43.92927" lon="2.36328">
        <ele>430.268</ele>
        <time>2020-12-26T23:25:35Z</time>
      </trkpt>
      <trkpt lat="43.9289" lon="2.36251">
        <ele>429.063</ele>
        <time>2016-06-10T08:15:40Z</time>
      </trkpt>
      <trkpt lat="43.92789" lon="2.36171">
        <ele>429.157</ele>
        <time>2016-06-10T08:15:20Z</time>
      </trkpt>
      <trkpt lat="43.92722" lon="2.3609">
        <ele>425.508</ele>
        <time>2016-06-10T08:15:00Z</time>
      </trkpt>
      <trkpt lat="43.92654" lon="2.35944">
        <ele>426.607</ele>
        <time>2016-06-10T08:14:40Z</time>
      </trkpt>
      <trkpt lat="43.92894" lon="2.35927">
        <ele>423.243</ele>
        <time>2016-06-10T08:14:20Z</time>
      </trkpt>
      <trkpt lat="43.92938" lon="2.35933">
        <ele>421.713</ele>
        <time>2016-06-10T08:14:00Z</time>
      </trkpt>
      <trkpt lat="43.92958" lon="2.36015">
        <ele>415.556</ele>
        <time>2016-06-10T08:13:40Z</time>
      </trkpt>
      <trkpt lat="43.92997" lon="2.36085">
        <ele>407.867</ele>
        <time>2016-06-10T08:13:20Z</time>
      </trkpt>
      <trkpt lat="43.93045" lon="2.361">
        <ele>402.091</ele>
        <time>2016-06-10T08:13:00Z</time>
      </trkpt>
      <trkpt lat="43.93082" lon="2.36081">
        <ele>396.629</ele>
        <time>2016-06-10T08:12:40Z</time>
      </trkpt>
      <trkpt lat="43.93175" lon="2.36079">
        <ele>384.863</ele>
        <time>2016-06-10T08:12:20Z</time>
      </trkpt>
      <trkpt lat="43.93258" lon="2.36051">
        <ele>366.55</ele>
        <time>2016-06-10T08:12:00Z</time>
      </trkpt>
      <trkpt lat="43.93314" lon="2.3607">
        <ele>357.025</ele>
        <time>2016-06-10T08:11:40Z</time>
      </trkpt>
      <trkpt lat="43.93417" lon="2.36068">
        <ele>332.689</ele>
        <time>2016-06-10T08:11:20Z</time>
      </trkpt>
      <trkpt lat="43.93478" lon="2.36042">
        <ele>315.908</ele>
        <time>2020-12-26T23:20:35Z</time>
      </trkpt>
      <trkpt lat="43.93432" lon="2.36021">
        <ele>324.411</ele>
        <time>2020-12-26T23:20:15Z</time>
      </trkpt>
      <trkpt lat="43.93384" lon="2.35997">
        <ele>333.992</ele>
        <time>2020-12-26T23:19:55Z</time>
      </trkpt>
      <trkpt lat="43.93358" lon="2.35952">
        <ele>339.432</ele>
        <time>2020-12-26T23:19:35Z</time>
      </trkpt>
      <trkpt lat="43.93467" lon="2.35898">
        <ele>316.039</ele>
        <time>2020-12-26T23:19:15Z</time>
      </trkpt>
      <trkpt lat="43.93533" lon="2.35917">
        <ele>299.99</ele>
        <time>2020-12-26T23:18:55Z</time>
      </trkpt>
      <trkpt lat="43.93594" lon="2.35918">
        <ele>267.814</ele>
        <time>2016-06-10T08:09:00Z</time>
      </trkpt>
      <trkpt lat="43.93709" lon="2.35886">
        <ele>265.142</ele>
        <time>2020-12-26T23:18:15Z</time>
      </trkpt>
      <trkpt lat="43.93806" lon="2.35826">
        <ele>241.976</ele>
        <time>2020-12-26T23:17:55Z</time>
      </trkpt>
      <trkpt lat="43.93853" lon="2.35776">
        <ele>216.493</ele>
        <time>2016-06-10T08:08:00Z</time>
      </trkpt>
      <trkpt lat="43.93836" lon="2.35755">
        <ele>214.058</ele>
        <time>2016-06-10T08:07:40Z</time>
      </trkpt>
      <trkpt lat="43.93835" lon="2.35725">
        <ele>215.532</ele>
        <time>2016-06-10T08:07:20Z</time>
      </trkpt>
      <trkpt lat="43.93853" lon="2.35706">
        <ele>211.508</ele>
        <time>2016-06-10T08:07:00Z</time>
      </trkpt>
      <trkpt lat="43.93883" lon="2.3571">
        <ele>204.521</ele>
        <time>2016-06-10T08:06:40Z</time>
      </trkpt>
      <trkpt lat="43.93879" lon="2.35661">
        <ele>200.529</ele>
        <time>2016-06-10T08:06:20Z</time>
      </trkpt>
      <trkpt lat="43.93818" lon="2.35615">
        <ele>212.666</ele>
        <time>2016-06-10T08:06:00Z</time>
      </trkpt>
      <trkpt lat="43.93702" lon="2.356">
        <ele>241.821</ele>
        <time>2016-06-10T08:05:40Z</time>
      </trkpt>
      <trkpt lat="43.93683" lon="2.35562">
        <ele>239.382</ele>
        <time>2016-06-10T08:05:20Z</time>
      </trkpt>
      <trkpt lat="43.93637" lon="2.3548">
        <ele>242.326</ele>
        <time>2016-06-10T08:05:00Z</time>
      </trkpt>
      <trkpt lat="43.93584" lon="2.35459">
        <ele>254.484</ele>
        <time>2016-06-10T08:04:40Z</time>
      </trkpt>
      <trkpt lat="43.93502" lon="2.35416">
        <ele>251.858</ele>
        <time>2016-06-10T08:04:20Z</time>
      </trkpt>
      <trkpt lat="43.93416" lon="2.35392">
        <ele>249.145</ele>
        <time>2016-06-10T08:04:00Z</time>
      </trkpt>
      <trkpt lat="43.93385" lon="2.35358">
        <ele>248.71</ele>
        <time>2016-06-10T08:03:40Z</time>
      </trkpt>
      <trkpt lat="43.93462" lon="2.35255">
        <ele>234.194</ele>
        <time>2016-06-10T08:03:20Z</time>
      </trkpt>
      <trkpt lat="43.9341" lon="2.35195">
        <ele>232.108</ele>
        <time>2016-06-10T08:03:00Z</time>
      </trkpt>
      <trkpt lat="43.93373" lon="2.35184">
        <ele>230.917</ele>
        <time>2016-06-10T08:02:40Z</time>
      </trkpt>
      <trkpt lat="43.93345" lon="2.35156">
        <ele>230.561</ele>
        <time>2016-06-10T08:02:20Z</time>
      </trkpt>
      <trkpt lat="43.93308" lon="2.34929">
        <ele>208.381</ele>
        <time>2016-06-10T08:02:00Z</time>
      </trkpt>
      <trkpt lat="43.93286" lon="2.34912">
        <ele>209.231</ele>
        <time>2016-06-10T08:01:40Z</time>
      </trkpt>
      <trkpt lat="43.93235" lon="2.34918">
        <ele>210.052</ele>
        <time>2016-06-10T08:01:20Z</time>
      </trkpt>
      <trkpt lat="43.93261" lon="2.34879">
        <ele>202.176</ele>
        <time>2016-06-10T08:01:00Z</time>
      </trkpt>
      <trkpt lat="43.93209" lon="2.34794">
        <ele>218.454</ele>
        <time>2016-06-10T08:00:40Z</time>
      </trkpt>
      <trkpt lat="43.9317" lon="2.3477">
        <ele>226.438</ele>
        <time>2016-06-10T08:00:20Z</time>
      </trkpt>
      <trkpt lat="43.93059" lon="2.34558">
        <ele>246.785</ele>
        <time>2016-06-10T08:00:00Z</time>
      </trkpt>
      <trkpt lat="43.93059" lon="2.34558">
        <ele>246.77</ele>
        <time>2016-06-10T07:59:40Z</time>
      </trkpt>
      <trkpt lat="43.92968" lon="2.34461">
        <ele>273.834</ele>
        <time>2016-06-10T07:59:20Z</time>
      </trkpt>
      <trkpt lat="43.92912" lon="2.34347">
        <ele>287.908</ele>
        <time>2016-06-10T07:59:00Z</time>
      </trkpt>
      <trkpt lat="43.92951" lon="2.34189">
        <ele>297.526</ele>
        <time>2016-06-10T07:58:40Z</time>
      </trkpt>
      <trkpt lat="43.92911" lon="2.34139">
        <ele>301.606</ele>
        <time>2016-06-10T07:58:20Z</time>
      </trkpt>
      <trkpt lat="43.92781" lon="2.34128">
        <ele>327.889</ele>
        <time>2016-06-10T07:58:00Z</time>
      </trkpt>
      <trkpt lat="43.92764" lon="2.3406">
        <ele>330.464</ele>
        <time>2016-06-10T07:57:40Z</time>
      </trkpt>
      <trkpt lat="43.92702" lon="2.33929">
        <ele>338.545</ele>
        <time>2016-06-10T07:57:20Z</time>
      </trkpt>
      <trkpt lat="43.92734" lon="2.33843">
        <ele>340.299</ele>
        <time>2016-06-10T07:57:00Z</time>
      </trkpt>
      <trkpt lat="43.92707" lon="2.3385">
        <ele>344.177</ele>
        <time>2016-06-10T07:56:40Z</time>
      </trkpt>
      <trkpt lat="43.9271" lon="2.33802">
        <ele>352.321</ele>
        <time>2016-06-10T07:56:20Z</time>
      </trkpt>
      <trkpt lat="43.9271" lon="2.33802">
        <ele>352.398</ele>
        <time>2016-06-10T07:56:00Z</time>
      </trkpt>
      <trkpt lat="43.92793" lon="2.33757">
        <ele>349.973</ele>
        <time>2016-06-10T07:55:40Z</time>
      </trkpt>
      <trkpt lat="43.92815" lon="2.33663">
        <ele>353.837</ele>
        <time>2016-06-10T07:55:20Z</time>
      </trkpt>
      <trkpt lat="43.9275" lon="2.33624">
        <ele>361.808</ele>
        <time>2016-06-10T07:55:00Z</time>
      </trkpt>
      <trkpt lat="43.9269" lon="2.33562">
        <ele>363.719</ele>
        <time>2016-06-10T07:54:40Z</time>
      </trkpt>
      <trkpt lat="43.92552" lon="2.33515">
        <ele>382.209</ele>
        <time>2016-06-10T07:54:20Z</time>
      </trkpt>
      <trkpt lat="43.9252" lon="2.33453">
        <ele>385.119</ele>
        <time>2016-06-10T07:54:00Z</time>
      </trkpt>
      <trkpt lat="43.92524" lon="2.33341">
        <ele>383.688</ele>
        <time>2016-06-10T07:53:40Z</time>
      </trkpt>
      <trkpt lat="43.9252" lon="2.3321">
        <ele>385.599</ele>
        <time>2016-06-10T07:53:20Z</time>
      </trkpt>
      <trkpt lat="43.9258" lon="2.33079">
        <ele>391.743</ele>
        <time>2016-06-10T07:53:00Z</time>
      </trkpt>
      <trkpt lat="43.927" lon="2.32594">
        <ele>388.721</ele>
        <time>2016-06-10T07:52:40Z</time>
      </trkpt>
      <trkpt lat="43.92734" lon="2.32528">
        <ele>385.615</ele>
        <time>2016-06-10T07:52:20Z</time>
      </trkpt>
      <trkpt lat="43.92745" lon="2.32423">
        <ele>384.482</ele>
        <time>2016-06-10T07:52:00Z</time>
      </trkpt>
      <trkpt lat="43.92742" lon="2.32264">
        <ele>381.867</ele>
        <time>2016-06-10T07:51:40Z</time>
      </trkpt>
      <trkpt lat="43.92765" lon="2.32178">
        <ele>374.681</ele>
        <time>2016-06-10T07:51:20Z</time>
      </trkpt>
      <trkpt lat="43.92759" lon="2.32045">
        <ele>358.408</ele>
        <time>2016-06-10T07:51:00Z</time>
      </trkpt>
      <trkpt lat="43.9276" lon="2.32009">
        <ele>345.423</ele>
        <time>2020-12-26T23:00:15Z</time>
      </trkpt>
      <trkpt lat="43.92803" lon="2.31932">
        <ele>331.303</ele>
        <time>2020-12-26T22:59:55Z</time>
      </trkpt>
      <trkpt lat="43.92847" lon="2.3205">
        <ele>333.859</ele>
        <time>2020-12-26T22:59:35Z</time>
      </trkpt>
      <trkpt lat="43.92873" lon="2.32075">
        <ele>329.017</ele>
        <time>2020-12-26T22:59:15Z</time>
      </trkpt>
      <trkpt lat="43.92878" lon="2.3202">
        <ele>321.378</ele>
        <time>2020-12-26T22:58:55Z</time>
      </trkpt>
      <trkpt lat="43.92892" lon="2.32017">
        <ele>316.842</ele>
        <time>2020-12-26T22:58:35Z</time>
      </trkpt>
      <trkpt lat="43.92914" lon="2.32033">
        <ele>312.23</ele>
        <time>2020-12-26T22:58:15Z</time>
      </trkpt>
      <trkpt lat="43.92923" lon="2.32069">
        <ele>304.824</ele>
        <time>2016-06-10T07:48:20Z</time>
      </trkpt>
      <trkpt lat="43.92983" lon="2.32126">
        <ele>298.261</ele>
        <time>2016-06-10T07:48:00Z</time>
      </trkpt>
      <trkpt lat="43.92983" lon="2.31985">
        <ele>276.126</ele>
        <time>2016-06-10T07:47:40Z</time>
      </trkpt>
      <trkpt lat="43.9305" lon="2.31985">
        <ele>261.02</ele>
        <time>2016-06-10T07:47:20Z</time>
      </trkpt>
      <trkpt lat="43.93068" lon="2.31953">
        <ele>254.808</ele>
        <time>2016-06-10T07:47:00Z</time>
      </trkpt>
      <trkpt lat="43.93068" lon="2.32011">
        <ele>254.321</ele>
        <time>2016-06-10T07:46:40Z</time>
      </trkpt>
      <trkpt lat="43.93098" lon="2.31991">
        <ele>244.429</ele>
        <time>2016-06-10T07:46:20Z</time>
      </trkpt>
      <trkpt lat="43.93098" lon="2.31912">
        <ele>241.047</ele>
        <time>2016-06-10T07:46:00Z</time>
      </trkpt>
      <trkpt lat="43.93088" lon="2.31805">
        <ele>234.595</ele>
        <time>2016-06-10T07:45:40Z</time>
      </trkpt>
      <trkpt lat="43.93116" lon="2.31751">
        <ele>223.066</ele>
        <time>2016-06-10T07:45:20Z</time>
      </trkpt>
      <trkpt lat="43.93145" lon="2.31594">
        <ele>205.12</ele>
        <time>2016-06-10T07:45:00Z</time>
      </trkpt>
      <trkpt lat="43.93181" lon="2.31558">
        <ele>199.058</ele>
        <time>2016-06-10T07:44:40Z</time>
      </trkpt>
      <trkpt lat="43.93145" lon="2.31187">
        <ele>192.872</ele>
        <time>2016-06-10T07:44:20Z</time>
      </trkpt>
      <trkpt lat="43.93183" lon="2.31137">
        <ele>192.579</ele>
        <time>2016-06-10T07:44:00Z</time>
      </trkpt>
      <trkpt lat="43.93139" lon="2.30541">
        <ele>189.094</ele>
        <time>2016-06-10T07:43:40Z</time>
      </trkpt>
      <trkpt lat="43.9311" lon="2.3038">
        <ele>207.138</ele>
        <time>2016-06-10T07:43:20Z</time>
      </trkpt>
      <trkpt lat="43.93107" lon="2.3032">
        <ele>214.608</ele>
        <time>2016-06-10T07:43:00Z</time>
      </trkpt>
      <trkpt lat="43.93076" lon="2.30384">
        <ele>220.117</ele>
        <time>2016-06-10T07:42:40Z</time>
      </trkpt>
      <trkpt lat="43.9305" lon="2.30453">
        <ele>223.689</ele>
        <time>2016-06-10T07:42:20Z</time>
      </trkpt>
      <trkpt lat="43.92994" lon="2.30457">
        <ele>230.828</ele>
        <time>2016-06-10T07:42:00Z</time>
      </trkpt>
      <trkpt lat="43.92841" lon="2.30414">
        <ele>269.196</ele>
        <time>2016-06-10T07:41:40Z</time>
      </trkpt>
      <trkpt lat="43.92816" lon="2.30391">
        <ele>281.577</ele>
        <time>2016-06-10T07:41:20Z</time>
      </trkpt>
      <trkpt lat="43.92764" lon="2.30386">
        <ele>281.721</ele>
        <time>2016-06-10T07:41:00Z</time>
      </trkpt>
      <trkpt lat="43.92769" lon="2.30347">
        <ele>297.759</ele>
        <time>2020-12-26T22:50:15Z</time>
      </trkpt>
      <trkpt lat="43.92792" lon="2.30304">
        <ele>312.313</ele>
        <time>2020-12-26T22:49:55Z</time>
      </trkpt>
      <trkpt lat="43.92773" lon="2.30139">
        <ele>349.74</ele>
        <time>2016-06-10T07:39:00Z</time>
      </trkpt>
      <trkpt lat="43.92745" lon="2.30049">
        <ele>358.025</ele>
        <time>2016-06-10T07:38:40Z</time>
      </trkpt>
      <trkpt lat="43.92693" lon="2.29987">
        <ele>357.339</ele>
        <time>2016-06-10T07:38:20Z</time>
      </trkpt>
      <trkpt lat="43.92693" lon="2.29987">
        <ele>357.308</ele>
        <time>2016-06-10T07:38:00Z</time>
      </trkpt>
      <trkpt lat="43.92691" lon="2.29886">
        <ele>355.214</ele>
        <time>2016-06-10T07:37:40Z</time>
      </trkpt>
      <trkpt lat="43.92653" lon="2.29727">
        <ele>355.086</ele>
        <time>2016-06-10T07:37:20Z</time>
      </trkpt>
      <trkpt lat="43.92756" lon="2.29734">
        <ele>359.835</ele>
        <time>2016-06-10T07:37:00Z</time>
      </trkpt>
      <trkpt lat="43.92853" lon="2.29775">
        <ele>352.465</ele>
        <time>2016-06-10T07:36:40Z</time>
      </trkpt>
      <trkpt lat="43.92924" lon="2.29773">
        <ele>350.146</ele>
        <time>2016-06-10T07:36:20Z</time>
      </trkpt>
      <trkpt lat="43.93102" lon="2.29672">
        <ele>330.74</ele>
        <time>2016-06-10T07:36:00Z</time>
      </trkpt>
      <trkpt lat="43.93145" lon="2.29592">
        <ele>321.928</ele>
        <time>2016-06-10T07:35:40Z</time>
      </trkpt>
      <trkpt lat="43.93226" lon="2.29622">
        <ele>311.992</ele>
        <time>2016-06-10T07:35:20Z</time>
      </trkpt>
      <trkpt lat="43.93237" lon="2.29588">
        <ele>307.029</ele>
        <time>2016-06-10T07:35:00Z</time>
      </trkpt>
      <trkpt lat="43.93286" lon="2.29622">
        <ele>295.274</ele>
        <time>2016-06-10T07:34:40Z</time>
      </trkpt>
      <trkpt lat="43.93396" lon="2.29625">
        <ele>288.318</ele>
        <time>2016-06-10T07:34:20Z</time>
      </trkpt>
      <trkpt lat="43.93502" lon="2.29554">
        <ele>295.608</ele>
        <time>2016-06-10T07:34:00Z</time>
      </trkpt>
      <trkpt lat="43.93623" lon="2.29532">
        <ele>280.311</ele>
        <time>2016-06-10T07:33:40Z</time>
      </trkpt>
      <trkpt lat="43.93659" lon="2.29474">
        <ele>264.483</ele>
        <time>2016-06-10T07:33:20Z</time>
      </trkpt>
      <trkpt lat="43.93818" lon="2.29393">
        <ele>244.023</ele>
        <time>2016-06-10T07:33:00Z</time>
      </trkpt>
      <trkpt lat="43.93978" lon="2.29382">
        <ele>222.147</ele>
        <time>2016-06-10T07:32:40Z</time>
      </trkpt>
      <trkpt lat="43.93955" lon="2.2935">
        <ele>216.868</ele>
        <time>2016-06-10T07:32:20Z</time>
      </trkpt>
      <trkpt lat="43.93709" lon="2.29232">
        <ele>198.722</ele>
        <time>2016-06-10T07:32:00Z</time>
      </trkpt>
      <trkpt lat="43.93453" lon="2.29155">
        <ele>194.51</ele>
        <time>2016-06-10T07:31:40Z</time>
      </trkpt>
      <trkpt lat="43.93422" lon="2.29101">
        <ele>190.384</ele>
        <time>2016-06-10T07:31:20Z</time>
      </trkpt>
      <trkpt lat="43.93332" lon="2.29075">
        <ele>191.111</ele>
        <time>2016-06-10T07:31:00Z</time>
      </trkpt>
      <trkpt lat="43.93272" lon="2.29007">
        <ele>188.796</ele>
        <time>2016-06-10T07:30:40Z</time>
      </trkpt>
      <trkpt lat="43.93135" lon="2.28904">
        <ele>189.37</ele>
        <time>2016-06-10T07:30:20Z</time>
      </trkpt>
      <trkpt lat="43.93074" lon="2.28792">
        <ele>187.208</ele>
        <time>2016-06-10T07:30:00Z</time>
      </trkpt>
      <trkpt lat="43.93056" lon="2.28713">
        <ele>186.322</ele>
        <time>2016-06-10T07:29:40Z</time>
      </trkpt>
      <trkpt lat="43.93056" lon="2.28713">
        <ele>186.302</ele>
        <time>2016-06-10T07:29:40Z</time>
      </trkpt>
      <trkpt lat="43.93056" lon="2.28713">
        <ele>186.349</ele>
        <time>2016-06-10T07:29:40Z</time>
      </trkpt>
      <trkpt lat="43.9301" lon="2.28661">
        <ele>191.228</ele>
        <time>2019-10-31T16:19:39Z</time>
      </trkpt>
      <trkpt lat="43.92983" lon="2.28643">
        <ele>194.779</ele>
        <time>2019-10-31T16:19:19Z</time>
      </trkpt>
      <trkpt lat="43.92992" lon="2.28587">
        <ele>195.593</ele>
        <time>2019-10-31T16:18:59Z</time>
      </trkpt>
      <trkpt lat="43.9298" lon="2.28564">
        <ele>197.141</ele>
        <time>2019-10-31T16:18:39Z</time>
      </trkpt>
      <trkpt lat="43.92937" lon="2.28559">
        <ele>203.525</ele>
        <time>2019-10-31T16:18:19Z</time>
      </trkpt>
      <trkpt lat="43.92923" lon="2.28504">
        <ele>208.662</ele>
        <time>2019-10-31T16:17:59Z</time>
      </trkpt>
      <trkpt lat="43.9296" lon="2.28398">
        <ele>218.137</ele>
        <time>2019-10-31T16:17:39Z</time>
      </trkpt>
      <trkpt lat="43.92942" lon="2.28398">
        <ele>220.861</ele>
        <time>2019-10-31T16:17:19Z</time>
      </trkpt>
      <trkpt lat="43.92911" lon="2.28422">
        <ele>220.108</ele>
        <time>2019-10-31T16:16:59Z</time>
      </trkpt>
      <trkpt lat="43.92876" lon="2.28426">
        <ele>221.608</ele>
        <time>2019-10-31T16:16:39Z</time>
      </trkpt>
      <trkpt lat="43.92871" lon="2.284">
        <ele>227.953</ele>
        <time>2019-10-31T16:16:19Z</time>
      </trkpt>
      <trkpt lat="43.92897" lon="2.28385">
        <ele>231.252</ele>
        <time>2019-10-31T16:15:59Z</time>
      </trkpt>
      <trkpt lat="43.92902" lon="2.28359">
        <ele>235.525</ele>
        <time>2019-10-31T16:15:39Z</time>
      </trkpt>
      <trkpt lat="43.9284" lon="2.28323">
        <ele>248.616</ele>
        <time>2019-10-31T16:15:19Z</time>
      </trkpt>
      <trkpt lat="43.92742" lon="2.28226">
        <ele>272.04</ele>
        <time>2019-10-31T16:14:59Z</time>
      </trkpt>
      <trkpt lat="43.9265" lon="2.28189">
        <ele>298.728</ele>
        <time>2019-10-31T16:14:39Z</time>
      </trkpt>
      <trkpt lat="43.92584" lon="2.28226">
        <ele>307.782</ele>
        <time>2019-10-31T16:14:19Z</time>
      </trkpt>
      <trkpt lat="43.92602" lon="2.28071">
        <ele>328.929</ele>
        <time>2019-10-31T16:13:59Z</time>
      </trkpt>
      <trkpt lat="43.92652" lon="2.28052">
        <ele>321.134</ele>
        <time>2019-10-31T16:13:39Z</time>
      </trkpt>
      <trkpt lat="43.92665" lon="2.28017">
        <ele>327.938</ele>
        <time>2019-10-31T16:13:19Z</time>
      </trkpt>
      <trkpt lat="43.9268" lon="2.27993">
        <ele>332.208</ele>
        <time>2019-10-31T16:12:59Z</time>
      </trkpt>
      <trkpt lat="43.92673" lon="2.27912">
        <ele>335.011</ele>
        <time>2019-10-31T16:12:39Z</time>
      </trkpt>
      <trkpt lat="43.92566" lon="2.27937">
        <ele>340.047</ele>
        <time>2019-10-31T16:12:19Z</time>
      </trkpt>
      <trkpt lat="43.92467" lon="2.27967">
        <ele>343.426</ele>
        <time>2019-10-31T16:11:59Z</time>
      </trkpt>
      <trkpt lat="43.92278" lon="2.28082">
        <ele>349.024</ele>
        <time>2019-10-31T16:11:39Z</time>
      </trkpt>
      <trkpt lat="43.92075" lon="2.28004">
        <ele>346.365</ele>
        <time>2019-10-31T16:11:19Z</time>
      </trkpt>
      <trkpt lat="43.91995" lon="2.27826">
        <ele>344.069</ele>
        <time>2019-10-31T16:10:59Z</time>
      </trkpt>
      <trkpt lat="43.91951" lon="2.27679">
        <ele>339.417</ele>
        <time>2019-10-31T16:10:39Z</time>
      </trkpt>
      <trkpt lat="43.91862" lon="2.2757">
        <ele>325.251</ele>
        <time>2019-10-31T16:10:19Z</time>
      </trkpt>
      <trkpt lat="43.91831" lon="2.27352">
        <ele>318.528</ele>
        <time>2019-10-31T16:09:59Z</time>
      </trkpt>
      <trkpt lat="43.91804" lon="2.27231">
        <ele>321.213</ele>
        <time>2019-10-31T16:09:39Z</time>
      </trkpt>
      <trkpt lat="43.91769" lon="2.27141">
        <ele>321.697</ele>
        <time>2019-10-31T16:09:19Z</time>
      </trkpt>
      <trkpt lat="43.91785" lon="2.27081">
        <ele>325.108</ele>
        <time>2019-10-31T16:08:59Z</time>
      </trkpt>
      <trkpt lat="43.91709" lon="2.26894">
        <ele>330.013</ele>
        <time>2019-10-31T16:08:39Z</time>
      </trkpt>
      <trkpt lat="43.9171" lon="2.26853">
        <ele>330.076</ele>
        <time>2019-10-31T16:08:19Z</time>
      </trkpt>
      <trkpt lat="43.91672" lon="2.26808">
        <ele>330.016</ele>
        <time>2019-10-31T16:07:59Z</time>
      </trkpt>
      <trkpt lat="43.9166" lon="2.26651">
        <ele>327.565</ele>
        <time>2019-10-31T16:07:39Z</time>
      </trkpt>
      <trkpt lat="43.91643" lon="2.26554">
        <ele>323.316</ele>
        <time>2019-10-31T16:07:19Z</time>
      </trkpt>
      <trkpt lat="43.91639" lon="2.2645">
        <ele>321.15</ele>
        <time>2019-10-31T16:06:59Z</time>
      </trkpt>
      <trkpt lat="43.9166" lon="2.26332">
        <ele>319.538</ele>
        <time>2019-10-31T16:06:39Z</time>
      </trkpt>
      <trkpt lat="43.91707" lon="2.26177">
        <ele>309.712</ele>
        <time>2019-10-31T16:06:19Z</time>
      </trkpt>
      <trkpt lat="43.91776" lon="2.26119">
        <ele>308.489</ele>
        <time>2019-10-31T16:05:59Z</time>
      </trkpt>
      <trkpt lat="43.91799" lon="2.25962">
        <ele>301.654</ele>
        <time>2019-10-31T16:05:39Z</time>
      </trkpt>
      <trkpt lat="43.91769" lon="2.25833">
        <ele>296.718</ele>
        <time>2019-10-31T16:05:19Z</time>
      </trkpt>
      <trkpt lat="43.9177" lon="2.25699">
        <ele>295.008</ele>
        <time>2019-10-31T16:04:59Z</time>
      </trkpt>
      <trkpt lat="43.91811" lon="2.25637">
        <ele>294.117</ele>
        <time>2019-10-31T16:04:39Z</time>
      </trkpt>
      <trkpt lat="43.91893" lon="2.25506">
        <ele>296.489</ele>
        <time>2019-10-31T16:04:19Z</time>
      </trkpt>
      <trkpt lat="43.91949" lon="2.25473">
        <ele>297.028</ele>
        <time>2019-10-31T16:03:59Z</time>
      </trkpt>
      <trkpt lat="43.92198" lon="2.25237">
        <ele>295.075</ele>
        <time>2019-10-31T16:03:39Z</time>
      </trkpt>
      <trkpt lat="43.92252" lon="2.25178">
        <ele>294.476</ele>
        <time>2019-10-31T16:03:19Z</time>
      </trkpt>
      <trkpt lat="43.92439" lon="2.24952">
        <ele>293.12</ele>
        <time>2019-10-31T16:02:59Z</time>
      </trkpt>
      <trkpt lat="43.92415" lon="2.24793">
        <ele>290.098</ele>
        <time>2019-10-31T16:02:39Z</time>
      </trkpt>
      <trkpt lat="43.92376" lon="2.24655">
        <ele>290.062</ele>
        <time>2019-10-31T16:02:19Z</time>
      </trkpt>
      <trkpt lat="43.92348" lon="2.24509">
        <ele>287.319</ele>
        <time>2019-10-31T16:01:59Z</time>
      </trkpt>
      <trkpt lat="43.92361" lon="2.24333">
        <ele>282.034</ele>
        <time>2019-10-31T16:01:39Z</time>
      </trkpt>
      <trkpt lat="43.92504" lon="2.24395">
        <ele>282.158</ele>
        <time>2019-10-31T16:01:19Z</time>
      </trkpt>
      <trkpt lat="43.92575" lon="2.24395">
        <ele>280.508</ele>
        <time>2019-10-31T16:00:59Z</time>
      </trkpt>
      <trkpt lat="43.92736" lon="2.2429">
        <ele>278.22</ele>
        <time>2019-10-31T16:00:39Z</time>
      </trkpt>
      <trkpt lat="43.92848" lon="2.24264">
        <ele>274.2</ele>
        <time>2019-10-31T16:00:19Z</time>
      </trkpt>
      <trkpt lat="43.92975" lon="2.24208">
        <ele>270.529</ele>
        <time>2019-10-31T15:59:59Z</time>
      </trkpt>
      <trkpt lat="43.93082" lon="2.24139">
        <ele>271.048</ele>
        <time>2019-10-31T15:59:39Z</time>
      </trkpt>
      <trkpt lat="43.93016" lon="2.24335">
        <ele>273.049</ele>
        <time>2019-10-31T15:59:19Z</time>
      </trkpt>
      <trkpt lat="43.931" lon="2.24414">
        <ele>272.073</ele>
        <time>2019-10-31T15:58:59Z</time>
      </trkpt>
      <trkpt lat="43.93241" lon="2.24259">
        <ele>269.861</ele>
        <time>2019-10-31T15:58:39Z</time>
      </trkpt>
      <trkpt lat="43.93336" lon="2.24234">
        <ele>265.085</ele>
        <time>2019-10-31T15:58:19Z</time>
      </trkpt>
      <trkpt lat="43.93358" lon="2.24051">
        <ele>265.072</ele>
        <time>2019-10-31T15:57:59Z</time>
      </trkpt>
      <trkpt lat="43.93513" lon="2.24064">
        <ele>260.627</ele>
        <time>2019-10-31T15:57:39Z</time>
      </trkpt>
      <trkpt lat="43.93556" lon="2.24055">
        <ele>254.151</ele>
        <time>2019-10-31T15:57:19Z</time>
      </trkpt>
      <trkpt lat="43.93649" lon="2.24062">
        <ele>232.508</ele>
        <time>2019-10-31T15:56:59Z</time>
      </trkpt>
      <trkpt lat="43.93798" lon="2.2395">
        <ele>209.314</ele>
        <time>2019-10-31T15:56:39Z</time>
      </trkpt>
      <trkpt lat="43.93875" lon="2.23947">
        <ele>194.859</ele>
        <time>2019-10-31T15:56:19Z</time>
      </trkpt>
      <trkpt lat="43.93918" lon="2.23872">
        <ele>200.656</ele>
        <time>2019-10-31T15:55:59Z</time>
      </trkpt>
      <trkpt lat="43.94056" lon="2.23739">
        <ele>216.04</ele>
        <time>2019-10-31T15:55:39Z</time>
      </trkpt>
      <trkpt lat="43.94154" lon="2.23678">
        <ele>219.791</ele>
        <time>2019-10-31T15:55:19Z</time>
      </trkpt>
      <trkpt lat="43.94243" lon="2.2356">
        <ele>230.385</ele>
        <time>2019-10-31T15:54:59Z</time>
      </trkpt>
      <trkpt lat="43.94248" lon="2.23523">
        <ele>232.443</ele>
        <time>2019-10-31T15:54:39Z</time>
      </trkpt>
      <trkpt lat="43.94427" lon="2.23446">
        <ele>230.597</ele>
        <time>2019-10-31T15:54:19Z</time>
      </trkpt>
      <trkpt lat="43.94453" lon="2.23282">
        <ele>231.784</ele>
        <time>2019-10-31T15:53:59Z</time>
      </trkpt>
      <trkpt lat="43.94503" lon="2.23164">
        <ele>230.939</ele>
        <time>2019-10-31T15:53:39Z</time>
      </trkpt>
      <trkpt lat="43.94544" lon="2.2299">
        <ele>228.863</ele>
        <time>2019-10-31T15:53:19Z</time>
      </trkpt>
      <trkpt lat="43.94543" lon="2.22843">
        <ele>228.508</ele>
        <time>2019-10-31T15:52:59Z</time>
      </trkpt>
      <trkpt lat="43.94591" lon="2.22871">
        <ele>226.227</ele>
        <time>2019-10-31T15:52:39Z</time>
      </trkpt>
      <trkpt lat="43.94618" lon="2.22912">
        <ele>224.061</ele>
        <time>2019-10-31T15:52:19Z</time>
      </trkpt>
      <trkpt lat="43.94634" lon="2.23009">
        <ele>220.277</ele>
        <time>2019-10-31T15:51:59Z</time>
      </trkpt>
      <trkpt lat="43.94651" lon="2.23072">
        <ele>216.822</ele>
        <time>2019-10-31T15:51:39Z</time>
      </trkpt>
      <trkpt lat="43.94733" lon="2.23029">
        <ele>209.173</ele>
        <time>2019-10-31T15:51:19Z</time>
      </trkpt>
      <trkpt lat="43.9477" lon="2.22914">
        <ele>211.357</ele>
        <time>2019-10-31T15:50:59Z</time>
      </trkpt>
      <trkpt lat="43.94792" lon="2.22878">
        <ele>212.595</ele>
        <time>2019-10-31T15:50:39Z</time>
      </trkpt>
      <trkpt lat="43.94827" lon="2.22867">
        <ele>204.469</ele>
        <time>2019-10-31T15:50:19Z</time>
      </trkpt>
      <trkpt lat="43.95014" lon="2.22766">
        <ele>179.066</ele>
        <time>2019-10-31T15:49:59Z</time>
      </trkpt>
      <trkpt lat="43.95004" lon="2.22506">
        <ele>180.781</ele>
        <time>2019-10-31T15:49:39Z</time>
      </trkpt>
      <trkpt lat="43.95022" lon="2.22387">
        <ele>182.595</ele>
        <time>2019-10-31T15:49:19Z</time>
      </trkpt>
      <trkpt lat="43.95059" lon="2.22252">
        <ele>182.608</ele>
        <time>2019-10-31T15:48:59Z</time>
      </trkpt>
      <trkpt lat="43.9517" lon="2.22058">
        <ele>179.321</ele>
        <time>2019-10-31T15:48:39Z</time>
      </trkpt>
      <trkpt lat="43.95195" lon="2.2194">
        <ele>181.165</ele>
        <time>2019-10-31T15:48:19Z</time>
      </trkpt>
      <trkpt lat="43.95203" lon="2.21815">
        <ele>182.393</ele>
        <time>2019-10-31T15:47:59Z</time>
      </trkpt>
      <trkpt lat="43.9519" lon="2.21703">
        <ele>179.062</ele>
        <time>2019-10-31T15:47:39Z</time>
      </trkpt>
      <trkpt lat="43.95172" lon="2.21669">
        <ele>181.083</ele>
        <time>2019-10-31T15:47:19Z</time>
      </trkpt>
      <trkpt lat="43.95146" lon="2.21473">
        <ele>180.337</ele>
        <time>2019-10-31T15:46:59Z</time>
      </trkpt>
      <trkpt lat="43.95109" lon="2.21365">
        <ele>180.215</ele>
        <time>2019-10-31T15:46:39Z</time>
      </trkpt>
      <trkpt lat="43.95065" lon="2.21283">
        <ele>186.139</ele>
        <time>2019-10-31T15:46:19Z</time>
      </trkpt>
      <trkpt lat="43.95022" lon="2.2124">
        <ele>190.866</ele>
        <time>2019-10-31T15:45:59Z</time>
      </trkpt>
      <trkpt lat="43.94823" lon="2.21124">
        <ele>193.221</ele>
        <time>2019-10-31T15:45:39Z</time>
      </trkpt>
      <trkpt lat="43.9477" lon="2.21083">
        <ele>190.025</ele>
        <time>2019-10-31T15:45:19Z</time>
      </trkpt>
      <trkpt lat="43.94675" lon="2.20905">
        <ele>185.908</ele>
        <time>2019-10-31T15:44:59Z</time>
      </trkpt>
      <trkpt lat="43.94669" lon="2.20844">
        <ele>184.424</ele>
        <time>2019-10-31T15:44:39Z</time>
      </trkpt>
      <trkpt lat="43.94629" lon="2.2075">
        <ele>183.031</ele>
        <time>2019-10-31T15:44:19Z</time>
      </trkpt>
      <trkpt lat="43.94591" lon="2.20691">
        <ele>182.796</ele>
        <time>2019-10-31T15:43:59Z</time>
      </trkpt>
      <trkpt lat="43.94526" lon="2.2064">
        <ele>184.062</ele>
        <time>2019-10-31T15:43:39Z</time>
      </trkpt>
      <trkpt lat="43.94477" lon="2.20584">
        <ele>183.053</ele>
        <time>2019-10-31T15:43:19Z</time>
      </trkpt>
      <trkpt lat="43.94234" lon="2.20183">
        <ele>180.787</ele>
        <time>2019-10-31T15:42:59Z</time>
      </trkpt>
      <trkpt lat="43.94238" lon="2.20134">
        <ele>180.045</ele>
        <time>2019-10-31T15:42:39Z</time>
      </trkpt>
      <trkpt lat="43.94191" lon="2.20033">
        <ele>180.089</ele>
        <time>2019-10-31T15:42:19Z</time>
      </trkpt>
      <trkpt lat="43.94175" lon="2.20072">
        <ele>180.036</ele>
        <time>2019-10-31T15:41:59Z</time>
      </trkpt>
      <trkpt lat="43.9381" lon="2.19493">
        <ele>179.021</ele>
        <time>2019-10-31T15:41:39Z</time>
      </trkpt>
      <trkpt lat="43.93806" lon="2.19462">
        <ele>179.435</ele>
        <time>2019-10-31T15:41:19Z</time>
      </trkpt>
      <trkpt lat="43.93868" lon="2.19346">
        <ele>179.908</ele>
        <time>2019-10-31T15:40:59Z</time>
      </trkpt>
      <trkpt lat="43.93858" lon="2.19254">
        <ele>180.02</ele>
        <time>2019-10-31T15:40:39Z</time>
      </trkpt>
      <trkpt lat="43.93946" lon="2.19221">
        <ele>180.073</ele>
        <time>2019-10-31T15:40:19Z</time>
      </trkpt>
      <trkpt lat="43.93961" lon="2.1914">
        <ele>180.092</ele>
        <time>2019-10-31T15:39:59Z</time>
      </trkpt>
      <trkpt lat="43.93919" lon="2.1912">
        <ele>180.019</ele>
        <time>2019-10-31T15:39:39Z</time>
      </trkpt>
      <trkpt lat="43.93928" lon="2.19069">
        <ele>180.08</ele>
        <time>2019-10-31T15:39:19Z</time>
      </trkpt>
      <trkpt lat="43.93915" lon="2.19039">
        <ele>180.044</ele>
        <time>2019-10-31T15:38:59Z</time>
      </trkpt>
      <trkpt lat="43.93978" lon="2.18752">
        <ele>178.082</ele>
        <time>2019-10-31T15:38:39Z</time>
      </trkpt>
      <trkpt lat="43.93954" lon="2.18684">
        <ele>176.626</ele>
        <time>2019-10-31T15:38:19Z</time>
      </trkpt>
      <trkpt lat="43.93971" lon="2.18651">
        <ele>176.083</ele>
        <time>2019-10-31T15:37:59Z</time>
      </trkpt>
      <trkpt lat="43.93888" lon="2.1847">
        <ele>176.068</ele>
        <time>2019-10-31T15:37:39Z</time>
      </trkpt>
      <trkpt lat="43.93883" lon="2.18423">
        <ele>175.442</ele>
        <time>2019-10-31T15:37:19Z</time>
      </trkpt>
      <trkpt lat="43.93916" lon="2.18318">
        <ele>175.008</ele>
        <time>2019-10-31T15:36:59Z</time>
      </trkpt>
      <trkpt lat="43.93888" lon="2.18225">
        <ele>174.924</ele>
        <time>2019-10-31T15:36:39Z</time>
      </trkpt>
      <trkpt lat="43.93914" lon="2.18201">
        <ele>170.304</ele>
        <time>2019-10-31T15:36:19Z</time>
      </trkpt>
      <trkpt lat="43.93924" lon="2.18124">
        <ele>168.469</ele>
        <time>2019-10-31T15:35:59Z</time>
      </trkpt>
      <trkpt lat="43.93907" lon="2.18092">
        <ele>172.495</ele>
        <time>2019-10-31T15:35:39Z</time>
      </trkpt>
      <trkpt lat="43.93897" lon="2.18044">
        <ele>172.646</ele>
        <time>2019-10-31T15:35:19Z</time>
      </trkpt>
      <trkpt lat="43.93897" lon="2.17924">
        <ele>168.17</ele>
        <time>2019-10-31T15:34:59Z</time>
      </trkpt>
      <trkpt lat="43.93872" lon="2.17851">
        <ele>173.278</ele>
        <time>2019-10-31T15:34:39Z</time>
      </trkpt>
      <trkpt lat="43.93881" lon="2.17797">
        <ele>172.162</ele>
        <time>2019-10-31T15:34:19Z</time>
      </trkpt>
      <trkpt lat="43.93872" lon="2.17713">
        <ele>173.579</ele>
        <time>2019-10-31T15:33:59Z</time>
      </trkpt>
      <trkpt lat="43.93844" lon="2.17644">
        <ele>175.094</ele>
        <time>2019-10-31T15:33:39Z</time>
      </trkpt>
      <trkpt lat="43.93842" lon="2.17416">
        <ele>175.088</ele>
        <time>2019-10-31T15:33:19Z</time>
      </trkpt>
      <trkpt lat="43.9395" lon="2.17422">
        <ele>172.308</ele>
        <time>2019-10-31T15:32:59Z</time>
      </trkpt>
      <trkpt lat="43.94172" lon="2.17224">
        <ele>171.214</ele>
        <time>2019-10-31T15:32:39Z</time>
      </trkpt>
      <trkpt lat="43.94193" lon="2.16914">
        <ele>175.004</ele>
        <time>2019-10-31T15:32:19Z</time>
      </trkpt>
      <trkpt lat="43.94262" lon="2.16777">
        <ele>172.024</ele>
        <time>2019-10-31T15:31:59Z</time>
      </trkpt>
      <trkpt lat="43.943" lon="2.16742">
        <ele>169.275</ele>
        <time>2019-10-31T15:31:39Z</time>
      </trkpt>
      <trkpt lat="43.94227" lon="2.16706">
        <ele>169.426</ele>
        <time>2019-10-31T15:31:19Z</time>
      </trkpt>
      <trkpt lat="43.94179" lon="2.16766">
        <ele>172.61</ele>
        <time>2019-10-31T15:30:59Z</time>
      </trkpt>
      <trkpt lat="43.94016" lon="2.16712">
        <ele>174.868</ele>
        <time>2019-10-31T15:30:39Z</time>
      </trkpt>
      <trkpt lat="43.93832" lon="2.16628">
        <ele>175.072</ele>
        <time>2019-10-31T15:30:19Z</time>
      </trkpt>
      <trkpt lat="43.93593" lon="2.16768">
        <ele>175.099</ele>
        <time>2019-10-31T15:29:59Z</time>
      </trkpt>
      <trkpt lat="43.93537" lon="2.16792">
        <ele>175.044</ele>
        <time>2019-10-31T15:29:39Z</time>
      </trkpt>
      <trkpt lat="43.93499" lon="2.16676">
        <ele>175.018</ele>
        <time>2019-10-31T15:29:19Z</time>
      </trkpt>
      <trkpt lat="43.93538" lon="2.16501">
        <ele>175.008</ele>
        <time>2019-10-31T15:28:59Z</time>
      </trkpt>
      <trkpt lat="43.93494" lon="2.16377">
        <ele>175.005</ele>
        <time>2019-10-31T15:28:39Z</time>
      </trkpt>
      <trkpt lat="43.9346" lon="2.16402">
        <ele>175.041</ele>
        <time>2019-10-31T15:28:19Z</time>
      </trkpt>
      <trkpt lat="43.93433" lon="2.16377">
        <ele>174.821</ele>
        <time>2019-10-31T15:27:59Z</time>
      </trkpt>
      <trkpt lat="43.93409" lon="2.16377">
        <ele>173.824</ele>
        <time>2019-10-31T15:27:39Z</time>
      </trkpt>
      <trkpt lat="43.93378" lon="2.16475">
        <ele>174.375</ele>
        <time>2019-10-31T15:27:19Z</time>
      </trkpt>
      <trkpt lat="43.93347" lon="2.16488">
        <ele>171.139</ele>
        <time>2019-10-31T15:26:59Z</time>
      </trkpt>
      <trkpt lat="43.93332" lon="2.16441">
        <ele>166.677</ele>
        <time>2019-10-31T15:26:39Z</time>
      </trkpt>
      <trkpt lat="43.93275" lon="2.16473">
        <ele>160.081</ele>
        <time>2019-10-31T15:26:19Z</time>
      </trkpt>
      <trkpt lat="43.93265" lon="2.1643">
        <ele>160.098</ele>
        <time>2019-10-31T15:25:59Z</time>
      </trkpt>
      <trkpt lat="43.93269" lon="2.16387">
        <ele>160.013</ele>
        <time>2019-10-31T15:25:39Z</time>
      </trkpt>
      <trkpt lat="43.93302" lon="2.16338">
        <ele>160.097</ele>
        <time>2019-10-31T15:25:19Z</time>
      </trkpt>
      <trkpt lat="43.93315" lon="2.1626">
        <ele>160.008</ele>
        <time>2019-10-31T15:24:59Z</time>
      </trkpt>
      <trkpt lat="43.93297" lon="2.16191">
        <ele>159.709</ele>
        <time>2019-10-31T15:24:39Z</time>
      </trkpt>
      <trkpt lat="43.93211" lon="2.16116">
        <ele>156.554</ele>
        <time>2019-10-31T15:24:19Z</time>
      </trkpt>
      <trkpt lat="43.93232" lon="2.16043">
        <ele>151.214</ele>
        <time>2019-10-31T15:23:59Z</time>
      </trkpt>
      <trkpt lat="43.93237" lon="2.16002">
        <ele>151.582</ele>
        <time>2019-10-31T15:23:39Z</time>
      </trkpt>
      <trkpt lat="43.93265" lon="2.15929">
        <ele>151.513</ele>
        <time>2019-10-31T15:23:19Z</time>
      </trkpt>
      <trkpt lat="43.93253" lon="2.15895">
        <ele>150.447</ele>
        <time>2019-10-31T15:22:59Z</time>
      </trkpt>
      <trkpt lat="43.93252" lon="2.15856">
        <ele>150.095</ele>
        <time>2019-10-31T15:22:39Z</time>
      </trkpt>
      <trkpt lat="43.93295" lon="2.15823">
        <ele>150.259</ele>
        <time>2019-10-31T15:22:19Z</time>
      </trkpt>
      <trkpt lat="43.93358" lon="2.15851">
        <ele>151.236</ele>
        <time>2019-10-31T15:21:59Z</time>
      </trkpt>
      <trkpt lat="43.93369" lon="2.15697">
        <ele>150.761</ele>
        <time>2019-10-31T15:21:39Z</time>
      </trkpt>
      <trkpt lat="43.9338" lon="2.15662">
        <ele>151.195</ele>
        <time>2019-10-31T15:21:19Z</time>
      </trkpt>
      <trkpt lat="43.9338" lon="2.15612">
        <ele>151.408</ele>
        <time>2019-10-31T15:20:59Z</time>
      </trkpt>
      <trkpt lat="43.9344" lon="2.15589">
        <ele>150.227</ele>
        <time>2019-10-31T15:20:39Z</time>
      </trkpt>
      <trkpt lat="43.93463" lon="2.15557">
        <ele>151.407</ele>
        <time>2019-10-31T15:20:19Z</time>
      </trkpt>
      <trkpt lat="43.93462" lon="2.15445">
        <ele>151.299</ele>
        <time>2019-10-31T15:19:59Z</time>
      </trkpt>
      <trkpt lat="43.93439" lon="2.15425">
        <ele>150.04</ele>
        <time>2019-10-31T15:19:39Z</time>
      </trkpt>
      <trkpt lat="43.93384" lon="2.1543">
        <ele>150.081</ele>
        <time>2019-10-31T15:19:19Z</time>
      </trkpt>
      <trkpt lat="43.93336" lon="2.15415">
        <ele>150.075</ele>
        <time>2019-10-31T15:18:59Z</time>
      </trkpt>
      <trkpt lat="43.93312" lon="2.15315">
        <ele>150.423</ele>
        <time>2019-10-31T15:18:39Z</time>
      </trkpt>
      <trkpt lat="43.9326" lon="2.15244">
        <ele>159.057</ele>
        <time>2019-10-31T15:18:19Z</time>
      </trkpt>
      <trkpt lat="43.9323" lon="2.15216">
        <ele>163.574</ele>
        <time>2019-10-31T15:17:59Z</time>
      </trkpt>
      <trkpt lat="43.93209" lon="2.15165">
        <ele>159.299</ele>
        <time>2019-10-31T15:17:39Z</time>
      </trkpt>
      <trkpt lat="43.93225" lon="2.15145">
        <ele>150.453</ele>
        <time>2019-10-31T15:17:19Z</time>
      </trkpt>
      <trkpt lat="43.93221" lon="2.15111">
        <ele>150.408</ele>
        <time>2019-10-31T15:16:59Z</time>
      </trkpt>
      <trkpt lat="43.93197" lon="2.15085">
        <ele>155.619</ele>
        <time>2019-10-31T15:16:39Z</time>
      </trkpt>
      <trkpt lat="43.93176" lon="2.14926">
        <ele>153.59</ele>
        <time>2019-10-31T15:16:19Z</time>
      </trkpt>
      <trkpt lat="43.93152" lon="2.14889">
        <ele>154.276</ele>
        <time>2019-10-31T15:15:59Z</time>
      </trkpt>
      <trkpt lat="43.93172" lon="2.14857">
        <ele>149.222</ele>
        <time>2019-10-31T15:15:39Z</time>
      </trkpt>
      <trkpt lat="43.93164" lon="2.14833">
        <ele>149.123</ele>
        <time>2019-10-31T15:15:19Z</time>
      </trkpt>
      <trkpt lat="43.93176" lon="2.14765">
        <ele>144.877</ele>
        <time>2019-10-31T15:14:59Z</time>
      </trkpt>
      <trkpt lat="43.93156" lon="2.14745">
        <ele>148.775</ele>
        <time>2019-10-31T15:14:39Z</time>
      </trkpt>
      <trkpt lat="43.93132" lon="2.14664">
        <ele>145.029</ele>
        <time>2019-10-31T15:14:19Z</time>
      </trkpt>
      <trkpt lat="43.93116" lon="2.14659">
        <ele>153.976</ele>
        <time>2019-10-31T15:13:59Z</time>
      </trkpt>
      <trkpt lat="43.93057" lon="2.14508">
        <ele>150.411</ele>
        <time>2019-10-31T15:13:39Z</time>
      </trkpt>
      <trkpt lat="43.9319" lon="2.14407">
        <ele>142.455</ele>
        <time>2019-10-31T15:13:19Z</time>
      </trkpt>
      <trkpt lat="43.9323" lon="2.14226">
        <ele>159.208</ele>
        <time>2019-10-31T15:12:59Z</time>
      </trkpt>
      <trkpt lat="43.93189" lon="2.14119">
        <ele>160.026</ele>
        <time>2019-10-31T15:12:39Z</time>
      </trkpt>
      <trkpt lat="43.93073" lon="2.13921">
        <ele>160.015</ele>
        <time>2019-10-31T15:12:19Z</time>
      </trkpt>
      <trkpt lat="43.93007" lon="2.13844">
        <ele>158.698</ele>
        <time>2019-10-31T15:11:59Z</time>
      </trkpt>
      <trkpt lat="43.92945" lon="2.13667">
        <ele>155.096</ele>
        <time>2019-10-31T15:11:39Z</time>
      </trkpt>
      <trkpt lat="43.92933" lon="2.13512">
        <ele>151.457</ele>
        <time>2019-10-31T15:11:19Z</time>
      </trkpt>
      <trkpt lat="43.92933" lon="2.13437">
        <ele>150.511</ele>
        <time>2019-10-31T15:10:59Z</time>
      </trkpt>
      <trkpt lat="43.92952" lon="2.13364">
        <ele>149.319</ele>
        <time>2019-10-31T15:10:39Z</time>
      </trkpt>
      <trkpt lat="43.92985" lon="2.13305">
        <ele>145.463</ele>
        <time>2019-10-31T15:10:19Z</time>
      </trkpt>
      <trkpt lat="43.93045" lon="2.13269">
        <ele>142.58</ele>
        <time>2019-10-31T15:09:59Z</time>
      </trkpt>
      <trkpt lat="43.93057" lon="2.13288">
        <ele>142.435</ele>
        <time>2019-10-31T15:09:39Z</time>
      </trkpt>
      <trkpt lat="43.93089" lon="2.13241">
        <ele>141.779</ele>
        <time>2019-10-31T15:09:19Z</time>
      </trkpt>
      <trkpt lat="43.93104" lon="2.13172">
        <ele>140.108</ele>
        <time>2019-10-31T15:08:59Z</time>
      </trkpt>
      <trkpt lat="43.9314" lon="2.13146">
        <ele>139.211</ele>
        <time>2019-10-31T15:08:39Z</time>
      </trkpt>
      <trkpt lat="43.93217" lon="2.13172">
        <ele>140.292</ele>
        <time>2019-10-31T15:08:19Z</time>
      </trkpt>
      <trkpt lat="43.93254" lon="2.13222">
        <ele>140.832</ele>
        <time>2019-10-31T15:07:59Z</time>
      </trkpt>
      <trkpt lat="43.93253" lon="2.13273">
        <ele>142.864</ele>
        <time>2019-10-31T15:07:39Z</time>
      </trkpt>
      <trkpt lat="43.93277" lon="2.13323">
        <ele>144.745</ele>
        <time>2019-10-31T15:07:19Z</time>
      </trkpt>
      <trkpt lat="43.93272" lon="2.13381">
        <ele>147.589</ele>
        <time>2019-10-31T15:06:59Z</time>
      </trkpt>
      <trkpt lat="43.93237" lon="2.13413">
        <ele>148.947</ele>
        <time>2019-10-31T15:06:39Z</time>
      </trkpt>
      <trkpt lat="43.93162" lon="2.13435">
        <ele>148.531</ele>
        <time>2019-10-31T15:06:19Z</time>
      </trkpt>
      <trkpt lat="43.93158" lon="2.13512">
        <ele>150.138</ele>
        <time>2019-10-31T15:05:59Z</time>
      </trkpt>
      <trkpt lat="43.93143" lon="2.13523">
        <ele>150.043</ele>
        <time>2019-10-31T15:05:39Z</time>
      </trkpt>
      <trkpt lat="43.93112" lon="2.13708">
        <ele>154.077</ele>
        <time>2019-10-31T15:05:19Z</time>
      </trkpt>
      <trkpt lat="43.93121" lon="2.13749">
        <ele>157.808</ele>
        <time>2019-10-31T15:04:59Z</time>
      </trkpt>
      <trkpt lat="43.93183" lon="2.13751">
        <ele>155.417</ele>
        <time>2019-10-31T15:04:39Z</time>
      </trkpt>
      <trkpt lat="43.93265" lon="2.13777">
        <ele>155.098</ele>
        <time>2019-10-31T15:04:19Z</time>
      </trkpt>
      <trkpt lat="43.93366" lon="2.13858">
        <ele>156.018</ele>
        <time>2019-10-31T15:03:59Z</time>
      </trkpt>
      <trkpt lat="43.93436" lon="2.13947">
        <ele>156.492</ele>
        <time>2019-10-31T15:03:39Z</time>
      </trkpt>
      <trkpt lat="43.93897" lon="2.13785">
        <ele>156.093</ele>
        <time>2019-10-31T15:03:19Z</time>
      </trkpt>
      <trkpt lat="43.94156" lon="2.13648">
        <ele>160.057</ele>
        <time>2019-10-31T15:02:59Z</time>
      </trkpt>
      <trkpt lat="43.94232" lon="2.13596">
        <ele>156.585</ele>
        <time>2019-10-31T15:02:39Z</time>
      </trkpt>
      <trkpt lat="43.94329" lon="2.13686">
        <ele>157.899</ele>
        <time>2019-10-31T15:02:19Z</time>
      </trkpt>
      <trkpt lat="43.94487" lon="2.13813">
        <ele>157.566</ele>
        <time>2020-12-26T21:21:35Z</time>
      </trkpt>
      <trkpt lat="43.94504" lon="2.13798">
        <ele>156.611</ele>
        <time>2020-12-26T21:21:15Z</time>
      </trkpt>
      <trkpt lat="43.94633" lon="2.13873">
        <ele>155.215</ele>
        <time>2020-12-26T21:20:55Z</time>
      </trkpt>
      <trkpt lat="43.94697" lon="2.13887">
        <ele>155.208</ele>
        <time>2020-12-26T21:20:35Z</time>
      </trkpt>
      <trkpt lat="43.94798" lon="2.13884">
        <ele>156.827</ele>
        <time>2020-12-26T21:20:15Z</time>
      </trkpt>
      <trkpt lat="43.94924" lon="2.13872">
        <ele>151.407</ele>
        <time>2019-10-31T15:00:19Z</time>
      </trkpt>
      <trkpt lat="43.94972" lon="2.13915">
        <ele>159.899</ele>
        <time>2019-10-31T14:59:59Z</time>
      </trkpt>
      <trkpt lat="43.9499" lon="2.13947">
        <ele>160.048</ele>
        <time>2019-10-31T14:59:39Z</time>
      </trkpt>
      <trkpt lat="43.95217" lon="2.1391">
        <ele>160.019</ele>
        <time>2019-10-31T14:59:19Z</time>
      </trkpt>
      <trkpt lat="43.95276" lon="2.13878">
        <ele>160.093</ele>
        <time>2019-10-31T14:58:59Z</time>
      </trkpt>
      <trkpt lat="43.95371" lon="2.13889">
        <ele>160.021</ele>
        <time>2019-10-31T14:58:39Z</time>
      </trkpt>
      <trkpt lat="43.95564" lon="2.13856">
        <ele>166.685</ele>
        <time>2019-10-31T14:58:19Z</time>
      </trkpt>
      <trkpt lat="43.95577" lon="2.13803">
        <ele>168.632</ele>
        <time>2019-10-31T14:57:59Z</time>
      </trkpt>
      <trkpt lat="43.95566" lon="2.13659">
        <ele>169.327</ele>
        <time>2019-10-31T14:57:39Z</time>
      </trkpt>
      <trkpt lat="43.95619" lon="2.13493">
        <ele>173.791</ele>
        <time>2019-10-31T14:57:19Z</time>
      </trkpt>
      <trkpt lat="43.95632" lon="2.13323">
        <ele>169.408</ele>
        <time>2019-10-31T14:56:59Z</time>
      </trkpt>
      <trkpt lat="43.9563" lon="2.13198">
        <ele>173.511</ele>
        <time>2019-10-31T14:56:39Z</time>
      </trkpt>
      <trkpt lat="43.95636" lon="2.13133">
        <ele>173.201</ele>
        <time>2019-10-31T14:56:19Z</time>
      </trkpt>
      <trkpt lat="43.95673" lon="2.13075">
        <ele>171.651</ele>
        <time>2019-10-31T14:55:59Z</time>
      </trkpt>
      <trkpt lat="43.95861" lon="2.13019">
        <ele>178.755</ele>
        <time>2019-10-31T14:55:39Z</time>
      </trkpt>
      <trkpt lat="43.95901" lon="2.12996">
        <ele>173.316</ele>
        <time>2019-10-31T14:55:19Z</time>
      </trkpt>
      <trkpt lat="43.95986" lon="2.13054">
        <ele>172.73</ele>
        <time>2019-10-31T14:54:59Z</time>
      </trkpt>
      <trkpt lat="43.96029" lon="2.13118">
        <ele>177.738</ele>
        <time>2019-10-31T14:54:39Z</time>
      </trkpt>
      <trkpt lat="43.9609" lon="2.13179">
        <ele>181.692</ele>
        <time>2019-10-31T14:54:19Z</time>
      </trkpt>
      <trkpt lat="43.96169" lon="2.13237">
        <ele>176.349</ele>
        <time>2019-10-31T14:53:59Z</time>
      </trkpt>
      <trkpt lat="43.96336" lon="2.13467">
        <ele>178.364</ele>
        <time>2019-10-31T14:53:39Z</time>
      </trkpt>
      <trkpt lat="43.96387" lon="2.13478">
        <ele>175.878</ele>
        <time>2019-10-31T14:53:19Z</time>
      </trkpt>
      <trkpt lat="43.96436" lon="2.13458">
        <ele>170.008</ele>
        <time>2019-10-31T14:52:59Z</time>
      </trkpt>
      <trkpt lat="43.9654" lon="2.1334">
        <ele>182.82</ele>
        <time>2019-10-31T14:52:39Z</time>
      </trkpt>
      <trkpt lat="43.96992" lon="2.13123">
        <ele>186.9</ele>
        <time>2019-10-31T14:52:19Z</time>
      </trkpt>
      <trkpt lat="43.97059" lon="2.13079">
        <ele>194.729</ele>
        <time>2019-10-31T14:51:59Z</time>
      </trkpt>
      <trkpt lat="43.97141" lon="2.13011">
        <ele>203.027</ele>
        <time>2019-10-31T14:51:39Z</time>
      </trkpt>
      <trkpt lat="43.97192" lon="2.12989">
        <ele>206.828</ele>
        <time>2019-10-31T14:51:19Z</time>
      </trkpt>
      <trkpt lat="43.97236" lon="2.12948">
        <ele>198.422</ele>
        <time>2019-10-31T14:50:59Z</time>
      </trkpt>
      <trkpt lat="43.97363" lon="2.12892">
        <ele>197.35</ele>
        <time>2019-10-31T14:50:39Z</time>
      </trkpt>
      <trkpt lat="43.97473" lon="2.12897">
        <ele>211.354</ele>
        <time>2019-10-31T14:50:19Z</time>
      </trkpt>
      <trkpt lat="43.9756" lon="2.12937">
        <ele>209.141</ele>
        <time>2019-10-31T14:49:59Z</time>
      </trkpt>
      <trkpt lat="43.97691" lon="2.12905">
        <ele>216.176</ele>
        <time>2019-10-31T14:49:39Z</time>
      </trkpt>
      <trkpt lat="43.97813" lon="2.12931">
        <ele>217.29</ele>
        <time>2019-10-31T14:49:19Z</time>
      </trkpt>
      <trkpt lat="43.97876" lon="2.12907">
        <ele>220.408</ele>
        <time>2019-10-31T14:48:59Z</time>
      </trkpt>
      <trkpt lat="43.97964" lon="2.12806">
        <ele>226.911</ele>
        <time>2019-10-31T14:48:39Z</time>
      </trkpt>
      <trkpt lat="43.98045" lon="2.12715">
        <ele>222.347</ele>
        <time>2019-10-31T14:48:19Z</time>
      </trkpt>
      <trkpt lat="43.98069" lon="2.12717">
        <ele>229.145</ele>
        <time>2019-10-31T14:47:59Z</time>
      </trkpt>
      <trkpt lat="43.98082" lon="2.12733">
        <ele>233.058</ele>
        <time>2019-10-31T14:47:39Z</time>
      </trkpt>
      <trkpt lat="43.98094" lon="2.12717">
        <ele>235.039</ele>
        <time>2019-10-31T14:47:19Z</time>
      </trkpt>
      <trkpt lat="43.98132" lon="2.12725">
        <ele>242.223</ele>
        <time>2019-10-31T14:46:59Z</time>
      </trkpt>
      <trkpt lat="43.98223" lon="2.12676">
        <ele>249.291</ele>
        <time>2019-10-31T14:46:39Z</time>
      </trkpt>
      <trkpt lat="43.98267" lon="2.12652">
        <ele>249.875</ele>
        <time>2019-10-31T14:46:19Z</time>
      </trkpt>
      <trkpt lat="43.98301" lon="2.12657">
        <ele>248.742</ele>
        <time>2019-10-31T14:45:59Z</time>
      </trkpt>
      <trkpt lat="43.98326" lon="2.12694">
        <ele>248.077</ele>
        <time>2019-10-31T14:45:39Z</time>
      </trkpt>
      <trkpt lat="43.98343" lon="2.12687">
        <ele>245.021</ele>
        <time>2019-10-31T14:45:19Z</time>
      </trkpt>
      <trkpt lat="43.98341" lon="2.12778">
        <ele>245.108</ele>
        <time>2019-10-31T14:44:59Z</time>
      </trkpt>
      <trkpt lat="43.98363" lon="2.12856">
        <ele>246.917</ele>
        <time>2019-10-31T14:44:39Z</time>
      </trkpt>
      <trkpt lat="43.98356" lon="2.12919">
        <ele>243.107</ele>
        <time>2019-10-31T14:44:19Z</time>
      </trkpt>
      <trkpt lat="43.98322" lon="2.13004">
        <ele>247.955</ele>
        <time>2019-10-31T14:43:59Z</time>
      </trkpt>
      <trkpt lat="43.98324" lon="2.13133">
        <ele>246.96</ele>
        <time>2019-10-31T14:43:39Z</time>
      </trkpt>
      <trkpt lat="43.98384" lon="2.13196">
        <ele>245.121</ele>
        <time>2019-10-31T14:43:19Z</time>
      </trkpt>
      <trkpt lat="43.98409" lon="2.13194">
        <ele>246.475</ele>
        <time>2019-10-31T14:42:59Z</time>
      </trkpt>
      <trkpt lat="43.98462" lon="2.1321">
        <ele>252.973</ele>
        <time>2019-10-31T14:42:39Z</time>
      </trkpt>
      <trkpt lat="43.98532" lon="2.13173">
        <ele>245.927</ele>
        <time>2019-10-31T14:42:19Z</time>
      </trkpt>
      <trkpt lat="43.98571" lon="2.1313">
        <ele>231.444</ele>
        <time>2019-10-31T14:41:59Z</time>
      </trkpt>
      <trkpt lat="43.98781" lon="2.12985">
        <ele>252.869</ele>
        <time>2019-10-31T14:41:39Z</time>
      </trkpt>
      <trkpt lat="43.98842" lon="2.13053">
        <ele>254.823</ele>
        <time>2019-10-31T14:41:19Z</time>
      </trkpt>
      <trkpt lat="43.98877" lon="2.13048">
        <ele>261.508</ele>
        <time>2019-10-31T14:40:59Z</time>
      </trkpt>
      <trkpt lat="43.98942" lon="2.12968">
        <ele>270.225</ele>
        <time>2019-10-31T14:40:39Z</time>
      </trkpt>
      <trkpt lat="43.98983" lon="2.12968">
        <ele>276.205</ele>
        <time>2019-10-31T14:40:19Z</time>
      </trkpt>
      <trkpt lat="43.99025" lon="2.13008">
        <ele>286.479</ele>
        <time>2019-10-31T14:39:59Z</time>
      </trkpt>
      <trkpt lat="43.99082" lon="2.13233">
        <ele>294.41</ele>
        <time>2019-10-31T14:39:39Z</time>
      </trkpt>
      <trkpt lat="43.99099" lon="2.13322">
        <ele>300.741</ele>
        <time>2019-10-31T14:39:19Z</time>
      </trkpt>
      <trkpt lat="43.992" lon="2.1373">
        <ele>306.615</ele>
        <time>2019-10-31T14:38:59Z</time>
      </trkpt>
      <trkpt lat="43.99197" lon="2.13768">
        <ele>303.913</ele>
        <time>2019-10-31T14:38:39Z</time>
      </trkpt>
      <trkpt lat="43.99219" lon="2.13845">
        <ele>302.057</ele>
        <time>2019-10-31T14:38:19Z</time>
      </trkpt>
      <trkpt lat="43.99259" lon="2.13908">
        <ele>302.124</ele>
        <time>2019-10-31T14:37:59Z</time>
      </trkpt>
      <trkpt lat="43.99291" lon="2.139">
        <ele>301.229</ele>
        <time>2019-10-31T14:37:39Z</time>
      </trkpt>
      <trkpt lat="43.9933" lon="2.13877">
        <ele>300.133</ele>
        <time>2019-10-31T14:37:19Z</time>
      </trkpt>
      <trkpt lat="43.99361" lon="2.13819">
        <ele>303.508</ele>
        <time>2019-10-31T14:36:59Z</time>
      </trkpt>
      <trkpt lat="43.99383" lon="2.13789">
        <ele>304.42</ele>
        <time>2019-10-31T14:36:39Z</time>
      </trkpt>
      <trkpt lat="43.99429" lon="2.13788">
        <ele>305.528</ele>
        <time>2019-10-31T14:36:19Z</time>
      </trkpt>
      <trkpt lat="43.99463" lon="2.13814">
        <ele>309.175</ele>
        <time>2019-10-31T14:35:59Z</time>
      </trkpt>
      <trkpt lat="43.99477" lon="2.13842">
        <ele>310.422</ele>
        <time>2019-10-31T14:35:39Z</time>
      </trkpt>
      <trkpt lat="43.99509" lon="2.13893">
        <ele>315.373</ele>
        <time>2019-10-31T14:35:19Z</time>
      </trkpt>
      <trkpt lat="43.99528" lon="2.13947">
        <ele>314.827</ele>
        <time>2019-10-31T14:34:59Z</time>
      </trkpt>
      <trkpt lat="43.99548" lon="2.1397">
        <ele>313.845</ele>
        <time>2019-10-31T14:34:39Z</time>
      </trkpt>
      <trkpt lat="43.9957" lon="2.13968">
        <ele>315.139</ele>
        <time>2019-10-31T14:34:19Z</time>
      </trkpt>
      <trkpt lat="43.99599" lon="2.1391">
        <ele>317.376</ele>
        <time>2019-10-31T14:33:59Z</time>
      </trkpt>
      <trkpt lat="43.9966" lon="2.13816">
        <ele>317.121</ele>
        <time>2019-10-31T14:33:39Z</time>
      </trkpt>
      <trkpt lat="43.99738" lon="2.13855">
        <ele>315.095</ele>
        <time>2019-10-31T14:33:19Z</time>
      </trkpt>
      <trkpt lat="43.9968" lon="2.1387">
        <ele>315.508</ele>
        <time>2019-10-31T14:32:59Z</time>
      </trkpt>
      <trkpt lat="43.99682" lon="2.13891">
        <ele>315.425</ele>
        <time>2019-10-31T14:32:39Z</time>
      </trkpt>
      <trkpt lat="43.99771" lon="2.13917">
        <ele>315.023</ele>
        <time>2019-10-31T14:32:19Z</time>
      </trkpt>
      <trkpt lat="43.99786" lon="2.13938">
        <ele>315.097</ele>
        <time>2019-10-31T14:31:59Z</time>
      </trkpt>
      <trkpt lat="43.99714" lon="2.13973">
        <ele>316.057</ele>
        <time>2019-10-31T14:31:39Z</time>
      </trkpt>
      <trkpt lat="43.99708" lon="2.14029">
        <ele>317.078</ele>
        <time>2019-10-31T14:31:19Z</time>
      </trkpt>
      <trkpt lat="43.99726" lon="2.14064">
        <ele>318.352</ele>
        <time>2019-10-31T14:30:59Z</time>
      </trkpt>
      <trkpt lat="43.99729" lon="2.13999">
        <ele>317.02</ele>
        <time>2019-10-31T14:30:39Z</time>
      </trkpt>
      <trkpt lat="43.99884" lon="2.13975">
        <ele>314.594</ele>
        <time>2019-10-31T14:30:19Z</time>
      </trkpt>
      <trkpt lat="43.99939" lon="2.13977">
        <ele>314.081</ele>
        <time>2019-10-31T14:29:59Z</time>
      </trkpt>
      <trkpt lat="43.99984" lon="2.14024">
        <ele>315.066</ele>
        <time>2019-10-31T14:29:39Z</time>
      </trkpt>
      <trkpt lat="44.00202" lon="2.13973">
        <ele>352.83</ele>
        <time>2019-10-31T14:29:19Z</time>
      </trkpt>
      <trkpt lat="44.00327" lon="2.13985">
        <ele>354.208</ele>
        <time>2019-10-31T14:28:59Z</time>
      </trkpt>
      <trkpt lat="44.00544" lon="2.13982">
        <ele>355.711</ele>
        <time>2019-10-31T14:28:39Z</time>
      </trkpt>
      <trkpt lat="44.0065" lon="2.13957">
        <ele>355.747</ele>
        <time>2019-10-31T14:28:19Z</time>
      </trkpt>
      <trkpt lat="44.00744" lon="2.13971">
        <ele>360.245</ele>
        <time>2019-10-31T14:27:59Z</time>
      </trkpt>
      <trkpt lat="44.00864" lon="2.13926">
        <ele>359.374</ele>
        <time>2019-10-31T14:27:39Z</time>
      </trkpt>
      <trkpt lat="44.00902" lon="2.13898">
        <ele>353.445</ele>
        <time>2019-10-31T14:27:19Z</time>
      </trkpt>
      <trkpt lat="44.00998" lon="2.13919">
        <ele>345.429</ele>
        <time>2019-10-31T14:26:59Z</time>
      </trkpt>
      <trkpt lat="44.01031" lon="2.13932">
        <ele>346.477</ele>
        <time>2019-10-31T14:26:39Z</time>
      </trkpt>
      <trkpt lat="44.0106" lon="2.13933">
        <ele>345.091</ele>
        <time>2019-10-31T14:26:19Z</time>
      </trkpt>
      <trkpt lat="44.01082" lon="2.13961">
        <ele>343.548</ele>
        <time>2019-10-31T14:25:59Z</time>
      </trkpt>
      <trkpt lat="44.01094" lon="2.13954">
        <ele>343.123</ele>
        <time>2019-10-31T14:25:39Z</time>
      </trkpt>
      <trkpt lat="44.01109" lon="2.13913">
        <ele>342.987</ele>
        <time>2019-10-31T14:25:19Z</time>
      </trkpt>
      <trkpt lat="44.01095" lon="2.13878">
        <ele>341.408</ele>
        <time>2019-10-31T14:24:59Z</time>
      </trkpt>
      <trkpt lat="44.01054" lon="2.13874">
        <ele>339.805</ele>
        <time>2019-10-31T14:24:39Z</time>
      </trkpt>
      <trkpt lat="44.00981" lon="2.13839">
        <ele>332.832</ele>
        <time>2019-10-31T14:24:19Z</time>
      </trkpt>
      <trkpt lat="44.01039" lon="2.13842">
        <ele>334.712</ele>
        <time>2019-10-31T14:23:59Z</time>
      </trkpt>
      <trkpt lat="44.01058" lon="2.13815">
        <ele>335.116</ele>
        <time>2019-10-31T14:23:39Z</time>
      </trkpt>
      <trkpt lat="44.01114" lon="2.13828">
        <ele>341.077</ele>
        <time>2019-10-31T14:23:19Z</time>
      </trkpt>
      <trkpt lat="44.01177" lon="2.13839">
        <ele>338.421</ele>
        <time>2019-10-31T14:22:59Z</time>
      </trkpt>
      <trkpt lat="44.01372" lon="2.13805">
        <ele>328.919</ele>
        <time>2019-10-31T14:22:39Z</time>
      </trkpt>
      <trkpt lat="44.01517" lon="2.13745">
        <ele>313.013</ele>
        <time>2019-10-31T14:22:19Z</time>
      </trkpt>
      <trkpt lat="44.01629" lon="2.13783">
        <ele>299.57</ele>
        <time>2019-10-31T14:21:59Z</time>
      </trkpt>
      <trkpt lat="44.01627" lon="2.13828">
        <ele>298.525</ele>
        <time>2019-10-31T14:21:39Z</time>
      </trkpt>
      <trkpt lat="44.01615" lon="2.13865">
        <ele>296.859</ele>
        <time>2019-10-31T14:21:19Z</time>
      </trkpt>
      <trkpt lat="44.01582" lon="2.13902">
        <ele>297.608</ele>
        <time>2019-10-31T14:20:59Z</time>
      </trkpt>
      <trkpt lat="44.01573" lon="2.13945">
        <ele>297.811</ele>
        <time>2019-10-31T14:20:39Z</time>
      </trkpt>
      <trkpt lat="44.01554" lon="2.13981">
        <ele>300.392</ele>
        <time>2019-10-31T14:20:19Z</time>
      </trkpt>
      <trkpt lat="44.01529" lon="2.14026">
        <ele>303.932</ele>
        <time>2019-10-31T14:19:59Z</time>
      </trkpt>
      <trkpt lat="44.01523" lon="2.14069">
        <ele>302.784</ele>
        <time>2019-10-31T14:19:39Z</time>
      </trkpt>
      <trkpt lat="44.01526" lon="2.14128">
        <ele>297.095</ele>
        <time>2019-10-31T14:19:19Z</time>
      </trkpt>
      <trkpt lat="44.01501" lon="2.1413">
        <ele>300.889</ele>
        <time>2019-10-31T14:18:59Z</time>
      </trkpt>
      <trkpt lat="44.01496" lon="2.14249">
        <ele>299.867</ele>
        <time>2019-10-31T14:18:39Z</time>
      </trkpt>
      <trkpt lat="44.01536" lon="2.14346">
        <ele>286.181</ele>
        <time>2019-10-31T14:18:19Z</time>
      </trkpt>
      <trkpt lat="44.01547" lon="2.14417">
        <ele>280.528</ele>
        <time>2019-10-31T14:17:59Z</time>
      </trkpt>
      <trkpt lat="44.01471" lon="2.14521">
        <ele>287.053</ele>
        <time>2019-10-31T14:17:39Z</time>
      </trkpt>
      <trkpt lat="44.01418" lon="2.14486">
        <ele>290.837</ele>
        <time>2019-10-31T14:17:19Z</time>
      </trkpt>
      <trkpt lat="44.01418" lon="2.14565">
        <ele>295.008</ele>
        <time>2019-10-31T14:16:59Z</time>
      </trkpt>
      <trkpt lat="44.01435" lon="2.14617">
        <ele>293.405</ele>
        <time>2019-10-31T14:16:39Z</time>
      </trkpt>
      <trkpt lat="44.01509" lon="2.14712">
        <ele>289.032</ele>
        <time>2019-10-31T14:16:19Z</time>
      </trkpt>
      <trkpt lat="44.01567" lon="2.14852">
        <ele>290.812</ele>
        <time>2019-10-31T14:15:59Z</time>
      </trkpt>
      <trkpt lat="44.01673" lon="2.14953">
        <ele>289.755</ele>
        <time>2019-10-31T14:15:39Z</time>
      </trkpt>
      <trkpt lat="44.01805" lon="2.14995">
        <ele>283.666</ele>
        <time>2019-10-31T14:15:19Z</time>
      </trkpt>
      <trkpt lat="44.01964" lon="2.15029">
        <ele>279.16</ele>
        <time>2019-10-31T14:14:59Z</time>
      </trkpt>
      <trkpt lat="44.02224" lon="2.15045">
        <ele>265.528</ele>
        <time>2019-10-31T14:14:39Z</time>
      </trkpt>
      <trkpt lat="44.02298" lon="2.15015">
        <ele>269.092</ele>
        <time>2019-10-31T14:14:19Z</time>
      </trkpt>
      <trkpt lat="44.02374" lon="2.15008">
        <ele>275.119</ele>
        <time>2019-10-31T14:13:59Z</time>
      </trkpt>
      <trkpt lat="44.02426" lon="2.14992">
        <ele>275.874</ele>
        <time>2019-10-31T14:13:39Z</time>
      </trkpt>
      <trkpt lat="44.02485" lon="2.14916">
        <ele>275.338</ele>
        <time>2019-10-31T14:13:19Z</time>
      </trkpt>
      <trkpt lat="44.02523" lon="2.14843">
        <ele>270.208</ele>
        <time>2019-10-31T14:12:59Z</time>
      </trkpt>
      <trkpt lat="44.02545" lon="2.1488">
        <ele>274.808</ele>
        <time>2019-10-31T14:12:39Z</time>
      </trkpt>
      <trkpt lat="44.02591" lon="2.14903">
        <ele>271.562</ele>
        <time>2019-10-31T14:12:19Z</time>
      </trkpt>
      <trkpt lat="44.02624" lon="2.14937">
        <ele>268.522</ele>
        <time>2019-10-31T14:11:59Z</time>
      </trkpt>
      <trkpt lat="44.0267" lon="2.15013">
        <ele>263.998</ele>
        <time>2019-10-31T14:11:39Z</time>
      </trkpt>
      <trkpt lat="44.02705" lon="2.1513">
        <ele>262.429</ele>
        <time>2019-10-31T14:11:19Z</time>
      </trkpt>
      <trkpt lat="44.02736" lon="2.15158">
        <ele>257.153</ele>
        <time>2019-10-31T14:10:59Z</time>
      </trkpt>
      <trkpt lat="44.02806" lon="2.15144">
        <ele>259.331</ele>
        <time>2019-10-31T14:10:39Z</time>
      </trkpt>
      <trkpt lat="44.02854" lon="2.15096">
        <ele>268.675</ele>
        <time>2019-10-31T14:10:19Z</time>
      </trkpt>
      <trkpt lat="44.0291" lon="2.1491">
        <ele>281.242</ele>
        <time>2019-10-31T14:09:59Z</time>
      </trkpt>
      <trkpt lat="44.02922" lon="2.14617">
        <ele>293.937</ele>
        <time>2019-10-31T14:09:39Z</time>
      </trkpt>
      <trkpt lat="44.02915" lon="2.14413">
        <ele>295.481</ele>
        <time>2019-10-31T14:09:19Z</time>
      </trkpt>
      <trkpt lat="44.02925" lon="2.14243">
        <ele>294.508</ele>
        <time>2019-10-31T14:08:59Z</time>
      </trkpt>
      <trkpt lat="44.02996" lon="2.1427">
        <ele>290.117</ele>
        <time>2019-10-31T14:08:39Z</time>
      </trkpt>
      <trkpt lat="44.03037" lon="2.14305">
        <ele>292.007</ele>
        <time>2019-10-31T14:08:19Z</time>
      </trkpt>
      <trkpt lat="44.03122" lon="2.14479">
        <ele>294.855</ele>
        <time>2019-10-31T14:07:59Z</time>
      </trkpt>
      <trkpt lat="44.03165" lon="2.14489">
        <ele>295.956</ele>
        <time>2019-10-31T14:07:39Z</time>
      </trkpt>
      <trkpt lat="44.0335" lon="2.14454">
        <ele>285.747</ele>
        <time>2019-10-31T14:07:19Z</time>
      </trkpt>
      <trkpt lat="44.03419" lon="2.14344">
        <ele>283.581</ele>
        <time>2019-10-31T14:06:59Z</time>
      </trkpt>
      <trkpt lat="44.03462" lon="2.14088">
        <ele>290.119</ele>
        <time>2019-10-31T14:06:39Z</time>
      </trkpt>
      <trkpt lat="44.03516" lon="2.14005">
        <ele>280.013</ele>
        <time>2020-12-26T20:25:55Z</time>
      </trkpt>
      <trkpt lat="44.0345" lon="2.13937">
        <ele>279.55</ele>
        <time>2020-12-26T20:25:35Z</time>
      </trkpt>
      <trkpt lat="44.03398" lon="2.1391">
        <ele>279.515</ele>
        <time>2020-12-26T20:25:15Z</time>
      </trkpt>
      <trkpt lat="44.03324" lon="2.13904">
        <ele>281.319</ele>
        <time>2020-12-26T20:24:55Z</time>
      </trkpt>
      <trkpt lat="44.03298" lon="2.13898">
        <ele>281.008</ele>
        <time>2020-12-26T20:24:35Z</time>
      </trkpt>
      <trkpt lat="44.03281" lon="2.1387">
        <ele>280.507</ele>
        <time>2020-12-26T20:24:15Z</time>
      </trkpt>
      <trkpt lat="44.03333" lon="2.13842">
        <ele>278.461</ele>
        <time>2020-12-26T20:23:55Z</time>
      </trkpt>
      <trkpt lat="44.03377" lon="2.13835">
        <ele>277.531</ele>
        <time>2020-12-26T20:23:35Z</time>
      </trkpt>
      <trkpt lat="44.03466" lon="2.1386">
        <ele>276.359</ele>
        <time>2020-12-26T20:23:15Z</time>
      </trkpt>
      <trkpt lat="44.03525" lon="2.13902">
        <ele>276.07</ele>
        <time>2020-12-26T20:22:55Z</time>
      </trkpt>
      <trkpt lat="44.03621" lon="2.13948">
        <ele>275.384</ele>
        <time>2020-12-26T20:22:35Z</time>
      </trkpt>
      <trkpt lat="44.03638" lon="2.1398">
        <ele>272.562</ele>
        <time>2020-12-26T20:22:15Z</time>
      </trkpt>
      <trkpt lat="44.03711" lon="2.14019">
        <ele>269.386</ele>
        <time>2020-12-26T20:21:55Z</time>
      </trkpt>
      <trkpt lat="44.03841" lon="2.14128">
        <ele>265.283</ele>
        <time>2020-12-26T20:21:35Z</time>
      </trkpt>
      <trkpt lat="44.03951" lon="2.14195">
        <ele>265.018</ele>
        <time>2019-10-31T14:03:39Z</time>
      </trkpt>
      <trkpt lat="44.04051" lon="2.14231">
        <ele>262.542</ele>
        <time>2019-10-31T14:03:19Z</time>
      </trkpt>
      <trkpt lat="44.04206" lon="2.14266">
        <ele>256.208</ele>
        <time>2019-10-31T14:02:59Z</time>
      </trkpt>
      <trkpt lat="44.04329" lon="2.14305">
        <ele>256.416</ele>
        <time>2019-10-31T14:02:39Z</time>
      </trkpt>
      <trkpt lat="44.04436" lon="2.14369">
        <ele>257.706</ele>
        <time>2019-10-31T14:02:19Z</time>
      </trkpt>
      <trkpt lat="44.04451" lon="2.14394">
        <ele>258.964</ele>
        <time>2019-10-31T14:01:59Z</time>
      </trkpt>
      <trkpt lat="44.04558" lon="2.14496">
        <ele>254.686</ele>
        <time>2019-10-31T14:01:39Z</time>
      </trkpt>
      <trkpt lat="44.04819" lon="2.14549">
        <ele>250.077</ele>
        <time>2019-10-31T14:01:19Z</time>
      </trkpt>
      <trkpt lat="44.04842" lon="2.14533">
        <ele>248.511</ele>
        <time>2019-10-31T14:00:59Z</time>
      </trkpt>
      <trkpt lat="44.04883" lon="2.14538">
        <ele>250.789</ele>
        <time>2019-10-31T14:00:39Z</time>
      </trkpt>
      <trkpt lat="44.0496" lon="2.14607">
        <ele>246.623</ele>
        <time>2019-10-31T14:00:19Z</time>
      </trkpt>
      <trkpt lat="44.05032" lon="2.1463">
        <ele>247.65</ele>
        <time>2019-10-31T13:59:59Z</time>
      </trkpt>
      <trkpt lat="44.05037" lon="2.14377">
        <ele>252.545</ele>
        <time>2019-10-31T13:59:39Z</time>
      </trkpt>
      <trkpt lat="44.05026" lon="2.14085">
        <ele>258.129</ele>
        <time>2019-10-31T13:59:19Z</time>
      </trkpt>
      <trkpt lat="44.04967" lon="2.13551">
        <ele>290.008</ele>
        <time>2019-10-31T13:58:59Z</time>
      </trkpt>
      <trkpt lat="44.04762" lon="2.13165">
        <ele>293.01</ele>
        <time>2019-10-31T13:58:39Z</time>
      </trkpt>
      <trkpt lat="44.04805" lon="2.12982">
        <ele>282.455</ele>
        <time>2019-10-31T13:58:19Z</time>
      </trkpt>
      <trkpt lat="44.04875" lon="2.12974">
        <ele>280.134</ele>
        <time>2019-10-31T13:57:59Z</time>
      </trkpt>
      <trkpt lat="44.04949" lon="2.13008">
        <ele>279.561</ele>
        <time>2019-10-31T13:57:39Z</time>
      </trkpt>
      <trkpt lat="44.04957" lon="2.1295">
        <ele>281.772</ele>
        <time>2019-10-31T13:57:19Z</time>
      </trkpt>
      <trkpt lat="44.05108" lon="2.12976">
        <ele>288.536</ele>
        <time>2019-10-31T13:56:59Z</time>
      </trkpt>
      <trkpt lat="44.05111" lon="2.12942">
        <ele>291.124</ele>
        <time>2019-10-31T13:56:39Z</time>
      </trkpt>
      <trkpt lat="44.0514" lon="2.12901">
        <ele>291.078</ele>
        <time>2019-10-31T13:56:19Z</time>
      </trkpt>
      <trkpt lat="44.051" lon="2.12869">
        <ele>292.095</ele>
        <time>2019-10-31T13:55:59Z</time>
      </trkpt>
      <trkpt lat="44.05026" lon="2.1286">
        <ele>289.05</ele>
        <time>2019-10-31T13:55:39Z</time>
      </trkpt>
      <trkpt lat="44.04977" lon="2.12796">
        <ele>290.744</ele>
        <time>2019-10-31T13:55:19Z</time>
      </trkpt>
      <trkpt lat="44.04978" lon="2.12727">
        <ele>294.608</ele>
        <time>2019-10-31T13:54:59Z</time>
      </trkpt>
      <trkpt lat="44.04913" lon="2.12618">
        <ele>293.917</ele>
        <time>2019-10-31T13:54:39Z</time>
      </trkpt>
      <trkpt lat="44.04876" lon="2.12399">
        <ele>273.689</ele>
        <time>2019-10-31T13:54:19Z</time>
      </trkpt>
      <trkpt lat="44.04815" lon="2.12322">
        <ele>269.685</ele>
        <time>2019-10-31T13:53:59Z</time>
      </trkpt>
      <trkpt lat="44.04824" lon="2.12279">
        <ele>269.325</ele>
        <time>2019-10-31T13:53:39Z</time>
      </trkpt>
      <trkpt lat="44.04881" lon="2.12285">
        <ele>270.086</ele>
        <time>2019-10-31T13:53:19Z</time>
      </trkpt>
      <trkpt lat="44.04994" lon="2.12264">
        <ele>266.26</ele>
        <time>2019-10-31T13:52:59Z</time>
      </trkpt>
      <trkpt lat="44.05173" lon="2.12234">
        <ele>262.468</ele>
        <time>2019-10-31T13:52:39Z</time>
      </trkpt>
      <trkpt lat="44.05287" lon="2.12277">
        <ele>257.212</ele>
        <time>2019-10-31T13:52:19Z</time>
      </trkpt>
      <trkpt lat="44.05313" lon="2.12326">
        <ele>261.259</ele>
        <time>2019-10-31T13:51:59Z</time>
      </trkpt>
      <trkpt lat="44.05304" lon="2.12403">
        <ele>267.374</ele>
        <time>2019-10-31T13:51:39Z</time>
      </trkpt>
      <trkpt lat="44.05353" lon="2.12317">
        <ele>257.228</ele>
        <time>2019-10-31T13:51:19Z</time>
      </trkpt>
      <trkpt lat="44.05333" lon="2.12251">
        <ele>253.008</ele>
        <time>2019-10-31T13:50:59Z</time>
      </trkpt>
      <trkpt lat="44.05339" lon="2.12201">
        <ele>254.408</ele>
        <time>2019-10-31T13:50:39Z</time>
      </trkpt>
      <trkpt lat="44.05293" lon="2.12139">
        <ele>262.026</ele>
        <time>2019-10-31T13:50:19Z</time>
      </trkpt>
      <trkpt lat="44.0527" lon="2.11922">
        <ele>286.125</ele>
        <time>2019-10-31T13:49:59Z</time>
      </trkpt>
      <trkpt lat="44.05299" lon="2.11843">
        <ele>288.982</ele>
        <time>2019-10-31T13:49:39Z</time>
      </trkpt>
      <trkpt lat="44.05279" lon="2.11774">
        <ele>291.093</ele>
        <time>2019-10-31T13:49:19Z</time>
      </trkpt>
      <trkpt lat="44.05231" lon="2.11695">
        <ele>291.017</ele>
        <time>2019-10-31T13:48:59Z</time>
      </trkpt>
      <trkpt lat="44.05168" lon="2.11613">
        <ele>297.825</ele>
        <time>2019-10-31T13:48:39Z</time>
      </trkpt>
      <trkpt lat="44.05139" lon="2.11521">
        <ele>301.239</ele>
        <time>2019-10-31T13:48:19Z</time>
      </trkpt>
      <trkpt lat="44.05139" lon="2.1147">
        <ele>301.976</ele>
        <time>2019-10-31T13:47:59Z</time>
      </trkpt>
      <trkpt lat="44.05095" lon="2.11345">
        <ele>295.571</ele>
        <time>2019-10-31T13:47:39Z</time>
      </trkpt>
      <trkpt lat="44.05091" lon="2.11272">
        <ele>297.385</ele>
        <time>2019-10-31T13:47:19Z</time>
      </trkpt>
      <trkpt lat="44.05122" lon="2.11156">
        <ele>314.008</ele>
        <time>2019-10-31T13:46:59Z</time>
      </trkpt>
      <trkpt lat="44.05086" lon="2.11156">
        <ele>317.825</ele>
        <time>2019-10-31T13:46:39Z</time>
      </trkpt>
      <trkpt lat="44.05058" lon="2.11086">
        <ele>324.623</ele>
        <time>2019-10-31T13:46:19Z</time>
      </trkpt>
      <trkpt lat="44.04966" lon="2.10935">
        <ele>329.097</ele>
        <time>2019-10-31T13:45:59Z</time>
      </trkpt>
      <trkpt lat="44.04987" lon="2.10766">
        <ele>325.482</ele>
        <time>2019-10-31T13:45:39Z</time>
      </trkpt>
      <trkpt lat="44.04986" lon="2.10708">
        <ele>324.213</ele>
        <time>2019-10-31T13:45:19Z</time>
      </trkpt>
      <trkpt lat="44.05006" lon="2.10667">
        <ele>329.627</ele>
        <time>2019-10-31T13:44:59Z</time>
      </trkpt>
      <trkpt lat="44.05011" lon="2.10622">
        <ele>331.965</ele>
        <time>2019-10-31T13:44:39Z</time>
      </trkpt>
      <trkpt lat="44.05001" lon="2.10553">
        <ele>328.059</ele>
        <time>2019-10-31T13:44:19Z</time>
      </trkpt>
      <trkpt lat="44.05074" lon="2.10526">
        <ele>324.456</ele>
        <time>2019-10-31T13:43:59Z</time>
      </trkpt>
      <trkpt lat="44.05145" lon="2.1047">
        <ele>324.361</ele>
        <time>2019-10-31T13:43:39Z</time>
      </trkpt>
      <trkpt lat="44.05226" lon="2.10442">
        <ele>323.985</ele>
        <time>2019-10-31T13:43:19Z</time>
      </trkpt>
      <trkpt lat="44.05336" lon="2.10375">
        <ele>327.008</ele>
        <time>2019-10-31T13:42:59Z</time>
      </trkpt>
      <trkpt lat="44.05398" lon="2.10298">
        <ele>325.321</ele>
        <time>2019-10-31T13:42:39Z</time>
      </trkpt>
      <trkpt lat="44.05455" lon="2.10277">
        <ele>325.165</ele>
        <time>2019-10-31T13:42:19Z</time>
      </trkpt>
      <trkpt lat="44.05577" lon="2.10259">
        <ele>325.593</ele>
        <time>2019-10-31T13:41:59Z</time>
      </trkpt>
      <trkpt lat="44.05632" lon="2.10212">
        <ele>325.359</ele>
        <time>2019-10-31T13:41:39Z</time>
      </trkpt>
      <trkpt lat="44.05698" lon="2.10193">
        <ele>324.71</ele>
        <time>2019-10-31T13:41:19Z</time>
      </trkpt>
      <trkpt lat="44.05783" lon="2.10206">
        <ele>319.484</ele>
        <time>2019-10-31T13:40:59Z</time>
      </trkpt>
      <trkpt lat="44.05831" lon="2.10219">
        <ele>306.092</ele>
        <time>2019-10-31T13:40:39Z</time>
      </trkpt>
      <trkpt lat="44.05857" lon="2.10214">
        <ele>300.216</ele>
        <time>2019-10-31T13:40:19Z</time>
      </trkpt>
      <trkpt lat="44.05903" lon="2.10225">
        <ele>289.873</ele>
        <time>2019-10-31T13:39:59Z</time>
      </trkpt>
      <trkpt lat="44.05974" lon="2.10275">
        <ele>287.938</ele>
        <time>2019-10-31T13:39:39Z</time>
      </trkpt>
      <trkpt lat="44.06028" lon="2.10337">
        <ele>285.962</ele>
        <time>2019-10-31T13:39:19Z</time>
      </trkpt>
      <trkpt lat="44.06053" lon="2.10337">
        <ele>286.708</ele>
        <time>2019-10-31T13:38:59Z</time>
      </trkpt>
      <trkpt lat="44.06084" lon="2.10315">
        <ele>286.621</ele>
        <time>2019-10-31T13:38:39Z</time>
      </trkpt>
      <trkpt lat="44.06155" lon="2.10251">
        <ele>283.429</ele>
        <time>2019-10-31T13:38:19Z</time>
      </trkpt>
      <trkpt lat="44.0625" lon="2.10204">
        <ele>282.066</ele>
        <time>2019-10-31T13:37:59Z</time>
      </trkpt>
      <trkpt lat="44.06418" lon="2.10159">
        <ele>277.626</ele>
        <time>2019-10-31T13:37:39Z</time>
      </trkpt>
      <trkpt lat="44.06526" lon="2.10141">
        <ele>270.117</ele>
        <time>2019-10-31T13:37:19Z</time>
      </trkpt>
      <trkpt lat="44.06628" lon="2.10148">
        <ele>261.811</ele>
        <time>2019-10-31T13:36:59Z</time>
      </trkpt>
      <trkpt lat="44.06742" lon="2.10118">
        <ele>251.279</ele>
        <time>2019-10-31T13:36:39Z</time>
      </trkpt>
      <trkpt lat="44.06841" lon="2.10116">
        <ele>248.913</ele>
        <time>2019-10-31T13:36:19Z</time>
      </trkpt>
      <trkpt lat="44.06927" lon="2.10133">
        <ele>244.85</ele>
        <time>2019-10-31T13:35:59Z</time>
      </trkpt>
      <trkpt lat="44.06992" lon="2.10178">
        <ele>241.345</ele>
        <time>2019-10-31T13:35:39Z</time>
      </trkpt>
      <trkpt lat="44.07034" lon="2.10259">
        <ele>218.479</ele>
        <time>2019-10-31T13:35:19Z</time>
      </trkpt>
      <trkpt lat="44.07054" lon="2.10197">
        <ele>231.308</ele>
        <time>2019-10-31T13:34:59Z</time>
      </trkpt>
      <trkpt lat="44.07068" lon="2.10086">
        <ele>240.121</ele>
        <time>2019-10-31T13:34:39Z</time>
      </trkpt>
      <trkpt lat="44.07055" lon="2.09985">
        <ele>220.901</ele>
        <time>2019-10-31T13:34:19Z</time>
      </trkpt>
      <trkpt lat="44.07023" lon="2.09912">
        <ele>214.339</ele>
        <time>2019-10-31T13:33:59Z</time>
      </trkpt>
      <trkpt lat="44.06955" lon="2.09807">
        <ele>219.47</ele>
        <time>2019-10-31T13:33:39Z</time>
      </trkpt>
      <trkpt lat="44.06909" lon="2.09704">
        <ele>218.491</ele>
        <time>2019-10-31T13:33:19Z</time>
      </trkpt>
      <trkpt lat="44.06994" lon="2.09672">
        <ele>211.125</ele>
        <time>2019-10-31T13:32:59Z</time>
      </trkpt>
      <trkpt lat="44.07054" lon="2.09667">
        <ele>214.873</ele>
        <time>2019-10-31T13:32:39Z</time>
      </trkpt>
      <trkpt lat="44.07085" lon="2.09702">
        <ele>214.827</ele>
        <time>2019-10-31T13:32:19Z</time>
      </trkpt>
      <trkpt lat="44.07138" lon="2.09727">
        <ele>216.054</ele>
        <time>2019-10-31T13:31:59Z</time>
      </trkpt>
      <trkpt lat="44.07159" lon="2.0959">
        <ele>212.219</ele>
        <time>2019-10-31T13:31:39Z</time>
      </trkpt>
      <trkpt lat="44.07098" lon="2.09528">
        <ele>209.583</ele>
        <time>2019-10-31T13:31:19Z</time>
      </trkpt>
      <trkpt lat="44.07115" lon="2.09481">
        <ele>208.808</ele>
        <time>2019-10-31T13:30:59Z</time>
      </trkpt>
      <trkpt lat="44.07117" lon="2.09384">
        <ele>207.825</ele>
        <time>2019-10-31T13:30:39Z</time>
      </trkpt>
      <trkpt lat="44.07145" lon="2.0936">
        <ele>207.005</ele>
        <time>2019-10-31T13:30:19Z</time>
      </trkpt>
      <trkpt lat="44.07168" lon="2.09375">
        <ele>207.579</ele>
        <time>2019-10-31T13:29:59Z</time>
      </trkpt>
      <trkpt lat="44.07182" lon="2.09322">
        <ele>206.281</ele>
        <time>2019-10-31T13:29:39Z</time>
      </trkpt>
      <trkpt lat="44.07225" lon="2.09315">
        <ele>207.722</ele>
        <time>2019-10-31T13:29:19Z</time>
      </trkpt>
      <trkpt lat="44.07236" lon="2.09279">
        <ele>209.916</ele>
        <time>2019-10-31T13:28:59Z</time>
      </trkpt>
      <trkpt lat="44.0726" lon="2.09272">
        <ele>209.834</ele>
        <time>2019-10-31T13:28:39Z</time>
      </trkpt>
      <trkpt lat="44.07254" lon="2.09227">
        <ele>211.778</ele>
        <time>2019-10-31T13:28:19Z</time>
      </trkpt>
      <trkpt lat="44.07316" lon="2.09219">
        <ele>209.155</ele>
        <time>2019-10-31T13:27:59Z</time>
      </trkpt>
      <trkpt lat="44.07381" lon="2.09191">
        <ele>208.75</ele>
        <time>2019-10-31T13:27:39Z</time>
      </trkpt>
      <trkpt lat="44.07569" lon="2.09129">
        <ele>212.834</ele>
        <time>2019-10-31T13:27:19Z</time>
      </trkpt>
      <trkpt lat="44.07632" lon="2.09066">
        <ele>219.008</ele>
        <time>2019-10-31T13:26:59Z</time>
      </trkpt>
      <trkpt lat="44.07675" lon="2.08961">
        <ele>215.117</ele>
        <time>2019-10-31T13:26:39Z</time>
      </trkpt>
      <trkpt lat="44.07686" lon="2.0886">
        <ele>210.307</ele>
        <time>2019-10-31T13:26:19Z</time>
      </trkpt>
      <trkpt lat="44.0767" lon="2.08715">
        <ele>212.284</ele>
        <time>2019-10-31T13:25:59Z</time>
      </trkpt>
      <trkpt lat="44.07675" lon="2.08633">
        <ele>211.167</ele>
        <time>2019-10-31T13:25:39Z</time>
      </trkpt>
      <trkpt lat="44.07704" lon="2.08556">
        <ele>210.498</ele>
        <time>2019-10-31T13:25:19Z</time>
      </trkpt>
      <trkpt lat="44.07737" lon="2.08423">
        <ele>208.562</ele>
        <time>2019-10-31T13:24:59Z</time>
      </trkpt>
      <trkpt lat="44.07737" lon="2.08313">
        <ele>203.58</ele>
        <time>2019-10-31T13:24:39Z</time>
      </trkpt>
      <trkpt lat="44.07658" lon="2.08105">
        <ele>204.994</ele>
        <time>2019-10-31T13:24:19Z</time>
      </trkpt>
      <trkpt lat="44.07425" lon="2.07672">
        <ele>211.711</ele>
        <time>2019-10-31T13:23:59Z</time>
      </trkpt>
      <trkpt lat="44.07368" lon="2.07586">
        <ele>205.266</ele>
        <time>2019-10-31T13:23:39Z</time>
      </trkpt>
      <trkpt lat="44.07331" lon="2.07266">
        <ele>209.29</ele>
        <time>2019-10-31T13:23:19Z</time>
      </trkpt>
      <trkpt lat="44.07347" lon="2.0715">
        <ele>207.708</ele>
        <time>2019-10-31T13:22:59Z</time>
      </trkpt>
      <trkpt lat="44.07387" lon="2.07034">
        <ele>202.917</ele>
        <time>2019-10-31T13:22:39Z</time>
      </trkpt>
      <trkpt lat="44.07456" lon="2.06959">
        <ele>202.061</ele>
        <time>2019-10-31T13:22:19Z</time>
      </trkpt>
      <trkpt lat="44.07513" lon="2.06927">
        <ele>203.448</ele>
        <time>2019-10-31T13:21:59Z</time>
      </trkpt>
      <trkpt lat="44.07584" lon="2.06876">
        <ele>205.736</ele>
        <time>2019-10-31T13:21:39Z</time>
      </trkpt>
      <trkpt lat="44.07643" lon="2.06794">
        <ele>203.257</ele>
        <time>2019-10-31T13:21:19Z</time>
      </trkpt>
      <trkpt lat="44.07678" lon="2.06685">
        <ele>201.661</ele>
        <time>2019-10-31T13:20:59Z</time>
      </trkpt>
      <trkpt lat="44.07669" lon="2.06532">
        <ele>201.139</ele>
        <time>2019-10-31T13:20:39Z</time>
      </trkpt>
      <trkpt lat="44.07621" lon="2.06408">
        <ele>207.573</ele>
        <time>2019-10-31T13:20:19Z</time>
      </trkpt>
      <trkpt lat="44.07294" lon="2.06015">
        <ele>198.31</ele>
        <time>2019-10-31T13:19:59Z</time>
      </trkpt>
      <trkpt lat="44.07209" lon="2.05889">
        <ele>197.145</ele>
        <time>2019-10-31T13:19:39Z</time>
      </trkpt>
      <trkpt lat="44.07175" lon="2.05749">
        <ele>196.399</ele>
        <time>2019-10-31T13:19:19Z</time>
      </trkpt>
      <trkpt lat="44.07179" lon="2.05622">
        <ele>197.808</ele>
        <time>2019-10-31T13:18:59Z</time>
      </trkpt>
      <trkpt lat="44.07219" lon="2.05477">
        <ele>200.31</ele>
        <time>2019-10-31T13:18:39Z</time>
      </trkpt>
      <trkpt lat="44.07245" lon="2.05359">
        <ele>201.155</ele>
        <time>2019-10-31T13:18:19Z</time>
      </trkpt>
      <trkpt lat="44.07237" lon="2.05258">
        <ele>199.934</ele>
        <time>2019-10-31T13:17:59Z</time>
      </trkpt>
      <trkpt lat="44.07206" lon="2.0515">
        <ele>200.66</ele>
        <time>2019-10-31T13:17:39Z</time>
      </trkpt>
      <trkpt lat="44.07088" lon="2.04869">
        <ele>201.881</ele>
        <time>2019-10-31T13:17:19Z</time>
      </trkpt>
      <trkpt lat="44.07009" lon="2.0476">
        <ele>200.235</ele>
        <time>2019-10-31T13:16:59Z</time>
      </trkpt>
      <trkpt lat="44.06961" lon="2.04625">
        <ele>198.583</ele>
        <time>2019-10-31T13:16:39Z</time>
      </trkpt>
      <trkpt lat="44.06957" lon="2.045">
        <ele>197.497</ele>
        <time>2019-10-31T13:16:19Z</time>
      </trkpt>
      <trkpt lat="44.0698" lon="2.04402">
        <ele>196.464</ele>
        <time>2019-10-31T13:15:59Z</time>
      </trkpt>
      <trkpt lat="44.07037" lon="2.04309">
        <ele>194.399</ele>
        <time>2019-10-31T13:15:39Z</time>
      </trkpt>
      <trkpt lat="44.07112" lon="2.04245">
        <ele>190.873</ele>
        <time>2019-10-31T13:15:19Z</time>
      </trkpt>
      <trkpt lat="44.07216" lon="2.0423">
        <ele>194.808</ele>
        <time>2019-10-31T13:14:59Z</time>
      </trkpt>
      <trkpt lat="44.07293" lon="2.04206">
        <ele>195.425</ele>
        <time>2019-10-31T13:14:39Z</time>
      </trkpt>
      <trkpt lat="44.07345" lon="2.04155">
        <ele>194.205</ele>
        <time>2019-10-31T13:14:19Z</time>
      </trkpt>
      <trkpt lat="44.07407" lon="2.0403">
        <ele>194.879</ele>
        <time>2019-10-31T13:13:59Z</time>
      </trkpt>
      <trkpt lat="44.0743" lon="2.03872">
        <ele>192.555</ele>
        <time>2019-10-31T13:13:39Z</time>
      </trkpt>
      <trkpt lat="44.07418" lon="2.03747">
        <ele>192.166</ele>
        <time>2019-10-31T13:13:19Z</time>
      </trkpt>
      <trkpt lat="44.07425" lon="2.03548">
        <ele>193.31</ele>
        <time>2019-10-31T13:12:59Z</time>
      </trkpt>
      <trkpt lat="44.07369" lon="2.03488">
        <ele>189.758</ele>
        <time>2019-10-31T13:12:39Z</time>
      </trkpt>
      <trkpt lat="44.07285" lon="2.03468">
        <ele>190.792</ele>
        <time>2019-10-31T13:12:19Z</time>
      </trkpt>
      <trkpt lat="44.07276" lon="2.0356">
        <ele>197.179</ele>
        <time>2019-10-31T13:11:59Z</time>
      </trkpt>
      <trkpt lat="44.07229" lon="2.03549">
        <ele>197.524</ele>
        <time>2019-10-31T13:11:39Z</time>
      </trkpt>
      <trkpt lat="44.07208" lon="2.03582">
        <ele>198.978</ele>
        <time>2019-10-31T13:11:19Z</time>
      </trkpt>
      <trkpt lat="44.07162" lon="2.0356">
        <ele>199.008</ele>
        <time>2019-10-31T13:10:59Z</time>
      </trkpt>
      <trkpt lat="44.07091" lon="2.03715">
        <ele>206.211</ele>
        <time>2019-10-31T13:10:39Z</time>
      </trkpt>
      <trkpt lat="44.07069" lon="2.03719">
        <ele>213.047</ele>
        <time>2019-10-31T13:10:19Z</time>
      </trkpt>
      <trkpt lat="44.07017" lon="2.03575">
        <ele>218.726</ele>
        <time>2019-10-31T13:09:59Z</time>
      </trkpt>
      <trkpt lat="44.06961" lon="2.03588">
        <ele>230.084</ele>
        <time>2019-10-31T13:09:39Z</time>
      </trkpt>
      <trkpt lat="44.06898" lon="2.03578">
        <ele>233.985</ele>
        <time>2019-10-31T13:09:19Z</time>
      </trkpt>
      <trkpt lat="44.06826" lon="2.03595">
        <ele>239.529</ele>
        <time>2019-10-31T13:08:59Z</time>
      </trkpt>
      <trkpt lat="44.06813" lon="2.03573">
        <ele>241.717</ele>
        <time>2019-10-31T13:08:39Z</time>
      </trkpt>
      <trkpt lat="44.06937" lon="2.03305">
        <ele>248.931</ele>
        <time>2019-10-31T13:08:19Z</time>
      </trkpt>
      <trkpt lat="44.06938" lon="2.03266">
        <ele>253.558</ele>
        <time>2019-10-31T13:07:59Z</time>
      </trkpt>
      <trkpt lat="44.06912" lon="2.03189">
        <ele>262.193</ele>
        <time>2019-10-31T13:07:39Z</time>
      </trkpt>
      <trkpt lat="44.06912" lon="2.03101">
        <ele>266.237</ele>
        <time>2019-10-31T13:07:19Z</time>
      </trkpt>
      <trkpt lat="44.06853" lon="2.02992">
        <ele>273.508</ele>
        <time>2019-10-31T13:06:59Z</time>
      </trkpt>
      <trkpt lat="44.06781" lon="2.02927">
        <ele>280.209</ele>
        <time>2019-10-31T13:06:39Z</time>
      </trkpt>
      <trkpt lat="44.06693" lon="2.02897">
        <ele>293.854</ele>
        <time>2019-10-31T13:06:19Z</time>
      </trkpt>
      <trkpt lat="44.0663" lon="2.02842">
        <ele>299.114</ele>
        <time>2019-10-31T13:05:59Z</time>
      </trkpt>
      <trkpt lat="44.06557" lon="2.02676">
        <ele>305.661</ele>
        <time>2019-10-31T13:05:39Z</time>
      </trkpt>
      <trkpt lat="44.06543" lon="2.02539">
        <ele>314.872</ele>
        <time>2019-10-31T13:05:19Z</time>
      </trkpt>
      <trkpt lat="44.06509" lon="2.0244">
        <ele>320.136</ele>
        <time>2019-10-31T13:04:59Z</time>
      </trkpt>
      <trkpt lat="44.06476" lon="2.02367">
        <ele>320.064</ele>
        <time>2019-10-31T13:04:39Z</time>
      </trkpt>
      <trkpt lat="44.06445" lon="2.0235">
        <ele>318.038</ele>
        <time>2019-10-31T13:04:19Z</time>
      </trkpt>
      <trkpt lat="44.06337" lon="2.02189">
        <ele>296.585</ele>
        <time>2019-10-31T13:03:59Z</time>
      </trkpt>
      <trkpt lat="44.06334" lon="2.02065">
        <ele>289.18</ele>
        <time>2019-10-31T13:03:39Z</time>
      </trkpt>
      <trkpt lat="44.0623" lon="2.02058">
        <ele>260.644</ele>
        <time>2019-10-31T13:03:19Z</time>
      </trkpt>
      <trkpt lat="44.06167" lon="2.01936">
        <ele>260.608</ele>
        <time>2019-10-31T13:02:59Z</time>
      </trkpt>
      <trkpt lat="44.06203" lon="2.01672">
        <ele>258.126</ele>
        <time>2019-10-31T13:02:39Z</time>
      </trkpt>
      <trkpt lat="44.06196" lon="2.01586">
        <ele>256.824</ele>
        <time>2019-10-31T13:02:19Z</time>
      </trkpt>
      <trkpt lat="44.06233" lon="2.0152">
        <ele>257.088</ele>
        <time>2019-10-31T13:01:59Z</time>
      </trkpt>
      <trkpt lat="44.06287" lon="2.01378">
        <ele>257.34</ele>
        <time>2019-10-31T13:01:39Z</time>
      </trkpt>
      <trkpt lat="44.06301" lon="2.0126">
        <ele>253.011</ele>
        <time>2019-10-31T13:01:19Z</time>
      </trkpt>
      <trkpt lat="44.06331" lon="2.01187">
        <ele>249.465</ele>
        <time>2019-10-31T13:00:59Z</time>
      </trkpt>
      <trkpt lat="44.06346" lon="2.01129">
        <ele>252.183</ele>
        <time>2019-10-31T13:00:39Z</time>
      </trkpt>
      <trkpt lat="44.06338" lon="2.01082">
        <ele>256.587</ele>
        <time>2019-10-31T13:00:19Z</time>
      </trkpt>
      <trkpt lat="44.06349" lon="2.01043">
        <ele>255.634</ele>
        <time>2019-10-31T12:59:59Z</time>
      </trkpt>
      <trkpt lat="44.06348" lon="2.00973">
        <ele>254.539</ele>
        <time>2019-10-31T12:59:39Z</time>
      </trkpt>
      <trkpt lat="44.06327" lon="2.009">
        <ele>250.893</ele>
        <time>2019-10-31T12:59:19Z</time>
      </trkpt>
      <trkpt lat="44.06275" lon="2.00857">
        <ele>250.008</ele>
        <time>2019-10-31T12:58:59Z</time>
      </trkpt>
      <trkpt lat="44.06272" lon="2.00835">
        <ele>249.721</ele>
        <time>2019-10-31T12:58:39Z</time>
      </trkpt>
      <trkpt lat="44.06304" lon="2.00812">
        <ele>245.256</ele>
        <time>2019-10-31T12:58:19Z</time>
      </trkpt>
      <trkpt lat="44.0632" lon="2.00769">
        <ele>243.674</ele>
        <time>2019-10-31T12:57:59Z</time>
      </trkpt>
      <trkpt lat="44.06318" lon="2.00653">
        <ele>246.46</ele>
        <time>2019-10-31T12:57:39Z</time>
      </trkpt>
      <trkpt lat="44.06292" lon="2.00612">
        <ele>251.451</ele>
        <time>2019-10-31T12:57:19Z</time>
      </trkpt>
      <trkpt lat="44.06277" lon="2.00473">
        <ele>253.165</ele>
        <time>2019-10-31T12:56:59Z</time>
      </trkpt>
      <trkpt lat="44.06144" lon="2.0044">
        <ele>275.533</ele>
        <time>2019-10-31T12:56:39Z</time>
      </trkpt>
      <trkpt lat="44.06244" lon="2.00357">
        <ele>281.457</ele>
        <time>2019-10-31T12:56:19Z</time>
      </trkpt>
      <trkpt lat="44.06252" lon="2.00275">
        <ele>287.764</ele>
        <time>2019-10-31T12:55:59Z</time>
      </trkpt>
      <trkpt lat="44.06243" lon="2.00219">
        <ele>291.229</ele>
        <time>2019-10-31T12:55:39Z</time>
      </trkpt>
      <trkpt lat="44.06196" lon="2.00123">
        <ele>301.163</ele>
        <time>2019-10-31T12:55:19Z</time>
      </trkpt>
      <trkpt lat="44.06167" lon="1.9988">
        <ele>304.008</ele>
        <time>2019-10-31T12:54:59Z</time>
      </trkpt>
      <trkpt lat="44.06036" lon="1.99711">
        <ele>302.921</ele>
        <time>2019-10-31T12:54:39Z</time>
      </trkpt>
      <trkpt lat="44.06166" lon="1.99423">
        <ele>290.956</ele>
        <time>2019-10-31T12:54:19Z</time>
      </trkpt>
      <trkpt lat="44.06195" lon="1.9929">
        <ele>291.574</ele>
        <time>2019-10-31T12:53:59Z</time>
      </trkpt>
      <trkpt lat="44.06196" lon="1.99149">
        <ele>296.219</ele>
        <time>2019-10-31T12:53:39Z</time>
      </trkpt>
      <trkpt lat="44.06155" lon="1.98936">
        <ele>301.15</ele>
        <time>2019-10-31T12:53:19Z</time>
      </trkpt>
      <trkpt lat="44.06141" lon="1.98816">
        <ele>306.234</ele>
        <time>2019-10-31T12:52:59Z</time>
      </trkpt>
      <trkpt lat="44.06155" lon="1.98584">
        <ele>306.942</ele>
        <time>2019-10-31T12:52:39Z</time>
      </trkpt>
      <trkpt lat="44.06187" lon="1.98385">
        <ele>302.376</ele>
        <time>2019-10-31T12:52:19Z</time>
      </trkpt>
      <trkpt lat="44.06198" lon="1.98254">
        <ele>306.083</ele>
        <time>2019-10-31T12:51:59Z</time>
      </trkpt>
      <trkpt lat="44.0626" lon="1.98041">
        <ele>308.748</ele>
        <time>2019-10-31T12:51:39Z</time>
      </trkpt>
      <trkpt lat="44.06263" lon="1.97919">
        <ele>308.962</ele>
        <time>2019-10-31T12:51:19Z</time>
      </trkpt>
      <trkpt lat="44.06278" lon="1.9784">
        <ele>308.208</ele>
        <time>2019-10-31T12:50:59Z</time>
      </trkpt>
      <trkpt lat="44.06289" lon="1.97604">
        <ele>302.311</ele>
        <time>2019-10-31T12:50:39Z</time>
      </trkpt>
      <trkpt lat="44.06283" lon="1.97417">
        <ele>301.683</ele>
        <time>2019-10-31T12:50:19Z</time>
      </trkpt>
      <trkpt lat="44.06249" lon="1.97016">
        <ele>297.662</ele>
        <time>2019-10-31T12:49:59Z</time>
      </trkpt>
      <trkpt lat="44.06241" lon="1.96683">
        <ele>288.972</ele>
        <time>2019-10-31T12:49:39Z</time>
      </trkpt>
      <trkpt lat="44.06253" lon="1.96625">
        <ele>289.083</ele>
        <time>2019-10-31T12:49:19Z</time>
      </trkpt>
      <trkpt lat="44.06266" lon="1.96484">
        <ele>277.297</ele>
        <time>2019-10-31T12:48:59Z</time>
      </trkpt>
      <trkpt lat="44.06266" lon="1.96434">
        <ele>272.945</ele>
        <time>2019-10-31T12:48:39Z</time>
      </trkpt>
      <trkpt lat="44.0624" lon="1.96406">
        <ele>266.799</ele>
        <time>2019-10-31T12:48:19Z</time>
      </trkpt>
      <trkpt lat="44.06223" lon="1.96239">
        <ele>249.426</ele>
        <time>2019-10-31T12:47:59Z</time>
      </trkpt>
      <trkpt lat="44.0617" lon="1.96205">
        <ele>237.411</ele>
        <time>2019-10-31T12:47:39Z</time>
      </trkpt>
      <trkpt lat="44.06169" lon="1.9614">
        <ele>225.635</ele>
        <time>2019-10-31T12:47:19Z</time>
      </trkpt>
      <trkpt lat="44.06244" lon="1.95872">
        <ele>214.608</ele>
        <time>2019-10-31T12:46:59Z</time>
      </trkpt>
      <trkpt lat="44.06266" lon="1.95739">
        <ele>217.621</ele>
        <time>2019-10-31T12:46:39Z</time>
      </trkpt>
      <trkpt lat="44.06258" lon="1.95621">
        <ele>226.165</ele>
        <time>2019-10-31T12:46:19Z</time>
      </trkpt>
      <trkpt lat="44.06264" lon="1.95527">
        <ele>242.193</ele>
        <time>2019-10-31T12:45:59Z</time>
      </trkpt>
      <trkpt lat="44.06287" lon="1.95469">
        <ele>247.374</ele>
        <time>2019-10-31T12:45:39Z</time>
      </trkpt>
      <trkpt lat="44.06274" lon="1.95389">
        <ele>259.025</ele>
        <time>2019-10-31T12:45:19Z</time>
      </trkpt>
      <trkpt lat="44.06318" lon="1.95372">
        <ele>268.049</ele>
        <time>2019-10-31T12:44:59Z</time>
      </trkpt>
      <trkpt lat="44.06306" lon="1.95299">
        <ele>287.787</ele>
        <time>2019-10-31T12:44:39Z</time>
      </trkpt>
      <trkpt lat="44.06346" lon="1.95072">
        <ele>289.851</ele>
        <time>2019-10-31T12:44:19Z</time>
      </trkpt>
      <trkpt lat="44.06364" lon="1.94866">
        <ele>264.988</ele>
        <time>2019-10-31T12:43:59Z</time>
      </trkpt>
      <trkpt lat="44.06363" lon="1.94831">
        <ele>260.413</ele>
        <time>2019-10-31T12:43:39Z</time>
      </trkpt>
      <trkpt lat="44.06391" lon="1.94825">
        <ele>256.677</ele>
        <time>2019-10-31T12:43:19Z</time>
      </trkpt>
      <trkpt lat="44.06419" lon="1.95">
        <ele>264.008</ele>
        <time>2019-10-31T12:42:59Z</time>
      </trkpt>
      <trkpt lat="44.06443" lon="1.95049">
        <ele>257.811</ele>
        <time>2019-10-31T12:42:39Z</time>
      </trkpt>
      <trkpt lat="44.06463" lon="1.95101">
        <ele>254.365</ele>
        <time>2019-10-31T12:42:19Z</time>
      </trkpt>
      <trkpt lat="44.06476" lon="1.95145">
        <ele>247.815</ele>
        <time>2019-10-31T12:41:59Z</time>
      </trkpt>
      <trkpt lat="44.0648" lon="1.95203">
        <ele>239.937</ele>
        <time>2019-10-31T12:41:39Z</time>
      </trkpt>
      <trkpt lat="44.06497" lon="1.95153">
        <ele>237.358</ele>
        <time>2019-10-31T12:41:19Z</time>
      </trkpt>
      <trkpt lat="44.06505" lon="1.95213">
        <ele>231.442</ele>
        <time>2019-10-31T12:40:59Z</time>
      </trkpt>
      <trkpt lat="44.06497" lon="1.95278">
        <ele>224.74</ele>
        <time>2019-10-31T12:40:39Z</time>
      </trkpt>
      <trkpt lat="44.0657" lon="1.95256">
        <ele>214.344</ele>
        <time>2019-10-31T12:40:19Z</time>
      </trkpt>
      <trkpt lat="44.06616" lon="1.94947">
        <ele>188.491</ele>
        <time>2019-10-31T12:39:59Z</time>
      </trkpt>
      <trkpt lat="44.0665" lon="1.94917">
        <ele>182.956</ele>
        <time>2019-10-31T12:39:39Z</time>
      </trkpt>
      <trkpt lat="44.06714" lon="1.94917">
        <ele>177.61</ele>
        <time>2019-10-31T12:39:19Z</time>
      </trkpt>
      <trkpt lat="44.06765" lon="1.94829">
        <ele>171.908</ele>
        <time>2019-10-31T12:38:59Z</time>
      </trkpt>
      <trkpt lat="44.06793" lon="1.94748">
        <ele>169.611</ele>
        <time>2019-10-31T12:38:39Z</time>
      </trkpt>
      <trkpt lat="44.06793" lon="1.94634">
        <ele>170.647</ele>
        <time>2019-10-31T12:38:19Z</time>
      </trkpt>
      <trkpt lat="44.0677" lon="1.94503">
        <ele>168.445</ele>
        <time>2019-10-31T12:37:59Z</time>
      </trkpt>
      <trkpt lat="44.06789" lon="1.94437">
        <ele>166.981</ele>
        <time>2019-10-31T12:37:39Z</time>
      </trkpt>
      <trkpt lat="44.06779" lon="1.94392">
        <ele>168.062</ele>
        <time>2019-10-31T12:37:19Z</time>
      </trkpt>
      <trkpt lat="44.06779" lon="1.94342">
        <ele>169.086</ele>
        <time>2019-10-31T12:36:59Z</time>
      </trkpt>
      <trkpt lat="44.06756" lon="1.94218">
        <ele>166.734</ele>
        <time>2019-10-31T12:36:39Z</time>
      </trkpt>
      <trkpt lat="44.06756" lon="1.94083">
        <ele>166.538</ele>
        <time>2019-10-31T12:36:19Z</time>
      </trkpt>
      <trkpt lat="44.06787" lon="1.94033">
        <ele>164.055</ele>
        <time>2019-10-31T12:35:59Z</time>
      </trkpt>
      <trkpt lat="44.06921" lon="1.94057">
        <ele>165.01</ele>
        <time>2019-10-31T12:35:39Z</time>
      </trkpt>
      <trkpt lat="44.06997" lon="1.94074">
        <ele>164.344</ele>
        <time>2019-10-31T12:35:19Z</time>
      </trkpt>
      <trkpt lat="44.07035" lon="1.94104">
        <ele>165.008</ele>
        <time>2019-10-31T12:34:59Z</time>
      </trkpt>
      <trkpt lat="44.07051" lon="1.94132">
        <ele>165.817</ele>
        <time>2019-10-31T12:34:39Z</time>
      </trkpt>
      <trkpt lat="44.07091" lon="1.94149">
        <ele>165.561</ele>
        <time>2019-10-31T12:34:19Z</time>
      </trkpt>
      <trkpt lat="44.072" lon="1.94147">
        <ele>170.481</ele>
        <time>2019-10-31T12:33:59Z</time>
      </trkpt>
      <trkpt lat="44.07246" lon="1.94162">
        <ele>171.169</ele>
        <time>2019-10-31T12:33:39Z</time>
      </trkpt>
      <trkpt lat="44.07282" lon="1.94201">
        <ele>170.35</ele>
        <time>2019-10-31T12:33:19Z</time>
      </trkpt>
      <trkpt lat="44.07328" lon="1.94282">
        <ele>173.624</ele>
        <time>2019-10-31T12:32:59Z</time>
      </trkpt>
      <trkpt lat="44.07359" lon="1.94413">
        <ele>171.892</ele>
        <time>2019-10-31T12:32:39Z</time>
      </trkpt>
      <trkpt lat="44.07391" lon="1.94484">
        <ele>169.286</ele>
        <time>2019-10-31T12:32:19Z</time>
      </trkpt>
      <trkpt lat="44.07461" lon="1.94464">
        <ele>176.763</ele>
        <time>2019-10-31T12:31:59Z</time>
      </trkpt>
      <trkpt lat="44.07481" lon="1.94464">
        <ele>179.128</ele>
        <time>2019-10-31T12:31:39Z</time>
      </trkpt>
      <trkpt lat="44.07533" lon="1.94454">
        <ele>184.112</ele>
        <time>2019-10-31T12:31:19Z</time>
      </trkpt>
      <trkpt lat="44.07545" lon="1.94439">
        <ele>185.508</ele>
        <time>2019-10-31T12:30:59Z</time>
      </trkpt>
      <trkpt lat="44.07579" lon="1.94426">
        <ele>189.224</ele>
        <time>2019-10-31T12:30:39Z</time>
      </trkpt>
      <trkpt lat="44.07564" lon="1.94361">
        <ele>189.204</ele>
        <time>2019-10-31T12:30:19Z</time>
      </trkpt>
      <trkpt lat="44.07559" lon="1.94233">
        <ele>193.769</ele>
        <time>2019-10-31T12:29:59Z</time>
      </trkpt>
      <trkpt lat="44.07521" lon="1.94025">
        <ele>191.455</ele>
        <time>2019-10-31T12:29:39Z</time>
      </trkpt>
      <trkpt lat="44.07633" lon="1.94044">
        <ele>204.616</ele>
        <time>2019-10-31T12:29:19Z</time>
      </trkpt>
      <trkpt lat="44.07712" lon="1.94083">
        <ele>212.68</ele>
        <time>2019-10-31T12:28:59Z</time>
      </trkpt>
      <trkpt lat="44.07775" lon="1.94188">
        <ele>213.838</ele>
        <time>2019-10-31T12:28:39Z</time>
      </trkpt>
      <trkpt lat="44.07838" lon="1.94179">
        <ele>216.652</ele>
        <time>2019-10-31T12:28:19Z</time>
      </trkpt>
      <trkpt lat="44.07968" lon="1.94471">
        <ele>228.259</ele>
        <time>2019-10-31T12:27:59Z</time>
      </trkpt>
      <trkpt lat="44.08031" lon="1.94533">
        <ele>235.074</ele>
        <time>2019-10-31T12:27:39Z</time>
      </trkpt>
      <trkpt lat="44.081" lon="1.94572">
        <ele>241.458</ele>
        <time>2019-10-31T12:27:19Z</time>
      </trkpt>
      <trkpt lat="44.08153" lon="1.9458">
        <ele>247.108</ele>
        <time>2019-10-31T12:26:59Z</time>
      </trkpt>
      <trkpt lat="44.08156" lon="1.9475">
        <ele>268.814</ele>
        <time>2019-10-31T12:26:39Z</time>
      </trkpt>
      <trkpt lat="44.08239" lon="1.94737">
        <ele>285.968</ele>
        <time>2019-10-31T12:26:19Z</time>
      </trkpt>
      <trkpt lat="44.08316" lon="1.94724">
        <ele>292.927</ele>
        <time>2019-10-31T12:25:59Z</time>
      </trkpt>
      <trkpt lat="44.08356" lon="1.94748">
        <ele>300.271</ele>
        <time>2019-10-31T12:25:39Z</time>
      </trkpt>
      <trkpt lat="44.08416" lon="1.94825">
        <ele>306.352</ele>
        <time>2019-10-31T12:25:19Z</time>
      </trkpt>
      <trkpt lat="44.08475" lon="1.94973">
        <ele>309.176</ele>
        <time>2019-10-31T12:24:59Z</time>
      </trkpt>
      <trkpt lat="44.08523" lon="1.95016">
        <ele>309.274</ele>
        <time>2019-10-31T12:24:39Z</time>
      </trkpt>
      <trkpt lat="44.08574" lon="1.95037">
        <ele>309.338</ele>
        <time>2019-10-31T12:24:19Z</time>
      </trkpt>
      <trkpt lat="44.08615" lon="1.95059">
        <ele>309.895</ele>
        <time>2019-10-31T12:23:59Z</time>
      </trkpt>
      <trkpt lat="44.08705" lon="1.95087">
        <ele>308.53</ele>
        <time>2019-10-31T12:23:39Z</time>
      </trkpt>
      <trkpt lat="44.0882" lon="1.95037">
        <ele>310.174</ele>
        <time>2019-10-31T12:23:19Z</time>
      </trkpt>
      <trkpt lat="44.08891" lon="1.9504">
        <ele>307.908</ele>
        <time>2019-10-31T12:22:59Z</time>
      </trkpt>
      <trkpt lat="44.08931" lon="1.95091">
        <ele>311.617</ele>
        <time>2019-10-31T12:22:39Z</time>
      </trkpt>
      <trkpt lat="44.08973" lon="1.95115">
        <ele>314.825</ele>
        <time>2019-10-31T12:22:19Z</time>
      </trkpt>
      <trkpt lat="44.09028" lon="1.9517">
        <ele>315.983</ele>
        <time>2019-10-31T12:21:59Z</time>
      </trkpt>
      <trkpt lat="44.09038" lon="1.952">
        <ele>314.944</ele>
        <time>2019-10-31T12:21:39Z</time>
      </trkpt>
      <trkpt lat="44.09087" lon="1.95269">
        <ele>316.025</ele>
        <time>2019-10-31T12:21:19Z</time>
      </trkpt>
      <trkpt lat="44.09182" lon="1.95357">
        <ele>321.939</ele>
        <time>2019-10-31T12:20:59Z</time>
      </trkpt>
      <trkpt lat="44.09306" lon="1.95437">
        <ele>317.027</ele>
        <time>2019-10-31T12:20:39Z</time>
      </trkpt>
      <trkpt lat="44.09336" lon="1.95484">
        <ele>315.911</ele>
        <time>2019-10-31T12:20:19Z</time>
      </trkpt>
      <trkpt lat="44.09424" lon="1.95561">
        <ele>317.458</ele>
        <time>2019-10-31T12:19:59Z</time>
      </trkpt>
      <trkpt lat="44.09463" lon="1.95608">
        <ele>316.413</ele>
        <time>2019-10-31T12:19:39Z</time>
      </trkpt>
      <trkpt lat="44.09518" lon="1.95733">
        <ele>320.477</ele>
        <time>2019-10-31T12:19:19Z</time>
      </trkpt>
      <trkpt lat="44.09594" lon="1.95971">
        <ele>324.008</ele>
        <time>2019-10-31T12:18:59Z</time>
      </trkpt>
      <trkpt lat="44.09588" lon="1.96059">
        <ele>321.817</ele>
        <time>2019-10-31T12:18:39Z</time>
      </trkpt>
      <trkpt lat="44.09615" lon="1.96164">
        <ele>321.798</ele>
        <time>2019-10-31T12:18:19Z</time>
      </trkpt>
      <trkpt lat="44.09631" lon="1.96295">
        <ele>320.718</ele>
        <time>2019-10-31T12:17:59Z</time>
      </trkpt>
      <trkpt lat="44.09666" lon="1.96415">
        <ele>323.096</ele>
        <time>2019-10-31T12:17:39Z</time>
      </trkpt>
      <trkpt lat="44.09728" lon="1.96327">
        <ele>317.837</ele>
        <time>2019-10-31T12:17:19Z</time>
      </trkpt>
      <trkpt lat="44.09802" lon="1.96261">
        <ele>309.061</ele>
        <time>2019-10-31T12:16:59Z</time>
      </trkpt>
      <trkpt lat="44.09874" lon="1.96278">
        <ele>287.299</ele>
        <time>2019-10-31T12:16:39Z</time>
      </trkpt>
      <trkpt lat="44.09916" lon="1.96248">
        <ele>280.363</ele>
        <time>2019-10-31T12:16:19Z</time>
      </trkpt>
      <trkpt lat="44.09951" lon="1.96183">
        <ele>274.06</ele>
        <time>2019-10-31T12:15:59Z</time>
      </trkpt>
      <trkpt lat="44.10058" lon="1.96082">
        <ele>265.845</ele>
        <time>2019-10-31T12:15:39Z</time>
      </trkpt>
      <trkpt lat="44.10164" lon="1.96112">
        <ele>262.349</ele>
        <time>2019-10-31T12:15:19Z</time>
      </trkpt>
      <trkpt lat="44.10244" lon="1.96076">
        <ele>252.308</ele>
        <time>2019-10-31T12:14:59Z</time>
      </trkpt>
      <trkpt lat="44.10284" lon="1.9608">
        <ele>250.615</ele>
        <time>2019-10-31T12:14:39Z</time>
      </trkpt>
      <trkpt lat="44.10293" lon="1.96024">
        <ele>248.523</ele>
        <time>2019-10-31T12:14:19Z</time>
      </trkpt>
      <trkpt lat="44.10364" lon="1.95994">
        <ele>248.233</ele>
        <time>2019-10-31T12:13:59Z</time>
      </trkpt>
      <trkpt lat="44.10466" lon="1.95898">
        <ele>253.165</ele>
        <time>2019-10-31T12:13:39Z</time>
      </trkpt>
      <trkpt lat="44.10488" lon="1.95936">
        <ele>249.386</ele>
        <time>2019-10-31T12:13:19Z</time>
      </trkpt>
      <trkpt lat="44.10528" lon="1.95941">
        <ele>249.39</ele>
        <time>2019-10-31T12:12:59Z</time>
      </trkpt>
      <trkpt lat="44.10683" lon="1.9607">
        <ele>240.268</ele>
        <time>2019-10-31T12:12:39Z</time>
      </trkpt>
      <trkpt lat="44.10691" lon="1.96121">
        <ele>236.362</ele>
        <time>2019-10-31T12:12:19Z</time>
      </trkpt>
      <trkpt lat="44.10808" lon="1.96235">
        <ele>246.279</ele>
        <time>2019-10-31T12:11:59Z</time>
      </trkpt>
      <trkpt lat="44.10885" lon="1.96338">
        <ele>257.624</ele>
        <time>2019-10-31T12:11:39Z</time>
      </trkpt>
      <trkpt lat="44.10964" lon="1.9646">
        <ele>264.558</ele>
        <time>2019-10-31T12:11:19Z</time>
      </trkpt>
      <trkpt lat="44.11021" lon="1.96627">
        <ele>270.008</ele>
        <time>2019-10-31T12:10:59Z</time>
      </trkpt>
      <trkpt lat="44.1105" lon="1.96782">
        <ele>277.508</ele>
        <time>2019-10-31T12:10:39Z</time>
      </trkpt>
      <trkpt lat="44.11107" lon="1.96758">
        <ele>281.362</ele>
        <time>2019-10-31T12:10:19Z</time>
      </trkpt>
      <trkpt lat="44.11243" lon="1.96728">
        <ele>277.522</ele>
        <time>2019-10-31T12:09:59Z</time>
      </trkpt>
      <trkpt lat="44.11361" lon="1.96724">
        <ele>275.924</ele>
        <time>2019-10-31T12:09:39Z</time>
      </trkpt>
      <trkpt lat="44.11438" lon="1.96694">
        <ele>271.755</ele>
        <time>2019-10-31T12:09:19Z</time>
      </trkpt>
      <trkpt lat="44.1166" lon="1.96657">
        <ele>273.759</ele>
        <time>2019-10-31T12:08:59Z</time>
      </trkpt>
      <trkpt lat="44.11802" lon="1.96612">
        <ele>268.497</ele>
        <time>2019-10-31T12:08:39Z</time>
      </trkpt>
      <trkpt lat="44.11865" lon="1.96585">
        <ele>263.921</ele>
        <time>2019-10-31T12:08:19Z</time>
      </trkpt>
      <trkpt lat="44.11988" lon="1.96492">
        <ele>251.418</ele>
        <time>2019-10-31T12:07:59Z</time>
      </trkpt>
      <trkpt lat="44.12041" lon="1.96486">
        <ele>247.193</ele>
        <time>2019-10-31T12:07:39Z</time>
      </trkpt>
      <trkpt lat="44.12133" lon="1.96548">
        <ele>232.187</ele>
        <time>2019-10-31T12:07:19Z</time>
      </trkpt>
      <trkpt lat="44.12207" lon="1.96576">
        <ele>210.608</ele>
        <time>2019-10-31T12:06:59Z</time>
      </trkpt>
      <trkpt lat="44.12261" lon="1.96576">
        <ele>206.811</ele>
        <time>2019-10-31T12:06:39Z</time>
      </trkpt>
      <trkpt lat="44.12339" lon="1.96542">
        <ele>209.565</ele>
        <time>2019-10-31T12:06:19Z</time>
      </trkpt>
      <trkpt lat="44.12361" lon="1.96593">
        <ele>215.315</ele>
        <time>2019-10-31T12:05:59Z</time>
      </trkpt>
      <trkpt lat="44.12441" lon="1.9664">
        <ele>224.281</ele>
        <time>2019-10-31T12:05:39Z</time>
      </trkpt>
      <trkpt lat="44.12578" lon="1.96664">
        <ele>253.432</ele>
        <time>2019-10-31T12:05:19Z</time>
      </trkpt>
      <trkpt lat="44.12609" lon="1.96645">
        <ele>263.656</ele>
        <time>2019-10-31T12:04:59Z</time>
      </trkpt>
      <trkpt lat="44.12711" lon="1.96621">
        <ele>273.754</ele>
        <time>2019-10-31T12:04:39Z</time>
      </trkpt>
      <trkpt lat="44.12792" lon="1.9663">
        <ele>284.738</ele>
        <time>2019-10-31T12:04:19Z</time>
      </trkpt>
      <trkpt lat="44.12875" lon="1.96632">
        <ele>293.155</ele>
        <time>2019-10-31T12:03:59Z</time>
      </trkpt>
      <trkpt lat="44.12946" lon="1.9667">
        <ele>294.97</ele>
        <time>2019-10-31T12:03:39Z</time>
      </trkpt>
      <trkpt lat="44.13019" lon="1.96677">
        <ele>293.084</ele>
        <time>2019-10-31T12:03:19Z</time>
      </trkpt>
      <trkpt lat="44.13043" lon="1.96694">
        <ele>290.908</ele>
        <time>2019-10-31T12:02:59Z</time>
      </trkpt>
      <trkpt lat="44.1304" lon="1.96737">
        <ele>288.117</ele>
        <time>2019-10-31T12:02:39Z</time>
      </trkpt>
      <trkpt lat="44.13052" lon="1.96773">
        <ele>283.625</ele>
        <time>2019-10-31T12:02:19Z</time>
      </trkpt>
      <trkpt lat="44.13143" lon="1.96786">
        <ele>276.283</ele>
        <time>2019-10-31T12:01:59Z</time>
      </trkpt>
      <trkpt lat="44.13273" lon="1.96844">
        <ele>266.652</ele>
        <time>2019-10-31T12:01:39Z</time>
      </trkpt>
      <trkpt lat="44.13294" lon="1.96838">
        <ele>264.753</ele>
        <time>2019-10-31T12:01:19Z</time>
      </trkpt>
      <trkpt lat="44.13305" lon="1.9678">
        <ele>263.117</ele>
        <time>2019-10-31T12:00:59Z</time>
      </trkpt>
      <trkpt lat="44.13322" lon="1.96754">
        <ele>260.155</ele>
        <time>2019-10-31T12:00:39Z</time>
      </trkpt>
      <trkpt lat="44.13348" lon="1.96769">
        <ele>256.639</ele>
        <time>2019-10-31T12:00:19Z</time>
      </trkpt>
      <trkpt lat="44.13359" lon="1.96919">
        <ele>253.916</ele>
        <time>2019-10-31T11:59:59Z</time>
      </trkpt>
      <trkpt lat="44.13391" lon="1.96932">
        <ele>254.661</ele>
        <time>2019-10-31T11:59:39Z</time>
      </trkpt>
      <trkpt lat="44.13436" lon="1.96885">
        <ele>254.685</ele>
        <time>2019-10-31T11:59:19Z</time>
      </trkpt>
      <trkpt lat="44.13545" lon="1.969">
        <ele>249.208</ele>
        <time>2019-10-31T11:58:59Z</time>
      </trkpt>
      <trkpt lat="44.13676" lon="1.96861">
        <ele>237.727</ele>
        <time>2019-10-31T11:58:39Z</time>
      </trkpt>
      <trkpt lat="44.13732" lon="1.96874">
        <ele>227.807</ele>
        <time>2019-10-31T11:58:19Z</time>
      </trkpt>
      <trkpt lat="44.13833" lon="1.96827">
        <ele>206.799</ele>
        <time>2019-10-31T11:57:59Z</time>
      </trkpt>
      <trkpt lat="44.13904" lon="1.96838">
        <ele>204.642</ele>
        <time>2019-10-31T11:57:39Z</time>
      </trkpt>
      <trkpt lat="44.14224" lon="1.96868">
        <ele>183.523</ele>
        <time>2019-10-31T11:57:19Z</time>
      </trkpt>
      <trkpt lat="44.14232" lon="1.96973">
        <ele>188.927</ele>
        <time>2019-10-31T11:56:59Z</time>
      </trkpt>
      <trkpt lat="44.14215" lon="1.97093">
        <ele>184.065</ele>
        <time>2019-10-31T11:56:39Z</time>
      </trkpt>
      <trkpt lat="44.14303" lon="1.97072">
        <ele>154.919</ele>
        <time>2019-10-31T11:56:19Z</time>
      </trkpt>
      <trkpt lat="44.14374" lon="1.97168">
        <ele>156.546</ele>
        <time>2019-10-31T11:55:59Z</time>
      </trkpt>
      <trkpt lat="44.14412" lon="1.97138">
        <ele>157.991</ele>
        <time>2019-10-31T11:55:39Z</time>
      </trkpt>
      <trkpt lat="44.14512" lon="1.97093">
        <ele>155.995</ele>
        <time>2019-10-31T11:55:19Z</time>
      </trkpt>
      <trkpt lat="44.14549" lon="1.97271">
        <ele>154.808</ele>
        <time>2019-10-31T11:54:59Z</time>
      </trkpt>
      <trkpt lat="44.1458" lon="1.97308">
        <ele>153.027</ele>
        <time>2019-10-31T11:54:39Z</time>
      </trkpt>
      <trkpt lat="44.14662" lon="1.97355">
        <ele>153.807</ele>
        <time>2019-10-31T11:54:19Z</time>
      </trkpt>
      <trkpt lat="44.14769" lon="1.97398">
        <ele>153.499</ele>
        <time>2019-10-31T11:53:59Z</time>
      </trkpt>
      <trkpt lat="44.14866" lon="1.97404">
        <ele>157.121</ele>
        <time>2019-10-31T11:53:39Z</time>
      </trkpt>
      <trkpt lat="44.15011" lon="1.97361">
        <ele>159.852</ele>
        <time>2019-10-31T11:53:19Z</time>
      </trkpt>
      <trkpt lat="44.1521" lon="1.9734">
        <ele>161.926</ele>
        <time>2019-10-31T11:52:59Z</time>
      </trkpt>
      <trkpt lat="44.15445" lon="1.97336">
        <ele>163.834</ele>
        <time>2019-10-31T11:52:39Z</time>
      </trkpt>
      <trkpt lat="44.15538" lon="1.97293">
        <ele>164.368</ele>
        <time>2019-10-31T11:52:19Z</time>
      </trkpt>
      <trkpt lat="44.15587" lon="1.97183">
        <ele>171.575</ele>
        <time>2019-10-31T11:51:59Z</time>
      </trkpt>
      <trkpt lat="44.15716" lon="1.9705">
        <ele>188.99</ele>
        <time>2019-10-31T11:51:39Z</time>
      </trkpt>
      <trkpt lat="44.15783" lon="1.9702">
        <ele>175.744</ele>
        <time>2019-10-31T11:51:19Z</time>
      </trkpt>
      <trkpt lat="44.15839" lon="1.97016">
        <ele>175.408</ele>
        <time>2019-10-31T11:50:59Z</time>
      </trkpt>
      <trkpt lat="44.15873" lon="1.97037">
        <ele>175.426</ele>
        <time>2019-10-31T11:50:39Z</time>
      </trkpt>
      <trkpt lat="44.15932" lon="1.97095">
        <ele>176.124</ele>
        <time>2019-10-31T11:50:19Z</time>
      </trkpt>
      <trkpt lat="44.16013" lon="1.97252">
        <ele>170.588</ele>
        <time>2019-10-31T11:49:59Z</time>
      </trkpt>
      <trkpt lat="44.16118" lon="1.97415">
        <ele>169.17</ele>
        <time>2019-10-31T11:49:39Z</time>
      </trkpt>
      <trkpt lat="44.16212" lon="1.97539">
        <ele>172.641</ele>
        <time>2019-10-31T11:49:19Z</time>
      </trkpt>
      <trkpt lat="44.16257" lon="1.97672">
        <ele>170.375</ele>
        <time>2019-10-31T11:48:59Z</time>
      </trkpt>
      <trkpt lat="44.16334" lon="1.97675">
        <ele>175.923</ele>
        <time>2019-10-31T11:48:39Z</time>
      </trkpt>
      <trkpt lat="44.16391" lon="1.97662">
        <ele>177.047</ele>
        <time>2019-10-31T11:48:19Z</time>
      </trkpt>
      <trkpt lat="44.16508" lon="1.97544">
        <ele>178.084</ele>
        <time>2019-10-31T11:47:59Z</time>
      </trkpt>
      <trkpt lat="44.16641" lon="1.97353">
        <ele>182.519</ele>
        <time>2019-10-31T11:47:39Z</time>
      </trkpt>
      <trkpt lat="44.16692" lon="1.97305">
        <ele>173.013</ele>
        <time>2019-10-31T11:47:19Z</time>
      </trkpt>
      <trkpt lat="44.16746" lon="1.9728">
        <ele>179.708</ele>
        <time>2019-10-31T11:46:59Z</time>
      </trkpt>
      <trkpt lat="44.16823" lon="1.97267">
        <ele>175.614</ele>
        <time>2019-10-31T11:46:39Z</time>
      </trkpt>
      <trkpt lat="44.16883" lon="1.9729">
        <ele>164.613</ele>
        <time>2019-10-31T11:46:19Z</time>
      </trkpt>
      <trkpt lat="44.17028" lon="1.97286">
        <ele>177.472</ele>
        <time>2019-10-31T11:45:59Z</time>
      </trkpt>
      <trkpt lat="44.17159" lon="1.97273">
        <ele>192.847</ele>
        <time>2019-10-31T11:45:39Z</time>
      </trkpt>
      <trkpt lat="44.17249" lon="1.97342">
        <ele>177.428</ele>
        <time>2019-10-31T11:45:19Z</time>
      </trkpt>
      <trkpt lat="44.17296" lon="1.97363">
        <ele>184.192</ele>
        <time>2019-10-31T11:44:59Z</time>
      </trkpt>
      <trkpt lat="44.17369" lon="1.97539">
        <ele>180.16</ele>
        <time>2019-10-31T11:44:39Z</time>
      </trkpt>
      <trkpt lat="44.17393" lon="1.97632">
        <ele>170.364</ele>
        <time>2019-10-31T11:44:19Z</time>
      </trkpt>
      <trkpt lat="44.17449" lon="1.97728">
        <ele>178.261</ele>
        <time>2019-10-31T11:43:59Z</time>
      </trkpt>
      <trkpt lat="44.17479" lon="1.97805">
        <ele>176.116</ele>
        <time>2019-10-31T11:43:39Z</time>
      </trkpt>
      <trkpt lat="44.17514" lon="1.97874">
        <ele>173.79</ele>
        <time>2019-10-31T11:43:19Z</time>
      </trkpt>
      <trkpt lat="44.17554" lon="1.97911">
        <ele>174.008</ele>
        <time>2019-10-31T11:42:59Z</time>
      </trkpt>
      <trkpt lat="44.1765" lon="1.97964">
        <ele>179.611</ele>
        <time>2019-10-31T11:42:39Z</time>
      </trkpt>
      <trkpt lat="44.17722" lon="1.98033">
        <ele>182.447</ele>
        <time>2019-10-31T11:42:19Z</time>
      </trkpt>
      <trkpt lat="44.1782" lon="1.98211">
        <ele>179.945</ele>
        <time>2019-10-31T11:41:59Z</time>
      </trkpt>
      <trkpt lat="44.17902" lon="1.98243">
        <ele>181.578</ele>
        <time>2019-10-31T11:41:39Z</time>
      </trkpt>
      <trkpt lat="44.17979" lon="1.98235">
        <ele>184.799</ele>
        <time>2019-10-31T11:41:19Z</time>
      </trkpt>
      <trkpt lat="44.18094" lon="1.98151">
        <ele>179.523</ele>
        <time>2019-10-31T11:40:59Z</time>
      </trkpt>
      <trkpt lat="44.18265" lon="1.98093">
        <ele>178.131</ele>
        <time>2019-10-31T11:40:39Z</time>
      </trkpt>
      <trkpt lat="44.18502" lon="1.98046">
        <ele>187.925</ele>
        <time>2019-10-31T11:40:19Z</time>
      </trkpt>
      <trkpt lat="44.18596" lon="1.98039">
        <ele>195.072</ele>
        <time>2019-10-31T11:39:59Z</time>
      </trkpt>
      <trkpt lat="44.18681" lon="1.98069">
        <ele>186.197</ele>
        <time>2019-10-31T11:39:39Z</time>
      </trkpt>
      <trkpt lat="44.18741" lon="1.98134">
        <ele>175.871</ele>
        <time>2019-10-31T11:39:19Z</time>
      </trkpt>
      <trkpt lat="44.18742" lon="1.98179">
        <ele>175.608</ele>
        <time>2019-10-31T11:38:59Z</time>
      </trkpt>
      <trkpt lat="44.18728" lon="1.98237">
        <ele>176.614</ele>
        <time>2019-10-31T11:38:39Z</time>
      </trkpt>
      <trkpt lat="44.18741" lon="1.9832">
        <ele>187.004</ele>
        <time>2019-10-31T11:38:19Z</time>
      </trkpt>
      <trkpt lat="44.18737" lon="1.98419">
        <ele>190.653</ele>
        <time>2019-10-31T11:37:59Z</time>
      </trkpt>
      <trkpt lat="44.18761" lon="1.98524">
        <ele>204.64</ele>
        <time>2019-10-31T11:37:39Z</time>
      </trkpt>
      <trkpt lat="44.18767" lon="1.98593">
        <ele>206.641</ele>
        <time>2019-10-31T11:37:19Z</time>
      </trkpt>
      <trkpt lat="44.1879" lon="1.98659">
        <ele>212.255</ele>
        <time>2019-10-31T11:36:59Z</time>
      </trkpt>
      <trkpt lat="44.18821" lon="1.98655">
        <ele>221.363</ele>
        <time>2019-10-31T11:36:39Z</time>
      </trkpt>
      <trkpt lat="44.18893" lon="1.98576">
        <ele>248.257</ele>
        <time>2019-10-31T11:36:19Z</time>
      </trkpt>
      <trkpt lat="44.18954" lon="1.98526">
        <ele>252.344</ele>
        <time>2019-10-31T11:35:59Z</time>
      </trkpt>
      <trkpt lat="44.18987" lon="1.9843">
        <ele>265.059</ele>
        <time>2019-10-31T11:35:39Z</time>
      </trkpt>
      <trkpt lat="44.18961" lon="1.98365">
        <ele>274.053</ele>
        <time>2019-10-31T11:35:19Z</time>
      </trkpt>
      <trkpt lat="44.18951" lon="1.98299">
        <ele>271.408</ele>
        <time>2019-10-31T11:34:59Z</time>
      </trkpt>
      <trkpt lat="44.18957" lon="1.98235">
        <ele>270.315</ele>
        <time>2019-10-31T11:34:39Z</time>
      </trkpt>
      <trkpt lat="44.19054" lon="1.98132">
        <ele>285.041</ele>
        <time>2019-10-31T11:34:19Z</time>
      </trkpt>
      <trkpt lat="44.19079" lon="1.98067">
        <ele>290.971</ele>
        <time>2019-10-31T11:33:59Z</time>
      </trkpt>
      <trkpt lat="44.19127" lon="1.98072">
        <ele>289.269</ele>
        <time>2019-10-31T11:33:39Z</time>
      </trkpt>
      <trkpt lat="44.19165" lon="1.98052">
        <ele>287.57</ele>
        <time>2019-10-31T11:33:19Z</time>
      </trkpt>
      <trkpt lat="44.19147" lon="1.97906">
        <ele>290.784</ele>
        <time>2019-10-31T11:32:59Z</time>
      </trkpt>
      <trkpt lat="44.19136" lon="1.9779">
        <ele>291.212</ele>
        <time>2019-10-31T11:32:39Z</time>
      </trkpt>
      <trkpt lat="44.19147" lon="1.97642">
        <ele>283.036</ele>
        <time>2019-10-31T11:32:19Z</time>
      </trkpt>
      <trkpt lat="44.19182" lon="1.97604">
        <ele>278.093</ele>
        <time>2019-10-31T11:31:59Z</time>
      </trkpt>
      <trkpt lat="44.19225" lon="1.97537">
        <ele>277.998</ele>
        <time>2019-10-31T11:31:39Z</time>
      </trkpt>
      <trkpt lat="44.19274" lon="1.97503">
        <ele>271.132</ele>
        <time>2019-10-31T11:31:19Z</time>
      </trkpt>
      <trkpt lat="44.19345" lon="1.97494">
        <ele>261.808</ele>
        <time>2019-10-31T11:30:59Z</time>
      </trkpt>
      <trkpt lat="44.19379" lon="1.97443">
        <ele>264.821</ele>
        <time>2019-10-31T11:30:39Z</time>
      </trkpt>
      <trkpt lat="44.19421" lon="1.97445">
        <ele>257.529</ele>
        <time>2019-10-31T11:30:19Z</time>
      </trkpt>
      <trkpt lat="44.19454" lon="1.97398">
        <ele>261.466</ele>
        <time>2019-10-31T11:29:59Z</time>
      </trkpt>
      <trkpt lat="44.19542" lon="1.97329">
        <ele>255.775</ele>
        <time>2019-10-31T11:29:39Z</time>
      </trkpt>
      <trkpt lat="44.19625" lon="1.9726">
        <ele>267.296</ele>
        <time>2019-10-31T11:29:19Z</time>
      </trkpt>
      <trkpt lat="44.19707" lon="1.97162">
        <ele>283.71</ele>
        <time>2019-10-31T11:28:59Z</time>
      </trkpt>
      <trkpt lat="44.1977" lon="1.97046">
        <ele>294.188</ele>
        <time>2019-10-31T11:28:39Z</time>
      </trkpt>
      <trkpt lat="44.1981" lon="1.96885">
        <ele>311.972</ele>
        <time>2019-10-31T11:28:19Z</time>
      </trkpt>
      <trkpt lat="44.19814" lon="1.96799">
        <ele>323.879</ele>
        <time>2019-10-31T11:27:59Z</time>
      </trkpt>
      <trkpt lat="44.19842" lon="1.96724">
        <ele>331.474</ele>
        <time>2019-10-31T11:27:39Z</time>
      </trkpt>
      <trkpt lat="44.19865" lon="1.96688">
        <ele>339.818</ele>
        <time>2019-10-31T11:27:19Z</time>
      </trkpt>
      <trkpt lat="44.19907" lon="1.96608">
        <ele>358.108</ele>
        <time>2019-10-31T11:26:59Z</time>
      </trkpt>
      <trkpt lat="44.19973" lon="1.96524">
        <ele>360.72</ele>
        <time>2019-10-31T11:26:39Z</time>
      </trkpt>
      <trkpt lat="44.19987" lon="1.96488">
        <ele>365.9</ele>
        <time>2019-10-31T11:26:19Z</time>
      </trkpt>
      <trkpt lat="44.20004" lon="1.96505">
        <ele>363.029</ele>
        <time>2019-10-31T11:25:59Z</time>
      </trkpt>
      <trkpt lat="44.20008" lon="1.96567">
        <ele>363.399</ele>
        <time>2019-10-31T11:25:39Z</time>
      </trkpt>
      <trkpt lat="44.20042" lon="1.96554">
        <ele>371.58</ele>
        <time>2019-10-31T11:25:19Z</time>
      </trkpt>
      <trkpt lat="44.20017" lon="1.96627">
        <ele>372.094</ele>
        <time>2019-10-31T11:24:59Z</time>
      </trkpt>
      <trkpt lat="44.20014" lon="1.96694">
        <ele>374.692</ele>
        <time>2019-10-31T11:24:39Z</time>
      </trkpt>
      <trkpt lat="44.19991" lon="1.96829">
        <ele>380.516</ele>
        <time>2019-10-31T11:24:19Z</time>
      </trkpt>
      <trkpt lat="44.19988" lon="1.96911">
        <ele>380.443</ele>
        <time>2019-10-31T11:23:59Z</time>
      </trkpt>
      <trkpt lat="44.20014" lon="1.96958">
        <ele>383.618</ele>
        <time>2019-10-31T11:23:39Z</time>
      </trkpt>
      <trkpt lat="44.20061" lon="1.96909">
        <ele>392.632</ele>
        <time>2019-10-31T11:23:19Z</time>
      </trkpt>
      <trkpt lat="44.20062" lon="1.96863">
        <ele>396.308</ele>
        <time>2019-10-31T11:22:59Z</time>
      </trkpt>
      <trkpt lat="44.20084" lon="1.96803">
        <ele>396.926</ele>
        <time>2019-10-31T11:22:39Z</time>
      </trkpt>
      <trkpt lat="44.20156" lon="1.96739">
        <ele>400.142</ele>
        <time>2019-10-31T11:22:19Z</time>
      </trkpt>
      <trkpt lat="44.20202" lon="1.96649">
        <ele>400.168</ele>
        <time>2019-10-31T11:21:59Z</time>
      </trkpt>
      <trkpt lat="44.20344" lon="1.9652">
        <ele>398.317</ele>
        <time>2019-10-31T11:21:39Z</time>
      </trkpt>
      <trkpt lat="44.20411" lon="1.96484">
        <ele>398.718</ele>
        <time>2019-10-31T11:21:19Z</time>
      </trkpt>
      <trkpt lat="44.20434" lon="1.96434">
        <ele>395.162</ele>
        <time>2019-10-31T11:20:59Z</time>
      </trkpt>
      <trkpt lat="44.20474" lon="1.96419">
        <ele>392.88</ele>
        <time>2019-10-31T11:20:39Z</time>
      </trkpt>
      <trkpt lat="44.20502" lon="1.96372">
        <ele>389.784</ele>
        <time>2019-10-31T11:20:19Z</time>
      </trkpt>
      <trkpt lat="44.20502" lon="1.9646">
        <ele>389.011</ele>
        <time>2019-10-31T11:19:59Z</time>
      </trkpt>
      <trkpt lat="44.20527" lon="1.96554">
        <ele>383.116</ele>
        <time>2019-10-31T11:19:39Z</time>
      </trkpt>
      <trkpt lat="44.20602" lon="1.966">
        <ele>381.82</ele>
        <time>2019-10-31T11:19:19Z</time>
      </trkpt>
      <trkpt lat="44.20697" lon="1.9676">
        <ele>381.008</ele>
        <time>2019-10-31T11:18:59Z</time>
      </trkpt>
      <trkpt lat="44.20744" lon="1.96818">
        <ele>382.414</ele>
        <time>2019-10-31T11:18:39Z</time>
      </trkpt>
      <trkpt lat="44.20854" lon="1.97012">
        <ele>374.722</ele>
        <time>2019-10-31T11:18:19Z</time>
      </trkpt>
      <trkpt lat="44.20931" lon="1.97037">
        <ele>375.042</ele>
        <time>2019-10-31T11:17:59Z</time>
      </trkpt>
      <trkpt lat="44.20977" lon="1.97074">
        <ele>375.297</ele>
        <time>2019-10-31T11:17:39Z</time>
      </trkpt>
      <trkpt lat="44.21022" lon="1.97136">
        <ele>375.418</ele>
        <time>2019-10-31T11:17:19Z</time>
      </trkpt>
      <trkpt lat="44.21051" lon="1.97194">
        <ele>374.152</ele>
        <time>2019-10-31T11:16:59Z</time>
      </trkpt>
      <trkpt lat="44.21087" lon="1.972">
        <ele>374.76</ele>
        <time>2019-10-31T11:16:39Z</time>
      </trkpt>
      <trkpt lat="44.21123" lon="1.97181">
        <ele>371.344</ele>
        <time>2019-10-31T11:16:19Z</time>
      </trkpt>
      <trkpt lat="44.21236" lon="1.97082">
        <ele>356.131</ele>
        <time>2019-10-31T11:15:59Z</time>
      </trkpt>
      <trkpt lat="44.21246" lon="1.96994">
        <ele>348.766</ele>
        <time>2019-10-31T11:15:39Z</time>
      </trkpt>
      <trkpt lat="44.21268" lon="1.97022">
        <ele>344.09</ele>
        <time>2019-10-31T11:15:19Z</time>
      </trkpt>
      <trkpt lat="44.21265" lon="1.96966">
        <ele>337.608</ele>
        <time>2019-10-31T11:14:59Z</time>
      </trkpt>
      <trkpt lat="44.21239" lon="1.96889">
        <ele>329.317</ele>
        <time>2019-10-31T11:14:39Z</time>
      </trkpt>
      <trkpt lat="44.21274" lon="1.96917">
        <ele>323.661</ele>
        <time>2019-10-31T11:14:19Z</time>
      </trkpt>
      <trkpt lat="44.2126" lon="1.96848">
        <ele>306.748</ele>
        <time>2019-10-31T11:13:59Z</time>
      </trkpt>
      <trkpt lat="44.21206" lon="1.96724">
        <ele>281.835</ele>
        <time>2019-10-31T11:13:39Z</time>
      </trkpt>
      <trkpt lat="44.21166" lon="1.96664">
        <ele>275.796</ele>
        <time>2019-10-31T11:13:19Z</time>
      </trkpt>
      <trkpt lat="44.21039" lon="1.96546">
        <ele>262.84</ele>
        <time>2019-10-31T11:12:59Z</time>
      </trkpt>
      <trkpt lat="44.21027" lon="1.96503">
        <ele>260.618</ele>
        <time>2019-10-31T11:12:39Z</time>
      </trkpt>
      <trkpt lat="44.21036" lon="1.96486">
        <ele>256.312</ele>
        <time>2019-10-31T11:12:19Z</time>
      </trkpt>
      <trkpt lat="44.21093" lon="1.9649">
        <ele>242.539</ele>
        <time>2019-10-31T11:11:59Z</time>
      </trkpt>
      <trkpt lat="44.21142" lon="1.96443">
        <ele>228.724</ele>
        <time>2019-10-31T11:11:39Z</time>
      </trkpt>
      <trkpt lat="44.21242" lon="1.96411">
        <ele>199.658</ele>
        <time>2019-10-31T11:11:19Z</time>
      </trkpt>
      <trkpt lat="44.21256" lon="1.9634">
        <ele>207.708</ele>
        <time>2019-10-31T11:10:59Z</time>
      </trkpt>
      <trkpt lat="44.21313" lon="1.96245">
        <ele>203.311</ele>
        <time>2019-10-31T11:10:39Z</time>
      </trkpt>
      <trkpt lat="44.21388" lon="1.96164">
        <ele>208.883</ele>
        <time>2019-10-31T11:10:19Z</time>
      </trkpt>
      <trkpt lat="44.2152" lon="1.96117">
        <ele>200.123</ele>
        <time>2019-10-31T11:09:59Z</time>
      </trkpt>
      <trkpt lat="44.21582" lon="1.96087">
        <ele>200.522</ele>
        <time>2019-10-31T11:09:39Z</time>
      </trkpt>
      <trkpt lat="44.21606" lon="1.96087">
        <ele>199.833</ele>
        <time>2019-10-31T11:09:19Z</time>
      </trkpt>
      <trkpt lat="44.21617" lon="1.96162">
        <ele>194.257</ele>
        <time>2019-10-31T11:08:59Z</time>
      </trkpt>
      <trkpt lat="44.21589" lon="1.96265">
        <ele>198.875</ele>
        <time>2019-10-31T11:08:39Z</time>
      </trkpt>
      <trkpt lat="44.21588" lon="1.9631">
        <ele>203.469</ele>
        <time>2019-10-31T11:08:19Z</time>
      </trkpt>
      <trkpt lat="44.21554" lon="1.96361">
        <ele>206.716</ele>
        <time>2019-10-31T11:07:59Z</time>
      </trkpt>
      <trkpt lat="44.21537" lon="1.96424">
        <ele>209.981</ele>
        <time>2019-10-31T11:07:39Z</time>
      </trkpt>
      <trkpt lat="44.21543" lon="1.96469">
        <ele>215.215</ele>
        <time>2019-10-31T11:07:19Z</time>
      </trkpt>
      <trkpt lat="44.21602" lon="1.96597">
        <ele>234.308</ele>
        <time>2019-10-31T11:06:59Z</time>
      </trkpt>
      <trkpt lat="44.21702" lon="1.96739">
        <ele>253.225</ele>
        <time>2019-10-31T11:06:39Z</time>
      </trkpt>
      <trkpt lat="44.21759" lon="1.96889">
        <ele>274.023</ele>
        <time>2019-10-31T11:06:19Z</time>
      </trkpt>
      <trkpt lat="44.21765" lon="1.96924">
        <ele>278.697</ele>
        <time>2019-10-31T11:05:59Z</time>
      </trkpt>
      <trkpt lat="44.21745" lon="1.96981">
        <ele>287.867</ele>
        <time>2019-10-31T11:05:39Z</time>
      </trkpt>
      <trkpt lat="44.21768" lon="1.97063">
        <ele>300.598</ele>
        <time>2019-10-31T11:05:19Z</time>
      </trkpt>
      <trkpt lat="44.21772" lon="1.97241">
        <ele>315.492</ele>
        <time>2019-10-31T11:04:59Z</time>
      </trkpt>
      <trkpt lat="44.21799" lon="1.97286">
        <ele>329.28</ele>
        <time>2019-10-31T11:04:39Z</time>
      </trkpt>
      <trkpt lat="44.21855" lon="1.97466">
        <ele>323.824</ele>
        <time>2019-10-31T11:04:19Z</time>
      </trkpt>
      <trkpt lat="44.21879" lon="1.97529">
        <ele>312.511</ele>
        <time>2019-10-31T11:03:59Z</time>
      </trkpt>
      <trkpt lat="44.21875" lon="1.97569">
        <ele>306.666</ele>
        <time>2019-10-31T11:03:39Z</time>
      </trkpt>
      <trkpt lat="44.21882" lon="1.97608">
        <ele>303.58</ele>
        <time>2019-10-31T11:03:19Z</time>
      </trkpt>
      <trkpt lat="44.21903" lon="1.97612">
        <ele>304.408</ele>
        <time>2019-10-31T11:02:59Z</time>
      </trkpt>
      <trkpt lat="44.21922" lon="1.97672">
        <ele>301.721</ele>
        <time>2019-10-31T11:02:39Z</time>
      </trkpt>
      <trkpt lat="44.2192" lon="1.97694">
        <ele>302.529</ele>
        <time>2019-10-31T11:02:19Z</time>
      </trkpt>
      <trkpt lat="44.21928" lon="1.9773">
        <ele>300.347</ele>
        <time>2019-10-31T11:01:59Z</time>
      </trkpt>
      <trkpt lat="44.22012" lon="1.97893">
        <ele>319.371</ele>
        <time>2019-10-31T11:01:39Z</time>
      </trkpt>
      <trkpt lat="44.22043" lon="1.97904">
        <ele>321.782</ele>
        <time>2019-10-31T11:01:19Z</time>
      </trkpt>
      <trkpt lat="44.22062" lon="1.97928">
        <ele>325.126</ele>
        <time>2019-10-31T11:00:59Z</time>
      </trkpt>
      <trkpt lat="44.22095" lon="1.97928">
        <ele>313.014</ele>
        <time>2019-10-31T11:00:39Z</time>
      </trkpt>
      <trkpt lat="44.22031" lon="1.97848">
        <ele>310.748</ele>
        <time>2019-10-31T11:00:19Z</time>
      </trkpt>
      <trkpt lat="44.21959" lon="1.97614">
        <ele>280.845</ele>
        <time>2019-10-31T10:59:59Z</time>
      </trkpt>
      <trkpt lat="44.21959" lon="1.97527">
        <ele>272.86</ele>
        <time>2019-10-31T10:59:39Z</time>
      </trkpt>
      <trkpt lat="44.22048" lon="1.97213">
        <ele>204.934</ele>
        <time>2019-10-31T10:59:19Z</time>
      </trkpt>
      <trkpt lat="44.22126" lon="1.97239">
        <ele>205.008</ele>
        <time>2019-10-31T10:58:59Z</time>
      </trkpt>
      <trkpt lat="44.22129" lon="1.97351">
        <ele>209.717</ele>
        <time>2019-10-31T10:58:39Z</time>
      </trkpt>
      <trkpt lat="44.22102" lon="1.97486">
        <ele>204.907</ele>
        <time>2019-10-31T10:58:19Z</time>
      </trkpt>
      <trkpt lat="44.22099" lon="1.97552">
        <ele>204.984</ele>
        <time>2019-10-31T10:57:59Z</time>
      </trkpt>
      <trkpt lat="44.22113" lon="1.97596">
        <ele>208.771</ele>
        <time>2019-10-31T10:57:39Z</time>
      </trkpt>
      <trkpt lat="44.22146" lon="1.97625">
        <ele>207.662</ele>
        <time>2019-10-31T10:57:19Z</time>
      </trkpt>
      <trkpt lat="44.22189" lon="1.97646">
        <ele>206.486</ele>
        <time>2019-10-31T10:56:59Z</time>
      </trkpt>
      <trkpt lat="44.22234" lon="1.97662">
        <ele>207.524</ele>
        <time>2019-10-31T10:56:39Z</time>
      </trkpt>
      <trkpt lat="44.22283" lon="1.97695">
        <ele>209.088</ele>
        <time>2019-10-31T10:56:19Z</time>
      </trkpt>
      <trkpt lat="44.22324" lon="1.97748">
        <ele>207.855</ele>
        <time>2019-10-31T10:55:59Z</time>
      </trkpt>
      <trkpt lat="44.22392" lon="1.97887">
        <ele>201.03</ele>
        <time>2019-10-31T10:55:39Z</time>
      </trkpt>
      <trkpt lat="44.22436" lon="1.98026">
        <ele>208.944</ele>
        <time>2019-10-31T10:55:19Z</time>
      </trkpt>
      <trkpt lat="44.22462" lon="1.98088">
        <ele>204.708</ele>
        <time>2019-10-31T10:54:59Z</time>
      </trkpt>
      <trkpt lat="44.22484" lon="1.98189">
        <ele>201.126</ele>
        <time>2019-10-31T10:54:39Z</time>
      </trkpt>
      <trkpt lat="44.22532" lon="1.98231">
        <ele>215.006</ele>
        <time>2019-10-31T10:54:19Z</time>
      </trkpt>
      <trkpt lat="44.22566" lon="1.98296">
        <ele>224.489</ele>
        <time>2019-10-31T10:53:59Z</time>
      </trkpt>
      <trkpt lat="44.22587" lon="1.98415">
        <ele>234.282</ele>
        <time>2019-10-31T10:53:39Z</time>
      </trkpt>
      <trkpt lat="44.22629" lon="1.98513">
        <ele>241.343</ele>
        <time>2019-10-31T10:53:19Z</time>
      </trkpt>
      <trkpt lat="44.22662" lon="1.98443">
        <ele>235.047</ele>
        <time>2019-10-31T10:52:59Z</time>
      </trkpt>
      <trkpt lat="44.22681" lon="1.98357">
        <ele>248.325</ele>
        <time>2019-10-31T10:52:39Z</time>
      </trkpt>
      <trkpt lat="44.2271" lon="1.98291">
        <ele>271.629</ele>
        <time>2019-10-31T10:52:19Z</time>
      </trkpt>
      <trkpt lat="44.22811" lon="1.98282">
        <ele>247.946</ele>
        <time>2019-10-31T10:51:59Z</time>
      </trkpt>
      <trkpt lat="44.22907" lon="1.983">
        <ele>218.061</ele>
        <time>2019-10-31T10:51:39Z</time>
      </trkpt>
      <trkpt lat="44.22973" lon="1.98326">
        <ele>226.865</ele>
        <time>2019-10-31T10:51:19Z</time>
      </trkpt>
      <trkpt lat="44.23035" lon="1.9837">
        <ele>237.508</ele>
        <time>2019-10-31T10:50:59Z</time>
      </trkpt>
      <trkpt lat="44.23075" lon="1.98456">
        <ele>229.224</ele>
        <time>2019-10-31T10:50:39Z</time>
      </trkpt>
      <trkpt lat="44.23044" lon="1.98505">
        <ele>218.231</ele>
        <time>2020-12-26T17:07:55Z</time>
      </trkpt>
      <trkpt lat="44.23027" lon="1.98576">
        <ele>218.596</ele>
        <time>2020-12-26T17:07:35Z</time>
      </trkpt>
      <trkpt lat="44.23043" lon="1.98653">
        <ele>215.719</ele>
        <time>2020-12-26T17:07:15Z</time>
      </trkpt>
      <trkpt lat="44.23067" lon="1.98692">
        <ele>215.08</ele>
        <time>2020-12-26T17:06:55Z</time>
      </trkpt>
      <trkpt lat="44.2314" lon="1.98693">
        <ele>216.664</ele>
        <time>2020-12-26T17:06:35Z</time>
      </trkpt>
      <trkpt lat="44.23184" lon="1.98654">
        <ele>218.452</ele>
        <time>2019-10-31T10:48:39Z</time>
      </trkpt>
      <trkpt lat="44.23213" lon="1.98609">
        <ele>224.246</ele>
        <time>2019-10-31T10:48:19Z</time>
      </trkpt>
      <trkpt lat="44.23344" lon="1.98492">
        <ele>219.673</ele>
        <time>2019-10-31T10:47:59Z</time>
      </trkpt>
      <trkpt lat="44.23328" lon="1.98484">
        <ele>225.828</ele>
        <time>2019-10-31T10:47:39Z</time>
      </trkpt>
      <trkpt lat="44.23331" lon="1.98467">
        <ele>233.482</ele>
        <time>2019-10-31T10:47:19Z</time>
      </trkpt>
      <trkpt lat="44.23454" lon="1.98417">
        <ele>227.808</ele>
        <time>2019-10-31T10:46:59Z</time>
      </trkpt>
      <trkpt lat="44.23501" lon="1.9841">
        <ele>222.318</ele>
        <time>2019-10-31T10:46:39Z</time>
      </trkpt>
      <trkpt lat="44.23525" lon="1.98399">
        <ele>227.544</ele>
        <time>2019-10-31T10:46:19Z</time>
      </trkpt>
      <trkpt lat="44.23573" lon="1.98283">
        <ele>253.763</ele>
        <time>2019-10-31T10:45:59Z</time>
      </trkpt>
      <trkpt lat="44.23556" lon="1.9828">
        <ele>257.799</ele>
        <time>2019-10-31T10:45:39Z</time>
      </trkpt>
      <trkpt lat="44.23592" lon="1.98191">
        <ele>263.58</ele>
        <time>2019-10-31T10:45:19Z</time>
      </trkpt>
      <trkpt lat="44.23641" lon="1.98137">
        <ele>257.394</ele>
        <time>2019-10-31T10:44:59Z</time>
      </trkpt>
      <trkpt lat="44.23697" lon="1.98065">
        <ele>254.972</ele>
        <time>2019-10-31T10:44:39Z</time>
      </trkpt>
      <trkpt lat="44.23739" lon="1.97974">
        <ele>257.836</ele>
        <time>2019-10-31T10:44:19Z</time>
      </trkpt>
      <trkpt lat="44.23814" lon="1.98049">
        <ele>259.783</ele>
        <time>2019-10-31T10:43:59Z</time>
      </trkpt>
      <trkpt lat="44.23866" lon="1.98059">
        <ele>268.668</ele>
        <time>2019-10-31T10:43:39Z</time>
      </trkpt>
      <trkpt lat="44.2389" lon="1.98083">
        <ele>277.032</ele>
        <time>2019-10-31T10:43:19Z</time>
      </trkpt>
      <trkpt lat="44.23892" lon="1.98127">
        <ele>284.108</ele>
        <time>2019-10-31T10:42:59Z</time>
      </trkpt>
      <trkpt lat="44.23869" lon="1.98168">
        <ele>292.211</ele>
        <time>2019-10-31T10:42:39Z</time>
      </trkpt>
      <trkpt lat="44.23866" lon="1.98225">
        <ele>307.083</ele>
        <time>2019-10-31T10:42:19Z</time>
      </trkpt>
      <trkpt lat="44.23831" lon="1.98287">
        <ele>313.762</ele>
        <time>2019-10-31T10:41:59Z</time>
      </trkpt>
      <trkpt lat="44.23834" lon="1.98306">
        <ele>320.299</ele>
        <time>2019-10-31T10:41:39Z</time>
      </trkpt>
      <trkpt lat="44.23875" lon="1.98334">
        <ele>332.65</ele>
        <time>2019-10-31T10:41:19Z</time>
      </trkpt>
      <trkpt lat="44.23866" lon="1.9837">
        <ele>337.054</ele>
        <time>2019-10-31T10:40:59Z</time>
      </trkpt>
      <trkpt lat="44.23976" lon="1.98649">
        <ele>362.852</ele>
        <time>2019-10-31T10:40:39Z</time>
      </trkpt>
      <trkpt lat="44.23985" lon="1.98765">
        <ele>362.826</ele>
        <time>2019-10-31T10:40:19Z</time>
      </trkpt>
      <trkpt lat="44.24" lon="1.98818">
        <ele>365.143</ele>
        <time>2019-10-31T10:39:59Z</time>
      </trkpt>
      <trkpt lat="44.24012" lon="1.98818">
        <ele>366.558</ele>
        <time>2019-10-31T10:39:39Z</time>
      </trkpt>
      <trkpt lat="44.2401" lon="1.98774">
        <ele>371.432</ele>
        <time>2019-10-31T10:39:19Z</time>
      </trkpt>
      <trkpt lat="44.24023" lon="1.98737">
        <ele>377.308</ele>
        <time>2019-10-31T10:38:59Z</time>
      </trkpt>
      <trkpt lat="44.24044" lon="1.98763">
        <ele>379.826</ele>
        <time>2019-10-31T10:38:39Z</time>
      </trkpt>
      <trkpt lat="44.24072" lon="1.98747">
        <ele>385.242</ele>
        <time>2019-10-31T10:38:19Z</time>
      </trkpt>
      <trkpt lat="44.24152" lon="1.98718">
        <ele>392.468</ele>
        <time>2019-10-31T10:37:59Z</time>
      </trkpt>
      <trkpt lat="44.24179" lon="1.98693">
        <ele>397.488</ele>
        <time>2019-10-31T10:37:39Z</time>
      </trkpt>
      <trkpt lat="44.24204" lon="1.98692">
        <ele>398.029</ele>
        <time>2019-10-31T10:37:19Z</time>
      </trkpt>
      <trkpt lat="44.2425" lon="1.98709">
        <ele>394.543</ele>
        <time>2019-10-31T10:36:59Z</time>
      </trkpt>
      <trkpt lat="44.24375" lon="1.98784">
        <ele>399.571</ele>
        <time>2019-10-31T10:36:39Z</time>
      </trkpt>
      <trkpt lat="44.24471" lon="1.98872">
        <ele>412.225</ele>
        <time>2019-10-31T10:36:19Z</time>
      </trkpt>
      <trkpt lat="44.24659" lon="1.989">
        <ele>419.562</ele>
        <time>2019-10-31T10:35:59Z</time>
      </trkpt>
      <trkpt lat="44.24723" lon="1.98918">
        <ele>423.197</ele>
        <time>2019-10-31T10:35:39Z</time>
      </trkpt>
      <trkpt lat="44.24773" lon="1.98901">
        <ele>424.071</ele>
        <time>2019-10-31T10:35:19Z</time>
      </trkpt>
      <trkpt lat="44.2495" lon="1.98748">
        <ele>433.108</ele>
        <time>2019-10-31T10:34:59Z</time>
      </trkpt>
      <trkpt lat="44.24981" lon="1.98698">
        <ele>433.514</ele>
        <time>2019-10-31T10:34:39Z</time>
      </trkpt>
      <trkpt lat="44.2502" lon="1.98552">
        <ele>430.804</ele>
        <time>2019-10-31T10:34:19Z</time>
      </trkpt>
      <trkpt lat="44.25025" lon="1.9848">
        <ele>429.453</ele>
        <time>2019-10-31T10:33:59Z</time>
      </trkpt>
      <trkpt lat="44.25108" lon="1.98412">
        <ele>428.951</ele>
        <time>2019-10-31T10:33:39Z</time>
      </trkpt>
      <trkpt lat="44.25152" lon="1.98387">
        <ele>431.532</ele>
        <time>2019-10-31T10:33:19Z</time>
      </trkpt>
      <trkpt lat="44.25183" lon="1.98329">
        <ele>439.136</ele>
        <time>2019-10-31T10:32:59Z</time>
      </trkpt>
      <trkpt lat="44.25237" lon="1.98293">
        <ele>446.774</ele>
        <time>2019-10-31T10:32:39Z</time>
      </trkpt>
      <trkpt lat="44.25302" lon="1.9828">
        <ele>458.098</ele>
        <time>2019-10-31T10:32:19Z</time>
      </trkpt>
      <trkpt lat="44.25342" lon="1.98329">
        <ele>452.265</ele>
        <time>2019-10-31T10:31:59Z</time>
      </trkpt>
      <trkpt lat="44.25437" lon="1.98365">
        <ele>455.02</ele>
        <time>2019-10-31T10:31:39Z</time>
      </trkpt>
      <trkpt lat="44.25486" lon="1.98417">
        <ele>452.554</ele>
        <time>2019-10-31T10:31:19Z</time>
      </trkpt>
      <trkpt lat="44.25527" lon="1.98482">
        <ele>447.308</ele>
        <time>2019-10-31T10:30:59Z</time>
      </trkpt>
      <trkpt lat="44.25598" lon="1.98532">
        <ele>451.926</ele>
        <time>2019-10-31T10:30:39Z</time>
      </trkpt>
      <trkpt lat="44.2562" lon="1.98495">
        <ele>450.042</ele>
        <time>2019-10-31T10:30:19Z</time>
      </trkpt>
      <trkpt lat="44.25692" lon="1.98513">
        <ele>444.087</ele>
        <time>2019-10-31T10:29:59Z</time>
      </trkpt>
      <trkpt lat="44.25747" lon="1.98552">
        <ele>447.311</ele>
        <time>2019-10-31T10:29:39Z</time>
      </trkpt>
      <trkpt lat="44.25799" lon="1.9854">
        <ele>441.412</ele>
        <time>2019-10-31T10:29:19Z</time>
      </trkpt>
      <trkpt lat="44.25887" lon="1.98496">
        <ele>433.776</ele>
        <time>2019-10-31T10:28:59Z</time>
      </trkpt>
      <trkpt lat="44.25908" lon="1.98521">
        <ele>433.164</ele>
        <time>2019-10-31T10:28:39Z</time>
      </trkpt>
      <trkpt lat="44.25904" lon="1.9857">
        <ele>431.048</ele>
        <time>2019-10-31T10:28:19Z</time>
      </trkpt>
      <trkpt lat="44.25862" lon="1.98607">
        <ele>437.065</ele>
        <time>2019-10-31T10:27:59Z</time>
      </trkpt>
      <trkpt lat="44.25861" lon="1.98665">
        <ele>432.14</ele>
        <time>2019-10-31T10:27:39Z</time>
      </trkpt>
      <trkpt lat="44.2587" lon="1.98828">
        <ele>428.814</ele>
        <time>2019-10-31T10:27:19Z</time>
      </trkpt>
      <trkpt lat="44.25897" lon="1.98953">
        <ele>424.908</ele>
        <time>2019-10-31T10:26:59Z</time>
      </trkpt>
      <trkpt lat="44.25925" lon="1.99007">
        <ele>421.926</ele>
        <time>2019-10-31T10:26:39Z</time>
      </trkpt>
      <trkpt lat="44.25943" lon="1.99087">
        <ele>418.142</ele>
        <time>2019-10-31T10:26:19Z</time>
      </trkpt>
      <trkpt lat="44.25952" lon="1.99105">
        <ele>416.187</ele>
        <time>2019-10-31T10:25:59Z</time>
      </trkpt>
      <trkpt lat="44.25968" lon="1.99152">
        <ele>411.67</ele>
        <time>2019-10-31T10:25:39Z</time>
      </trkpt>
      <trkpt lat="44.25999" lon="1.99153">
        <ele>410.131</ele>
        <time>2019-10-31T10:25:19Z</time>
      </trkpt>
      <trkpt lat="44.26" lon="1.99092">
        <ele>408.495</ele>
        <time>2019-10-31T10:24:59Z</time>
      </trkpt>
      <trkpt lat="44.25983" lon="1.99005">
        <ele>405.613</ele>
        <time>2019-10-31T10:24:39Z</time>
      </trkpt>
      <trkpt lat="44.26025" lon="1.98781">
        <ele>379.747</ele>
        <time>2019-10-31T10:24:19Z</time>
      </trkpt>
      <trkpt lat="44.26044" lon="1.98854">
        <ele>374.474</ele>
        <time>2019-10-31T10:23:59Z</time>
      </trkpt>
      <trkpt lat="44.2608" lon="1.9894">
        <ele>368.649</ele>
        <time>2019-10-31T10:23:39Z</time>
      </trkpt>
      <trkpt lat="44.26115" lon="1.98931">
        <ele>362.463</ele>
        <time>2019-10-31T10:23:19Z</time>
      </trkpt>
      <trkpt lat="44.26171" lon="1.98927">
        <ele>352.108</ele>
        <time>2019-10-31T10:22:59Z</time>
      </trkpt>
      <trkpt lat="44.26233" lon="1.98905">
        <ele>341.226</ele>
        <time>2019-10-31T10:22:39Z</time>
      </trkpt>
      <trkpt lat="44.26269" lon="1.98906">
        <ele>340.333</ele>
        <time>2019-10-31T10:22:19Z</time>
      </trkpt>
      <trkpt lat="44.26332" lon="1.98898">
        <ele>330.278</ele>
        <time>2019-10-31T10:21:59Z</time>
      </trkpt>
      <trkpt lat="44.26358" lon="1.98908">
        <ele>326.851</ele>
        <time>2019-10-31T10:21:39Z</time>
      </trkpt>
      <trkpt lat="44.26498" lon="1.99079">
        <ele>292.122</ele>
        <time>2019-10-31T10:21:19Z</time>
      </trkpt>
      <trkpt lat="44.26502" lon="1.99126">
        <ele>285.586</ele>
        <time>2019-10-31T10:20:59Z</time>
      </trkpt>
      <trkpt lat="44.26535" lon="1.99214">
        <ele>271.094</ele>
        <time>2019-10-31T10:20:39Z</time>
      </trkpt>
      <trkpt lat="44.26542" lon="1.99279">
        <ele>265.288</ele>
        <time>2019-10-31T10:20:19Z</time>
      </trkpt>
      <trkpt lat="44.26531" lon="1.99337">
        <ele>257.135</ele>
        <time>2019-10-31T10:19:59Z</time>
      </trkpt>
      <trkpt lat="44.26556" lon="1.99376">
        <ele>250.47</ele>
        <time>2019-10-31T10:19:39Z</time>
      </trkpt>
      <trkpt lat="44.26596" lon="1.995">
        <ele>242.124</ele>
        <time>2019-10-31T10:19:19Z</time>
      </trkpt>
      <trkpt lat="44.26598" lon="1.99545">
        <ele>240.608</ele>
        <time>2019-10-31T10:18:59Z</time>
      </trkpt>
      <trkpt lat="44.26634" lon="1.99568">
        <ele>237.717</ele>
        <time>2019-10-31T10:18:39Z</time>
      </trkpt>
      <trkpt lat="44.26675" lon="1.9962">
        <ele>237.025</ele>
        <time>2019-10-31T10:18:19Z</time>
      </trkpt>
      <trkpt lat="44.2669" lon="1.9966">
        <ele>236.183</ele>
        <time>2020-12-26T16:35:35Z</time>
      </trkpt>
      <trkpt lat="44.267" lon="1.99726">
        <ele>236.01</ele>
        <time>2020-12-26T16:35:15Z</time>
      </trkpt>
      <trkpt lat="44.26725" lon="1.99673">
        <ele>236.061</ele>
        <time>2020-12-26T16:34:55Z</time>
      </trkpt>
      <trkpt lat="44.26759" lon="1.99667">
        <ele>235.615</ele>
        <time>2020-12-26T16:34:35Z</time>
      </trkpt>
      <trkpt lat="44.26767" lon="1.99637">
        <ele>235.283</ele>
        <time>2020-12-26T16:34:15Z</time>
      </trkpt>
      <trkpt lat="44.27029" lon="1.9963">
        <ele>243.657</ele>
        <time>2020-12-26T16:33:55Z</time>
      </trkpt>
      <trkpt lat="44.27079" lon="1.99583">
        <ele>256.734</ele>
        <time>2019-10-31T10:16:19Z</time>
      </trkpt>
      <trkpt lat="44.2712" lon="1.99518">
        <ele>264.459</ele>
        <time>2019-10-31T10:15:59Z</time>
      </trkpt>
      <trkpt lat="44.27137" lon="1.99508">
        <ele>266.363</ele>
        <time>2019-10-31T10:15:39Z</time>
      </trkpt>
      <trkpt lat="44.27137" lon="1.99487">
        <ele>268.708</ele>
        <time>2019-10-31T10:15:19Z</time>
      </trkpt>
      <trkpt lat="44.27178" lon="1.99487">
        <ele>275.315</ele>
        <time>2019-10-31T10:14:59Z</time>
      </trkpt>
      <trkpt lat="44.27178" lon="1.99448">
        <ele>279.541</ele>
        <time>2019-10-31T10:14:39Z</time>
      </trkpt>
      <trkpt lat="44.27273" lon="1.99353">
        <ele>297.771</ele>
        <time>2019-10-31T10:14:19Z</time>
      </trkpt>
      <trkpt lat="44.27305" lon="1.99301">
        <ele>309.078</ele>
        <time>2019-10-31T10:13:59Z</time>
      </trkpt>
      <trkpt lat="44.27298" lon="1.9924">
        <ele>320.169</ele>
        <time>2019-10-31T10:13:39Z</time>
      </trkpt>
      <trkpt lat="44.27304" lon="1.99209">
        <ele>323.173</ele>
        <time>2019-10-31T10:13:19Z</time>
      </trkpt>
      <trkpt lat="44.27321" lon="1.99187">
        <ele>326.171</ele>
        <time>2019-10-31T10:12:59Z</time>
      </trkpt>
      <trkpt lat="44.2732" lon="1.99137">
        <ele>336.295</ele>
        <time>2019-10-31T10:12:39Z</time>
      </trkpt>
      <trkpt lat="44.27335" lon="1.99083">
        <ele>340.992</ele>
        <time>2019-10-31T10:12:19Z</time>
      </trkpt>
      <trkpt lat="44.27397" lon="1.99077">
        <ele>342.187</ele>
        <time>2019-10-31T10:11:59Z</time>
      </trkpt>
      <trkpt lat="44.27385" lon="1.99023">
        <ele>347.591</ele>
        <time>2019-10-31T10:11:39Z</time>
      </trkpt>
      <trkpt lat="44.2742" lon="1.99013">
        <ele>348.708</ele>
        <time>2019-10-31T10:11:19Z</time>
      </trkpt>
      <trkpt lat="44.2744" lon="1.98989">
        <ele>351.614</ele>
        <time>2019-10-31T10:10:59Z</time>
      </trkpt>
      <trkpt lat="44.27461" lon="1.98979">
        <ele>354.159</ele>
        <time>2019-10-31T10:10:39Z</time>
      </trkpt>
      <trkpt lat="44.27477" lon="1.98937">
        <ele>359.156</ele>
        <time>2019-10-31T10:10:19Z</time>
      </trkpt>
      <trkpt lat="44.27481" lon="1.98911">
        <ele>359.972</ele>
        <time>2019-10-31T10:09:59Z</time>
      </trkpt>
      <trkpt lat="44.27536" lon="1.98768">
        <ele>361.073</ele>
        <time>2019-10-31T10:09:39Z</time>
      </trkpt>
      <trkpt lat="44.27562" lon="1.98731">
        <ele>361.667</ele>
        <time>2019-10-31T10:09:19Z</time>
      </trkpt>
      <trkpt lat="44.27615" lon="1.98557">
        <ele>368.725</ele>
        <time>2019-10-31T10:08:59Z</time>
      </trkpt>
      <trkpt lat="44.27676" lon="1.98479">
        <ele>374.839</ele>
        <time>2019-10-31T10:08:39Z</time>
      </trkpt>
      <trkpt lat="44.27722" lon="1.98374">
        <ele>381.056</ele>
        <time>2019-10-31T10:08:19Z</time>
      </trkpt>
      <trkpt lat="44.27762" lon="1.98406">
        <ele>376.351</ele>
        <time>2019-10-31T10:07:59Z</time>
      </trkpt>
      <trkpt lat="44.27911" lon="1.98468">
        <ele>371.745</ele>
        <time>2019-10-31T10:07:39Z</time>
      </trkpt>
      <trkpt lat="44.27962" lon="1.98447">
        <ele>375.008</ele>
        <time>2019-10-31T10:07:19Z</time>
      </trkpt>
      <trkpt lat="44.27962" lon="1.98447">
        <ele>375.025</ele>
        <time>2019-10-31T10:06:59Z</time>
      </trkpt>
      <trkpt lat="44.28064" lon="1.98448">
        <ele>382.023</ele>
        <time>2019-10-31T10:06:39Z</time>
      </trkpt>
      <trkpt lat="44.28178" lon="1.98593">
        <ele>384.397</ele>
        <time>2019-10-31T10:06:19Z</time>
      </trkpt>
      <trkpt lat="44.28216" lon="1.98567">
        <ele>382.988</ele>
        <time>2019-10-31T10:05:59Z</time>
      </trkpt>
      <trkpt lat="44.28275" lon="1.98632">
        <ele>377.829</ele>
        <time>2019-10-31T10:05:39Z</time>
      </trkpt>
      <trkpt lat="44.28288" lon="1.98509">
        <ele>374.463</ele>
        <time>2019-10-31T10:05:19Z</time>
      </trkpt>
      <trkpt lat="44.28322" lon="1.98342">
        <ele>381.761</ele>
        <time>2019-10-31T10:04:59Z</time>
      </trkpt>
      <trkpt lat="44.2832" lon="1.98181">
        <ele>380.825</ele>
        <time>2019-10-31T10:04:39Z</time>
      </trkpt>
      <trkpt lat="44.28372" lon="1.98119">
        <ele>377.522</ele>
        <time>2019-10-31T10:04:19Z</time>
      </trkpt>
      <trkpt lat="44.28449" lon="1.98123">
        <ele>377.857</ele>
        <time>2019-10-31T10:03:59Z</time>
      </trkpt>
      <trkpt lat="44.2858" lon="1.98029">
        <ele>385.281</ele>
        <time>2019-10-31T10:03:39Z</time>
      </trkpt>
      <trkpt lat="44.28652" lon="1.98034">
        <ele>381.908</ele>
        <time>2019-10-31T10:03:19Z</time>
      </trkpt>
      <trkpt lat="44.28711" lon="1.97935">
        <ele>380.117</ele>
        <time>2019-10-31T10:02:59Z</time>
      </trkpt>
      <trkpt lat="44.28787" lon="1.97889">
        <ele>382.707</ele>
        <time>2019-10-31T10:02:39Z</time>
      </trkpt>
      <trkpt lat="44.28908" lon="1.97878">
        <ele>386.555</ele>
        <time>2019-10-31T10:02:19Z</time>
      </trkpt>
      <trkpt lat="44.28976" lon="1.97913">
        <ele>386.811</ele>
        <time>2019-10-31T10:01:59Z</time>
      </trkpt>
      <trkpt lat="44.29174" lon="1.97962">
        <ele>387.572</ele>
        <time>2019-10-31T10:01:39Z</time>
      </trkpt>
      <trkpt lat="44.29437" lon="1.98057">
        <ele>381.666</ele>
        <time>2019-10-31T10:01:19Z</time>
      </trkpt>
      <trkpt lat="44.2952" lon="1.98142">
        <ele>378.194</ele>
        <time>2019-10-31T10:00:59Z</time>
      </trkpt>
      <trkpt lat="44.29661" lon="1.98183">
        <ele>376.738</ele>
        <time>2019-10-31T10:00:39Z</time>
      </trkpt>
      <trkpt lat="44.29768" lon="1.98144">
        <ele>377.945</ele>
        <time>2019-10-31T10:00:19Z</time>
      </trkpt>
      <trkpt lat="44.29963" lon="1.9811">
        <ele>388.46</ele>
        <time>2019-10-31T09:59:59Z</time>
      </trkpt>
      <trkpt lat="44.30081" lon="1.98121">
        <ele>389.514</ele>
        <time>2019-10-31T09:59:39Z</time>
      </trkpt>
      <trkpt lat="44.30237" lon="1.98119">
        <ele>400.008</ele>
        <time>2016-06-09T17:29:37Z</time>
      </trkpt>
      <trkpt lat="44.30338" lon="1.98172">
        <ele>399.017</ele>
        <time>2016-06-09T17:29:17Z</time>
      </trkpt>
      <trkpt lat="44.30529" lon="1.98211">
        <ele>397.425</ele>
        <time>2016-06-09T17:28:57Z</time>
      </trkpt>
      <trkpt lat="44.30674" lon="1.98222">
        <ele>402.883</ele>
        <time>2016-06-09T17:28:17Z</time>
      </trkpt>
      <trkpt lat="44.30733" lon="1.98267">
        <ele>407.876</ele>
        <time>2016-06-09T17:27:57Z</time>
      </trkpt>
      <trkpt lat="44.3088" lon="1.98333">
        <ele>409.067</ele>
        <time>2016-06-09T17:25:57Z</time>
      </trkpt>
      <trkpt lat="44.30974" lon="1.98348">
        <ele>401.531</ele>
        <time>2016-06-09T17:24:57Z</time>
      </trkpt>
      <trkpt lat="44.31029" lon="1.98385">
        <ele>399.139</ele>
        <time>2016-06-09T17:24:37Z</time>
      </trkpt>
      <trkpt lat="44.3113" lon="1.98393">
        <ele>404.753</ele>
        <time>2016-06-09T17:24:17Z</time>
      </trkpt>
      <trkpt lat="44.3123" lon="1.98486">
        <ele>408.68</ele>
        <time>2016-06-09T17:23:57Z</time>
      </trkpt>
      <trkpt lat="44.31276" lon="1.98499">
        <ele>406.135</ele>
        <time>2016-06-09T17:23:17Z</time>
      </trkpt>
      <trkpt lat="44.31276" lon="1.98499">
        <ele>406.169</ele>
        <time>2016-06-09T17:22:57Z</time>
      </trkpt>
      <trkpt lat="44.3135" lon="1.98492">
        <ele>405.708</ele>
        <time>2016-06-09T17:22:37Z</time>
      </trkpt>
      <trkpt lat="44.31413" lon="1.98518">
        <ele>406.914</ele>
        <time>2016-06-09T17:22:17Z</time>
      </trkpt>
      <trkpt lat="44.31507" lon="1.98533">
        <ele>403.186</ele>
        <time>2016-06-09T17:21:57Z</time>
      </trkpt>
      <trkpt lat="44.31664" lon="1.98471">
        <ele>394.335</ele>
        <time>2016-06-09T17:21:17Z</time>
      </trkpt>
      <trkpt lat="44.31752" lon="1.9846">
        <ele>386.635</ele>
        <time>2016-06-09T17:19:37Z</time>
      </trkpt>
      <trkpt lat="44.3186" lon="1.98413">
        <ele>387.746</ele>
        <time>2016-06-09T17:19:17Z</time>
      </trkpt>
      <trkpt lat="44.32075" lon="1.98396">
        <ele>397.13</ele>
        <time>2016-06-09T17:18:57Z</time>
      </trkpt>
      <trkpt lat="44.32179" lon="1.9842">
        <ele>398.138</ele>
        <time>2016-06-09T17:18:37Z</time>
      </trkpt>
      <trkpt lat="44.32248" lon="1.98404">
        <ele>401.012</ele>
        <time>2016-06-09T17:18:17Z</time>
      </trkpt>
      <trkpt lat="44.32376" lon="1.98378">
        <ele>400.599</ele>
        <time>2016-06-09T17:17:57Z</time>
      </trkpt>
      <trkpt lat="44.32442" lon="1.98351">
        <ele>399.694</ele>
        <time>2016-06-09T17:17:37Z</time>
      </trkpt>
      <trkpt lat="44.32529" lon="1.98368">
        <ele>399.318</ele>
        <time>2016-06-09T17:17:17Z</time>
      </trkpt>
      <trkpt lat="44.32649" lon="1.9846">
        <ele>386.908</ele>
        <time>2016-06-09T17:16:57Z</time>
      </trkpt>
      <trkpt lat="44.32713" lon="1.98486">
        <ele>382.52</ele>
        <time>2016-06-09T17:16:37Z</time>
      </trkpt>
      <trkpt lat="44.32901" lon="1.98692">
        <ele>363.5</ele>
        <time>2016-06-09T17:16:17Z</time>
      </trkpt>
      <trkpt lat="44.32893" lon="1.98754">
        <ele>367.129</ele>
        <time>2016-06-09T17:15:57Z</time>
      </trkpt>
      <trkpt lat="44.32921" lon="1.98835">
        <ele>369.466</ele>
        <time>2016-06-09T17:15:17Z</time>
      </trkpt>
      <trkpt lat="44.3296" lon="1.98775">
        <ele>371.467</ele>
        <time>2016-06-09T17:14:57Z</time>
      </trkpt>
      <trkpt lat="44.33086" lon="1.98728">
        <ele>375.291</ele>
        <time>2016-06-09T17:14:37Z</time>
      </trkpt>
      <trkpt lat="44.33122" lon="1.9878">
        <ele>375.169</ele>
        <time>2016-06-09T17:13:57Z</time>
      </trkpt>
      <trkpt lat="44.33185" lon="1.99041">
        <ele>375.313</ele>
        <time>2016-06-09T17:13:37Z</time>
      </trkpt>
      <trkpt lat="44.33226" lon="1.9914">
        <ele>375.95</ele>
        <time>2016-06-09T17:13:17Z</time>
      </trkpt>
      <trkpt lat="44.33283" lon="1.99295">
        <ele>367.475</ele>
        <time>2016-06-09T17:12:57Z</time>
      </trkpt>
      <trkpt lat="44.333" lon="1.99436">
        <ele>362.399</ele>
        <time>2016-06-09T17:12:37Z</time>
      </trkpt>
      <trkpt lat="44.3334" lon="1.99574">
        <ele>355.108</ele>
        <time>2016-06-09T17:12:17Z</time>
      </trkpt>
      <trkpt lat="44.33347" lon="1.99674">
        <ele>353.218</ele>
        <time>2016-06-09T17:11:57Z</time>
      </trkpt>
      <trkpt lat="44.33383" lon="1.99801">
        <ele>353.917</ele>
        <time>2016-06-09T17:11:37Z</time>
      </trkpt>
      <trkpt lat="44.33422" lon="2.00031">
        <ele>352.436</ele>
        <time>2016-06-09T17:11:17Z</time>
      </trkpt>
      <trkpt lat="44.33419" lon="2.00134">
        <ele>344.891</ele>
        <time>2016-06-09T17:10:57Z</time>
      </trkpt>
      <trkpt lat="44.33436" lon="2.00265">
        <ele>342.512</ele>
        <time>2016-06-09T17:10:37Z</time>
      </trkpt>
      <trkpt lat="44.3343" lon="2.0034">
        <ele>343.096</ele>
        <time>2016-06-09T17:10:17Z</time>
      </trkpt>
      <trkpt lat="44.33439" lon="2.00458">
        <ele>340.474</ele>
        <time>2016-06-09T17:09:57Z</time>
      </trkpt>
      <trkpt lat="44.3343" lon="2.00677">
        <ele>337.238</ele>
        <time>2016-06-09T17:09:37Z</time>
      </trkpt>
      <trkpt lat="44.33416" lon="2.00812">
        <ele>339.085</ele>
        <time>2016-06-09T17:09:17Z</time>
      </trkpt>
      <trkpt lat="44.33479" lon="2.00932">
        <ele>322.71</ele>
        <time>2016-06-09T17:08:57Z</time>
      </trkpt>
      <trkpt lat="44.33562" lon="2.01035">
        <ele>307.844</ele>
        <time>2016-06-09T17:08:37Z</time>
      </trkpt>
      <trkpt lat="44.33548" lon="2.01091">
        <ele>303.508</ele>
        <time>2016-06-09T17:08:17Z</time>
      </trkpt>
      <trkpt lat="44.33465" lon="2.01125">
        <ele>294.826</ele>
        <time>2016-06-09T17:07:57Z</time>
      </trkpt>
      <trkpt lat="44.33515" lon="2.01211">
        <ele>280.942</ele>
        <time>2016-06-09T17:07:37Z</time>
      </trkpt>
      <trkpt lat="44.33495" lon="2.01254">
        <ele>271.887</ele>
        <time>2016-06-09T17:07:17Z</time>
      </trkpt>
      <trkpt lat="44.3353" lon="2.0132">
        <ele>261.81</ele>
        <time>2016-06-09T17:06:57Z</time>
      </trkpt>
      <trkpt lat="44.33588" lon="2.0161">
        <ele>256.021</ele>
        <time>2016-06-09T17:06:37Z</time>
      </trkpt>
      <trkpt lat="44.33565" lon="2.01728">
        <ele>263.025</ele>
        <time>2016-06-09T17:06:17Z</time>
      </trkpt>
      <trkpt lat="44.33585" lon="2.01825">
        <ele>264.843</ele>
        <time>2016-06-09T17:05:57Z</time>
      </trkpt>
      <trkpt lat="44.33616" lon="2.0191">
        <ele>267.977</ele>
        <time>2016-06-09T17:05:37Z</time>
      </trkpt>
      <trkpt lat="44.33663" lon="2.0196">
        <ele>271.534</ele>
        <time>2016-06-09T17:05:17Z</time>
      </trkpt>
      <trkpt lat="44.33651" lon="2.01797">
        <ele>274.539</ele>
        <time>2016-06-09T17:04:57Z</time>
      </trkpt>
      <trkpt lat="44.33651" lon="2.01797">
        <ele>274.533</ele>
        <time>2016-06-09T17:04:37Z</time>
      </trkpt>
      <trkpt lat="44.33706" lon="2.0158">
        <ele>273.608</ele>
        <time>2016-06-09T17:04:17Z</time>
      </trkpt>
      <trkpt lat="44.33783" lon="2.01455">
        <ele>267.613</ele>
        <time>2016-06-09T17:03:57Z</time>
      </trkpt>
      <trkpt lat="44.33782" lon="2.01438">
        <ele>265.285</ele>
        <time>2016-06-09T17:03:37Z</time>
      </trkpt>
      <trkpt lat="44.33806" lon="2.01284">
        <ele>265.573</ele>
        <time>2016-06-09T17:03:17Z</time>
      </trkpt>
      <trkpt lat="44.33821" lon="2.01222">
        <ele>265.426</ele>
        <time>2016-06-09T17:02:57Z</time>
      </trkpt>
      <trkpt lat="44.33812" lon="2.01071">
        <ele>267.787</ele>
        <time>2016-06-09T17:02:37Z</time>
      </trkpt>
      <trkpt lat="44.33826" lon="2.00803">
        <ele>269.551</ele>
        <time>2016-06-09T17:02:17Z</time>
      </trkpt>
      <trkpt lat="44.33843" lon="2.00713">
        <ele>275.229</ele>
        <time>2016-06-09T17:01:57Z</time>
      </trkpt>
      <trkpt lat="44.33851" lon="2.00599">
        <ele>278.453</ele>
        <time>2016-06-09T17:01:37Z</time>
      </trkpt>
      <trkpt lat="44.33802" lon="2.00365">
        <ele>274.79</ele>
        <time>2016-06-09T17:01:17Z</time>
      </trkpt>
      <trkpt lat="44.33844" lon="2.00187">
        <ele>281.255</ele>
        <time>2016-06-09T17:00:57Z</time>
      </trkpt>
      <trkpt lat="44.33996" lon="1.99855">
        <ele>283.469</ele>
        <time>2016-06-09T17:00:37Z</time>
      </trkpt>
      <trkpt lat="44.34096" lon="1.99737">
        <ele>293.808</ele>
        <time>2016-06-09T17:00:17Z</time>
      </trkpt>
      <trkpt lat="44.3416" lon="1.99621">
        <ele>295.021</ele>
        <time>2016-06-09T16:59:57Z</time>
      </trkpt>
      <trkpt lat="44.34299" lon="1.99475">
        <ele>302.301</ele>
        <time>2016-06-09T16:59:37Z</time>
      </trkpt>
      <trkpt lat="44.34402" lon="1.99434">
        <ele>309.739</ele>
        <time>2016-06-09T16:59:17Z</time>
      </trkpt>
      <trkpt lat="44.34452" lon="1.99361">
        <ele>325.684</ele>
        <time>2016-06-09T16:58:57Z</time>
      </trkpt>
      <trkpt lat="44.3456" lon="1.99348">
        <ele>325.875</ele>
        <time>2016-06-09T16:58:37Z</time>
      </trkpt>
      <trkpt lat="44.34569" lon="1.994">
        <ele>326.929</ele>
        <time>2016-06-09T16:58:17Z</time>
      </trkpt>
      <trkpt lat="44.34441" lon="1.99638">
        <ele>340.417</ele>
        <time>2016-06-09T16:57:57Z</time>
      </trkpt>
      <trkpt lat="44.34423" lon="1.9972">
        <ele>342.511</ele>
        <time>2016-06-09T16:57:37Z</time>
      </trkpt>
      <trkpt lat="44.34403" lon="1.99743">
        <ele>340.978</ele>
        <time>2016-06-09T16:57:17Z</time>
      </trkpt>
      <trkpt lat="44.34452" lon="1.99771">
        <ele>349.133</ele>
        <time>2016-06-09T16:56:57Z</time>
      </trkpt>
      <trkpt lat="44.34484" lon="1.99762">
        <ele>350.927</ele>
        <time>2016-06-09T16:56:37Z</time>
      </trkpt>
      <trkpt lat="44.34598" lon="1.99818">
        <ele>360.308</ele>
        <time>2016-06-09T16:55:57Z</time>
      </trkpt>
      <trkpt lat="44.34643" lon="1.99667">
        <ele>355.111</ele>
        <time>2016-06-09T16:55:37Z</time>
      </trkpt>
      <trkpt lat="44.34793" lon="1.99365">
        <ele>337.565</ele>
        <time>2016-06-09T16:55:17Z</time>
      </trkpt>
      <trkpt lat="44.34878" lon="1.9925">
        <ele>339.215</ele>
        <time>2016-06-09T16:54:57Z</time>
      </trkpt>
      <trkpt lat="44.34925" lon="1.99114">
        <ele>342.968</ele>
        <time>2016-06-09T16:54:37Z</time>
      </trkpt>
      <trkpt lat="44.3504" lon="1.9885">
        <ele>340.689</ele>
        <time>2016-06-09T16:54:17Z</time>
      </trkpt>
      <trkpt lat="44.35097" lon="1.98634">
        <ele>335.473</ele>
        <time>2016-06-09T16:53:57Z</time>
      </trkpt>
      <trkpt lat="44.35324" lon="1.98181">
        <ele>354.461</ele>
        <time>2016-06-09T16:53:37Z</time>
      </trkpt>
      <trkpt lat="44.35498" lon="1.97813">
        <ele>362.085</ele>
        <time>2016-06-09T16:53:17Z</time>
      </trkpt>
      <trkpt lat="44.35556" lon="1.97599">
        <ele>375.292</ele>
        <time>2016-06-09T16:52:57Z</time>
      </trkpt>
      <trkpt lat="44.35684" lon="1.97388">
        <ele>385.437</ele>
        <time>2016-06-09T16:52:37Z</time>
      </trkpt>
      <trkpt lat="44.35798" lon="1.97327">
        <ele>382.241</ele>
        <time>2016-06-09T16:51:17Z</time>
      </trkpt>
      <trkpt lat="44.35888" lon="1.97235">
        <ele>385.108</ele>
        <time>2016-06-09T16:50:57Z</time>
      </trkpt>
      <trkpt lat="44.35967" lon="1.97125">
        <ele>383.911</ele>
        <time>2016-06-09T16:50:37Z</time>
      </trkpt>
      <trkpt lat="44.36036" lon="1.96917">
        <ele>386.756</ele>
        <time>2016-06-09T16:50:17Z</time>
      </trkpt>
      <trkpt lat="44.36015" lon="1.96845">
        <ele>383.354</ele>
        <time>2016-06-09T16:48:17Z</time>
      </trkpt>
      <trkpt lat="44.36039" lon="1.96792">
        <ele>383.41</ele>
        <time>2016-06-09T16:47:57Z</time>
      </trkpt>
      <trkpt lat="44.36013" lon="1.96724">
        <ele>377.961</ele>
        <time>2016-06-09T16:47:37Z</time>
      </trkpt>
      <trkpt lat="44.35893" lon="1.96645">
        <ele>382.835</ele>
        <time>2016-06-09T16:47:17Z</time>
      </trkpt>
      <trkpt lat="44.3586" lon="1.9664">
        <ele>390.083</ele>
        <time>2016-06-09T16:46:17Z</time>
      </trkpt>
      <trkpt lat="44.3586" lon="1.9664">
        <ele>390.067</ele>
        <time>2016-06-09T16:46:17Z</time>
      </trkpt>
      <trkpt lat="44.35864" lon="1.96556">
        <ele>392.984</ele>
        <time>2019-10-30T23:52:09Z</time>
      </trkpt>
      <trkpt lat="44.3589" lon="1.96488">
        <ele>391.649</ele>
        <time>2019-10-30T23:51:49Z</time>
      </trkpt>
      <trkpt lat="44.35928" lon="1.96454">
        <ele>390.583</ele>
        <time>2019-10-30T23:51:29Z</time>
      </trkpt>
      <trkpt lat="44.35971" lon="1.96402">
        <ele>389.008</ele>
        <time>2019-10-30T23:51:09Z</time>
      </trkpt>
      <trkpt lat="44.36008" lon="1.96392">
        <ele>391.527</ele>
        <time>2019-10-30T23:50:49Z</time>
      </trkpt>
      <trkpt lat="44.36102" lon="1.96334">
        <ele>403.061</ele>
        <time>2019-10-30T23:50:29Z</time>
      </trkpt>
      <trkpt lat="44.36056" lon="1.96119">
        <ele>404.377</ele>
        <time>2019-10-30T23:50:09Z</time>
      </trkpt>
      <trkpt lat="44.36066" lon="1.96098">
        <ele>403.52</ele>
        <time>2019-10-30T23:49:49Z</time>
      </trkpt>
      <trkpt lat="44.36035" lon="1.96012">
        <ele>403.021</ele>
        <time>2019-10-30T23:49:29Z</time>
      </trkpt>
      <trkpt lat="44.35856" lon="1.95672">
        <ele>410.835</ele>
        <time>2019-10-30T23:49:09Z</time>
      </trkpt>
      <trkpt lat="44.35776" lon="1.95472">
        <ele>413.763</ele>
        <time>2019-10-30T23:48:49Z</time>
      </trkpt>
      <trkpt lat="44.35754" lon="1.95335">
        <ele>414.057</ele>
        <time>2019-10-30T23:48:29Z</time>
      </trkpt>
      <trkpt lat="44.35726" lon="1.95236">
        <ele>415.894</ele>
        <time>2019-10-30T23:48:09Z</time>
      </trkpt>
      <trkpt lat="44.35686" lon="1.95052">
        <ele>413.939</ele>
        <time>2019-10-30T23:47:49Z</time>
      </trkpt>
      <trkpt lat="44.35659" lon="1.95002">
        <ele>413.733</ele>
        <time>2019-10-30T23:47:29Z</time>
      </trkpt>
      <trkpt lat="44.35606" lon="1.94937">
        <ele>417.208</ele>
        <time>2019-10-30T23:47:09Z</time>
      </trkpt>
      <trkpt lat="44.35533" lon="1.94865">
        <ele>417.021</ele>
        <time>2019-10-30T23:46:49Z</time>
      </trkpt>
      <trkpt lat="44.35513" lon="1.94834">
        <ele>417.656</ele>
        <time>2019-10-30T23:46:29Z</time>
      </trkpt>
      <trkpt lat="44.35495" lon="1.9473">
        <ele>416.474</ele>
        <time>2019-10-30T23:46:09Z</time>
      </trkpt>
      <trkpt lat="44.35463" lon="1.94662">
        <ele>416.946</ele>
        <time>2019-10-30T23:45:49Z</time>
      </trkpt>
      <trkpt lat="44.35404" lon="1.94584">
        <ele>414.057</ele>
        <time>2019-10-30T23:45:29Z</time>
      </trkpt>
      <trkpt lat="44.35365" lon="1.94515">
        <ele>413.051</ele>
        <time>2019-10-30T23:45:09Z</time>
      </trkpt>
      <trkpt lat="44.35344" lon="1.94423">
        <ele>410.259</ele>
        <time>2019-10-30T23:44:49Z</time>
      </trkpt>
      <trkpt lat="44.35336" lon="1.94293">
        <ele>412.843</ele>
        <time>2019-10-30T23:44:29Z</time>
      </trkpt>
      <trkpt lat="44.3534" lon="1.94088">
        <ele>409.95</ele>
        <time>2019-10-30T23:44:09Z</time>
      </trkpt>
      <trkpt lat="44.35321" lon="1.93993">
        <ele>409.335</ele>
        <time>2019-10-30T23:43:49Z</time>
      </trkpt>
      <trkpt lat="44.35252" lon="1.93798">
        <ele>400.919</ele>
        <time>2019-10-30T23:43:29Z</time>
      </trkpt>
      <trkpt lat="44.3517" lon="1.9359">
        <ele>403.708</ele>
        <time>2019-10-30T23:43:09Z</time>
      </trkpt>
      <trkpt lat="44.35115" lon="1.93514">
        <ele>407.214</ele>
        <time>2019-10-30T23:42:49Z</time>
      </trkpt>
      <trkpt lat="44.35016" lon="1.93454">
        <ele>409.486</ele>
        <time>2019-10-30T23:42:29Z</time>
      </trkpt>
      <trkpt lat="44.34951" lon="1.9339">
        <ele>412.735</ele>
        <time>2019-10-30T23:42:09Z</time>
      </trkpt>
      <trkpt lat="44.34852" lon="1.93205">
        <ele>422.811</ele>
        <time>2019-10-30T23:41:49Z</time>
      </trkpt>
      <trkpt lat="44.34747" lon="1.93041">
        <ele>426.552</ele>
        <time>2019-10-30T23:41:29Z</time>
      </trkpt>
      <trkpt lat="44.346" lon="1.92886">
        <ele>424.996</ele>
        <time>2019-10-30T23:41:09Z</time>
      </trkpt>
      <trkpt lat="44.34519" lon="1.9281">
        <ele>425.134</ele>
        <time>2019-10-30T23:40:49Z</time>
      </trkpt>
      <trkpt lat="44.3448" lon="1.92736">
        <ele>425.568</ele>
        <time>2019-10-30T23:40:29Z</time>
      </trkpt>
      <trkpt lat="44.34477" lon="1.92688">
        <ele>423.745</ele>
        <time>2019-10-30T23:40:09Z</time>
      </trkpt>
      <trkpt lat="44.34495" lon="1.9258">
        <ele>424.96</ele>
        <time>2019-10-30T23:39:49Z</time>
      </trkpt>
      <trkpt lat="44.34493" lon="1.92504">
        <ele>425.964</ele>
        <time>2019-10-30T23:39:29Z</time>
      </trkpt>
      <trkpt lat="44.34508" lon="1.92445">
        <ele>428.308</ele>
        <time>2019-10-30T23:39:09Z</time>
      </trkpt>
      <trkpt lat="44.34522" lon="1.92377">
        <ele>425.617</ele>
        <time>2019-10-30T23:38:49Z</time>
      </trkpt>
      <trkpt lat="44.34591" lon="1.92289">
        <ele>419.961</ele>
        <time>2019-10-30T23:38:29Z</time>
      </trkpt>
      <trkpt lat="44.34592" lon="1.92245">
        <ele>418.981</ele>
        <time>2019-10-30T23:38:09Z</time>
      </trkpt>
      <trkpt lat="44.34632" lon="1.92123">
        <ele>413.817</ele>
        <time>2019-10-30T23:37:49Z</time>
      </trkpt>
      <trkpt lat="44.34669" lon="1.92073">
        <ele>411.728</ele>
        <time>2019-10-30T23:37:29Z</time>
      </trkpt>
      <trkpt lat="44.34697" lon="1.9207">
        <ele>412.352</ele>
        <time>2019-10-30T23:37:09Z</time>
      </trkpt>
      <trkpt lat="44.34706" lon="1.92089">
        <ele>412.29</ele>
        <time>2019-10-30T23:36:49Z</time>
      </trkpt>
      <trkpt lat="44.34748" lon="1.92091">
        <ele>408.244</ele>
        <time>2019-10-30T23:36:29Z</time>
      </trkpt>
      <trkpt lat="44.34773" lon="1.9202">
        <ele>407.971</ele>
        <time>2019-10-30T23:36:09Z</time>
      </trkpt>
      <trkpt lat="44.34816" lon="1.91962">
        <ele>407.066</ele>
        <time>2019-10-30T23:35:49Z</time>
      </trkpt>
      <trkpt lat="44.34859" lon="1.91893">
        <ele>411.52</ele>
        <time>2019-10-30T23:35:29Z</time>
      </trkpt>
      <trkpt lat="44.34883" lon="1.91817">
        <ele>411.908</ele>
        <time>2019-10-30T23:35:09Z</time>
      </trkpt>
      <trkpt lat="44.34916" lon="1.91767">
        <ele>408.809</ele>
        <time>2019-10-30T23:34:49Z</time>
      </trkpt>
      <trkpt lat="44.34998" lon="1.91755">
        <ele>398.281</ele>
        <time>2019-10-30T23:34:29Z</time>
      </trkpt>
      <trkpt lat="44.3513" lon="1.9167">
        <ele>396.341</ele>
        <time>2019-10-30T23:34:09Z</time>
      </trkpt>
      <trkpt lat="44.35222" lon="1.9159">
        <ele>394.24</ele>
        <time>2019-10-30T23:33:49Z</time>
      </trkpt>
      <trkpt lat="44.35285" lon="1.91599">
        <ele>396.921</ele>
        <time>2019-10-30T23:33:29Z</time>
      </trkpt>
      <trkpt lat="44.35337" lon="1.915">
        <ele>399.185</ele>
        <time>2019-10-30T23:33:09Z</time>
      </trkpt>
      <trkpt lat="44.35365" lon="1.91403">
        <ele>401.163</ele>
        <time>2019-10-30T23:32:49Z</time>
      </trkpt>
      <trkpt lat="44.35452" lon="1.91484">
        <ele>401.347</ele>
        <time>2019-10-30T23:32:29Z</time>
      </trkpt>
      <trkpt lat="44.35538" lon="1.91486">
        <ele>396.574</ele>
        <time>2019-10-30T23:32:09Z</time>
      </trkpt>
      <trkpt lat="44.3564" lon="1.91502">
        <ele>394.169</ele>
        <time>2019-10-30T23:31:49Z</time>
      </trkpt>
      <trkpt lat="44.35579" lon="1.91293">
        <ele>391.523</ele>
        <time>2019-10-30T23:31:29Z</time>
      </trkpt>
      <trkpt lat="44.35569" lon="1.91091">
        <ele>392.808</ele>
        <time>2019-10-30T23:31:09Z</time>
      </trkpt>
      <trkpt lat="44.35638" lon="1.90447">
        <ele>392.119</ele>
        <time>2019-10-30T23:30:49Z</time>
      </trkpt>
      <trkpt lat="44.35633" lon="1.90359">
        <ele>393.59</ele>
        <time>2019-10-30T23:30:29Z</time>
      </trkpt>
      <trkpt lat="44.35696" lon="1.90111">
        <ele>396.076</ele>
        <time>2019-10-30T23:30:09Z</time>
      </trkpt>
      <trkpt lat="44.35758" lon="1.89959">
        <ele>393.091</ele>
        <time>2019-10-30T23:29:49Z</time>
      </trkpt>
      <trkpt lat="44.35775" lon="1.89658">
        <ele>384.982</ele>
        <time>2019-10-30T23:29:29Z</time>
      </trkpt>
      <trkpt lat="44.35618" lon="1.89235">
        <ele>368.956</ele>
        <time>2019-10-30T23:29:09Z</time>
      </trkpt>
      <trkpt lat="44.35566" lon="1.89141">
        <ele>364.264</ele>
        <time>2019-10-30T23:28:49Z</time>
      </trkpt>
      <trkpt lat="44.35531" lon="1.89037">
        <ele>362.788</ele>
        <time>2019-10-30T23:28:29Z</time>
      </trkpt>
      <trkpt lat="44.35454" lon="1.88984">
        <ele>361.185</ele>
        <time>2019-10-30T23:28:09Z</time>
      </trkpt>
      <trkpt lat="44.35456" lon="1.88867">
        <ele>360.66</ele>
        <time>2019-10-30T23:27:49Z</time>
      </trkpt>
      <trkpt lat="44.35426" lon="1.8866">
        <ele>364.134</ele>
        <time>2019-10-30T23:27:29Z</time>
      </trkpt>
      <trkpt lat="44.35378" lon="1.88602">
        <ele>364.308</ele>
        <time>2019-10-30T23:27:09Z</time>
      </trkpt>
      <trkpt lat="44.35362" lon="1.88517">
        <ele>365.517</ele>
        <time>2019-10-30T23:26:49Z</time>
      </trkpt>
      <trkpt lat="44.35363" lon="1.88448">
        <ele>365.825</ele>
        <time>2019-10-30T23:26:29Z</time>
      </trkpt>
      <trkpt lat="44.35355" lon="1.88354">
        <ele>368.083</ele>
        <time>2019-10-30T23:26:09Z</time>
      </trkpt>
      <trkpt lat="44.35331" lon="1.88253">
        <ele>369.049</ele>
        <time>2019-10-30T23:25:49Z</time>
      </trkpt>
      <trkpt lat="44.35309" lon="1.8782">
        <ele>370.24</ele>
        <time>2019-10-30T23:25:29Z</time>
      </trkpt>
      <trkpt lat="44.35331" lon="1.87768">
        <ele>369.154</ele>
        <time>2019-10-30T23:25:09Z</time>
      </trkpt>
      <trkpt lat="44.35459" lon="1.87703">
        <ele>359.762</ele>
        <time>2019-10-30T23:24:49Z</time>
      </trkpt>
      <trkpt lat="44.35508" lon="1.87694">
        <ele>363.626</ele>
        <time>2019-10-30T23:24:29Z</time>
      </trkpt>
      <trkpt lat="44.35692" lon="1.87607">
        <ele>372.213</ele>
        <time>2019-10-30T23:24:09Z</time>
      </trkpt>
      <trkpt lat="44.3576" lon="1.87551">
        <ele>370.718</ele>
        <time>2019-10-30T23:23:49Z</time>
      </trkpt>
      <trkpt lat="44.35748" lon="1.87531">
        <ele>371.132</ele>
        <time>2019-10-30T23:23:29Z</time>
      </trkpt>
      <trkpt lat="44.3583" lon="1.87411">
        <ele>368.108</ele>
        <time>2019-10-30T23:23:09Z</time>
      </trkpt>
      <trkpt lat="44.35967" lon="1.87291">
        <ele>365.924</ele>
        <time>2019-10-30T23:22:49Z</time>
      </trkpt>
      <trkpt lat="44.36044" lon="1.87186">
        <ele>358.704</ele>
        <time>2019-10-30T23:22:29Z</time>
      </trkpt>
      <trkpt lat="44.36118" lon="1.87013">
        <ele>357.469</ele>
        <time>2019-10-30T23:22:09Z</time>
      </trkpt>
      <trkpt lat="44.36202" lon="1.86882">
        <ele>360.775</ele>
        <time>2019-10-30T23:21:49Z</time>
      </trkpt>
      <trkpt lat="44.36255" lon="1.86832">
        <ele>361.956</ele>
        <time>2019-10-30T23:21:29Z</time>
      </trkpt>
      <trkpt lat="44.36391" lon="1.86581">
        <ele>363.13</ele>
        <time>2019-10-30T23:21:09Z</time>
      </trkpt>
      <trkpt lat="44.3634" lon="1.86523">
        <ele>364.878</ele>
        <time>2019-10-30T23:20:49Z</time>
      </trkpt>
      <trkpt lat="44.36434" lon="1.86291">
        <ele>364.142</ele>
        <time>2019-10-30T23:20:29Z</time>
      </trkpt>
      <trkpt lat="44.36439" lon="1.86204">
        <ele>360.589</ele>
        <time>2019-10-30T23:20:09Z</time>
      </trkpt>
      <trkpt lat="44.36467" lon="1.86073">
        <ele>354.724</ele>
        <time>2019-10-30T23:19:49Z</time>
      </trkpt>
      <trkpt lat="44.36419" lon="1.85815">
        <ele>359.638</ele>
        <time>2019-10-30T23:19:29Z</time>
      </trkpt>
      <trkpt lat="44.36496" lon="1.85583">
        <ele>363.308</ele>
        <time>2019-10-30T23:19:09Z</time>
      </trkpt>
      <trkpt lat="44.36531" lon="1.85514">
        <ele>364.211</ele>
        <time>2019-10-30T23:18:49Z</time>
      </trkpt>
      <trkpt lat="44.36546" lon="1.85442">
        <ele>367.747</ele>
        <time>2019-10-30T23:18:29Z</time>
      </trkpt>
      <trkpt lat="44.36799" lon="1.84684">
        <ele>359.126</ele>
        <time>2019-10-30T23:18:09Z</time>
      </trkpt>
      <trkpt lat="44.36722" lon="1.8461">
        <ele>349.917</ele>
        <time>2019-10-30T23:17:49Z</time>
      </trkpt>
      <trkpt lat="44.36689" lon="1.84559">
        <ele>349.358</ele>
        <time>2019-10-30T23:17:29Z</time>
      </trkpt>
      <trkpt lat="44.36639" lon="1.84495">
        <ele>354.092</ele>
        <time>2019-10-30T23:17:09Z</time>
      </trkpt>
      <trkpt lat="44.36618" lon="1.84431">
        <ele>357.49</ele>
        <time>2019-10-30T23:16:49Z</time>
      </trkpt>
      <trkpt lat="44.3625" lon="1.83752">
        <ele>372.914</ele>
        <time>2019-10-30T23:16:29Z</time>
      </trkpt>
      <trkpt lat="44.36036" lon="1.83347">
        <ele>378.111</ele>
        <time>2019-10-30T23:16:09Z</time>
      </trkpt>
      <trkpt lat="44.35845" lon="1.83028">
        <ele>388.326</ele>
        <time>2019-10-30T23:15:49Z</time>
      </trkpt>
      <trkpt lat="44.35763" lon="1.82913">
        <ele>388.21</ele>
        <time>2019-10-30T23:15:29Z</time>
      </trkpt>
      <trkpt lat="44.3583" lon="1.82642">
        <ele>379.108</ele>
        <time>2019-10-30T23:15:09Z</time>
      </trkpt>
      <trkpt lat="44.35801" lon="1.82529">
        <ele>381.616</ele>
        <time>2019-10-30T23:14:49Z</time>
      </trkpt>
      <trkpt lat="44.35755" lon="1.82246">
        <ele>379.588</ele>
        <time>2019-10-30T23:14:29Z</time>
      </trkpt>
      <trkpt lat="44.35668" lon="1.8208">
        <ele>377.246</ele>
        <time>2019-10-30T23:14:09Z</time>
      </trkpt>
      <trkpt lat="44.35646" lon="1.81976">
        <ele>380.837</ele>
        <time>2019-10-30T23:13:49Z</time>
      </trkpt>
      <trkpt lat="44.35623" lon="1.81843">
        <ele>378.068</ele>
        <time>2019-10-30T23:13:29Z</time>
      </trkpt>
      <trkpt lat="44.35565" lon="1.81564">
        <ele>393.322</ele>
        <time>2019-10-30T23:13:09Z</time>
      </trkpt>
      <trkpt lat="44.35546" lon="1.81515">
        <ele>393.97</ele>
        <time>2019-10-30T23:12:49Z</time>
      </trkpt>
      <trkpt lat="44.35427" lon="1.81448">
        <ele>394.734</ele>
        <time>2019-10-30T23:12:29Z</time>
      </trkpt>
      <trkpt lat="44.35356" lon="1.81371">
        <ele>390.511</ele>
        <time>2019-10-30T23:12:09Z</time>
      </trkpt>
      <trkpt lat="44.35295" lon="1.81341">
        <ele>391.176</ele>
        <time>2019-10-30T23:11:49Z</time>
      </trkpt>
      <trkpt lat="44.35293" lon="1.81309">
        <ele>390.59</ele>
        <time>2019-10-30T23:11:29Z</time>
      </trkpt>
      <trkpt lat="44.35275" lon="1.81302">
        <ele>392.008</ele>
        <time>2019-10-30T23:11:09Z</time>
      </trkpt>
      <trkpt lat="44.3525" lon="1.81244">
        <ele>392.016</ele>
        <time>2019-10-30T23:10:49Z</time>
      </trkpt>
      <trkpt lat="44.35216" lon="1.81182">
        <ele>395.788</ele>
        <time>2019-10-30T23:10:29Z</time>
      </trkpt>
      <trkpt lat="44.3512" lon="1.81094">
        <ele>395.946</ele>
        <time>2019-10-30T23:10:09Z</time>
      </trkpt>
      <trkpt lat="44.35026" lon="1.81109">
        <ele>388.874</ele>
        <time>2019-10-30T23:09:49Z</time>
      </trkpt>
      <trkpt lat="44.3496" lon="1.81062">
        <ele>382.785</ele>
        <time>2019-10-30T23:09:29Z</time>
      </trkpt>
      <trkpt lat="44.34916" lon="1.80989">
        <ele>380.859</ele>
        <time>2019-10-30T23:09:09Z</time>
      </trkpt>
      <trkpt lat="44.34893" lon="1.80897">
        <ele>383.927</ele>
        <time>2019-10-30T23:08:49Z</time>
      </trkpt>
      <trkpt lat="44.34836" lon="1.80867">
        <ele>381.121</ele>
        <time>2019-10-30T23:08:29Z</time>
      </trkpt>
      <trkpt lat="44.34791" lon="1.80813">
        <ele>379.828</ele>
        <time>2019-10-30T23:08:09Z</time>
      </trkpt>
      <trkpt lat="44.34728" lon="1.80794">
        <ele>374.213</ele>
        <time>2019-10-30T23:07:49Z</time>
      </trkpt>
      <trkpt lat="44.34647" lon="1.80828">
        <ele>371.457</ele>
        <time>2019-10-30T23:07:29Z</time>
      </trkpt>
      <trkpt lat="44.34566" lon="1.8085">
        <ele>372.608</ele>
        <time>2019-10-30T23:07:09Z</time>
      </trkpt>
      <trkpt lat="44.34561" lon="1.80672">
        <ele>359.813</ele>
        <time>2019-10-30T23:06:49Z</time>
      </trkpt>
      <trkpt lat="44.34583" lon="1.80511">
        <ele>358.076</ele>
        <time>2019-10-30T23:06:29Z</time>
      </trkpt>
      <trkpt lat="44.34549" lon="1.80384">
        <ele>364.416</ele>
        <time>2019-10-30T23:06:09Z</time>
      </trkpt>
      <trkpt lat="44.3459" lon="1.80088">
        <ele>367.022</ele>
        <time>2019-10-30T23:05:49Z</time>
      </trkpt>
      <trkpt lat="44.346" lon="1.7989">
        <ele>363.653</ele>
        <time>2019-10-30T23:05:29Z</time>
      </trkpt>
      <trkpt lat="44.34578" lon="1.79676">
        <ele>367.127</ele>
        <time>2019-10-30T23:05:09Z</time>
      </trkpt>
      <trkpt lat="44.34721" lon="1.79588">
        <ele>373.275</ele>
        <time>2019-10-30T23:04:49Z</time>
      </trkpt>
      <trkpt lat="44.34603" lon="1.79339">
        <ele>372.519</ele>
        <time>2019-10-30T23:04:29Z</time>
      </trkpt>
      <trkpt lat="44.34534" lon="1.79232">
        <ele>373.696</ele>
        <time>2019-10-30T23:04:09Z</time>
      </trkpt>
      <trkpt lat="44.34474" lon="1.79176">
        <ele>371.111</ele>
        <time>2019-10-30T23:03:49Z</time>
      </trkpt>
      <trkpt lat="44.34317" lon="1.79066">
        <ele>363.455</ele>
        <time>2019-10-30T23:03:29Z</time>
      </trkpt>
      <trkpt lat="44.34231" lon="1.78983">
        <ele>361.308</ele>
        <time>2019-10-30T23:03:09Z</time>
      </trkpt>
      <trkpt lat="44.34108" lon="1.78839">
        <ele>363.824</ele>
        <time>2019-10-30T23:02:49Z</time>
      </trkpt>
      <trkpt lat="44.34179" lon="1.78805">
        <ele>364.031</ele>
        <time>2019-10-30T23:02:29Z</time>
      </trkpt>
      <trkpt lat="44.34234" lon="1.78603">
        <ele>366.296</ele>
        <time>2019-10-30T23:02:09Z</time>
      </trkpt>
      <trkpt lat="44.34264" lon="1.78546">
        <ele>365.85</ele>
        <time>2019-10-30T23:01:49Z</time>
      </trkpt>
      <trkpt lat="44.34302" lon="1.78498">
        <ele>363.291</ele>
        <time>2019-10-30T23:01:29Z</time>
      </trkpt>
      <trkpt lat="44.3439" lon="1.78424">
        <ele>355.155</ele>
        <time>2019-10-30T23:01:09Z</time>
      </trkpt>
      <trkpt lat="44.3444" lon="1.78319">
        <ele>361.513</ele>
        <time>2019-10-30T23:00:49Z</time>
      </trkpt>
      <trkpt lat="44.34392" lon="1.78263">
        <ele>357.717</ele>
        <time>2019-10-30T23:00:29Z</time>
      </trkpt>
      <trkpt lat="44.34243" lon="1.78185">
        <ele>361.744</ele>
        <time>2019-10-30T23:00:09Z</time>
      </trkpt>
      <trkpt lat="44.34229" lon="1.78141">
        <ele>361.289</ele>
        <time>2019-10-30T22:59:49Z</time>
      </trkpt>
      <trkpt lat="44.34201" lon="1.78067">
        <ele>359.773</ele>
        <time>2019-10-30T22:59:29Z</time>
      </trkpt>
      <trkpt lat="44.34192" lon="1.78008">
        <ele>360.608</ele>
        <time>2019-10-30T22:59:09Z</time>
      </trkpt>
      <trkpt lat="44.33981" lon="1.77787">
        <ele>362.013</ele>
        <time>2019-10-30T22:58:49Z</time>
      </trkpt>
      <trkpt lat="44.33942" lon="1.7771">
        <ele>364.385</ele>
        <time>2019-10-30T22:58:29Z</time>
      </trkpt>
      <trkpt lat="44.33922" lon="1.77621">
        <ele>364.473</ele>
        <time>2019-10-30T22:58:09Z</time>
      </trkpt>
      <trkpt lat="44.33894" lon="1.7754">
        <ele>363.65</ele>
        <time>2019-10-30T22:57:49Z</time>
      </trkpt>
      <trkpt lat="44.33787" lon="1.77356">
        <ele>368.341</ele>
        <time>2019-10-30T22:57:29Z</time>
      </trkpt>
      <trkpt lat="44.33828" lon="1.77188">
        <ele>368.635</ele>
        <time>2019-10-30T22:57:09Z</time>
      </trkpt>
      <trkpt lat="44.33816" lon="1.76886">
        <ele>373.633</ele>
        <time>2019-10-30T22:56:49Z</time>
      </trkpt>
      <trkpt lat="44.33796" lon="1.76709">
        <ele>377.057</ele>
        <time>2019-10-30T22:56:29Z</time>
      </trkpt>
      <trkpt lat="44.33808" lon="1.76546">
        <ele>384.574</ele>
        <time>2019-10-30T22:56:09Z</time>
      </trkpt>
      <trkpt lat="44.33837" lon="1.7638">
        <ele>389.769</ele>
        <time>2019-10-30T22:55:49Z</time>
      </trkpt>
      <trkpt lat="44.33881" lon="1.76271">
        <ele>390.883</ele>
        <time>2019-10-30T22:55:29Z</time>
      </trkpt>
      <trkpt lat="44.33914" lon="1.76149">
        <ele>394.008</ele>
        <time>2019-10-30T22:55:09Z</time>
      </trkpt>
      <trkpt lat="44.3395" lon="1.76061">
        <ele>394.026</ele>
        <time>2019-10-30T22:54:49Z</time>
      </trkpt>
      <trkpt lat="44.34016" lon="1.75941">
        <ele>393.733</ele>
        <time>2019-10-30T22:54:29Z</time>
      </trkpt>
      <trkpt lat="44.34009" lon="1.75346">
        <ele>385.578</ele>
        <time>2019-10-30T22:54:09Z</time>
      </trkpt>
      <trkpt lat="44.33993" lon="1.75224">
        <ele>392.297</ele>
        <time>2019-10-30T22:53:49Z</time>
      </trkpt>
      <trkpt lat="44.34002" lon="1.75096">
        <ele>386.968</ele>
        <time>2019-10-30T22:53:29Z</time>
      </trkpt>
      <trkpt lat="44.34028" lon="1.74913">
        <ele>382.292</ele>
        <time>2019-10-30T22:53:09Z</time>
      </trkpt>
      <trkpt lat="44.34059" lon="1.74824">
        <ele>383.48</ele>
        <time>2019-10-30T22:52:49Z</time>
      </trkpt>
      <trkpt lat="44.34078" lon="1.74722">
        <ele>387.894</ele>
        <time>2019-10-30T22:52:29Z</time>
      </trkpt>
      <trkpt lat="44.34074" lon="1.74663">
        <ele>388.681</ele>
        <time>2019-10-30T22:52:09Z</time>
      </trkpt>
      <trkpt lat="44.34116" lon="1.74551">
        <ele>385.946</ele>
        <time>2019-10-30T22:51:49Z</time>
      </trkpt>
      <trkpt lat="44.3417" lon="1.74253">
        <ele>382.03</ele>
        <time>2019-10-30T22:51:29Z</time>
      </trkpt>
      <trkpt lat="44.34242" lon="1.73995">
        <ele>370.008</ele>
        <time>2019-10-30T22:51:09Z</time>
      </trkpt>
      <trkpt lat="44.3425" lon="1.73946">
        <ele>368.022</ele>
        <time>2019-10-30T22:50:49Z</time>
      </trkpt>
      <trkpt lat="44.34371" lon="1.73533">
        <ele>369.402</ele>
        <time>2019-10-30T22:50:29Z</time>
      </trkpt>
      <trkpt lat="44.34558" lon="1.73403">
        <ele>376.549</ele>
        <time>2019-10-30T22:50:09Z</time>
      </trkpt>
      <trkpt lat="44.34697" lon="1.73351">
        <ele>372.336</ele>
        <time>2019-10-30T22:49:49Z</time>
      </trkpt>
      <trkpt lat="44.34875" lon="1.73284">
        <ele>367.177</ele>
        <time>2019-10-30T22:49:29Z</time>
      </trkpt>
      <trkpt lat="44.34948" lon="1.73256">
        <ele>371.291</ele>
        <time>2019-10-30T22:49:09Z</time>
      </trkpt>
      <trkpt lat="44.35005" lon="1.73211">
        <ele>375.589</ele>
        <time>2019-10-30T22:48:49Z</time>
      </trkpt>
      <trkpt lat="44.35062" lon="1.73178">
        <ele>374.833</ele>
        <time>2019-10-30T22:48:29Z</time>
      </trkpt>
      <trkpt lat="44.35139" lon="1.73162">
        <ele>371.93</ele>
        <time>2019-10-30T22:48:09Z</time>
      </trkpt>
      <trkpt lat="44.352" lon="1.73116">
        <ele>367.045</ele>
        <time>2019-10-30T22:47:49Z</time>
      </trkpt>
      <trkpt lat="44.35261" lon="1.73112">
        <ele>362.519</ele>
        <time>2019-10-30T22:47:29Z</time>
      </trkpt>
      <trkpt lat="44.35313" lon="1.73099">
        <ele>355.508</ele>
        <time>2019-10-30T22:47:09Z</time>
      </trkpt>
      <trkpt lat="44.35342" lon="1.73042">
        <ele>355.21</ele>
        <time>2019-10-30T22:46:49Z</time>
      </trkpt>
      <trkpt lat="44.35406" lon="1.72975">
        <ele>350.255</ele>
        <time>2019-10-30T22:46:29Z</time>
      </trkpt>
      <trkpt lat="44.35427" lon="1.72929">
        <ele>347.834</ele>
        <time>2019-10-30T22:46:09Z</time>
      </trkpt>
      <trkpt lat="44.35532" lon="1.72822">
        <ele>339.564</ele>
        <time>2019-10-30T22:45:49Z</time>
      </trkpt>
      <trkpt lat="44.35564" lon="1.7266">
        <ele>330.135</ele>
        <time>2019-10-30T22:45:29Z</time>
      </trkpt>
      <trkpt lat="44.35607" lon="1.72588">
        <ele>326.139</ele>
        <time>2019-10-30T22:45:09Z</time>
      </trkpt>
      <trkpt lat="44.35649" lon="1.7252">
        <ele>325.687</ele>
        <time>2019-10-30T22:44:49Z</time>
      </trkpt>
      <trkpt lat="44.35743" lon="1.72468">
        <ele>321.281</ele>
        <time>2019-10-30T22:44:29Z</time>
      </trkpt>
      <trkpt lat="44.35849" lon="1.72438">
        <ele>315.918</ele>
        <time>2019-10-30T22:44:09Z</time>
      </trkpt>
      <trkpt lat="44.35961" lon="1.72386">
        <ele>314.813</ele>
        <time>2019-10-30T22:43:49Z</time>
      </trkpt>
      <trkpt lat="44.36052" lon="1.72274">
        <ele>311.997</ele>
        <time>2019-10-30T22:43:29Z</time>
      </trkpt>
      <trkpt lat="44.36079" lon="1.72266">
        <ele>311.908</ele>
        <time>2019-10-30T22:43:09Z</time>
      </trkpt>
      <trkpt lat="44.36092" lon="1.72203">
        <ele>314.007</ele>
        <time>2019-10-30T22:42:49Z</time>
      </trkpt>
      <trkpt lat="44.36097" lon="1.72079">
        <ele>316.543</ele>
        <time>2019-10-30T22:42:29Z</time>
      </trkpt>
      <trkpt lat="44.36086" lon="1.7202">
        <ele>315.413</ele>
        <time>2019-10-30T22:42:09Z</time>
      </trkpt>
      <trkpt lat="44.36025" lon="1.71937">
        <ele>313.419</ele>
        <time>2019-10-30T22:41:49Z</time>
      </trkpt>
      <trkpt lat="44.36016" lon="1.71851">
        <ele>316.62</ele>
        <time>2019-10-30T22:41:29Z</time>
      </trkpt>
      <trkpt lat="44.36047" lon="1.71832">
        <ele>316.414</ele>
        <time>2019-10-30T22:41:09Z</time>
      </trkpt>
      <trkpt lat="44.36157" lon="1.71682">
        <ele>309.592</ele>
        <time>2019-10-30T22:40:49Z</time>
      </trkpt>
      <trkpt lat="44.36198" lon="1.71642">
        <ele>309.146</ele>
        <time>2019-10-30T22:40:29Z</time>
      </trkpt>
      <trkpt lat="44.36226" lon="1.71533">
        <ele>316.843</ele>
        <time>2019-10-30T22:40:09Z</time>
      </trkpt>
      <trkpt lat="44.36276" lon="1.71411">
        <ele>321.958</ele>
        <time>2019-10-30T22:39:49Z</time>
      </trkpt>
      <trkpt lat="44.36323" lon="1.71037">
        <ele>319.622</ele>
        <time>2019-10-30T22:39:29Z</time>
      </trkpt>
      <trkpt lat="44.36362" lon="1.70949">
        <ele>317.008</ele>
        <time>2019-10-30T22:39:09Z</time>
      </trkpt>
      <trkpt lat="44.36335" lon="1.70758">
        <ele>316.619</ele>
        <time>2019-10-30T22:38:49Z</time>
      </trkpt>
      <trkpt lat="44.36345" lon="1.70633">
        <ele>316.281</ele>
        <time>2019-10-30T22:38:29Z</time>
      </trkpt>
      <trkpt lat="44.36391" lon="1.7055">
        <ele>311.767</ele>
        <time>2019-10-30T22:38:09Z</time>
      </trkpt>
      <trkpt lat="44.36424" lon="1.70461">
        <ele>309.027</ele>
        <time>2019-10-30T22:37:49Z</time>
      </trkpt>
      <trkpt lat="44.36455" lon="1.70417">
        <ele>306.048</ele>
        <time>2019-10-30T22:37:29Z</time>
      </trkpt>
      <trkpt lat="44.36524" lon="1.70258">
        <ele>299.162</ele>
        <time>2019-10-30T22:37:09Z</time>
      </trkpt>
      <trkpt lat="44.36536" lon="1.70176">
        <ele>299.15</ele>
        <time>2019-10-30T22:36:49Z</time>
      </trkpt>
      <trkpt lat="44.3653" lon="1.70106">
        <ele>298.994</ele>
        <time>2019-10-30T22:36:29Z</time>
      </trkpt>
      <trkpt lat="44.36529" lon="1.69862">
        <ele>296.171</ele>
        <time>2019-10-30T22:36:09Z</time>
      </trkpt>
      <trkpt lat="44.36538" lon="1.69752">
        <ele>293.676</ele>
        <time>2019-10-30T22:35:49Z</time>
      </trkpt>
      <trkpt lat="44.36533" lon="1.69635">
        <ele>290.19</ele>
        <time>2019-10-30T22:35:29Z</time>
      </trkpt>
      <trkpt lat="44.36543" lon="1.69537">
        <ele>291.108</ele>
        <time>2019-10-30T22:35:09Z</time>
      </trkpt>
      <trkpt lat="44.3654" lon="1.69488">
        <ele>289.421</ele>
        <time>2019-10-30T22:34:49Z</time>
      </trkpt>
      <trkpt lat="44.36498" lon="1.69375">
        <ele>300.129</ele>
        <time>2019-10-30T22:34:29Z</time>
      </trkpt>
      <trkpt lat="44.36478" lon="1.69269">
        <ele>297.947</ele>
        <time>2019-10-30T22:34:09Z</time>
      </trkpt>
      <trkpt lat="44.36513" lon="1.69175">
        <ele>294.456</ele>
        <time>2019-10-30T22:33:49Z</time>
      </trkpt>
      <trkpt lat="44.36444" lon="1.69062">
        <ele>296.377</ele>
        <time>2019-10-30T22:33:29Z</time>
      </trkpt>
      <trkpt lat="44.36429" lon="1.68888">
        <ele>289.481</ele>
        <time>2019-10-30T22:33:09Z</time>
      </trkpt>
      <trkpt lat="44.36441" lon="1.68851">
        <ele>289.489</ele>
        <time>2019-10-30T22:32:49Z</time>
      </trkpt>
      <trkpt lat="44.36454" lon="1.6876">
        <ele>290.883</ele>
        <time>2019-10-30T22:32:29Z</time>
      </trkpt>
      <trkpt lat="44.36504" lon="1.68615">
        <ele>286.05</ele>
        <time>2019-10-30T22:32:09Z</time>
      </trkpt>
      <trkpt lat="44.36404" lon="1.68482">
        <ele>293.625</ele>
        <time>2019-10-30T22:31:49Z</time>
      </trkpt>
      <trkpt lat="44.36307" lon="1.68381">
        <ele>303.699</ele>
        <time>2019-10-30T22:31:29Z</time>
      </trkpt>
      <trkpt lat="44.36256" lon="1.68296">
        <ele>303.308</ele>
        <time>2019-10-30T22:31:09Z</time>
      </trkpt>
      <trkpt lat="44.36155" lon="1.68178">
        <ele>296.11</ele>
        <time>2019-10-30T22:30:49Z</time>
      </trkpt>
      <trkpt lat="44.36119" lon="1.68155">
        <ele>297.355</ele>
        <time>2019-10-30T22:30:29Z</time>
      </trkpt>
      <trkpt lat="44.35776" lon="1.67779">
        <ele>302.134</ele>
        <time>2019-10-30T22:30:09Z</time>
      </trkpt>
      <trkpt lat="44.35837" lon="1.67716">
        <ele>299.837</ele>
        <time>2019-10-30T22:29:49Z</time>
      </trkpt>
      <trkpt lat="44.35957" lon="1.6762">
        <ele>294.578</ele>
        <time>2019-10-30T22:29:29Z</time>
      </trkpt>
      <trkpt lat="44.36068" lon="1.6755">
        <ele>290.192</ele>
        <time>2019-10-30T22:29:09Z</time>
      </trkpt>
      <trkpt lat="44.36157" lon="1.67469">
        <ele>286.28</ele>
        <time>2019-10-30T22:28:49Z</time>
      </trkpt>
      <trkpt lat="44.36188" lon="1.67405">
        <ele>284.814</ele>
        <time>2019-10-30T22:28:29Z</time>
      </trkpt>
      <trkpt lat="44.36251" lon="1.67415">
        <ele>284.021</ele>
        <time>2019-10-30T22:28:09Z</time>
      </trkpt>
      <trkpt lat="44.36318" lon="1.67413">
        <ele>284.136</ele>
        <time>2019-10-30T22:27:49Z</time>
      </trkpt>
      <trkpt lat="44.3638" lon="1.67448">
        <ele>286.42</ele>
        <time>2019-10-30T22:27:29Z</time>
      </trkpt>
      <trkpt lat="44.3642" lon="1.67428">
        <ele>288.708</ele>
        <time>2019-10-30T22:27:09Z</time>
      </trkpt>
      <trkpt lat="44.36458" lon="1.67381">
        <ele>291.822</ele>
        <time>2019-10-30T22:26:49Z</time>
      </trkpt>
      <trkpt lat="44.36498" lon="1.67379">
        <ele>293.902</ele>
        <time>2019-10-30T22:26:29Z</time>
      </trkpt>
      <trkpt lat="44.36528" lon="1.6736">
        <ele>295.049</ele>
        <time>2019-10-30T22:26:09Z</time>
      </trkpt>
      <trkpt lat="44.36598" lon="1.67371">
        <ele>293.666</ele>
        <time>2019-10-30T22:25:49Z</time>
      </trkpt>
      <trkpt lat="44.36667" lon="1.67007">
        <ele>296.227</ele>
        <time>2019-10-30T22:25:29Z</time>
      </trkpt>
      <trkpt lat="44.36686" lon="1.66805">
        <ele>298.351</ele>
        <time>2019-10-30T22:25:09Z</time>
      </trkpt>
      <trkpt lat="44.36741" lon="1.6666">
        <ele>299.729</ele>
        <time>2019-10-30T22:24:49Z</time>
      </trkpt>
      <trkpt lat="44.36708" lon="1.66644">
        <ele>301.053</ele>
        <time>2019-10-30T22:24:29Z</time>
      </trkpt>
      <trkpt lat="44.36693" lon="1.66625">
        <ele>300.95</ele>
        <time>2019-10-30T22:24:09Z</time>
      </trkpt>
      <trkpt lat="44.36894" lon="1.66405">
        <ele>302.845</ele>
        <time>2019-10-30T22:23:49Z</time>
      </trkpt>
      <trkpt lat="44.37118" lon="1.66239">
        <ele>297.939</ele>
        <time>2019-10-30T22:23:29Z</time>
      </trkpt>
      <trkpt lat="44.37181" lon="1.66252">
        <ele>296.008</ele>
        <time>2019-10-30T22:23:09Z</time>
      </trkpt>
      <trkpt lat="44.37241" lon="1.66231">
        <ele>288.813</ele>
        <time>2019-10-30T22:22:49Z</time>
      </trkpt>
      <trkpt lat="44.37386" lon="1.6613">
        <ele>280.149</ele>
        <time>2019-10-30T22:22:29Z</time>
      </trkpt>
      <trkpt lat="44.3742" lon="1.66085">
        <ele>280.037</ele>
        <time>2019-10-30T22:22:09Z</time>
      </trkpt>
      <trkpt lat="44.37489" lon="1.65761">
        <ele>289.837</ele>
        <time>2019-10-30T22:21:49Z</time>
      </trkpt>
      <trkpt lat="44.37797" lon="1.65512">
        <ele>299.078</ele>
        <time>2019-10-30T22:21:29Z</time>
      </trkpt>
      <trkpt lat="44.37878" lon="1.65595">
        <ele>297.512</ele>
        <time>2019-10-30T22:21:09Z</time>
      </trkpt>
      <trkpt lat="44.37932" lon="1.658">
        <ele>290.43</ele>
        <time>2019-10-30T22:20:49Z</time>
      </trkpt>
      <trkpt lat="44.38156" lon="1.65966">
        <ele>283.974</ele>
        <time>2019-10-30T22:20:29Z</time>
      </trkpt>
      <trkpt lat="44.38217" lon="1.66125">
        <ele>277.711</ele>
        <time>2019-10-30T22:20:09Z</time>
      </trkpt>
      <trkpt lat="44.38296" lon="1.66197">
        <ele>272.386</ele>
        <time>2019-10-30T22:19:49Z</time>
      </trkpt>
      <trkpt lat="44.38512" lon="1.6634">
        <ele>267.57</ele>
        <time>2019-10-30T22:19:29Z</time>
      </trkpt>
      <trkpt lat="44.38657" lon="1.66355">
        <ele>265.608</ele>
        <time>2019-10-30T22:19:09Z</time>
      </trkpt>
      <trkpt lat="44.38777" lon="1.66205">
        <ele>268.921</ele>
        <time>2019-10-30T22:18:49Z</time>
      </trkpt>
      <trkpt lat="44.38833" lon="1.66169">
        <ele>270.029</ele>
        <time>2019-10-30T22:18:29Z</time>
      </trkpt>
      <trkpt lat="44.3893" lon="1.66075">
        <ele>271.047</ele>
        <time>2019-10-30T22:18:09Z</time>
      </trkpt>
      <trkpt lat="44.39034" lon="1.65912">
        <ele>265.787</ele>
        <time>2019-10-30T22:17:49Z</time>
      </trkpt>
      <trkpt lat="44.39148" lon="1.65732">
        <ele>266.388</ele>
        <time>2019-10-30T22:17:29Z</time>
      </trkpt>
      <trkpt lat="44.39213" lon="1.65631">
        <ele>269.632</ele>
        <time>2019-10-30T22:17:09Z</time>
      </trkpt>
      <trkpt lat="44.39281" lon="1.6554">
        <ele>267.63</ele>
        <time>2019-10-30T22:16:49Z</time>
      </trkpt>
      <trkpt lat="44.39353" lon="1.65519">
        <ele>269.874</ele>
        <time>2019-10-30T22:16:29Z</time>
      </trkpt>
      <trkpt lat="44.39561" lon="1.65278">
        <ele>266.061</ele>
        <time>2019-10-30T22:16:09Z</time>
      </trkpt>
      <trkpt lat="44.39661" lon="1.65125">
        <ele>265.166</ele>
        <time>2019-10-30T22:15:49Z</time>
      </trkpt>
      <trkpt lat="44.39729" lon="1.6508">
        <ele>269.28</ele>
        <time>2019-10-30T22:15:29Z</time>
      </trkpt>
      <trkpt lat="44.39788" lon="1.65018">
        <ele>273.708</ele>
        <time>2019-10-30T22:15:09Z</time>
      </trkpt>
      <trkpt lat="44.39853" lon="1.6494">
        <ele>275.717</ele>
        <time>2019-10-30T22:14:49Z</time>
      </trkpt>
      <trkpt lat="44.39903" lon="1.64922">
        <ele>278.061</ele>
        <time>2019-10-30T22:14:29Z</time>
      </trkpt>
      <trkpt lat="44.39956" lon="1.64867">
        <ele>279.248</ele>
        <time>2019-10-30T22:14:09Z</time>
      </trkpt>
      <trkpt lat="44.39967" lon="1.64836">
        <ele>278.815</ele>
        <time>2019-10-30T22:13:49Z</time>
      </trkpt>
      <trkpt lat="44.40029" lon="1.64716">
        <ele>281.386</ele>
        <time>2019-10-30T22:13:29Z</time>
      </trkpt>
      <trkpt lat="44.40073" lon="1.64576">
        <ele>280.91</ele>
        <time>2019-10-30T22:13:09Z</time>
      </trkpt>
      <trkpt lat="44.40114" lon="1.64511">
        <ele>282.048</ele>
        <time>2019-10-30T22:12:49Z</time>
      </trkpt>
      <trkpt lat="44.40167" lon="1.64465">
        <ele>281.372</ele>
        <time>2019-10-30T22:12:29Z</time>
      </trkpt>
      <trkpt lat="44.40195" lon="1.6446">
        <ele>277.899</ele>
        <time>2019-10-30T22:12:09Z</time>
      </trkpt>
      <trkpt lat="44.40214" lon="1.64433">
        <ele>277.284</ele>
        <time>2019-10-30T22:11:49Z</time>
      </trkpt>
      <trkpt lat="44.40254" lon="1.64439">
        <ele>272.348</ele>
        <time>2019-10-30T22:11:29Z</time>
      </trkpt>
      <trkpt lat="44.40307" lon="1.64464">
        <ele>270.208</ele>
        <time>2019-10-30T22:11:09Z</time>
      </trkpt>
      <trkpt lat="44.40347" lon="1.64447">
        <ele>273.111</ele>
        <time>2019-10-30T22:10:49Z</time>
      </trkpt>
      <trkpt lat="44.40374" lon="1.64447">
        <ele>275.547</ele>
        <time>2019-10-30T22:10:29Z</time>
      </trkpt>
      <trkpt lat="44.4039" lon="1.64405">
        <ele>275.126</ele>
        <time>2019-10-30T22:10:09Z</time>
      </trkpt>
      <trkpt lat="44.40424" lon="1.64392">
        <ele>278.041</ele>
        <time>2019-10-30T22:09:49Z</time>
      </trkpt>
      <trkpt lat="44.40442" lon="1.64364">
        <ele>278.022</ele>
        <time>2019-10-30T22:09:29Z</time>
      </trkpt>
      <trkpt lat="44.40432" lon="1.64304">
        <ele>274.926</ele>
        <time>2019-10-30T22:09:09Z</time>
      </trkpt>
      <trkpt lat="44.40473" lon="1.64234">
        <ele>272.644</ele>
        <time>2019-10-30T22:08:49Z</time>
      </trkpt>
      <trkpt lat="44.40483" lon="1.64182">
        <ele>273.088</ele>
        <time>2019-10-30T22:08:29Z</time>
      </trkpt>
      <trkpt lat="44.4052" lon="1.64117">
        <ele>273.975</ele>
        <time>2019-10-30T22:08:09Z</time>
      </trkpt>
      <trkpt lat="44.40561" lon="1.64104">
        <ele>273.92</ele>
        <time>2019-10-30T22:07:49Z</time>
      </trkpt>
      <trkpt lat="44.40611" lon="1.64125">
        <ele>275.524</ele>
        <time>2019-10-30T22:07:29Z</time>
      </trkpt>
      <trkpt lat="44.40706" lon="1.64215">
        <ele>283.008</ele>
        <time>2019-10-30T22:07:09Z</time>
      </trkpt>
      <trkpt lat="44.40724" lon="1.64254">
        <ele>285.326</ele>
        <time>2019-10-30T22:06:49Z</time>
      </trkpt>
      <trkpt lat="44.40858" lon="1.64346">
        <ele>277.86</ele>
        <time>2019-10-30T22:06:29Z</time>
      </trkpt>
      <trkpt lat="44.40939" lon="1.6434">
        <ele>279.286</ele>
        <time>2019-10-30T22:06:09Z</time>
      </trkpt>
      <trkpt lat="44.41176" lon="1.64381">
        <ele>276.951</ele>
        <time>2019-10-30T22:05:49Z</time>
      </trkpt>
      <trkpt lat="44.41216" lon="1.64371">
        <ele>278.052</ele>
        <time>2019-10-30T22:05:29Z</time>
      </trkpt>
      <trkpt lat="44.41275" lon="1.64369">
        <ele>281.386</ele>
        <time>2019-10-30T22:05:09Z</time>
      </trkpt>
      <trkpt lat="44.41389" lon="1.64382">
        <ele>288.584</ele>
        <time>2019-10-30T22:04:49Z</time>
      </trkpt>
      <trkpt lat="44.41453" lon="1.64355">
        <ele>290.728</ele>
        <time>2019-10-30T22:04:29Z</time>
      </trkpt>
      <trkpt lat="44.41571" lon="1.64309">
        <ele>283.275</ele>
        <time>2019-10-30T22:04:09Z</time>
      </trkpt>
      <trkpt lat="44.41651" lon="1.64296">
        <ele>279.96</ele>
        <time>2019-10-30T22:03:49Z</time>
      </trkpt>
      <trkpt lat="44.41712" lon="1.64301">
        <ele>279.584</ele>
        <time>2019-10-30T22:03:29Z</time>
      </trkpt>
      <trkpt lat="44.41735" lon="1.64291">
        <ele>281.208</ele>
        <time>2019-10-30T22:03:09Z</time>
      </trkpt>
      <trkpt lat="44.41813" lon="1.64311">
        <ele>284.417</ele>
        <time>2019-10-30T22:02:49Z</time>
      </trkpt>
      <trkpt lat="44.41849" lon="1.64338">
        <ele>285.689</ele>
        <time>2019-10-30T22:02:29Z</time>
      </trkpt>
      <trkpt lat="44.41898" lon="1.64337">
        <ele>287.185</ele>
        <time>2019-10-30T22:02:09Z</time>
      </trkpt>
      <trkpt lat="44.41967" lon="1.64316">
        <ele>293.014</ele>
        <time>2019-10-30T22:01:49Z</time>
      </trkpt>
      <trkpt lat="44.42056" lon="1.64329">
        <ele>298.475</ele>
        <time>2019-10-30T22:01:29Z</time>
      </trkpt>
      <trkpt lat="44.42167" lon="1.64337">
        <ele>302.829</ele>
        <time>2019-10-30T22:01:09Z</time>
      </trkpt>
      <trkpt lat="44.42258" lon="1.6433">
        <ele>309.037</ele>
        <time>2019-10-30T22:00:49Z</time>
      </trkpt>
      <trkpt lat="44.42318" lon="1.64312">
        <ele>315.521</ele>
        <time>2019-10-30T22:00:29Z</time>
      </trkpt>
      <trkpt lat="44.4233" lon="1.64335">
        <ele>315.688</ele>
        <time>2019-10-30T22:00:09Z</time>
      </trkpt>
      <trkpt lat="44.42325" lon="1.64376">
        <ele>315.563</ele>
        <time>2019-10-30T21:59:49Z</time>
      </trkpt>
      <trkpt lat="44.42373" lon="1.6434">
        <ele>321.177</ele>
        <time>2019-10-30T21:59:29Z</time>
      </trkpt>
      <trkpt lat="44.42405" lon="1.64333">
        <ele>324.808</ele>
        <time>2019-10-30T21:59:09Z</time>
      </trkpt>
      <trkpt lat="44.42528" lon="1.64283">
        <ele>334.607</ele>
        <time>2019-10-30T21:58:49Z</time>
      </trkpt>
      <trkpt lat="44.42563" lon="1.64259">
        <ele>337.443</ele>
        <time>2019-10-30T21:58:29Z</time>
      </trkpt>
      <trkpt lat="44.42627" lon="1.64262">
        <ele>344.613</ele>
        <time>2019-10-30T21:58:09Z</time>
      </trkpt>
      <trkpt lat="44.42598" lon="1.64368">
        <ele>351.337</ele>
        <time>2019-10-30T21:57:49Z</time>
      </trkpt>
      <trkpt lat="44.42614" lon="1.64389">
        <ele>354.378</ele>
        <time>2019-10-30T21:57:29Z</time>
      </trkpt>
      <trkpt lat="44.427" lon="1.64411">
        <ele>362.252</ele>
        <time>2019-10-30T21:57:09Z</time>
      </trkpt>
      <trkpt lat="44.42726" lon="1.64423">
        <ele>362.85</ele>
        <time>2019-10-30T21:56:49Z</time>
      </trkpt>
      <trkpt lat="44.42772" lon="1.64429">
        <ele>364.994</ele>
        <time>2019-10-30T21:56:29Z</time>
      </trkpt>
      <trkpt lat="44.42844" lon="1.64459">
        <ele>362.121</ele>
        <time>2019-10-30T21:56:09Z</time>
      </trkpt>
      <trkpt lat="44.42863" lon="1.64486">
        <ele>360.446</ele>
        <time>2019-10-30T21:55:49Z</time>
      </trkpt>
      <trkpt lat="44.42913" lon="1.64506">
        <ele>357.31</ele>
        <time>2019-10-30T21:55:29Z</time>
      </trkpt>
      <trkpt lat="44.43097" lon="1.64532">
        <ele>339.408</ele>
        <time>2019-10-30T21:55:09Z</time>
      </trkpt>
      <trkpt lat="44.43181" lon="1.64581">
        <ele>328.009</ele>
        <time>2019-10-30T21:54:49Z</time>
      </trkpt>
      <trkpt lat="44.43206" lon="1.64574">
        <ele>324.981</ele>
        <time>2019-10-30T21:54:29Z</time>
      </trkpt>
      <trkpt lat="44.43276" lon="1.64587">
        <ele>324.341</ele>
        <time>2019-10-30T21:54:09Z</time>
      </trkpt>
      <trkpt lat="44.43348" lon="1.64568">
        <ele>324.73</ele>
        <time>2019-10-30T21:53:49Z</time>
      </trkpt>
      <trkpt lat="44.43439" lon="1.64595">
        <ele>321.731</ele>
        <time>2019-10-30T21:53:29Z</time>
      </trkpt>
      <trkpt lat="44.43452" lon="1.64639">
        <ele>316.795</ele>
        <time>2019-10-30T21:53:09Z</time>
      </trkpt>
      <trkpt lat="44.43477" lon="1.64678">
        <ele>313.033</ele>
        <time>2019-10-30T21:52:49Z</time>
      </trkpt>
      <trkpt lat="44.43533" lon="1.64729">
        <ele>316.767</ele>
        <time>2019-10-30T21:52:29Z</time>
      </trkpt>
      <trkpt lat="44.43553" lon="1.64786">
        <ele>324.134</ele>
        <time>2019-10-30T21:52:09Z</time>
      </trkpt>
      <trkpt lat="44.43626" lon="1.64896">
        <ele>322.119</ele>
        <time>2019-10-30T21:51:49Z</time>
      </trkpt>
      <trkpt lat="44.43615" lon="1.65016">
        <ele>317.093</ele>
        <time>2019-10-30T21:51:29Z</time>
      </trkpt>
      <trkpt lat="44.43677" lon="1.65096">
        <ele>326.308</ele>
        <time>2019-10-30T21:51:09Z</time>
      </trkpt>
      <trkpt lat="44.4364" lon="1.65147">
        <ele>329.827</ele>
        <time>2019-10-30T21:50:49Z</time>
      </trkpt>
      <trkpt lat="44.43602" lon="1.65216">
        <ele>335.661</ele>
        <time>2019-10-30T21:50:29Z</time>
      </trkpt>
      <trkpt lat="44.43555" lon="1.65348">
        <ele>341.677</ele>
        <time>2019-10-30T21:50:09Z</time>
      </trkpt>
      <trkpt lat="44.43589" lon="1.65519">
        <ele>355.664</ele>
        <time>2019-10-30T21:49:49Z</time>
      </trkpt>
      <trkpt lat="44.43636" lon="1.65525">
        <ele>357.825</ele>
        <time>2019-10-30T21:49:29Z</time>
      </trkpt>
      <trkpt lat="44.43764" lon="1.65579">
        <ele>358.979</ele>
        <time>2019-10-30T21:49:09Z</time>
      </trkpt>
      <trkpt lat="44.43866" lon="1.65629">
        <ele>369.127</ele>
        <time>2019-10-30T21:48:49Z</time>
      </trkpt>
      <trkpt lat="44.43906" lon="1.6567">
        <ele>370.871</ele>
        <time>2019-10-30T21:48:29Z</time>
      </trkpt>
      <trkpt lat="44.43978" lon="1.6583">
        <ele>376.918</ele>
        <time>2019-10-30T21:48:09Z</time>
      </trkpt>
      <trkpt lat="44.44025" lon="1.65859">
        <ele>373.013</ele>
        <time>2019-10-30T21:47:49Z</time>
      </trkpt>
      <trkpt lat="44.44049" lon="1.6589">
        <ele>371.747</ele>
        <time>2019-10-30T21:47:29Z</time>
      </trkpt>
      <trkpt lat="44.44068" lon="1.65945">
        <ele>371.308</ele>
        <time>2019-10-30T21:47:09Z</time>
      </trkpt>
      <trkpt lat="44.44081" lon="1.66047">
        <ele>370.913</ele>
        <time>2019-10-30T21:46:49Z</time>
      </trkpt>
      <trkpt lat="44.4411" lon="1.66116">
        <ele>371.576</ele>
        <time>2019-10-30T21:46:29Z</time>
      </trkpt>
      <trkpt lat="44.44317" lon="1.66352">
        <ele>353.016</ele>
        <time>2019-10-30T21:46:09Z</time>
      </trkpt>
      <trkpt lat="44.4437" lon="1.66379">
        <ele>353.277</ele>
        <time>2019-10-30T21:45:49Z</time>
      </trkpt>
      <trkpt lat="44.44365" lon="1.6642">
        <ele>354.988</ele>
        <time>2019-10-30T21:45:29Z</time>
      </trkpt>
      <trkpt lat="44.44413" lon="1.66472">
        <ele>353.342</ele>
        <time>2019-10-30T21:45:09Z</time>
      </trkpt>
      <trkpt lat="44.44495" lon="1.66504">
        <ele>344.35</ele>
        <time>2019-10-30T21:44:49Z</time>
      </trkpt>
      <trkpt lat="44.44535" lon="1.66501">
        <ele>340.364</ele>
        <time>2019-10-30T21:44:29Z</time>
      </trkpt>
      <trkpt lat="44.44608" lon="1.66462">
        <ele>340.211</ele>
        <time>2019-10-30T21:44:09Z</time>
      </trkpt>
      <trkpt lat="44.44642" lon="1.66428">
        <ele>339.536</ele>
        <time>2019-10-30T21:43:49Z</time>
      </trkpt>
      <trkpt lat="44.44679" lon="1.66438">
        <ele>331.34</ele>
        <time>2019-10-30T21:43:29Z</time>
      </trkpt>
      <trkpt lat="44.44736" lon="1.66473">
        <ele>325.008</ele>
        <time>2019-10-30T21:43:09Z</time>
      </trkpt>
      <trkpt lat="44.44808" lon="1.66478">
        <ele>327.714</ele>
        <time>2019-10-30T21:42:49Z</time>
      </trkpt>
      <trkpt lat="44.44823" lon="1.66486">
        <ele>330.222</ele>
        <time>2019-10-30T21:42:29Z</time>
      </trkpt>
      <trkpt lat="44.44852" lon="1.66469">
        <ele>333.542</ele>
        <time>2019-10-30T21:42:09Z</time>
      </trkpt>
      <trkpt lat="44.4489" lon="1.66477">
        <ele>338.056</ele>
        <time>2019-10-30T21:41:49Z</time>
      </trkpt>
      <trkpt lat="44.44938" lon="1.66506">
        <ele>336.177</ele>
        <time>2019-10-30T21:41:29Z</time>
      </trkpt>
      <trkpt lat="44.45042" lon="1.66493">
        <ele>335.821</ele>
        <time>2019-10-30T21:41:09Z</time>
      </trkpt>
      <trkpt lat="44.45192" lon="1.66514">
        <ele>340.969</ele>
        <time>2019-10-30T21:40:49Z</time>
      </trkpt>
      <trkpt lat="44.45255" lon="1.6655">
        <ele>342.183</ele>
        <time>2019-10-30T21:40:29Z</time>
      </trkpt>
      <trkpt lat="44.45323" lon="1.66569">
        <ele>346.76</ele>
        <time>2019-10-30T21:40:09Z</time>
      </trkpt>
      <trkpt lat="44.45408" lon="1.66561">
        <ele>355.025</ele>
        <time>2019-10-30T21:39:49Z</time>
      </trkpt>
      <trkpt lat="44.45505" lon="1.66586">
        <ele>360.489</ele>
        <time>2019-10-30T21:39:29Z</time>
      </trkpt>
      <trkpt lat="44.45573" lon="1.66574">
        <ele>364.308</ele>
        <time>2019-10-30T21:39:09Z</time>
      </trkpt>
      <trkpt lat="44.45603" lon="1.66638">
        <ele>368.818</ele>
        <time>2019-10-30T21:38:49Z</time>
      </trkpt>
      <trkpt lat="44.45645" lon="1.66779">
        <ele>366.017</ele>
        <time>2019-10-30T21:38:29Z</time>
      </trkpt>
      <trkpt lat="44.4566" lon="1.66838">
        <ele>358.436</ele>
        <time>2019-10-30T21:38:09Z</time>
      </trkpt>
      <trkpt lat="44.45693" lon="1.66818">
        <ele>360.672</ele>
        <time>2019-10-30T21:37:49Z</time>
      </trkpt>
      <trkpt lat="44.45747" lon="1.66839">
        <ele>359.183</ele>
        <time>2019-10-30T21:37:29Z</time>
      </trkpt>
      <trkpt lat="44.45786" lon="1.66939">
        <ele>344.957</ele>
        <time>2019-10-30T21:37:09Z</time>
      </trkpt>
      <trkpt lat="44.45821" lon="1.66982">
        <ele>338.855</ele>
        <time>2019-10-30T21:36:49Z</time>
      </trkpt>
      <trkpt lat="44.45879" lon="1.67013">
        <ele>336.849</ele>
        <time>2019-10-30T21:36:29Z</time>
      </trkpt>
      <trkpt lat="44.45906" lon="1.67108">
        <ele>340.816</ele>
        <time>2019-10-30T21:36:09Z</time>
      </trkpt>
      <trkpt lat="44.45936" lon="1.6714">
        <ele>340.561</ele>
        <time>2019-10-30T21:35:49Z</time>
      </trkpt>
      <trkpt lat="44.45997" lon="1.6713">
        <ele>342.015</ele>
        <time>2019-10-30T21:35:29Z</time>
      </trkpt>
      <trkpt lat="44.46038" lon="1.67129">
        <ele>341.008</ele>
        <time>2019-10-30T21:35:09Z</time>
      </trkpt>
      <trkpt lat="44.46081" lon="1.6715">
        <ele>340.926</ele>
        <time>2019-10-30T21:34:49Z</time>
      </trkpt>
      <trkpt lat="44.46155" lon="1.67155">
        <ele>332.515</ele>
        <time>2019-10-30T21:34:29Z</time>
      </trkpt>
      <trkpt lat="44.46188" lon="1.67158">
        <ele>321.398</ele>
        <time>2019-10-30T21:34:09Z</time>
      </trkpt>
      <trkpt lat="44.46187" lon="1.67231">
        <ele>322.921</ele>
        <time>2019-10-30T21:33:49Z</time>
      </trkpt>
      <trkpt lat="44.46239" lon="1.67329">
        <ele>305.052</ele>
        <time>2019-10-30T21:33:29Z</time>
      </trkpt>
      <trkpt lat="44.46299" lon="1.6736">
        <ele>278.916</ele>
        <time>2019-10-30T21:33:09Z</time>
      </trkpt>
      <trkpt lat="44.4629" lon="1.67275">
        <ele>275.744</ele>
        <time>2019-10-30T21:32:49Z</time>
      </trkpt>
      <trkpt lat="44.46307" lon="1.67142">
        <ele>258.858</ele>
        <time>2019-10-30T21:32:29Z</time>
      </trkpt>
      <trkpt lat="44.46331" lon="1.6707">
        <ele>249.345</ele>
        <time>2019-10-30T21:32:09Z</time>
      </trkpt>
      <trkpt lat="44.46408" lon="1.66995">
        <ele>220.67</ele>
        <time>2019-10-30T21:31:49Z</time>
      </trkpt>
      <trkpt lat="44.46413" lon="1.6688">
        <ele>230.684</ele>
        <time>2019-10-30T21:31:29Z</time>
      </trkpt>
      <trkpt lat="44.46455" lon="1.66877">
        <ele>224.708</ele>
        <time>2019-10-30T21:31:09Z</time>
      </trkpt>
      <trkpt lat="44.46467" lon="1.66848">
        <ele>226.317</ele>
        <time>2019-10-30T21:30:49Z</time>
      </trkpt>
      <trkpt lat="44.46476" lon="1.66805">
        <ele>229.689</ele>
        <time>2019-10-30T21:30:29Z</time>
      </trkpt>
      <trkpt lat="44.46503" lon="1.66807">
        <ele>216.685</ele>
        <time>2019-10-30T21:30:09Z</time>
      </trkpt>
      <trkpt lat="44.4651" lon="1.66787">
        <ele>215.138</ele>
        <time>2019-10-30T21:29:49Z</time>
      </trkpt>
      <trkpt lat="44.46551" lon="1.66739">
        <ele>200.869</ele>
        <time>2019-10-30T21:29:29Z</time>
      </trkpt>
      <trkpt lat="44.46571" lon="1.66717">
        <ele>194.493</ele>
        <time>2019-10-30T21:29:09Z</time>
      </trkpt>
      <trkpt lat="44.466" lon="1.66726">
        <ele>178.751</ele>
        <time>2019-10-30T21:28:49Z</time>
      </trkpt>
      <trkpt lat="44.46612" lon="1.66702">
        <ele>183.295</ele>
        <time>2019-10-30T21:28:29Z</time>
      </trkpt>
      <trkpt lat="44.4667" lon="1.66674">
        <ele>184.342</ele>
        <time>2019-10-30T21:28:09Z</time>
      </trkpt>
      <trkpt lat="44.46709" lon="1.66669">
        <ele>167.547</ele>
        <time>2019-10-30T21:27:49Z</time>
      </trkpt>
      <trkpt lat="44.4673" lon="1.66637">
        <ele>175.721</ele>
        <time>2019-10-30T21:27:29Z</time>
      </trkpt>
      <trkpt lat="44.46853" lon="1.66499">
        <ele>151.408</ele>
        <time>2019-10-30T21:27:09Z</time>
      </trkpt>
      <trkpt lat="44.46862" lon="1.66458">
        <ele>164.611</ele>
        <time>2019-10-30T21:26:49Z</time>
      </trkpt>
      <trkpt lat="44.46911" lon="1.66414">
        <ele>158.401</ele>
        <time>2019-10-30T21:26:29Z</time>
      </trkpt>
      <trkpt lat="44.46968" lon="1.66336">
        <ele>148.451</ele>
        <time>2019-10-30T21:26:09Z</time>
      </trkpt>
      <trkpt lat="44.46976" lon="1.66306">
        <ele>148.057</ele>
        <time>2019-10-30T21:25:49Z</time>
      </trkpt>
      <trkpt lat="44.47017" lon="1.66235">
        <ele>141.728</ele>
        <time>2019-10-30T21:25:29Z</time>
      </trkpt>
      <trkpt lat="44.47047" lon="1.66161">
        <ele>142.212</ele>
        <time>2019-10-30T21:25:09Z</time>
      </trkpt>
      <trkpt lat="44.47099" lon="1.66113">
        <ele>142.18</ele>
        <time>2019-10-30T21:24:49Z</time>
      </trkpt>
      <trkpt lat="44.47131" lon="1.66044">
        <ele>148.064</ele>
        <time>2019-10-30T21:24:29Z</time>
      </trkpt>
      <trkpt lat="44.4716" lon="1.65887">
        <ele>143.081</ele>
        <time>2019-10-30T21:24:09Z</time>
      </trkpt>
      <trkpt lat="44.47178" lon="1.65697">
        <ele>141.096</ele>
        <time>2019-10-30T21:23:49Z</time>
      </trkpt>
      <trkpt lat="44.4716" lon="1.65556">
        <ele>137.24</ele>
        <time>2019-10-30T21:23:29Z</time>
      </trkpt>
      <trkpt lat="44.4729" lon="1.65559">
        <ele>133.908</ele>
        <time>2019-10-30T21:23:09Z</time>
      </trkpt>
      <trkpt lat="44.47282" lon="1.65349">
        <ele>133.617</ele>
        <time>2019-10-30T21:22:49Z</time>
      </trkpt>
      <trkpt lat="44.47278" lon="1.65156">
        <ele>134.061</ele>
        <time>2019-10-30T21:22:29Z</time>
      </trkpt>
      <trkpt lat="44.47295" lon="1.65011">
        <ele>134.248</ele>
        <time>2019-10-30T21:22:09Z</time>
      </trkpt>
      <trkpt lat="44.47331" lon="1.64857">
        <ele>141.268</ele>
        <time>2019-10-30T21:21:49Z</time>
      </trkpt>
      <trkpt lat="44.47385" lon="1.64761">
        <ele>179.039</ele>
        <time>2019-10-30T21:21:29Z</time>
      </trkpt>
      <trkpt lat="44.47439" lon="1.64689">
        <ele>190.623</ele>
        <time>2019-10-30T21:21:09Z</time>
      </trkpt>
      <trkpt lat="44.47526" lon="1.64595">
        <ele>189.031</ele>
        <time>2019-10-30T21:20:49Z</time>
      </trkpt>
      <trkpt lat="44.47682" lon="1.64547">
        <ele>190.325</ele>
        <time>2019-10-30T21:20:29Z</time>
      </trkpt>
      <trkpt lat="44.47828" lon="1.64535">
        <ele>191.452</ele>
        <time>2019-10-30T21:20:09Z</time>
      </trkpt>
      <trkpt lat="44.47876" lon="1.6457">
        <ele>169.827</ele>
        <time>2019-10-30T21:19:49Z</time>
      </trkpt>
      <trkpt lat="44.47986" lon="1.64593">
        <ele>159.081</ele>
        <time>2019-10-30T21:19:29Z</time>
      </trkpt>
      <trkpt lat="44.48115" lon="1.64595">
        <ele>135.008</ele>
        <time>2019-10-30T21:19:09Z</time>
      </trkpt>
      <trkpt lat="44.4827" lon="1.64565">
        <ele>132.811</ele>
        <time>2019-10-30T21:18:49Z</time>
      </trkpt>
      <trkpt lat="44.48348" lon="1.64538">
        <ele>133.556</ele>
        <time>2019-10-30T21:18:29Z</time>
      </trkpt>
      <trkpt lat="44.48419" lon="1.64462">
        <ele>135.754</ele>
        <time>2019-10-30T21:18:09Z</time>
      </trkpt>
      <trkpt lat="44.48434" lon="1.64469">
        <ele>137.022</ele>
        <time>2019-10-30T21:17:49Z</time>
      </trkpt>
      <trkpt lat="44.48465" lon="1.64455">
        <ele>134.063</ele>
        <time>2019-10-30T21:17:29Z</time>
      </trkpt>
      <trkpt lat="44.48509" lon="1.64367">
        <ele>131.437</ele>
        <time>2019-10-30T21:17:09Z</time>
      </trkpt>
      <trkpt lat="44.48537" lon="1.64262">
        <ele>133.765</ele>
        <time>2019-10-30T21:16:49Z</time>
      </trkpt>
      <trkpt lat="44.48488" lon="1.64209">
        <ele>141.329</ele>
        <time>2019-10-30T21:16:29Z</time>
      </trkpt>
      <trkpt lat="44.48499" lon="1.64126">
        <ele>139.646</ele>
        <time>2019-10-30T21:16:09Z</time>
      </trkpt>
      <trkpt lat="44.48512" lon="1.6402">
        <ele>144.861</ele>
        <time>2019-10-30T21:15:49Z</time>
      </trkpt>
      <trkpt lat="44.48501" lon="1.6391">
        <ele>145.465</ele>
        <time>2019-10-30T21:15:29Z</time>
      </trkpt>
      <trkpt lat="44.48517" lon="1.63854">
        <ele>147.708</ele>
        <time>2019-10-30T21:15:09Z</time>
      </trkpt>
      <trkpt lat="44.48499" lon="1.63822">
        <ele>150.823</ele>
        <time>2019-10-30T21:14:49Z</time>
      </trkpt>
      <trkpt lat="44.48504" lon="1.63737">
        <ele>155.049</ele>
        <time>2019-10-30T21:14:29Z</time>
      </trkpt>
      <trkpt lat="44.48489" lon="1.63659">
        <ele>155.795</ele>
        <time>2019-10-30T21:14:09Z</time>
      </trkpt>
      <trkpt lat="44.48489" lon="1.63574">
        <ele>155.217</ele>
        <time>2019-10-30T21:13:49Z</time>
      </trkpt>
      <trkpt lat="44.48478" lon="1.63505">
        <ele>155.848</ele>
        <time>2019-10-30T21:13:29Z</time>
      </trkpt>
      <trkpt lat="44.48504" lon="1.63408">
        <ele>158.692</ele>
        <time>2019-10-30T21:13:09Z</time>
      </trkpt>
      <trkpt lat="44.48521" lon="1.63286">
        <ele>156.54</ele>
        <time>2019-10-30T21:12:49Z</time>
      </trkpt>
      <trkpt lat="44.48496" lon="1.63146">
        <ele>152.164</ele>
        <time>2019-10-30T21:12:29Z</time>
      </trkpt>
      <trkpt lat="44.48511" lon="1.63013">
        <ele>152.631</ele>
        <time>2019-10-30T21:12:09Z</time>
      </trkpt>
      <trkpt lat="44.48568" lon="1.62868">
        <ele>150.756</ele>
        <time>2019-10-30T21:11:49Z</time>
      </trkpt>
      <trkpt lat="44.48596" lon="1.62705">
        <ele>153.57</ele>
        <time>2019-10-30T21:11:29Z</time>
      </trkpt>
      <trkpt lat="44.48647" lon="1.62544">
        <ele>155.008</ele>
        <time>2019-10-30T21:11:09Z</time>
      </trkpt>
      <trkpt lat="44.48649" lon="1.62371">
        <ele>149.722</ele>
        <time>2019-10-30T21:10:49Z</time>
      </trkpt>
      <trkpt lat="44.48642" lon="1.62307">
        <ele>151.502</ele>
        <time>2019-10-30T21:10:29Z</time>
      </trkpt>
      <trkpt lat="44.48601" lon="1.62258">
        <ele>151.749</ele>
        <time>2019-10-30T21:10:09Z</time>
      </trkpt>
      <trkpt lat="44.48583" lon="1.62203">
        <ele>153.777</ele>
        <time>2019-10-30T21:09:49Z</time>
      </trkpt>
      <trkpt lat="44.4855" lon="1.62139">
        <ele>156.448</ele>
        <time>2019-10-30T21:09:29Z</time>
      </trkpt>
      <trkpt lat="44.48509" lon="1.62072">
        <ele>157.172</ele>
        <time>2019-10-30T21:09:09Z</time>
      </trkpt>
      <trkpt lat="44.48466" lon="1.61851">
        <ele>150.95</ele>
        <time>2019-10-30T21:08:49Z</time>
      </trkpt>
      <trkpt lat="44.48448" lon="1.61798">
        <ele>150.834</ele>
        <time>2019-10-30T21:08:29Z</time>
      </trkpt>
      <trkpt lat="44.48481" lon="1.61773">
        <ele>149.451</ele>
        <time>2019-10-30T21:08:09Z</time>
      </trkpt>
      <trkpt lat="44.48502" lon="1.61725">
        <ele>151.326</ele>
        <time>2019-10-30T21:07:49Z</time>
      </trkpt>
      <trkpt lat="44.4853" lon="1.61693">
        <ele>153.96</ele>
        <time>2019-10-30T21:07:29Z</time>
      </trkpt>
      <trkpt lat="44.48542" lon="1.61619">
        <ele>149.908</ele>
        <time>2019-10-30T21:07:09Z</time>
      </trkpt>
      <trkpt lat="44.48581" lon="1.61598">
        <ele>142.015</ele>
        <time>2019-10-30T21:06:49Z</time>
      </trkpt>
      <trkpt lat="44.48566" lon="1.61504">
        <ele>135.805</ele>
        <time>2019-10-30T21:06:29Z</time>
      </trkpt>
      <trkpt lat="44.48532" lon="1.61401">
        <ele>135.944</ele>
        <time>2019-10-30T21:06:09Z</time>
      </trkpt>
      <trkpt lat="44.48466" lon="1.61306">
        <ele>138.674</ele>
        <time>2019-10-30T21:05:49Z</time>
      </trkpt>
      <trkpt lat="44.48402" lon="1.61228">
        <ele>138.775</ele>
        <time>2019-10-30T21:05:29Z</time>
      </trkpt>
      <trkpt lat="44.48304" lon="1.61168">
        <ele>138.429</ele>
        <time>2019-10-30T21:05:09Z</time>
      </trkpt>
      <trkpt lat="44.48263" lon="1.61138">
        <ele>135.557</ele>
        <time>2019-10-30T21:04:49Z</time>
      </trkpt>
      <trkpt lat="44.48148" lon="1.61178">
        <ele>139.491</ele>
        <time>2019-10-30T21:04:29Z</time>
      </trkpt>
      <trkpt lat="44.48115" lon="1.61168">
        <ele>138.258</ele>
        <time>2019-10-30T21:04:09Z</time>
      </trkpt>
      <trkpt lat="44.48027" lon="1.61161">
        <ele>141.633</ele>
        <time>2019-10-30T21:03:49Z</time>
      </trkpt>
      <trkpt lat="44.47882" lon="1.61104">
        <ele>140.467</ele>
        <time>2019-10-30T21:03:29Z</time>
      </trkpt>
      <trkpt lat="44.47797" lon="1.61044">
        <ele>133.608</ele>
        <time>2019-10-30T21:03:09Z</time>
      </trkpt>
      <trkpt lat="44.47713" lon="1.6101">
        <ele>132.705</ele>
        <time>2019-10-30T21:02:49Z</time>
      </trkpt>
      <trkpt lat="44.47651" lon="1.61012">
        <ele>134.732</ele>
        <time>2019-10-30T21:02:29Z</time>
      </trkpt>
      <trkpt lat="44.47598" lon="1.60994">
        <ele>134.712</ele>
        <time>2019-10-30T21:02:09Z</time>
      </trkpt>
      <trkpt lat="44.47564" lon="1.60996">
        <ele>139.758</ele>
        <time>2019-10-30T21:01:49Z</time>
      </trkpt>
      <trkpt lat="44.47526" lon="1.6098">
        <ele>138.699</ele>
        <time>2019-10-30T21:01:29Z</time>
      </trkpt>
      <trkpt lat="44.47421" lon="1.60943">
        <ele>134.773</ele>
        <time>2019-10-30T21:01:09Z</time>
      </trkpt>
      <trkpt lat="44.47405" lon="1.61063">
        <ele>158.331</ele>
        <time>2019-10-30T21:00:49Z</time>
      </trkpt>
      <trkpt lat="44.47369" lon="1.61115">
        <ele>164.735</ele>
        <time>2019-10-30T21:00:29Z</time>
      </trkpt>
      <trkpt lat="44.47326" lon="1.61122">
        <ele>169.072</ele>
        <time>2019-10-30T21:00:09Z</time>
      </trkpt>
      <trkpt lat="44.47383" lon="1.61178">
        <ele>173.047</ele>
        <time>2019-10-30T20:59:49Z</time>
      </trkpt>
      <trkpt lat="44.47413" lon="1.61178">
        <ele>174.961</ele>
        <time>2019-10-30T20:59:29Z</time>
      </trkpt>
      <trkpt lat="44.47413" lon="1.61194">
        <ele>176.808</ele>
        <time>2019-10-30T20:59:09Z</time>
      </trkpt>
      <trkpt lat="44.47349" lon="1.61256">
        <ele>188.117</ele>
        <time>2019-10-30T20:58:49Z</time>
      </trkpt>
      <trkpt lat="44.47305" lon="1.61256">
        <ele>197.052</ele>
        <time>2019-10-30T20:58:29Z</time>
      </trkpt>
      <trkpt lat="44.47275" lon="1.61281">
        <ele>206.758</ele>
        <time>2019-10-30T20:58:09Z</time>
      </trkpt>
      <trkpt lat="44.47242" lon="1.6127">
        <ele>211.261</ele>
        <time>2019-10-30T20:57:49Z</time>
      </trkpt>
      <trkpt lat="44.47063" lon="1.61249">
        <ele>244.432</ele>
        <time>2019-10-30T20:57:29Z</time>
      </trkpt>
      <trkpt lat="44.46973" lon="1.61283">
        <ele>265.316</ele>
        <time>2019-10-30T20:57:09Z</time>
      </trkpt>
      <trkpt lat="44.46934" lon="1.61309">
        <ele>272.314</ele>
        <time>2019-10-30T20:56:49Z</time>
      </trkpt>
      <trkpt lat="44.4688" lon="1.61394">
        <ele>285.138</ele>
        <time>2019-10-30T20:56:29Z</time>
      </trkpt>
      <trkpt lat="44.46845" lon="1.61417">
        <ele>289.735</ele>
        <time>2019-10-30T20:56:09Z</time>
      </trkpt>
      <trkpt lat="44.46798" lon="1.61477">
        <ele>297.35</ele>
        <time>2019-10-30T20:55:49Z</time>
      </trkpt>
      <trkpt lat="44.46714" lon="1.61513">
        <ele>304.824</ele>
        <time>2019-10-30T20:55:29Z</time>
      </trkpt>
      <trkpt lat="44.46699" lon="1.61534">
        <ele>304.408</ele>
        <time>2019-10-30T20:55:09Z</time>
      </trkpt>
      <trkpt lat="44.4666" lon="1.61527">
        <ele>307.317</ele>
        <time>2019-10-30T20:54:49Z</time>
      </trkpt>
      <trkpt lat="44.46647" lon="1.61495">
        <ele>309.989</ele>
        <time>2019-10-30T20:54:29Z</time>
      </trkpt>
      <trkpt lat="44.46597" lon="1.61463">
        <ele>309.785</ele>
        <time>2019-10-30T20:54:09Z</time>
      </trkpt>
      <trkpt lat="44.46509" lon="1.6144">
        <ele>306.198</ele>
        <time>2019-10-30T20:53:49Z</time>
      </trkpt>
      <trkpt lat="44.46464" lon="1.6144">
        <ele>302.629</ele>
        <time>2019-10-30T20:53:29Z</time>
      </trkpt>
      <trkpt lat="44.46192" lon="1.61375">
        <ele>302.873</ele>
        <time>2019-10-30T20:53:09Z</time>
      </trkpt>
      <trkpt lat="44.46175" lon="1.61327">
        <ele>307.491</ele>
        <time>2019-10-30T20:52:49Z</time>
      </trkpt>
      <trkpt lat="44.46133" lon="1.61313">
        <ele>309.335</ele>
        <time>2019-10-30T20:52:29Z</time>
      </trkpt>
      <trkpt lat="44.46088" lon="1.61348">
        <ele>312.122</ele>
        <time>2019-10-30T20:52:09Z</time>
      </trkpt>
      <trkpt lat="44.46036" lon="1.61421">
        <ele>315.667</ele>
        <time>2019-10-30T20:51:49Z</time>
      </trkpt>
      <trkpt lat="44.46024" lon="1.61495">
        <ele>316.141</ele>
        <time>2019-10-30T20:51:29Z</time>
      </trkpt>
      <trkpt lat="44.45982" lon="1.61568">
        <ele>319.608</ele>
        <time>2019-10-30T20:51:09Z</time>
      </trkpt>
      <trkpt lat="44.45956" lon="1.61635">
        <ele>319.514</ele>
        <time>2019-10-30T20:50:49Z</time>
      </trkpt>
      <trkpt lat="44.4587" lon="1.61746">
        <ele>327.659</ele>
        <time>2019-10-30T20:50:29Z</time>
      </trkpt>
      <trkpt lat="44.45706" lon="1.61872">
        <ele>339.756</ele>
        <time>2019-10-30T20:50:09Z</time>
      </trkpt>
      <trkpt lat="44.45644" lon="1.61884">
        <ele>344.199</ele>
        <time>2019-10-30T20:49:49Z</time>
      </trkpt>
      <trkpt lat="44.45609" lon="1.61923">
        <ele>347.02</ele>
        <time>2019-10-30T20:49:29Z</time>
      </trkpt>
      <trkpt lat="44.45585" lon="1.61982">
        <ele>348.884</ele>
        <time>2019-10-30T20:49:09Z</time>
      </trkpt>
      <trkpt lat="44.45542" lon="1.62017">
        <ele>349.342</ele>
        <time>2019-10-30T20:48:49Z</time>
      </trkpt>
      <trkpt lat="44.45543" lon="1.61948">
        <ele>349.116</ele>
        <time>2019-10-30T20:48:29Z</time>
      </trkpt>
      <trkpt lat="44.45534" lon="1.61881">
        <ele>349.743</ele>
        <time>2019-10-30T20:48:09Z</time>
      </trkpt>
      <trkpt lat="44.45496" lon="1.6175">
        <ele>344.458</ele>
        <time>2019-10-30T20:47:49Z</time>
      </trkpt>
      <trkpt lat="44.4544" lon="1.61665">
        <ele>342.462</ele>
        <time>2019-10-30T20:47:29Z</time>
      </trkpt>
      <trkpt lat="44.45389" lon="1.61546">
        <ele>340.008</ele>
        <time>2019-10-30T20:47:09Z</time>
      </trkpt>
      <trkpt lat="44.45368" lon="1.61414">
        <ele>343.824</ele>
        <time>2019-10-30T20:46:49Z</time>
      </trkpt>
      <trkpt lat="44.45328" lon="1.61306">
        <ele>347.204</ele>
        <time>2019-10-30T20:46:29Z</time>
      </trkpt>
      <trkpt lat="44.45284" lon="1.6127">
        <ele>349.869</ele>
        <time>2019-10-30T20:46:09Z</time>
      </trkpt>
      <trkpt lat="44.45237" lon="1.61189">
        <ele>354.494</ele>
        <time>2019-10-30T20:45:49Z</time>
      </trkpt>
      <trkpt lat="44.45053" lon="1.61051">
        <ele>348.255</ele>
        <time>2019-10-30T20:45:29Z</time>
      </trkpt>
      <trkpt lat="44.45117" lon="1.60982">
        <ele>346.359</ele>
        <time>2019-10-30T20:45:09Z</time>
      </trkpt>
      <trkpt lat="44.45161" lon="1.60842">
        <ele>326.467</ele>
        <time>2019-10-30T20:44:49Z</time>
      </trkpt>
      <trkpt lat="44.45171" lon="1.60706">
        <ele>311.361</ele>
        <time>2019-10-30T20:44:29Z</time>
      </trkpt>
      <trkpt lat="44.45159" lon="1.60667">
        <ele>307.948</ele>
        <time>2019-10-30T20:44:09Z</time>
      </trkpt>
      <trkpt lat="44.45168" lon="1.60626">
        <ele>302.363</ele>
        <time>2019-10-30T20:43:49Z</time>
      </trkpt>
      <trkpt lat="44.45179" lon="1.60527">
        <ele>288.877</ele>
        <time>2019-10-30T20:43:29Z</time>
      </trkpt>
      <trkpt lat="44.45168" lon="1.60446">
        <ele>285.908</ele>
        <time>2019-10-30T20:43:09Z</time>
      </trkpt>
      <trkpt lat="44.45187" lon="1.60419">
        <ele>283.309</ele>
        <time>2019-10-30T20:42:49Z</time>
      </trkpt>
      <trkpt lat="44.4522" lon="1.6032">
        <ele>282.554</ele>
        <time>2019-10-30T20:42:29Z</time>
      </trkpt>
      <trkpt lat="44.45274" lon="1.60225">
        <ele>284.114</ele>
        <time>2019-10-30T20:42:09Z</time>
      </trkpt>
      <trkpt lat="44.45314" lon="1.60097">
        <ele>290.064</ele>
        <time>2019-10-30T20:41:49Z</time>
      </trkpt>
      <trkpt lat="44.45348" lon="1.60014">
        <ele>290.885</ele>
        <time>2019-10-30T20:41:29Z</time>
      </trkpt>
      <trkpt lat="44.45366" lon="1.59949">
        <ele>289.729</ele>
        <time>2019-10-30T20:41:09Z</time>
      </trkpt>
      <trkpt lat="44.45407" lon="1.59903">
        <ele>287.717</ele>
        <time>2019-10-30T20:40:49Z</time>
      </trkpt>
      <trkpt lat="44.45461" lon="1.59874">
        <ele>290.891</ele>
        <time>2019-10-30T20:40:29Z</time>
      </trkpt>
      <trkpt lat="44.45499" lon="1.59798">
        <ele>283.828</ele>
        <time>2019-10-30T20:40:09Z</time>
      </trkpt>
      <trkpt lat="44.45555" lon="1.59733">
        <ele>284.073</ele>
        <time>2019-10-30T20:39:49Z</time>
      </trkpt>
      <trkpt lat="44.45606" lon="1.59598">
        <ele>277.767</ele>
        <time>2019-10-30T20:39:29Z</time>
      </trkpt>
      <trkpt lat="44.4567" lon="1.59496">
        <ele>264.608</ele>
        <time>2019-10-30T20:39:09Z</time>
      </trkpt>
      <trkpt lat="44.458" lon="1.5937">
        <ele>245.105</ele>
        <time>2019-10-30T20:38:49Z</time>
      </trkpt>
      <trkpt lat="44.45839" lon="1.59301">
        <ele>232.532</ele>
        <time>2019-10-30T20:38:29Z</time>
      </trkpt>
      <trkpt lat="44.45901" lon="1.59262">
        <ele>229.512</ele>
        <time>2019-10-30T20:38:09Z</time>
      </trkpt>
      <trkpt lat="44.45947" lon="1.59211">
        <ele>217.462</ele>
        <time>2019-10-30T20:37:49Z</time>
      </trkpt>
      <trkpt lat="44.46047" lon="1.59149">
        <ele>197.073</ele>
        <time>2019-10-30T20:37:29Z</time>
      </trkpt>
      <trkpt lat="44.46185" lon="1.59101">
        <ele>172.137</ele>
        <time>2019-10-30T20:37:09Z</time>
      </trkpt>
      <trkpt lat="44.46272" lon="1.59096">
        <ele>160.775</ele>
        <time>2019-10-30T20:36:49Z</time>
      </trkpt>
      <trkpt lat="44.46296" lon="1.59081">
        <ele>157.029</ele>
        <time>2019-10-30T20:36:29Z</time>
      </trkpt>
      <trkpt lat="44.46312" lon="1.59097">
        <ele>155.956</ele>
        <time>2019-10-30T20:36:09Z</time>
      </trkpt>
      <trkpt lat="44.46346" lon="1.59108">
        <ele>153.261</ele>
        <time>2019-10-30T20:35:49Z</time>
      </trkpt>
      <trkpt lat="44.46413" lon="1.59101">
        <ele>141.965</ele>
        <time>2019-10-30T20:35:29Z</time>
      </trkpt>
      <trkpt lat="44.46438" lon="1.59055">
        <ele>136.408</ele>
        <time>2019-10-30T20:35:09Z</time>
      </trkpt>
      <trkpt lat="44.46473" lon="1.59009">
        <ele>127.626</ele>
        <time>2019-10-30T20:34:49Z</time>
      </trkpt>
      <trkpt lat="44.46537" lon="1.58869">
        <ele>133.415</ele>
        <time>2019-10-30T20:34:29Z</time>
      </trkpt>
      <trkpt lat="44.46651" lon="1.58694">
        <ele>126.298</ele>
        <time>2019-10-30T20:34:09Z</time>
      </trkpt>
      <trkpt lat="44.46779" lon="1.5853">
        <ele>126.92</ele>
        <time>2019-10-30T20:33:49Z</time>
      </trkpt>
      <trkpt lat="44.4682" lon="1.58455">
        <ele>127.131</ele>
        <time>2019-10-30T20:33:29Z</time>
      </trkpt>
      <trkpt lat="44.46801" lon="1.58404">
        <ele>134.155</ele>
        <time>2019-10-30T20:33:09Z</time>
      </trkpt>
      <trkpt lat="44.46843" lon="1.58312">
        <ele>148.823</ele>
        <time>2019-10-30T20:32:49Z</time>
      </trkpt>
      <trkpt lat="44.46924" lon="1.58241">
        <ele>144.037</ele>
        <time>2019-10-30T20:32:29Z</time>
      </trkpt>
      <trkpt lat="44.46967" lon="1.58222">
        <ele>136.834</ele>
        <time>2019-10-30T20:32:09Z</time>
      </trkpt>
      <trkpt lat="44.47039" lon="1.58119">
        <ele>162.619</ele>
        <time>2019-10-30T20:31:49Z</time>
      </trkpt>
      <trkpt lat="44.47081" lon="1.58089">
        <ele>153.533</ele>
        <time>2019-10-30T20:31:29Z</time>
      </trkpt>
      <trkpt lat="44.47196" lon="1.57942">
        <ele>157.208</ele>
        <time>2019-10-30T20:31:09Z</time>
      </trkpt>
      <trkpt lat="44.47272" lon="1.5787">
        <ele>158.414</ele>
        <time>2019-10-30T20:30:49Z</time>
      </trkpt>
      <trkpt lat="44.47257" lon="1.5782">
        <ele>159.913</ele>
        <time>2019-10-30T20:30:29Z</time>
      </trkpt>
      <trkpt lat="44.472" lon="1.5787">
        <ele>165.472</ele>
        <time>2019-10-30T20:30:09Z</time>
      </trkpt>
      <trkpt lat="44.47147" lon="1.57742">
        <ele>164.434</ele>
        <time>2019-10-30T20:29:49Z</time>
      </trkpt>
      <trkpt lat="44.47126" lon="1.5788">
        <ele>183.115</ele>
        <time>2019-10-30T20:29:29Z</time>
      </trkpt>
      <trkpt lat="44.47095" lon="1.5796">
        <ele>188.939</ele>
        <time>2019-10-30T20:29:09Z</time>
      </trkpt>
      <trkpt lat="44.4706" lon="1.579">
        <ele>199.447</ele>
        <time>2019-10-30T20:28:49Z</time>
      </trkpt>
      <trkpt lat="44.47019" lon="1.57923">
        <ele>204.211</ele>
        <time>2019-10-30T20:28:29Z</time>
      </trkpt>
      <trkpt lat="44.46993" lon="1.57861">
        <ele>215.398</ele>
        <time>2019-10-30T20:28:09Z</time>
      </trkpt>
      <trkpt lat="44.46947" lon="1.57903">
        <ele>220.193</ele>
        <time>2019-10-30T20:27:49Z</time>
      </trkpt>
      <trkpt lat="44.46842" lon="1.57873">
        <ele>240.657</ele>
        <time>2019-10-30T20:27:29Z</time>
      </trkpt>
      <trkpt lat="44.46816" lon="1.57813">
        <ele>249.208</ele>
        <time>2019-10-30T20:27:09Z</time>
      </trkpt>
      <trkpt lat="44.46761" lon="1.57732">
        <ele>268.317</ele>
        <time>2019-10-30T20:26:49Z</time>
      </trkpt>
      <trkpt lat="44.46706" lon="1.57709">
        <ele>277.298</ele>
        <time>2019-10-30T20:26:29Z</time>
      </trkpt>
      <trkpt lat="44.46673" lon="1.57659">
        <ele>284.318</ele>
        <time>2019-10-30T20:26:09Z</time>
      </trkpt>
      <trkpt lat="44.46627" lon="1.57652">
        <ele>286.212</ele>
        <time>2019-10-30T20:25:49Z</time>
      </trkpt>
      <trkpt lat="44.46607" lon="1.57608">
        <ele>289.043</ele>
        <time>2019-10-30T20:25:29Z</time>
      </trkpt>
      <trkpt lat="44.46578" lon="1.57594">
        <ele>288.777</ele>
        <time>2019-10-30T20:25:09Z</time>
      </trkpt>
      <trkpt lat="44.46527" lon="1.57525">
        <ele>285.935</ele>
        <time>2019-10-30T20:24:49Z</time>
      </trkpt>
      <trkpt lat="44.4642" lon="1.5744">
        <ele>280.779</ele>
        <time>2019-10-30T20:24:29Z</time>
      </trkpt>
      <trkpt lat="44.46297" lon="1.57263">
        <ele>274.116</ele>
        <time>2019-10-30T20:24:09Z</time>
      </trkpt>
      <trkpt lat="44.46246" lon="1.57215">
        <ele>271.291</ele>
        <time>2019-10-30T20:23:49Z</time>
      </trkpt>
      <trkpt lat="44.46187" lon="1.57075">
        <ele>268.055</ele>
        <time>2019-10-30T20:23:29Z</time>
      </trkpt>
      <trkpt lat="44.46141" lon="1.57001">
        <ele>268.808</ele>
        <time>2019-10-30T20:23:09Z</time>
      </trkpt>
      <trkpt lat="44.46105" lon="1.56967">
        <ele>272.725</ele>
        <time>2019-10-30T20:22:49Z</time>
      </trkpt>
      <trkpt lat="44.4612" lon="1.5681">
        <ele>284.123</ele>
        <time>2019-10-30T20:22:29Z</time>
      </trkpt>
      <trkpt lat="44.46159" lon="1.56718">
        <ele>290.897</ele>
        <time>2019-10-30T20:22:09Z</time>
      </trkpt>
      <trkpt lat="44.46208" lon="1.56658">
        <ele>289.927</ele>
        <time>2019-10-30T20:21:49Z</time>
      </trkpt>
      <trkpt lat="44.46215" lon="1.56638">
        <ele>291.048</ele>
        <time>2019-10-30T20:21:29Z</time>
      </trkpt>
      <trkpt lat="44.46185" lon="1.56606">
        <ele>292.482</ele>
        <time>2019-10-30T20:21:09Z</time>
      </trkpt>
      <trkpt lat="44.4631" lon="1.56507">
        <ele>290.42</ele>
        <time>2019-10-30T20:20:49Z</time>
      </trkpt>
      <trkpt lat="44.46454" lon="1.5635">
        <ele>301.144</ele>
        <time>2019-10-30T20:20:29Z</time>
      </trkpt>
      <trkpt lat="44.46458" lon="1.56297">
        <ele>304.191</ele>
        <time>2019-10-30T20:20:09Z</time>
      </trkpt>
      <trkpt lat="44.46504" lon="1.5627">
        <ele>308.696</ele>
        <time>2019-10-30T20:19:49Z</time>
      </trkpt>
      <trkpt lat="44.46533" lon="1.56235">
        <ele>311.83</ele>
        <time>2019-10-30T20:19:29Z</time>
      </trkpt>
      <trkpt lat="44.46561" lon="1.5624">
        <ele>314.808</ele>
        <time>2019-10-30T20:19:09Z</time>
      </trkpt>
      <trkpt lat="44.46612" lon="1.56187">
        <ele>313.509</ele>
        <time>2019-10-30T20:18:49Z</time>
      </trkpt>
      <trkpt lat="44.46674" lon="1.5607">
        <ele>300.581</ele>
        <time>2019-10-30T20:18:29Z</time>
      </trkpt>
      <trkpt lat="44.4677" lon="1.55982">
        <ele>305.841</ele>
        <time>2019-10-30T20:18:09Z</time>
      </trkpt>
      <trkpt lat="44.46955" lon="1.55879">
        <ele>293.078</ele>
        <time>2019-10-30T20:17:49Z</time>
      </trkpt>
      <trkpt lat="44.46994" lon="1.55874">
        <ele>285.589</ele>
        <time>2019-10-30T20:17:29Z</time>
      </trkpt>
      <trkpt lat="44.47177" lon="1.55773">
        <ele>257.363</ele>
        <time>2019-10-30T20:17:09Z</time>
      </trkpt>
      <trkpt lat="44.47213" lon="1.55785">
        <ele>254.621</ele>
        <time>2019-10-30T20:16:49Z</time>
      </trkpt>
      <trkpt lat="44.47293" lon="1.55745">
        <ele>254.755</ele>
        <time>2019-10-30T20:16:29Z</time>
      </trkpt>
      <trkpt lat="44.47347" lon="1.55762">
        <ele>247.032</ele>
        <time>2019-10-30T20:16:09Z</time>
      </trkpt>
      <trkpt lat="44.47359" lon="1.5572">
        <ele>249.387</ele>
        <time>2019-10-30T20:15:49Z</time>
      </trkpt>
      <trkpt lat="44.47351" lon="1.55681">
        <ele>251.041</ele>
        <time>2019-10-30T20:15:29Z</time>
      </trkpt>
      <trkpt lat="44.47323" lon="1.55642">
        <ele>250.708</ele>
        <time>2019-10-30T20:15:09Z</time>
      </trkpt>
      <trkpt lat="44.47326" lon="1.55591">
        <ele>244.223</ele>
        <time>2019-10-30T20:14:49Z</time>
      </trkpt>
      <trkpt lat="44.47393" lon="1.55499">
        <ele>226.703</ele>
        <time>2019-10-30T20:14:29Z</time>
      </trkpt>
      <trkpt lat="44.47365" lon="1.55486">
        <ele>221.659</ele>
        <time>2019-10-30T20:14:09Z</time>
      </trkpt>
      <trkpt lat="44.47275" lon="1.55488">
        <ele>218.139</ele>
        <time>2019-10-30T20:13:49Z</time>
      </trkpt>
      <trkpt lat="44.47218" lon="1.55483">
        <ele>214.46</ele>
        <time>2019-10-30T20:13:29Z</time>
      </trkpt>
      <trkpt lat="44.47173" lon="1.55495">
        <ele>213.984</ele>
        <time>2019-10-30T20:13:09Z</time>
      </trkpt>
      <trkpt lat="44.47121" lon="1.55495">
        <ele>212.262</ele>
        <time>2019-10-30T20:12:49Z</time>
      </trkpt>
      <trkpt lat="44.47039" lon="1.55469">
        <ele>208.536</ele>
        <time>2019-10-30T20:12:29Z</time>
      </trkpt>
      <trkpt lat="44.47022" lon="1.5544">
        <ele>206.333</ele>
        <time>2019-10-30T20:12:09Z</time>
      </trkpt>
      <trkpt lat="44.46899" lon="1.55334">
        <ele>199.378</ele>
        <time>2019-10-30T20:11:49Z</time>
      </trkpt>
      <trkpt lat="44.4677" lon="1.55251">
        <ele>203.882</ele>
        <time>2019-10-30T20:11:29Z</time>
      </trkpt>
      <trkpt lat="44.46689" lon="1.55177">
        <ele>205.408</ele>
        <time>2019-10-30T20:11:09Z</time>
      </trkpt>
      <trkpt lat="44.46655" lon="1.55159">
        <ele>203.019</ele>
        <time>2019-10-30T20:10:49Z</time>
      </trkpt>
      <trkpt lat="44.46599" lon="1.55184">
        <ele>200.781</ele>
        <time>2019-10-30T20:10:29Z</time>
      </trkpt>
      <trkpt lat="44.46499" lon="1.55288">
        <ele>196.367</ele>
        <time>2019-10-30T20:10:09Z</time>
      </trkpt>
      <trkpt lat="44.46448" lon="1.55311">
        <ele>192.565</ele>
        <time>2019-10-30T20:09:49Z</time>
      </trkpt>
      <trkpt lat="44.46435" lon="1.55306">
        <ele>193.126</ele>
        <time>2019-10-30T20:09:29Z</time>
      </trkpt>
      <trkpt lat="44.46433" lon="1.55242">
        <ele>191.55</ele>
        <time>2019-10-30T20:09:09Z</time>
      </trkpt>
      <trkpt lat="44.46407" lon="1.55196">
        <ele>191.178</ele>
        <time>2019-10-30T20:08:49Z</time>
      </trkpt>
      <trkpt lat="44.46348" lon="1.55173">
        <ele>193.562</ele>
        <time>2019-10-30T20:08:29Z</time>
      </trkpt>
      <trkpt lat="44.46289" lon="1.55118">
        <ele>198.429</ele>
        <time>2019-10-30T20:08:09Z</time>
      </trkpt>
      <trkpt lat="44.46218" lon="1.55014">
        <ele>200.374</ele>
        <time>2019-10-30T20:07:49Z</time>
      </trkpt>
      <trkpt lat="44.46192" lon="1.54989">
        <ele>201.138</ele>
        <time>2019-10-30T20:07:29Z</time>
      </trkpt>
      <trkpt lat="44.46131" lon="1.54998">
        <ele>204.508</ele>
        <time>2019-10-30T20:07:09Z</time>
      </trkpt>
      <trkpt lat="44.46044" lon="1.55062">
        <ele>211.517</ele>
        <time>2019-10-30T20:06:49Z</time>
      </trkpt>
      <trkpt lat="44.45956" lon="1.55072">
        <ele>216.389</ele>
        <time>2019-10-30T20:06:29Z</time>
      </trkpt>
      <trkpt lat="44.45873" lon="1.55196">
        <ele>225.228</ele>
        <time>2019-10-30T20:06:09Z</time>
      </trkpt>
      <trkpt lat="44.45826" lon="1.5524">
        <ele>233.491</ele>
        <time>2019-10-30T20:05:49Z</time>
      </trkpt>
      <trkpt lat="44.45752" lon="1.55325">
        <ele>234.842</ele>
        <time>2019-10-30T20:05:29Z</time>
      </trkpt>
      <trkpt lat="44.45658" lon="1.55474">
        <ele>243.956</ele>
        <time>2019-10-30T20:05:09Z</time>
      </trkpt>
      <trkpt lat="44.45537" lon="1.55407">
        <ele>254.284</ele>
        <time>2019-10-30T20:04:49Z</time>
      </trkpt>
      <trkpt lat="44.45388" lon="1.55343">
        <ele>284.918</ele>
        <time>2019-10-30T20:04:29Z</time>
      </trkpt>
      <trkpt lat="44.45371" lon="1.5529">
        <ele>288.345</ele>
        <time>2019-10-30T20:04:09Z</time>
      </trkpt>
      <trkpt lat="44.45384" lon="1.55166">
        <ele>291.18</ele>
        <time>2019-10-30T20:03:49Z</time>
      </trkpt>
      <trkpt lat="44.45404" lon="1.55076">
        <ele>294.354</ele>
        <time>2019-10-30T20:03:29Z</time>
      </trkpt>
      <trkpt lat="44.45502" lon="1.54862">
        <ele>290.308</ele>
        <time>2019-10-30T20:03:09Z</time>
      </trkpt>
      <trkpt lat="44.45502" lon="1.548">
        <ele>289.417</ele>
        <time>2019-10-30T20:02:49Z</time>
      </trkpt>
      <trkpt lat="44.45581" lon="1.5466">
        <ele>289.543</ele>
        <time>2019-10-30T20:02:29Z</time>
      </trkpt>
      <trkpt lat="44.45665" lon="1.54563">
        <ele>291.782</ele>
        <time>2019-10-30T20:02:09Z</time>
      </trkpt>
      <trkpt lat="44.45813" lon="1.54425">
        <ele>286.249</ele>
        <time>2019-10-30T20:01:49Z</time>
      </trkpt>
      <trkpt lat="44.45888" lon="1.54448">
        <ele>286.73</ele>
        <time>2019-10-30T20:01:29Z</time>
      </trkpt>
      <trkpt lat="44.46049" lon="1.54359">
        <ele>290.744</ele>
        <time>2019-10-30T20:01:09Z</time>
      </trkpt>
      <trkpt lat="44.46092" lon="1.54326">
        <ele>292.282</ele>
        <time>2019-10-30T20:00:49Z</time>
      </trkpt>
      <trkpt lat="44.45976" lon="1.54138">
        <ele>283.916</ele>
        <time>2019-10-30T20:00:29Z</time>
      </trkpt>
      <trkpt lat="44.45981" lon="1.54065">
        <ele>275.923</ele>
        <time>2019-10-30T20:00:09Z</time>
      </trkpt>
      <trkpt lat="44.45967" lon="1.53989">
        <ele>269.878</ele>
        <time>2019-10-30T19:59:49Z</time>
      </trkpt>
      <trkpt lat="44.46017" lon="1.53787">
        <ele>244.042</ele>
        <time>2019-10-30T19:59:29Z</time>
      </trkpt>
      <trkpt lat="44.46005" lon="1.53689">
        <ele>232.908</ele>
        <time>2019-10-30T19:59:09Z</time>
      </trkpt>
      <trkpt lat="44.45986" lon="1.53642">
        <ele>226.624</ele>
        <time>2019-10-30T19:58:49Z</time>
      </trkpt>
      <trkpt lat="44.45963" lon="1.53548">
        <ele>217.904</ele>
        <time>2019-10-30T19:58:29Z</time>
      </trkpt>
      <trkpt lat="44.45974" lon="1.53522">
        <ele>211.569</ele>
        <time>2019-10-30T19:58:09Z</time>
      </trkpt>
      <trkpt lat="44.46011" lon="1.53516">
        <ele>206.335</ele>
        <time>2019-10-30T19:57:49Z</time>
      </trkpt>
      <trkpt lat="44.46039" lon="1.53441">
        <ele>208.176</ele>
        <time>2019-10-30T19:57:29Z</time>
      </trkpt>
      <trkpt lat="44.4603" lon="1.53361">
        <ele>208.28</ele>
        <time>2019-10-30T19:57:09Z</time>
      </trkpt>
      <trkpt lat="44.46054" lon="1.53255">
        <ele>205.828</ele>
        <time>2019-10-30T19:56:49Z</time>
      </trkpt>
      <trkpt lat="44.46034" lon="1.53036">
        <ele>206.512</ele>
        <time>2019-10-30T19:56:29Z</time>
      </trkpt>
      <trkpt lat="44.46005" lon="1.52931">
        <ele>204.299</ele>
        <time>2019-10-30T19:56:09Z</time>
      </trkpt>
      <trkpt lat="44.45976" lon="1.52907">
        <ele>202.674</ele>
        <time>2019-10-30T19:55:49Z</time>
      </trkpt>
      <trkpt lat="44.45936" lon="1.52856">
        <ele>201.528</ele>
        <time>2019-10-30T19:55:29Z</time>
      </trkpt>
      <trkpt lat="44.45896" lon="1.52779">
        <ele>194.308</ele>
        <time>2019-10-30T19:55:09Z</time>
      </trkpt>
      <trkpt lat="44.45878" lon="1.52768">
        <ele>190.908</ele>
        <time>2019-10-30T19:54:49Z</time>
      </trkpt>
      <trkpt lat="44.45835" lon="1.52571">
        <ele>171.062</ele>
        <time>2019-10-30T19:54:29Z</time>
      </trkpt>
      <trkpt lat="44.45826" lon="1.52468">
        <ele>164.822</ele>
        <time>2019-10-30T19:54:09Z</time>
      </trkpt>
      <trkpt lat="44.45824" lon="1.5235">
        <ele>160.635</ele>
        <time>2019-10-30T19:53:49Z</time>
      </trkpt>
      <trkpt lat="44.45835" lon="1.52253">
        <ele>157.146</ele>
        <time>2019-10-30T19:53:29Z</time>
      </trkpt>
      <trkpt lat="44.45832" lon="1.52182">
        <ele>154.98</ele>
        <time>2019-10-30T19:53:09Z</time>
      </trkpt>
      <trkpt lat="44.45912" lon="1.52137">
        <ele>153.538</ele>
        <time>2019-10-30T19:52:49Z</time>
      </trkpt>
      <trkpt lat="44.45967" lon="1.52088">
        <ele>152.192</ele>
        <time>2019-10-30T19:52:29Z</time>
      </trkpt>
      <trkpt lat="44.46019" lon="1.52077">
        <ele>146.829</ele>
        <time>2019-10-30T19:52:09Z</time>
      </trkpt>
      <trkpt lat="44.46036" lon="1.52094">
        <ele>144.734</ele>
        <time>2019-10-30T19:51:49Z</time>
      </trkpt>
      <trkpt lat="44.4605" lon="1.5209">
        <ele>143.098</ele>
        <time>2019-10-30T19:51:29Z</time>
      </trkpt>
      <trkpt lat="44.46057" lon="1.52038">
        <ele>134.808</ele>
        <time>2019-10-30T19:51:09Z</time>
      </trkpt>
      <trkpt lat="44.46077" lon="1.52047">
        <ele>131.505</ele>
        <time>2019-10-30T19:50:49Z</time>
      </trkpt>
      <trkpt lat="44.4606" lon="1.51901">
        <ele>123.041</ele>
        <time>2019-10-30T19:50:29Z</time>
      </trkpt>
      <trkpt lat="44.46033" lon="1.51873">
        <ele>126.921</ele>
        <time>2019-10-30T19:50:09Z</time>
      </trkpt>
      <trkpt lat="44.45959" lon="1.51693">
        <ele>123.441</ele>
        <time>2019-10-30T19:49:49Z</time>
      </trkpt>
      <trkpt lat="44.46043" lon="1.51626">
        <ele>120.452</ele>
        <time>2019-10-30T19:49:29Z</time>
      </trkpt>
      <trkpt lat="44.4605" lon="1.51579">
        <ele>120.266</ele>
        <time>2019-10-30T19:49:09Z</time>
      </trkpt>
      <trkpt lat="44.46037" lon="1.51472">
        <ele>121.324</ele>
        <time>2019-10-30T19:48:49Z</time>
      </trkpt>
      <trkpt lat="44.46005" lon="1.51324">
        <ele>120.278</ele>
        <time>2019-10-30T19:48:29Z</time>
      </trkpt>
      <trkpt lat="44.45979" lon="1.51152">
        <ele>120.195</ele>
        <time>2019-10-30T19:48:09Z</time>
      </trkpt>
      <trkpt lat="44.45918" lon="1.50457">
        <ele>124.98</ele>
        <time>2019-10-30T19:47:49Z</time>
      </trkpt>
      <trkpt lat="44.45918" lon="1.5035">
        <ele>123.534</ele>
        <time>2019-10-30T19:47:29Z</time>
      </trkpt>
      <trkpt lat="44.45898" lon="1.50242">
        <ele>123.308</ele>
        <time>2019-10-30T19:47:09Z</time>
      </trkpt>
      <trkpt lat="44.45875" lon="1.50159">
        <ele>120.117</ele>
        <time>2019-10-30T19:46:49Z</time>
      </trkpt>
      <trkpt lat="44.45772" lon="1.50024">
        <ele>121.889</ele>
        <time>2019-10-30T19:46:29Z</time>
      </trkpt>
      <trkpt lat="44.45716" lon="1.49897">
        <ele>121.685</ele>
        <time>2019-10-30T19:46:09Z</time>
      </trkpt>
      <trkpt lat="44.4567" lon="1.49762">
        <ele>123.198</ele>
        <time>2019-10-30T19:45:49Z</time>
      </trkpt>
      <trkpt lat="44.45668" lon="1.49706">
        <ele>119.399</ele>
        <time>2019-10-30T19:45:29Z</time>
      </trkpt>
      <trkpt lat="44.45645" lon="1.49562">
        <ele>130.383</ele>
        <time>2019-10-30T19:45:09Z</time>
      </trkpt>
      <trkpt lat="44.45648" lon="1.49401">
        <ele>129.061</ele>
        <time>2019-10-30T19:44:49Z</time>
      </trkpt>
      <trkpt lat="44.45671" lon="1.49232">
        <ele>128.815</ele>
        <time>2019-10-30T19:44:29Z</time>
      </trkpt>
      <trkpt lat="44.45726" lon="1.49109">
        <ele>128.762</ele>
        <time>2019-10-30T19:44:09Z</time>
      </trkpt>
      <trkpt lat="44.45857" lon="1.48957">
        <ele>123.087</ele>
        <time>2019-10-30T19:43:49Z</time>
      </trkpt>
      <trkpt lat="44.45922" lon="1.48899">
        <ele>118.461</ele>
        <time>2019-10-30T19:43:29Z</time>
      </trkpt>
      <trkpt lat="44.46017" lon="1.48848">
        <ele>118.008</ele>
        <time>2019-10-30T19:43:09Z</time>
      </trkpt>
      <trkpt lat="44.46109" lon="1.48762">
        <ele>118.423</ele>
        <time>2019-10-30T19:42:49Z</time>
      </trkpt>
      <trkpt lat="44.46218" lon="1.48612">
        <ele>118.003</ele>
        <time>2019-10-30T19:42:29Z</time>
      </trkpt>
      <trkpt lat="44.46102" lon="1.485">
        <ele>118.359</ele>
        <time>2019-10-30T19:42:09Z</time>
      </trkpt>
      <trkpt lat="44.46083" lon="1.48429">
        <ele>124.671</ele>
        <time>2019-10-30T19:41:49Z</time>
      </trkpt>
      <trkpt lat="44.4605" lon="1.48365">
        <ele>128.552</ele>
        <time>2019-10-30T19:41:29Z</time>
      </trkpt>
      <trkpt lat="44.46001" lon="1.4832">
        <ele>134.086</ele>
        <time>2019-10-30T19:41:09Z</time>
      </trkpt>
      <trkpt lat="44.45952" lon="1.48219">
        <ele>133.384</ele>
        <time>2019-10-30T19:40:49Z</time>
      </trkpt>
      <trkpt lat="44.45863" lon="1.48197">
        <ele>142.138</ele>
        <time>2019-10-30T19:40:29Z</time>
      </trkpt>
      <trkpt lat="44.45821" lon="1.4818">
        <ele>141.695</ele>
        <time>2019-10-30T19:40:09Z</time>
      </trkpt>
      <trkpt lat="44.45768" lon="1.48219">
        <ele>141.82</ele>
        <time>2019-10-30T19:39:49Z</time>
      </trkpt>
      <trkpt lat="44.45722" lon="1.48212">
        <ele>140.034</ele>
        <time>2019-10-30T19:39:29Z</time>
      </trkpt>
      <trkpt lat="44.45671" lon="1.48228">
        <ele>135.608</ele>
        <time>2019-10-30T19:39:09Z</time>
      </trkpt>
      <trkpt lat="44.45615" lon="1.4821">
        <ele>137.726</ele>
        <time>2019-10-30T19:38:49Z</time>
      </trkpt>
      <trkpt lat="44.45587" lon="1.48212">
        <ele>139.142</ele>
        <time>2019-10-30T19:38:29Z</time>
      </trkpt>
      <trkpt lat="44.45515" lon="1.48249">
        <ele>144.687</ele>
        <time>2019-10-30T19:38:09Z</time>
      </trkpt>
      <trkpt lat="44.45469" lon="1.48228">
        <ele>138.136</ele>
        <time>2019-10-30T19:37:49Z</time>
      </trkpt>
      <trkpt lat="44.45423" lon="1.4818">
        <ele>141.537</ele>
        <time>2019-10-30T19:37:29Z</time>
      </trkpt>
      <trkpt lat="44.45359" lon="1.48185">
        <ele>147.691</ele>
        <time>2019-10-30T19:37:09Z</time>
      </trkpt>
      <trkpt lat="44.45313" lon="1.4815">
        <ele>146.139</ele>
        <time>2019-10-30T19:36:49Z</time>
      </trkpt>
      <trkpt lat="44.45268" lon="1.48125">
        <ele>147.863</ele>
        <time>2019-10-30T19:36:29Z</time>
      </trkpt>
      <trkpt lat="44.45232" lon="1.48086">
        <ele>150.29</ele>
        <time>2019-10-30T19:36:09Z</time>
      </trkpt>
      <trkpt lat="44.45115" lon="1.48015">
        <ele>152.715</ele>
        <time>2019-10-30T19:35:49Z</time>
      </trkpt>
      <trkpt lat="44.45072" lon="1.48026">
        <ele>150.629</ele>
        <time>2019-10-30T19:35:29Z</time>
      </trkpt>
      <trkpt lat="44.45016" lon="1.48026">
        <ele>150.508</ele>
        <time>2019-10-30T19:35:09Z</time>
      </trkpt>
      <trkpt lat="44.44826" lon="1.4809">
        <ele>155.715</ele>
        <time>2019-10-30T19:34:49Z</time>
      </trkpt>
      <trkpt lat="44.44777" lon="1.4814">
        <ele>156.023</ele>
        <time>2019-10-30T19:34:29Z</time>
      </trkpt>
      <trkpt lat="44.44743" lon="1.48109">
        <ele>157.233</ele>
        <time>2019-10-30T19:34:09Z</time>
      </trkpt>
      <trkpt lat="44.44567" lon="1.48009">
        <ele>164.16</ele>
        <time>2019-10-30T19:33:49Z</time>
      </trkpt>
      <trkpt lat="44.445" lon="1.47985">
        <ele>167.631</ele>
        <time>2019-10-30T19:33:29Z</time>
      </trkpt>
      <trkpt lat="44.44441" lon="1.47987">
        <ele>165.975</ele>
        <time>2019-10-30T19:33:09Z</time>
      </trkpt>
      <trkpt lat="44.44389" lon="1.48032">
        <ele>166.063</ele>
        <time>2019-10-30T19:32:49Z</time>
      </trkpt>
      <trkpt lat="44.44357" lon="1.48032">
        <ele>166.267</ele>
        <time>2019-10-30T19:32:29Z</time>
      </trkpt>
      <trkpt lat="44.44245" lon="1.47966">
        <ele>172.444</ele>
        <time>2019-10-30T19:32:09Z</time>
      </trkpt>
      <trkpt lat="44.44203" lon="1.47988">
        <ele>174.189</ele>
        <time>2019-10-30T19:31:49Z</time>
      </trkpt>
      <trkpt lat="44.44126" lon="1.47982">
        <ele>178.763</ele>
        <time>2019-10-30T19:31:29Z</time>
      </trkpt>
      <trkpt lat="44.4402" lon="1.48013">
        <ele>180.608</ele>
        <time>2019-10-30T19:31:09Z</time>
      </trkpt>
      <trkpt lat="44.43947" lon="1.48066">
        <ele>183.526</ele>
        <time>2019-10-30T19:30:49Z</time>
      </trkpt>
      <trkpt lat="44.43851" lon="1.48081">
        <ele>184.733</ele>
        <time>2019-10-30T19:30:29Z</time>
      </trkpt>
      <trkpt lat="44.43763" lon="1.48081">
        <ele>189.478</ele>
        <time>2019-10-30T19:30:09Z</time>
      </trkpt>
      <trkpt lat="44.43707" lon="1.48094">
        <ele>191.671</ele>
        <time>2019-10-30T19:29:49Z</time>
      </trkpt>
      <trkpt lat="44.43586" lon="1.482">
        <ele>199.692</ele>
        <time>2019-10-30T19:29:29Z</time>
      </trkpt>
      <trkpt lat="44.43532" lon="1.48226">
        <ele>198.456</ele>
        <time>2019-10-30T19:29:09Z</time>
      </trkpt>
      <trkpt lat="44.43408" lon="1.48209">
        <ele>206.544</ele>
        <time>2019-10-30T19:28:49Z</time>
      </trkpt>
      <trkpt lat="44.43363" lon="1.48189">
        <ele>204.668</ele>
        <time>2019-10-30T19:28:29Z</time>
      </trkpt>
      <trkpt lat="44.43316" lon="1.48116">
        <ele>209.435</ele>
        <time>2019-10-30T19:28:09Z</time>
      </trkpt>
      <trkpt lat="44.43259" lon="1.48068">
        <ele>213.22</ele>
        <time>2019-10-30T19:27:49Z</time>
      </trkpt>
      <trkpt lat="44.43223" lon="1.48024">
        <ele>216.674</ele>
        <time>2019-10-30T19:27:29Z</time>
      </trkpt>
      <trkpt lat="44.43193" lon="1.48002">
        <ele>218.108</ele>
        <time>2019-10-30T19:27:09Z</time>
      </trkpt>
      <trkpt lat="44.43138" lon="1.4803">
        <ele>225.417</ele>
        <time>2019-10-30T19:26:49Z</time>
      </trkpt>
      <trkpt lat="44.43134" lon="1.4805">
        <ele>228.361</ele>
        <time>2019-10-30T19:26:29Z</time>
      </trkpt>
      <trkpt lat="44.43184" lon="1.48072">
        <ele>223.581</ele>
        <time>2019-10-30T19:26:09Z</time>
      </trkpt>
      <trkpt lat="44.43193" lon="1.48116">
        <ele>227.372</ele>
        <time>2019-10-30T19:25:49Z</time>
      </trkpt>
      <trkpt lat="44.43191" lon="1.48191">
        <ele>235.513</ele>
        <time>2019-10-30T19:25:29Z</time>
      </trkpt>
      <trkpt lat="44.43097" lon="1.48301">
        <ele>253.457</ele>
        <time>2019-10-30T19:25:09Z</time>
      </trkpt>
      <trkpt lat="44.43024" lon="1.48309">
        <ele>263.975</ele>
        <time>2019-10-30T19:24:49Z</time>
      </trkpt>
      <trkpt lat="44.42988" lon="1.48331">
        <ele>265.449</ele>
        <time>2019-10-30T19:24:29Z</time>
      </trkpt>
      <trkpt lat="44.4288" lon="1.48449">
        <ele>273.346</ele>
        <time>2019-10-30T19:24:09Z</time>
      </trkpt>
      <trkpt lat="44.42841" lon="1.48399">
        <ele>274.661</ele>
        <time>2019-10-30T19:23:49Z</time>
      </trkpt>
      <trkpt lat="44.42795" lon="1.48341">
        <ele>277.775</ele>
        <time>2019-10-30T19:23:29Z</time>
      </trkpt>
      <trkpt lat="44.42721" lon="1.48309">
        <ele>282.908</ele>
        <time>2019-10-30T19:23:09Z</time>
      </trkpt>
      <trkpt lat="44.42637" lon="1.48327">
        <ele>288.619</ele>
        <time>2019-10-30T19:22:49Z</time>
      </trkpt>
      <trkpt lat="44.42581" lon="1.48273">
        <ele>290.881</ele>
        <time>2019-10-30T19:22:29Z</time>
      </trkpt>
      <trkpt lat="44.42518" lon="1.48229">
        <ele>291.991</ele>
        <time>2019-10-30T19:22:09Z</time>
      </trkpt>
      <trkpt lat="44.42491" lon="1.4816">
        <ele>290.055</ele>
        <time>2019-10-30T19:21:49Z</time>
      </trkpt>
      <trkpt lat="44.42554" lon="1.47882">
        <ele>279.976</ele>
        <time>2019-10-30T19:21:29Z</time>
      </trkpt>
      <trkpt lat="44.42591" lon="1.47816">
        <ele>277.83</ele>
        <time>2019-10-30T19:21:09Z</time>
      </trkpt>
      <trkpt lat="44.42611" lon="1.4772">
        <ele>277.938</ele>
        <time>2019-10-30T19:20:49Z</time>
      </trkpt>
      <trkpt lat="44.4265" lon="1.4761">
        <ele>276.482</ele>
        <time>2019-10-30T19:20:29Z</time>
      </trkpt>
      <trkpt lat="44.42728" lon="1.47564">
        <ele>279.719</ele>
        <time>2019-10-30T19:20:09Z</time>
      </trkpt>
      <trkpt lat="44.42851" lon="1.47542">
        <ele>280.734</ele>
        <time>2019-10-30T19:19:49Z</time>
      </trkpt>
      <trkpt lat="44.42898" lon="1.47544">
        <ele>279.048</ele>
        <time>2019-10-30T19:19:29Z</time>
      </trkpt>
      <trkpt lat="44.42963" lon="1.47596">
        <ele>278.008</ele>
        <time>2019-10-30T19:19:09Z</time>
      </trkpt>
      <trkpt lat="44.43003" lon="1.47608">
        <ele>277.005</ele>
        <time>2019-10-30T19:18:49Z</time>
      </trkpt>
      <trkpt lat="44.4309" lon="1.4757">
        <ele>274.541</ele>
        <time>2019-10-30T19:18:29Z</time>
      </trkpt>
      <trkpt lat="44.4318" lon="1.47504">
        <ele>270.721</ele>
        <time>2019-10-30T19:18:09Z</time>
      </trkpt>
      <trkpt lat="44.43219" lon="1.47414">
        <ele>271.227</ele>
        <time>2019-10-30T19:17:49Z</time>
      </trkpt>
      <trkpt lat="44.43276" lon="1.47348">
        <ele>275.138</ele>
        <time>2019-10-30T19:17:29Z</time>
      </trkpt>
      <trkpt lat="44.43331" lon="1.47302">
        <ele>276.122</ele>
        <time>2019-10-30T19:17:09Z</time>
      </trkpt>
      <trkpt lat="44.43412" lon="1.47205">
        <ele>277.95</ele>
        <time>2019-10-30T19:16:49Z</time>
      </trkpt>
      <trkpt lat="44.43503" lon="1.47145">
        <ele>278.834</ele>
        <time>2019-10-30T19:16:29Z</time>
      </trkpt>
      <trkpt lat="44.43567" lon="1.47119">
        <ele>279.891</ele>
        <time>2019-10-30T19:16:09Z</time>
      </trkpt>
      <trkpt lat="44.43616" lon="1.47089">
        <ele>280.356</ele>
        <time>2019-10-30T19:15:49Z</time>
      </trkpt>
      <trkpt lat="44.43686" lon="1.46977">
        <ele>280.73</ele>
        <time>2019-10-30T19:15:29Z</time>
      </trkpt>
      <trkpt lat="44.43762" lon="1.46909">
        <ele>275.008</ele>
        <time>2019-10-30T19:15:09Z</time>
      </trkpt>
      <trkpt lat="44.43836" lon="1.46873">
        <ele>273.122</ele>
        <time>2019-10-30T19:14:49Z</time>
      </trkpt>
      <trkpt lat="44.43882" lon="1.46887">
        <ele>272.902</ele>
        <time>2019-10-30T19:14:29Z</time>
      </trkpt>
      <trkpt lat="44.43969" lon="1.46887">
        <ele>270.249</ele>
        <time>2019-10-30T19:14:09Z</time>
      </trkpt>
      <trkpt lat="44.44015" lon="1.46865">
        <ele>270.912</ele>
        <time>2019-10-30T19:13:49Z</time>
      </trkpt>
      <trkpt lat="44.44085" lon="1.46759">
        <ele>273.483</ele>
        <time>2019-10-30T19:13:29Z</time>
      </trkpt>
      <trkpt lat="44.44136" lon="1.46643">
        <ele>269.977</ele>
        <time>2019-10-30T19:13:09Z</time>
      </trkpt>
      <trkpt lat="44.44192" lon="1.46575">
        <ele>268.625</ele>
        <time>2019-10-30T19:12:49Z</time>
      </trkpt>
      <trkpt lat="44.44239" lon="1.46463">
        <ele>270.389</ele>
        <time>2019-10-30T19:12:29Z</time>
      </trkpt>
      <trkpt lat="44.44236" lon="1.46395">
        <ele>268.766</ele>
        <time>2019-10-30T19:12:09Z</time>
      </trkpt>
      <trkpt lat="44.44235" lon="1.46281">
        <ele>261.021</ele>
        <time>2019-10-30T19:11:49Z</time>
      </trkpt>
      <trkpt lat="44.44208" lon="1.46152">
        <ele>256.955</ele>
        <time>2019-10-30T19:11:29Z</time>
      </trkpt>
      <trkpt lat="44.44223" lon="1.45992">
        <ele>257.808</ele>
        <time>2019-10-30T19:11:09Z</time>
      </trkpt>
      <trkpt lat="44.44235" lon="1.45798">
        <ele>255.225</ele>
        <time>2019-10-30T19:10:49Z</time>
      </trkpt>
      <trkpt lat="44.44269" lon="1.45636">
        <ele>260.823</ele>
        <time>2019-10-30T19:10:29Z</time>
      </trkpt>
      <trkpt lat="44.44242" lon="1.45474">
        <ele>266.797</ele>
        <time>2019-10-30T19:10:09Z</time>
      </trkpt>
      <trkpt lat="44.44269" lon="1.45275">
        <ele>261.535</ele>
        <time>2019-10-30T19:09:49Z</time>
      </trkpt>
      <trkpt lat="44.44298" lon="1.45167">
        <ele>258.956</ele>
        <time>2019-10-30T19:09:29Z</time>
      </trkpt>
      <trkpt lat="44.44325" lon="1.45131">
        <ele>260.13</ele>
        <time>2019-10-30T19:09:09Z</time>
      </trkpt>
      <trkpt lat="44.44371" lon="1.45021">
        <ele>262.568</ele>
        <time>2019-10-30T19:08:49Z</time>
      </trkpt>
      <trkpt lat="44.44312" lon="1.44949">
        <ele>244.682</ele>
        <time>2019-10-30T19:08:29Z</time>
      </trkpt>
      <trkpt lat="44.44285" lon="1.44931">
        <ele>243.099</ele>
        <time>2019-10-30T19:08:09Z</time>
      </trkpt>
      <trkpt lat="44.44218" lon="1.44811">
        <ele>244.174</ele>
        <time>2019-10-30T19:07:49Z</time>
      </trkpt>
      <trkpt lat="44.44182" lon="1.44777">
        <ele>244.778</ele>
        <time>2019-10-30T19:07:29Z</time>
      </trkpt>
      <trkpt lat="44.44171" lon="1.44729">
        <ele>235.008</ele>
        <time>2019-10-30T19:07:09Z</time>
      </trkpt>
      <trkpt lat="44.44121" lon="1.44659">
        <ele>221.414</ele>
        <time>2019-10-30T19:06:49Z</time>
      </trkpt>
      <trkpt lat="44.44102" lon="1.44583">
        <ele>192.404</ele>
        <time>2019-10-30T19:06:29Z</time>
      </trkpt>
      <trkpt lat="44.44083" lon="1.44549">
        <ele>183.324</ele>
        <time>2019-10-30T19:06:09Z</time>
      </trkpt>
      <trkpt lat="44.44065" lon="1.44501">
        <ele>170.259</ele>
        <time>2019-10-30T19:05:49Z</time>
      </trkpt>
      <trkpt lat="44.44033" lon="1.44475">
        <ele>163.67</ele>
        <time>2019-10-30T19:05:29Z</time>
      </trkpt>
      <trkpt lat="44.44016" lon="1.44499">
        <ele>163.044</ele>
        <time>2019-10-30T19:05:09Z</time>
      </trkpt>
      <trkpt lat="44.44012" lon="1.44461">
        <ele>156.052</ele>
        <time>2019-10-30T19:04:49Z</time>
      </trkpt>
      <trkpt lat="44.44" lon="1.44431">
        <ele>148.156</ele>
        <time>2019-10-30T19:04:29Z</time>
      </trkpt>
      <trkpt lat="44.44" lon="1.44401">
        <ele>142.623</ele>
        <time>2019-10-30T19:04:09Z</time>
      </trkpt>
      <trkpt lat="44.43985" lon="1.44387">
        <ele>135.878</ele>
        <time>2019-10-30T19:03:49Z</time>
      </trkpt>
      <trkpt lat="44.43979" lon="1.44345">
        <ele>130.012</ele>
        <time>2019-10-30T19:03:29Z</time>
      </trkpt>
      <trkpt lat="44.43996" lon="1.44312">
        <ele>127.608</ele>
        <time>2019-10-30T19:03:09Z</time>
      </trkpt>
      <trkpt lat="44.44022" lon="1.44308">
        <ele>125.819</ele>
        <time>2019-10-30T19:02:49Z</time>
      </trkpt>
      <trkpt lat="44.44291" lon="1.4422">
        <ele>123.581</ele>
        <time>2019-10-30T19:02:29Z</time>
      </trkpt>
      <trkpt lat="44.44192" lon="1.44118">
        <ele>117.667</ele>
        <time>2019-10-30T19:02:09Z</time>
      </trkpt>
      <trkpt lat="44.44136" lon="1.43858">
        <ele>119.061</ele>
        <time>2019-10-30T19:01:49Z</time>
      </trkpt>
      <trkpt lat="44.44126" lon="1.43644">
        <ele>113.662</ele>
        <time>2019-10-30T19:01:29Z</time>
      </trkpt>
      <trkpt lat="44.4413" lon="1.43563">
        <ele>114.346</ele>
        <time>2019-10-30T19:01:09Z</time>
      </trkpt>
      <trkpt lat="44.44147" lon="1.43499">
        <ele>116.394</ele>
        <time>2019-10-30T19:00:49Z</time>
      </trkpt>
      <trkpt lat="44.44187" lon="1.43427">
        <ele>117.458</ele>
        <time>2019-10-30T19:00:29Z</time>
      </trkpt>
      <trkpt lat="44.44272" lon="1.43362">
        <ele>113.035</ele>
        <time>2019-10-30T19:00:09Z</time>
      </trkpt>
      <trkpt lat="44.44311" lon="1.43355">
        <ele>116.33</ele>
        <time>2019-10-30T18:59:49Z</time>
      </trkpt>
      <trkpt lat="44.44336" lon="1.4333">
        <ele>116.094</ele>
        <time>2019-10-30T18:59:29Z</time>
      </trkpt>
      <trkpt lat="44.44457" lon="1.43264">
        <ele>117.608</ele>
        <time>2019-10-30T18:59:09Z</time>
      </trkpt>
      <trkpt lat="44.44464" lon="1.4327">
        <ele>117.317</ele>
        <time>2019-10-30T18:58:49Z</time>
      </trkpt>
      <trkpt lat="44.44502" lon="1.43268">
        <ele>115.025</ele>
        <time>2019-10-30T18:58:29Z</time>
      </trkpt>
      <trkpt lat="44.4453" lon="1.4332">
        <ele>120.683</ele>
        <time>2019-10-30T18:58:09Z</time>
      </trkpt>
      <trkpt lat="44.44529" lon="1.43275">
        <ele>117.788</ele>
        <time>2019-10-30T18:57:49Z</time>
      </trkpt>
      <trkpt lat="44.4448" lon="1.43057">
        <ele>134.419</ele>
        <time>2019-10-30T18:57:29Z</time>
      </trkpt>
      <trkpt lat="44.44614" lon="1.43029">
        <ele>113.093</ele>
        <time>2019-10-30T18:57:09Z</time>
      </trkpt>
      <trkpt lat="44.44626" lon="1.43001">
        <ele>118.051</ele>
        <time>2019-10-30T18:56:49Z</time>
      </trkpt>
      <trkpt lat="44.44613" lon="1.4295">
        <ele>125.535</ele>
        <time>2019-10-30T18:56:29Z</time>
      </trkpt>
      <trkpt lat="44.44562" lon="1.4284">
        <ele>127.562</ele>
        <time>2019-10-30T18:56:09Z</time>
      </trkpt>
      <trkpt lat="44.44502" lon="1.42816">
        <ele>137.867</ele>
        <time>2019-10-30T18:55:49Z</time>
      </trkpt>
      <trkpt lat="44.44446" lon="1.42719">
        <ele>148.481</ele>
        <time>2019-10-30T18:55:29Z</time>
      </trkpt>
      <trkpt lat="44.44448" lon="1.42666">
        <ele>157.508</ele>
        <time>2019-10-30T18:55:09Z</time>
      </trkpt>
      <trkpt lat="44.44486" lon="1.42556">
        <ele>178.614</ele>
        <time>2019-10-30T18:54:49Z</time>
      </trkpt>
      <trkpt lat="44.4452" lon="1.42438">
        <ele>198.104</ele>
        <time>2019-10-30T18:54:29Z</time>
      </trkpt>
      <trkpt lat="44.44513" lon="1.42328">
        <ele>208.153</ele>
        <time>2019-10-30T18:54:09Z</time>
      </trkpt>
      <trkpt lat="44.4452" lon="1.42141">
        <ele>220.16</ele>
        <time>2019-10-30T18:53:49Z</time>
      </trkpt>
      <trkpt lat="44.44513" lon="1.42078">
        <ele>231.171</ele>
        <time>2019-10-30T18:53:29Z</time>
      </trkpt>
      <trkpt lat="44.44497" lon="1.42031">
        <ele>238.785</ele>
        <time>2019-10-30T18:53:09Z</time>
      </trkpt>
      <trkpt lat="44.44505" lon="1.42018">
        <ele>240.793</ele>
        <time>2019-10-30T18:52:49Z</time>
      </trkpt>
      <trkpt lat="44.44562" lon="1.42095">
        <ele>236.187</ele>
        <time>2019-10-30T18:52:29Z</time>
      </trkpt>
      <trkpt lat="44.44574" lon="1.42087">
        <ele>239.624</ele>
        <time>2019-10-30T18:52:09Z</time>
      </trkpt>
      <trkpt lat="44.44564" lon="1.42035">
        <ele>246.069</ele>
        <time>2019-10-30T18:51:49Z</time>
      </trkpt>
      <trkpt lat="44.44549" lon="1.41925">
        <ele>254.973</ele>
        <time>2019-10-30T18:51:29Z</time>
      </trkpt>
      <trkpt lat="44.4447" lon="1.41676">
        <ele>257.108</ele>
        <time>2019-10-30T18:51:09Z</time>
      </trkpt>
      <trkpt lat="44.44449" lon="1.41459">
        <ele>267.619</ele>
        <time>2019-10-30T18:50:49Z</time>
      </trkpt>
      <trkpt lat="44.44461" lon="1.4136">
        <ele>272.79</ele>
        <time>2019-10-30T18:50:29Z</time>
      </trkpt>
      <trkpt lat="44.44457" lon="1.40985">
        <ele>279.276</ele>
        <time>2019-10-30T18:50:09Z</time>
      </trkpt>
      <trkpt lat="44.44468" lon="1.40837">
        <ele>279.934</ele>
        <time>2019-10-30T18:49:49Z</time>
      </trkpt>
      <trkpt lat="44.44493" lon="1.4078">
        <ele>279.815</ele>
        <time>2019-10-30T18:49:29Z</time>
      </trkpt>
      <trkpt lat="44.44569" lon="1.40669">
        <ele>275.669</ele>
        <time>2019-10-30T18:49:09Z</time>
      </trkpt>
      <trkpt lat="44.44621" lon="1.40499">
        <ele>266.627</ele>
        <time>2019-10-30T18:48:49Z</time>
      </trkpt>
      <trkpt lat="44.44654" lon="1.40339">
        <ele>260.791</ele>
        <time>2019-10-30T18:48:29Z</time>
      </trkpt>
      <trkpt lat="44.44658" lon="1.40275">
        <ele>259.898</ele>
        <time>2019-10-30T18:48:09Z</time>
      </trkpt>
      <trkpt lat="44.44641" lon="1.40202">
        <ele>257.543</ele>
        <time>2019-10-30T18:47:49Z</time>
      </trkpt>
      <trkpt lat="44.44632" lon="1.40045">
        <ele>252.757</ele>
        <time>2019-10-30T18:47:29Z</time>
      </trkpt>
      <trkpt lat="44.44634" lon="1.39922">
        <ele>245.108</ele>
        <time>2019-10-30T18:47:09Z</time>
      </trkpt>
      <trkpt lat="44.44672" lon="1.3969">
        <ele>224.507</ele>
        <time>2019-10-30T18:46:49Z</time>
      </trkpt>
      <trkpt lat="44.4467" lon="1.39578">
        <ele>217.343</ele>
        <time>2019-10-30T18:46:29Z</time>
      </trkpt>
      <trkpt lat="44.44688" lon="1.39457">
        <ele>205.613</ele>
        <time>2019-10-30T18:46:09Z</time>
      </trkpt>
      <trkpt lat="44.44688" lon="1.3941">
        <ele>199.814</ele>
        <time>2019-10-30T18:45:49Z</time>
      </trkpt>
      <trkpt lat="44.44666" lon="1.39386">
        <ele>195.895</ele>
        <time>2019-10-30T18:45:29Z</time>
      </trkpt>
      <trkpt lat="44.44644" lon="1.39324">
        <ele>197.839</ele>
        <time>2019-10-30T18:45:09Z</time>
      </trkpt>
      <trkpt lat="44.44693" lon="1.39238">
        <ele>210.427</ele>
        <time>2019-10-30T18:44:49Z</time>
      </trkpt>
      <trkpt lat="44.44738" lon="1.39207">
        <ele>213.621</ele>
        <time>2019-10-30T18:44:29Z</time>
      </trkpt>
      <trkpt lat="44.44753" lon="1.39192">
        <ele>213.088</ele>
        <time>2019-10-30T18:44:09Z</time>
      </trkpt>
      <trkpt lat="44.44736" lon="1.39138">
        <ele>220.143</ele>
        <time>2019-10-30T18:43:49Z</time>
      </trkpt>
      <trkpt lat="44.44712" lon="1.39029">
        <ele>228.177</ele>
        <time>2019-10-30T18:43:29Z</time>
      </trkpt>
      <trkpt lat="44.44709" lon="1.38893">
        <ele>233.108</ele>
        <time>2019-10-30T18:43:09Z</time>
      </trkpt>
      <trkpt lat="44.4474" lon="1.38831">
        <ele>236.411</ele>
        <time>2019-10-30T18:42:49Z</time>
      </trkpt>
      <trkpt lat="44.44878" lon="1.38609">
        <ele>245.465</ele>
        <time>2019-10-30T18:42:29Z</time>
      </trkpt>
      <trkpt lat="44.44953" lon="1.38499">
        <ele>247.215</ele>
        <time>2019-10-30T18:42:09Z</time>
      </trkpt>
      <trkpt lat="44.45004" lon="1.384">
        <ele>250.499</ele>
        <time>2019-10-30T18:41:49Z</time>
      </trkpt>
      <trkpt lat="44.45044" lon="1.38319">
        <ele>250.54</ele>
        <time>2019-10-30T18:41:29Z</time>
      </trkpt>
      <trkpt lat="44.45161" lon="1.38172">
        <ele>242.354</ele>
        <time>2019-10-30T18:41:09Z</time>
      </trkpt>
      <trkpt lat="44.45217" lon="1.38125">
        <ele>238.662</ele>
        <time>2019-10-30T18:40:49Z</time>
      </trkpt>
      <trkpt lat="44.45294" lon="1.38088">
        <ele>241.376</ele>
        <time>2019-10-30T18:40:29Z</time>
      </trkpt>
      <trkpt lat="44.45329" lon="1.38054">
        <ele>245.423</ele>
        <time>2019-10-30T18:40:09Z</time>
      </trkpt>
      <trkpt lat="44.45373" lon="1.38002">
        <ele>253.538</ele>
        <time>2019-10-30T18:39:49Z</time>
      </trkpt>
      <trkpt lat="44.45481" lon="1.37772">
        <ele>272.242</ele>
        <time>2019-10-30T18:39:29Z</time>
      </trkpt>
      <trkpt lat="44.45489" lon="1.37694">
        <ele>277.708</ele>
        <time>2019-10-30T18:39:09Z</time>
      </trkpt>
      <trkpt lat="44.45532" lon="1.37542">
        <ele>287.213</ele>
        <time>2019-10-30T18:38:49Z</time>
      </trkpt>
      <trkpt lat="44.45645" lon="1.37413">
        <ele>284.421</ele>
        <time>2019-10-30T18:38:29Z</time>
      </trkpt>
      <trkpt lat="44.45684" lon="1.37389">
        <ele>287.661</ele>
        <time>2019-10-30T18:38:09Z</time>
      </trkpt>
      <trkpt lat="44.45714" lon="1.37333">
        <ele>291.071</ele>
        <time>2019-10-30T18:37:49Z</time>
      </trkpt>
      <trkpt lat="44.45797" lon="1.37253">
        <ele>294.322</ele>
        <time>2019-10-30T18:37:29Z</time>
      </trkpt>
      <trkpt lat="44.45861" lon="1.37238">
        <ele>297.916</ele>
        <time>2019-10-30T18:37:09Z</time>
      </trkpt>
      <trkpt lat="44.45961" lon="1.37245">
        <ele>299.724</ele>
        <time>2019-10-30T18:36:49Z</time>
      </trkpt>
      <trkpt lat="44.46022" lon="1.3724">
        <ele>299.298</ele>
        <time>2019-10-30T18:36:29Z</time>
      </trkpt>
      <trkpt lat="44.46164" lon="1.3718">
        <ele>292.665</ele>
        <time>2019-10-30T18:36:09Z</time>
      </trkpt>
      <trkpt lat="44.462" lon="1.37135">
        <ele>296.87</ele>
        <time>2019-10-30T18:35:49Z</time>
      </trkpt>
      <trkpt lat="44.46312" lon="1.37182">
        <ele>302.734</ele>
        <time>2019-10-30T18:35:29Z</time>
      </trkpt>
      <trkpt lat="44.46349" lon="1.37184">
        <ele>299.108</ele>
        <time>2019-10-30T18:35:09Z</time>
      </trkpt>
      <trkpt lat="44.46358" lon="1.37118">
        <ele>296.726</ele>
        <time>2019-10-30T18:34:49Z</time>
      </trkpt>
      <trkpt lat="44.4638" lon="1.37053">
        <ele>291.96</ele>
        <time>2019-10-30T18:34:29Z</time>
      </trkpt>
      <trkpt lat="44.46385" lon="1.36991">
        <ele>288.186</ele>
        <time>2019-10-30T18:34:09Z</time>
      </trkpt>
      <trkpt lat="44.46405" lon="1.36928">
        <ele>283.477</ele>
        <time>2019-10-30T18:33:49Z</time>
      </trkpt>
      <trkpt lat="44.46401" lon="1.36857">
        <ele>284.078</ele>
        <time>2019-10-30T18:33:29Z</time>
      </trkpt>
      <trkpt lat="44.46413" lon="1.3676">
        <ele>282.082</ele>
        <time>2019-10-30T18:33:09Z</time>
      </trkpt>
      <trkpt lat="44.46432" lon="1.36705">
        <ele>279.33</ele>
        <time>2019-10-30T18:32:49Z</time>
      </trkpt>
      <trkpt lat="44.46541" lon="1.36554">
        <ele>237.844</ele>
        <time>2019-10-30T18:32:29Z</time>
      </trkpt>
      <trkpt lat="44.46598" lon="1.36507">
        <ele>219.571</ele>
        <time>2019-10-30T18:32:09Z</time>
      </trkpt>
      <trkpt lat="44.46604" lon="1.36483">
        <ele>217.356</ele>
        <time>2019-10-30T18:31:49Z</time>
      </trkpt>
      <trkpt lat="44.46645" lon="1.36464">
        <ele>204.48</ele>
        <time>2019-10-30T18:31:29Z</time>
      </trkpt>
      <trkpt lat="44.4668" lon="1.36412">
        <ele>195.708</ele>
        <time>2019-10-30T18:31:09Z</time>
      </trkpt>
      <trkpt lat="44.46698" lon="1.3639">
        <ele>191.316</ele>
        <time>2019-10-30T18:30:49Z</time>
      </trkpt>
      <trkpt lat="44.46766" lon="1.36259">
        <ele>166.488</ele>
        <time>2019-10-30T18:30:29Z</time>
      </trkpt>
      <trkpt lat="44.46825" lon="1.36238">
        <ele>156.446</ele>
        <time>2019-10-30T18:30:09Z</time>
      </trkpt>
      <trkpt lat="44.46874" lon="1.36164">
        <ele>133.341</ele>
        <time>2019-10-30T18:29:49Z</time>
      </trkpt>
      <trkpt lat="44.46888" lon="1.36195">
        <ele>136.462</ele>
        <time>2019-10-30T18:29:29Z</time>
      </trkpt>
      <trkpt lat="44.46902" lon="1.36199">
        <ele>132.336</ele>
        <time>2019-10-30T18:29:09Z</time>
      </trkpt>
      <trkpt lat="44.46925" lon="1.36115">
        <ele>116.174</ele>
        <time>2019-10-30T18:28:49Z</time>
      </trkpt>
      <trkpt lat="44.46906" lon="1.36095">
        <ele>116.198</ele>
        <time>2019-10-30T18:28:29Z</time>
      </trkpt>
      <trkpt lat="44.46934" lon="1.36033">
        <ele>112.755</ele>
        <time>2019-10-30T18:28:09Z</time>
      </trkpt>
      <trkpt lat="44.46966" lon="1.36016">
        <ele>113.38</ele>
        <time>2019-10-30T18:27:49Z</time>
      </trkpt>
      <trkpt lat="44.46944" lon="1.35956">
        <ele>115.274</ele>
        <time>2019-10-30T18:27:29Z</time>
      </trkpt>
      <trkpt lat="44.46953" lon="1.35887">
        <ele>122.308</ele>
        <time>2019-10-30T18:27:09Z</time>
      </trkpt>
      <trkpt lat="44.46982" lon="1.35854">
        <ele>123.817</ele>
        <time>2019-10-30T18:26:49Z</time>
      </trkpt>
      <trkpt lat="44.47036" lon="1.35846">
        <ele>128.189</ele>
        <time>2019-10-30T18:26:29Z</time>
      </trkpt>
      <trkpt lat="44.47098" lon="1.35841">
        <ele>134.385</ele>
        <time>2019-10-30T18:26:09Z</time>
      </trkpt>
      <trkpt lat="44.47117" lon="1.3579">
        <ele>141.667</ele>
        <time>2019-10-30T18:25:49Z</time>
      </trkpt>
      <trkpt lat="44.47105" lon="1.35706">
        <ele>157.228</ele>
        <time>2019-10-30T18:25:29Z</time>
      </trkpt>
      <trkpt lat="44.47105" lon="1.35657">
        <ele>163.032</ele>
        <time>2019-10-30T18:25:09Z</time>
      </trkpt>
      <trkpt lat="44.4709" lon="1.35622">
        <ele>167.36</ele>
        <time>2019-10-30T18:24:49Z</time>
      </trkpt>
      <trkpt lat="44.47072" lon="1.35555">
        <ele>175.934</ele>
        <time>2019-10-30T18:24:29Z</time>
      </trkpt>
      <trkpt lat="44.47006" lon="1.35471">
        <ele>191.221</ele>
        <time>2019-10-30T18:24:09Z</time>
      </trkpt>
      <trkpt lat="44.46961" lon="1.35452">
        <ele>206.236</ele>
        <time>2019-10-30T18:23:49Z</time>
      </trkpt>
      <trkpt lat="44.46937" lon="1.35411">
        <ele>212.04</ele>
        <time>2019-10-30T18:23:29Z</time>
      </trkpt>
      <trkpt lat="44.46898" lon="1.35379">
        <ele>221.508</ele>
        <time>2019-10-30T18:23:09Z</time>
      </trkpt>
      <trkpt lat="44.46881" lon="1.35304">
        <ele>226.021</ele>
        <time>2019-10-30T18:22:49Z</time>
      </trkpt>
      <trkpt lat="44.46852" lon="1.3525">
        <ele>228.429</ele>
        <time>2019-10-30T18:22:29Z</time>
      </trkpt>
      <trkpt lat="44.46792" lon="1.35222">
        <ele>250.047</ele>
        <time>2019-10-30T18:22:09Z</time>
      </trkpt>
      <trkpt lat="44.46794" lon="1.35075">
        <ele>251.466</ele>
        <time>2019-10-30T18:21:49Z</time>
      </trkpt>
      <trkpt lat="44.46822" lon="1.35013">
        <ele>248.447</ele>
        <time>2019-10-30T18:21:29Z</time>
      </trkpt>
      <trkpt lat="44.46794" lon="1.34966">
        <ele>254.331</ele>
        <time>2019-10-30T18:21:09Z</time>
      </trkpt>
      <trkpt lat="44.46773" lon="1.3497">
        <ele>256.639</ele>
        <time>2019-10-30T18:20:49Z</time>
      </trkpt>
      <trkpt lat="44.46732" lon="1.34951">
        <ele>256.783</ele>
        <time>2019-10-30T18:20:29Z</time>
      </trkpt>
      <trkpt lat="44.46666" lon="1.34963">
        <ele>261.91</ele>
        <time>2019-10-30T18:20:09Z</time>
      </trkpt>
      <trkpt lat="44.46638" lon="1.34955">
        <ele>264.535</ele>
        <time>2019-10-30T18:19:49Z</time>
      </trkpt>
      <trkpt lat="44.4656" lon="1.34888">
        <ele>271.549</ele>
        <time>2019-10-30T18:19:29Z</time>
      </trkpt>
      <trkpt lat="44.46533" lon="1.3485">
        <ele>275.808</ele>
        <time>2019-10-30T18:19:09Z</time>
      </trkpt>
      <trkpt lat="44.46529" lon="1.34806">
        <ele>273.614</ele>
        <time>2019-10-30T18:18:49Z</time>
      </trkpt>
      <trkpt lat="44.46549" lon="1.3472">
        <ele>271.786</ele>
        <time>2019-10-30T18:18:29Z</time>
      </trkpt>
      <trkpt lat="44.4654" lon="1.34666">
        <ele>275.035</ele>
        <time>2019-10-30T18:18:09Z</time>
      </trkpt>
      <trkpt lat="44.46513" lon="1.34606">
        <ele>275.812</ele>
        <time>2019-10-30T18:17:49Z</time>
      </trkpt>
      <trkpt lat="44.4647" lon="1.34555">
        <ele>273.353</ele>
        <time>2019-10-30T18:17:29Z</time>
      </trkpt>
      <trkpt lat="44.46304" lon="1.3449">
        <ele>285.167</ele>
        <time>2019-10-30T18:17:09Z</time>
      </trkpt>
      <trkpt lat="44.46046" lon="1.34092">
        <ele>291.565</ele>
        <time>2019-10-30T18:16:49Z</time>
      </trkpt>
      <trkpt lat="44.46037" lon="1.34029">
        <ele>293.339</ele>
        <time>2019-10-30T18:16:29Z</time>
      </trkpt>
      <trkpt lat="44.46006" lon="1.33896">
        <ele>292.556</ele>
        <time>2019-10-30T18:16:09Z</time>
      </trkpt>
      <trkpt lat="44.45968" lon="1.33788">
        <ele>295.451</ele>
        <time>2019-10-30T18:15:49Z</time>
      </trkpt>
      <trkpt lat="44.45964" lon="1.33745">
        <ele>296.655</ele>
        <time>2019-10-30T18:15:29Z</time>
      </trkpt>
      <trkpt lat="44.45934" lon="1.33619">
        <ele>298.108</ele>
        <time>2019-10-30T18:15:09Z</time>
      </trkpt>
      <trkpt lat="44.4589" lon="1.33511">
        <ele>295.723</ele>
        <time>2019-10-30T18:14:49Z</time>
      </trkpt>
      <trkpt lat="44.45808" lon="1.33399">
        <ele>297.649</ele>
        <time>2019-10-30T18:14:29Z</time>
      </trkpt>
      <trkpt lat="44.45765" lon="1.33345">
        <ele>296.895</ele>
        <time>2019-10-30T18:14:09Z</time>
      </trkpt>
      <trkpt lat="44.45705" lon="1.33321">
        <ele>294.127</ele>
        <time>2019-10-30T18:13:49Z</time>
      </trkpt>
      <trkpt lat="44.45594" lon="1.33311">
        <ele>296.478</ele>
        <time>2019-10-30T18:13:29Z</time>
      </trkpt>
      <trkpt lat="44.45589" lon="1.3327">
        <ele>296.062</ele>
        <time>2019-10-30T18:13:09Z</time>
      </trkpt>
      <trkpt lat="44.4557" lon="1.33233">
        <ele>295.14</ele>
        <time>2019-10-30T18:12:49Z</time>
      </trkpt>
      <trkpt lat="44.4555" lon="1.33169">
        <ele>292.244</ele>
        <time>2019-10-30T18:12:29Z</time>
      </trkpt>
      <trkpt lat="44.4553" lon="1.33027">
        <ele>284.381</ele>
        <time>2019-10-30T18:12:09Z</time>
      </trkpt>
      <trkpt lat="44.45538" lon="1.32839">
        <ele>280.076</ele>
        <time>2019-10-30T18:11:49Z</time>
      </trkpt>
      <trkpt lat="44.45521" lon="1.32553">
        <ele>268.15</ele>
        <time>2019-10-30T18:11:29Z</time>
      </trkpt>
      <trkpt lat="44.45512" lon="1.32416">
        <ele>261.008</ele>
        <time>2019-10-30T18:11:09Z</time>
      </trkpt>
      <trkpt lat="44.45525" lon="1.32273">
        <ele>263.315</ele>
        <time>2019-10-30T18:10:49Z</time>
      </trkpt>
      <trkpt lat="44.45457" lon="1.32187">
        <ele>266.605</ele>
        <time>2019-10-30T18:10:29Z</time>
      </trkpt>
      <trkpt lat="44.45384" lon="1.32131">
        <ele>268.744</ele>
        <time>2019-10-30T18:10:09Z</time>
      </trkpt>
      <trkpt lat="44.45332" lon="1.32067">
        <ele>270.629</ele>
        <time>2019-10-30T18:09:49Z</time>
      </trkpt>
      <trkpt lat="44.45392" lon="1.31886">
        <ele>280.41</ele>
        <time>2019-10-30T18:09:29Z</time>
      </trkpt>
      <trkpt lat="44.45429" lon="1.31703">
        <ele>291.724</ele>
        <time>2019-10-30T18:09:09Z</time>
      </trkpt>
      <trkpt lat="44.45429" lon="1.31654">
        <ele>293.932</ele>
        <time>2019-10-30T18:08:49Z</time>
      </trkpt>
      <trkpt lat="44.45466" lon="1.31542">
        <ele>294.256</ele>
        <time>2019-10-30T18:08:29Z</time>
      </trkpt>
      <trkpt lat="44.45517" lon="1.31507">
        <ele>288.453</ele>
        <time>2019-10-30T18:08:09Z</time>
      </trkpt>
      <trkpt lat="44.45577" lon="1.3146">
        <ele>288.248</ele>
        <time>2019-10-30T18:07:49Z</time>
      </trkpt>
      <trkpt lat="44.45618" lon="1.31466">
        <ele>287.332</ele>
        <time>2019-10-30T18:07:29Z</time>
      </trkpt>
      <trkpt lat="44.45672" lon="1.31497">
        <ele>281.608</ele>
        <time>2019-10-30T18:07:09Z</time>
      </trkpt>
      <trkpt lat="44.45878" lon="1.31486">
        <ele>259.811</ele>
        <time>2019-10-30T18:06:49Z</time>
      </trkpt>
      <trkpt lat="44.45974" lon="1.31497">
        <ele>256.183</ele>
        <time>2019-10-30T18:06:29Z</time>
      </trkpt>
      <trkpt lat="44.46053" lon="1.3152">
        <ele>261.862</ele>
        <time>2019-10-30T18:06:09Z</time>
      </trkpt>
      <trkpt lat="44.46112" lon="1.31516">
        <ele>262.424</ele>
        <time>2019-10-30T18:05:49Z</time>
      </trkpt>
      <trkpt lat="44.46212" lon="1.31527">
        <ele>267.985</ele>
        <time>2019-10-30T18:05:29Z</time>
      </trkpt>
      <trkpt lat="44.46329" lon="1.31488">
        <ele>270.439</ele>
        <time>2019-10-30T18:05:09Z</time>
      </trkpt>
      <trkpt lat="44.46489" lon="1.31445">
        <ele>273.647</ele>
        <time>2019-10-30T18:04:49Z</time>
      </trkpt>
      <trkpt lat="44.4658" lon="1.314">
        <ele>281.161</ele>
        <time>2019-10-30T18:04:29Z</time>
      </trkpt>
      <trkpt lat="44.46717" lon="1.31281">
        <ele>291.878</ele>
        <time>2019-10-30T18:04:09Z</time>
      </trkpt>
      <trkpt lat="44.46774" lon="1.31206">
        <ele>292.013</ele>
        <time>2019-10-30T18:03:49Z</time>
      </trkpt>
      <trkpt lat="44.46842" lon="1.31064">
        <ele>286.217</ele>
        <time>2019-10-30T18:03:29Z</time>
      </trkpt>
      <trkpt lat="44.4692" lon="1.30973">
        <ele>272.908</ele>
        <time>2019-10-30T18:03:09Z</time>
      </trkpt>
      <trkpt lat="44.46997" lon="1.30937">
        <ele>265.817</ele>
        <time>2019-10-30T18:02:49Z</time>
      </trkpt>
      <trkpt lat="44.4706" lon="1.30866">
        <ele>257.898</ele>
        <time>2019-10-30T18:02:29Z</time>
      </trkpt>
      <trkpt lat="44.47132" lon="1.3081">
        <ele>256.818</ele>
        <time>2019-10-30T18:02:09Z</time>
      </trkpt>
      <trkpt lat="44.47218" lon="1.30786">
        <ele>243.398</ele>
        <time>2019-10-30T18:01:49Z</time>
      </trkpt>
      <trkpt lat="44.47252" lon="1.30743">
        <ele>235.269</ele>
        <time>2019-10-30T18:01:29Z</time>
      </trkpt>
      <trkpt lat="44.47293" lon="1.30618">
        <ele>217.953</ele>
        <time>2019-10-30T18:01:09Z</time>
      </trkpt>
      <trkpt lat="44.47325" lon="1.30588">
        <ele>210.781</ele>
        <time>2019-10-30T18:00:49Z</time>
      </trkpt>
      <trkpt lat="44.47388" lon="1.30478">
        <ele>192.345</ele>
        <time>2019-10-30T18:00:29Z</time>
      </trkpt>
      <trkpt lat="44.47444" lon="1.30414">
        <ele>180.382</ele>
        <time>2019-10-30T18:00:09Z</time>
      </trkpt>
      <trkpt lat="44.47569" lon="1.30382">
        <ele>164.417</ele>
        <time>2019-10-30T17:59:49Z</time>
      </trkpt>
      <trkpt lat="44.47613" lon="1.30313">
        <ele>148.971</ele>
        <time>2019-10-30T17:59:29Z</time>
      </trkpt>
      <trkpt lat="44.47641" lon="1.30222">
        <ele>147.108</ele>
        <time>2019-10-30T17:59:09Z</time>
      </trkpt>
      <trkpt lat="44.47561" lon="1.30139">
        <ele>140.614</ele>
        <time>2019-10-30T17:58:49Z</time>
      </trkpt>
      <trkpt lat="44.47457" lon="1.30078">
        <ele>137.204</ele>
        <time>2019-10-30T17:58:29Z</time>
      </trkpt>
      <trkpt lat="44.47382" lon="1.30076">
        <ele>131.253</ele>
        <time>2019-10-30T17:58:09Z</time>
      </trkpt>
      <trkpt lat="44.47356" lon="1.30057">
        <ele>128.966</ele>
        <time>2019-10-30T17:57:49Z</time>
      </trkpt>
      <trkpt lat="44.47321" lon="1.30167">
        <ele>140.127</ele>
        <time>2019-10-30T17:57:29Z</time>
      </trkpt>
      <trkpt lat="44.472" lon="1.30158">
        <ele>142.761</ele>
        <time>2019-10-30T17:57:09Z</time>
      </trkpt>
      <trkpt lat="44.4714" lon="1.30132">
        <ele>138.049</ele>
        <time>2019-10-30T17:56:49Z</time>
      </trkpt>
      <trkpt lat="44.47088" lon="1.30121">
        <ele>131.913</ele>
        <time>2019-10-30T17:56:29Z</time>
      </trkpt>
      <trkpt lat="44.47037" lon="1.30096">
        <ele>126.97</ele>
        <time>2019-10-30T17:56:09Z</time>
      </trkpt>
      <trkpt lat="44.46918" lon="1.3008">
        <ele>130.925</ele>
        <time>2019-10-30T17:55:49Z</time>
      </trkpt>
      <trkpt lat="44.46833" lon="1.3008">
        <ele>132.459</ele>
        <time>2019-10-30T17:55:29Z</time>
      </trkpt>
      <trkpt lat="44.46794" lon="1.30098">
        <ele>134.008</ele>
        <time>2019-10-30T17:55:09Z</time>
      </trkpt>
      <trkpt lat="44.46717" lon="1.30098">
        <ele>130.513</ele>
        <time>2019-10-30T17:54:49Z</time>
      </trkpt>
      <trkpt lat="44.46698" lon="1.30087">
        <ele>128.449</ele>
        <time>2019-10-30T17:54:29Z</time>
      </trkpt>
      <trkpt lat="44.46684" lon="1.30018">
        <ele>120.237</ele>
        <time>2019-10-30T17:54:09Z</time>
      </trkpt>
      <trkpt lat="44.46596" lon="1.30012">
        <ele>110.529</ele>
        <time>2019-10-30T17:53:49Z</time>
      </trkpt>
      <trkpt lat="44.46582" lon="1.30007">
        <ele>107.45</ele>
        <time>2019-10-30T17:53:29Z</time>
      </trkpt>
      <trkpt lat="44.46561" lon="1.30039">
        <ele>107.834</ele>
        <time>2019-10-30T17:53:09Z</time>
      </trkpt>
      <trkpt lat="44.46517" lon="1.29996">
        <ele>102.732</ele>
        <time>2019-10-30T17:52:49Z</time>
      </trkpt>
      <trkpt lat="44.46526" lon="1.29973">
        <ele>103.056</ele>
        <time>2019-10-30T17:52:29Z</time>
      </trkpt>
      <trkpt lat="44.465" lon="1.29936">
        <ele>103.493</ele>
        <time>2019-10-30T17:52:09Z</time>
      </trkpt>
      <trkpt lat="44.46501" lon="1.29882">
        <ele>104.328</ele>
        <time>2019-10-30T17:51:49Z</time>
      </trkpt>
      <trkpt lat="44.46485" lon="1.29827">
        <ele>106.352</ele>
        <time>2019-10-30T17:51:29Z</time>
      </trkpt>
      <trkpt lat="44.46429" lon="1.29779">
        <ele>110.008</ele>
        <time>2019-10-30T17:51:09Z</time>
      </trkpt>
      <trkpt lat="44.46401" lon="1.29732">
        <ele>105.713</ele>
        <time>2019-10-30T17:50:49Z</time>
      </trkpt>
      <trkpt lat="44.4632" lon="1.29667">
        <ele>108.921</ele>
        <time>2019-10-30T17:50:29Z</time>
      </trkpt>
      <trkpt lat="44.46244" lon="1.29581">
        <ele>112.761</ele>
        <time>2019-10-30T17:50:09Z</time>
      </trkpt>
      <trkpt lat="44.4617" lon="1.2945">
        <ele>117.88</ele>
        <time>2019-10-30T17:49:49Z</time>
      </trkpt>
      <trkpt lat="44.46122" lon="1.29316">
        <ele>116.921</ele>
        <time>2019-10-30T17:49:29Z</time>
      </trkpt>
      <trkpt lat="44.46085" lon="1.29147">
        <ele>120.985</ele>
        <time>2019-10-30T17:49:09Z</time>
      </trkpt>
      <trkpt lat="44.4609" lon="1.28953">
        <ele>113.543</ele>
        <time>2019-10-30T17:48:49Z</time>
      </trkpt>
      <trkpt lat="44.46038" lon="1.28884">
        <ele>114.687</ele>
        <time>2019-10-30T17:48:29Z</time>
      </trkpt>
      <trkpt lat="44.46033" lon="1.2886">
        <ele>115.894</ele>
        <time>2019-10-30T17:48:09Z</time>
      </trkpt>
      <trkpt lat="44.46089" lon="1.28882">
        <ele>110.289</ele>
        <time>2019-10-30T17:47:49Z</time>
      </trkpt>
      <trkpt lat="44.46138" lon="1.28701">
        <ele>124.393</ele>
        <time>2019-10-30T17:47:29Z</time>
      </trkpt>
      <trkpt lat="44.46213" lon="1.28552">
        <ele>125.008</ele>
        <time>2019-10-30T17:47:09Z</time>
      </trkpt>
      <trkpt lat="44.46302" lon="1.28447">
        <ele>119.725</ele>
        <time>2019-10-30T17:46:49Z</time>
      </trkpt>
      <trkpt lat="44.46401" lon="1.28329">
        <ele>120.105</ele>
        <time>2019-10-30T17:46:29Z</time>
      </trkpt>
      <trkpt lat="44.46472" lon="1.28286">
        <ele>111.179</ele>
        <time>2019-10-30T17:46:09Z</time>
      </trkpt>
      <trkpt lat="44.46481" lon="1.2826">
        <ele>112.395</ele>
        <time>2019-10-30T17:45:49Z</time>
      </trkpt>
      <trkpt lat="44.46514" lon="1.28236">
        <ele>113.566</ele>
        <time>2019-10-30T17:45:29Z</time>
      </trkpt>
      <trkpt lat="44.46649" lon="1.28193">
        <ele>121.66</ele>
        <time>2019-10-30T17:45:09Z</time>
      </trkpt>
      <trkpt lat="44.46705" lon="1.28197">
        <ele>117.168</ele>
        <time>2019-10-30T17:44:49Z</time>
      </trkpt>
      <trkpt lat="44.46866" lon="1.282">
        <ele>118.332</ele>
        <time>2019-10-30T17:44:29Z</time>
      </trkpt>
      <trkpt lat="44.47088" lon="1.2818">
        <ele>117.359</ele>
        <time>2019-10-30T17:44:09Z</time>
      </trkpt>
      <trkpt lat="44.47208" lon="1.28171">
        <ele>110.914</ele>
        <time>2019-10-30T17:43:49Z</time>
      </trkpt>
      <trkpt lat="44.47333" lon="1.28131">
        <ele>108.438</ele>
        <time>2019-10-30T17:43:29Z</time>
      </trkpt>
      <trkpt lat="44.47437" lon="1.2812">
        <ele>106.008</ele>
        <time>2019-10-30T17:43:09Z</time>
      </trkpt>
      <trkpt lat="44.47488" lon="1.281">
        <ele>106.42</ele>
        <time>2019-10-30T17:42:49Z</time>
      </trkpt>
      <trkpt lat="44.47524" lon="1.28167">
        <ele>102.2</ele>
        <time>2019-10-30T17:42:29Z</time>
      </trkpt>
      <trkpt lat="44.47553" lon="1.28195">
        <ele>101.029</ele>
        <time>2019-10-30T17:42:09Z</time>
      </trkpt>
      <trkpt lat="44.47705" lon="1.28185">
        <ele>105.075</ele>
        <time>2019-10-30T17:41:49Z</time>
      </trkpt>
      <trkpt lat="44.47799" lon="1.28587">
        <ele>102.186</ele>
        <time>2019-10-30T17:41:29Z</time>
      </trkpt>
      <trkpt lat="44.47911" lon="1.28582">
        <ele>102.06</ele>
        <time>2019-10-30T17:41:09Z</time>
      </trkpt>
      <trkpt lat="44.47916" lon="1.28625">
        <ele>107.968</ele>
        <time>2019-10-30T17:40:49Z</time>
      </trkpt>
      <trkpt lat="44.48002" lon="1.2859">
        <ele>106.912</ele>
        <time>2019-10-30T17:40:29Z</time>
      </trkpt>
      <trkpt lat="44.48023" lon="1.28594">
        <ele>111.639</ele>
        <time>2019-10-30T17:40:09Z</time>
      </trkpt>
      <trkpt lat="44.48023" lon="1.28618">
        <ele>110.774</ele>
        <time>2019-10-30T17:39:49Z</time>
      </trkpt>
      <trkpt lat="44.48087" lon="1.28546">
        <ele>110.978</ele>
        <time>2019-10-30T17:39:29Z</time>
      </trkpt>
      <trkpt lat="44.4808" lon="1.28581">
        <ele>113.008</ele>
        <time>2019-10-30T17:39:09Z</time>
      </trkpt>
      <trkpt lat="44.48111" lon="1.28553">
        <ele>116.617</ele>
        <time>2019-10-30T17:38:49Z</time>
      </trkpt>
      <trkpt lat="44.4816" lon="1.28543">
        <ele>126.689</ele>
        <time>2019-10-30T17:38:29Z</time>
      </trkpt>
      <trkpt lat="44.48211" lon="1.28505">
        <ele>149.128</ele>
        <time>2019-10-30T17:38:09Z</time>
      </trkpt>
      <trkpt lat="44.48281" lon="1.28522">
        <ele>148.424</ele>
        <time>2019-10-30T17:37:49Z</time>
      </trkpt>
      <trkpt lat="44.48339" lon="1.28522">
        <ele>148.985</ele>
        <time>2019-10-30T17:37:29Z</time>
      </trkpt>
      <trkpt lat="44.48394" lon="1.28431">
        <ele>191.349</ele>
        <time>2019-10-30T17:37:09Z</time>
      </trkpt>
      <trkpt lat="44.48412" lon="1.28437">
        <ele>196.317</ele>
        <time>2019-10-30T17:36:49Z</time>
      </trkpt>
      <trkpt lat="44.48435" lon="1.28417">
        <ele>206.371</ele>
        <time>2019-10-30T17:36:29Z</time>
      </trkpt>
      <trkpt lat="44.48443" lon="1.28377">
        <ele>217.678</ele>
        <time>2019-10-30T17:36:09Z</time>
      </trkpt>
      <trkpt lat="44.48467" lon="1.28377">
        <ele>226.243</ele>
        <time>2019-10-30T17:35:49Z</time>
      </trkpt>
      <trkpt lat="44.48483" lon="1.2836">
        <ele>233.897</ele>
        <time>2019-10-30T17:35:29Z</time>
      </trkpt>
      <trkpt lat="44.4854" lon="1.28356">
        <ele>241.108</ele>
        <time>2019-10-30T17:35:09Z</time>
      </trkpt>
      <trkpt lat="44.48626" lon="1.28391">
        <ele>232.311</ele>
        <time>2019-10-30T17:34:49Z</time>
      </trkpt>
      <trkpt lat="44.48672" lon="1.2839">
        <ele>236.265</ele>
        <time>2019-10-30T17:34:29Z</time>
      </trkpt>
      <trkpt lat="44.48717" lon="1.28409">
        <ele>236.815</ele>
        <time>2019-10-30T17:34:09Z</time>
      </trkpt>
      <trkpt lat="44.48749" lon="1.28407">
        <ele>240.376</ele>
        <time>2019-10-30T17:33:49Z</time>
      </trkpt>
      <trkpt lat="44.48835" lon="1.28419">
        <ele>242.837</ele>
        <time>2019-10-30T17:33:29Z</time>
      </trkpt>
      <trkpt lat="44.48948" lon="1.28449">
        <ele>250.181</ele>
        <time>2019-10-30T17:33:09Z</time>
      </trkpt>
      <trkpt lat="44.49051" lon="1.28494">
        <ele>243.859</ele>
        <time>2019-10-30T17:32:49Z</time>
      </trkpt>
      <trkpt lat="44.49125" lon="1.28459">
        <ele>251.143</ele>
        <time>2019-10-30T17:32:29Z</time>
      </trkpt>
      <trkpt lat="44.49193" lon="1.28391">
        <ele>259.11</ele>
        <time>2019-10-30T17:32:09Z</time>
      </trkpt>
      <trkpt lat="44.49289" lon="1.28353">
        <ele>264.765</ele>
        <time>2019-10-30T17:31:49Z</time>
      </trkpt>
      <trkpt lat="44.49474" lon="1.28221">
        <ele>269.249</ele>
        <time>2019-10-30T17:31:29Z</time>
      </trkpt>
      <trkpt lat="44.49567" lon="1.28144">
        <ele>275.008</ele>
        <time>2019-10-30T17:31:09Z</time>
      </trkpt>
      <trkpt lat="44.49634" lon="1.27979">
        <ele>270.007</ele>
        <time>2020-12-26T09:20:15Z</time>
      </trkpt>
      <trkpt lat="44.49576" lon="1.27905">
        <ele>264.961</ele>
        <time>2019-10-30T17:30:09Z</time>
      </trkpt>
      <trkpt lat="44.49621" lon="1.27846">
        <ele>263.031</ele>
        <time>2019-10-30T17:29:49Z</time>
      </trkpt>
      <trkpt lat="44.49668" lon="1.27757">
        <ele>261.334</ele>
        <time>2019-10-30T17:29:29Z</time>
      </trkpt>
      <trkpt lat="44.49688" lon="1.27699">
        <ele>262.425</ele>
        <time>2019-10-30T17:29:09Z</time>
      </trkpt>
      <trkpt lat="44.49736" lon="1.27631">
        <ele>269.379</ele>
        <time>2019-10-30T17:28:49Z</time>
      </trkpt>
      <trkpt lat="44.49806" lon="1.27553">
        <ele>272.897</ele>
        <time>2019-10-30T17:28:29Z</time>
      </trkpt>
      <trkpt lat="44.4984" lon="1.27508">
        <ele>271.131</ele>
        <time>2019-10-30T17:28:09Z</time>
      </trkpt>
      <trkpt lat="44.49863" lon="1.27494">
        <ele>271.618</ele>
        <time>2019-10-30T17:27:49Z</time>
      </trkpt>
      <trkpt lat="44.49889" lon="1.27448">
        <ele>269.323</ele>
        <time>2019-10-30T17:27:29Z</time>
      </trkpt>
      <trkpt lat="44.49908" lon="1.27358">
        <ele>264.377</ele>
        <time>2019-10-30T17:27:09Z</time>
      </trkpt>
      <trkpt lat="44.49928" lon="1.27264">
        <ele>260.808</ele>
        <time>2019-10-30T17:26:49Z</time>
      </trkpt>
      <trkpt lat="44.49918" lon="1.27154">
        <ele>254.215</ele>
        <time>2019-10-30T17:26:29Z</time>
      </trkpt>
      <trkpt lat="44.49892" lon="1.27049">
        <ele>249.387</ele>
        <time>2019-10-30T17:26:09Z</time>
      </trkpt>
      <trkpt lat="44.49889" lon="1.26885">
        <ele>254.817</ele>
        <time>2019-10-30T17:25:49Z</time>
      </trkpt>
      <trkpt lat="44.49874" lon="1.26715">
        <ele>244.834</ele>
        <time>2019-10-30T17:25:29Z</time>
      </trkpt>
      <trkpt lat="44.49846" lon="1.26641">
        <ele>238.175</ele>
        <time>2019-10-30T17:25:09Z</time>
      </trkpt>
      <trkpt lat="44.49797" lon="1.26457">
        <ele>235.399</ele>
        <time>2019-10-30T17:24:49Z</time>
      </trkpt>
      <trkpt lat="44.49792" lon="1.26345">
        <ele>238.327</ele>
        <time>2019-10-30T17:24:29Z</time>
      </trkpt>
      <trkpt lat="44.49754" lon="1.26289">
        <ele>235.931</ele>
        <time>2019-10-30T17:24:09Z</time>
      </trkpt>
      <trkpt lat="44.49713" lon="1.26136">
        <ele>235.268</ele>
        <time>2019-10-30T17:23:49Z</time>
      </trkpt>
      <trkpt lat="44.49727" lon="1.26051">
        <ele>233.573</ele>
        <time>2019-10-30T17:23:29Z</time>
      </trkpt>
      <trkpt lat="44.49753" lon="1.25995">
        <ele>236.617</ele>
        <time>2019-10-30T17:23:09Z</time>
      </trkpt>
      <trkpt lat="44.49768" lon="1.25925">
        <ele>240.808</ele>
        <time>2019-10-30T17:22:49Z</time>
      </trkpt>
      <trkpt lat="44.49756" lon="1.25909">
        <ele>242.413</ele>
        <time>2019-10-30T17:22:29Z</time>
      </trkpt>
      <trkpt lat="44.49756" lon="1.25826">
        <ele>244.176</ele>
        <time>2019-10-30T17:22:09Z</time>
      </trkpt>
      <trkpt lat="44.49744" lon="1.25779">
        <ele>243.316</ele>
        <time>2019-10-30T17:21:49Z</time>
      </trkpt>
      <trkpt lat="44.49833" lon="1.2557">
        <ele>236.539</ele>
        <time>2019-10-30T17:21:29Z</time>
      </trkpt>
      <trkpt lat="44.49799" lon="1.25524">
        <ele>228.04</ele>
        <time>2019-10-30T17:21:09Z</time>
      </trkpt>
      <trkpt lat="44.49755" lon="1.25402">
        <ele>225.954</ele>
        <time>2019-10-30T17:20:49Z</time>
      </trkpt>
      <trkpt lat="44.49751" lon="1.25306">
        <ele>236.972</ele>
        <time>2019-10-30T17:20:29Z</time>
      </trkpt>
      <trkpt lat="44.49723" lon="1.25167">
        <ele>241.016</ele>
        <time>2019-10-30T17:20:09Z</time>
      </trkpt>
      <trkpt lat="44.49771" lon="1.25092">
        <ele>241.463</ele>
        <time>2019-10-30T17:19:49Z</time>
      </trkpt>
      <trkpt lat="44.4983" lon="1.25028">
        <ele>239.178</ele>
        <time>2019-10-30T17:19:29Z</time>
      </trkpt>
      <trkpt lat="44.49934" lon="1.24937">
        <ele>225.032</ele>
        <time>2019-10-30T17:19:09Z</time>
      </trkpt>
      <trkpt lat="44.49969" lon="1.24839">
        <ele>222.008</ele>
        <time>2019-10-30T17:18:49Z</time>
      </trkpt>
      <trkpt lat="44.49986" lon="1.24761">
        <ele>223.424</ele>
        <time>2019-10-30T17:18:29Z</time>
      </trkpt>
      <trkpt lat="44.50053" lon="1.24679">
        <ele>229.304</ele>
        <time>2019-10-30T17:18:09Z</time>
      </trkpt>
      <trkpt lat="44.50165" lon="1.24627">
        <ele>227.069</ele>
        <time>2019-10-30T17:17:49Z</time>
      </trkpt>
      <trkpt lat="44.50275" lon="1.2455">
        <ele>231.218</ele>
        <time>2019-10-30T17:17:29Z</time>
      </trkpt>
      <trkpt lat="44.50281" lon="1.24492">
        <ele>231.019</ele>
        <time>2019-10-30T17:17:09Z</time>
      </trkpt>
      <trkpt lat="44.50311" lon="1.24424">
        <ele>231.833</ele>
        <time>2019-10-30T17:16:49Z</time>
      </trkpt>
      <trkpt lat="44.50326" lon="1.24296">
        <ele>224.051</ele>
        <time>2019-10-30T17:16:29Z</time>
      </trkpt>
      <trkpt lat="44.50256" lon="1.24177">
        <ele>234.025</ele>
        <time>2019-10-30T17:16:09Z</time>
      </trkpt>
      <trkpt lat="44.50226" lon="1.24147">
        <ele>238.862</ele>
        <time>2019-10-30T17:15:49Z</time>
      </trkpt>
      <trkpt lat="44.50213" lon="1.24118">
        <ele>241.367</ele>
        <time>2019-10-30T17:15:29Z</time>
      </trkpt>
      <trkpt lat="44.50264" lon="1.24058">
        <ele>238.631</ele>
        <time>2019-10-30T17:15:09Z</time>
      </trkpt>
      <trkpt lat="44.50313" lon="1.24031">
        <ele>239.008</ele>
        <time>2019-10-30T17:14:49Z</time>
      </trkpt>
      <trkpt lat="44.50353" lon="1.23999">
        <ele>237.314</ele>
        <time>2019-10-30T17:14:29Z</time>
      </trkpt>
      <trkpt lat="44.50387" lon="1.23942">
        <ele>237.904</ele>
        <time>2019-10-30T17:14:09Z</time>
      </trkpt>
      <trkpt lat="44.50399" lon="1.23832">
        <ele>231.353</ele>
        <time>2019-10-30T17:13:49Z</time>
      </trkpt>
      <trkpt lat="44.50424" lon="1.2368">
        <ele>220.356</ele>
        <time>2019-10-30T17:13:29Z</time>
      </trkpt>
      <trkpt lat="44.50444" lon="1.23621">
        <ele>215.337</ele>
        <time>2019-10-30T17:13:09Z</time>
      </trkpt>
      <trkpt lat="44.50443" lon="1.23586">
        <ele>214.961</ele>
        <time>2019-10-30T17:12:49Z</time>
      </trkpt>
      <trkpt lat="44.50554" lon="1.23328">
        <ele>218.949</ele>
        <time>2019-10-30T17:12:29Z</time>
      </trkpt>
      <trkpt lat="44.50495" lon="1.23226">
        <ele>214.323</ele>
        <time>2019-10-30T17:12:09Z</time>
      </trkpt>
      <trkpt lat="44.50422" lon="1.23165">
        <ele>207.72</ele>
        <time>2019-10-30T17:11:49Z</time>
      </trkpt>
      <trkpt lat="44.50426" lon="1.23135">
        <ele>204.095</ele>
        <time>2019-10-30T17:11:29Z</time>
      </trkpt>
      <trkpt lat="44.50443" lon="1.23122">
        <ele>201.619</ele>
        <time>2019-10-30T17:11:09Z</time>
      </trkpt>
      <trkpt lat="44.50437" lon="1.23108">
        <ele>199.208</ele>
        <time>2019-10-30T17:10:49Z</time>
      </trkpt>
      <trkpt lat="44.50445" lon="1.231">
        <ele>197.217</ele>
        <time>2019-10-30T17:10:29Z</time>
      </trkpt>
      <trkpt lat="44.5044" lon="1.23091">
        <ele>195.27</ele>
        <time>2019-10-30T17:10:09Z</time>
      </trkpt>
      <trkpt lat="44.50461" lon="1.23083">
        <ele>191.638</ele>
        <time>2019-10-30T17:09:49Z</time>
      </trkpt>
      <trkpt lat="44.50441" lon="1.23051">
        <ele>185.862</ele>
        <time>2019-10-30T17:09:29Z</time>
      </trkpt>
      <trkpt lat="44.50456" lon="1.23044">
        <ele>182.283</ele>
        <time>2019-10-30T17:09:09Z</time>
      </trkpt>
      <trkpt lat="44.50448" lon="1.2303">
        <ele>179.327</ele>
        <time>2019-10-30T17:08:49Z</time>
      </trkpt>
      <trkpt lat="44.50455" lon="1.23022">
        <ele>176.275</ele>
        <time>2019-10-30T17:08:29Z</time>
      </trkpt>
      <trkpt lat="44.50451" lon="1.2301">
        <ele>173.389</ele>
        <time>2019-10-30T17:08:09Z</time>
      </trkpt>
      <trkpt lat="44.50462" lon="1.23003">
        <ele>170.576</ele>
        <time>2019-10-30T17:07:49Z</time>
      </trkpt>
      <trkpt lat="44.50455" lon="1.22991">
        <ele>167.681</ele>
        <time>2019-10-30T17:07:29Z</time>
      </trkpt>
      <trkpt lat="44.50468" lon="1.2298">
        <ele>163.485</ele>
        <time>2019-10-30T17:07:09Z</time>
      </trkpt>
      <trkpt lat="44.50449" lon="1.22959">
        <ele>158.808</ele>
        <time>2019-10-30T17:06:49Z</time>
      </trkpt>
      <trkpt lat="44.50353" lon="1.2292">
        <ele>149.227</ele>
        <time>2019-10-30T17:06:29Z</time>
      </trkpt>
      <trkpt lat="44.50315" lon="1.22889">
        <ele>134.607</ele>
        <time>2019-10-30T17:06:09Z</time>
      </trkpt>
      <trkpt lat="44.50276" lon="1.22875">
        <ele>121.099</ele>
        <time>2019-10-30T17:05:49Z</time>
      </trkpt>
      <trkpt lat="44.50236" lon="1.22882">
        <ele>114.076</ele>
        <time>2019-10-30T17:05:29Z</time>
      </trkpt>
      <trkpt lat="44.50256" lon="1.22788">
        <ele>102.287</ele>
        <time>2019-10-30T17:05:09Z</time>
      </trkpt>
      <trkpt lat="44.50264" lon="1.22645">
        <ele>98.131</ele>
        <time>2019-10-30T17:04:49Z</time>
      </trkpt>
      <trkpt lat="44.50278" lon="1.22636">
        <ele>97.939</ele>
        <time>2019-10-30T17:04:29Z</time>
      </trkpt>
      <trkpt lat="44.50244" lon="1.22511">
        <ele>97.233</ele>
        <time>2019-10-30T17:04:09Z</time>
      </trkpt>
      <trkpt lat="44.5024" lon="1.22375">
        <ele>97.54</ele>
        <time>2019-10-30T17:03:49Z</time>
      </trkpt>
      <trkpt lat="44.502" lon="1.223">
        <ele>99.755</ele>
        <time>2019-10-30T17:03:29Z</time>
      </trkpt>
      <trkpt lat="44.50214" lon="1.22277">
        <ele>102.129</ele>
        <time>2019-10-30T17:03:09Z</time>
      </trkpt>
      <trkpt lat="44.50223" lon="1.22201">
        <ele>112.208</ele>
        <time>2019-10-30T17:02:49Z</time>
      </trkpt>
      <trkpt lat="44.50215" lon="1.22169">
        <ele>116.41</ele>
        <time>2019-10-30T17:02:29Z</time>
      </trkpt>
      <trkpt lat="44.5021" lon="1.2211">
        <ele>127.955</ele>
        <time>2019-10-30T17:02:09Z</time>
      </trkpt>
      <trkpt lat="44.5021" lon="1.22052">
        <ele>135.634</ele>
        <time>2019-10-30T17:01:49Z</time>
      </trkpt>
      <trkpt lat="44.5025" lon="1.22145">
        <ele>134.566</ele>
        <time>2019-10-30T17:01:29Z</time>
      </trkpt>
      <trkpt lat="44.50347" lon="1.22185">
        <ele>147.957</ele>
        <time>2019-10-30T17:01:09Z</time>
      </trkpt>
      <trkpt lat="44.50359" lon="1.22166">
        <ele>156.841</ele>
        <time>2019-10-30T17:00:49Z</time>
      </trkpt>
      <trkpt lat="44.50337" lon="1.22122">
        <ele>164.159</ele>
        <time>2019-10-30T17:00:29Z</time>
      </trkpt>
      <trkpt lat="44.50342" lon="1.2208">
        <ele>178.423</ele>
        <time>2019-10-30T17:00:09Z</time>
      </trkpt>
      <trkpt lat="44.50397" lon="1.22065">
        <ele>190.35</ele>
        <time>2019-10-30T16:59:49Z</time>
      </trkpt>
      <trkpt lat="44.50455" lon="1.22012">
        <ele>207.235</ele>
        <time>2019-10-30T16:59:29Z</time>
      </trkpt>
      <trkpt lat="44.50481" lon="1.22011">
        <ele>210.449</ele>
        <time>2019-10-30T16:59:09Z</time>
      </trkpt>
      <trkpt lat="44.50465" lon="1.21983">
        <ele>215.208</ele>
        <time>2019-10-30T16:58:49Z</time>
      </trkpt>
      <trkpt lat="44.50393" lon="1.2197">
        <ele>215.417</ele>
        <time>2019-10-30T16:58:29Z</time>
      </trkpt>
      <trkpt lat="44.50358" lon="1.21936">
        <ele>216.77</ele>
        <time>2019-10-30T16:58:09Z</time>
      </trkpt>
      <trkpt lat="44.50336" lon="1.21854">
        <ele>222.238</ele>
        <time>2019-10-30T16:57:49Z</time>
      </trkpt>
      <trkpt lat="44.50324" lon="1.21758">
        <ele>226.919</ele>
        <time>2019-10-30T16:57:29Z</time>
      </trkpt>
      <trkpt lat="44.50334" lon="1.21685">
        <ele>231.71</ele>
        <time>2019-10-30T16:57:09Z</time>
      </trkpt>
      <trkpt lat="44.50361" lon="1.21624">
        <ele>240.794</ele>
        <time>2019-10-30T16:56:49Z</time>
      </trkpt>
      <trkpt lat="44.504" lon="1.21578">
        <ele>248.012</ele>
        <time>2019-10-30T16:56:29Z</time>
      </trkpt>
      <trkpt lat="44.5046" lon="1.21568">
        <ele>255.316</ele>
        <time>2019-10-30T16:56:09Z</time>
      </trkpt>
      <trkpt lat="44.50511" lon="1.21505">
        <ele>259.873</ele>
        <time>2019-10-30T16:55:49Z</time>
      </trkpt>
      <trkpt lat="44.50474" lon="1.21338">
        <ele>262.228</ele>
        <time>2019-10-30T16:55:29Z</time>
      </trkpt>
      <trkpt lat="44.50517" lon="1.21305">
        <ele>261.662</ele>
        <time>2019-10-30T16:55:09Z</time>
      </trkpt>
      <trkpt lat="44.50527" lon="1.21277">
        <ele>259.908</ele>
        <time>2019-10-30T16:54:49Z</time>
      </trkpt>
      <trkpt lat="44.50552" lon="1.21231">
        <ele>256.711</ele>
        <time>2019-10-30T16:54:29Z</time>
      </trkpt>
      <trkpt lat="44.50549" lon="1.21191">
        <ele>253.983</ele>
        <time>2019-10-30T16:54:09Z</time>
      </trkpt>
      <trkpt lat="44.50527" lon="1.21153">
        <ele>253.062</ele>
        <time>2019-10-30T16:53:49Z</time>
      </trkpt>
      <trkpt lat="44.50486" lon="1.21136">
        <ele>248.287</ele>
        <time>2019-10-30T16:53:29Z</time>
      </trkpt>
      <trkpt lat="44.50456" lon="1.21109">
        <ele>243.738</ele>
        <time>2019-10-30T16:53:09Z</time>
      </trkpt>
      <trkpt lat="44.50421" lon="1.2113">
        <ele>247.492</ele>
        <time>2019-10-30T16:52:49Z</time>
      </trkpt>
      <trkpt lat="44.50375" lon="1.21123">
        <ele>245.91</ele>
        <time>2019-10-30T16:52:29Z</time>
      </trkpt>
      <trkpt lat="44.50319" lon="1.21122">
        <ele>243.614</ele>
        <time>2019-10-30T16:52:09Z</time>
      </trkpt>
      <trkpt lat="44.50278" lon="1.21033">
        <ele>236.971</ele>
        <time>2019-10-30T16:51:49Z</time>
      </trkpt>
      <trkpt lat="44.50254" lon="1.20942">
        <ele>230.126</ele>
        <time>2019-10-30T16:51:29Z</time>
      </trkpt>
      <trkpt lat="44.50242" lon="1.20914">
        <ele>225.91</ele>
        <time>2019-10-30T16:51:09Z</time>
      </trkpt>
      <trkpt lat="44.50239" lon="1.20881">
        <ele>223.008</ele>
        <time>2019-10-30T16:50:49Z</time>
      </trkpt>
      <trkpt lat="44.50244" lon="1.20827">
        <ele>224.011</ele>
        <time>2019-10-30T16:50:29Z</time>
      </trkpt>
      <trkpt lat="44.50281" lon="1.20724">
        <ele>221.347</ele>
        <time>2019-10-30T16:50:09Z</time>
      </trkpt>
      <trkpt lat="44.5029" lon="1.20644">
        <ele>219.245</ele>
        <time>2019-10-30T16:49:49Z</time>
      </trkpt>
      <trkpt lat="44.5025" lon="1.20505">
        <ele>211.299</ele>
        <time>2019-10-30T16:49:29Z</time>
      </trkpt>
      <trkpt lat="44.50264" lon="1.20381">
        <ele>202.83</ele>
        <time>2019-10-30T16:49:09Z</time>
      </trkpt>
      <trkpt lat="44.50285" lon="1.20287">
        <ele>193.714</ele>
        <time>2019-10-30T16:48:49Z</time>
      </trkpt>
      <trkpt lat="44.5029" lon="1.20198">
        <ele>183.122</ele>
        <time>2019-10-30T16:48:29Z</time>
      </trkpt>
      <trkpt lat="44.50296" lon="1.20158">
        <ele>178.676</ele>
        <time>2019-10-30T16:48:09Z</time>
      </trkpt>
      <trkpt lat="44.50293" lon="1.201">
        <ele>173.343</ele>
        <time>2019-10-30T16:47:49Z</time>
      </trkpt>
      <trkpt lat="44.50298" lon="1.20079">
        <ele>170.288</ele>
        <time>2019-10-30T16:47:29Z</time>
      </trkpt>
      <trkpt lat="44.50333" lon="1.20065">
        <ele>166.112</ele>
        <time>2019-10-30T16:47:09Z</time>
      </trkpt>
      <trkpt lat="44.50352" lon="1.20022">
        <ele>158.808</ele>
        <time>2019-10-30T16:46:49Z</time>
      </trkpt>
      <trkpt lat="44.50394" lon="1.19675">
        <ele>128.221</ele>
        <time>2019-10-30T16:46:29Z</time>
      </trkpt>
      <trkpt lat="44.50385" lon="1.19609">
        <ele>126.229</ele>
        <time>2019-10-30T16:46:09Z</time>
      </trkpt>
      <trkpt lat="44.50316" lon="1.19595">
        <ele>126.866</ele>
        <time>2019-10-30T16:45:49Z</time>
      </trkpt>
      <trkpt lat="44.50323" lon="1.19522">
        <ele>123.382</ele>
        <time>2019-10-30T16:45:29Z</time>
      </trkpt>
      <trkpt lat="44.50313" lon="1.19459">
        <ele>122.273</ele>
        <time>2019-10-30T16:45:09Z</time>
      </trkpt>
      <trkpt lat="44.50321" lon="1.19414">
        <ele>120.457</ele>
        <time>2019-10-30T16:44:49Z</time>
      </trkpt>
      <trkpt lat="44.50319" lon="1.19374">
        <ele>119.225</ele>
        <time>2019-10-30T16:44:29Z</time>
      </trkpt>
      <trkpt lat="44.50292" lon="1.19299">
        <ele>115.369</ele>
        <time>2019-10-30T16:44:09Z</time>
      </trkpt>
      <trkpt lat="44.50285" lon="1.19241">
        <ele>112.986</ele>
        <time>2019-10-30T16:43:49Z</time>
      </trkpt>
      <trkpt lat="44.50259" lon="1.19199">
        <ele>111.391</ele>
        <time>2019-10-30T16:43:29Z</time>
      </trkpt>
      <trkpt lat="44.50357" lon="1.19056">
        <ele>110.795</ele>
        <time>2019-10-30T16:43:09Z</time>
      </trkpt>
      <trkpt lat="44.5037" lon="1.1885">
        <ele>110.008</ele>
        <time>2019-10-30T16:42:49Z</time>
      </trkpt>
      <trkpt lat="44.50418" lon="1.18856">
        <ele>110.027</ele>
        <time>2019-10-30T16:42:29Z</time>
      </trkpt>
      <trkpt lat="44.50421" lon="1.18846">
        <ele>110.007</ele>
        <time>2019-10-30T16:42:09Z</time>
      </trkpt>
      <trkpt lat="44.50421" lon="1.18846">
        <ele>110.099</ele>
        <time>2019-10-30T16:42:09Z</time>
      </trkpt>
      <trkpt lat="44.50467" lon="1.18835">
        <ele>110.846</ele>
        <time>2020-03-28T11:12:01Z</time>
      </trkpt>
      <trkpt lat="44.50471" lon="1.18795">
        <ele>111.027</ele>
        <time>2019-10-30T16:12:48Z</time>
      </trkpt>
      <trkpt lat="44.50573" lon="1.1876">
        <ele>111.851</ele>
        <time>2019-10-30T16:12:28Z</time>
      </trkpt>
      <trkpt lat="44.50585" lon="1.18706">
        <ele>111.699</ele>
        <time>2019-10-30T16:12:08Z</time>
      </trkpt>
      <trkpt lat="44.5062" lon="1.1864">
        <ele>113.093</ele>
        <time>2019-10-30T16:11:48Z</time>
      </trkpt>
      <trkpt lat="44.50685" lon="1.18563">
        <ele>116.33</ele>
        <time>2019-10-30T16:11:28Z</time>
      </trkpt>
      <trkpt lat="44.50774" lon="1.18507">
        <ele>120.355</ele>
        <time>2019-10-30T16:11:08Z</time>
      </trkpt>
      <trkpt lat="44.50868" lon="1.18391">
        <ele>116.879</ele>
        <time>2019-10-30T16:10:48Z</time>
      </trkpt>
      <trkpt lat="44.50828" lon="1.1834">
        <ele>116.208</ele>
        <time>2019-10-30T16:10:28Z</time>
      </trkpt>
      <trkpt lat="44.50861" lon="1.18239">
        <ele>112.607</ele>
        <time>2019-10-30T16:10:08Z</time>
      </trkpt>
      <trkpt lat="44.50894" lon="1.18044">
        <ele>103.461</ele>
        <time>2019-10-30T16:09:48Z</time>
      </trkpt>
      <trkpt lat="44.5087" lon="1.17829">
        <ele>98.831</ele>
        <time>2019-10-30T16:09:28Z</time>
      </trkpt>
      <trkpt lat="44.50966" lon="1.17172">
        <ele>137.814</ele>
        <time>2019-10-30T16:09:08Z</time>
      </trkpt>
      <trkpt lat="44.50936" lon="1.16988">
        <ele>140.825</ele>
        <time>2019-10-30T16:08:48Z</time>
      </trkpt>
      <trkpt lat="44.51048" lon="1.16712">
        <ele>157.719</ele>
        <time>2019-10-30T16:08:28Z</time>
      </trkpt>
      <trkpt lat="44.51085" lon="1.1671">
        <ele>168.587</ele>
        <time>2019-10-30T16:08:08Z</time>
      </trkpt>
      <trkpt lat="44.51136" lon="1.16757">
        <ele>182.581</ele>
        <time>2019-10-30T16:07:48Z</time>
      </trkpt>
      <trkpt lat="44.51165" lon="1.16744">
        <ele>184.638</ele>
        <time>2019-10-30T16:07:28Z</time>
      </trkpt>
      <trkpt lat="44.51201" lon="1.16684">
        <ele>177.813</ele>
        <time>2019-10-30T16:07:08Z</time>
      </trkpt>
      <trkpt lat="44.51233" lon="1.16628">
        <ele>183.617</ele>
        <time>2019-10-30T16:06:48Z</time>
      </trkpt>
      <trkpt lat="44.51198" lon="1.16527">
        <ele>186.308</ele>
        <time>2019-10-30T16:06:28Z</time>
      </trkpt>
      <trkpt lat="44.51193" lon="1.16419">
        <ele>197.517</ele>
        <time>2019-10-30T16:06:08Z</time>
      </trkpt>
      <trkpt lat="44.51171" lon="1.16405">
        <ele>191.698</ele>
        <time>2019-10-30T16:05:48Z</time>
      </trkpt>
      <trkpt lat="44.51134" lon="1.16318">
        <ele>189.918</ele>
        <time>2019-10-30T16:05:28Z</time>
      </trkpt>
      <trkpt lat="44.51096" lon="1.16259">
        <ele>190.588</ele>
        <time>2019-10-30T16:05:08Z</time>
      </trkpt>
      <trkpt lat="44.51009" lon="1.16151">
        <ele>164.549</ele>
        <time>2019-10-30T16:04:48Z</time>
      </trkpt>
      <trkpt lat="44.51002" lon="1.15989">
        <ele>189.353</ele>
        <time>2019-10-30T16:04:28Z</time>
      </trkpt>
      <trkpt lat="44.51021" lon="1.1595">
        <ele>204.271</ele>
        <time>2019-10-30T16:04:08Z</time>
      </trkpt>
      <trkpt lat="44.51024" lon="1.15842">
        <ele>202.675</ele>
        <time>2019-10-30T16:03:48Z</time>
      </trkpt>
      <trkpt lat="44.51049" lon="1.15788">
        <ele>202.142</ele>
        <time>2019-10-30T16:03:28Z</time>
      </trkpt>
      <trkpt lat="44.51003" lon="1.15696">
        <ele>187.377</ele>
        <time>2019-10-30T16:03:08Z</time>
      </trkpt>
      <trkpt lat="44.50976" lon="1.1559">
        <ele>181.121</ele>
        <time>2019-10-30T16:02:48Z</time>
      </trkpt>
      <trkpt lat="44.50935" lon="1.15557">
        <ele>188.408</ele>
        <time>2019-10-30T16:02:28Z</time>
      </trkpt>
      <trkpt lat="44.50905" lon="1.1545">
        <ele>194.92</ele>
        <time>2019-10-30T16:02:08Z</time>
      </trkpt>
      <trkpt lat="44.50902" lon="1.1534">
        <ele>188.9</ele>
        <time>2019-10-30T16:01:48Z</time>
      </trkpt>
      <trkpt lat="44.50891" lon="1.15224">
        <ele>190.557</ele>
        <time>2019-10-30T16:01:28Z</time>
      </trkpt>
      <trkpt lat="44.5088" lon="1.15171">
        <ele>189.68</ele>
        <time>2019-10-30T16:01:08Z</time>
      </trkpt>
      <trkpt lat="44.50849" lon="1.1513">
        <ele>193.771</ele>
        <time>2019-10-30T16:00:48Z</time>
      </trkpt>
      <trkpt lat="44.50694" lon="1.15051">
        <ele>185.745</ele>
        <time>2019-10-30T16:00:28Z</time>
      </trkpt>
      <trkpt lat="44.50614" lon="1.14962">
        <ele>171.933</ele>
        <time>2019-10-30T16:00:08Z</time>
      </trkpt>
      <trkpt lat="44.50561" lon="1.14818">
        <ele>155.147</ele>
        <time>2019-10-30T15:59:48Z</time>
      </trkpt>
      <trkpt lat="44.50518" lon="1.14771">
        <ele>141.624</ele>
        <time>2019-10-30T15:59:28Z</time>
      </trkpt>
      <trkpt lat="44.5046" lon="1.14743">
        <ele>130.199</ele>
        <time>2019-10-30T15:59:08Z</time>
      </trkpt>
      <trkpt lat="44.50384" lon="1.14746">
        <ele>114.873</ele>
        <time>2019-10-30T15:58:48Z</time>
      </trkpt>
      <trkpt lat="44.50298" lon="1.14696">
        <ele>99.908</ele>
        <time>2019-10-30T15:58:28Z</time>
      </trkpt>
      <trkpt lat="44.50224" lon="1.14696">
        <ele>92.014</ele>
        <time>2019-10-30T15:58:08Z</time>
      </trkpt>
      <trkpt lat="44.50186" lon="1.14647">
        <ele>94.713</ele>
        <time>2019-10-30T15:57:48Z</time>
      </trkpt>
      <trkpt lat="44.50148" lon="1.14553">
        <ele>106.172</ele>
        <time>2019-10-30T15:57:28Z</time>
      </trkpt>
      <trkpt lat="44.50072" lon="1.14514">
        <ele>103.022</ele>
        <time>2019-10-30T15:57:08Z</time>
      </trkpt>
      <trkpt lat="44.50048" lon="1.14446">
        <ele>100.853</ele>
        <time>2019-10-30T15:56:48Z</time>
      </trkpt>
      <trkpt lat="44.50057" lon="1.14363">
        <ele>96.217</ele>
        <time>2019-10-30T15:56:28Z</time>
      </trkpt>
      <trkpt lat="44.50088" lon="1.14283">
        <ele>89.765</ele>
        <time>2019-10-30T15:56:08Z</time>
      </trkpt>
      <trkpt lat="44.50131" lon="1.14223">
        <ele>91.119</ele>
        <time>2019-10-30T15:55:48Z</time>
      </trkpt>
      <trkpt lat="44.50145" lon="1.1422">
        <ele>92.526</ele>
        <time>2019-10-30T15:55:28Z</time>
      </trkpt>
      <trkpt lat="44.50216" lon="1.14113">
        <ele>92.131</ele>
        <time>2019-10-30T15:55:08Z</time>
      </trkpt>
      <trkpt lat="44.50234" lon="1.14073">
        <ele>91.935</ele>
        <time>2019-10-30T15:54:48Z</time>
      </trkpt>
      <trkpt lat="44.50261" lon="1.13967">
        <ele>92.408</ele>
        <time>2019-10-30T15:54:28Z</time>
      </trkpt>
      <trkpt lat="44.50306" lon="1.13646">
        <ele>85.822</ele>
        <time>2019-10-30T15:54:08Z</time>
      </trkpt>
      <trkpt lat="44.50316" lon="1.13629">
        <ele>86.957</ele>
        <time>2019-10-30T15:53:48Z</time>
      </trkpt>
      <trkpt lat="44.50334" lon="1.13631">
        <ele>89.394</ele>
        <time>2019-10-30T15:53:28Z</time>
      </trkpt>
      <trkpt lat="44.50354" lon="1.13622">
        <ele>93.382</ele>
        <time>2019-10-30T15:53:08Z</time>
      </trkpt>
      <trkpt lat="44.50364" lon="1.13644">
        <ele>99.843</ele>
        <time>2019-10-30T15:52:48Z</time>
      </trkpt>
      <trkpt lat="44.50388" lon="1.13619">
        <ele>102.177</ele>
        <time>2019-10-30T15:52:28Z</time>
      </trkpt>
      <trkpt lat="44.50406" lon="1.13621">
        <ele>109.235</ele>
        <time>2019-10-30T15:52:08Z</time>
      </trkpt>
      <trkpt lat="44.50398" lon="1.13655">
        <ele>110.519</ele>
        <time>2019-10-30T15:51:48Z</time>
      </trkpt>
      <trkpt lat="44.50433" lon="1.13627">
        <ele>116.286</ele>
        <time>2019-10-30T15:51:28Z</time>
      </trkpt>
      <trkpt lat="44.50435" lon="1.13665">
        <ele>117.911</ele>
        <time>2019-10-30T15:51:08Z</time>
      </trkpt>
      <trkpt lat="44.5042" lon="1.13673">
        <ele>117.055</ele>
        <time>2019-10-30T15:50:48Z</time>
      </trkpt>
      <trkpt lat="44.50426" lon="1.13751">
        <ele>115.908</ele>
        <time>2019-10-30T15:50:28Z</time>
      </trkpt>
      <trkpt lat="44.50478" lon="1.13757">
        <ele>119.027</ele>
        <time>2019-10-30T15:50:08Z</time>
      </trkpt>
      <trkpt lat="44.50472" lon="1.13805">
        <ele>117.007</ele>
        <time>2019-10-30T15:49:48Z</time>
      </trkpt>
      <trkpt lat="44.50462" lon="1.13804">
        <ele>115.999</ele>
        <time>2019-10-30T15:49:28Z</time>
      </trkpt>
      <trkpt lat="44.50459" lon="1.13816">
        <ele>116.83</ele>
        <time>2019-10-30T15:49:08Z</time>
      </trkpt>
      <trkpt lat="44.50412" lon="1.13876">
        <ele>119.411</ele>
        <time>2019-10-30T15:48:48Z</time>
      </trkpt>
      <trkpt lat="44.5041" lon="1.13896">
        <ele>120.255</ele>
        <time>2019-10-30T15:48:28Z</time>
      </trkpt>
      <trkpt lat="44.50446" lon="1.13873">
        <ele>123.083</ele>
        <time>2019-10-30T15:48:08Z</time>
      </trkpt>
      <trkpt lat="44.50492" lon="1.13897">
        <ele>130.557</ele>
        <time>2019-10-30T15:47:48Z</time>
      </trkpt>
      <trkpt lat="44.50517" lon="1.13925">
        <ele>133.364</ele>
        <time>2019-10-30T15:47:28Z</time>
      </trkpt>
      <trkpt lat="44.50523" lon="1.13956">
        <ele>133.699</ele>
        <time>2019-10-30T15:47:08Z</time>
      </trkpt>
      <trkpt lat="44.50565" lon="1.13985">
        <ele>133.113</ele>
        <time>2019-10-30T15:46:48Z</time>
      </trkpt>
      <trkpt lat="44.50663" lon="1.14006">
        <ele>134.408</ele>
        <time>2019-10-30T15:46:28Z</time>
      </trkpt>
      <trkpt lat="44.50652" lon="1.14079">
        <ele>139.314</ele>
        <time>2019-10-30T15:46:08Z</time>
      </trkpt>
      <trkpt lat="44.50653" lon="1.14148">
        <ele>142.113</ele>
        <time>2019-10-30T15:45:48Z</time>
      </trkpt>
      <trkpt lat="44.50695" lon="1.14201">
        <ele>142.872</ele>
        <time>2019-10-30T15:45:28Z</time>
      </trkpt>
      <trkpt lat="44.50718" lon="1.14177">
        <ele>144.422</ele>
        <time>2019-10-30T15:45:08Z</time>
      </trkpt>
      <trkpt lat="44.50888" lon="1.14118">
        <ele>166.633</ele>
        <time>2019-10-30T15:44:48Z</time>
      </trkpt>
      <trkpt lat="44.50948" lon="1.14008">
        <ele>163.727</ele>
        <time>2019-10-30T15:44:28Z</time>
      </trkpt>
      <trkpt lat="44.51042" lon="1.1386">
        <ele>164.485</ele>
        <time>2019-10-30T15:44:08Z</time>
      </trkpt>
      <trkpt lat="44.51104" lon="1.13798">
        <ele>165.469</ele>
        <time>2019-10-30T15:43:48Z</time>
      </trkpt>
      <trkpt lat="44.51146" lon="1.13666">
        <ele>167.596</ele>
        <time>2019-10-30T15:43:28Z</time>
      </trkpt>
      <trkpt lat="44.5122" lon="1.13564">
        <ele>176.841</ele>
        <time>2019-10-30T15:43:08Z</time>
      </trkpt>
      <trkpt lat="44.51255" lon="1.13419">
        <ele>183.335</ele>
        <time>2019-10-30T15:42:48Z</time>
      </trkpt>
      <trkpt lat="44.51346" lon="1.133">
        <ele>191.708</ele>
        <time>2019-10-30T15:42:28Z</time>
      </trkpt>
      <trkpt lat="44.51518" lon="1.13178">
        <ele>209.326</ele>
        <time>2019-10-30T15:42:08Z</time>
      </trkpt>
      <trkpt lat="44.51592" lon="1.13148">
        <ele>221.915</ele>
        <time>2019-10-30T15:41:48Z</time>
      </trkpt>
      <trkpt lat="44.51659" lon="1.13126">
        <ele>221.898</ele>
        <time>2019-10-30T15:41:28Z</time>
      </trkpt>
      <trkpt lat="44.51749" lon="1.13135">
        <ele>214.929</ele>
        <time>2019-10-30T15:41:08Z</time>
      </trkpt>
      <trkpt lat="44.51753" lon="1.13099">
        <ele>213.18</ele>
        <time>2019-10-30T15:40:48Z</time>
      </trkpt>
      <trkpt lat="44.518" lon="1.13084">
        <ele>212.864</ele>
        <time>2019-10-30T15:40:28Z</time>
      </trkpt>
      <trkpt lat="44.51834" lon="1.13042">
        <ele>217.122</ele>
        <time>2019-10-30T15:40:08Z</time>
      </trkpt>
      <trkpt lat="44.51891" lon="1.13016">
        <ele>223.626</ele>
        <time>2019-10-30T15:39:48Z</time>
      </trkpt>
      <trkpt lat="44.51987" lon="1.1306">
        <ele>229.823</ele>
        <time>2019-10-30T15:39:28Z</time>
      </trkpt>
      <trkpt lat="44.52077" lon="1.13026">
        <ele>239.548</ele>
        <time>2019-10-30T15:39:08Z</time>
      </trkpt>
      <trkpt lat="44.5217" lon="1.13">
        <ele>243.172</ele>
        <time>2019-10-30T15:38:48Z</time>
      </trkpt>
      <trkpt lat="44.52262" lon="1.12941">
        <ele>245.308</ele>
        <time>2019-10-30T15:38:28Z</time>
      </trkpt>
      <trkpt lat="44.52373" lon="1.12912">
        <ele>247.719</ele>
        <time>2019-10-30T15:38:08Z</time>
      </trkpt>
      <trkpt lat="44.52432" lon="1.12884">
        <ele>247.781</ele>
        <time>2019-10-30T15:37:48Z</time>
      </trkpt>
      <trkpt lat="44.52496" lon="1.12873">
        <ele>242.267</ele>
        <time>2019-10-30T15:37:28Z</time>
      </trkpt>
      <trkpt lat="44.52523" lon="1.12834">
        <ele>240.191</ele>
        <time>2019-10-30T15:37:08Z</time>
      </trkpt>
      <trkpt lat="44.52531" lon="1.12778">
        <ele>240.582</ele>
        <time>2019-10-30T15:36:48Z</time>
      </trkpt>
      <trkpt lat="44.52421" lon="1.12539">
        <ele>234.876</ele>
        <time>2019-10-30T15:36:28Z</time>
      </trkpt>
      <trkpt lat="44.52356" lon="1.12448">
        <ele>235.024</ele>
        <time>2019-10-30T15:36:08Z</time>
      </trkpt>
      <trkpt lat="44.52274" lon="1.12284">
        <ele>221.148</ele>
        <time>2019-10-30T15:35:48Z</time>
      </trkpt>
      <trkpt lat="44.52281" lon="1.12159">
        <ele>223.735</ele>
        <time>2019-10-30T15:35:28Z</time>
      </trkpt>
      <trkpt lat="44.52252" lon="1.12136">
        <ele>224.39</ele>
        <time>2019-10-30T15:35:08Z</time>
      </trkpt>
      <trkpt lat="44.52263" lon="1.12089">
        <ele>226.774</ele>
        <time>2019-10-30T15:34:48Z</time>
      </trkpt>
      <trkpt lat="44.52259" lon="1.12063">
        <ele>226.808</ele>
        <time>2019-10-30T15:34:28Z</time>
      </trkpt>
      <trkpt lat="44.52165" lon="1.11965">
        <ele>228.226</ele>
        <time>2019-10-30T15:34:08Z</time>
      </trkpt>
      <trkpt lat="44.52111" lon="1.11936">
        <ele>227.06</ele>
        <time>2019-10-30T15:33:48Z</time>
      </trkpt>
      <trkpt lat="44.52033" lon="1.11931">
        <ele>224.286</ele>
        <time>2019-10-30T15:33:28Z</time>
      </trkpt>
      <trkpt lat="44.5198" lon="1.11879">
        <ele>217.834</ele>
        <time>2019-10-30T15:33:08Z</time>
      </trkpt>
      <trkpt lat="44.51917" lon="1.11804">
        <ele>199.895</ele>
        <time>2019-10-30T15:32:48Z</time>
      </trkpt>
      <trkpt lat="44.51847" lon="1.11809">
        <ele>190.339</ele>
        <time>2019-10-30T15:32:28Z</time>
      </trkpt>
      <trkpt lat="44.51801" lon="1.11684">
        <ele>173.557</ele>
        <time>2019-10-30T15:32:08Z</time>
      </trkpt>
      <trkpt lat="44.51837" lon="1.11625">
        <ele>175.931</ele>
        <time>2019-10-30T15:31:48Z</time>
      </trkpt>
      <trkpt lat="44.51829" lon="1.11598">
        <ele>172.558</ele>
        <time>2019-10-30T15:31:28Z</time>
      </trkpt>
      <trkpt lat="44.51739" lon="1.11582">
        <ele>153.733</ele>
        <time>2019-10-30T15:31:08Z</time>
      </trkpt>
      <trkpt lat="44.51568" lon="1.11404">
        <ele>121.717</ele>
        <time>2019-10-30T15:30:48Z</time>
      </trkpt>
      <trkpt lat="44.51515" lon="1.11362">
        <ele>116.508</ele>
        <time>2019-10-30T15:30:28Z</time>
      </trkpt>
      <trkpt lat="44.51559" lon="1.11175">
        <ele>115.113</ele>
        <time>2019-10-30T15:30:08Z</time>
      </trkpt>
      <trkpt lat="44.51545" lon="1.11043">
        <ele>109.176</ele>
        <time>2019-10-30T15:29:48Z</time>
      </trkpt>
      <trkpt lat="44.51569" lon="1.11006">
        <ele>104.216</ele>
        <time>2019-10-30T15:29:28Z</time>
      </trkpt>
      <trkpt lat="44.51543" lon="1.10827">
        <ele>98.362</ele>
        <time>2019-10-30T15:29:08Z</time>
      </trkpt>
      <trkpt lat="44.5182" lon="1.10489">
        <ele>106.583</ele>
        <time>2019-10-30T15:28:48Z</time>
      </trkpt>
      <trkpt lat="44.51856" lon="1.10399">
        <ele>113.037</ele>
        <time>2019-10-30T15:28:28Z</time>
      </trkpt>
      <trkpt lat="44.51772" lon="1.10277">
        <ele>130.265</ele>
        <time>2019-10-30T15:28:08Z</time>
      </trkpt>
      <trkpt lat="44.51714" lon="1.10298">
        <ele>122.359</ele>
        <time>2019-10-30T15:27:48Z</time>
      </trkpt>
      <trkpt lat="44.51687" lon="1.10258">
        <ele>118.776</ele>
        <time>2019-10-30T15:27:28Z</time>
      </trkpt>
      <trkpt lat="44.51648" lon="1.10256">
        <ele>113.511</ele>
        <time>2019-10-30T15:27:08Z</time>
      </trkpt>
      <trkpt lat="44.51575" lon="1.1018">
        <ele>108.195</ele>
        <time>2019-10-30T15:26:48Z</time>
      </trkpt>
      <trkpt lat="44.51551" lon="1.10102">
        <ele>112.408</ele>
        <time>2019-10-30T15:26:28Z</time>
      </trkpt>
      <trkpt lat="44.51575" lon="1.10043">
        <ele>116.627</ele>
        <time>2019-10-30T15:26:08Z</time>
      </trkpt>
      <trkpt lat="44.51556" lon="1.09918">
        <ele>121.007</ele>
        <time>2019-10-30T15:25:48Z</time>
      </trkpt>
      <trkpt lat="44.51524" lon="1.09802">
        <ele>128.299</ele>
        <time>2019-10-30T15:25:28Z</time>
      </trkpt>
      <trkpt lat="44.51581" lon="1.0978">
        <ele>136.429</ele>
        <time>2019-10-30T15:25:08Z</time>
      </trkpt>
      <trkpt lat="44.51667" lon="1.09806">
        <ele>141.03</ele>
        <time>2019-10-30T15:24:48Z</time>
      </trkpt>
      <trkpt lat="44.51698" lon="1.09806">
        <ele>142.874</ele>
        <time>2019-10-30T15:24:28Z</time>
      </trkpt>
      <trkpt lat="44.51721" lon="1.09775">
        <ele>147.462</ele>
        <time>2019-10-30T15:24:08Z</time>
      </trkpt>
      <trkpt lat="44.51725" lon="1.09723">
        <ele>152.566</ele>
        <time>2019-10-30T15:23:48Z</time>
      </trkpt>
      <trkpt lat="44.51701" lon="1.09721">
        <ele>155.553</ele>
        <time>2019-10-30T15:23:28Z</time>
      </trkpt>
      <trkpt lat="44.51684" lon="1.09638">
        <ele>161.778</ele>
        <time>2019-10-30T15:23:08Z</time>
      </trkpt>
      <trkpt lat="44.51619" lon="1.09458">
        <ele>167.012</ele>
        <time>2019-10-30T15:22:48Z</time>
      </trkpt>
      <trkpt lat="44.51588" lon="1.09464">
        <ele>165.708</ele>
        <time>2019-10-30T15:22:28Z</time>
      </trkpt>
      <trkpt lat="44.51532" lon="1.09411">
        <ele>168.419</ele>
        <time>2019-10-30T15:22:08Z</time>
      </trkpt>
      <trkpt lat="44.51391" lon="1.09424">
        <ele>176.081</ele>
        <time>2019-10-30T15:21:48Z</time>
      </trkpt>
      <trkpt lat="44.51343" lon="1.09415">
        <ele>177.367</ele>
        <time>2019-10-30T15:21:28Z</time>
      </trkpt>
      <trkpt lat="44.51298" lon="1.0938">
        <ele>186.994</ele>
        <time>2019-10-30T15:21:08Z</time>
      </trkpt>
      <trkpt lat="44.51227" lon="1.09368">
        <ele>183.315</ele>
        <time>2019-10-30T15:20:48Z</time>
      </trkpt>
      <trkpt lat="44.51203" lon="1.09316">
        <ele>191.319</ele>
        <time>2019-10-30T15:20:28Z</time>
      </trkpt>
      <trkpt lat="44.51154" lon="1.0925">
        <ele>194.447</ele>
        <time>2019-10-30T15:20:08Z</time>
      </trkpt>
      <trkpt lat="44.51077" lon="1.09267">
        <ele>191.891</ele>
        <time>2019-10-30T15:19:48Z</time>
      </trkpt>
      <trkpt lat="44.5107" lon="1.09194">
        <ele>187.068</ele>
        <time>2019-10-30T15:19:28Z</time>
      </trkpt>
      <trkpt lat="44.51094" lon="1.09102">
        <ele>182.863</ele>
        <time>2019-10-30T15:19:08Z</time>
      </trkpt>
      <trkpt lat="44.51092" lon="1.09002">
        <ele>172.467</ele>
        <time>2019-10-30T15:18:48Z</time>
      </trkpt>
      <trkpt lat="44.51098" lon="1.08915">
        <ele>157.308</ele>
        <time>2019-10-30T15:18:28Z</time>
      </trkpt>
      <trkpt lat="44.51137" lon="1.08757">
        <ele>144.809</ele>
        <time>2019-10-30T15:18:08Z</time>
      </trkpt>
      <trkpt lat="44.51191" lon="1.08617">
        <ele>135.154</ele>
        <time>2019-10-30T15:17:48Z</time>
      </trkpt>
      <trkpt lat="44.51227" lon="1.08575">
        <ele>135.614</ele>
        <time>2019-10-30T15:17:28Z</time>
      </trkpt>
      <trkpt lat="44.51305" lon="1.08544">
        <ele>140.436</ele>
        <time>2019-10-30T15:17:08Z</time>
      </trkpt>
      <trkpt lat="44.51327" lon="1.08477">
        <ele>131.827</ele>
        <time>2019-10-30T15:16:48Z</time>
      </trkpt>
      <trkpt lat="44.5138" lon="1.08386">
        <ele>126.051</ele>
        <time>2019-10-30T15:16:28Z</time>
      </trkpt>
      <trkpt lat="44.51449" lon="1.08311">
        <ele>120.169</ele>
        <time>2019-10-30T15:16:08Z</time>
      </trkpt>
      <trkpt lat="44.51559" lon="1.08228">
        <ele>114.663</ele>
        <time>2019-10-30T15:15:48Z</time>
      </trkpt>
      <trkpt lat="44.51559" lon="1.08193">
        <ele>112.95</ele>
        <time>2019-10-30T15:15:28Z</time>
      </trkpt>
      <trkpt lat="44.51592" lon="1.08157">
        <ele>111.935</ele>
        <time>2019-10-30T15:15:08Z</time>
      </trkpt>
      <trkpt lat="44.51609" lon="1.08097">
        <ele>111.919</ele>
        <time>2019-10-30T15:14:48Z</time>
      </trkpt>
      <trkpt lat="44.51653" lon="1.08116">
        <ele>115.408</ele>
        <time>2019-10-30T15:14:28Z</time>
      </trkpt>
      <trkpt lat="44.51667" lon="1.08066">
        <ele>119.907</ele>
        <time>2019-10-30T15:14:08Z</time>
      </trkpt>
      <trkpt lat="44.51654" lon="1.08001">
        <ele>122.361</ele>
        <time>2019-10-30T15:13:48Z</time>
      </trkpt>
      <trkpt lat="44.51669" lon="1.07898">
        <ele>129.331</ele>
        <time>2019-10-30T15:13:28Z</time>
      </trkpt>
      <trkpt lat="44.51702" lon="1.07851">
        <ele>133.768</ele>
        <time>2019-10-30T15:13:08Z</time>
      </trkpt>
      <trkpt lat="44.51735" lon="1.07871">
        <ele>143.329</ele>
        <time>2019-10-30T15:12:48Z</time>
      </trkpt>
      <trkpt lat="44.51754" lon="1.07851">
        <ele>148.323</ele>
        <time>2019-10-30T15:12:28Z</time>
      </trkpt>
      <trkpt lat="44.51754" lon="1.07784">
        <ele>151.111</ele>
        <time>2019-10-30T15:12:08Z</time>
      </trkpt>
      <trkpt lat="44.5176" lon="1.077">
        <ele>154.055</ele>
        <time>2019-10-30T15:11:48Z</time>
      </trkpt>
      <trkpt lat="44.51803" lon="1.07609">
        <ele>167.412</ele>
        <time>2019-10-30T15:11:28Z</time>
      </trkpt>
      <trkpt lat="44.51849" lon="1.0755">
        <ele>172.867</ele>
        <time>2019-10-30T15:11:08Z</time>
      </trkpt>
      <trkpt lat="44.51923" lon="1.07532">
        <ele>187.881</ele>
        <time>2019-10-30T15:10:48Z</time>
      </trkpt>
      <trkpt lat="44.52054" lon="1.07422">
        <ele>199.208</ele>
        <time>2019-10-30T15:10:28Z</time>
      </trkpt>
      <trkpt lat="44.52112" lon="1.07396">
        <ele>200.814</ele>
        <time>2019-10-30T15:10:08Z</time>
      </trkpt>
      <trkpt lat="44.52109" lon="1.07279">
        <ele>201.604</ele>
        <time>2019-10-30T15:09:48Z</time>
      </trkpt>
      <trkpt lat="44.52148" lon="1.07197">
        <ele>211.153</ele>
        <time>2019-10-30T15:09:28Z</time>
      </trkpt>
      <trkpt lat="44.5215" lon="1.07134">
        <ele>214.694</ele>
        <time>2019-10-30T15:09:08Z</time>
      </trkpt>
      <trkpt lat="44.5216" lon="1.07088">
        <ele>217.955</ele>
        <time>2019-10-30T15:08:48Z</time>
      </trkpt>
      <trkpt lat="44.52161" lon="1.07049">
        <ele>223.919</ele>
        <time>2019-10-30T15:08:28Z</time>
      </trkpt>
      <trkpt lat="44.52225" lon="1.06869">
        <ele>231.727</ele>
        <time>2019-10-30T15:08:08Z</time>
      </trkpt>
      <trkpt lat="44.52256" lon="1.06771">
        <ele>229.891</ele>
        <time>2019-10-30T15:07:48Z</time>
      </trkpt>
      <trkpt lat="44.52302" lon="1.0674">
        <ele>224.558</ele>
        <time>2019-10-30T15:07:28Z</time>
      </trkpt>
      <trkpt lat="44.52353" lon="1.06667">
        <ele>224.483</ele>
        <time>2019-10-30T15:07:08Z</time>
      </trkpt>
      <trkpt lat="44.52379" lon="1.06561">
        <ele>217.917</ele>
        <time>2019-10-30T15:06:48Z</time>
      </trkpt>
      <trkpt lat="44.52447" lon="1.06427">
        <ele>217.908</ele>
        <time>2019-10-30T15:06:28Z</time>
      </trkpt>
      <trkpt lat="44.52488" lon="1.06384">
        <ele>216.305</ele>
        <time>2019-10-30T15:06:08Z</time>
      </trkpt>
      <trkpt lat="44.52511" lon="1.06348">
        <ele>216.332</ele>
        <time>2019-10-30T15:05:48Z</time>
      </trkpt>
      <trkpt lat="44.52549" lon="1.0634">
        <ele>212.212</ele>
        <time>2019-10-30T15:05:28Z</time>
      </trkpt>
      <trkpt lat="44.52581" lon="1.06313">
        <ele>209.96</ele>
        <time>2019-10-30T15:05:08Z</time>
      </trkpt>
      <trkpt lat="44.5263" lon="1.06127">
        <ele>200.891</ele>
        <time>2019-10-30T15:04:48Z</time>
      </trkpt>
      <trkpt lat="44.52728" lon="1.0596">
        <ele>194.325</ele>
        <time>2019-10-30T15:04:28Z</time>
      </trkpt>
      <trkpt lat="44.52763" lon="1.05812">
        <ele>186.293</ele>
        <time>2019-10-30T15:04:08Z</time>
      </trkpt>
      <trkpt lat="44.52749" lon="1.0561">
        <ele>173.067</ele>
        <time>2019-10-30T15:03:48Z</time>
      </trkpt>
      <trkpt lat="44.5279" lon="1.05557">
        <ele>173.344</ele>
        <time>2019-10-30T15:03:28Z</time>
      </trkpt>
      <trkpt lat="44.52815" lon="1.05379">
        <ele>158.139</ele>
        <time>2019-10-30T15:03:08Z</time>
      </trkpt>
      <trkpt lat="44.52735" lon="1.0534">
        <ele>158.993</ele>
        <time>2019-10-30T15:02:48Z</time>
      </trkpt>
      <trkpt lat="44.52783" lon="1.05259">
        <ele>152.308</ele>
        <time>2019-10-30T15:02:28Z</time>
      </trkpt>
      <trkpt lat="44.52888" lon="1.05048">
        <ele>133.721</ele>
        <time>2019-10-30T15:02:08Z</time>
      </trkpt>
      <trkpt lat="44.52948" lon="1.05075">
        <ele>124.056</ele>
        <time>2019-10-30T15:01:48Z</time>
      </trkpt>
      <trkpt lat="44.52993" lon="1.04995">
        <ele>114.974</ele>
        <time>2019-10-30T15:01:28Z</time>
      </trkpt>
      <trkpt lat="44.53091" lon="1.04916">
        <ele>107.724</ele>
        <time>2019-10-30T15:01:08Z</time>
      </trkpt>
      <trkpt lat="44.52933" lon="1.0473">
        <ele>103.825</ele>
        <time>2019-10-30T15:00:48Z</time>
      </trkpt>
      <trkpt lat="44.52987" lon="1.04355">
        <ele>102.939</ele>
        <time>2019-10-30T15:00:28Z</time>
      </trkpt>
      <trkpt lat="44.52992" lon="1.04295">
        <ele>101.927</ele>
        <time>2019-10-30T15:00:08Z</time>
      </trkpt>
      <trkpt lat="44.53098" lon="1.04197">
        <ele>103.581</ele>
        <time>2019-10-30T14:59:48Z</time>
      </trkpt>
      <trkpt lat="44.53107" lon="1.04169">
        <ele>104.158</ele>
        <time>2019-10-30T14:59:28Z</time>
      </trkpt>
      <trkpt lat="44.53266" lon="1.04361">
        <ele>107.433</ele>
        <time>2019-10-30T14:59:08Z</time>
      </trkpt>
      <trkpt lat="44.5346" lon="1.04612">
        <ele>124.817</ele>
        <time>2019-10-30T14:58:48Z</time>
      </trkpt>
      <trkpt lat="44.53494" lon="1.0468">
        <ele>120.508</ele>
        <time>2019-10-30T14:58:28Z</time>
      </trkpt>
      <trkpt lat="44.53521" lon="1.04691">
        <ele>119.111</ele>
        <time>2019-10-30T14:58:08Z</time>
      </trkpt>
      <trkpt lat="44.53562" lon="1.04682">
        <ele>122.265</ele>
        <time>2019-10-30T14:57:48Z</time>
      </trkpt>
      <trkpt lat="44.5367" lon="1.04576">
        <ele>126.715</ele>
        <time>2019-10-30T14:57:28Z</time>
      </trkpt>
      <trkpt lat="44.53682" lon="1.04444">
        <ele>135.556</ele>
        <time>2019-10-30T14:57:08Z</time>
      </trkpt>
      <trkpt lat="44.53702" lon="1.0436">
        <ele>135.647</ele>
        <time>2019-10-30T14:56:48Z</time>
      </trkpt>
      <trkpt lat="44.53704" lon="1.04304">
        <ele>136.731</ele>
        <time>2019-10-30T14:56:28Z</time>
      </trkpt>
      <trkpt lat="44.53715" lon="1.04265">
        <ele>136.949</ele>
        <time>2019-10-30T14:56:08Z</time>
      </trkpt>
      <trkpt lat="44.53753" lon="1.04207">
        <ele>142.623</ele>
        <time>2019-10-30T14:55:48Z</time>
      </trkpt>
      <trkpt lat="44.53827" lon="1.04129">
        <ele>154.73</ele>
        <time>2019-10-30T14:55:28Z</time>
      </trkpt>
      <trkpt lat="44.5391" lon="1.04108">
        <ele>156.865</ele>
        <time>2019-10-30T14:55:08Z</time>
      </trkpt>
      <trkpt lat="44.54062" lon="1.04096">
        <ele>155.319</ele>
        <time>2019-10-30T14:54:48Z</time>
      </trkpt>
      <trkpt lat="44.54264" lon="1.0414">
        <ele>164.408</ele>
        <time>2019-10-30T14:54:28Z</time>
      </trkpt>
      <trkpt lat="44.54412" lon="1.04212">
        <ele>170.513</ele>
        <time>2019-10-30T14:54:08Z</time>
      </trkpt>
      <trkpt lat="44.54448" lon="1.04217">
        <ele>168.649</ele>
        <time>2019-10-30T14:53:48Z</time>
      </trkpt>
      <trkpt lat="44.54473" lon="1.04199">
        <ele>168.437</ele>
        <time>2019-10-30T14:53:28Z</time>
      </trkpt>
      <trkpt lat="44.54509" lon="1.04151">
        <ele>169.986</ele>
        <time>2019-10-30T14:53:08Z</time>
      </trkpt>
      <trkpt lat="44.5453" lon="1.04129">
        <ele>170.127</ele>
        <time>2019-10-30T14:52:48Z</time>
      </trkpt>
      <trkpt lat="44.54578" lon="1.04121">
        <ele>175.581</ele>
        <time>2019-10-30T14:52:28Z</time>
      </trkpt>
      <trkpt lat="44.54614" lon="1.04096">
        <ele>178.259</ele>
        <time>2019-10-30T14:52:08Z</time>
      </trkpt>
      <trkpt lat="44.54684" lon="1.04003">
        <ele>184.873</ele>
        <time>2019-10-30T14:51:48Z</time>
      </trkpt>
      <trkpt lat="44.5475" lon="1.03818">
        <ele>192.23</ele>
        <time>2019-10-30T14:51:28Z</time>
      </trkpt>
      <trkpt lat="44.54754" lon="1.03766">
        <ele>196.035</ele>
        <time>2019-10-30T14:51:08Z</time>
      </trkpt>
      <trkpt lat="44.54731" lon="1.03673">
        <ele>197.879</ele>
        <time>2019-10-30T14:50:48Z</time>
      </trkpt>
      <trkpt lat="44.5473" lon="1.03586">
        <ele>199.708</ele>
        <time>2019-10-30T14:50:28Z</time>
      </trkpt>
      <trkpt lat="44.54741" lon="1.03542">
        <ele>201.115</ele>
        <time>2019-10-30T14:50:08Z</time>
      </trkpt>
      <trkpt lat="44.54776" lon="1.03499">
        <ele>201.123</ele>
        <time>2019-10-30T14:49:48Z</time>
      </trkpt>
      <trkpt lat="44.54833" lon="1.0346">
        <ele>201.933</ele>
        <time>2019-10-30T14:49:28Z</time>
      </trkpt>
      <trkpt lat="44.54922" lon="1.03449">
        <ele>204.025</ele>
        <time>2019-10-30T14:49:08Z</time>
      </trkpt>
      <trkpt lat="44.54993" lon="1.03413">
        <ele>202.676</ele>
        <time>2019-10-30T14:48:48Z</time>
      </trkpt>
      <trkpt lat="44.55058" lon="1.03412">
        <ele>203.47</ele>
        <time>2019-10-30T14:48:28Z</time>
      </trkpt>
      <trkpt lat="44.55102" lon="1.034">
        <ele>204.528</ele>
        <time>2019-10-30T14:48:08Z</time>
      </trkpt>
      <trkpt lat="44.55169" lon="1.03338">
        <ele>208.232</ele>
        <time>2019-10-30T14:47:48Z</time>
      </trkpt>
      <trkpt lat="44.55112" lon="1.03338">
        <ele>205.289</ele>
        <time>2019-10-30T14:47:28Z</time>
      </trkpt>
      <trkpt lat="44.55085" lon="1.03373">
        <ele>205.644</ele>
        <time>2019-10-30T14:47:08Z</time>
      </trkpt>
      <trkpt lat="44.55041" lon="1.03364">
        <ele>206.358</ele>
        <time>2019-10-30T14:46:48Z</time>
      </trkpt>
      <trkpt lat="44.54972" lon="1.03369">
        <ele>208.808</ele>
        <time>2019-10-30T14:46:28Z</time>
      </trkpt>
      <trkpt lat="44.54937" lon="1.03407">
        <ele>208.914</ele>
        <time>2019-10-30T14:46:08Z</time>
      </trkpt>
      <trkpt lat="44.54797" lon="1.03407">
        <ele>209.204</ele>
        <time>2019-10-30T14:45:48Z</time>
      </trkpt>
      <trkpt lat="44.5476" lon="1.03387">
        <ele>212.924</ele>
        <time>2019-10-30T14:45:28Z</time>
      </trkpt>
      <trkpt lat="44.54704" lon="1.03389">
        <ele>217.331</ele>
        <time>2019-10-30T14:45:08Z</time>
      </trkpt>
      <trkpt lat="44.54676" lon="1.03369">
        <ele>219.162</ele>
        <time>2019-10-30T14:44:48Z</time>
      </trkpt>
      <trkpt lat="44.54608" lon="1.0334">
        <ele>218.416</ele>
        <time>2019-10-30T14:44:28Z</time>
      </trkpt>
      <trkpt lat="44.54562" lon="1.03338">
        <ele>220.544</ele>
        <time>2019-10-30T14:44:08Z</time>
      </trkpt>
      <trkpt lat="44.5446" lon="1.03249">
        <ele>224.568</ele>
        <time>2019-10-30T14:43:48Z</time>
      </trkpt>
      <trkpt lat="44.54308" lon="1.03151">
        <ele>241.055</ele>
        <time>2019-10-30T14:43:28Z</time>
      </trkpt>
      <trkpt lat="44.54264" lon="1.03083">
        <ele>236.04</ele>
        <time>2019-10-30T14:43:08Z</time>
      </trkpt>
      <trkpt lat="44.54218" lon="1.02929">
        <ele>229.784</ele>
        <time>2019-10-30T14:42:48Z</time>
      </trkpt>
      <trkpt lat="44.54169" lon="1.02779">
        <ele>225.208</ele>
        <time>2019-10-30T14:42:28Z</time>
      </trkpt>
      <trkpt lat="44.54082" lon="1.02634">
        <ele>230.317</ele>
        <time>2019-10-30T14:42:08Z</time>
      </trkpt>
      <trkpt lat="44.53998" lon="1.02545">
        <ele>234.143</ele>
        <time>2019-10-30T14:41:48Z</time>
      </trkpt>
      <trkpt lat="44.53795" lon="1.02361">
        <ele>226.682</ele>
        <time>2019-10-30T14:41:28Z</time>
      </trkpt>
      <trkpt lat="44.53619" lon="1.02252">
        <ele>235.399</ele>
        <time>2019-10-30T14:41:08Z</time>
      </trkpt>
      <trkpt lat="44.53372" lon="1.01946">
        <ele>214.81</ele>
        <time>2019-10-30T14:40:48Z</time>
      </trkpt>
      <trkpt lat="44.53354" lon="1.01717">
        <ele>204.854</ele>
        <time>2019-10-30T14:40:28Z</time>
      </trkpt>
      <trkpt lat="44.53357" lon="1.01649">
        <ele>197.922</ele>
        <time>2019-10-30T14:40:08Z</time>
      </trkpt>
      <trkpt lat="44.53325" lon="1.01593">
        <ele>199.786</ele>
        <time>2019-10-30T14:39:48Z</time>
      </trkpt>
      <trkpt lat="44.53318" lon="1.01563">
        <ele>200.683</ele>
        <time>2019-10-30T14:39:28Z</time>
      </trkpt>
      <trkpt lat="44.53347" lon="1.01444">
        <ele>186.058</ele>
        <time>2019-10-30T14:39:08Z</time>
      </trkpt>
      <trkpt lat="44.53347" lon="1.01369">
        <ele>178.322</ele>
        <time>2019-10-30T14:38:48Z</time>
      </trkpt>
      <trkpt lat="44.53324" lon="1.01345">
        <ele>177.908</ele>
        <time>2019-10-30T14:38:28Z</time>
      </trkpt>
      <trkpt lat="44.53358" lon="1.01337">
        <ele>173.611</ele>
        <time>2019-10-30T14:38:08Z</time>
      </trkpt>
      <trkpt lat="44.5343" lon="1.01524">
        <ele>159.283</ele>
        <time>2019-10-30T14:37:48Z</time>
      </trkpt>
      <trkpt lat="44.53459" lon="1.01527">
        <ele>152.762</ele>
        <time>2019-10-30T14:37:28Z</time>
      </trkpt>
      <trkpt lat="44.53511" lon="1.01489">
        <ele>146.558</ele>
        <time>2019-10-30T14:37:08Z</time>
      </trkpt>
      <trkpt lat="44.53536" lon="1.01535">
        <ele>155.029</ele>
        <time>2019-10-30T14:36:48Z</time>
      </trkpt>
      <trkpt lat="44.53532" lon="1.01572">
        <ele>160.763</ele>
        <time>2019-10-30T14:36:28Z</time>
      </trkpt>
      <trkpt lat="44.53568" lon="1.01637">
        <ele>159.671</ele>
        <time>2019-10-30T14:36:08Z</time>
      </trkpt>
      <trkpt lat="44.53596" lon="1.01665">
        <ele>160.285</ele>
        <time>2019-10-30T14:35:48Z</time>
      </trkpt>
      <trkpt lat="44.53659" lon="1.0153">
        <ele>139.642</ele>
        <time>2019-10-30T14:35:28Z</time>
      </trkpt>
      <trkpt lat="44.53739" lon="1.01462">
        <ele>131.087</ele>
        <time>2019-10-30T14:35:08Z</time>
      </trkpt>
      <trkpt lat="44.53719" lon="1.01415">
        <ele>128.581</ele>
        <time>2019-10-30T14:34:48Z</time>
      </trkpt>
      <trkpt lat="44.53706" lon="1.01348">
        <ele>126.108</ele>
        <time>2019-10-30T14:34:28Z</time>
      </trkpt>
      <trkpt lat="44.53714" lon="1.01307">
        <ele>125.223</ele>
        <time>2019-10-30T14:34:08Z</time>
      </trkpt>
      <trkpt lat="44.53666" lon="1.01242">
        <ele>130.803</ele>
        <time>2019-10-30T14:33:48Z</time>
      </trkpt>
      <trkpt lat="44.53705" lon="1.01237">
        <ele>132.359</ele>
        <time>2019-10-30T14:33:28Z</time>
      </trkpt>
      <trkpt lat="44.53765" lon="1.01202">
        <ele>140.199</ele>
        <time>2019-10-30T14:33:08Z</time>
      </trkpt>
      <trkpt lat="44.53828" lon="1.01184">
        <ele>136.76</ele>
        <time>2019-10-30T14:32:48Z</time>
      </trkpt>
      <trkpt lat="44.53908" lon="1.01109">
        <ele>140.574</ele>
        <time>2019-10-30T14:32:28Z</time>
      </trkpt>
      <trkpt lat="44.5396" lon="1.01039">
        <ele>144.222</ele>
        <time>2019-10-30T14:32:08Z</time>
      </trkpt>
      <trkpt lat="44.53998" lon="1.00922">
        <ele>152.536</ele>
        <time>2019-10-30T14:31:48Z</time>
      </trkpt>
      <trkpt lat="44.54062" lon="1.0087">
        <ele>157.763</ele>
        <time>2019-10-30T14:31:28Z</time>
      </trkpt>
      <trkpt lat="44.54097" lon="1.0081">
        <ele>163.018</ele>
        <time>2019-10-30T14:31:08Z</time>
      </trkpt>
      <trkpt lat="44.54127" lon="1.00774">
        <ele>165.422</ele>
        <time>2019-10-30T14:30:48Z</time>
      </trkpt>
      <trkpt lat="44.54158" lon="1.00909">
        <ele>158.408</ele>
        <time>2019-10-30T14:30:28Z</time>
      </trkpt>
      <trkpt lat="44.5417" lon="1.00912">
        <ele>158.111</ele>
        <time>2019-10-30T14:30:08Z</time>
      </trkpt>
      <trkpt lat="44.54199" lon="1.00805">
        <ele>163.883</ele>
        <time>2019-10-30T14:29:48Z</time>
      </trkpt>
      <trkpt lat="44.54249" lon="1.00824">
        <ele>161.262</ele>
        <time>2019-10-30T14:29:28Z</time>
      </trkpt>
      <trkpt lat="44.54263" lon="1.00842">
        <ele>159.598</ele>
        <time>2019-10-30T14:29:08Z</time>
      </trkpt>
      <trkpt lat="44.54295" lon="1.00842">
        <ele>164.789</ele>
        <time>2019-10-30T14:28:48Z</time>
      </trkpt>
      <trkpt lat="44.54391" lon="1.00849">
        <ele>170.853</ele>
        <time>2019-10-30T14:28:28Z</time>
      </trkpt>
      <trkpt lat="44.54448" lon="1.00845">
        <ele>173.821</ele>
        <time>2019-10-30T14:28:08Z</time>
      </trkpt>
      <trkpt lat="44.54505" lon="1.00815">
        <ele>171.585</ele>
        <time>2019-10-30T14:27:48Z</time>
      </trkpt>
      <trkpt lat="44.54618" lon="1.00684">
        <ele>170.742</ele>
        <time>2019-10-30T14:27:28Z</time>
      </trkpt>
      <trkpt lat="44.54633" lon="1.00678">
        <ele>169.837</ele>
        <time>2019-10-30T14:27:08Z</time>
      </trkpt>
      <trkpt lat="44.54657" lon="1.00629">
        <ele>170.241</ele>
        <time>2019-10-30T14:26:48Z</time>
      </trkpt>
      <trkpt lat="44.54652" lon="1.00597">
        <ele>171.608</ele>
        <time>2019-10-30T14:26:28Z</time>
      </trkpt>
      <trkpt lat="44.54665" lon="1.00522">
        <ele>175.314</ele>
        <time>2019-10-30T14:26:08Z</time>
      </trkpt>
      <trkpt lat="44.54693" lon="1.00421">
        <ele>178.959</ele>
        <time>2019-10-30T14:25:48Z</time>
      </trkpt>
      <trkpt lat="44.54737" lon="1.00345">
        <ele>173.356</ele>
        <time>2019-10-30T14:25:28Z</time>
      </trkpt>
      <trkpt lat="44.54748" lon="1.00236">
        <ele>171.689</ele>
        <time>2019-10-30T14:25:08Z</time>
      </trkpt>
      <trkpt lat="44.54781" lon="1.00198">
        <ele>173.82</ele>
        <time>2019-10-30T14:24:48Z</time>
      </trkpt>
      <trkpt lat="44.54789" lon="1.00029">
        <ele>188.174</ele>
        <time>2019-10-30T14:24:28Z</time>
      </trkpt>
      <trkpt lat="44.54821" lon="0.99899">
        <ele>196.352</ele>
        <time>2019-10-30T14:24:08Z</time>
      </trkpt>
      <trkpt lat="44.54868" lon="0.99767">
        <ele>201.516</ele>
        <time>2019-10-30T14:23:48Z</time>
      </trkpt>
      <trkpt lat="44.5495" lon="0.99544">
        <ele>203.033</ele>
        <time>2019-10-30T14:23:28Z</time>
      </trkpt>
      <trkpt lat="44.54979" lon="0.99499">
        <ele>202.728</ele>
        <time>2019-10-30T14:23:08Z</time>
      </trkpt>
      <trkpt lat="44.55" lon="0.99486">
        <ele>202.072</ele>
        <time>2019-10-30T14:22:48Z</time>
      </trkpt>
      <trkpt lat="44.55034" lon="0.9945">
        <ele>203.708</ele>
        <time>2019-10-30T14:22:28Z</time>
      </trkpt>
      <trkpt lat="44.55088" lon="0.99421">
        <ele>203.919</ele>
        <time>2019-10-30T14:22:08Z</time>
      </trkpt>
      <trkpt lat="44.55291" lon="0.99257">
        <ele>190.981</ele>
        <time>2019-10-30T14:21:48Z</time>
      </trkpt>
      <trkpt lat="44.55328" lon="0.99278">
        <ele>193.667</ele>
        <time>2019-10-30T14:21:28Z</time>
      </trkpt>
      <trkpt lat="44.55412" lon="0.99209">
        <ele>196.747</ele>
        <time>2019-10-30T14:21:08Z</time>
      </trkpt>
      <trkpt lat="44.55453" lon="0.99205">
        <ele>198.238</ele>
        <time>2019-10-30T14:20:48Z</time>
      </trkpt>
      <trkpt lat="44.55504" lon="0.99179">
        <ele>204.522</ele>
        <time>2019-10-30T14:20:28Z</time>
      </trkpt>
      <trkpt lat="44.55538" lon="0.9914">
        <ele>207.03</ele>
        <time>2019-10-30T14:20:08Z</time>
      </trkpt>
      <trkpt lat="44.55603" lon="0.9907">
        <ele>212.024</ele>
        <time>2019-10-30T14:19:48Z</time>
      </trkpt>
      <trkpt lat="44.55682" lon="0.99016">
        <ele>220.191</ele>
        <time>2019-10-30T14:19:28Z</time>
      </trkpt>
      <trkpt lat="44.55754" lon="0.99114">
        <ele>225.186</ele>
        <time>2019-10-30T14:19:08Z</time>
      </trkpt>
      <trkpt lat="44.55821" lon="0.9918">
        <ele>228.04</ele>
        <time>2019-10-30T14:18:48Z</time>
      </trkpt>
      <trkpt lat="44.55898" lon="0.99221">
        <ele>221.108</ele>
        <time>2019-10-30T14:18:28Z</time>
      </trkpt>
      <trkpt lat="44.55974" lon="0.99273">
        <ele>215.021</ele>
        <time>2019-10-30T14:18:08Z</time>
      </trkpt>
      <trkpt lat="44.56004" lon="0.99312">
        <ele>211.229</ele>
        <time>2019-10-30T14:17:48Z</time>
      </trkpt>
      <trkpt lat="44.56072" lon="0.99338">
        <ele>205.547</ele>
        <time>2019-10-30T14:17:28Z</time>
      </trkpt>
      <trkpt lat="44.56147" lon="0.99327">
        <ele>198.485</ele>
        <time>2019-10-30T14:17:08Z</time>
      </trkpt>
      <trkpt lat="44.56194" lon="0.99304">
        <ele>194.096</ele>
        <time>2019-10-30T14:16:48Z</time>
      </trkpt>
      <trkpt lat="44.56235" lon="0.99296">
        <ele>191.83</ele>
        <time>2019-10-30T14:16:28Z</time>
      </trkpt>
      <trkpt lat="44.5628" lon="0.99307">
        <ele>189.928</ele>
        <time>2019-10-30T14:16:08Z</time>
      </trkpt>
      <trkpt lat="44.56339" lon="0.9937">
        <ele>185.452</ele>
        <time>2019-10-30T14:15:48Z</time>
      </trkpt>
      <trkpt lat="44.56409" lon="0.99413">
        <ele>179.669</ele>
        <time>2019-10-30T14:15:28Z</time>
      </trkpt>
      <trkpt lat="44.56445" lon="0.99387">
        <ele>176.824</ele>
        <time>2019-10-30T14:15:08Z</time>
      </trkpt>
      <trkpt lat="44.56477" lon="0.99387">
        <ele>175.078</ele>
        <time>2019-10-30T14:14:48Z</time>
      </trkpt>
      <trkpt lat="44.56506" lon="0.99346">
        <ele>175.508</ele>
        <time>2019-10-30T14:14:28Z</time>
      </trkpt>
      <trkpt lat="44.56542" lon="0.99301">
        <ele>176.808</ele>
        <time>2019-10-30T14:14:08Z</time>
      </trkpt>
      <trkpt lat="44.56564" lon="0.99252">
        <ele>175.426</ele>
        <time>2019-10-30T14:13:48Z</time>
      </trkpt>
      <trkpt lat="44.56587" lon="0.99214">
        <ele>171.125</ele>
        <time>2019-10-30T14:13:28Z</time>
      </trkpt>
      <trkpt lat="44.56628" lon="0.99205">
        <ele>163.712</ele>
        <time>2019-10-30T14:13:08Z</time>
      </trkpt>
      <trkpt lat="44.56704" lon="0.99239">
        <ele>155.963</ele>
        <time>2019-10-30T14:12:48Z</time>
      </trkpt>
      <trkpt lat="44.56768" lon="0.99331">
        <ele>156.137</ele>
        <time>2019-10-30T14:12:28Z</time>
      </trkpt>
      <trkpt lat="44.56805" lon="0.99346">
        <ele>155.015</ele>
        <time>2019-10-30T14:12:08Z</time>
      </trkpt>
      <trkpt lat="44.56871" lon="0.99292">
        <ele>148.089</ele>
        <time>2019-10-30T14:11:48Z</time>
      </trkpt>
      <trkpt lat="44.56896" lon="0.99294">
        <ele>147.766</ele>
        <time>2019-10-30T14:11:28Z</time>
      </trkpt>
      <trkpt lat="44.56944" lon="0.9934">
        <ele>138.991</ele>
        <time>2019-10-30T14:11:08Z</time>
      </trkpt>
      <trkpt lat="44.56966" lon="0.99297">
        <ele>143.245</ele>
        <time>2019-10-30T14:10:48Z</time>
      </trkpt>
      <trkpt lat="44.5699" lon="0.99297">
        <ele>143.508</ele>
        <time>2019-10-30T14:10:28Z</time>
      </trkpt>
      <trkpt lat="44.57037" lon="0.9925">
        <ele>150.523</ele>
        <time>2019-10-30T14:10:08Z</time>
      </trkpt>
      <trkpt lat="44.57093" lon="0.99162">
        <ele>161.249</ele>
        <time>2019-10-30T14:09:48Z</time>
      </trkpt>
      <trkpt lat="44.57168" lon="0.99081">
        <ele>165.095</ele>
        <time>2019-10-30T14:09:28Z</time>
      </trkpt>
      <trkpt lat="44.57161" lon="0.98914">
        <ele>165.779</ele>
        <time>2019-10-30T14:09:08Z</time>
      </trkpt>
      <trkpt lat="44.57152" lon="0.98829">
        <ele>165.98</ele>
        <time>2019-10-30T14:08:48Z</time>
      </trkpt>
      <trkpt lat="44.57158" lon="0.98772">
        <ele>173.194</ele>
        <time>2019-10-30T14:08:28Z</time>
      </trkpt>
      <trkpt lat="44.57213" lon="0.98653">
        <ele>175.042</ele>
        <time>2019-10-30T14:08:08Z</time>
      </trkpt>
      <trkpt lat="44.57239" lon="0.98364">
        <ele>162.116</ele>
        <time>2019-10-30T14:07:48Z</time>
      </trkpt>
      <trkpt lat="44.57228" lon="0.98315">
        <ele>161.863</ele>
        <time>2019-10-30T14:07:28Z</time>
      </trkpt>
      <trkpt lat="44.57252" lon="0.98253">
        <ele>162.738</ele>
        <time>2019-10-30T14:07:08Z</time>
      </trkpt>
      <trkpt lat="44.57286" lon="0.98232">
        <ele>160.212</ele>
        <time>2019-10-30T14:06:48Z</time>
      </trkpt>
      <trkpt lat="44.57305" lon="0.98198">
        <ele>158.208</ele>
        <time>2019-10-30T14:06:28Z</time>
      </trkpt>
      <trkpt lat="44.57355" lon="0.97892">
        <ele>134.926</ele>
        <time>2019-10-30T14:06:08Z</time>
      </trkpt>
      <trkpt lat="44.57384" lon="0.97883">
        <ele>130.742</ele>
        <time>2019-10-30T14:05:48Z</time>
      </trkpt>
      <trkpt lat="44.57383" lon="0.97782">
        <ele>129.468</ele>
        <time>2019-10-30T14:05:28Z</time>
      </trkpt>
      <trkpt lat="44.57436" lon="0.97658">
        <ele>118.078</ele>
        <time>2019-10-30T14:05:08Z</time>
      </trkpt>
      <trkpt lat="44.57448" lon="0.97572">
        <ele>116.559</ele>
        <time>2019-10-30T14:04:48Z</time>
      </trkpt>
      <trkpt lat="44.57426" lon="0.97401">
        <ele>111.713</ele>
        <time>2019-10-30T14:04:28Z</time>
      </trkpt>
      <trkpt lat="44.57405" lon="0.97294">
        <ele>108.941</ele>
        <time>2019-10-30T14:04:08Z</time>
      </trkpt>
      <trkpt lat="44.57469" lon="0.97268">
        <ele>106.155</ele>
        <time>2019-10-30T14:03:48Z</time>
      </trkpt>
      <trkpt lat="44.57472" lon="0.97245">
        <ele>105.832</ele>
        <time>2019-10-30T14:03:28Z</time>
      </trkpt>
      <trkpt lat="44.57507" lon="0.97162">
        <ele>105.967</ele>
        <time>2019-10-30T14:03:08Z</time>
      </trkpt>
      <trkpt lat="44.57552" lon="0.97108">
        <ele>107.791</ele>
        <time>2019-10-30T14:02:48Z</time>
      </trkpt>
      <trkpt lat="44.5758" lon="0.97104">
        <ele>107.708</ele>
        <time>2019-10-30T14:02:28Z</time>
      </trkpt>
      <trkpt lat="44.57698" lon="0.97126">
        <ele>110.817</ele>
        <time>2019-10-30T14:02:08Z</time>
      </trkpt>
      <trkpt lat="44.57718" lon="0.97035">
        <ele>106.807</ele>
        <time>2019-10-30T14:01:48Z</time>
      </trkpt>
      <trkpt lat="44.57715" lon="0.96905">
        <ele>107.455</ele>
        <time>2019-10-30T14:01:28Z</time>
      </trkpt>
      <trkpt lat="44.57746" lon="0.96905">
        <ele>108.696</ele>
        <time>2019-10-30T14:01:08Z</time>
      </trkpt>
      <trkpt lat="44.57825" lon="0.96938">
        <ele>112.367</ele>
        <time>2019-10-30T14:00:48Z</time>
      </trkpt>
      <trkpt lat="44.57937" lon="0.9696">
        <ele>112.691</ele>
        <time>2019-10-30T14:00:28Z</time>
      </trkpt>
      <trkpt lat="44.57961" lon="0.96946">
        <ele>116.469</ele>
        <time>2019-10-30T14:00:08Z</time>
      </trkpt>
      <trkpt lat="44.58094" lon="0.97006">
        <ele>116.753</ele>
        <time>2019-10-30T13:59:48Z</time>
      </trkpt>
      <trkpt lat="44.58135" lon="0.97009">
        <ele>116.71</ele>
        <time>2019-10-30T13:59:28Z</time>
      </trkpt>
      <trkpt lat="44.58371" lon="0.96913">
        <ele>119.535</ele>
        <time>2019-10-30T13:59:08Z</time>
      </trkpt>
      <trkpt lat="44.5861" lon="0.96795">
        <ele>118.849</ele>
        <time>2019-10-30T13:58:48Z</time>
      </trkpt>
      <trkpt lat="44.58737" lon="0.96637">
        <ele>128.108</ele>
        <time>2019-10-30T13:58:28Z</time>
      </trkpt>
      <trkpt lat="44.58771" lon="0.96614">
        <ele>125.615</ele>
        <time>2019-10-30T13:58:08Z</time>
      </trkpt>
      <trkpt lat="44.58867" lon="0.96612">
        <ele>123.523</ele>
        <time>2019-10-30T13:57:48Z</time>
      </trkpt>
      <trkpt lat="44.58912" lon="0.9664">
        <ele>126.433</ele>
        <time>2019-10-30T13:57:28Z</time>
      </trkpt>
      <trkpt lat="44.58955" lon="0.96638">
        <ele>129.296</ele>
        <time>2019-10-30T13:57:08Z</time>
      </trkpt>
      <trkpt lat="44.58991" lon="0.96668">
        <ele>123.937</ele>
        <time>2019-10-30T13:56:48Z</time>
      </trkpt>
      <trkpt lat="44.59033" lon="0.96673">
        <ele>122.321</ele>
        <time>2019-10-30T13:56:28Z</time>
      </trkpt>
      <trkpt lat="44.59086" lon="0.9666">
        <ele>121.589</ele>
        <time>2019-10-30T13:56:08Z</time>
      </trkpt>
      <trkpt lat="44.59146" lon="0.96601">
        <ele>127.633</ele>
        <time>2019-10-30T13:55:48Z</time>
      </trkpt>
      <trkpt lat="44.59174" lon="0.96543">
        <ele>128.86</ele>
        <time>2019-10-30T13:55:28Z</time>
      </trkpt>
      <trkpt lat="44.59201" lon="0.96438">
        <ele>135.355</ele>
        <time>2019-10-30T13:55:08Z</time>
      </trkpt>
      <trkpt lat="44.59223" lon="0.96432">
        <ele>130.819</ele>
        <time>2019-10-30T13:54:48Z</time>
      </trkpt>
      <trkpt lat="44.59274" lon="0.96453">
        <ele>131.308</ele>
        <time>2019-10-30T13:54:28Z</time>
      </trkpt>
      <trkpt lat="44.59386" lon="0.96284">
        <ele>130.521</ele>
        <time>2019-10-30T13:54:08Z</time>
      </trkpt>
      <trkpt lat="44.59403" lon="0.96169">
        <ele>130.801</ele>
        <time>2019-10-30T13:53:48Z</time>
      </trkpt>
      <trkpt lat="44.59471" lon="0.9616">
        <ele>135.439</ele>
        <time>2019-10-30T13:53:28Z</time>
      </trkpt>
      <trkpt lat="44.59467" lon="0.96138">
        <ele>139.984</ele>
        <time>2019-10-30T13:53:08Z</time>
      </trkpt>
      <trkpt lat="44.59443" lon="0.96129">
        <ele>139.335</ele>
        <time>2019-10-30T13:52:48Z</time>
      </trkpt>
      <trkpt lat="44.59431" lon="0.961">
        <ele>141.129</ele>
        <time>2019-10-30T13:52:28Z</time>
      </trkpt>
      <trkpt lat="44.59552" lon="0.96086">
        <ele>154.617</ele>
        <time>2019-10-30T13:52:08Z</time>
      </trkpt>
      <trkpt lat="44.59575" lon="0.96055">
        <ele>163.231</ele>
        <time>2019-10-30T13:51:48Z</time>
      </trkpt>
      <trkpt lat="44.59582" lon="0.95999">
        <ele>174.298</ele>
        <time>2019-10-30T13:51:28Z</time>
      </trkpt>
      <trkpt lat="44.59572" lon="0.95863">
        <ele>189.063</ele>
        <time>2019-10-30T13:51:08Z</time>
      </trkpt>
      <trkpt lat="44.5961" lon="0.95656">
        <ele>194.777</ele>
        <time>2019-10-30T13:50:48Z</time>
      </trkpt>
      <trkpt lat="44.59564" lon="0.9557">
        <ele>195.208</ele>
        <time>2019-10-30T13:50:28Z</time>
      </trkpt>
      <trkpt lat="44.59559" lon="0.95502">
        <ele>205.317</ele>
        <time>2019-10-30T13:50:08Z</time>
      </trkpt>
      <trkpt lat="44.59585" lon="0.95352">
        <ele>216.098</ele>
        <time>2019-10-30T13:49:48Z</time>
      </trkpt>
      <trkpt lat="44.5957" lon="0.95276">
        <ele>220.518</ele>
        <time>2019-10-30T13:49:28Z</time>
      </trkpt>
      <trkpt lat="44.59585" lon="0.95199">
        <ele>222.751</ele>
        <time>2019-10-30T13:49:08Z</time>
      </trkpt>
      <trkpt lat="44.59626" lon="0.95121">
        <ele>227.932</ele>
        <time>2019-10-30T13:48:48Z</time>
      </trkpt>
      <trkpt lat="44.59674" lon="0.95085">
        <ele>229.956</ele>
        <time>2019-10-30T13:48:28Z</time>
      </trkpt>
      <trkpt lat="44.59672" lon="0.95063">
        <ele>230.764</ele>
        <time>2019-10-30T13:48:08Z</time>
      </trkpt>
      <trkpt lat="44.59734" lon="0.94885">
        <ele>238.918</ele>
        <time>2019-10-30T13:47:48Z</time>
      </trkpt>
      <trkpt lat="44.5979" lon="0.94829">
        <ele>238.065</ele>
        <time>2019-10-30T13:47:28Z</time>
      </trkpt>
      <trkpt lat="44.59872" lon="0.94655">
        <ele>231.12</ele>
        <time>2019-10-30T13:47:08Z</time>
      </trkpt>
      <trkpt lat="44.59898" lon="0.94544">
        <ele>233.764</ele>
        <time>2019-10-30T13:46:48Z</time>
      </trkpt>
      <trkpt lat="44.59816" lon="0.94295">
        <ele>239.508</ele>
        <time>2019-10-30T13:46:28Z</time>
      </trkpt>
      <trkpt lat="44.59783" lon="0.94172">
        <ele>235.426</ele>
        <time>2019-10-30T13:46:08Z</time>
      </trkpt>
      <trkpt lat="44.59763" lon="0.93947">
        <ele>230.506</ele>
        <time>2019-10-30T13:45:48Z</time>
      </trkpt>
      <trkpt lat="44.59738" lon="0.93877">
        <ele>227.989</ele>
        <time>2019-10-30T13:45:28Z</time>
      </trkpt>
      <trkpt lat="44.59656" lon="0.93753">
        <ele>232.591</ele>
        <time>2019-10-30T13:45:08Z</time>
      </trkpt>
      <trkpt lat="44.59618" lon="0.9373">
        <ele>231.582</ele>
        <time>2019-10-30T13:44:48Z</time>
      </trkpt>
      <trkpt lat="44.59598" lon="0.93684">
        <ele>233.426</ele>
        <time>2019-10-30T13:44:28Z</time>
      </trkpt>
      <trkpt lat="44.59597" lon="0.93607">
        <ele>234.654</ele>
        <time>2019-10-30T13:44:08Z</time>
      </trkpt>
      <trkpt lat="44.59517" lon="0.93366">
        <ele>242.148</ele>
        <time>2019-10-30T13:43:48Z</time>
      </trkpt>
      <trkpt lat="44.59461" lon="0.93288">
        <ele>240.885</ele>
        <time>2019-10-30T13:43:28Z</time>
      </trkpt>
      <trkpt lat="44.59436" lon="0.93162">
        <ele>239.61</ele>
        <time>2019-10-30T13:43:08Z</time>
      </trkpt>
      <trkpt lat="44.59412" lon="0.93013">
        <ele>241.954</ele>
        <time>2019-10-30T13:42:48Z</time>
      </trkpt>
      <trkpt lat="44.59309" lon="0.92878">
        <ele>240.108</ele>
        <time>2019-10-30T13:42:28Z</time>
      </trkpt>
      <trkpt lat="44.59239" lon="0.92843">
        <ele>241.117</ele>
        <time>2019-10-30T13:42:08Z</time>
      </trkpt>
      <trkpt lat="44.59235" lon="0.92802">
        <ele>243.189</ele>
        <time>2019-10-30T13:41:48Z</time>
      </trkpt>
      <trkpt lat="44.59202" lon="0.92753">
        <ele>242.485</ele>
        <time>2019-10-30T13:41:28Z</time>
      </trkpt>
      <trkpt lat="44.59191" lon="0.9275">
        <ele>241.84</ele>
        <time>2019-10-30T13:41:08Z</time>
      </trkpt>
      <trkpt lat="44.59236" lon="0.92619">
        <ele>240.931</ele>
        <time>2019-10-30T13:40:48Z</time>
      </trkpt>
      <trkpt lat="44.59292" lon="0.92509">
        <ele>240.795</ele>
        <time>2019-10-30T13:40:28Z</time>
      </trkpt>
      <trkpt lat="44.59315" lon="0.92428">
        <ele>239.193</ele>
        <time>2019-10-30T13:40:08Z</time>
      </trkpt>
      <trkpt lat="44.59247" lon="0.92092">
        <ele>233.597</ele>
        <time>2019-10-30T13:39:48Z</time>
      </trkpt>
      <trkpt lat="44.59231" lon="0.91888">
        <ele>231.764</ele>
        <time>2019-10-30T13:39:28Z</time>
      </trkpt>
      <trkpt lat="44.59265" lon="0.91832">
        <ele>229.939</ele>
        <time>2019-10-30T13:39:08Z</time>
      </trkpt>
      <trkpt lat="44.59276" lon="0.91761">
        <ele>230.653</ele>
        <time>2019-10-30T13:38:48Z</time>
      </trkpt>
      <trkpt lat="44.59308" lon="0.91761">
        <ele>231.208</ele>
        <time>2019-10-30T13:38:28Z</time>
      </trkpt>
      <trkpt lat="44.59349" lon="0.91735">
        <ele>231.425</ele>
        <time>2019-10-30T13:38:08Z</time>
      </trkpt>
      <trkpt lat="44.59426" lon="0.91726">
        <ele>222.005</ele>
        <time>2019-10-30T13:37:48Z</time>
      </trkpt>
      <trkpt lat="44.59438" lon="0.91692">
        <ele>219.979</ele>
        <time>2019-10-30T13:37:28Z</time>
      </trkpt>
      <trkpt lat="44.5946" lon="0.91709">
        <ele>219.598</ele>
        <time>2019-10-30T13:37:08Z</time>
      </trkpt>
      <trkpt lat="44.59494" lon="0.91653">
        <ele>221.859</ele>
        <time>2019-10-30T13:36:48Z</time>
      </trkpt>
      <trkpt lat="44.5955" lon="0.91621">
        <ele>226.813</ele>
        <time>2019-10-30T13:36:28Z</time>
      </trkpt>
      <trkpt lat="44.59602" lon="0.9161">
        <ele>225.251</ele>
        <time>2019-10-30T13:36:08Z</time>
      </trkpt>
      <trkpt lat="44.59699" lon="0.91569">
        <ele>228.625</ele>
        <time>2019-10-30T13:35:48Z</time>
      </trkpt>
      <trkpt lat="44.59742" lon="0.91294">
        <ele>224.182</ele>
        <time>2019-10-30T13:35:28Z</time>
      </trkpt>
      <trkpt lat="44.59776" lon="0.91151">
        <ele>223.997</ele>
        <time>2019-10-30T13:35:08Z</time>
      </trkpt>
      <trkpt lat="44.59847" lon="0.9102">
        <ele>217.491</ele>
        <time>2019-10-30T13:34:48Z</time>
      </trkpt>
      <trkpt lat="44.59941" lon="0.909">
        <ele>200.908</ele>
        <time>2019-10-30T13:34:28Z</time>
      </trkpt>
      <trkpt lat="44.59966" lon="0.90717">
        <ele>191.808</ele>
        <time>2019-10-30T13:34:08Z</time>
      </trkpt>
      <trkpt lat="44.59996" lon="0.9062">
        <ele>193.153</ele>
        <time>2019-10-30T13:33:48Z</time>
      </trkpt>
      <trkpt lat="44.60005" lon="0.90562">
        <ele>187.252</ele>
        <time>2019-10-30T13:33:28Z</time>
      </trkpt>
      <trkpt lat="44.59986" lon="0.90271">
        <ele>173.022</ele>
        <time>2019-10-30T13:33:08Z</time>
      </trkpt>
      <trkpt lat="44.59953" lon="0.90129">
        <ele>163.393</ele>
        <time>2019-10-30T13:32:48Z</time>
      </trkpt>
      <trkpt lat="44.59973" lon="0.90067">
        <ele>160.447</ele>
        <time>2019-10-30T13:32:28Z</time>
      </trkpt>
      <trkpt lat="44.60021" lon="0.89931">
        <ele>158.265</ele>
        <time>2019-10-30T13:32:08Z</time>
      </trkpt>
      <trkpt lat="44.60014" lon="0.89869">
        <ele>161.219</ele>
        <time>2019-10-30T13:31:48Z</time>
      </trkpt>
      <trkpt lat="44.60034" lon="0.89781">
        <ele>169.136</ele>
        <time>2019-10-30T13:31:28Z</time>
      </trkpt>
      <trkpt lat="44.60032" lon="0.89744">
        <ele>171.521</ele>
        <time>2019-10-30T13:31:08Z</time>
      </trkpt>
      <trkpt lat="44.60059" lon="0.89652">
        <ele>171.695</ele>
        <time>2019-10-30T13:30:48Z</time>
      </trkpt>
      <trkpt lat="44.60069" lon="0.89501">
        <ele>174.008</ele>
        <time>2019-10-30T13:30:28Z</time>
      </trkpt>
      <trkpt lat="44.60118" lon="0.89385">
        <ele>172.024</ele>
        <time>2019-10-30T13:30:08Z</time>
      </trkpt>
      <trkpt lat="44.60143" lon="0.89312">
        <ele>172.531</ele>
        <time>2019-10-30T13:29:48Z</time>
      </trkpt>
      <trkpt lat="44.60165" lon="0.89305">
        <ele>171.196</ele>
        <time>2019-10-30T13:29:28Z</time>
      </trkpt>
      <trkpt lat="44.60204" lon="0.89258">
        <ele>171.291</ele>
        <time>2019-10-30T13:29:08Z</time>
      </trkpt>
      <trkpt lat="44.60284" lon="0.8923">
        <ele>173.842</ele>
        <time>2019-10-30T13:28:48Z</time>
      </trkpt>
      <trkpt lat="44.60328" lon="0.89161">
        <ele>172.146</ele>
        <time>2019-10-30T13:28:28Z</time>
      </trkpt>
      <trkpt lat="44.60493" lon="0.89057">
        <ele>180.054</ele>
        <time>2019-10-30T13:28:08Z</time>
      </trkpt>
      <trkpt lat="44.60554" lon="0.89015">
        <ele>179.518</ele>
        <time>2019-10-30T13:27:48Z</time>
      </trkpt>
      <trkpt lat="44.60697" lon="0.88969">
        <ele>185.165</ele>
        <time>2019-10-30T13:27:28Z</time>
      </trkpt>
      <trkpt lat="44.60791" lon="0.88918">
        <ele>187.57</ele>
        <time>2019-10-30T13:27:08Z</time>
      </trkpt>
      <trkpt lat="44.60924" lon="0.88827">
        <ele>185.584</ele>
        <time>2019-10-30T13:26:48Z</time>
      </trkpt>
      <trkpt lat="44.61032" lon="0.88731">
        <ele>191.608</ele>
        <time>2019-10-30T13:26:28Z</time>
      </trkpt>
      <trkpt lat="44.61038" lon="0.88576">
        <ele>194.617</ele>
        <time>2019-10-30T13:26:08Z</time>
      </trkpt>
      <trkpt lat="44.60994" lon="0.885">
        <ele>197.825</ele>
        <time>2019-10-30T13:25:48Z</time>
      </trkpt>
      <trkpt lat="44.60964" lon="0.88373">
        <ele>212.683</ele>
        <time>2019-10-30T13:25:28Z</time>
      </trkpt>
      <trkpt lat="44.60831" lon="0.88343">
        <ele>211.79</ele>
        <time>2019-10-30T13:25:08Z</time>
      </trkpt>
      <trkpt lat="44.60836" lon="0.88188">
        <ele>200.641</ele>
        <time>2019-10-30T13:24:48Z</time>
      </trkpt>
      <trkpt lat="44.60694" lon="0.88139">
        <ele>196.135</ele>
        <time>2019-10-30T13:24:28Z</time>
      </trkpt>
      <trkpt lat="44.60638" lon="0.88025">
        <ele>190.623</ele>
        <time>2019-10-30T13:24:08Z</time>
      </trkpt>
      <trkpt lat="44.60587" lon="0.87889">
        <ele>185.987</ele>
        <time>2019-10-30T13:23:48Z</time>
      </trkpt>
      <trkpt lat="44.60639" lon="0.87797">
        <ele>174.734</ele>
        <time>2019-10-30T13:23:28Z</time>
      </trkpt>
      <trkpt lat="44.60678" lon="0.87777">
        <ele>171.859</ele>
        <time>2019-10-30T13:23:08Z</time>
      </trkpt>
      <trkpt lat="44.60712" lon="0.87646">
        <ele>164.653</ele>
        <time>2019-10-30T13:22:48Z</time>
      </trkpt>
      <trkpt lat="44.60742" lon="0.87607">
        <ele>164.408</ele>
        <time>2019-10-30T13:22:28Z</time>
      </trkpt>
      <trkpt lat="44.60803" lon="0.87603">
        <ele>169.121</ele>
        <time>2019-10-30T13:22:08Z</time>
      </trkpt>
      <trkpt lat="44.60857" lon="0.87545">
        <ele>166.456</ele>
        <time>2019-10-30T13:21:48Z</time>
      </trkpt>
      <trkpt lat="44.60891" lon="0.87401">
        <ele>167.974</ele>
        <time>2019-10-30T13:21:28Z</time>
      </trkpt>
      <trkpt lat="44.60982" lon="0.87274">
        <ele>170.651</ele>
        <time>2019-10-30T13:21:08Z</time>
      </trkpt>
      <trkpt lat="44.61044" lon="0.87142">
        <ele>174.172</ele>
        <time>2019-10-30T13:20:48Z</time>
      </trkpt>
      <trkpt lat="44.61194" lon="0.87235">
        <ele>180.136</ele>
        <time>2019-10-30T13:20:28Z</time>
      </trkpt>
      <trkpt lat="44.61263" lon="0.87286">
        <ele>176.454</ele>
        <time>2019-10-30T13:20:08Z</time>
      </trkpt>
      <trkpt lat="44.61324" lon="0.87269">
        <ele>178.738</ele>
        <time>2019-10-30T13:19:48Z</time>
      </trkpt>
      <trkpt lat="44.61363" lon="0.87265">
        <ele>180.815</ele>
        <time>2019-10-30T13:19:28Z</time>
      </trkpt>
      <trkpt lat="44.61411" lon="0.87291">
        <ele>175.33</ele>
        <time>2019-10-30T13:19:08Z</time>
      </trkpt>
      <trkpt lat="44.61451" lon="0.87295">
        <ele>172.994</ele>
        <time>2019-10-30T13:18:48Z</time>
      </trkpt>
      <trkpt lat="44.61509" lon="0.87319">
        <ele>172.308</ele>
        <time>2019-10-30T13:18:28Z</time>
      </trkpt>
      <trkpt lat="44.61598" lon="0.87368">
        <ele>172.517</ele>
        <time>2019-10-30T13:18:08Z</time>
      </trkpt>
      <trkpt lat="44.61687" lon="0.87418">
        <ele>170.543</ele>
        <time>2019-10-30T13:17:48Z</time>
      </trkpt>
      <trkpt lat="44.61706" lon="0.87448">
        <ele>173.682</ele>
        <time>2019-10-30T13:17:28Z</time>
      </trkpt>
      <trkpt lat="44.61763" lon="0.87463">
        <ele>181.675</ele>
        <time>2019-10-30T13:17:08Z</time>
      </trkpt>
      <trkpt lat="44.61784" lon="0.87454">
        <ele>183.566</ele>
        <time>2019-10-30T13:16:48Z</time>
      </trkpt>
      <trkpt lat="44.61815" lon="0.87457">
        <ele>185.75</ele>
        <time>2019-10-30T13:16:28Z</time>
      </trkpt>
      <trkpt lat="44.61872" lon="0.87407">
        <ele>190.318</ele>
        <time>2019-10-30T13:16:08Z</time>
      </trkpt>
      <trkpt lat="44.61936" lon="0.87381">
        <ele>192.412</ele>
        <time>2019-10-30T13:15:48Z</time>
      </trkpt>
      <trkpt lat="44.61958" lon="0.87416">
        <ele>191.089</ele>
        <time>2019-10-30T13:15:28Z</time>
      </trkpt>
      <trkpt lat="44.62048" lon="0.87429">
        <ele>191.374</ele>
        <time>2019-10-30T13:15:08Z</time>
      </trkpt>
      <trkpt lat="44.62129" lon="0.87422">
        <ele>186.438</ele>
        <time>2019-10-30T13:14:48Z</time>
      </trkpt>
      <trkpt lat="44.6225" lon="0.87443">
        <ele>187.108</ele>
        <time>2019-10-30T13:14:28Z</time>
      </trkpt>
      <trkpt lat="44.62345" lon="0.87486">
        <ele>186.208</ele>
        <time>2019-10-30T13:14:08Z</time>
      </trkpt>
      <trkpt lat="44.62395" lon="0.87542">
        <ele>180.762</ele>
        <time>2019-10-30T13:13:48Z</time>
      </trkpt>
      <trkpt lat="44.62433" lon="0.87553">
        <ele>179.922</ele>
        <time>2019-10-30T13:13:28Z</time>
      </trkpt>
      <trkpt lat="44.62449" lon="0.87594">
        <ele>182.71</ele>
        <time>2019-10-30T13:13:08Z</time>
      </trkpt>
      <trkpt lat="44.62548" lon="0.87564">
        <ele>183.921</ele>
        <time>2019-10-30T13:12:48Z</time>
      </trkpt>
      <trkpt lat="44.62643" lon="0.87532">
        <ele>186.725</ele>
        <time>2019-10-30T13:12:28Z</time>
      </trkpt>
      <trkpt lat="44.62714" lon="0.87525">
        <ele>193.953</ele>
        <time>2019-10-30T13:12:08Z</time>
      </trkpt>
      <trkpt lat="44.62776" lon="0.87561">
        <ele>197.767</ele>
        <time>2019-10-30T13:11:48Z</time>
      </trkpt>
      <trkpt lat="44.62892" lon="0.87545">
        <ele>199.624</ele>
        <time>2019-10-30T13:11:28Z</time>
      </trkpt>
      <trkpt lat="44.63048" lon="0.87496">
        <ele>196.659</ele>
        <time>2019-10-30T13:11:08Z</time>
      </trkpt>
      <trkpt lat="44.63049" lon="0.87337">
        <ele>201.773</ele>
        <time>2019-10-30T13:10:48Z</time>
      </trkpt>
      <trkpt lat="44.6307" lon="0.87314">
        <ele>203.808</ele>
        <time>2019-10-30T13:10:28Z</time>
      </trkpt>
      <trkpt lat="44.63099" lon="0.87226">
        <ele>215.226</ele>
        <time>2019-10-30T13:10:08Z</time>
      </trkpt>
      <trkpt lat="44.63132" lon="0.87182">
        <ele>223.233</ele>
        <time>2019-10-30T13:09:48Z</time>
      </trkpt>
      <trkpt lat="44.63188" lon="0.87161">
        <ele>223.878</ele>
        <time>2019-10-30T13:09:28Z</time>
      </trkpt>
      <trkpt lat="44.6326" lon="0.87151">
        <ele>215.126</ele>
        <time>2019-10-30T13:09:08Z</time>
      </trkpt>
      <trkpt lat="44.63277" lon="0.8719">
        <ele>218.127</ele>
        <time>2019-10-30T13:08:48Z</time>
      </trkpt>
      <trkpt lat="44.63304" lon="0.87307">
        <ele>218.561</ele>
        <time>2019-10-30T13:08:28Z</time>
      </trkpt>
      <trkpt lat="44.63336" lon="0.87351">
        <ele>214.869</ele>
        <time>2019-10-30T13:08:08Z</time>
      </trkpt>
      <trkpt lat="44.63449" lon="0.8762">
        <ele>201.453</ele>
        <time>2019-10-30T13:07:48Z</time>
      </trkpt>
      <trkpt lat="44.63494" lon="0.87825">
        <ele>201.96</ele>
        <time>2019-10-30T13:07:28Z</time>
      </trkpt>
      <trkpt lat="44.63621" lon="0.87948">
        <ele>215.665</ele>
        <time>2019-10-30T13:07:08Z</time>
      </trkpt>
      <trkpt lat="44.63826" lon="0.8806">
        <ele>204.919</ele>
        <time>2019-10-30T13:06:48Z</time>
      </trkpt>
      <trkpt lat="44.64034" lon="0.88138">
        <ele>197.808</ele>
        <time>2019-10-30T13:06:28Z</time>
      </trkpt>
      <trkpt lat="44.64142" lon="0.8821">
        <ele>198.921</ele>
        <time>2019-10-30T13:06:08Z</time>
      </trkpt>
      <trkpt lat="44.64273" lon="0.8827">
        <ele>202.501</ele>
        <time>2019-10-30T13:05:48Z</time>
      </trkpt>
      <trkpt lat="44.64452" lon="0.88392">
        <ele>210.639</ele>
        <time>2019-10-30T13:05:28Z</time>
      </trkpt>
      <trkpt lat="44.64525" lon="0.88475">
        <ele>211.167</ele>
        <time>2019-10-30T13:05:08Z</time>
      </trkpt>
      <trkpt lat="44.64573" lon="0.88511">
        <ele>211.198</ele>
        <time>2019-10-30T13:04:48Z</time>
      </trkpt>
      <trkpt lat="44.64821" lon="0.88556">
        <ele>198.382</ele>
        <time>2019-10-30T13:04:28Z</time>
      </trkpt>
      <trkpt lat="44.64923" lon="0.88542">
        <ele>187.92</ele>
        <time>2019-10-30T13:04:08Z</time>
      </trkpt>
      <trkpt lat="44.65003" lon="0.88551">
        <ele>190.774</ele>
        <time>2019-10-30T13:03:48Z</time>
      </trkpt>
      <trkpt lat="44.65101" lon="0.88582">
        <ele>198.011</ele>
        <time>2019-10-30T13:03:28Z</time>
      </trkpt>
      <trkpt lat="44.65184" lon="0.88618">
        <ele>204.466</ele>
        <time>2019-10-30T13:03:08Z</time>
      </trkpt>
      <trkpt lat="44.65229" lon="0.88594">
        <ele>203.71</ele>
        <time>2019-10-30T13:02:48Z</time>
      </trkpt>
      <trkpt lat="44.6525" lon="0.88537">
        <ele>203.708</ele>
        <time>2019-10-30T13:02:28Z</time>
      </trkpt>
      <trkpt lat="44.65247" lon="0.88503">
        <ele>203.209</ele>
        <time>2019-10-30T13:02:08Z</time>
      </trkpt>
      <trkpt lat="44.65263" lon="0.88212">
        <ele>202.981</ele>
        <time>2019-10-30T13:01:48Z</time>
      </trkpt>
      <trkpt lat="44.6529" lon="0.88051">
        <ele>199.441</ele>
        <time>2019-10-30T13:01:28Z</time>
      </trkpt>
      <trkpt lat="44.65313" lon="0.87865">
        <ele>201.099</ele>
        <time>2019-10-30T13:01:08Z</time>
      </trkpt>
      <trkpt lat="44.65357" lon="0.87701">
        <ele>202.08</ele>
        <time>2019-10-30T13:00:48Z</time>
      </trkpt>
      <trkpt lat="44.65403" lon="0.87564">
        <ele>204.554</ele>
        <time>2019-10-30T13:00:28Z</time>
      </trkpt>
      <trkpt lat="44.65454" lon="0.87472">
        <ele>201.012</ele>
        <time>2019-10-30T13:00:08Z</time>
      </trkpt>
      <trkpt lat="44.65493" lon="0.87333">
        <ele>196.566</ele>
        <time>2019-10-30T12:59:48Z</time>
      </trkpt>
      <trkpt lat="44.65534" lon="0.87231">
        <ele>194.653</ele>
        <time>2019-10-30T12:59:28Z</time>
      </trkpt>
      <trkpt lat="44.65597" lon="0.87145">
        <ele>186.788</ele>
        <time>2019-10-30T12:59:08Z</time>
      </trkpt>
      <trkpt lat="44.6562" lon="0.87254">
        <ele>188.712</ele>
        <time>2019-10-30T12:58:48Z</time>
      </trkpt>
      <trkpt lat="44.65671" lon="0.87301">
        <ele>185.108</ele>
        <time>2019-10-30T12:58:28Z</time>
      </trkpt>
      <trkpt lat="44.65765" lon="0.87342">
        <ele>173.826</ele>
        <time>2019-10-30T12:58:08Z</time>
      </trkpt>
      <trkpt lat="44.65767" lon="0.87402">
        <ele>172.542</ele>
        <time>2019-10-30T12:57:48Z</time>
      </trkpt>
      <trkpt lat="44.65824" lon="0.87459">
        <ele>164.468</ele>
        <time>2019-10-30T12:57:28Z</time>
      </trkpt>
      <trkpt lat="44.65934" lon="0.87438">
        <ele>151.727</ele>
        <time>2019-10-30T12:57:08Z</time>
      </trkpt>
      <trkpt lat="44.65999" lon="0.87498">
        <ele>148.028</ele>
        <time>2019-10-30T12:56:48Z</time>
      </trkpt>
      <trkpt lat="44.66073" lon="0.87537">
        <ele>136.952</ele>
        <time>2019-10-30T12:56:28Z</time>
      </trkpt>
      <trkpt lat="44.66111" lon="0.87516">
        <ele>136.56</ele>
        <time>2019-10-30T12:56:08Z</time>
      </trkpt>
      <trkpt lat="44.66163" lon="0.87546">
        <ele>134.264</ele>
        <time>2019-10-30T12:55:48Z</time>
      </trkpt>
      <trkpt lat="44.66255" lon="0.87532">
        <ele>132.861</ele>
        <time>2019-10-30T12:55:28Z</time>
      </trkpt>
      <trkpt lat="44.66331" lon="0.87459">
        <ele>141.666</ele>
        <time>2019-10-30T12:55:08Z</time>
      </trkpt>
      <trkpt lat="44.66272" lon="0.87385">
        <ele>137.53</ele>
        <time>2019-10-30T12:54:48Z</time>
      </trkpt>
      <trkpt lat="44.66245" lon="0.87298">
        <ele>134.208</ele>
        <time>2019-10-30T12:54:28Z</time>
      </trkpt>
      <trkpt lat="44.66301" lon="0.87187">
        <ele>142.817</ele>
        <time>2019-10-30T12:54:08Z</time>
      </trkpt>
      <trkpt lat="44.66343" lon="0.87096">
        <ele>154.661</ele>
        <time>2019-10-30T12:53:48Z</time>
      </trkpt>
      <trkpt lat="44.66358" lon="0.86995">
        <ele>160.348</ele>
        <time>2019-10-30T12:53:28Z</time>
      </trkpt>
      <trkpt lat="44.66387" lon="0.86924">
        <ele>160.039</ele>
        <time>2019-10-30T12:53:08Z</time>
      </trkpt>
      <trkpt lat="44.66479" lon="0.8682">
        <ele>163.85</ele>
        <time>2019-10-30T12:52:48Z</time>
      </trkpt>
      <trkpt lat="44.6659" lon="0.8672">
        <ele>167.174</ele>
        <time>2019-10-30T12:52:28Z</time>
      </trkpt>
      <trkpt lat="44.66621" lon="0.86711">
        <ele>168.632</ele>
        <time>2019-10-30T12:52:08Z</time>
      </trkpt>
      <trkpt lat="44.66694" lon="0.86763">
        <ele>176.426</ele>
        <time>2019-10-30T12:51:48Z</time>
      </trkpt>
      <trkpt lat="44.66742" lon="0.86675">
        <ele>176.233</ele>
        <time>2019-10-30T12:51:28Z</time>
      </trkpt>
      <trkpt lat="44.66835" lon="0.86569">
        <ele>180.618</ele>
        <time>2019-10-30T12:51:08Z</time>
      </trkpt>
      <trkpt lat="44.66901" lon="0.8654">
        <ele>186.762</ele>
        <time>2019-10-30T12:50:48Z</time>
      </trkpt>
      <trkpt lat="44.66952" lon="0.86467">
        <ele>190.608</ele>
        <time>2019-10-30T12:50:28Z</time>
      </trkpt>
      <trkpt lat="44.67" lon="0.86442">
        <ele>193.716</ele>
        <time>2019-10-30T12:50:08Z</time>
      </trkpt>
      <trkpt lat="44.67022" lon="0.86475">
        <ele>198.706</ele>
        <time>2019-10-30T12:49:48Z</time>
      </trkpt>
      <trkpt lat="44.67075" lon="0.86465">
        <ele>197.764</ele>
        <time>2019-10-30T12:49:28Z</time>
      </trkpt>
      <trkpt lat="44.67147" lon="0.8639">
        <ele>196.249</ele>
        <time>2019-10-30T12:49:08Z</time>
      </trkpt>
      <trkpt lat="44.67181" lon="0.86335">
        <ele>201.45</ele>
        <time>2019-10-30T12:48:48Z</time>
      </trkpt>
      <trkpt lat="44.67237" lon="0.86298">
        <ele>200.724</ele>
        <time>2019-10-30T12:48:28Z</time>
      </trkpt>
      <trkpt lat="44.67307" lon="0.86491">
        <ele>208.112</ele>
        <time>2019-10-30T12:48:08Z</time>
      </trkpt>
      <trkpt lat="44.67403" lon="0.8654">
        <ele>210.896</ele>
        <time>2019-10-30T12:47:48Z</time>
      </trkpt>
      <trkpt lat="44.67442" lon="0.86712">
        <ele>206.863</ele>
        <time>2019-10-30T12:47:28Z</time>
      </trkpt>
      <trkpt lat="44.67671" lon="0.87129">
        <ele>200.568</ele>
        <time>2019-10-30T12:47:08Z</time>
      </trkpt>
      <trkpt lat="44.67876" lon="0.87426">
        <ele>200.042</ele>
        <time>2019-10-30T12:46:48Z</time>
      </trkpt>
      <trkpt lat="44.67947" lon="0.87621">
        <ele>196.508</ele>
        <time>2019-10-30T12:46:28Z</time>
      </trkpt>
      <trkpt lat="44.67966" lon="0.87704">
        <ele>194.516</ele>
        <time>2019-10-30T12:46:08Z</time>
      </trkpt>
      <trkpt lat="44.68005" lon="0.87815">
        <ele>192.906</ele>
        <time>2019-10-30T12:45:48Z</time>
      </trkpt>
      <trkpt lat="44.68009" lon="0.87903">
        <ele>190.064</ele>
        <time>2019-10-30T12:45:28Z</time>
      </trkpt>
      <trkpt lat="44.68019" lon="0.87937">
        <ele>191.969</ele>
        <time>2019-10-30T12:45:08Z</time>
      </trkpt>
      <trkpt lat="44.68084" lon="0.87989">
        <ele>195.87</ele>
        <time>2019-10-30T12:44:48Z</time>
      </trkpt>
      <trkpt lat="44.68105" lon="0.88044">
        <ele>195.334</ele>
        <time>2019-10-30T12:44:28Z</time>
      </trkpt>
      <trkpt lat="44.68098" lon="0.88299">
        <ele>200.992</ele>
        <time>2019-10-30T12:44:08Z</time>
      </trkpt>
      <trkpt lat="44.68117" lon="0.88439">
        <ele>203.866</ele>
        <time>2019-10-30T12:43:48Z</time>
      </trkpt>
      <trkpt lat="44.68132" lon="0.88699">
        <ele>196.393</ele>
        <time>2019-10-30T12:43:28Z</time>
      </trkpt>
      <trkpt lat="44.68153" lon="0.88773">
        <ele>192.258</ele>
        <time>2019-10-30T12:43:08Z</time>
      </trkpt>
      <trkpt lat="44.68212" lon="0.89152">
        <ele>184.552</ele>
        <time>2019-10-30T12:42:48Z</time>
      </trkpt>
      <trkpt lat="44.68031" lon="0.89311">
        <ele>191.908</ele>
        <time>2019-10-30T12:42:28Z</time>
      </trkpt>
      <trkpt lat="44.68036" lon="0.89405">
        <ele>200.913</ele>
        <time>2019-10-30T12:42:08Z</time>
      </trkpt>
      <trkpt lat="44.68218" lon="0.89374">
        <ele>201.921</ele>
        <time>2019-10-30T12:41:48Z</time>
      </trkpt>
      <trkpt lat="44.68221" lon="0.89433">
        <ele>201.461</ele>
        <time>2019-10-30T12:41:28Z</time>
      </trkpt>
      <trkpt lat="44.68396" lon="0.89417">
        <ele>202.365</ele>
        <time>2019-10-30T12:41:08Z</time>
      </trkpt>
      <trkpt lat="44.68505" lon="0.8935">
        <ele>205.156</ele>
        <time>2019-10-30T12:40:48Z</time>
      </trkpt>
      <trkpt lat="44.68509" lon="0.89311">
        <ele>204.24</ele>
        <time>2019-10-30T12:40:28Z</time>
      </trkpt>
      <trkpt lat="44.68551" lon="0.89246">
        <ele>203.088</ele>
        <time>2019-10-30T12:40:08Z</time>
      </trkpt>
      <trkpt lat="44.68804" lon="0.88677">
        <ele>201.762</ele>
        <time>2019-10-30T12:39:48Z</time>
      </trkpt>
      <trkpt lat="44.68913" lon="0.88768">
        <ele>201.579</ele>
        <time>2019-10-30T12:39:28Z</time>
      </trkpt>
      <trkpt lat="44.69043" lon="0.88775">
        <ele>201.534</ele>
        <time>2020-12-26T04:57:15Z</time>
      </trkpt>
      <trkpt lat="44.69056" lon="0.8863">
        <ele>201.648</ele>
        <time>2019-10-30T12:38:28Z</time>
      </trkpt>
      <trkpt lat="44.69115" lon="0.8861">
        <ele>197.008</ele>
        <time>2019-10-30T12:38:08Z</time>
      </trkpt>
      <trkpt lat="44.69102" lon="0.88516">
        <ele>197.305</ele>
        <time>2019-10-30T12:37:48Z</time>
      </trkpt>
      <trkpt lat="44.69114" lon="0.88325">
        <ele>199.141</ele>
        <time>2019-10-30T12:37:28Z</time>
      </trkpt>
      <trkpt lat="44.69199" lon="0.87948">
        <ele>199.721</ele>
        <time>2019-10-30T12:37:08Z</time>
      </trkpt>
      <trkpt lat="44.69238" lon="0.87855">
        <ele>201.082</ele>
        <time>2019-10-30T12:36:48Z</time>
      </trkpt>
      <trkpt lat="44.69372" lon="0.87746">
        <ele>204.163</ele>
        <time>2019-10-30T12:36:28Z</time>
      </trkpt>
      <trkpt lat="44.6943" lon="0.87686">
        <ele>208.287</ele>
        <time>2019-10-30T12:36:08Z</time>
      </trkpt>
      <trkpt lat="44.69491" lon="0.87576">
        <ele>205.295</ele>
        <time>2019-10-30T12:35:48Z</time>
      </trkpt>
      <trkpt lat="44.69569" lon="0.87506">
        <ele>208.069</ele>
        <time>2019-10-30T12:35:28Z</time>
      </trkpt>
      <trkpt lat="44.69569" lon="0.87423">
        <ele>207.716</ele>
        <time>2019-10-30T12:35:08Z</time>
      </trkpt>
      <trkpt lat="44.69588" lon="0.8733">
        <ele>205.451</ele>
        <time>2019-10-30T12:34:48Z</time>
      </trkpt>
      <trkpt lat="44.69581" lon="0.87268">
        <ele>200.685</ele>
        <time>2019-10-30T12:34:28Z</time>
      </trkpt>
      <trkpt lat="44.69759" lon="0.87229">
        <ele>191.908</ele>
        <time>2019-10-30T12:34:08Z</time>
      </trkpt>
      <trkpt lat="44.69854" lon="0.87234">
        <ele>190.319</ele>
        <time>2019-10-30T12:33:48Z</time>
      </trkpt>
      <trkpt lat="44.69953" lon="0.8721">
        <ele>189.681</ele>
        <time>2019-10-30T12:33:28Z</time>
      </trkpt>
      <trkpt lat="44.69965" lon="0.87161">
        <ele>188.491</ele>
        <time>2019-10-30T12:33:08Z</time>
      </trkpt>
      <trkpt lat="44.70151" lon="0.87176">
        <ele>181.077</ele>
        <time>2019-10-30T12:32:48Z</time>
      </trkpt>
      <trkpt lat="44.70214" lon="0.87163">
        <ele>177.628</ele>
        <time>2019-10-30T12:32:28Z</time>
      </trkpt>
      <trkpt lat="44.70296" lon="0.87171">
        <ele>172.732</ele>
        <time>2019-10-30T12:32:08Z</time>
      </trkpt>
      <trkpt lat="44.70335" lon="0.87184">
        <ele>169.43</ele>
        <time>2019-10-30T12:31:48Z</time>
      </trkpt>
      <trkpt lat="44.70379" lon="0.87163">
        <ele>170.574</ele>
        <time>2019-10-30T12:31:28Z</time>
      </trkpt>
      <trkpt lat="44.70392" lon="0.87101">
        <ele>176.271</ele>
        <time>2019-10-30T12:31:08Z</time>
      </trkpt>
      <trkpt lat="44.70421" lon="0.86881">
        <ele>171.226</ele>
        <time>2019-10-30T12:30:48Z</time>
      </trkpt>
      <trkpt lat="44.70424" lon="0.86663">
        <ele>176.86</ele>
        <time>2019-10-30T12:30:28Z</time>
      </trkpt>
      <trkpt lat="44.70407" lon="0.86574">
        <ele>178.808</ele>
        <time>2019-10-30T12:30:08Z</time>
      </trkpt>
      <trkpt lat="44.70352" lon="0.86535">
        <ele>178.822</ele>
        <time>2019-10-30T12:29:48Z</time>
      </trkpt>
      <trkpt lat="44.70254" lon="0.86504">
        <ele>170.402</ele>
        <time>2019-10-30T12:29:28Z</time>
      </trkpt>
      <trkpt lat="44.70165" lon="0.86504">
        <ele>173.149</ele>
        <time>2019-10-30T12:29:08Z</time>
      </trkpt>
      <trkpt lat="44.70091" lon="0.86462">
        <ele>176.158</ele>
        <time>2019-10-30T12:28:48Z</time>
      </trkpt>
      <trkpt lat="44.70102" lon="0.86384">
        <ele>174.669</ele>
        <time>2019-10-30T12:28:28Z</time>
      </trkpt>
      <trkpt lat="44.69922" lon="0.86275">
        <ele>197.083</ele>
        <time>2019-10-30T12:28:08Z</time>
      </trkpt>
      <trkpt lat="44.69927" lon="0.8619">
        <ele>200.181</ele>
        <time>2019-10-30T12:27:48Z</time>
      </trkpt>
      <trkpt lat="44.69902" lon="0.86141">
        <ele>200.465</ele>
        <time>2019-10-30T12:27:28Z</time>
      </trkpt>
      <trkpt lat="44.69936" lon="0.86122">
        <ele>200.732</ele>
        <time>2019-10-30T12:27:08Z</time>
      </trkpt>
      <trkpt lat="44.6998" lon="0.86046">
        <ele>199.497</ele>
        <time>2019-10-30T12:26:48Z</time>
      </trkpt>
      <trkpt lat="44.70288" lon="0.85911">
        <ele>197.751</ele>
        <time>2019-10-30T12:26:28Z</time>
      </trkpt>
      <trkpt lat="44.70361" lon="0.85893">
        <ele>199.308</ele>
        <time>2019-10-30T12:26:08Z</time>
      </trkpt>
      <trkpt lat="44.70461" lon="0.85893">
        <ele>195.023</ele>
        <time>2019-10-30T12:25:48Z</time>
      </trkpt>
      <trkpt lat="44.70635" lon="0.85922">
        <ele>198.103</ele>
        <time>2019-10-30T12:25:28Z</time>
      </trkpt>
      <trkpt lat="44.70821" lon="0.85979">
        <ele>196.159</ele>
        <time>2019-10-30T12:25:08Z</time>
      </trkpt>
      <trkpt lat="44.7087" lon="0.86003">
        <ele>194.876</ele>
        <time>2019-10-30T12:24:48Z</time>
      </trkpt>
      <trkpt lat="44.71" lon="0.85959">
        <ele>187.437</ele>
        <time>2019-10-30T12:24:28Z</time>
      </trkpt>
      <trkpt lat="44.71123" lon="0.85907">
        <ele>176.411</ele>
        <time>2019-10-30T12:24:08Z</time>
      </trkpt>
      <trkpt lat="44.71197" lon="0.85956">
        <ele>176.169</ele>
        <time>2019-10-30T12:23:48Z</time>
      </trkpt>
      <trkpt lat="44.71256" lon="0.85951">
        <ele>173.933</ele>
        <time>2019-10-30T12:23:28Z</time>
      </trkpt>
      <trkpt lat="44.71393" lon="0.8594">
        <ele>170.46</ele>
        <time>2019-10-30T12:23:08Z</time>
      </trkpt>
      <trkpt lat="44.71471" lon="0.85914">
        <ele>171.025</ele>
        <time>2019-10-30T12:22:48Z</time>
      </trkpt>
      <trkpt lat="44.71515" lon="0.85868">
        <ele>171.919</ele>
        <time>2019-10-30T12:22:28Z</time>
      </trkpt>
      <trkpt lat="44.71548" lon="0.85785">
        <ele>171.008</ele>
        <time>2019-10-30T12:22:08Z</time>
      </trkpt>
      <trkpt lat="44.71598" lon="0.85728">
        <ele>162.51</ele>
        <time>2019-10-30T12:21:48Z</time>
      </trkpt>
      <trkpt lat="44.71556" lon="0.85671">
        <ele>166.155</ele>
        <time>2019-10-30T12:21:28Z</time>
      </trkpt>
      <trkpt lat="44.71543" lon="0.85611">
        <ele>165.834</ele>
        <time>2019-10-30T12:21:08Z</time>
      </trkpt>
      <trkpt lat="44.71511" lon="0.85546">
        <ele>162.636</ele>
        <time>2019-10-30T12:20:48Z</time>
      </trkpt>
      <trkpt lat="44.71431" lon="0.85452">
        <ele>148.647</ele>
        <time>2019-10-30T12:20:28Z</time>
      </trkpt>
      <trkpt lat="44.71381" lon="0.85439">
        <ele>147.451</ele>
        <time>2019-10-30T12:20:08Z</time>
      </trkpt>
      <trkpt lat="44.71389" lon="0.85348">
        <ele>143.089</ele>
        <time>2019-10-30T12:19:48Z</time>
      </trkpt>
      <trkpt lat="44.71459" lon="0.85296">
        <ele>145.393</ele>
        <time>2019-10-30T12:19:28Z</time>
      </trkpt>
      <trkpt lat="44.71438" lon="0.85128">
        <ele>149.65</ele>
        <time>2019-10-30T12:19:08Z</time>
      </trkpt>
      <trkpt lat="44.71497" lon="0.85125">
        <ele>148.315</ele>
        <time>2019-10-30T12:18:48Z</time>
      </trkpt>
      <trkpt lat="44.71564" lon="0.85089">
        <ele>156.279</ele>
        <time>2019-10-30T12:18:28Z</time>
      </trkpt>
      <trkpt lat="44.7159" lon="0.85091">
        <ele>157.908</ele>
        <time>2019-10-30T12:18:08Z</time>
      </trkpt>
      <trkpt lat="44.71621" lon="0.85175">
        <ele>159.917</ele>
        <time>2019-10-30T12:17:48Z</time>
      </trkpt>
      <trkpt lat="44.71659" lon="0.85119">
        <ele>161.97</ele>
        <time>2019-10-30T12:17:28Z</time>
      </trkpt>
      <trkpt lat="44.71676" lon="0.85071">
        <ele>164.538</ele>
        <time>2019-10-30T12:17:08Z</time>
      </trkpt>
      <trkpt lat="44.71713" lon="0.85013">
        <ele>166.967</ele>
        <time>2019-10-30T12:16:48Z</time>
      </trkpt>
      <trkpt lat="44.71748" lon="0.84993">
        <ele>166.378</ele>
        <time>2019-10-30T12:16:28Z</time>
      </trkpt>
      <trkpt lat="44.71867" lon="0.84886">
        <ele>174.392</ele>
        <time>2019-10-30T12:16:08Z</time>
      </trkpt>
      <trkpt lat="44.71968" lon="0.84827">
        <ele>175.79</ele>
        <time>2019-10-30T12:15:48Z</time>
      </trkpt>
      <trkpt lat="44.72023" lon="0.84738">
        <ele>172.834</ele>
        <time>2019-10-30T12:15:28Z</time>
      </trkpt>
      <trkpt lat="44.72156" lon="0.84624">
        <ele>165.971</ele>
        <time>2019-10-30T12:15:08Z</time>
      </trkpt>
      <trkpt lat="44.72244" lon="0.84452">
        <ele>160.446</ele>
        <time>2019-10-30T12:14:48Z</time>
      </trkpt>
      <trkpt lat="44.72329" lon="0.84332">
        <ele>149.64</ele>
        <time>2019-10-30T12:14:28Z</time>
      </trkpt>
      <trkpt lat="44.72382" lon="0.84276">
        <ele>145.208</ele>
        <time>2019-10-30T12:14:08Z</time>
      </trkpt>
      <trkpt lat="44.72414" lon="0.84197">
        <ele>143.016</ele>
        <time>2019-10-30T12:13:48Z</time>
      </trkpt>
      <trkpt lat="44.72472" lon="0.84182">
        <ele>144.988</ele>
        <time>2019-10-30T12:13:28Z</time>
      </trkpt>
      <trkpt lat="44.72513" lon="0.8419">
        <ele>145.646</ele>
        <time>2019-10-30T12:13:08Z</time>
      </trkpt>
      <trkpt lat="44.72551" lon="0.84219">
        <ele>145.927</ele>
        <time>2019-10-30T12:12:48Z</time>
      </trkpt>
      <trkpt lat="44.72572" lon="0.84211">
        <ele>146.698</ele>
        <time>2019-10-30T12:12:28Z</time>
      </trkpt>
      <trkpt lat="44.72583" lon="0.84154">
        <ele>149.442</ele>
        <time>2019-10-30T12:12:08Z</time>
      </trkpt>
      <trkpt lat="44.72604" lon="0.84096">
        <ele>156.64</ele>
        <time>2019-10-30T12:11:48Z</time>
      </trkpt>
      <trkpt lat="44.72635" lon="0.84078">
        <ele>162.774</ele>
        <time>2019-10-30T12:11:28Z</time>
      </trkpt>
      <trkpt lat="44.72658" lon="0.84042">
        <ele>164.781</ele>
        <time>2019-10-30T12:11:08Z</time>
      </trkpt>
      <trkpt lat="44.72747" lon="0.83946">
        <ele>163.296</ele>
        <time>2019-10-30T12:10:48Z</time>
      </trkpt>
      <trkpt lat="44.7279" lon="0.83931">
        <ele>160.11</ele>
        <time>2019-10-30T12:10:28Z</time>
      </trkpt>
      <trkpt lat="44.72809" lon="0.83896">
        <ele>160.408</ele>
        <time>2019-10-30T12:10:08Z</time>
      </trkpt>
      <trkpt lat="44.72853" lon="0.8387">
        <ele>155.511</ele>
        <time>2019-10-30T12:09:48Z</time>
      </trkpt>
      <trkpt lat="44.72885" lon="0.83909">
        <ele>152.647</ele>
        <time>2019-10-30T12:09:28Z</time>
      </trkpt>
      <trkpt lat="44.72907" lon="0.83964">
        <ele>151.645</ele>
        <time>2019-10-30T12:09:08Z</time>
      </trkpt>
      <trkpt lat="44.7301" lon="0.84101">
        <ele>152.044</ele>
        <time>2019-10-30T12:08:48Z</time>
      </trkpt>
      <trkpt lat="44.73087" lon="0.84169">
        <ele>149.295</ele>
        <time>2019-10-30T12:08:28Z</time>
      </trkpt>
      <trkpt lat="44.73159" lon="0.84078">
        <ele>159.169</ele>
        <time>2019-10-30T12:08:08Z</time>
      </trkpt>
      <trkpt lat="44.73257" lon="0.84193">
        <ele>151.077</ele>
        <time>2019-10-30T12:07:48Z</time>
      </trkpt>
      <trkpt lat="44.7321" lon="0.8426">
        <ele>144.531</ele>
        <time>2019-10-30T12:07:28Z</time>
      </trkpt>
      <trkpt lat="44.73326" lon="0.84481">
        <ele>121.198</ele>
        <time>2019-10-30T12:07:08Z</time>
      </trkpt>
      <trkpt lat="44.73355" lon="0.84483">
        <ele>119.133</ele>
        <time>2019-10-30T12:06:48Z</time>
      </trkpt>
      <trkpt lat="44.73406" lon="0.84453">
        <ele>125.027</ele>
        <time>2019-10-30T12:06:28Z</time>
      </trkpt>
      <trkpt lat="44.73423" lon="0.84515">
        <ele>113.208</ele>
        <time>2019-10-30T12:06:08Z</time>
      </trkpt>
      <trkpt lat="44.73464" lon="0.84492">
        <ele>114.613</ele>
        <time>2019-10-30T12:05:48Z</time>
      </trkpt>
      <trkpt lat="44.73543" lon="0.8439">
        <ele>118.376</ele>
        <time>2019-10-30T12:05:28Z</time>
      </trkpt>
      <trkpt lat="44.736" lon="0.8427">
        <ele>126.016</ele>
        <time>2019-10-30T12:05:08Z</time>
      </trkpt>
      <trkpt lat="44.73654" lon="0.84203">
        <ele>123.934</ele>
        <time>2019-10-30T12:04:48Z</time>
      </trkpt>
      <trkpt lat="44.73689" lon="0.84123">
        <ele>122.315</ele>
        <time>2019-10-30T12:04:28Z</time>
      </trkpt>
      <trkpt lat="44.73686" lon="0.84065">
        <ele>120.099</ele>
        <time>2019-10-30T12:04:08Z</time>
      </trkpt>
      <trkpt lat="44.73806" lon="0.84169">
        <ele>101.237</ele>
        <time>2019-10-30T12:03:48Z</time>
      </trkpt>
      <trkpt lat="44.73828" lon="0.84231">
        <ele>113.571</ele>
        <time>2019-10-30T12:03:28Z</time>
      </trkpt>
      <trkpt lat="44.73902" lon="0.84161">
        <ele>112.128</ele>
        <time>2019-10-30T12:03:08Z</time>
      </trkpt>
      <trkpt lat="44.74001" lon="0.84101">
        <ele>114.633</ele>
        <time>2019-10-30T12:02:48Z</time>
      </trkpt>
      <trkpt lat="44.74104" lon="0.83983">
        <ele>111.227</ele>
        <time>2019-10-30T12:02:28Z</time>
      </trkpt>
      <trkpt lat="44.74235" lon="0.8391">
        <ele>104.808</ele>
        <time>2019-10-30T12:02:08Z</time>
      </trkpt>
      <trkpt lat="44.74286" lon="0.83914">
        <ele>106.607</ele>
        <time>2019-10-30T12:01:48Z</time>
      </trkpt>
      <trkpt lat="44.74484" lon="0.8398">
        <ele>104.643</ele>
        <time>2019-10-30T12:01:28Z</time>
      </trkpt>
      <trkpt lat="44.74461" lon="0.84149">
        <ele>124.113</ele>
        <time>2019-10-30T12:01:08Z</time>
      </trkpt>
      <trkpt lat="44.74388" lon="0.84279">
        <ele>132.289</ele>
        <time>2019-10-30T12:00:48Z</time>
      </trkpt>
      <trkpt lat="44.74368" lon="0.84569">
        <ele>143.22</ele>
        <time>2019-10-30T12:00:28Z</time>
      </trkpt>
      <trkpt lat="44.74368" lon="0.84699">
        <ele>151.824</ele>
        <time>2019-10-30T12:00:08Z</time>
      </trkpt>
      <trkpt lat="44.74347" lon="0.84867">
        <ele>154.232</ele>
        <time>2019-10-30T11:59:48Z</time>
      </trkpt>
      <trkpt lat="44.74381" lon="0.85175">
        <ele>163.466</ele>
        <time>2019-10-30T11:59:28Z</time>
      </trkpt>
      <trkpt lat="44.74376" lon="0.85379">
        <ele>165.543</ele>
        <time>2019-10-30T11:59:08Z</time>
      </trkpt>
      <trkpt lat="44.74406" lon="0.85528">
        <ele>163.288</ele>
        <time>2019-10-30T11:58:48Z</time>
      </trkpt>
      <trkpt lat="44.74392" lon="0.85676">
        <ele>155.982</ele>
        <time>2019-10-30T11:58:28Z</time>
      </trkpt>
      <trkpt lat="44.7455" lon="0.8579">
        <ele>170.108</ele>
        <time>2019-10-30T11:58:08Z</time>
      </trkpt>
      <trkpt lat="44.74574" lon="0.8587">
        <ele>177.324</ele>
        <time>2019-10-30T11:57:48Z</time>
      </trkpt>
      <trkpt lat="44.74566" lon="0.85976">
        <ele>180.504</ele>
        <time>2019-10-30T11:57:28Z</time>
      </trkpt>
      <trkpt lat="44.74593" lon="0.85964">
        <ele>179.569</ele>
        <time>2019-10-30T11:57:08Z</time>
      </trkpt>
      <trkpt lat="44.74655" lon="0.86034">
        <ele>174.73</ele>
        <time>2019-10-30T11:56:48Z</time>
      </trkpt>
      <trkpt lat="44.74725" lon="0.8607">
        <ele>174.731</ele>
        <time>2019-10-30T11:56:28Z</time>
      </trkpt>
      <trkpt lat="44.74746" lon="0.86109">
        <ele>178.155</ele>
        <time>2019-10-30T11:56:08Z</time>
      </trkpt>
      <trkpt lat="44.74774" lon="0.86119">
        <ele>174.073</ele>
        <time>2019-10-30T11:55:48Z</time>
      </trkpt>
      <trkpt lat="44.748" lon="0.86239">
        <ele>173.877</ele>
        <time>2019-10-30T11:55:28Z</time>
      </trkpt>
      <trkpt lat="44.74787" lon="0.86341">
        <ele>172.944</ele>
        <time>2019-10-30T11:55:08Z</time>
      </trkpt>
      <trkpt lat="44.74808" lon="0.86411">
        <ele>168.499</ele>
        <time>2019-10-30T11:54:48Z</time>
      </trkpt>
      <trkpt lat="44.74874" lon="0.86478">
        <ele>155.863</ele>
        <time>2019-10-30T11:54:28Z</time>
      </trkpt>
      <trkpt lat="44.74842" lon="0.86561">
        <ele>157.508</ele>
        <time>2019-10-30T11:54:08Z</time>
      </trkpt>
      <trkpt lat="44.74955" lon="0.86618">
        <ele>145.114</ele>
        <time>2019-10-30T11:53:48Z</time>
      </trkpt>
      <trkpt lat="44.75033" lon="0.86629">
        <ele>136.113</ele>
        <time>2019-10-30T11:53:28Z</time>
      </trkpt>
      <trkpt lat="44.7508" lon="0.86646">
        <ele>130.772</ele>
        <time>2019-10-30T11:53:08Z</time>
      </trkpt>
      <trkpt lat="44.75175" lon="0.86712">
        <ele>115.485</ele>
        <time>2019-10-30T11:52:48Z</time>
      </trkpt>
      <trkpt lat="44.75172" lon="0.86781">
        <ele>109.776</ele>
        <time>2019-10-30T11:52:28Z</time>
      </trkpt>
      <trkpt lat="44.75232" lon="0.86828">
        <ele>107.45</ele>
        <time>2019-10-30T11:52:08Z</time>
      </trkpt>
      <trkpt lat="44.75291" lon="0.86886">
        <ele>106.818</ele>
        <time>2019-10-30T11:51:48Z</time>
      </trkpt>
      <trkpt lat="44.75352" lon="0.86903">
        <ele>115.262</ele>
        <time>2019-10-30T11:51:28Z</time>
      </trkpt>
      <trkpt lat="44.75297" lon="0.87112">
        <ele>114.259</ele>
        <time>2019-10-30T11:51:08Z</time>
      </trkpt>
      <trkpt lat="44.75297" lon="0.87236">
        <ele>116.074</ele>
        <time>2019-10-30T11:50:48Z</time>
      </trkpt>
      <trkpt lat="44.75333" lon="0.87387">
        <ele>117.158</ele>
        <time>2019-10-30T11:50:28Z</time>
      </trkpt>
      <trkpt lat="44.75397" lon="0.87533">
        <ele>116.708</ele>
        <time>2019-10-30T11:50:08Z</time>
      </trkpt>
      <trkpt lat="44.7549" lon="0.87664">
        <ele>112.411</ele>
        <time>2019-10-30T11:49:48Z</time>
      </trkpt>
      <trkpt lat="44.75513" lon="0.87716">
        <ele>117.183</ele>
        <time>2019-10-30T11:49:28Z</time>
      </trkpt>
      <trkpt lat="44.75373" lon="0.88108">
        <ele>113.923</ele>
        <time>2019-10-30T11:49:08Z</time>
      </trkpt>
      <trkpt lat="44.75319" lon="0.88194">
        <ele>114.647</ele>
        <time>2019-10-30T11:48:48Z</time>
      </trkpt>
      <trkpt lat="44.75352" lon="0.8829">
        <ele>113.868</ele>
        <time>2019-10-30T11:48:28Z</time>
      </trkpt>
      <trkpt lat="44.75382" lon="0.8834">
        <ele>115.242</ele>
        <time>2019-10-30T11:48:08Z</time>
      </trkpt>
      <trkpt lat="44.75427" lon="0.88429">
        <ele>118.78</ele>
        <time>2019-10-30T11:47:48Z</time>
      </trkpt>
      <trkpt lat="44.75439" lon="0.88662">
        <ele>130.954</ele>
        <time>2019-10-30T11:47:28Z</time>
      </trkpt>
      <trkpt lat="44.75419" lon="0.88721">
        <ele>137.571</ele>
        <time>2019-10-30T11:47:08Z</time>
      </trkpt>
      <trkpt lat="44.75453" lon="0.88817">
        <ele>143.256</ele>
        <time>2019-10-30T11:46:48Z</time>
      </trkpt>
      <trkpt lat="44.75471" lon="0.88911">
        <ele>152.58</ele>
        <time>2019-10-30T11:46:28Z</time>
      </trkpt>
      <trkpt lat="44.75536" lon="0.89072">
        <ele>152.308</ele>
        <time>2019-10-30T11:46:08Z</time>
      </trkpt>
      <trkpt lat="44.75545" lon="0.89165">
        <ele>153.109</ele>
        <time>2019-10-30T11:45:48Z</time>
      </trkpt>
      <trkpt lat="44.75499" lon="0.89339">
        <ele>163.081</ele>
        <time>2019-10-30T11:45:28Z</time>
      </trkpt>
      <trkpt lat="44.75486" lon="0.89457">
        <ele>165.741</ele>
        <time>2019-10-30T11:45:08Z</time>
      </trkpt>
      <trkpt lat="44.75509" lon="0.89517">
        <ele>167.51</ele>
        <time>2019-10-30T11:44:48Z</time>
      </trkpt>
      <trkpt lat="44.75518" lon="0.89579">
        <ele>168.381</ele>
        <time>2019-10-30T11:44:28Z</time>
      </trkpt>
      <trkpt lat="44.75547" lon="0.89638">
        <ele>169.885</ele>
        <time>2019-10-30T11:44:08Z</time>
      </trkpt>
      <trkpt lat="44.75545" lon="0.89716">
        <ele>172.373</ele>
        <time>2019-10-30T11:43:48Z</time>
      </trkpt>
      <trkpt lat="44.75574" lon="0.89763">
        <ele>179.827</ele>
        <time>2019-10-30T11:43:28Z</time>
      </trkpt>
      <trkpt lat="44.756" lon="0.89812">
        <ele>181.824</ele>
        <time>2019-10-30T11:43:08Z</time>
      </trkpt>
      <trkpt lat="44.75602" lon="0.89913">
        <ele>177.829</ele>
        <time>2019-10-30T11:42:48Z</time>
      </trkpt>
      <trkpt lat="44.75588" lon="0.90025">
        <ele>176.073</ele>
        <time>2019-10-30T11:42:28Z</time>
      </trkpt>
      <trkpt lat="44.75612" lon="0.90082">
        <ele>176.908</ele>
        <time>2019-10-30T11:42:08Z</time>
      </trkpt>
      <trkpt lat="44.75635" lon="0.90262">
        <ele>182.525</ele>
        <time>2019-10-30T11:41:48Z</time>
      </trkpt>
      <trkpt lat="44.7562" lon="0.9037">
        <ele>183.405</ele>
        <time>2019-10-30T11:41:28Z</time>
      </trkpt>
      <trkpt lat="44.75637" lon="0.90461">
        <ele>180.779</ele>
        <time>2019-10-30T11:41:08Z</time>
      </trkpt>
      <trkpt lat="44.75606" lon="0.90597">
        <ele>167.634</ele>
        <time>2019-10-30T11:40:48Z</time>
      </trkpt>
      <trkpt lat="44.75634" lon="0.90659">
        <ele>158.465</ele>
        <time>2019-10-30T11:40:28Z</time>
      </trkpt>
      <trkpt lat="44.75657" lon="0.9075">
        <ele>158.029</ele>
        <time>2019-10-30T11:40:08Z</time>
      </trkpt>
      <trkpt lat="44.75636" lon="0.90947">
        <ele>157.117</ele>
        <time>2019-10-30T11:39:48Z</time>
      </trkpt>
      <trkpt lat="44.75651" lon="0.91108">
        <ele>149.851</ele>
        <time>2019-10-30T11:39:28Z</time>
      </trkpt>
      <trkpt lat="44.75649" lon="0.91168">
        <ele>146.698</ele>
        <time>2019-10-30T11:39:08Z</time>
      </trkpt>
      <trkpt lat="44.75598" lon="0.91165">
        <ele>149.543</ele>
        <time>2019-10-30T11:38:48Z</time>
      </trkpt>
      <trkpt lat="44.75574" lon="0.91202">
        <ele>151.657</ele>
        <time>2019-10-30T11:38:28Z</time>
      </trkpt>
      <trkpt lat="44.75514" lon="0.91654">
        <ele>155.408</ele>
        <time>2019-10-30T11:38:08Z</time>
      </trkpt>
      <trkpt lat="44.7547" lon="0.91734">
        <ele>156.403</ele>
        <time>2019-10-30T11:37:48Z</time>
      </trkpt>
      <trkpt lat="44.75501" lon="0.91817">
        <ele>154.421</ele>
        <time>2019-10-30T11:37:28Z</time>
      </trkpt>
      <trkpt lat="44.75552" lon="0.91833">
        <ele>152.411</ele>
        <time>2019-10-30T11:37:08Z</time>
      </trkpt>
      <trkpt lat="44.75596" lon="0.91893">
        <ele>146.564</ele>
        <time>2019-10-30T11:36:48Z</time>
      </trkpt>
      <trkpt lat="44.75619" lon="0.91903">
        <ele>143.415</ele>
        <time>2019-10-30T11:36:28Z</time>
      </trkpt>
      <trkpt lat="44.75648" lon="0.91862">
        <ele>142.059</ele>
        <time>2019-10-30T11:36:08Z</time>
      </trkpt>
      <trkpt lat="44.7564" lon="0.92017">
        <ele>140.047</ele>
        <time>2019-10-30T11:35:48Z</time>
      </trkpt>
      <trkpt lat="44.75644" lon="0.9208">
        <ele>141.691</ele>
        <time>2019-10-30T11:35:28Z</time>
      </trkpt>
      <trkpt lat="44.75624" lon="0.92145">
        <ele>142.038</ele>
        <time>2019-10-30T11:35:08Z</time>
      </trkpt>
      <trkpt lat="44.75546" lon="0.92267">
        <ele>144.763</ele>
        <time>2019-10-30T11:34:48Z</time>
      </trkpt>
      <trkpt lat="44.75512" lon="0.92241">
        <ele>152.217</ele>
        <time>2019-10-30T11:34:28Z</time>
      </trkpt>
      <trkpt lat="44.75445" lon="0.92417">
        <ele>150.008</ele>
        <time>2019-10-30T11:34:08Z</time>
      </trkpt>
      <trkpt lat="44.75498" lon="0.92436">
        <ele>142.403</ele>
        <time>2019-10-30T11:33:48Z</time>
      </trkpt>
      <trkpt lat="44.75513" lon="0.92485">
        <ele>144.421</ele>
        <time>2019-10-30T11:33:28Z</time>
      </trkpt>
      <trkpt lat="44.75525" lon="0.9249">
        <ele>145.511</ele>
        <time>2019-10-30T11:33:08Z</time>
      </trkpt>
      <trkpt lat="44.75525" lon="0.92599">
        <ele>148.634</ele>
        <time>2019-10-30T11:32:48Z</time>
      </trkpt>
      <trkpt lat="44.75517" lon="0.9275">
        <ele>146.685</ele>
        <time>2019-10-30T11:32:28Z</time>
      </trkpt>
      <trkpt lat="44.75576" lon="0.92789">
        <ele>155.789</ele>
        <time>2019-10-30T11:32:08Z</time>
      </trkpt>
      <trkpt lat="44.75625" lon="0.92871">
        <ele>169.097</ele>
        <time>2019-10-30T11:31:48Z</time>
      </trkpt>
      <trkpt lat="44.75689" lon="0.92945">
        <ele>180.751</ele>
        <time>2019-10-30T11:31:28Z</time>
      </trkpt>
      <trkpt lat="44.75715" lon="0.93002">
        <ele>186.658</ele>
        <time>2019-10-30T11:31:08Z</time>
      </trkpt>
      <trkpt lat="44.75763" lon="0.93046">
        <ele>190.023</ele>
        <time>2019-10-30T11:30:48Z</time>
      </trkpt>
      <trkpt lat="44.75782" lon="0.9309">
        <ele>193.537</ele>
        <time>2019-10-30T11:30:28Z</time>
      </trkpt>
      <trkpt lat="44.75788" lon="0.93152">
        <ele>199.708</ele>
        <time>2019-10-30T11:30:08Z</time>
      </trkpt>
      <trkpt lat="44.75798" lon="0.93219">
        <ele>201.019</ele>
        <time>2019-10-30T11:29:48Z</time>
      </trkpt>
      <trkpt lat="44.75821" lon="0.93267">
        <ele>200.409</ele>
        <time>2019-10-30T11:29:28Z</time>
      </trkpt>
      <trkpt lat="44.75797" lon="0.93323">
        <ele>202.919</ele>
        <time>2019-10-30T11:29:08Z</time>
      </trkpt>
      <trkpt lat="44.75831" lon="0.93464">
        <ele>198.911</ele>
        <time>2019-10-30T11:28:48Z</time>
      </trkpt>
      <trkpt lat="44.75921" lon="0.93599">
        <ele>189.312</ele>
        <time>2019-10-30T11:28:28Z</time>
      </trkpt>
      <trkpt lat="44.75948" lon="0.93679">
        <ele>188.736</ele>
        <time>2019-10-30T11:28:08Z</time>
      </trkpt>
      <trkpt lat="44.76" lon="0.93791">
        <ele>194.424</ele>
        <time>2019-10-30T11:27:48Z</time>
      </trkpt>
      <trkpt lat="44.76002" lon="0.93828">
        <ele>198.568</ele>
        <time>2019-10-30T11:27:28Z</time>
      </trkpt>
      <trkpt lat="44.76076" lon="0.93877">
        <ele>197.535</ele>
        <time>2019-10-30T11:27:08Z</time>
      </trkpt>
      <trkpt lat="44.7615" lon="0.93807">
        <ele>196.96</ele>
        <time>2019-10-30T11:26:48Z</time>
      </trkpt>
      <trkpt lat="44.76257" lon="0.93646">
        <ele>188.114</ele>
        <time>2019-10-30T11:26:28Z</time>
      </trkpt>
      <trkpt lat="44.76293" lon="0.93617">
        <ele>186.708</ele>
        <time>2019-10-30T11:26:08Z</time>
      </trkpt>
      <trkpt lat="44.76481" lon="0.93736">
        <ele>204.317</ele>
        <time>2019-10-30T11:25:48Z</time>
      </trkpt>
      <trkpt lat="44.76525" lon="0.93801">
        <ele>203.889</ele>
        <time>2019-10-30T11:25:28Z</time>
      </trkpt>
      <trkpt lat="44.76602" lon="0.93854">
        <ele>205.685</ele>
        <time>2019-10-30T11:25:08Z</time>
      </trkpt>
      <trkpt lat="44.76671" lon="0.93926">
        <ele>205.84</ele>
        <time>2019-10-30T11:24:48Z</time>
      </trkpt>
      <trkpt lat="44.76693" lon="0.9397">
        <ele>207.011</ele>
        <time>2019-10-30T11:24:28Z</time>
      </trkpt>
      <trkpt lat="44.76697" lon="0.94028">
        <ele>207.075</ele>
        <time>2019-10-30T11:24:08Z</time>
      </trkpt>
      <trkpt lat="44.76709" lon="0.94061">
        <ele>207.213</ele>
        <time>2019-10-30T11:23:48Z</time>
      </trkpt>
      <trkpt lat="44.76729" lon="0.94043">
        <ele>206.777</ele>
        <time>2019-10-30T11:23:28Z</time>
      </trkpt>
      <trkpt lat="44.76769" lon="0.94032">
        <ele>208.674</ele>
        <time>2019-10-30T11:23:08Z</time>
      </trkpt>
      <trkpt lat="44.76822" lon="0.94058">
        <ele>210.819</ele>
        <time>2019-10-30T11:22:48Z</time>
      </trkpt>
      <trkpt lat="44.76957" lon="0.94067">
        <ele>223.093</ele>
        <time>2019-10-30T11:22:28Z</time>
      </trkpt>
      <trkpt lat="44.77038" lon="0.9405">
        <ele>221.608</ele>
        <time>2019-10-30T11:22:08Z</time>
      </trkpt>
      <trkpt lat="44.77173" lon="0.94058">
        <ele>223.127</ele>
        <time>2019-10-30T11:21:48Z</time>
      </trkpt>
      <trkpt lat="44.77321" lon="0.93947">
        <ele>228.461</ele>
        <time>2019-10-30T11:21:28Z</time>
      </trkpt>
      <trkpt lat="44.77398" lon="0.93933">
        <ele>230.877</ele>
        <time>2019-10-30T11:21:08Z</time>
      </trkpt>
      <trkpt lat="44.77605" lon="0.94211">
        <ele>231.861</ele>
        <time>2019-10-30T11:20:48Z</time>
      </trkpt>
      <trkpt lat="44.77365" lon="0.94861">
        <ele>242.962</ele>
        <time>2019-10-30T11:20:28Z</time>
      </trkpt>
      <trkpt lat="44.77315" lon="0.95268">
        <ele>237.336</ele>
        <time>2019-10-30T11:20:08Z</time>
      </trkpt>
      <trkpt lat="44.77308" lon="0.95539">
        <ele>237.234</ele>
        <time>2019-10-30T11:19:48Z</time>
      </trkpt>
      <trkpt lat="44.77256" lon="0.95681">
        <ele>236.838</ele>
        <time>2019-10-30T11:19:28Z</time>
      </trkpt>
      <trkpt lat="44.77186" lon="0.95946">
        <ele>214.915</ele>
        <time>2019-10-30T11:19:08Z</time>
      </trkpt>
      <trkpt lat="44.77148" lon="0.9606">
        <ele>200.05</ele>
        <time>2019-10-30T11:18:48Z</time>
      </trkpt>
      <trkpt lat="44.77123" lon="0.96208">
        <ele>183.374</ele>
        <time>2019-10-30T11:18:28Z</time>
      </trkpt>
      <trkpt lat="44.77103" lon="0.96251">
        <ele>180.708</ele>
        <time>2019-10-30T11:18:08Z</time>
      </trkpt>
      <trkpt lat="44.77076" lon="0.96373">
        <ele>174.917</ele>
        <time>2019-10-30T11:17:48Z</time>
      </trkpt>
      <trkpt lat="44.76985" lon="0.96647">
        <ele>159.561</ele>
        <time>2019-10-30T11:17:28Z</time>
      </trkpt>
      <trkpt lat="44.77001" lon="0.96752">
        <ele>158.081</ele>
        <time>2019-10-30T11:17:08Z</time>
      </trkpt>
      <trkpt lat="44.77032" lon="0.96801">
        <ele>158.895</ele>
        <time>2019-10-30T11:16:48Z</time>
      </trkpt>
      <trkpt lat="44.77058" lon="0.96878">
        <ele>154.696</ele>
        <time>2019-10-30T11:16:28Z</time>
      </trkpt>
      <trkpt lat="44.771" lon="0.9693">
        <ele>154.51</ele>
        <time>2019-10-30T11:16:08Z</time>
      </trkpt>
      <trkpt lat="44.77088" lon="0.97022">
        <ele>149.538</ele>
        <time>2019-10-30T11:15:48Z</time>
      </trkpt>
      <trkpt lat="44.77141" lon="0.97169">
        <ele>151.372</ele>
        <time>2019-10-30T11:15:28Z</time>
      </trkpt>
      <trkpt lat="44.7715" lon="0.97221">
        <ele>149.359</ele>
        <time>2019-10-30T11:15:08Z</time>
      </trkpt>
      <trkpt lat="44.77151" lon="0.97278">
        <ele>150.914</ele>
        <time>2019-10-30T11:14:48Z</time>
      </trkpt>
      <trkpt lat="44.77133" lon="0.97336">
        <ele>151.938</ele>
        <time>2019-10-30T11:14:28Z</time>
      </trkpt>
      <trkpt lat="44.77075" lon="0.97435">
        <ele>145.408</ele>
        <time>2019-10-30T11:14:08Z</time>
      </trkpt>
      <trkpt lat="44.77053" lon="0.97502">
        <ele>142.311</ele>
        <time>2019-10-30T11:13:48Z</time>
      </trkpt>
      <trkpt lat="44.77055" lon="0.976">
        <ele>139.847</ele>
        <time>2019-10-30T11:13:28Z</time>
      </trkpt>
      <trkpt lat="44.77044" lon="0.97647">
        <ele>132.026</ele>
        <time>2019-10-30T11:13:08Z</time>
      </trkpt>
      <trkpt lat="44.77045" lon="0.97689">
        <ele>130.367</ele>
        <time>2019-10-30T11:12:48Z</time>
      </trkpt>
      <trkpt lat="44.77092" lon="0.97774">
        <ele>134.418</ele>
        <time>2019-10-30T11:12:28Z</time>
      </trkpt>
      <trkpt lat="44.77106" lon="0.97803">
        <ele>134.812</ele>
        <time>2019-10-30T11:12:08Z</time>
      </trkpt>
      <trkpt lat="44.77107" lon="0.97827">
        <ele>136.17</ele>
        <time>2020-12-26T03:30:15Z</time>
      </trkpt>
      <trkpt lat="44.77056" lon="0.97881">
        <ele>141.054</ele>
        <time>2020-12-26T03:29:55Z</time>
      </trkpt>
      <trkpt lat="44.7706" lon="0.97932">
        <ele>141.461</ele>
        <time>2020-12-26T03:29:35Z</time>
      </trkpt>
      <trkpt lat="44.77085" lon="0.97954">
        <ele>142.566</ele>
        <time>2020-12-26T03:29:15Z</time>
      </trkpt>
      <trkpt lat="44.77181" lon="0.97963">
        <ele>143.78</ele>
        <time>2020-12-26T03:28:55Z</time>
      </trkpt>
      <trkpt lat="44.77199" lon="0.97977">
        <ele>143.408</ele>
        <time>2020-12-26T03:28:35Z</time>
      </trkpt>
      <trkpt lat="44.77181" lon="0.98058">
        <ele>151.117</ele>
        <time>2020-12-26T03:28:15Z</time>
      </trkpt>
      <trkpt lat="44.77188" lon="0.98213">
        <ele>155.361</ele>
        <time>2019-10-30T11:09:48Z</time>
      </trkpt>
      <trkpt lat="44.77196" lon="0.98247">
        <ele>157.848</ele>
        <time>2019-10-30T11:09:28Z</time>
      </trkpt>
      <trkpt lat="44.77285" lon="0.98289">
        <ele>164.165</ele>
        <time>2019-10-30T11:09:08Z</time>
      </trkpt>
      <trkpt lat="44.77329" lon="0.9824">
        <ele>170.946</ele>
        <time>2019-10-30T11:08:48Z</time>
      </trkpt>
      <trkpt lat="44.77357" lon="0.9824">
        <ele>173.01</ele>
        <time>2019-10-30T11:08:28Z</time>
      </trkpt>
      <trkpt lat="44.77388" lon="0.98278">
        <ele>175.098</ele>
        <time>2019-10-30T11:08:08Z</time>
      </trkpt>
      <trkpt lat="44.77398" lon="0.98323">
        <ele>176.242</ele>
        <time>2019-10-30T11:07:48Z</time>
      </trkpt>
      <trkpt lat="44.77396" lon="0.98466">
        <ele>183.829</ele>
        <time>2019-10-30T11:07:28Z</time>
      </trkpt>
      <trkpt lat="44.77382" lon="0.98561">
        <ele>184.844</ele>
        <time>2019-10-30T11:07:08Z</time>
      </trkpt>
      <trkpt lat="44.77382" lon="0.98627">
        <ele>185.658</ele>
        <time>2019-10-30T11:06:48Z</time>
      </trkpt>
      <trkpt lat="44.77375" lon="0.9874">
        <ele>188.908</ele>
        <time>2019-10-30T11:06:28Z</time>
      </trkpt>
      <trkpt lat="44.77389" lon="0.98847">
        <ele>194.014</ele>
        <time>2019-10-30T11:06:08Z</time>
      </trkpt>
      <trkpt lat="44.77447" lon="0.98855">
        <ele>192.368</ele>
        <time>2019-10-30T11:05:48Z</time>
      </trkpt>
      <trkpt lat="44.77522" lon="0.98822">
        <ele>185.127</ele>
        <time>2019-10-30T11:05:28Z</time>
      </trkpt>
      <trkpt lat="44.77552" lon="0.98831">
        <ele>184.03</ele>
        <time>2019-10-30T11:05:08Z</time>
      </trkpt>
      <trkpt lat="44.7759" lon="0.98905">
        <ele>187.071</ele>
        <time>2019-10-30T11:04:48Z</time>
      </trkpt>
      <trkpt lat="44.77639" lon="0.98977">
        <ele>188.515</ele>
        <time>2019-10-30T11:04:28Z</time>
      </trkpt>
      <trkpt lat="44.77656" lon="0.99031">
        <ele>196.553</ele>
        <time>2019-10-30T11:04:08Z</time>
      </trkpt>
      <trkpt lat="44.77682" lon="0.99055">
        <ele>201.697</ele>
        <time>2019-10-30T11:03:48Z</time>
      </trkpt>
      <trkpt lat="44.77756" lon="0.99024">
        <ele>206.114</ele>
        <time>2019-10-30T11:03:28Z</time>
      </trkpt>
      <trkpt lat="44.77795" lon="0.99187">
        <ele>206.349</ele>
        <time>2019-10-30T11:03:08Z</time>
      </trkpt>
      <trkpt lat="44.77776" lon="0.99281">
        <ele>202.123</ele>
        <time>2019-10-30T11:02:48Z</time>
      </trkpt>
      <trkpt lat="44.77791" lon="0.99341">
        <ele>199.208</ele>
        <time>2019-10-30T11:02:28Z</time>
      </trkpt>
      <trkpt lat="44.77747" lon="0.9941">
        <ele>197.313</ele>
        <time>2019-10-30T11:02:08Z</time>
      </trkpt>
      <trkpt lat="44.77768" lon="0.99489">
        <ele>193.285</ele>
        <time>2019-10-30T11:01:48Z</time>
      </trkpt>
      <trkpt lat="44.77766" lon="0.99572">
        <ele>189.673</ele>
        <time>2019-10-30T11:01:28Z</time>
      </trkpt>
      <trkpt lat="44.77749" lon="0.9965">
        <ele>191.445</ele>
        <time>2019-10-30T11:01:08Z</time>
      </trkpt>
      <trkpt lat="44.77791" lon="0.99697">
        <ele>193.086</ele>
        <time>2019-10-30T11:00:48Z</time>
      </trkpt>
      <trkpt lat="44.77822" lon="0.99767">
        <ele>193.68</ele>
        <time>2019-10-30T11:00:28Z</time>
      </trkpt>
      <trkpt lat="44.77824" lon="0.99818">
        <ele>194.068</ele>
        <time>2019-10-30T11:00:08Z</time>
      </trkpt>
      <trkpt lat="44.77892" lon="0.99844">
        <ele>192.722</ele>
        <time>2019-10-30T10:59:48Z</time>
      </trkpt>
      <trkpt lat="44.77944" lon="0.99878">
        <ele>188.749</ele>
        <time>2019-10-30T10:59:28Z</time>
      </trkpt>
      <trkpt lat="44.77966" lon="0.99917">
        <ele>187.784</ele>
        <time>2019-10-30T10:59:08Z</time>
      </trkpt>
      <trkpt lat="44.77964" lon="0.99998">
        <ele>189.398</ele>
        <time>2019-10-30T10:58:48Z</time>
      </trkpt>
      <trkpt lat="44.78025" lon="1.00073">
        <ele>192.608</ele>
        <time>2019-10-30T10:58:28Z</time>
      </trkpt>
      <trkpt lat="44.78103" lon="1.00128">
        <ele>193.105</ele>
        <time>2019-10-30T10:58:08Z</time>
      </trkpt>
      <trkpt lat="44.78143" lon="1.00177">
        <ele>191.541</ele>
        <time>2019-10-30T10:57:48Z</time>
      </trkpt>
      <trkpt lat="44.78176" lon="1.0025">
        <ele>191.021</ele>
        <time>2019-10-30T10:57:28Z</time>
      </trkpt>
      <trkpt lat="44.78078" lon="1.00325">
        <ele>186.527</ele>
        <time>2019-10-30T10:57:08Z</time>
      </trkpt>
      <trkpt lat="44.78106" lon="1.00405">
        <ele>184.578</ele>
        <time>2019-10-30T10:56:48Z</time>
      </trkpt>
      <trkpt lat="44.78135" lon="1.00501">
        <ele>184.762</ele>
        <time>2019-10-30T10:56:28Z</time>
      </trkpt>
      <trkpt lat="44.78136" lon="1.00523">
        <ele>184.77</ele>
        <time>2019-10-30T10:56:08Z</time>
      </trkpt>
      <trkpt lat="44.78204" lon="1.00554">
        <ele>181.574</ele>
        <time>2019-10-30T10:55:48Z</time>
      </trkpt>
      <trkpt lat="44.78234" lon="1.0058">
        <ele>180.681</ele>
        <time>2019-10-30T10:55:28Z</time>
      </trkpt>
      <trkpt lat="44.78257" lon="1.00649">
        <ele>177.966</ele>
        <time>2019-10-30T10:55:08Z</time>
      </trkpt>
      <trkpt lat="44.78287" lon="1.0072">
        <ele>176.59</ele>
        <time>2019-10-30T10:54:48Z</time>
      </trkpt>
      <trkpt lat="44.78285" lon="1.00756">
        <ele>172.808</ele>
        <time>2019-10-30T10:54:28Z</time>
      </trkpt>
      <trkpt lat="44.78295" lon="1.00888">
        <ele>164.516</ele>
        <time>2019-10-30T10:54:08Z</time>
      </trkpt>
      <trkpt lat="44.78282" lon="1.00914">
        <ele>161.088</ele>
        <time>2019-10-30T10:53:48Z</time>
      </trkpt>
      <trkpt lat="44.78375" lon="1.00902">
        <ele>153.146</ele>
        <time>2019-10-30T10:53:28Z</time>
      </trkpt>
      <trkpt lat="44.78429" lon="1.00906">
        <ele>145.615</ele>
        <time>2019-10-30T10:53:08Z</time>
      </trkpt>
      <trkpt lat="44.78525" lon="1.00951">
        <ele>118.856</ele>
        <time>2019-10-30T10:52:48Z</time>
      </trkpt>
      <trkpt lat="44.78612" lon="1.01016">
        <ele>100.21</ele>
        <time>2019-10-30T10:52:28Z</time>
      </trkpt>
      <trkpt lat="44.78648" lon="1.00995">
        <ele>102.158</ele>
        <time>2019-10-30T10:52:08Z</time>
      </trkpt>
      <trkpt lat="44.78663" lon="1.01011">
        <ele>100.342</ele>
        <time>2019-10-30T10:51:48Z</time>
      </trkpt>
      <trkpt lat="44.78657" lon="1.0105">
        <ele>94.299</ele>
        <time>2019-10-30T10:51:28Z</time>
      </trkpt>
      <trkpt lat="44.78631" lon="1.01073">
        <ele>91.864</ele>
        <time>2019-10-30T10:51:08Z</time>
      </trkpt>
      <trkpt lat="44.78645" lon="1.01141">
        <ele>88.248</ele>
        <time>2019-10-30T10:50:48Z</time>
      </trkpt>
      <trkpt lat="44.78693" lon="1.01141">
        <ele>86.008</ele>
        <time>2019-10-30T10:50:28Z</time>
      </trkpt>
      <trkpt lat="44.78721" lon="1.01228">
        <ele>82.908</ele>
        <time>2019-10-30T10:50:08Z</time>
      </trkpt>
      <trkpt lat="44.78735" lon="1.01285">
        <ele>80.562</ele>
        <time>2019-10-30T10:49:48Z</time>
      </trkpt>
      <trkpt lat="44.78749" lon="1.01291">
        <ele>80.022</ele>
        <time>2019-10-30T10:49:28Z</time>
      </trkpt>
      <trkpt lat="44.78767" lon="1.01346">
        <ele>79.717</ele>
        <time>2019-10-30T10:49:08Z</time>
      </trkpt>
      <trkpt lat="44.78782" lon="1.01387">
        <ele>80.068</ele>
        <time>2019-10-30T10:48:48Z</time>
      </trkpt>
      <trkpt lat="44.78786" lon="1.01419">
        <ele>81.142</ele>
        <time>2019-10-30T10:48:28Z</time>
      </trkpt>
      <trkpt lat="44.78779" lon="1.01465">
        <ele>83.59</ele>
        <time>2019-10-30T10:48:08Z</time>
      </trkpt>
      <trkpt lat="44.78903" lon="1.01449">
        <ele>82.744</ele>
        <time>2019-10-30T10:47:48Z</time>
      </trkpt>
      <trkpt lat="44.78984" lon="1.01445">
        <ele>83.151</ele>
        <time>2019-10-30T10:47:28Z</time>
      </trkpt>
      <trkpt lat="44.79044" lon="1.0141">
        <ele>83.656</ele>
        <time>2019-10-30T10:47:08Z</time>
      </trkpt>
      <trkpt lat="44.79243" lon="1.01353">
        <ele>86.48</ele>
        <time>2019-10-30T10:46:48Z</time>
      </trkpt>
      <trkpt lat="44.79305" lon="1.01341">
        <ele>81.908</ele>
        <time>2019-10-30T10:46:28Z</time>
      </trkpt>
      <trkpt lat="44.79343" lon="1.01291">
        <ele>83.815</ele>
        <time>2019-10-30T10:46:08Z</time>
      </trkpt>
      <trkpt lat="44.79465" lon="1.01228">
        <ele>88.405</ele>
        <time>2019-10-30T10:45:48Z</time>
      </trkpt>
      <trkpt lat="44.79537" lon="1.01237">
        <ele>103.344</ele>
        <time>2019-10-30T10:45:28Z</time>
      </trkpt>
      <trkpt lat="44.79566" lon="1.01268">
        <ele>113.516</ele>
        <time>2019-10-30T10:45:08Z</time>
      </trkpt>
      <trkpt lat="44.79597" lon="1.01241">
        <ele>114.237</ele>
        <time>2019-10-30T10:44:48Z</time>
      </trkpt>
      <trkpt lat="44.79621" lon="1.01286">
        <ele>126.471</ele>
        <time>2019-10-30T10:44:28Z</time>
      </trkpt>
      <trkpt lat="44.79703" lon="1.01302">
        <ele>140.639</ele>
        <time>2019-10-30T10:44:08Z</time>
      </trkpt>
      <trkpt lat="44.79825" lon="1.01304">
        <ele>151.063</ele>
        <time>2019-10-30T10:43:48Z</time>
      </trkpt>
      <trkpt lat="44.7991" lon="1.01314">
        <ele>150.25</ele>
        <time>2019-10-30T10:43:28Z</time>
      </trkpt>
      <trkpt lat="44.7996" lon="1.01377">
        <ele>157.665</ele>
        <time>2019-10-30T10:43:08Z</time>
      </trkpt>
      <trkpt lat="44.80011" lon="1.01351">
        <ele>156.739</ele>
        <time>2019-10-30T10:42:48Z</time>
      </trkpt>
      <trkpt lat="44.80032" lon="1.01403">
        <ele>154.908</ele>
        <time>2019-10-30T10:42:28Z</time>
      </trkpt>
      <trkpt lat="44.80124" lon="1.01537">
        <ele>140.71</ele>
        <time>2019-10-30T10:42:08Z</time>
      </trkpt>
      <trkpt lat="44.80252" lon="1.01483">
        <ele>132.255</ele>
        <time>2019-10-30T10:41:48Z</time>
      </trkpt>
      <trkpt lat="44.80289" lon="1.01481">
        <ele>130.534</ele>
        <time>2019-10-30T10:41:28Z</time>
      </trkpt>
      <trkpt lat="44.80339" lon="1.01447">
        <ele>124.381</ele>
        <time>2019-10-30T10:41:08Z</time>
      </trkpt>
      <trkpt lat="44.80346" lon="1.0147">
        <ele>122.882</ele>
        <time>2019-10-30T10:40:48Z</time>
      </trkpt>
      <trkpt lat="44.80319" lon="1.01533">
        <ele>120.676</ele>
        <time>2019-10-30T10:40:28Z</time>
      </trkpt>
      <trkpt lat="44.80205" lon="1.01745">
        <ele>98.164</ele>
        <time>2019-10-30T10:40:08Z</time>
      </trkpt>
      <trkpt lat="44.80168" lon="1.01792">
        <ele>96.228</ele>
        <time>2019-10-30T10:39:48Z</time>
      </trkpt>
      <trkpt lat="44.80202" lon="1.01797">
        <ele>88.455</ele>
        <time>2019-10-30T10:39:28Z</time>
      </trkpt>
      <trkpt lat="44.8022" lon="1.01849">
        <ele>81.12</ele>
        <time>2019-10-30T10:39:08Z</time>
      </trkpt>
      <trkpt lat="44.8031" lon="1.01981">
        <ele>83.994</ele>
        <time>2019-10-30T10:38:48Z</time>
      </trkpt>
      <trkpt lat="44.80338" lon="1.01951">
        <ele>85.008</ele>
        <time>2019-10-30T10:38:28Z</time>
      </trkpt>
      <trkpt lat="44.80373" lon="1.02029">
        <ele>92.726</ele>
        <time>2019-10-30T10:38:08Z</time>
      </trkpt>
      <trkpt lat="44.8038" lon="1.02081">
        <ele>96.96</ele>
        <time>2019-10-30T10:37:48Z</time>
      </trkpt>
      <trkpt lat="44.80399" lon="1.02086">
        <ele>99.986</ele>
        <time>2019-10-30T10:37:28Z</time>
      </trkpt>
      <trkpt lat="44.80392" lon="1.02197">
        <ele>102.995</ele>
        <time>2019-10-30T10:37:08Z</time>
      </trkpt>
      <trkpt lat="44.80412" lon="1.02324">
        <ele>111.456</ele>
        <time>2019-10-30T10:36:48Z</time>
      </trkpt>
      <trkpt lat="44.804" lon="1.02408">
        <ele>111.54</ele>
        <time>2019-10-30T10:36:28Z</time>
      </trkpt>
      <trkpt lat="44.80386" lon="1.02462">
        <ele>114.328</ele>
        <time>2019-10-30T10:36:08Z</time>
      </trkpt>
      <trkpt lat="44.80334" lon="1.02553">
        <ele>125.582</ele>
        <time>2019-10-30T10:35:48Z</time>
      </trkpt>
      <trkpt lat="44.80303" lon="1.02828">
        <ele>154.559</ele>
        <time>2019-10-30T10:35:28Z</time>
      </trkpt>
      <trkpt lat="44.80309" lon="1.02864">
        <ele>157.334</ele>
        <time>2019-10-30T10:35:08Z</time>
      </trkpt>
      <trkpt lat="44.80338" lon="1.02867">
        <ele>158.748</ele>
        <time>2019-10-30T10:34:48Z</time>
      </trkpt>
      <trkpt lat="44.80423" lon="1.03018">
        <ele>184.008</ele>
        <time>2019-10-30T10:34:28Z</time>
      </trkpt>
      <trkpt lat="44.80495" lon="1.03088">
        <ele>194.308</ele>
        <time>2019-10-30T10:34:08Z</time>
      </trkpt>
      <trkpt lat="44.80536" lon="1.03107">
        <ele>202.462</ele>
        <time>2019-10-30T10:33:48Z</time>
      </trkpt>
      <trkpt lat="44.80573" lon="1.03098">
        <ele>203.422</ele>
        <time>2019-10-30T10:33:28Z</time>
      </trkpt>
      <trkpt lat="44.80605" lon="1.03114">
        <ele>211.092</ele>
        <time>2019-10-30T10:33:08Z</time>
      </trkpt>
      <trkpt lat="44.80672" lon="1.03111">
        <ele>216.483</ele>
        <time>2019-10-30T10:32:48Z</time>
      </trkpt>
      <trkpt lat="44.80706" lon="1.03002">
        <ele>213.817</ele>
        <time>2019-10-30T10:32:28Z</time>
      </trkpt>
      <trkpt lat="44.8076" lon="1.02877">
        <ele>214.945</ele>
        <time>2019-10-30T10:32:08Z</time>
      </trkpt>
      <trkpt lat="44.8077" lon="1.02703">
        <ele>218.349</ele>
        <time>2019-10-30T10:31:48Z</time>
      </trkpt>
      <trkpt lat="44.80849" lon="1.02455">
        <ele>198.766</ele>
        <time>2019-10-30T10:31:28Z</time>
      </trkpt>
      <trkpt lat="44.80852" lon="1.0261">
        <ele>204.011</ele>
        <time>2019-10-30T10:31:08Z</time>
      </trkpt>
      <trkpt lat="44.80826" lon="1.02769">
        <ele>200.755</ele>
        <time>2019-10-30T10:30:48Z</time>
      </trkpt>
      <trkpt lat="44.80844" lon="1.02798">
        <ele>198.708</ele>
        <time>2019-10-30T10:30:28Z</time>
      </trkpt>
      <trkpt lat="44.80896" lon="1.02844">
        <ele>190.924</ele>
        <time>2019-10-30T10:30:08Z</time>
      </trkpt>
      <trkpt lat="44.80986" lon="1.0288">
        <ele>176.731</ele>
        <time>2019-10-30T10:29:48Z</time>
      </trkpt>
      <trkpt lat="44.8099" lon="1.02989">
        <ele>169.996</ele>
        <time>2019-10-30T10:29:28Z</time>
      </trkpt>
      <trkpt lat="44.80957" lon="1.03013">
        <ele>171.889</ele>
        <time>2019-10-30T10:29:08Z</time>
      </trkpt>
      <trkpt lat="44.80956" lon="1.03051">
        <ele>165.09</ele>
        <time>2019-10-30T10:28:48Z</time>
      </trkpt>
      <trkpt lat="44.81005" lon="1.03057">
        <ele>153.234</ele>
        <time>2019-10-30T10:28:28Z</time>
      </trkpt>
      <trkpt lat="44.81038" lon="1.03054">
        <ele>149.552</ele>
        <time>2019-10-30T10:28:08Z</time>
      </trkpt>
      <trkpt lat="44.81202" lon="1.03075">
        <ele>136.426</ele>
        <time>2019-10-30T10:27:48Z</time>
      </trkpt>
      <trkpt lat="44.81293" lon="1.03064">
        <ele>127.333</ele>
        <time>2019-10-30T10:27:28Z</time>
      </trkpt>
      <trkpt lat="44.81354" lon="1.03088">
        <ele>120.628</ele>
        <time>2019-10-30T10:27:08Z</time>
      </trkpt>
      <trkpt lat="44.81399" lon="1.0313">
        <ele>126.552</ele>
        <time>2019-10-30T10:26:48Z</time>
      </trkpt>
      <trkpt lat="44.81365" lon="1.032">
        <ele>133.308</ele>
        <time>2019-10-30T10:26:28Z</time>
      </trkpt>
      <trkpt lat="44.81401" lon="1.03166">
        <ele>134.024</ele>
        <time>2019-10-30T10:26:08Z</time>
      </trkpt>
      <trkpt lat="44.81449" lon="1.03072">
        <ele>127.204</ele>
        <time>2019-10-30T10:25:48Z</time>
      </trkpt>
      <trkpt lat="44.81476" lon="1.03026">
        <ele>126.969</ele>
        <time>2019-10-30T10:25:28Z</time>
      </trkpt>
      <trkpt lat="44.81505" lon="1.03062">
        <ele>135.052</ele>
        <time>2019-10-30T10:25:08Z</time>
      </trkpt>
      <trkpt lat="44.81521" lon="1.03064">
        <ele>138.513</ele>
        <time>2019-10-30T10:24:48Z</time>
      </trkpt>
      <trkpt lat="44.81589" lon="1.0312">
        <ele>156.697</ele>
        <time>2019-10-30T10:24:28Z</time>
      </trkpt>
      <trkpt lat="44.81555" lon="1.03158">
        <ele>161.455</ele>
        <time>2019-10-30T10:24:08Z</time>
      </trkpt>
      <trkpt lat="44.81512" lon="1.03174">
        <ele>162.829</ele>
        <time>2019-10-30T10:23:48Z</time>
      </trkpt>
      <trkpt lat="44.81493" lon="1.03213">
        <ele>171.546</ele>
        <time>2019-10-30T10:23:28Z</time>
      </trkpt>
      <trkpt lat="44.81463" lon="1.03234">
        <ele>168.881</ele>
        <time>2019-10-30T10:23:08Z</time>
      </trkpt>
      <trkpt lat="44.81456" lon="1.03275">
        <ele>176.355</ele>
        <time>2019-10-30T10:22:48Z</time>
      </trkpt>
      <trkpt lat="44.81528" lon="1.03246">
        <ele>180.208</ele>
        <time>2019-10-30T10:22:28Z</time>
      </trkpt>
      <trkpt lat="44.81564" lon="1.03291">
        <ele>186.726</ele>
        <time>2019-10-30T10:22:08Z</time>
      </trkpt>
      <trkpt lat="44.81586" lon="1.0335">
        <ele>195.315</ele>
        <time>2019-10-30T10:21:48Z</time>
      </trkpt>
      <trkpt lat="44.81631" lon="1.03353">
        <ele>197.498</ele>
        <time>2019-10-30T10:21:28Z</time>
      </trkpt>
      <trkpt lat="44.81676" lon="1.03369">
        <ele>206.785</ele>
        <time>2019-10-30T10:21:08Z</time>
      </trkpt>
      <trkpt lat="44.81698" lon="1.03438">
        <ele>210.486</ele>
        <time>2019-10-30T10:20:48Z</time>
      </trkpt>
      <trkpt lat="44.81633" lon="1.03537">
        <ele>207.06</ele>
        <time>2019-10-30T10:20:28Z</time>
      </trkpt>
      <trkpt lat="44.81611" lon="1.03608">
        <ele>216.798</ele>
        <time>2019-10-30T10:20:08Z</time>
      </trkpt>
      <trkpt lat="44.81599" lon="1.03732">
        <ele>221.752</ele>
        <time>2019-10-30T10:19:48Z</time>
      </trkpt>
      <trkpt lat="44.81613" lon="1.03916">
        <ele>219.999</ele>
        <time>2019-10-30T10:19:28Z</time>
      </trkpt>
      <trkpt lat="44.81617" lon="1.04132">
        <ele>223.724</ele>
        <time>2019-10-30T10:19:08Z</time>
      </trkpt>
      <trkpt lat="44.81613" lon="1.04312">
        <ele>231.448</ele>
        <time>2019-10-30T10:18:48Z</time>
      </trkpt>
      <trkpt lat="44.81621" lon="1.0447">
        <ele>236.208</ele>
        <time>2019-10-30T10:18:28Z</time>
      </trkpt>
      <trkpt lat="44.81601" lon="1.04582">
        <ele>240.211</ele>
        <time>2019-10-30T10:18:08Z</time>
      </trkpt>
      <trkpt lat="44.81569" lon="1.04672">
        <ele>249.183</ele>
        <time>2019-10-30T10:17:48Z</time>
      </trkpt>
      <trkpt lat="44.81523" lon="1.0469">
        <ele>249.823</ele>
        <time>2019-10-30T10:17:28Z</time>
      </trkpt>
      <trkpt lat="44.81532" lon="1.04727">
        <ele>252.39</ele>
        <time>2019-10-30T10:17:08Z</time>
      </trkpt>
      <trkpt lat="44.81496" lon="1.04865">
        <ele>258.921</ele>
        <time>2019-10-30T10:16:48Z</time>
      </trkpt>
      <trkpt lat="44.81509" lon="1.04929">
        <ele>257.695</ele>
        <time>2019-10-30T10:16:28Z</time>
      </trkpt>
      <trkpt lat="44.81498" lon="1.05043">
        <ele>258.243</ele>
        <time>2019-10-30T10:16:08Z</time>
      </trkpt>
      <trkpt lat="44.81529" lon="1.05165">
        <ele>248.787</ele>
        <time>2019-10-30T10:15:48Z</time>
      </trkpt>
      <trkpt lat="44.81533" lon="1.05215">
        <ele>247.234</ele>
        <time>2019-10-30T10:15:28Z</time>
      </trkpt>
      <trkpt lat="44.81651" lon="1.05298">
        <ele>249.039</ele>
        <time>2019-10-30T10:15:08Z</time>
      </trkpt>
      <trkpt lat="44.81791" lon="1.05378">
        <ele>229.743</ele>
        <time>2019-10-30T10:14:48Z</time>
      </trkpt>
      <trkpt lat="44.81896" lon="1.05457">
        <ele>209.108</ele>
        <time>2019-10-30T10:14:28Z</time>
      </trkpt>
      <trkpt lat="44.82014" lon="1.05435">
        <ele>202.619</ele>
        <time>2019-10-30T10:14:08Z</time>
      </trkpt>
      <trkpt lat="44.82067" lon="1.0529">
        <ele>188.19</ele>
        <time>2019-10-30T10:13:48Z</time>
      </trkpt>
      <trkpt lat="44.821" lon="1.05239">
        <ele>183.276</ele>
        <time>2019-10-30T10:13:28Z</time>
      </trkpt>
      <trkpt lat="44.8238" lon="1.05005">
        <ele>157.486</ele>
        <time>2019-10-30T10:13:08Z</time>
      </trkpt>
      <trkpt lat="44.82365" lon="1.05065">
        <ele>161.447</ele>
        <time>2019-10-30T10:12:48Z</time>
      </trkpt>
      <trkpt lat="44.8232" lon="1.05129">
        <ele>165.841</ele>
        <time>2019-10-30T10:12:28Z</time>
      </trkpt>
      <trkpt lat="44.82174" lon="1.0527">
        <ele>171.469</ele>
        <time>2019-10-30T10:12:08Z</time>
      </trkpt>
      <trkpt lat="44.82154" lon="1.05329">
        <ele>172.953</ele>
        <time>2019-10-30T10:11:48Z</time>
      </trkpt>
      <trkpt lat="44.82214" lon="1.05548">
        <ele>176.78</ele>
        <time>2019-10-30T10:11:28Z</time>
      </trkpt>
      <trkpt lat="44.82292" lon="1.05633">
        <ele>180.225</ele>
        <time>2019-10-30T10:11:08Z</time>
      </trkpt>
      <trkpt lat="44.82307" lon="1.05659">
        <ele>179.399</ele>
        <time>2019-10-30T10:10:48Z</time>
      </trkpt>
      <trkpt lat="44.82338" lon="1.05696">
        <ele>179.208</ele>
        <time>2019-10-30T10:10:28Z</time>
      </trkpt>
      <trkpt lat="44.82369" lon="1.05804">
        <ele>185.714</ele>
        <time>2019-10-30T10:10:08Z</time>
      </trkpt>
      <trkpt lat="44.82399" lon="1.05833">
        <ele>187.486</ele>
        <time>2019-10-30T10:09:48Z</time>
      </trkpt>
      <trkpt lat="44.82415" lon="1.05869">
        <ele>185.835</ele>
        <time>2019-10-30T10:09:28Z</time>
      </trkpt>
      <trkpt lat="44.82438" lon="1.0589">
        <ele>185.822</ele>
        <time>2019-10-30T10:09:08Z</time>
      </trkpt>
      <trkpt lat="44.82458" lon="1.0595">
        <ele>188.053</ele>
        <time>2019-10-30T10:08:48Z</time>
      </trkpt>
      <trkpt lat="44.82445" lon="1.05996">
        <ele>187.817</ele>
        <time>2019-10-30T10:08:28Z</time>
      </trkpt>
      <trkpt lat="44.82448" lon="1.06173">
        <ele>194.085</ele>
        <time>2019-10-30T10:08:08Z</time>
      </trkpt>
      <trkpt lat="44.82515" lon="1.06181">
        <ele>193.079</ele>
        <time>2019-10-30T10:07:48Z</time>
      </trkpt>
      <trkpt lat="44.82561" lon="1.06204">
        <ele>194.566</ele>
        <time>2019-10-30T10:07:28Z</time>
      </trkpt>
      <trkpt lat="44.82539" lon="1.06249">
        <ele>194.671</ele>
        <time>2019-10-30T10:07:08Z</time>
      </trkpt>
      <trkpt lat="44.82496" lon="1.0629">
        <ele>198.875</ele>
        <time>2019-10-30T10:06:48Z</time>
      </trkpt>
      <trkpt lat="44.8245" lon="1.06394">
        <ele>208.008</ele>
        <time>2019-10-30T10:06:28Z</time>
      </trkpt>
      <trkpt lat="44.82453" lon="1.06423">
        <ele>210.624</ele>
        <time>2019-10-30T10:06:08Z</time>
      </trkpt>
      <trkpt lat="44.82442" lon="1.06462">
        <ele>213.731</ele>
        <time>2019-10-30T10:05:48Z</time>
      </trkpt>
      <trkpt lat="44.82447" lon="1.06488">
        <ele>214.496</ele>
        <time>2019-10-30T10:05:28Z</time>
      </trkpt>
      <trkpt lat="44.82513" lon="1.06485">
        <ele>208.36</ele>
        <time>2019-10-30T10:05:08Z</time>
      </trkpt>
      <trkpt lat="44.82527" lon="1.065">
        <ele>207.121</ele>
        <time>2019-10-30T10:04:48Z</time>
      </trkpt>
      <trkpt lat="44.82535" lon="1.06605">
        <ele>208.725</ele>
        <time>2019-10-30T10:04:28Z</time>
      </trkpt>
      <trkpt lat="44.82531" lon="1.06708">
        <ele>204.263</ele>
        <time>2019-10-30T10:04:08Z</time>
      </trkpt>
      <trkpt lat="44.82512" lon="1.06791">
        <ele>205.017</ele>
        <time>2019-10-30T10:03:48Z</time>
      </trkpt>
      <trkpt lat="44.82465" lon="1.06862">
        <ele>208.884</ele>
        <time>2019-10-30T10:03:28Z</time>
      </trkpt>
      <trkpt lat="44.8238" lon="1.06918">
        <ele>212.619</ele>
        <time>2019-10-30T10:03:08Z</time>
      </trkpt>
      <trkpt lat="44.82365" lon="1.06947">
        <ele>212.963</ele>
        <time>2019-10-30T10:02:48Z</time>
      </trkpt>
      <trkpt lat="44.82393" lon="1.07015">
        <ele>217.508</ele>
        <time>2019-10-30T10:02:28Z</time>
      </trkpt>
      <trkpt lat="44.82426" lon="1.07127">
        <ele>216.419</ele>
        <time>2019-10-30T10:02:08Z</time>
      </trkpt>
      <trkpt lat="44.82486" lon="1.07163">
        <ele>208.99</ele>
        <time>2019-10-30T10:01:48Z</time>
      </trkpt>
      <trkpt lat="44.82534" lon="1.07158">
        <ele>202.976</ele>
        <time>2019-10-30T10:01:28Z</time>
      </trkpt>
      <trkpt lat="44.82614" lon="1.07192">
        <ele>193.379</ele>
        <time>2019-10-30T10:01:08Z</time>
      </trkpt>
      <trkpt lat="44.82661" lon="1.07217">
        <ele>182.23</ele>
        <time>2019-10-30T10:00:48Z</time>
      </trkpt>
      <trkpt lat="44.82745" lon="1.07209">
        <ele>172.584</ele>
        <time>2019-10-30T10:00:28Z</time>
      </trkpt>
      <trkpt lat="44.82788" lon="1.07241">
        <ele>166.112</ele>
        <time>2019-10-30T10:00:08Z</time>
      </trkpt>
      <trkpt lat="44.82832" lon="1.07266">
        <ele>160.236</ele>
        <time>2019-10-30T09:59:48Z</time>
      </trkpt>
      <trkpt lat="44.82899" lon="1.07274">
        <ele>153.643</ele>
        <time>2019-10-30T09:59:28Z</time>
      </trkpt>
      <trkpt lat="44.82924" lon="1.07153">
        <ele>141.048</ele>
        <time>2019-10-30T09:59:08Z</time>
      </trkpt>
      <trkpt lat="44.82916" lon="1.07121">
        <ele>140.692</ele>
        <time>2019-10-30T09:58:48Z</time>
      </trkpt>
      <trkpt lat="44.82861" lon="1.07072">
        <ele>136.108</ele>
        <time>2019-10-30T09:58:28Z</time>
      </trkpt>
      <trkpt lat="44.82923" lon="1.07035">
        <ele>113.724</ele>
        <time>2019-10-30T09:58:08Z</time>
      </trkpt>
      <trkpt lat="44.83004" lon="1.07012">
        <ele>99.104</ele>
        <time>2019-10-30T09:57:48Z</time>
      </trkpt>
      <trkpt lat="44.83049" lon="1.07002">
        <ele>97.369</ele>
        <time>2019-10-30T09:57:28Z</time>
      </trkpt>
      <trkpt lat="44.83079" lon="1.06983">
        <ele>94.069</ele>
        <time>2019-10-30T09:57:08Z</time>
      </trkpt>
      <trkpt lat="44.83151" lon="1.06988">
        <ele>93.02</ele>
        <time>2019-10-30T09:56:48Z</time>
      </trkpt>
      <trkpt lat="44.832" lon="1.07036">
        <ele>89.194</ele>
        <time>2019-10-30T09:56:28Z</time>
      </trkpt>
      <trkpt lat="44.83286" lon="1.0717">
        <ele>84.772</ele>
        <time>2019-10-30T09:56:08Z</time>
      </trkpt>
      <trkpt lat="44.83307" lon="1.07192">
        <ele>80.756</ele>
        <time>2019-10-30T09:55:48Z</time>
      </trkpt>
      <trkpt lat="44.83343" lon="1.07275">
        <ele>77.353</ele>
        <time>2019-10-30T09:55:28Z</time>
      </trkpt>
      <trkpt lat="44.83391" lon="1.07246">
        <ele>70.318</ele>
        <time>2019-10-30T09:55:08Z</time>
      </trkpt>
      <trkpt lat="44.83393" lon="1.0723">
        <ele>71.752</ele>
        <time>2019-10-30T09:54:48Z</time>
      </trkpt>
      <trkpt lat="44.83429" lon="1.07209">
        <ele>70.408</ele>
        <time>2019-10-30T09:54:28Z</time>
      </trkpt>
      <trkpt lat="44.83472" lon="1.07147">
        <ele>66.324</ele>
        <time>2019-10-30T09:54:08Z</time>
      </trkpt>
      <trkpt lat="44.83498" lon="1.0708">
        <ele>67.104</ele>
        <time>2019-10-30T09:53:48Z</time>
      </trkpt>
      <trkpt lat="44.83622" lon="1.06892">
        <ele>66.269</ele>
        <time>2019-10-30T09:53:28Z</time>
      </trkpt>
      <trkpt lat="44.84237" lon="1.0676">
        <ele>59.81</ele>
        <time>2019-10-30T09:53:08Z</time>
      </trkpt>
      <trkpt lat="44.84258" lon="1.06597">
        <ele>59.851</ele>
        <time>2019-10-30T09:52:48Z</time>
      </trkpt>
      <trkpt lat="44.84278" lon="1.06423">
        <ele>60.085</ele>
        <time>2019-10-30T09:52:28Z</time>
      </trkpt>
      <trkpt lat="44.84297" lon="1.06322">
        <ele>62.033</ele>
        <time>2019-10-30T09:52:08Z</time>
      </trkpt>
      <trkpt lat="44.84301" lon="1.06179">
        <ele>60.967</ele>
        <time>2019-10-30T09:51:48Z</time>
      </trkpt>
      <trkpt lat="44.84484" lon="1.05908">
        <ele>61.764</ele>
        <time>2019-10-30T09:51:28Z</time>
      </trkpt>
      <trkpt lat="44.84738" lon="1.05576">
        <ele>61.039</ele>
        <time>2019-10-30T09:51:08Z</time>
      </trkpt>
      <trkpt lat="44.84851" lon="1.05384">
        <ele>62.213</ele>
        <time>2019-10-30T09:50:48Z</time>
      </trkpt>
      <trkpt lat="44.84918" lon="1.05254">
        <ele>62.008</ele>
        <time>2019-10-30T09:50:28Z</time>
      </trkpt>
      <trkpt lat="44.84981" lon="1.0516">
        <ele>60.414</ele>
        <time>2019-10-30T09:50:08Z</time>
      </trkpt>
      <trkpt lat="44.85147" lon="1.04874">
        <ele>62.413</ele>
        <time>2019-10-30T09:49:48Z</time>
      </trkpt>
      <trkpt lat="44.85259" lon="1.04631">
        <ele>61.472</ele>
        <time>2019-10-30T09:49:28Z</time>
      </trkpt>
      <trkpt lat="44.8535" lon="1.04402">
        <ele>58.517</ele>
        <time>2019-10-30T09:49:08Z</time>
      </trkpt>
      <trkpt lat="44.85382" lon="1.04275">
        <ele>60.268</ele>
        <time>2019-10-30T09:48:48Z</time>
      </trkpt>
      <trkpt lat="44.85475" lon="1.04015">
        <ele>60.682</ele>
        <time>2019-10-30T09:48:28Z</time>
      </trkpt>
      <trkpt lat="44.855" lon="1.03973">
        <ele>61.06</ele>
        <time>2019-10-30T09:48:08Z</time>
      </trkpt>
      <trkpt lat="44.85498" lon="1.03935">
        <ele>60.684</ele>
        <time>2019-10-30T09:47:48Z</time>
      </trkpt>
      <trkpt lat="44.85537" lon="1.03851">
        <ele>60.331</ele>
        <time>2019-10-30T09:47:28Z</time>
      </trkpt>
      <trkpt lat="44.85551" lon="1.03802">
        <ele>60.076</ele>
        <time>2019-10-30T09:47:08Z</time>
      </trkpt>
      <trkpt lat="44.85856" lon="1.03847">
        <ele>61.53</ele>
        <time>2019-10-30T09:46:48Z</time>
      </trkpt>
      <trkpt lat="44.85951" lon="1.0387">
        <ele>61.008</ele>
        <time>2019-10-30T09:46:28Z</time>
      </trkpt>
      <trkpt lat="44.86035" lon="1.03911">
        <ele>61.016</ele>
        <time>2019-10-30T09:46:08Z</time>
      </trkpt>
      <trkpt lat="44.86106" lon="1.03979">
        <ele>60.688</ele>
        <time>2019-10-30T09:45:48Z</time>
      </trkpt>
      <trkpt lat="44.8613" lon="1.03989">
        <ele>60.846</ele>
        <time>2019-10-30T09:45:28Z</time>
      </trkpt>
      <trkpt lat="44.86154" lon="1.03961">
        <ele>61.346</ele>
        <time>2019-10-30T09:45:08Z</time>
      </trkpt>
      <trkpt lat="44.86167" lon="1.03904">
        <ele>61.537</ele>
        <time>2019-10-30T09:44:48Z</time>
      </trkpt>
      <trkpt lat="44.86408" lon="1.03943">
        <ele>61.641</ele>
        <time>2019-10-30T09:44:28Z</time>
      </trkpt>
      <trkpt lat="44.86673" lon="1.04275">
        <ele>61.049</ele>
        <time>2019-10-30T09:44:08Z</time>
      </trkpt>
      <trkpt lat="44.86767" lon="1.04249">
        <ele>63.443</ele>
        <time>2019-10-30T09:43:48Z</time>
      </trkpt>
      <trkpt lat="44.86915" lon="1.04285">
        <ele>69.14</ele>
        <time>2019-10-30T09:43:28Z</time>
      </trkpt>
      <trkpt lat="44.86928" lon="1.04296">
        <ele>72.845</ele>
        <time>2019-10-30T09:43:08Z</time>
      </trkpt>
      <trkpt lat="44.86941" lon="1.04282">
        <ele>75.379</ele>
        <time>2019-10-30T09:42:48Z</time>
      </trkpt>
      <trkpt lat="44.86989" lon="1.04301">
        <ele>88.408</ele>
        <time>2019-10-30T09:42:28Z</time>
      </trkpt>
      <trkpt lat="44.87007" lon="1.0426">
        <ele>88.821</ele>
        <time>2019-10-30T09:42:08Z</time>
      </trkpt>
      <trkpt lat="44.87013" lon="1.04229">
        <ele>86.201</ele>
        <time>2019-10-30T09:41:48Z</time>
      </trkpt>
      <trkpt lat="44.87065" lon="1.0417">
        <ele>86.239</ele>
        <time>2019-10-30T09:41:28Z</time>
      </trkpt>
      <trkpt lat="44.87089" lon="1.04215">
        <ele>95.936</ele>
        <time>2019-10-30T09:41:08Z</time>
      </trkpt>
      <trkpt lat="44.87061" lon="1.04281">
        <ele>99.867</ele>
        <time>2019-10-30T09:40:48Z</time>
      </trkpt>
      <trkpt lat="44.87049" lon="1.04337">
        <ele>105.741</ele>
        <time>2019-10-30T09:40:28Z</time>
      </trkpt>
      <trkpt lat="44.87063" lon="1.04346">
        <ele>109.649</ele>
        <time>2019-10-30T09:40:08Z</time>
      </trkpt>
      <trkpt lat="44.87073" lon="1.04327">
        <ele>109.333</ele>
        <time>2019-10-30T09:39:48Z</time>
      </trkpt>
      <trkpt lat="44.87087" lon="1.04283">
        <ele>105.37</ele>
        <time>2019-10-30T09:39:28Z</time>
      </trkpt>
      <trkpt lat="44.8712" lon="1.04257">
        <ele>105.725</ele>
        <time>2019-10-30T09:39:08Z</time>
      </trkpt>
      <trkpt lat="44.87161" lon="1.0424">
        <ele>111.289</ele>
        <time>2019-10-30T09:38:48Z</time>
      </trkpt>
      <trkpt lat="44.87236" lon="1.04259">
        <ele>126.908</ele>
        <time>2019-10-30T09:38:28Z</time>
      </trkpt>
      <trkpt lat="44.87241" lon="1.04278">
        <ele>132.517</ele>
        <time>2019-10-30T09:38:08Z</time>
      </trkpt>
      <trkpt lat="44.87308" lon="1.04304">
        <ele>145.07</ele>
        <time>2019-10-30T09:37:48Z</time>
      </trkpt>
      <trkpt lat="44.87387" lon="1.04383">
        <ele>172.838</ele>
        <time>2019-10-30T09:37:28Z</time>
      </trkpt>
      <trkpt lat="44.87412" lon="1.04442">
        <ele>176.746</ele>
        <time>2019-10-30T09:37:08Z</time>
      </trkpt>
      <trkpt lat="44.87527" lon="1.04477">
        <ele>176.887</ele>
        <time>2019-10-30T09:36:48Z</time>
      </trkpt>
      <trkpt lat="44.87586" lon="1.04482">
        <ele>173.211</ele>
        <time>2019-10-30T09:36:28Z</time>
      </trkpt>
      <trkpt lat="44.87688" lon="1.04444">
        <ele>169.239</ele>
        <time>2019-10-30T09:36:08Z</time>
      </trkpt>
      <trkpt lat="44.87749" lon="1.04442">
        <ele>169.173</ele>
        <time>2019-10-30T09:35:48Z</time>
      </trkpt>
      <trkpt lat="44.87808" lon="1.04465">
        <ele>173.89</ele>
        <time>2019-10-30T09:35:28Z</time>
      </trkpt>
      <trkpt lat="44.8799" lon="1.04604">
        <ele>190.285</ele>
        <time>2019-10-30T09:35:08Z</time>
      </trkpt>
      <trkpt lat="44.88077" lon="1.04651">
        <ele>195.359</ele>
        <time>2019-10-30T09:34:48Z</time>
      </trkpt>
      <trkpt lat="44.88124" lon="1.04691">
        <ele>197.408</ele>
        <time>2019-10-30T09:34:28Z</time>
      </trkpt>
      <trkpt lat="44.88153" lon="1.04705">
        <ele>200.418</ele>
        <time>2019-10-30T09:34:08Z</time>
      </trkpt>
      <trkpt lat="44.88193" lon="1.04705">
        <ele>200.917</ele>
        <time>2019-10-30T09:33:48Z</time>
      </trkpt>
      <trkpt lat="44.88303" lon="1.0467">
        <ele>195.936</ele>
        <time>2019-10-30T09:33:28Z</time>
      </trkpt>
      <trkpt lat="44.88384" lon="1.04655">
        <ele>203.474</ele>
        <time>2019-10-30T09:33:08Z</time>
      </trkpt>
      <trkpt lat="44.88431" lon="1.04683">
        <ele>213.455</ele>
        <time>2019-10-30T09:32:48Z</time>
      </trkpt>
      <trkpt lat="44.88471" lon="1.04733">
        <ele>216.679</ele>
        <time>2019-10-30T09:32:28Z</time>
      </trkpt>
      <trkpt lat="44.88526" lon="1.04763">
        <ele>213.687</ele>
        <time>2019-10-30T09:32:08Z</time>
      </trkpt>
      <trkpt lat="44.88601" lon="1.04852">
        <ele>211.731</ele>
        <time>2019-10-30T09:31:48Z</time>
      </trkpt>
      <trkpt lat="44.88695" lon="1.04934">
        <ele>210.088</ele>
        <time>2019-10-30T09:31:28Z</time>
      </trkpt>
      <trkpt lat="44.8875" lon="1.04967">
        <ele>209.683</ele>
        <time>2019-10-30T09:31:08Z</time>
      </trkpt>
      <trkpt lat="44.88841" lon="1.05005">
        <ele>207.847</ele>
        <time>2019-10-30T09:30:48Z</time>
      </trkpt>
      <trkpt lat="44.88929" lon="1.05012">
        <ele>209.008</ele>
        <time>2019-10-30T09:30:28Z</time>
      </trkpt>
      <trkpt lat="44.89043" lon="1.04991">
        <ele>202.803</ele>
        <time>2019-10-30T09:30:08Z</time>
      </trkpt>
      <trkpt lat="44.89196" lon="1.04925">
        <ele>197.821</ele>
        <time>2019-10-30T09:29:48Z</time>
      </trkpt>
      <trkpt lat="44.89238" lon="1.04914">
        <ele>200.611</ele>
        <time>2019-10-30T09:29:28Z</time>
      </trkpt>
      <trkpt lat="44.89348" lon="1.04843">
        <ele>202.667</ele>
        <time>2019-10-30T09:29:08Z</time>
      </trkpt>
      <trkpt lat="44.89373" lon="1.04848">
        <ele>200.398</ele>
        <time>2019-10-30T09:28:48Z</time>
      </trkpt>
      <trkpt lat="44.89404" lon="1.04827">
        <ele>195.652</ele>
        <time>2019-10-30T09:28:28Z</time>
      </trkpt>
      <trkpt lat="44.89434" lon="1.04913">
        <ele>193.82</ele>
        <time>2019-10-30T09:28:08Z</time>
      </trkpt>
      <trkpt lat="44.89532" lon="1.04826">
        <ele>188.894</ele>
        <time>2019-10-30T09:27:48Z</time>
      </trkpt>
      <trkpt lat="44.89728" lon="1.0481">
        <ele>180.231</ele>
        <time>2019-10-30T09:27:28Z</time>
      </trkpt>
      <trkpt lat="44.89727" lon="1.04601">
        <ele>186.266</ele>
        <time>2019-10-30T09:27:08Z</time>
      </trkpt>
      <trkpt lat="44.89716" lon="1.04414">
        <ele>184.92</ele>
        <time>2019-10-30T09:26:48Z</time>
      </trkpt>
      <trkpt lat="44.89747" lon="1.04388">
        <ele>187.808</ele>
        <time>2019-10-30T09:26:28Z</time>
      </trkpt>
      <trkpt lat="44.8978" lon="1.04315">
        <ele>190.317</ele>
        <time>2019-10-30T09:26:08Z</time>
      </trkpt>
      <trkpt lat="44.89831" lon="1.04238">
        <ele>194.461</ele>
        <time>2019-10-30T09:25:48Z</time>
      </trkpt>
      <trkpt lat="44.89949" lon="1.04128">
        <ele>185.748</ele>
        <time>2019-10-30T09:25:28Z</time>
      </trkpt>
      <trkpt lat="44.9007" lon="1.04132">
        <ele>179.837</ele>
        <time>2019-10-30T09:25:08Z</time>
      </trkpt>
      <trkpt lat="44.90136" lon="1.04153">
        <ele>177.198</ele>
        <time>2019-10-30T09:24:48Z</time>
      </trkpt>
      <trkpt lat="44.90146" lon="1.04137">
        <ele>177.142</ele>
        <time>2019-10-30T09:24:28Z</time>
      </trkpt>
      <trkpt lat="44.90178" lon="1.04139">
        <ele>176.63</ele>
        <time>2019-10-30T09:24:08Z</time>
      </trkpt>
      <trkpt lat="44.90214" lon="1.04155">
        <ele>174.864</ele>
        <time>2019-10-30T09:23:48Z</time>
      </trkpt>
      <trkpt lat="44.9022" lon="1.04188">
        <ele>172.751</ele>
        <time>2019-10-30T09:23:28Z</time>
      </trkpt>
      <trkpt lat="44.90251" lon="1.04179">
        <ele>169.586</ele>
        <time>2019-10-30T09:23:08Z</time>
      </trkpt>
      <trkpt lat="44.9032" lon="1.04069">
        <ele>164.73</ele>
        <time>2019-10-30T09:22:48Z</time>
      </trkpt>
      <trkpt lat="44.90428" lon="1.04062">
        <ele>154.508</ele>
        <time>2019-10-30T09:22:28Z</time>
      </trkpt>
      <trkpt lat="44.90507" lon="1.04071">
        <ele>168.009</ele>
        <time>2019-10-30T09:22:08Z</time>
      </trkpt>
      <trkpt lat="44.90575" lon="1.04024">
        <ele>182.281</ele>
        <time>2019-10-30T09:21:48Z</time>
      </trkpt>
      <trkpt lat="44.90667" lon="1.03937">
        <ele>193.041</ele>
        <time>2019-10-30T09:21:28Z</time>
      </trkpt>
      <trkpt lat="44.90706" lon="1.03822">
        <ele>190.564</ele>
        <time>2019-10-30T09:21:08Z</time>
      </trkpt>
      <trkpt lat="44.90697" lon="1.03705">
        <ele>202.665</ele>
        <time>2019-10-30T09:20:48Z</time>
      </trkpt>
      <trkpt lat="44.90639" lon="1.03492">
        <ele>204.899</ele>
        <time>2019-10-30T09:20:28Z</time>
      </trkpt>
      <trkpt lat="44.90638" lon="1.03391">
        <ele>202.067</ele>
        <time>2019-10-30T09:20:08Z</time>
      </trkpt>
      <trkpt lat="44.90626" lon="1.03332">
        <ele>204.081</ele>
        <time>2019-10-30T09:19:48Z</time>
      </trkpt>
      <trkpt lat="44.90702" lon="1.03351">
        <ele>195.848</ele>
        <time>2019-10-30T09:19:28Z</time>
      </trkpt>
      <trkpt lat="44.90728" lon="1.03246">
        <ele>187.363</ele>
        <time>2019-10-30T09:19:08Z</time>
      </trkpt>
      <trkpt lat="44.90753" lon="1.03259">
        <ele>185.377</ele>
        <time>2019-10-30T09:18:48Z</time>
      </trkpt>
      <trkpt lat="44.9078" lon="1.03309">
        <ele>185.008</ele>
        <time>2019-10-30T09:18:28Z</time>
      </trkpt>
      <trkpt lat="44.90899" lon="1.03372">
        <ele>177.507</ele>
        <time>2019-10-30T09:18:08Z</time>
      </trkpt>
      <trkpt lat="44.91033" lon="1.03435">
        <ele>161.743</ele>
        <time>2019-10-30T09:17:48Z</time>
      </trkpt>
      <trkpt lat="44.91078" lon="1.03295">
        <ele>154.613</ele>
        <time>2019-10-30T09:17:28Z</time>
      </trkpt>
      <trkpt lat="44.91157" lon="1.03166">
        <ele>159.979</ele>
        <time>2019-10-30T09:17:08Z</time>
      </trkpt>
      <trkpt lat="44.91199" lon="1.03133">
        <ele>157.47</ele>
        <time>2019-10-30T09:16:48Z</time>
      </trkpt>
      <trkpt lat="44.91321" lon="1.03105">
        <ele>149.144</ele>
        <time>2019-10-30T09:16:28Z</time>
      </trkpt>
      <trkpt lat="44.91349" lon="1.03114">
        <ele>147.882</ele>
        <time>2019-10-30T09:16:08Z</time>
      </trkpt>
      <trkpt lat="44.91403" lon="1.03184">
        <ele>146.686</ele>
        <time>2019-10-30T09:15:48Z</time>
      </trkpt>
      <trkpt lat="44.91438" lon="1.03199">
        <ele>146.093</ele>
        <time>2019-10-30T09:15:28Z</time>
      </trkpt>
      <trkpt lat="44.91591" lon="1.03135">
        <ele>140.248</ele>
        <time>2019-10-30T09:15:08Z</time>
      </trkpt>
      <trkpt lat="44.91619" lon="1.03112">
        <ele>138.122</ele>
        <time>2019-10-30T09:14:48Z</time>
      </trkpt>
      <trkpt lat="44.91634" lon="1.03048">
        <ele>136.808</ele>
        <time>2019-10-30T09:14:28Z</time>
      </trkpt>
      <trkpt lat="44.91632" lon="1.02999">
        <ele>136.519</ele>
        <time>2019-10-30T09:14:08Z</time>
      </trkpt>
      <trkpt lat="44.91754" lon="1.02938">
        <ele>142.381</ele>
        <time>2019-10-30T09:13:48Z</time>
      </trkpt>
      <trkpt lat="44.91814" lon="1.02985">
        <ele>148.267</ele>
        <time>2019-10-30T09:13:28Z</time>
      </trkpt>
      <trkpt lat="44.91866" lon="1.02975">
        <ele>156.865</ele>
        <time>2019-10-30T09:13:08Z</time>
      </trkpt>
      <trkpt lat="44.91932" lon="1.02983">
        <ele>162.716</ele>
        <time>2019-10-30T09:12:48Z</time>
      </trkpt>
      <trkpt lat="44.92019" lon="1.02934">
        <ele>173.67</ele>
        <time>2019-10-30T09:12:28Z</time>
      </trkpt>
      <trkpt lat="44.9207" lon="1.02931">
        <ele>183.658</ele>
        <time>2019-10-30T09:12:08Z</time>
      </trkpt>
      <trkpt lat="44.92098" lon="1.02901">
        <ele>185.342</ele>
        <time>2019-10-30T09:11:48Z</time>
      </trkpt>
      <trkpt lat="44.92137" lon="1.02914">
        <ele>186.829</ele>
        <time>2019-10-30T09:11:28Z</time>
      </trkpt>
      <trkpt lat="44.92149" lon="1.03001">
        <ele>188.124</ele>
        <time>2019-10-30T09:11:08Z</time>
      </trkpt>
      <trkpt lat="44.92172" lon="1.03107">
        <ele>198.618</ele>
        <time>2019-10-30T09:10:48Z</time>
      </trkpt>
      <trkpt lat="44.92223" lon="1.03184">
        <ele>205.208</ele>
        <time>2019-10-30T09:10:28Z</time>
      </trkpt>
      <trkpt lat="44.92298" lon="1.03168">
        <ele>203.114</ele>
        <time>2019-10-30T09:10:08Z</time>
      </trkpt>
      <trkpt lat="44.92404" lon="1.03055">
        <ele>190.204</ele>
        <time>2019-10-30T09:09:48Z</time>
      </trkpt>
      <trkpt lat="44.92413" lon="1.03029">
        <ele>190.524</ele>
        <time>2019-10-30T09:09:28Z</time>
      </trkpt>
      <trkpt lat="44.92408" lon="1.02976">
        <ele>188.488</ele>
        <time>2019-10-30T09:09:08Z</time>
      </trkpt>
      <trkpt lat="44.92377" lon="1.02905">
        <ele>189.329</ele>
        <time>2019-10-30T09:08:48Z</time>
      </trkpt>
      <trkpt lat="44.92465" lon="1.02931">
        <ele>187.593</ele>
        <time>2019-10-30T09:08:28Z</time>
      </trkpt>
      <trkpt lat="44.92671" lon="1.02896">
        <ele>185.671</ele>
        <time>2019-10-30T09:08:08Z</time>
      </trkpt>
      <trkpt lat="44.92691" lon="1.02919">
        <ele>187.575</ele>
        <time>2019-10-30T09:07:48Z</time>
      </trkpt>
      <trkpt lat="44.92839" lon="1.02961">
        <ele>170.342</ele>
        <time>2019-10-30T09:07:28Z</time>
      </trkpt>
      <trkpt lat="44.9297" lon="1.02868">
        <ele>173.617</ele>
        <time>2019-10-30T09:07:08Z</time>
      </trkpt>
      <trkpt lat="44.93052" lon="1.02856">
        <ele>173.541</ele>
        <time>2019-10-30T09:06:48Z</time>
      </trkpt>
      <trkpt lat="44.93155" lon="1.02781">
        <ele>176.708</ele>
        <time>2019-10-30T09:06:28Z</time>
      </trkpt>
      <trkpt lat="44.93255" lon="1.0268">
        <ele>175.608</ele>
        <time>2019-10-30T09:06:08Z</time>
      </trkpt>
      <trkpt lat="44.93299" lon="1.02612">
        <ele>178.953</ele>
        <time>2019-10-30T09:05:48Z</time>
      </trkpt>
      <trkpt lat="44.93305" lon="1.02565">
        <ele>178.452</ele>
        <time>2019-10-30T09:05:28Z</time>
      </trkpt>
      <trkpt lat="44.93294" lon="1.02506">
        <ele>175.876</ele>
        <time>2019-10-30T09:05:08Z</time>
      </trkpt>
      <trkpt lat="44.93305" lon="1.02427">
        <ele>175.627</ele>
        <time>2019-10-30T09:04:48Z</time>
      </trkpt>
      <trkpt lat="44.93301" lon="1.02399">
        <ele>177.211</ele>
        <time>2019-10-30T09:04:28Z</time>
      </trkpt>
      <trkpt lat="44.9334" lon="1.02401">
        <ele>175.269</ele>
        <time>2019-10-30T09:04:08Z</time>
      </trkpt>
      <trkpt lat="44.93374" lon="1.02488">
        <ele>163.843</ele>
        <time>2019-10-30T09:03:48Z</time>
      </trkpt>
      <trkpt lat="44.93483" lon="1.02469">
        <ele>145.05</ele>
        <time>2019-10-30T09:03:28Z</time>
      </trkpt>
      <trkpt lat="44.93493" lon="1.02337">
        <ele>118.645</ele>
        <time>2019-10-30T09:03:08Z</time>
      </trkpt>
      <trkpt lat="44.93514" lon="1.02223">
        <ele>95.339</ele>
        <time>2019-10-30T09:02:48Z</time>
      </trkpt>
      <trkpt lat="44.93522" lon="1.02255">
        <ele>94.908</ele>
        <time>2019-10-30T09:02:28Z</time>
      </trkpt>
      <trkpt lat="44.93552" lon="1.02281">
        <ele>84.318</ele>
        <time>2019-10-30T09:02:08Z</time>
      </trkpt>
      <trkpt lat="44.93551" lon="1.02232">
        <ele>76.917</ele>
        <time>2019-10-30T09:01:48Z</time>
      </trkpt>
      <trkpt lat="44.93572" lon="1.02243">
        <ele>75.136</ele>
        <time>2019-10-30T09:01:28Z</time>
      </trkpt>
      <trkpt lat="44.93619" lon="1.02206">
        <ele>74.054</ele>
        <time>2019-10-30T09:01:08Z</time>
      </trkpt>
      <trkpt lat="44.93605" lon="1.02143">
        <ele>73.395</ele>
        <time>2019-10-30T09:00:48Z</time>
      </trkpt>
      <trkpt lat="44.93614" lon="1.02105">
        <ele>72.539</ele>
        <time>2019-10-30T09:00:28Z</time>
      </trkpt>
      <trkpt lat="44.93675" lon="1.02093">
        <ele>73.247</ele>
        <time>2019-10-30T09:00:08Z</time>
      </trkpt>
      <trkpt lat="44.9371" lon="1.02098">
        <ele>79.061</ele>
        <time>2019-10-30T08:59:48Z</time>
      </trkpt>
      <trkpt lat="44.93664" lon="1.0199">
        <ele>78.968</ele>
        <time>2019-10-30T08:59:28Z</time>
      </trkpt>
      <trkpt lat="44.93641" lon="1.01951">
        <ele>74.523</ele>
        <time>2019-10-30T08:59:08Z</time>
      </trkpt>
      <trkpt lat="44.93641" lon="1.01951">
        <ele>74.557</ele>
        <time>2019-10-30T08:59:08Z</time>
      </trkpt>
      <trkpt lat="44.93613" lon="1.01829">
        <ele>75.608</ele>
        <time>2019-10-29T19:06:09Z</time>
      </trkpt>
      <trkpt lat="44.93618" lon="1.01771">
        <ele>79.207</ele>
        <time>2019-10-29T19:05:49Z</time>
      </trkpt>
      <trkpt lat="44.93617" lon="1.01623">
        <ele>81.843</ele>
        <time>2019-10-29T19:05:29Z</time>
      </trkpt>
      <trkpt lat="44.93606" lon="1.01564">
        <ele>78.413</ele>
        <time>2019-10-29T19:05:09Z</time>
      </trkpt>
      <trkpt lat="44.93598" lon="1.01467">
        <ele>77.798</ele>
        <time>2019-10-29T19:04:49Z</time>
      </trkpt>
      <trkpt lat="44.93605" lon="1.01353">
        <ele>73.729</ele>
        <time>2019-10-29T19:04:29Z</time>
      </trkpt>
      <trkpt lat="44.93665" lon="1.01293">
        <ele>80.083</ele>
        <time>2019-10-29T19:04:09Z</time>
      </trkpt>
      <trkpt lat="44.93734" lon="1.01257">
        <ele>96.391</ele>
        <time>2019-10-29T19:03:49Z</time>
      </trkpt>
      <trkpt lat="44.93816" lon="1.01185">
        <ele>88.735</ele>
        <time>2019-10-29T19:03:29Z</time>
      </trkpt>
      <trkpt lat="44.93844" lon="1.01148">
        <ele>80.852</ele>
        <time>2019-10-29T19:03:09Z</time>
      </trkpt>
      <trkpt lat="44.93851" lon="1.01124">
        <ele>73.667</ele>
        <time>2019-10-29T19:02:49Z</time>
      </trkpt>
      <trkpt lat="44.93962" lon="1.01018">
        <ele>69.951</ele>
        <time>2019-10-29T19:02:29Z</time>
      </trkpt>
      <trkpt lat="44.93983" lon="1.0099">
        <ele>68.708</ele>
        <time>2019-10-29T19:02:09Z</time>
      </trkpt>
      <trkpt lat="44.9404" lon="1.00954">
        <ele>74.523</ele>
        <time>2019-10-29T19:01:49Z</time>
      </trkpt>
      <trkpt lat="44.94057" lon="1.00954">
        <ele>79.203</ele>
        <time>2019-10-29T19:01:29Z</time>
      </trkpt>
      <trkpt lat="44.94121" lon="1.00883">
        <ele>82.359</ele>
        <time>2019-10-29T19:01:09Z</time>
      </trkpt>
      <trkpt lat="44.94261" lon="1.00795">
        <ele>105.092</ele>
        <time>2019-10-29T19:00:49Z</time>
      </trkpt>
      <trkpt lat="44.94217" lon="1.00881">
        <ele>112.663</ele>
        <time>2019-10-29T19:00:29Z</time>
      </trkpt>
      <trkpt lat="44.94183" lon="1.00914">
        <ele>112.627</ele>
        <time>2019-10-29T19:00:09Z</time>
      </trkpt>
      <trkpt lat="44.94165" lon="1.00951">
        <ele>116.025</ele>
        <time>2019-10-29T18:59:49Z</time>
      </trkpt>
      <trkpt lat="44.9419" lon="1.01003">
        <ele>124.669</ele>
        <time>2019-10-29T18:59:29Z</time>
      </trkpt>
      <trkpt lat="44.94187" lon="1.01047">
        <ele>126.646</ele>
        <time>2019-10-29T18:59:09Z</time>
      </trkpt>
      <trkpt lat="44.94226" lon="1.01163">
        <ele>132.731</ele>
        <time>2019-10-29T18:58:49Z</time>
      </trkpt>
      <trkpt lat="44.94236" lon="1.01146">
        <ele>134.645</ele>
        <time>2019-10-29T18:58:29Z</time>
      </trkpt>
      <trkpt lat="44.94275" lon="1.01151">
        <ele>141.108</ele>
        <time>2019-10-29T18:58:09Z</time>
      </trkpt>
      <trkpt lat="44.94334" lon="1.01185">
        <ele>147.025</ele>
        <time>2019-10-29T18:57:49Z</time>
      </trkpt>
      <trkpt lat="44.94365" lon="1.01182">
        <ele>146.823</ele>
        <time>2019-10-29T18:57:29Z</time>
      </trkpt>
      <trkpt lat="44.94406" lon="1.01263">
        <ele>149.797</ele>
        <time>2019-10-29T18:57:09Z</time>
      </trkpt>
      <trkpt lat="44.94421" lon="1.01315">
        <ele>152.559</ele>
        <time>2019-10-29T18:56:49Z</time>
      </trkpt>
      <trkpt lat="44.94425" lon="1.01408">
        <ele>164.64</ele>
        <time>2019-10-29T18:56:29Z</time>
      </trkpt>
      <trkpt lat="44.94446" lon="1.01431">
        <ele>164.324</ele>
        <time>2019-10-29T18:56:09Z</time>
      </trkpt>
      <trkpt lat="44.94461" lon="1.01491">
        <ele>166.852</ele>
        <time>2019-10-29T18:55:49Z</time>
      </trkpt>
      <trkpt lat="44.94512" lon="1.01574">
        <ele>171.576</ele>
        <time>2019-10-29T18:55:29Z</time>
      </trkpt>
      <trkpt lat="44.94526" lon="1.01616">
        <ele>175.183</ele>
        <time>2019-10-29T18:55:09Z</time>
      </trkpt>
      <trkpt lat="44.94526" lon="1.01746">
        <ele>180.118</ele>
        <time>2019-10-29T18:54:49Z</time>
      </trkpt>
      <trkpt lat="44.94539" lon="1.01807">
        <ele>175.992</ele>
        <time>2019-10-29T18:54:29Z</time>
      </trkpt>
      <trkpt lat="44.94536" lon="1.01873">
        <ele>180.408</ele>
        <time>2019-10-29T18:54:09Z</time>
      </trkpt>
      <trkpt lat="44.9458" lon="1.01933">
        <ele>182.613</ele>
        <time>2019-10-29T18:53:49Z</time>
      </trkpt>
      <trkpt lat="44.94625" lon="1.01945">
        <ele>184.021</ele>
        <time>2019-10-29T18:53:29Z</time>
      </trkpt>
      <trkpt lat="44.94664" lon="1.01919">
        <ele>183.961</ele>
        <time>2019-10-29T18:53:09Z</time>
      </trkpt>
      <trkpt lat="44.94725" lon="1.02">
        <ele>184.524</ele>
        <time>2019-10-29T18:52:49Z</time>
      </trkpt>
      <trkpt lat="44.94751" lon="1.02081">
        <ele>180.755</ele>
        <time>2019-10-29T18:52:29Z</time>
      </trkpt>
      <trkpt lat="44.94748" lon="1.02159">
        <ele>185.669</ele>
        <time>2019-10-29T18:52:09Z</time>
      </trkpt>
      <trkpt lat="44.94757" lon="1.02224">
        <ele>183.647</ele>
        <time>2019-10-29T18:51:49Z</time>
      </trkpt>
      <trkpt lat="44.94756" lon="1.02314">
        <ele>186.091</ele>
        <time>2019-10-29T18:51:29Z</time>
      </trkpt>
      <trkpt lat="44.94759" lon="1.02465">
        <ele>185.198</ele>
        <time>2019-10-29T18:51:09Z</time>
      </trkpt>
      <trkpt lat="44.94779" lon="1.02558">
        <ele>180.083</ele>
        <time>2019-10-29T18:50:49Z</time>
      </trkpt>
      <trkpt lat="44.94791" lon="1.02701">
        <ele>185.587</ele>
        <time>2019-10-29T18:50:29Z</time>
      </trkpt>
      <trkpt lat="44.94816" lon="1.0282">
        <ele>180.108</ele>
        <time>2019-10-29T18:50:09Z</time>
      </trkpt>
      <trkpt lat="44.94787" lon="1.0286">
        <ele>186.007</ele>
        <time>2019-10-29T18:49:49Z</time>
      </trkpt>
      <trkpt lat="44.9476" lon="1.02924">
        <ele>184.743</ele>
        <time>2019-10-29T18:49:29Z</time>
      </trkpt>
      <trkpt lat="44.94713" lon="1.02938">
        <ele>186.913</ele>
        <time>2019-10-29T18:49:09Z</time>
      </trkpt>
      <trkpt lat="44.94717" lon="1.03075">
        <ele>176.831</ele>
        <time>2019-10-29T18:48:49Z</time>
      </trkpt>
      <trkpt lat="44.94745" lon="1.0328">
        <ele>167.352</ele>
        <time>2019-10-29T18:48:29Z</time>
      </trkpt>
      <trkpt lat="44.94736" lon="1.03347">
        <ele>165.336</ele>
        <time>2019-10-29T18:48:09Z</time>
      </trkpt>
      <trkpt lat="44.94738" lon="1.03395">
        <ele>162.084</ele>
        <time>2019-10-29T18:47:49Z</time>
      </trkpt>
      <trkpt lat="44.94813" lon="1.03501">
        <ele>153.688</ele>
        <time>2019-10-29T18:47:29Z</time>
      </trkpt>
      <trkpt lat="44.94907" lon="1.03571">
        <ele>152.365</ele>
        <time>2019-10-29T18:47:09Z</time>
      </trkpt>
      <trkpt lat="44.94901" lon="1.0361">
        <ele>154.86</ele>
        <time>2019-10-29T18:46:49Z</time>
      </trkpt>
      <trkpt lat="44.94905" lon="1.03722">
        <ele>162.044</ele>
        <time>2019-10-29T18:46:29Z</time>
      </trkpt>
      <trkpt lat="44.94962" lon="1.03838">
        <ele>167.508</ele>
        <time>2019-10-29T18:46:09Z</time>
      </trkpt>
      <trkpt lat="44.95019" lon="1.03987">
        <ele>178.626</ele>
        <time>2019-10-29T18:45:49Z</time>
      </trkpt>
      <trkpt lat="44.95043" lon="1.04025">
        <ele>182.56</ele>
        <time>2019-10-29T18:45:29Z</time>
      </trkpt>
      <trkpt lat="44.95094" lon="1.04039">
        <ele>185.186</ele>
        <time>2019-10-29T18:45:09Z</time>
      </trkpt>
      <trkpt lat="44.95169" lon="1.04083">
        <ele>191.288</ele>
        <time>2019-10-29T18:44:49Z</time>
      </trkpt>
      <trkpt lat="44.9522" lon="1.04148">
        <ele>198.539</ele>
        <time>2019-10-29T18:44:29Z</time>
      </trkpt>
      <trkpt lat="44.9528" lon="1.042">
        <ele>202.723</ele>
        <time>2019-10-29T18:44:09Z</time>
      </trkpt>
      <trkpt lat="44.95355" lon="1.04238">
        <ele>205.861</ele>
        <time>2019-10-29T18:43:49Z</time>
      </trkpt>
      <trkpt lat="44.95449" lon="1.04327">
        <ele>210.965</ele>
        <time>2019-10-29T18:43:29Z</time>
      </trkpt>
      <trkpt lat="44.95555" lon="1.04512">
        <ele>224.562</ele>
        <time>2019-10-29T18:43:09Z</time>
      </trkpt>
      <trkpt lat="44.95594" lon="1.04656">
        <ele>230.987</ele>
        <time>2019-10-29T18:42:49Z</time>
      </trkpt>
      <trkpt lat="44.95737" lon="1.04878">
        <ele>233.231</ele>
        <time>2019-10-29T18:42:29Z</time>
      </trkpt>
      <trkpt lat="44.95796" lon="1.04945">
        <ele>226.008</ele>
        <time>2019-10-29T18:42:09Z</time>
      </trkpt>
      <trkpt lat="44.95891" lon="1.04994">
        <ele>219.711</ele>
        <time>2019-10-29T18:41:49Z</time>
      </trkpt>
      <trkpt lat="44.95943" lon="1.04893">
        <ele>224.756</ele>
        <time>2019-10-29T18:41:29Z</time>
      </trkpt>
      <trkpt lat="44.95947" lon="1.04857">
        <ele>224.454</ele>
        <time>2019-10-29T18:41:09Z</time>
      </trkpt>
      <trkpt lat="44.95995" lon="1.04867">
        <ele>215.299</ele>
        <time>2019-10-29T18:40:49Z</time>
      </trkpt>
      <trkpt lat="44.96023" lon="1.04904">
        <ele>209.03</ele>
        <time>2019-10-29T18:40:29Z</time>
      </trkpt>
      <trkpt lat="44.96102" lon="1.04914">
        <ele>202.174</ele>
        <time>2019-10-29T18:40:09Z</time>
      </trkpt>
      <trkpt lat="44.9623" lon="1.04872">
        <ele>185.612</ele>
        <time>2019-10-29T18:39:49Z</time>
      </trkpt>
      <trkpt lat="44.96298" lon="1.04883">
        <ele>179.026</ele>
        <time>2019-10-29T18:39:29Z</time>
      </trkpt>
      <trkpt lat="44.96378" lon="1.04831">
        <ele>166.933</ele>
        <time>2019-10-29T18:39:09Z</time>
      </trkpt>
      <trkpt lat="44.9643" lon="1.04763">
        <ele>151.488</ele>
        <time>2019-10-29T18:38:49Z</time>
      </trkpt>
      <trkpt lat="44.96466" lon="1.0474">
        <ele>150.252</ele>
        <time>2019-10-29T18:38:29Z</time>
      </trkpt>
      <trkpt lat="44.96568" lon="1.047">
        <ele>131.108</ele>
        <time>2019-10-29T18:38:09Z</time>
      </trkpt>
      <trkpt lat="44.96668" lon="1.04685">
        <ele>115.818</ele>
        <time>2019-10-29T18:37:49Z</time>
      </trkpt>
      <trkpt lat="44.96724" lon="1.04682">
        <ele>107.244</ele>
        <time>2019-10-29T18:37:29Z</time>
      </trkpt>
      <trkpt lat="44.96732" lon="1.04656">
        <ele>100.663</ele>
        <time>2019-10-29T18:37:09Z</time>
      </trkpt>
      <trkpt lat="44.96705" lon="1.0461">
        <ele>95.884</ele>
        <time>2019-10-29T18:36:49Z</time>
      </trkpt>
      <trkpt lat="44.96725" lon="1.04576">
        <ele>89.975</ele>
        <time>2019-10-29T18:36:29Z</time>
      </trkpt>
      <trkpt lat="44.96774" lon="1.0456">
        <ele>83.639</ele>
        <time>2019-10-29T18:36:09Z</time>
      </trkpt>
      <trkpt lat="44.96798" lon="1.04506">
        <ele>80.847</ele>
        <time>2019-10-29T18:35:49Z</time>
      </trkpt>
      <trkpt lat="44.96864" lon="1.04456">
        <ele>81.581</ele>
        <time>2019-10-29T18:35:29Z</time>
      </trkpt>
      <trkpt lat="44.96933" lon="1.04641">
        <ele>96.538</ele>
        <time>2019-10-29T18:35:09Z</time>
      </trkpt>
      <trkpt lat="44.9697" lon="1.04636">
        <ele>99.553</ele>
        <time>2019-10-29T18:34:49Z</time>
      </trkpt>
      <trkpt lat="44.9705" lon="1.04656">
        <ele>107.597</ele>
        <time>2019-10-29T18:34:29Z</time>
      </trkpt>
      <trkpt lat="44.97146" lon="1.04719">
        <ele>112.208</ele>
        <time>2019-10-29T18:34:09Z</time>
      </trkpt>
      <trkpt lat="44.97234" lon="1.04789">
        <ele>117.015</ele>
        <time>2019-10-29T18:33:49Z</time>
      </trkpt>
      <trkpt lat="44.97328" lon="1.04784">
        <ele>122.687</ele>
        <time>2019-10-29T18:33:29Z</time>
      </trkpt>
      <trkpt lat="44.97411" lon="1.04817">
        <ele>124.617</ele>
        <time>2019-10-29T18:33:09Z</time>
      </trkpt>
      <trkpt lat="44.9743" lon="1.04558">
        <ele>110.288</ele>
        <time>2019-10-29T18:32:49Z</time>
      </trkpt>
      <trkpt lat="44.9749" lon="1.0448">
        <ele>106.379</ele>
        <time>2019-10-29T18:32:29Z</time>
      </trkpt>
      <trkpt lat="44.97509" lon="1.04407">
        <ele>102.263</ele>
        <time>2019-10-29T18:32:09Z</time>
      </trkpt>
      <trkpt lat="44.97505" lon="1.04364">
        <ele>98.411</ele>
        <time>2020-12-26T00:42:15Z</time>
      </trkpt>
      <trkpt lat="44.97481" lon="1.04308">
        <ele>95.485</ele>
        <time>2020-12-26T00:41:55Z</time>
      </trkpt>
      <trkpt lat="44.97457" lon="1.04295">
        <ele>95.332</ele>
        <time>2020-12-26T00:41:35Z</time>
      </trkpt>
      <trkpt lat="44.97372" lon="1.04338">
        <ele>98.437</ele>
        <time>2020-12-26T00:41:15Z</time>
      </trkpt>
      <trkpt lat="44.97343" lon="1.04248">
        <ele>93.051</ele>
        <time>2020-12-26T00:40:55Z</time>
      </trkpt>
      <trkpt lat="44.97398" lon="1.04222">
        <ele>91.908</ele>
        <time>2020-12-26T00:40:35Z</time>
      </trkpt>
      <trkpt lat="44.97445" lon="1.04231">
        <ele>89.523</ele>
        <time>2020-12-26T00:40:15Z</time>
      </trkpt>
      <trkpt lat="44.97518" lon="1.04314">
        <ele>90.903</ele>
        <time>2020-12-26T00:39:55Z</time>
      </trkpt>
      <trkpt lat="44.97603" lon="1.04507">
        <ele>83.459</ele>
        <time>2019-10-29T18:31:09Z</time>
      </trkpt>
      <trkpt lat="44.97625" lon="1.04608">
        <ele>90.047</ele>
        <time>2019-10-29T18:30:49Z</time>
      </trkpt>
      <trkpt lat="44.9784" lon="1.04621">
        <ele>70.678</ele>
        <time>2019-10-29T18:30:29Z</time>
      </trkpt>
      <trkpt lat="44.97948" lon="1.04683">
        <ele>82.662</ele>
        <time>2019-10-29T18:30:09Z</time>
      </trkpt>
      <trkpt lat="44.9801" lon="1.04677">
        <ele>86.38</ele>
        <time>2019-10-29T18:29:49Z</time>
      </trkpt>
      <trkpt lat="44.98019" lon="1.04724">
        <ele>88.484</ele>
        <time>2019-10-29T18:29:29Z</time>
      </trkpt>
      <trkpt lat="44.98021" lon="1.04859">
        <ele>86.531</ele>
        <time>2019-10-29T18:29:09Z</time>
      </trkpt>
      <trkpt lat="44.98044" lon="1.05004">
        <ele>86.486</ele>
        <time>2019-10-29T18:28:49Z</time>
      </trkpt>
      <trkpt lat="44.98148" lon="1.05148">
        <ele>89.09</ele>
        <time>2019-10-29T18:28:29Z</time>
      </trkpt>
      <trkpt lat="44.9831" lon="1.05168">
        <ele>93.508</ele>
        <time>2019-10-29T18:28:09Z</time>
      </trkpt>
      <trkpt lat="44.98344" lon="1.05191">
        <ele>92.915</ele>
        <time>2019-10-29T18:27:49Z</time>
      </trkpt>
      <trkpt lat="44.9839" lon="1.0521">
        <ele>86.405</ele>
        <time>2019-10-29T18:27:29Z</time>
      </trkpt>
      <trkpt lat="44.98427" lon="1.05207">
        <ele>78.844</ele>
        <time>2019-10-29T18:27:09Z</time>
      </trkpt>
      <trkpt lat="44.9846" lon="1.05087">
        <ele>80.286</ele>
        <time>2019-10-29T18:26:49Z</time>
      </trkpt>
      <trkpt lat="44.98516" lon="1.0509">
        <ele>79.197</ele>
        <time>2019-10-29T18:26:29Z</time>
      </trkpt>
      <trkpt lat="44.98526" lon="1.05049">
        <ele>81.121</ele>
        <time>2019-10-29T18:26:09Z</time>
      </trkpt>
      <trkpt lat="44.98567" lon="1.05">
        <ele>87.199</ele>
        <time>2019-10-29T18:25:49Z</time>
      </trkpt>
      <trkpt lat="44.9859" lon="1.04992">
        <ele>90.143</ele>
        <time>2019-10-29T18:25:29Z</time>
      </trkpt>
      <trkpt lat="44.98575" lon="1.05046">
        <ele>91.75</ele>
        <time>2019-10-29T18:25:09Z</time>
      </trkpt>
      <trkpt lat="44.9857" lon="1.05108">
        <ele>94.755</ele>
        <time>2019-10-29T18:24:49Z</time>
      </trkpt>
      <trkpt lat="44.98591" lon="1.05166">
        <ele>97.639</ele>
        <time>2019-10-29T18:24:29Z</time>
      </trkpt>
      <trkpt lat="44.98635" lon="1.05184">
        <ele>106.708</ele>
        <time>2019-10-29T18:24:09Z</time>
      </trkpt>
      <trkpt lat="44.9868" lon="1.05181">
        <ele>112.213</ele>
        <time>2019-10-29T18:23:49Z</time>
      </trkpt>
      <trkpt lat="44.9872" lon="1.05113">
        <ele>120.949</ele>
        <time>2019-10-29T18:23:29Z</time>
      </trkpt>
      <trkpt lat="44.988" lon="1.05096">
        <ele>125.137</ele>
        <time>2019-10-29T18:23:09Z</time>
      </trkpt>
      <trkpt lat="44.98846" lon="1.05121">
        <ele>123.898</ele>
        <time>2019-10-29T18:22:49Z</time>
      </trkpt>
      <trkpt lat="44.98857" lon="1.05165">
        <ele>122.639</ele>
        <time>2019-10-29T18:22:29Z</time>
      </trkpt>
      <trkpt lat="44.98907" lon="1.05174">
        <ele>128.863</ele>
        <time>2019-10-29T18:22:09Z</time>
      </trkpt>
      <trkpt lat="44.98973" lon="1.05168">
        <ele>125.831</ele>
        <time>2019-10-29T18:21:49Z</time>
      </trkpt>
      <trkpt lat="44.99029" lon="1.05187">
        <ele>118.455</ele>
        <time>2019-10-29T18:21:29Z</time>
      </trkpt>
      <trkpt lat="44.99126" lon="1.05095">
        <ele>119.162</ele>
        <time>2019-10-29T18:21:09Z</time>
      </trkpt>
      <trkpt lat="44.99168" lon="1.05078">
        <ele>112.937</ele>
        <time>2019-10-29T18:20:49Z</time>
      </trkpt>
      <trkpt lat="44.99113" lon="1.05233">
        <ele>85.231</ele>
        <time>2019-10-29T18:20:29Z</time>
      </trkpt>
      <trkpt lat="44.99141" lon="1.05239">
        <ele>79.808</ele>
        <time>2019-10-29T18:20:09Z</time>
      </trkpt>
      <trkpt lat="44.99166" lon="1.05267">
        <ele>78.014</ele>
        <time>2019-10-29T18:19:49Z</time>
      </trkpt>
      <trkpt lat="44.9917" lon="1.053">
        <ele>78.204</ele>
        <time>2019-10-29T18:19:29Z</time>
      </trkpt>
      <trkpt lat="44.99194" lon="1.05381">
        <ele>87.753</ele>
        <time>2019-10-29T18:19:09Z</time>
      </trkpt>
      <trkpt lat="44.99278" lon="1.055">
        <ele>81.145</ele>
        <time>2019-10-29T18:18:49Z</time>
      </trkpt>
      <trkpt lat="44.99242" lon="1.05571">
        <ele>66.576</ele>
        <time>2019-10-29T18:18:29Z</time>
      </trkpt>
      <trkpt lat="44.99234" lon="1.05667">
        <ele>65.41</ele>
        <time>2019-10-29T18:18:09Z</time>
      </trkpt>
      <trkpt lat="44.99219" lon="1.05722">
        <ele>64.858</ele>
        <time>2019-10-29T18:17:49Z</time>
      </trkpt>
      <trkpt lat="44.9921" lon="1.0581">
        <ele>64.682</ele>
        <time>2019-10-29T18:17:29Z</time>
      </trkpt>
      <trkpt lat="44.99217" lon="1.05848">
        <ele>65.549</ele>
        <time>2019-10-29T18:17:09Z</time>
      </trkpt>
      <trkpt lat="44.99383" lon="1.059">
        <ele>71.554</ele>
        <time>2019-10-29T18:16:49Z</time>
      </trkpt>
      <trkpt lat="44.99395" lon="1.05984">
        <ele>75.638</ele>
        <time>2019-10-29T18:16:29Z</time>
      </trkpt>
      <trkpt lat="44.99366" lon="1.06118">
        <ele>69.008</ele>
        <time>2019-10-29T18:16:09Z</time>
      </trkpt>
      <trkpt lat="44.99341" lon="1.06171">
        <ele>69.311</ele>
        <time>2019-10-29T18:15:49Z</time>
      </trkpt>
      <trkpt lat="44.99057" lon="1.06165">
        <ele>76.783</ele>
        <time>2019-10-29T18:15:29Z</time>
      </trkpt>
      <trkpt lat="44.99064" lon="1.06293">
        <ele>77.323</ele>
        <time>2019-10-29T18:15:09Z</time>
      </trkpt>
      <trkpt lat="44.9897" lon="1.06714">
        <ele>98.588</ele>
        <time>2019-10-29T18:14:49Z</time>
      </trkpt>
      <trkpt lat="44.98945" lon="1.06778">
        <ele>117.049</ele>
        <time>2019-10-29T18:14:29Z</time>
      </trkpt>
      <trkpt lat="44.98935" lon="1.0689">
        <ele>101.173</ele>
        <time>2019-10-29T18:14:09Z</time>
      </trkpt>
      <trkpt lat="44.98918" lon="1.0697">
        <ele>87.351</ele>
        <time>2019-10-29T18:13:49Z</time>
      </trkpt>
      <trkpt lat="44.98789" lon="1.07038">
        <ele>105.725</ele>
        <time>2019-10-29T18:13:29Z</time>
      </trkpt>
      <trkpt lat="44.98784" lon="1.07069">
        <ele>99.042</ele>
        <time>2019-10-29T18:13:09Z</time>
      </trkpt>
      <trkpt lat="44.98809" lon="1.07101">
        <ele>98.197</ele>
        <time>2019-10-29T18:12:49Z</time>
      </trkpt>
      <trkpt lat="44.98706" lon="1.07186">
        <ele>102.031</ele>
        <time>2019-10-29T18:12:29Z</time>
      </trkpt>
      <trkpt lat="44.9866" lon="1.07249">
        <ele>101.708</ele>
        <time>2019-10-29T18:12:09Z</time>
      </trkpt>
      <trkpt lat="44.98615" lon="1.0736">
        <ele>103.023</ele>
        <time>2019-10-29T18:11:49Z</time>
      </trkpt>
      <trkpt lat="44.98668" lon="1.07536">
        <ele>122.303</ele>
        <time>2019-10-29T18:11:29Z</time>
      </trkpt>
      <trkpt lat="44.98798" lon="1.07726">
        <ele>137.859</ele>
        <time>2019-10-29T18:11:09Z</time>
      </trkpt>
      <trkpt lat="44.98849" lon="1.07762">
        <ele>142.134</ele>
        <time>2019-10-29T18:10:49Z</time>
      </trkpt>
      <trkpt lat="44.98911" lon="1.07757">
        <ele>135.625</ele>
        <time>2019-10-29T18:10:29Z</time>
      </trkpt>
      <trkpt lat="44.98973" lon="1.07841">
        <ele>126.789</ele>
        <time>2019-10-29T18:10:09Z</time>
      </trkpt>
      <trkpt lat="44.99063" lon="1.07893">
        <ele>118.677</ele>
        <time>2019-10-29T18:09:49Z</time>
      </trkpt>
      <trkpt lat="44.99051" lon="1.07983">
        <ele>130.611</ele>
        <time>2019-10-29T18:09:29Z</time>
      </trkpt>
      <trkpt lat="44.99044" lon="1.08043">
        <ele>138.228</ele>
        <time>2019-10-29T18:09:09Z</time>
      </trkpt>
      <trkpt lat="44.99059" lon="1.08064">
        <ele>138.563</ele>
        <time>2019-10-29T18:08:49Z</time>
      </trkpt>
      <trkpt lat="44.99099" lon="1.08072">
        <ele>135.917</ele>
        <time>2019-10-29T18:08:29Z</time>
      </trkpt>
      <trkpt lat="44.9916" lon="1.08061">
        <ele>134.108</ele>
        <time>2019-10-29T18:08:09Z</time>
      </trkpt>
      <trkpt lat="44.99202" lon="1.08087">
        <ele>136.505</ele>
        <time>2019-10-29T18:07:49Z</time>
      </trkpt>
      <trkpt lat="44.99327" lon="1.08142">
        <ele>134.332</ele>
        <time>2019-10-29T18:07:29Z</time>
      </trkpt>
      <trkpt lat="44.9938" lon="1.08136">
        <ele>131.712</ele>
        <time>2019-10-29T18:07:09Z</time>
      </trkpt>
      <trkpt lat="44.99455" lon="1.08145">
        <ele>132.727</ele>
        <time>2019-10-29T18:06:49Z</time>
      </trkpt>
      <trkpt lat="44.99517" lon="1.08176">
        <ele>133.538</ele>
        <time>2019-10-29T18:06:29Z</time>
      </trkpt>
      <trkpt lat="44.99533" lon="1.08215">
        <ele>132.892</ele>
        <time>2019-10-29T18:06:09Z</time>
      </trkpt>
      <trkpt lat="44.99511" lon="1.08341">
        <ele>130.23</ele>
        <time>2019-10-29T18:05:49Z</time>
      </trkpt>
      <trkpt lat="44.99398" lon="1.08562">
        <ele>137.044</ele>
        <time>2019-10-29T18:05:29Z</time>
      </trkpt>
      <trkpt lat="44.99185" lon="1.08732">
        <ele>145.041</ele>
        <time>2019-10-29T18:05:09Z</time>
      </trkpt>
      <trkpt lat="44.99111" lon="1.08739">
        <ele>152.716</ele>
        <time>2019-10-29T18:04:49Z</time>
      </trkpt>
      <trkpt lat="44.99019" lon="1.08797">
        <ele>161.33</ele>
        <time>2019-10-29T18:04:29Z</time>
      </trkpt>
      <trkpt lat="44.98972" lon="1.08846">
        <ele>164.208</ele>
        <time>2019-10-29T18:04:09Z</time>
      </trkpt>
      <trkpt lat="44.98943" lon="1.08843">
        <ele>171.316</ele>
        <time>2019-10-29T18:03:49Z</time>
      </trkpt>
      <trkpt lat="44.98933" lon="1.0889">
        <ele>170.488</ele>
        <time>2019-10-29T18:03:29Z</time>
      </trkpt>
      <trkpt lat="44.98896" lon="1.0896">
        <ele>176.146</ele>
        <time>2019-10-29T18:03:09Z</time>
      </trkpt>
      <trkpt lat="44.98853" lon="1.09015">
        <ele>181.229</ele>
        <time>2019-10-29T18:02:49Z</time>
      </trkpt>
      <trkpt lat="44.98846" lon="1.0904">
        <ele>181.97</ele>
        <time>2019-10-29T18:02:29Z</time>
      </trkpt>
      <trkpt lat="44.9882" lon="1.09079">
        <ele>186.064</ele>
        <time>2019-10-29T18:02:09Z</time>
      </trkpt>
      <trkpt lat="44.98798" lon="1.09147">
        <ele>190.232</ele>
        <time>2019-10-29T18:01:49Z</time>
      </trkpt>
      <trkpt lat="44.98789" lon="1.09199">
        <ele>192.416</ele>
        <time>2019-10-29T18:01:29Z</time>
      </trkpt>
      <trkpt lat="44.98812" lon="1.09207">
        <ele>186.383</ele>
        <time>2019-10-29T18:01:09Z</time>
      </trkpt>
      <trkpt lat="44.98819" lon="1.09266">
        <ele>187.728</ele>
        <time>2019-10-29T18:00:49Z</time>
      </trkpt>
      <trkpt lat="44.98846" lon="1.09284">
        <ele>187.352</ele>
        <time>2019-10-29T18:00:29Z</time>
      </trkpt>
      <trkpt lat="44.98858" lon="1.0931">
        <ele>189.308</ele>
        <time>2019-10-29T18:00:09Z</time>
      </trkpt>
      <trkpt lat="44.98869" lon="1.09271">
        <ele>188.921</ele>
        <time>2019-10-29T17:59:49Z</time>
      </trkpt>
      <trkpt lat="44.98895" lon="1.09238">
        <ele>189.529</ele>
        <time>2019-10-29T17:59:29Z</time>
      </trkpt>
      <trkpt lat="44.98929" lon="1.09131">
        <ele>186.066</ele>
        <time>2019-10-29T17:59:09Z</time>
      </trkpt>
      <trkpt lat="44.98994" lon="1.09141">
        <ele>194.834</ele>
        <time>2019-10-29T17:58:49Z</time>
      </trkpt>
      <trkpt lat="44.99006" lon="1.09129">
        <ele>195.085</ele>
        <time>2019-10-29T17:58:29Z</time>
      </trkpt>
      <trkpt lat="44.99044" lon="1.09132">
        <ele>200.529</ele>
        <time>2019-10-29T17:58:09Z</time>
      </trkpt>
      <trkpt lat="44.99089" lon="1.09155">
        <ele>199.067</ele>
        <time>2019-10-29T17:57:49Z</time>
      </trkpt>
      <trkpt lat="44.9911" lon="1.09246">
        <ele>206.811</ele>
        <time>2019-10-29T17:57:29Z</time>
      </trkpt>
      <trkpt lat="44.9911" lon="1.093">
        <ele>212.498</ele>
        <time>2019-10-29T17:57:09Z</time>
      </trkpt>
      <trkpt lat="44.99156" lon="1.09334">
        <ele>218.033</ele>
        <time>2019-10-29T17:56:49Z</time>
      </trkpt>
      <trkpt lat="44.99196" lon="1.09319">
        <ele>219.097</ele>
        <time>2019-10-29T17:56:29Z</time>
      </trkpt>
      <trkpt lat="44.99281" lon="1.0925">
        <ele>211.208</ele>
        <time>2019-10-29T17:56:09Z</time>
      </trkpt>
      <trkpt lat="44.99304" lon="1.09261">
        <ele>213.703</ele>
        <time>2019-10-29T17:55:49Z</time>
      </trkpt>
      <trkpt lat="44.99325" lon="1.09308">
        <ele>217.521</ele>
        <time>2019-10-29T17:55:29Z</time>
      </trkpt>
      <trkpt lat="44.99459" lon="1.0909">
        <ele>209.411</ele>
        <time>2019-10-29T17:55:09Z</time>
      </trkpt>
      <trkpt lat="44.99577" lon="1.08981">
        <ele>203.794</ele>
        <time>2019-10-29T17:54:49Z</time>
      </trkpt>
      <trkpt lat="44.99647" lon="1.08937">
        <ele>202.735</ele>
        <time>2019-10-29T17:54:29Z</time>
      </trkpt>
      <trkpt lat="44.99685" lon="1.08906">
        <ele>203.829</ele>
        <time>2019-10-29T17:54:09Z</time>
      </trkpt>
      <trkpt lat="44.99734" lon="1.0889">
        <ele>203.137</ele>
        <time>2019-10-29T17:53:49Z</time>
      </trkpt>
      <trkpt lat="44.99816" lon="1.08815">
        <ele>200.681</ele>
        <time>2019-10-29T17:53:29Z</time>
      </trkpt>
      <trkpt lat="44.99869" lon="1.08789">
        <ele>198.928</ele>
        <time>2019-10-29T17:53:09Z</time>
      </trkpt>
      <trkpt lat="44.99959" lon="1.08783">
        <ele>186.653</ele>
        <time>2019-10-29T17:52:49Z</time>
      </trkpt>
      <trkpt lat="45.00021" lon="1.08744">
        <ele>175.397</ele>
        <time>2019-10-29T17:52:29Z</time>
      </trkpt>
      <trkpt lat="45.0004" lon="1.08692">
        <ele>170.408</ele>
        <time>2019-10-29T17:52:09Z</time>
      </trkpt>
      <trkpt lat="45.00029" lon="1.08599">
        <ele>164.909</ele>
        <time>2019-10-29T17:51:49Z</time>
      </trkpt>
      <trkpt lat="45.00041" lon="1.08578">
        <ele>164.854</ele>
        <time>2019-10-29T17:51:29Z</time>
      </trkpt>
      <trkpt lat="45.00084" lon="1.08591">
        <ele>161.314</ele>
        <time>2019-10-29T17:51:09Z</time>
      </trkpt>
      <trkpt lat="45.00233" lon="1.08586">
        <ele>142.622</ele>
        <time>2019-10-29T17:50:49Z</time>
      </trkpt>
      <trkpt lat="45.00286" lon="1.0855">
        <ele>136.553</ele>
        <time>2019-10-29T17:50:29Z</time>
      </trkpt>
      <trkpt lat="45.00353" lon="1.08524">
        <ele>129.317</ele>
        <time>2019-10-29T17:50:09Z</time>
      </trkpt>
      <trkpt lat="45.00418" lon="1.08485">
        <ele>125.955</ele>
        <time>2019-10-29T17:49:49Z</time>
      </trkpt>
      <trkpt lat="45.00464" lon="1.08462">
        <ele>120.569</ele>
        <time>2019-10-29T17:49:29Z</time>
      </trkpt>
      <trkpt lat="45.00507" lon="1.08462">
        <ele>114.476</ele>
        <time>2019-10-29T17:49:09Z</time>
      </trkpt>
      <trkpt lat="45.00552" lon="1.08435">
        <ele>107.991</ele>
        <time>2019-10-29T17:48:49Z</time>
      </trkpt>
      <trkpt lat="45.00578" lon="1.0843">
        <ele>107.415</ele>
        <time>2019-10-29T17:48:29Z</time>
      </trkpt>
      <trkpt lat="45.00625" lon="1.08378">
        <ele>106.808</ele>
        <time>2019-10-29T17:48:09Z</time>
      </trkpt>
      <trkpt lat="45.00691" lon="1.08394">
        <ele>101.227</ele>
        <time>2019-10-29T17:47:49Z</time>
      </trkpt>
      <trkpt lat="45.00709" lon="1.08386">
        <ele>100.007</ele>
        <time>2019-10-29T17:47:29Z</time>
      </trkpt>
      <trkpt lat="45.00758" lon="1.08292">
        <ele>101.299</ele>
        <time>2019-10-29T17:47:09Z</time>
      </trkpt>
      <trkpt lat="45.00792" lon="1.0828">
        <ele>100.358</ele>
        <time>2019-10-29T17:46:49Z</time>
      </trkpt>
      <trkpt lat="45.00919" lon="1.08256">
        <ele>93.589</ele>
        <time>2019-10-29T17:46:29Z</time>
      </trkpt>
      <trkpt lat="45.00976" lon="1.08227">
        <ele>92.593</ele>
        <time>2019-10-29T17:46:09Z</time>
      </trkpt>
      <trkpt lat="45.0112" lon="1.0865">
        <ele>85.011</ele>
        <time>2019-10-29T17:45:49Z</time>
      </trkpt>
      <trkpt lat="45.01089" lon="1.08876">
        <ele>72.275</ele>
        <time>2019-10-29T17:45:29Z</time>
      </trkpt>
      <trkpt lat="45.01069" lon="1.08931">
        <ele>73.552</ele>
        <time>2019-10-29T17:45:09Z</time>
      </trkpt>
      <trkpt lat="45.0103" lon="1.08955">
        <ele>72.967</ele>
        <time>2019-10-29T17:44:49Z</time>
      </trkpt>
      <trkpt lat="45.01017" lon="1.09009">
        <ele>73.491</ele>
        <time>2019-10-29T17:44:29Z</time>
      </trkpt>
      <trkpt lat="45.01008" lon="1.09321">
        <ele>74.008</ele>
        <time>2019-10-29T17:44:09Z</time>
      </trkpt>
      <trkpt lat="45.01032" lon="1.093">
        <ele>75.814</ele>
        <time>2019-10-29T17:43:49Z</time>
      </trkpt>
      <trkpt lat="45.01081" lon="1.09357">
        <ele>76.759</ele>
        <time>2019-10-29T17:43:29Z</time>
      </trkpt>
      <trkpt lat="45.01168" lon="1.09533">
        <ele>91.956</ele>
        <time>2019-10-29T17:43:09Z</time>
      </trkpt>
      <trkpt lat="45.01234" lon="1.09559">
        <ele>101.354</ele>
        <time>2019-10-29T17:42:49Z</time>
      </trkpt>
      <trkpt lat="45.01312" lon="1.09632">
        <ele>111.215</ele>
        <time>2019-10-29T17:42:29Z</time>
      </trkpt>
      <trkpt lat="45.01377" lon="1.09658">
        <ele>122.429</ele>
        <time>2019-10-29T17:42:09Z</time>
      </trkpt>
      <trkpt lat="45.01411" lon="1.09677">
        <ele>131.047</ele>
        <time>2019-10-29T17:41:49Z</time>
      </trkpt>
      <trkpt lat="45.01431" lon="1.09726">
        <ele>136.091</ele>
        <time>2019-10-29T17:41:29Z</time>
      </trkpt>
      <trkpt lat="45.01499" lon="1.09804">
        <ele>149.888</ele>
        <time>2019-10-29T17:41:09Z</time>
      </trkpt>
      <trkpt lat="45.01562" lon="1.09835">
        <ele>156.773</ele>
        <time>2019-10-29T17:40:49Z</time>
      </trkpt>
      <trkpt lat="45.01759" lon="1.09674">
        <ele>178.687</ele>
        <time>2019-10-29T17:40:29Z</time>
      </trkpt>
      <trkpt lat="45.01807" lon="1.09668">
        <ele>179.808</ele>
        <time>2019-10-29T17:40:09Z</time>
      </trkpt>
      <trkpt lat="45.01867" lon="1.09684">
        <ele>175.013</ele>
        <time>2019-10-29T17:39:49Z</time>
      </trkpt>
      <trkpt lat="45.01926" lon="1.09682">
        <ele>172.976</ele>
        <time>2019-10-29T17:39:29Z</time>
      </trkpt>
      <trkpt lat="45.02113" lon="1.09708">
        <ele>181.116</ele>
        <time>2019-10-29T17:39:09Z</time>
      </trkpt>
      <trkpt lat="45.02242" lon="1.09681">
        <ele>201.725</ele>
        <time>2019-10-29T17:38:49Z</time>
      </trkpt>
      <trkpt lat="45.02291" lon="1.09619">
        <ele>209.046</ele>
        <time>2019-10-29T17:38:29Z</time>
      </trkpt>
      <trkpt lat="45.02349" lon="1.09511">
        <ele>214.13</ele>
        <time>2019-10-29T17:38:09Z</time>
      </trkpt>
      <trkpt lat="45.02383" lon="1.09422">
        <ele>208.378</ele>
        <time>2019-10-29T17:37:49Z</time>
      </trkpt>
      <trkpt lat="45.02418" lon="1.09357">
        <ele>209.152</ele>
        <time>2019-10-29T17:37:29Z</time>
      </trkpt>
      <trkpt lat="45.02466" lon="1.09303">
        <ele>205.089</ele>
        <time>2019-10-29T17:37:09Z</time>
      </trkpt>
      <trkpt lat="45.02522" lon="1.0922">
        <ele>209.994</ele>
        <time>2019-10-29T17:36:49Z</time>
      </trkpt>
      <trkpt lat="45.02557" lon="1.09188">
        <ele>212.728</ele>
        <time>2019-10-29T17:36:29Z</time>
      </trkpt>
      <trkpt lat="45.02683" lon="1.0916">
        <ele>219.508</ele>
        <time>2019-10-29T17:36:09Z</time>
      </trkpt>
      <trkpt lat="45.02782" lon="1.09092">
        <ele>213.008</ele>
        <time>2019-10-29T17:35:49Z</time>
      </trkpt>
      <trkpt lat="45.02835" lon="1.09098">
        <ele>216.126</ele>
        <time>2019-10-29T17:35:29Z</time>
      </trkpt>
      <trkpt lat="45.0289" lon="1.09076">
        <ele>218.825</ele>
        <time>2019-10-29T17:35:09Z</time>
      </trkpt>
      <trkpt lat="45.02961" lon="1.09076">
        <ele>222.541</ele>
        <time>2019-10-29T17:34:49Z</time>
      </trkpt>
      <trkpt lat="45.03031" lon="1.09038">
        <ele>221.062</ele>
        <time>2019-10-29T17:34:29Z</time>
      </trkpt>
      <trkpt lat="45.03037" lon="1.09061">
        <ele>223.116</ele>
        <time>2019-10-29T17:34:09Z</time>
      </trkpt>
      <trkpt lat="45.03024" lon="1.09145">
        <ele>226.964</ele>
        <time>2019-10-29T17:33:49Z</time>
      </trkpt>
      <trkpt lat="45.03013" lon="1.09246">
        <ele>222.188</ele>
        <time>2019-10-29T17:33:29Z</time>
      </trkpt>
      <trkpt lat="45.02984" lon="1.09323">
        <ele>220.075</ele>
        <time>2019-10-29T17:33:09Z</time>
      </trkpt>
      <trkpt lat="45.02977" lon="1.09386">
        <ele>218.04</ele>
        <time>2019-10-29T17:32:49Z</time>
      </trkpt>
      <trkpt lat="45.02998" lon="1.09427">
        <ele>212.234</ele>
        <time>2019-10-29T17:32:29Z</time>
      </trkpt>
      <trkpt lat="45.03077" lon="1.0944">
        <ele>204.608</ele>
        <time>2019-10-29T17:32:09Z</time>
      </trkpt>
      <trkpt lat="45.03096" lon="1.09472">
        <ele>197.817</ele>
        <time>2019-10-29T17:31:49Z</time>
      </trkpt>
      <trkpt lat="45.03087" lon="1.09529">
        <ele>193.507</ele>
        <time>2019-10-29T17:31:29Z</time>
      </trkpt>
      <trkpt lat="45.03051" lon="1.09609">
        <ele>191.884</ele>
        <time>2019-10-29T17:31:09Z</time>
      </trkpt>
      <trkpt lat="45.03053" lon="1.09775">
        <ele>183.715</ele>
        <time>2019-10-29T17:30:49Z</time>
      </trkpt>
      <trkpt lat="45.03067" lon="1.09811">
        <ele>184.416</ele>
        <time>2019-10-29T17:30:29Z</time>
      </trkpt>
      <trkpt lat="45.03068" lon="1.0992">
        <ele>183.03</ele>
        <time>2019-10-29T17:30:09Z</time>
      </trkpt>
      <trkpt lat="45.03059" lon="1.09946">
        <ele>182.478</ele>
        <time>2019-10-29T17:29:49Z</time>
      </trkpt>
      <trkpt lat="45.03096" lon="1.09998">
        <ele>175.712</ele>
        <time>2019-10-29T17:29:29Z</time>
      </trkpt>
      <trkpt lat="45.03095" lon="1.10058">
        <ele>168.659</ele>
        <time>2019-10-29T17:29:09Z</time>
      </trkpt>
      <trkpt lat="45.03067" lon="1.10098">
        <ele>164.184</ele>
        <time>2019-10-29T17:28:49Z</time>
      </trkpt>
      <trkpt lat="45.02996" lon="1.1016">
        <ele>160.428</ele>
        <time>2019-10-29T17:28:29Z</time>
      </trkpt>
      <trkpt lat="45.02972" lon="1.10214">
        <ele>157.908</ele>
        <time>2019-10-29T17:28:09Z</time>
      </trkpt>
      <trkpt lat="45.02974" lon="1.10323">
        <ele>145.211</ele>
        <time>2019-10-29T17:27:49Z</time>
      </trkpt>
      <trkpt lat="45.02952" lon="1.10407">
        <ele>128.583</ele>
        <time>2019-10-29T17:27:29Z</time>
      </trkpt>
      <trkpt lat="45.02951" lon="1.10555">
        <ele>114.823</ele>
        <time>2019-10-29T17:27:09Z</time>
      </trkpt>
      <trkpt lat="45.02936" lon="1.10744">
        <ele>90.479</ele>
        <time>2019-10-29T17:26:49Z</time>
      </trkpt>
      <trkpt lat="45.02868" lon="1.10807">
        <ele>87.49</ele>
        <time>2019-10-29T17:26:29Z</time>
      </trkpt>
      <trkpt lat="45.0291" lon="1.10944">
        <ele>79.064</ele>
        <time>2019-10-29T17:26:09Z</time>
      </trkpt>
      <trkpt lat="45.02976" lon="1.11068">
        <ele>81.662</ele>
        <time>2019-10-29T17:25:49Z</time>
      </trkpt>
      <trkpt lat="45.03028" lon="1.11108">
        <ele>88.446</ele>
        <time>2019-10-29T17:25:29Z</time>
      </trkpt>
      <trkpt lat="45.03138" lon="1.11128">
        <ele>93.573</ele>
        <time>2019-10-29T17:25:09Z</time>
      </trkpt>
      <trkpt lat="45.03223" lon="1.11159">
        <ele>91.858</ele>
        <time>2019-10-29T17:24:49Z</time>
      </trkpt>
      <trkpt lat="45.03277" lon="1.11219">
        <ele>96.882</ele>
        <time>2019-10-29T17:24:29Z</time>
      </trkpt>
      <trkpt lat="45.03321" lon="1.11312">
        <ele>99.608</ele>
        <time>2019-10-29T17:24:09Z</time>
      </trkpt>
      <trkpt lat="45.0337" lon="1.11373">
        <ele>102.211</ele>
        <time>2019-10-29T17:23:49Z</time>
      </trkpt>
      <trkpt lat="45.03476" lon="1.11442">
        <ele>99.883</ele>
        <time>2019-10-29T17:23:29Z</time>
      </trkpt>
      <trkpt lat="45.03467" lon="1.11481">
        <ele>105.662</ele>
        <time>2019-10-29T17:23:09Z</time>
      </trkpt>
      <trkpt lat="45.03383" lon="1.11562">
        <ele>123.595</ele>
        <time>2019-10-29T17:22:49Z</time>
      </trkpt>
      <trkpt lat="45.03342" lon="1.11632">
        <ele>130.856</ele>
        <time>2019-10-29T17:22:29Z</time>
      </trkpt>
      <trkpt lat="45.03304" lon="1.11715">
        <ele>144.08</ele>
        <time>2019-10-29T17:22:09Z</time>
      </trkpt>
      <trkpt lat="45.03287" lon="1.11803">
        <ele>154.168</ele>
        <time>2019-10-29T17:21:49Z</time>
      </trkpt>
      <trkpt lat="45.03261" lon="1.11739">
        <ele>156.292</ele>
        <time>2019-10-29T17:21:29Z</time>
      </trkpt>
      <trkpt lat="45.03229" lon="1.11699">
        <ele>156.249</ele>
        <time>2019-10-29T17:21:09Z</time>
      </trkpt>
      <trkpt lat="45.03192" lon="1.11702">
        <ele>155.894</ele>
        <time>2019-10-29T17:20:49Z</time>
      </trkpt>
      <trkpt lat="45.0317" lon="1.11723">
        <ele>154.378</ele>
        <time>2019-10-29T17:20:29Z</time>
      </trkpt>
      <trkpt lat="45.03282" lon="1.1192">
        <ele>165.908</ele>
        <time>2019-10-29T17:20:09Z</time>
      </trkpt>
      <trkpt lat="45.0333" lon="1.11978">
        <ele>169.108</ele>
        <time>2019-10-29T17:19:49Z</time>
      </trkpt>
      <trkpt lat="45.0337" lon="1.11999">
        <ele>173.262</ele>
        <time>2019-10-29T17:19:29Z</time>
      </trkpt>
      <trkpt lat="45.03557" lon="1.11908">
        <ele>181.122</ele>
        <time>2019-10-29T17:19:09Z</time>
      </trkpt>
      <trkpt lat="45.03591" lon="1.11923">
        <ele>183.452</ele>
        <time>2019-10-29T17:18:49Z</time>
      </trkpt>
      <trkpt lat="45.03581" lon="1.12029">
        <ele>188.183</ele>
        <time>2019-10-29T17:18:29Z</time>
      </trkpt>
      <trkpt lat="45.03594" lon="1.1213">
        <ele>190.367</ele>
        <time>2019-10-29T17:18:09Z</time>
      </trkpt>
      <trkpt lat="45.03628" lon="1.12245">
        <ele>185.755</ele>
        <time>2019-10-29T17:17:49Z</time>
      </trkpt>
      <trkpt lat="45.03619" lon="1.12305">
        <ele>186.279</ele>
        <time>2019-10-29T17:17:29Z</time>
      </trkpt>
      <trkpt lat="45.03722" lon="1.12334">
        <ele>185.016</ele>
        <time>2019-10-29T17:17:09Z</time>
      </trkpt>
      <trkpt lat="45.03917" lon="1.12362">
        <ele>175.911</ele>
        <time>2019-10-29T17:16:49Z</time>
      </trkpt>
      <trkpt lat="45.03987" lon="1.12364">
        <ele>171.765</ele>
        <time>2019-10-29T17:16:29Z</time>
      </trkpt>
      <trkpt lat="45.04146" lon="1.12274">
        <ele>184.508</ele>
        <time>2019-10-29T17:16:09Z</time>
      </trkpt>
      <trkpt lat="45.04178" lon="1.12278">
        <ele>187.822</ele>
        <time>2019-10-29T17:15:49Z</time>
      </trkpt>
      <trkpt lat="45.0422" lon="1.12308">
        <ele>196.057</ele>
        <time>2019-10-29T17:15:29Z</time>
      </trkpt>
      <trkpt lat="45.04302" lon="1.12351">
        <ele>192.094</ele>
        <time>2019-10-29T17:15:09Z</time>
      </trkpt>
      <trkpt lat="45.04333" lon="1.1239">
        <ele>191.974</ele>
        <time>2019-10-29T17:14:49Z</time>
      </trkpt>
      <trkpt lat="45.04345" lon="1.12435">
        <ele>189.285</ele>
        <time>2019-10-29T17:14:29Z</time>
      </trkpt>
      <trkpt lat="45.04374" lon="1.12458">
        <ele>186.669</ele>
        <time>2019-10-29T17:14:09Z</time>
      </trkpt>
      <trkpt lat="45.04468" lon="1.12484">
        <ele>190.067</ele>
        <time>2019-10-29T17:13:49Z</time>
      </trkpt>
      <trkpt lat="45.04524" lon="1.12517">
        <ele>194.131</ele>
        <time>2019-10-29T17:13:29Z</time>
      </trkpt>
      <trkpt lat="45.0463" lon="1.12565">
        <ele>207.638</ele>
        <time>2019-10-29T17:13:09Z</time>
      </trkpt>
      <trkpt lat="45.04665" lon="1.12508">
        <ele>210.783</ele>
        <time>2019-10-29T17:12:49Z</time>
      </trkpt>
      <trkpt lat="45.04717" lon="1.12494">
        <ele>210.857</ele>
        <time>2019-10-29T17:12:29Z</time>
      </trkpt>
      <trkpt lat="45.04758" lon="1.12453">
        <ele>209.208</ele>
        <time>2019-10-29T17:12:09Z</time>
      </trkpt>
      <trkpt lat="45.04816" lon="1.12489">
        <ele>216.711</ele>
        <time>2019-10-29T17:11:49Z</time>
      </trkpt>
      <trkpt lat="45.04863" lon="1.1244">
        <ele>219.165</ele>
        <time>2019-10-29T17:11:29Z</time>
      </trkpt>
      <trkpt lat="45.04934" lon="1.12443">
        <ele>223.715</ele>
        <time>2019-10-29T17:11:09Z</time>
      </trkpt>
      <trkpt lat="45.05027" lon="1.1246">
        <ele>222.472</ele>
        <time>2019-10-29T17:10:49Z</time>
      </trkpt>
      <trkpt lat="45.05148" lon="1.12432">
        <ele>220.813</ele>
        <time>2019-10-29T17:10:29Z</time>
      </trkpt>
      <trkpt lat="45.05225" lon="1.12417">
        <ele>221.117</ele>
        <time>2019-10-29T17:10:09Z</time>
      </trkpt>
      <trkpt lat="45.05274" lon="1.12603">
        <ele>213.785</ele>
        <time>2019-10-29T17:09:49Z</time>
      </trkpt>
      <trkpt lat="45.05312" lon="1.12718">
        <ele>216.399</ele>
        <time>2019-10-29T17:09:29Z</time>
      </trkpt>
      <trkpt lat="45.05302" lon="1.12852">
        <ele>215.566</ele>
        <time>2019-10-29T17:09:09Z</time>
      </trkpt>
      <trkpt lat="45.05309" lon="1.12926">
        <ele>212.641</ele>
        <time>2019-10-29T17:08:49Z</time>
      </trkpt>
      <trkpt lat="45.05321" lon="1.13022">
        <ele>211.395</ele>
        <time>2019-10-29T17:08:29Z</time>
      </trkpt>
      <trkpt lat="45.05321" lon="1.13167">
        <ele>206.608</ele>
        <time>2019-10-29T17:08:09Z</time>
      </trkpt>
      <trkpt lat="45.05304" lon="1.13216">
        <ele>203.32</ele>
        <time>2019-10-29T17:07:49Z</time>
      </trkpt>
      <trkpt lat="45.05341" lon="1.13322">
        <ele>200.673</ele>
        <time>2019-10-29T17:07:29Z</time>
      </trkpt>
      <trkpt lat="45.05426" lon="1.13447">
        <ele>190.892</ele>
        <time>2019-10-29T17:07:09Z</time>
      </trkpt>
      <trkpt lat="45.05462" lon="1.13453">
        <ele>185.519</ele>
        <time>2019-10-29T17:06:49Z</time>
      </trkpt>
      <trkpt lat="45.05513" lon="1.13499">
        <ele>173.25</ele>
        <time>2019-10-29T17:06:29Z</time>
      </trkpt>
      <trkpt lat="45.05555" lon="1.13574">
        <ele>165.244</ele>
        <time>2019-10-29T17:06:09Z</time>
      </trkpt>
      <trkpt lat="45.05576" lon="1.13593">
        <ele>159.032</ele>
        <time>2019-10-29T17:05:49Z</time>
      </trkpt>
      <trkpt lat="45.05653" lon="1.13504">
        <ele>142.076</ele>
        <time>2019-10-29T17:05:29Z</time>
      </trkpt>
      <trkpt lat="45.05763" lon="1.1351">
        <ele>127.063</ele>
        <time>2019-10-29T17:05:09Z</time>
      </trkpt>
      <trkpt lat="45.05777" lon="1.13535">
        <ele>124.638</ele>
        <time>2019-10-29T17:04:49Z</time>
      </trkpt>
      <trkpt lat="45.05771" lon="1.1366">
        <ele>115.622</ele>
        <time>2019-10-29T17:04:29Z</time>
      </trkpt>
      <trkpt lat="45.0578" lon="1.13694">
        <ele>114.808</ele>
        <time>2019-10-29T17:04:09Z</time>
      </trkpt>
      <trkpt lat="45.05814" lon="1.13544">
        <ele>119.216</ele>
        <time>2019-10-29T17:03:49Z</time>
      </trkpt>
      <trkpt lat="45.05813" lon="1.13346">
        <ele>124.106</ele>
        <time>2019-10-29T17:03:29Z</time>
      </trkpt>
      <trkpt lat="45.05851" lon="1.1318">
        <ele>124.364</ele>
        <time>2019-10-29T17:03:09Z</time>
      </trkpt>
      <trkpt lat="45.05904" lon="1.13047">
        <ele>128.937</ele>
        <time>2019-10-29T17:02:49Z</time>
      </trkpt>
      <trkpt lat="45.05927" lon="1.12961">
        <ele>129.378</ele>
        <time>2019-10-29T17:02:29Z</time>
      </trkpt>
      <trkpt lat="45.05903" lon="1.12918">
        <ele>133.052</ele>
        <time>2019-10-29T17:02:09Z</time>
      </trkpt>
      <trkpt lat="45.05907" lon="1.12869">
        <ele>133.75</ele>
        <time>2019-10-29T17:01:49Z</time>
      </trkpt>
      <trkpt lat="45.05985" lon="1.127">
        <ele>141.454</ele>
        <time>2019-10-29T17:01:29Z</time>
      </trkpt>
      <trkpt lat="45.06013" lon="1.12578">
        <ele>147.131</ele>
        <time>2019-10-29T17:01:09Z</time>
      </trkpt>
      <trkpt lat="45.06016" lon="1.12536">
        <ele>151.546</ele>
        <time>2019-10-29T17:00:49Z</time>
      </trkpt>
      <trkpt lat="45.05979" lon="1.12386">
        <ele>160.69</ele>
        <time>2019-10-29T17:00:29Z</time>
      </trkpt>
      <trkpt lat="45.0598" lon="1.12325">
        <ele>162.208</ele>
        <time>2019-10-29T17:00:09Z</time>
      </trkpt>
      <trkpt lat="45.0602" lon="1.12252">
        <ele>174.51</ele>
        <time>2019-10-29T16:59:49Z</time>
      </trkpt>
      <trkpt lat="45.06034" lon="1.12208">
        <ele>185.264</ele>
        <time>2019-10-29T16:59:29Z</time>
      </trkpt>
      <trkpt lat="45.06104" lon="1.12154">
        <ele>189.543</ele>
        <time>2019-10-29T16:59:09Z</time>
      </trkpt>
      <trkpt lat="45.06166" lon="1.12066">
        <ele>204.812</ele>
        <time>2019-10-29T16:58:49Z</time>
      </trkpt>
      <trkpt lat="45.06199" lon="1.12055">
        <ele>205.113</ele>
        <time>2019-10-29T16:58:29Z</time>
      </trkpt>
      <trkpt lat="45.06348" lon="1.12117">
        <ele>222.837</ele>
        <time>2019-10-29T16:58:09Z</time>
      </trkpt>
      <trkpt lat="45.06429" lon="1.12136">
        <ele>225.985</ele>
        <time>2019-10-29T16:57:49Z</time>
      </trkpt>
      <trkpt lat="45.06509" lon="1.12022">
        <ele>225.769</ele>
        <time>2019-10-29T16:57:29Z</time>
      </trkpt>
      <trkpt lat="45.06583" lon="1.11949">
        <ele>228.916</ele>
        <time>2019-10-29T16:57:09Z</time>
      </trkpt>
      <trkpt lat="45.0649" lon="1.11933">
        <ele>222.831</ele>
        <time>2019-10-29T16:56:49Z</time>
      </trkpt>
      <trkpt lat="45.06406" lon="1.119">
        <ele>220.455</ele>
        <time>2019-10-29T16:56:29Z</time>
      </trkpt>
      <trkpt lat="45.06361" lon="1.11868">
        <ele>220.508</ele>
        <time>2019-10-29T16:56:09Z</time>
      </trkpt>
      <trkpt lat="45.06267" lon="1.11812">
        <ele>218.723</ele>
        <time>2019-10-29T16:55:49Z</time>
      </trkpt>
      <trkpt lat="45.06191" lon="1.11713">
        <ele>213.349</ele>
        <time>2019-10-29T16:55:29Z</time>
      </trkpt>
      <trkpt lat="45.06152" lon="1.11629">
        <ele>209.595</ele>
        <time>2019-10-29T16:55:09Z</time>
      </trkpt>
      <trkpt lat="45.06132" lon="1.11603">
        <ele>207.638</ele>
        <time>2019-10-29T16:54:49Z</time>
      </trkpt>
      <trkpt lat="45.06139" lon="1.11547">
        <ele>207.459</ele>
        <time>2019-10-29T16:54:29Z</time>
      </trkpt>
      <trkpt lat="45.06053" lon="1.11447">
        <ele>203.113</ele>
        <time>2019-10-29T16:54:09Z</time>
      </trkpt>
      <trkpt lat="45.06018" lon="1.11355">
        <ele>206.371</ele>
        <time>2019-10-29T16:53:49Z</time>
      </trkpt>
      <trkpt lat="45.06016" lon="1.11274">
        <ele>209.985</ele>
        <time>2019-10-29T16:53:29Z</time>
      </trkpt>
      <trkpt lat="45.0605" lon="1.11149">
        <ele>199.772</ele>
        <time>2019-10-29T16:53:09Z</time>
      </trkpt>
      <trkpt lat="45.06053" lon="1.11066">
        <ele>193.747</ele>
        <time>2019-10-29T16:52:49Z</time>
      </trkpt>
      <trkpt lat="45.06038" lon="1.11012">
        <ele>190.341</ele>
        <time>2019-10-29T16:52:29Z</time>
      </trkpt>
      <trkpt lat="45.06026" lon="1.10894">
        <ele>183.408</ele>
        <time>2019-10-29T16:52:09Z</time>
      </trkpt>
      <trkpt lat="45.06046" lon="1.10837">
        <ele>179.511</ele>
        <time>2019-10-29T16:51:49Z</time>
      </trkpt>
      <trkpt lat="45.06099" lon="1.1077">
        <ele>165.656</ele>
        <time>2019-10-29T16:51:29Z</time>
      </trkpt>
      <trkpt lat="45.06202" lon="1.10666">
        <ele>141.354</ele>
        <time>2019-10-29T16:51:09Z</time>
      </trkpt>
      <trkpt lat="45.0623" lon="1.10609">
        <ele>132.324</ele>
        <time>2019-10-29T16:50:49Z</time>
      </trkpt>
      <trkpt lat="45.06246" lon="1.10523">
        <ele>123.455</ele>
        <time>2019-10-29T16:50:29Z</time>
      </trkpt>
      <trkpt lat="45.0626" lon="1.10489">
        <ele>119.589</ele>
        <time>2019-10-29T16:50:09Z</time>
      </trkpt>
      <trkpt lat="45.06299" lon="1.10492">
        <ele>118.017</ele>
        <time>2019-10-29T16:49:49Z</time>
      </trkpt>
      <trkpt lat="45.06298" lon="1.10333">
        <ele>121.551</ele>
        <time>2019-10-29T16:49:29Z</time>
      </trkpt>
      <trkpt lat="45.06325" lon="1.10253">
        <ele>127.548</ele>
        <time>2019-10-29T16:49:09Z</time>
      </trkpt>
      <trkpt lat="45.0632" lon="1.10141">
        <ele>141.363</ele>
        <time>2019-10-29T16:48:49Z</time>
      </trkpt>
      <trkpt lat="45.06338" lon="1.10033">
        <ele>157.437</ele>
        <time>2019-10-29T16:48:29Z</time>
      </trkpt>
      <trkpt lat="45.06376" lon="1.09928">
        <ele>175.708</ele>
        <time>2019-10-29T16:48:09Z</time>
      </trkpt>
      <trkpt lat="45.06424" lon="1.09864">
        <ele>193.819</ele>
        <time>2019-10-29T16:47:49Z</time>
      </trkpt>
      <trkpt lat="45.06438" lon="1.09827">
        <ele>199.409</ele>
        <time>2019-10-29T16:47:29Z</time>
      </trkpt>
      <trkpt lat="45.06432" lon="1.0978">
        <ele>198.319</ele>
        <time>2019-10-29T16:47:09Z</time>
      </trkpt>
      <trkpt lat="45.06452" lon="1.09707">
        <ele>212.892</ele>
        <time>2019-10-29T16:46:49Z</time>
      </trkpt>
      <trkpt lat="45.06429" lon="1.09672">
        <ele>211.273</ele>
        <time>2019-10-29T16:46:29Z</time>
      </trkpt>
      <trkpt lat="45.06426" lon="1.09628">
        <ele>214.287</ele>
        <time>2019-10-29T16:46:09Z</time>
      </trkpt>
      <trkpt lat="45.06453" lon="1.09555">
        <ele>216.685</ele>
        <time>2019-10-29T16:45:49Z</time>
      </trkpt>
      <trkpt lat="45.06358" lon="1.09494">
        <ele>214.929</ele>
        <time>2019-10-29T16:45:29Z</time>
      </trkpt>
      <trkpt lat="45.06304" lon="1.09471">
        <ele>215.166</ele>
        <time>2019-10-29T16:45:09Z</time>
      </trkpt>
      <trkpt lat="45.0627" lon="1.09412">
        <ele>217.781</ele>
        <time>2019-10-29T16:44:49Z</time>
      </trkpt>
      <trkpt lat="45.06231" lon="1.09402">
        <ele>220.215</ele>
        <time>2019-10-29T16:44:29Z</time>
      </trkpt>
      <trkpt lat="45.06161" lon="1.09313">
        <ele>208.908</ele>
        <time>2019-10-29T16:44:09Z</time>
      </trkpt>
      <trkpt lat="45.06131" lon="1.09201">
        <ele>195.827</ele>
        <time>2019-10-29T16:43:49Z</time>
      </trkpt>
      <trkpt lat="45.06088" lon="1.09167">
        <ele>184.907</ele>
        <time>2019-10-29T16:43:29Z</time>
      </trkpt>
      <trkpt lat="45.06051" lon="1.09157">
        <ele>174.599</ele>
        <time>2019-10-29T16:43:09Z</time>
      </trkpt>
      <trkpt lat="45.06024" lon="1.09137">
        <ele>167.744</ele>
        <time>2019-10-29T16:42:49Z</time>
      </trkpt>
      <trkpt lat="45.06022" lon="1.09043">
        <ele>158.365</ele>
        <time>2019-10-29T16:42:29Z</time>
      </trkpt>
      <trkpt lat="45.06059" lon="1.08929">
        <ele>146.459</ele>
        <time>2019-10-29T16:42:09Z</time>
      </trkpt>
      <trkpt lat="45.0609" lon="1.08885">
        <ele>142.317</ele>
        <time>2019-10-29T16:41:49Z</time>
      </trkpt>
      <trkpt lat="45.06162" lon="1.08835">
        <ele>142.191</ele>
        <time>2019-10-29T16:41:29Z</time>
      </trkpt>
      <trkpt lat="45.06132" lon="1.08726">
        <ele>133.368</ele>
        <time>2019-10-29T16:41:09Z</time>
      </trkpt>
      <trkpt lat="45.06126" lon="1.08596">
        <ele>140.923</ele>
        <time>2019-10-29T16:40:49Z</time>
      </trkpt>
      <trkpt lat="45.06143" lon="1.0831">
        <ele>148.317</ele>
        <time>2019-10-29T16:40:29Z</time>
      </trkpt>
      <trkpt lat="45.06178" lon="1.08188">
        <ele>149.308</ele>
        <time>2019-10-29T16:40:09Z</time>
      </trkpt>
      <trkpt lat="45.06154" lon="1.08147">
        <ele>146.011</ele>
        <time>2019-10-29T16:39:49Z</time>
      </trkpt>
      <trkpt lat="45.06181" lon="1.08069">
        <ele>155.465</ele>
        <time>2019-10-29T16:39:29Z</time>
      </trkpt>
      <trkpt lat="45.06252" lon="1.07945">
        <ele>171.415</ele>
        <time>2019-10-29T16:39:09Z</time>
      </trkpt>
      <trkpt lat="45.06298" lon="1.07838">
        <ele>171.678</ele>
        <time>2020-12-25T22:47:15Z</time>
      </trkpt>
      <trkpt lat="45.0629" lon="1.07599">
        <ele>190.149</ele>
        <time>2019-10-29T16:37:49Z</time>
      </trkpt>
      <trkpt lat="45.06275" lon="1.07596">
        <ele>194.233</ele>
        <time>2020-12-25T22:46:35Z</time>
      </trkpt>
      <trkpt lat="45.06245" lon="1.07627">
        <ele>197.961</ele>
        <time>2020-12-25T22:46:15Z</time>
      </trkpt>
      <trkpt lat="45.06209" lon="1.07682">
        <ele>200.065</ele>
        <time>2020-12-25T22:45:55Z</time>
      </trkpt>
      <trkpt lat="45.06189" lon="1.07684">
        <ele>204.222</ele>
        <time>2020-12-25T22:45:35Z</time>
      </trkpt>
      <trkpt lat="45.06199" lon="1.07588">
        <ele>214.157</ele>
        <time>2019-10-29T16:35:49Z</time>
      </trkpt>
      <trkpt lat="45.06231" lon="1.07493">
        <ele>213.741</ele>
        <time>2020-12-25T22:44:55Z</time>
      </trkpt>
      <trkpt lat="45.06182" lon="1.07447">
        <ele>225.508</ele>
        <time>2020-12-25T22:44:35Z</time>
      </trkpt>
      <trkpt lat="45.06126" lon="1.07362">
        <ele>232.411</ele>
        <time>2020-12-25T22:44:15Z</time>
      </trkpt>
      <trkpt lat="45.06091" lon="1.07257">
        <ele>237.601</ele>
        <time>2020-12-25T22:43:55Z</time>
      </trkpt>
      <trkpt lat="45.06034" lon="1.06989">
        <ele>250.051</ele>
        <time>2019-10-29T16:32:49Z</time>
      </trkpt>
      <trkpt lat="45.05973" lon="1.06846">
        <ele>253.635</ele>
        <time>2019-10-29T16:32:29Z</time>
      </trkpt>
      <trkpt lat="45.0603" lon="1.0677">
        <ele>253.046</ele>
        <time>2019-10-29T16:32:09Z</time>
      </trkpt>
      <trkpt lat="45.06049" lon="1.06683">
        <ele>250.63</ele>
        <time>2019-10-29T16:31:49Z</time>
      </trkpt>
      <trkpt lat="45.06173" lon="1.06583">
        <ele>250.298</ele>
        <time>2019-10-29T16:31:29Z</time>
      </trkpt>
      <trkpt lat="45.06356" lon="1.06563">
        <ele>255.272</ele>
        <time>2019-10-29T16:31:09Z</time>
      </trkpt>
      <trkpt lat="45.07036" lon="1.0642">
        <ele>258.759</ele>
        <time>2019-10-29T16:30:49Z</time>
      </trkpt>
      <trkpt lat="45.07234" lon="1.06466">
        <ele>264.534</ele>
        <time>2019-10-29T16:30:29Z</time>
      </trkpt>
      <trkpt lat="45.0751" lon="1.06454">
        <ele>264.638</ele>
        <time>2019-10-29T16:30:09Z</time>
      </trkpt>
      <trkpt lat="45.07743" lon="1.06472">
        <ele>262.808</ele>
        <time>2019-10-29T16:29:49Z</time>
      </trkpt>
      <trkpt lat="45.0765" lon="1.06288">
        <ele>265.411</ele>
        <time>2019-10-29T16:29:29Z</time>
      </trkpt>
      <trkpt lat="45.07612" lon="1.06158">
        <ele>260.347</ele>
        <time>2019-10-29T16:29:09Z</time>
      </trkpt>
      <trkpt lat="45.07574" lon="1.0608">
        <ele>256.826</ele>
        <time>2019-10-29T16:28:49Z</time>
      </trkpt>
      <trkpt lat="45.07512" lon="1.06025">
        <ele>253.589</ele>
        <time>2019-10-29T16:28:29Z</time>
      </trkpt>
      <trkpt lat="45.07466" lon="1.05877">
        <ele>256.64</ele>
        <time>2019-10-29T16:28:09Z</time>
      </trkpt>
      <trkpt lat="45.0743" lon="1.05615">
        <ele>247.774</ele>
        <time>2019-10-29T16:27:49Z</time>
      </trkpt>
      <trkpt lat="45.07444" lon="1.05493">
        <ele>246.792</ele>
        <time>2019-10-29T16:27:29Z</time>
      </trkpt>
      <trkpt lat="45.07454" lon="1.05335">
        <ele>239.446</ele>
        <time>2019-10-29T16:27:09Z</time>
      </trkpt>
      <trkpt lat="45.07419" lon="1.05182">
        <ele>236.113</ele>
        <time>2019-10-29T16:26:49Z</time>
      </trkpt>
      <trkpt lat="45.07416" lon="1.05088">
        <ele>232.348</ele>
        <time>2019-10-29T16:26:29Z</time>
      </trkpt>
      <trkpt lat="45.07421" lon="1.05056">
        <ele>228.832</ele>
        <time>2019-10-29T16:26:09Z</time>
      </trkpt>
      <trkpt lat="45.07526" lon="1.05059">
        <ele>219.808</ele>
        <time>2019-10-29T16:25:49Z</time>
      </trkpt>
      <trkpt lat="45.07643" lon="1.05127">
        <ele>207.713</ele>
        <time>2019-10-29T16:25:29Z</time>
      </trkpt>
      <trkpt lat="45.0773" lon="1.05212">
        <ele>198.321</ele>
        <time>2019-10-29T16:25:09Z</time>
      </trkpt>
      <trkpt lat="45.07692" lon="1.05034">
        <ele>195.461</ele>
        <time>2019-10-29T16:24:49Z</time>
      </trkpt>
      <trkpt lat="45.07636" lon="1.04939">
        <ele>196.336</ele>
        <time>2019-10-29T16:24:29Z</time>
      </trkpt>
      <trkpt lat="45.07591" lon="1.04833">
        <ele>189.567</ele>
        <time>2019-10-29T16:24:09Z</time>
      </trkpt>
      <trkpt lat="45.0753" lon="1.04735">
        <ele>186.241</ele>
        <time>2019-10-29T16:23:49Z</time>
      </trkpt>
      <trkpt lat="45.07569" lon="1.04685">
        <ele>185.039</ele>
        <time>2019-10-29T16:23:29Z</time>
      </trkpt>
      <trkpt lat="45.07651" lon="1.0463">
        <ele>206.213</ele>
        <time>2020-12-25T22:33:55Z</time>
      </trkpt>
      <trkpt lat="45.07687" lon="1.0466">
        <ele>212.43</ele>
        <time>2020-12-25T22:33:35Z</time>
      </trkpt>
      <trkpt lat="45.07881" lon="1.04658">
        <ele>248.185</ele>
        <time>2020-12-25T22:33:15Z</time>
      </trkpt>
      <trkpt lat="45.07969" lon="1.0463">
        <ele>253.099</ele>
        <time>2020-12-25T22:32:55Z</time>
      </trkpt>
      <trkpt lat="45.08284" lon="1.04488">
        <ele>260.508</ele>
        <time>2020-12-25T22:32:35Z</time>
      </trkpt>
      <trkpt lat="45.08413" lon="1.0441">
        <ele>262.721</ele>
        <time>2019-10-29T16:19:29Z</time>
      </trkpt>
      <trkpt lat="45.08355" lon="1.04044">
        <ele>265.701</ele>
        <time>2019-10-29T16:19:09Z</time>
      </trkpt>
      <trkpt lat="45.08311" lon="1.03856">
        <ele>255.839</ele>
        <time>2019-10-29T16:18:49Z</time>
      </trkpt>
      <trkpt lat="45.08313" lon="1.03696">
        <ele>250.93</ele>
        <time>2020-12-25T22:31:15Z</time>
      </trkpt>
      <trkpt lat="45.08164" lon="1.03671">
        <ele>254.021</ele>
        <time>2020-12-25T22:30:55Z</time>
      </trkpt>
      <trkpt lat="45.08081" lon="1.03581">
        <ele>253.035</ele>
        <time>2019-10-29T16:17:49Z</time>
      </trkpt>
      <trkpt lat="45.08018" lon="1.03547">
        <ele>251.713</ele>
        <time>2019-10-29T16:17:29Z</time>
      </trkpt>
      <trkpt lat="45.07925" lon="1.0347">
        <ele>254.047</ele>
        <time>2019-10-29T16:17:09Z</time>
      </trkpt>
      <trkpt lat="45.0786" lon="1.03442">
        <ele>254.134</ele>
        <time>2019-10-29T16:16:49Z</time>
      </trkpt>
      <trkpt lat="45.07777" lon="1.03436">
        <ele>249.919</ele>
        <time>2019-10-29T16:16:29Z</time>
      </trkpt>
      <trkpt lat="45.07705" lon="1.03449">
        <ele>246.443</ele>
        <time>2019-10-29T16:16:09Z</time>
      </trkpt>
      <trkpt lat="45.07622" lon="1.03444">
        <ele>243.408</ele>
        <time>2019-10-29T16:15:49Z</time>
      </trkpt>
      <trkpt lat="45.07558" lon="1.03418">
        <ele>244.919</ele>
        <time>2019-10-29T16:15:29Z</time>
      </trkpt>
      <trkpt lat="45.07483" lon="1.03407">
        <ele>244.99</ele>
        <time>2019-10-29T16:15:09Z</time>
      </trkpt>
      <trkpt lat="45.07338" lon="1.03338">
        <ele>246.076</ele>
        <time>2019-10-29T16:14:49Z</time>
      </trkpt>
      <trkpt lat="45.07296" lon="1.03347">
        <ele>246.711</ele>
        <time>2019-10-29T16:14:29Z</time>
      </trkpt>
      <trkpt lat="45.07219" lon="1.03246">
        <ele>246.982</ele>
        <time>2019-10-29T16:14:09Z</time>
      </trkpt>
      <trkpt lat="45.07198" lon="1.03186">
        <ele>247.146</ele>
        <time>2019-10-29T16:13:49Z</time>
      </trkpt>
      <trkpt lat="45.07158" lon="1.03117">
        <ele>244.734</ele>
        <time>2019-10-29T16:13:29Z</time>
      </trkpt>
      <trkpt lat="45.07122" lon="1.03033">
        <ele>243.118</ele>
        <time>2019-10-29T16:13:09Z</time>
      </trkpt>
      <trkpt lat="45.06924" lon="1.02925">
        <ele>237.635</ele>
        <time>2019-10-29T16:12:49Z</time>
      </trkpt>
      <trkpt lat="45.06871" lon="1.02839">
        <ele>233.02</ele>
        <time>2019-10-29T16:12:29Z</time>
      </trkpt>
      <trkpt lat="45.06781" lon="1.02755">
        <ele>228.814</ele>
        <time>2019-10-29T16:12:09Z</time>
      </trkpt>
      <trkpt lat="45.06741" lon="1.02729">
        <ele>229.208</ele>
        <time>2019-10-29T16:11:49Z</time>
      </trkpt>
      <trkpt lat="45.06695" lon="1.02725">
        <ele>227.217</ele>
        <time>2019-10-29T16:11:29Z</time>
      </trkpt>
      <trkpt lat="45.0658" lon="1.02758">
        <ele>222.889</ele>
        <time>2019-10-29T16:11:09Z</time>
      </trkpt>
      <trkpt lat="45.06522" lon="1.0279">
        <ele>222.885</ele>
        <time>2019-10-29T16:10:49Z</time>
      </trkpt>
      <trkpt lat="45.06457" lon="1.02777">
        <ele>219.965</ele>
        <time>2019-10-29T16:10:29Z</time>
      </trkpt>
      <trkpt lat="45.06375" lon="1.02733">
        <ele>221.126</ele>
        <time>2019-10-29T16:10:09Z</time>
      </trkpt>
      <trkpt lat="45.06366" lon="1.02694">
        <ele>219.23</ele>
        <time>2019-10-29T16:09:49Z</time>
      </trkpt>
      <trkpt lat="45.06422" lon="1.02519">
        <ele>201.058</ele>
        <time>2019-10-29T16:09:29Z</time>
      </trkpt>
      <trkpt lat="45.06449" lon="1.02483">
        <ele>199.012</ele>
        <time>2019-10-29T16:09:09Z</time>
      </trkpt>
      <trkpt lat="45.06487" lon="1.02467">
        <ele>195.769</ele>
        <time>2019-10-29T16:08:49Z</time>
      </trkpt>
      <trkpt lat="45.06489" lon="1.02446">
        <ele>193.044</ele>
        <time>2019-10-29T16:08:29Z</time>
      </trkpt>
      <trkpt lat="45.06436" lon="1.02397">
        <ele>182.718</ele>
        <time>2019-10-29T16:08:09Z</time>
      </trkpt>
      <trkpt lat="45.06438" lon="1.02377">
        <ele>178.908</ele>
        <time>2019-10-29T16:07:49Z</time>
      </trkpt>
      <trkpt lat="45.06469" lon="1.02364">
        <ele>176.914</ele>
        <time>2019-10-29T16:07:29Z</time>
      </trkpt>
      <trkpt lat="45.06547" lon="1.02382">
        <ele>178.168</ele>
        <time>2019-10-29T16:07:09Z</time>
      </trkpt>
      <trkpt lat="45.06554" lon="1.02368">
        <ele>173.727</ele>
        <time>2019-10-29T16:06:49Z</time>
      </trkpt>
      <trkpt lat="45.0653" lon="1.02309">
        <ele>158.181</ele>
        <time>2019-10-29T16:06:29Z</time>
      </trkpt>
      <trkpt lat="45.06497" lon="1.02265">
        <ele>152.222</ele>
        <time>2019-10-29T16:06:09Z</time>
      </trkpt>
      <trkpt lat="45.06433" lon="1.02244">
        <ele>146.566</ele>
        <time>2019-10-29T16:05:49Z</time>
      </trkpt>
      <trkpt lat="45.06345" lon="1.02239">
        <ele>139.974</ele>
        <time>2019-10-29T16:05:29Z</time>
      </trkpt>
      <trkpt lat="45.06531" lon="1.0215">
        <ele>136.388</ele>
        <time>2019-10-29T16:05:09Z</time>
      </trkpt>
      <trkpt lat="45.06586" lon="1.02155">
        <ele>138.755</ele>
        <time>2019-10-29T16:04:49Z</time>
      </trkpt>
      <trkpt lat="45.06641" lon="1.02145">
        <ele>137.88</ele>
        <time>2019-10-29T16:04:29Z</time>
      </trkpt>
      <trkpt lat="45.0688" lon="1.02158">
        <ele>139.024</ele>
        <time>2019-10-29T16:04:09Z</time>
      </trkpt>
      <trkpt lat="45.06886" lon="1.0206">
        <ele>136.108</ele>
        <time>2019-10-29T16:03:49Z</time>
      </trkpt>
      <trkpt lat="45.06908" lon="1.02005">
        <ele>137.426</ele>
        <time>2019-10-29T16:03:29Z</time>
      </trkpt>
      <trkpt lat="45.0693" lon="1.01985">
        <ele>138.906</ele>
        <time>2019-10-29T16:03:09Z</time>
      </trkpt>
      <trkpt lat="45.0694" lon="1.01924">
        <ele>139.589</ele>
        <time>2019-10-29T16:02:49Z</time>
      </trkpt>
      <trkpt lat="45.06964" lon="1.01898">
        <ele>144.251</ele>
        <time>2019-10-29T16:02:29Z</time>
      </trkpt>
      <trkpt lat="45.07008" lon="1.01898">
        <ele>153.182</ele>
        <time>2019-10-29T16:02:09Z</time>
      </trkpt>
      <trkpt lat="45.06987" lon="1.0178">
        <ele>153.876</ele>
        <time>2019-10-29T16:01:49Z</time>
      </trkpt>
      <trkpt lat="45.06985" lon="1.01694">
        <ele>156.764</ele>
        <time>2019-10-29T16:01:29Z</time>
      </trkpt>
      <trkpt lat="45.06948" lon="1.0147">
        <ele>165.458</ele>
        <time>2019-10-29T16:01:09Z</time>
      </trkpt>
      <trkpt lat="45.06902" lon="1.01348">
        <ele>158.485</ele>
        <time>2019-10-29T16:00:49Z</time>
      </trkpt>
      <trkpt lat="45.0688" lon="1.01247">
        <ele>158.24</ele>
        <time>2019-10-29T16:00:29Z</time>
      </trkpt>
      <trkpt lat="45.06886" lon="1.01146">
        <ele>164.774</ele>
        <time>2019-10-29T16:00:09Z</time>
      </trkpt>
      <trkpt lat="45.06907" lon="1.01109">
        <ele>165.608</ele>
        <time>2019-10-29T15:59:49Z</time>
      </trkpt>
      <trkpt lat="45.06904" lon="1.01016">
        <ele>164.317</ele>
        <time>2019-10-29T15:59:29Z</time>
      </trkpt>
      <trkpt lat="45.06911" lon="1.00933">
        <ele>163.889</ele>
        <time>2019-10-29T15:59:09Z</time>
      </trkpt>
      <trkpt lat="45.06936" lon="1.0087">
        <ele>165.185</ele>
        <time>2019-10-29T15:58:49Z</time>
      </trkpt>
      <trkpt lat="45.06956" lon="1.00753">
        <ele>172.812</ele>
        <time>2019-10-29T15:58:29Z</time>
      </trkpt>
      <trkpt lat="45.0698" lon="1.00671">
        <ele>173.113</ele>
        <time>2019-10-29T15:58:09Z</time>
      </trkpt>
      <trkpt lat="45.07029" lon="1.00502">
        <ele>174.337</ele>
        <time>2019-10-29T15:57:49Z</time>
      </trkpt>
      <trkpt lat="45.07106" lon="1.00382">
        <ele>177.585</ele>
        <time>2019-10-29T15:57:29Z</time>
      </trkpt>
      <trkpt lat="45.07224" lon="1.00289">
        <ele>184.789</ele>
        <time>2019-10-29T15:57:09Z</time>
      </trkpt>
      <trkpt lat="45.07261" lon="1.00195">
        <ele>183.716</ele>
        <time>2019-10-29T15:56:49Z</time>
      </trkpt>
      <trkpt lat="45.07337" lon="1.0007">
        <ele>188.941</ele>
        <time>2019-10-29T15:56:29Z</time>
      </trkpt>
      <trkpt lat="45.07441" lon="0.99927">
        <ele>197.935</ele>
        <time>2019-10-29T15:56:09Z</time>
      </trkpt>
      <trkpt lat="45.07472" lon="0.99912">
        <ele>200.308</ele>
        <time>2019-10-29T15:55:49Z</time>
      </trkpt>
      <trkpt lat="45.07514" lon="0.99902">
        <ele>200.021</ele>
        <time>2019-10-29T15:55:29Z</time>
      </trkpt>
      <trkpt lat="45.07559" lon="0.99871">
        <ele>201.565</ele>
        <time>2019-10-29T15:55:09Z</time>
      </trkpt>
      <trkpt lat="45.07588" lon="0.99813">
        <ele>204.093</ele>
        <time>2019-10-29T15:54:49Z</time>
      </trkpt>
      <trkpt lat="45.07603" lon="0.99766">
        <ele>201.994</ele>
        <time>2019-10-29T15:54:29Z</time>
      </trkpt>
      <trkpt lat="45.0764" lon="0.99707">
        <ele>200.825</ele>
        <time>2019-10-29T15:54:09Z</time>
      </trkpt>
      <trkpt lat="45.07683" lon="0.99678">
        <ele>204.619</ele>
        <time>2019-10-29T15:53:49Z</time>
      </trkpt>
      <trkpt lat="45.07702" lon="0.99655">
        <ele>206.327</ele>
        <time>2019-10-29T15:53:29Z</time>
      </trkpt>
      <trkpt lat="45.07746" lon="0.99621">
        <ele>212.351</ele>
        <time>2019-10-29T15:53:09Z</time>
      </trkpt>
      <trkpt lat="45.07806" lon="0.99541">
        <ele>228.118</ele>
        <time>2019-10-29T15:52:49Z</time>
      </trkpt>
      <trkpt lat="45.07922" lon="0.99325">
        <ele>253.463</ele>
        <time>2019-10-29T15:52:29Z</time>
      </trkpt>
      <trkpt lat="45.07956" lon="0.99211">
        <ele>258.127</ele>
        <time>2019-10-29T15:52:09Z</time>
      </trkpt>
      <trkpt lat="45.07946" lon="0.9917">
        <ele>258.008</ele>
        <time>2019-10-29T15:51:49Z</time>
      </trkpt>
      <trkpt lat="45.0798" lon="0.99019">
        <ele>261.909</ele>
        <time>2019-10-29T15:51:29Z</time>
      </trkpt>
      <trkpt lat="45.08065" lon="0.99039">
        <ele>265.954</ele>
        <time>2019-10-29T15:51:09Z</time>
      </trkpt>
      <trkpt lat="45.08158" lon="0.9898">
        <ele>267.714</ele>
        <time>2019-10-29T15:50:49Z</time>
      </trkpt>
      <trkpt lat="45.08192" lon="0.98974">
        <ele>267.075</ele>
        <time>2019-10-29T15:50:29Z</time>
      </trkpt>
      <trkpt lat="45.0824" lon="0.9891">
        <ele>268.816</ele>
        <time>2019-10-29T15:50:09Z</time>
      </trkpt>
      <trkpt lat="45.08224" lon="0.9879">
        <ele>274.39</ele>
        <time>2019-10-29T15:49:49Z</time>
      </trkpt>
      <trkpt lat="45.08235" lon="0.98182">
        <ele>270.038</ele>
        <time>2019-10-29T15:49:29Z</time>
      </trkpt>
      <trkpt lat="45.08289" lon="0.97874">
        <ele>258.882</ele>
        <time>2019-10-29T15:49:09Z</time>
      </trkpt>
      <trkpt lat="45.08333" lon="0.97705">
        <ele>253.429</ele>
        <time>2019-10-29T15:48:49Z</time>
      </trkpt>
      <trkpt lat="45.08349" lon="0.97569">
        <ele>246.174</ele>
        <time>2019-10-29T15:48:29Z</time>
      </trkpt>
      <trkpt lat="45.08358" lon="0.97235">
        <ele>219.948</ele>
        <time>2019-10-29T15:48:09Z</time>
      </trkpt>
      <trkpt lat="45.0835" lon="0.97134">
        <ele>213.008</ele>
        <time>2019-10-29T15:47:49Z</time>
      </trkpt>
      <trkpt lat="45.08138" lon="0.9638">
        <ele>240.111</ele>
        <time>2019-10-29T15:47:29Z</time>
      </trkpt>
      <trkpt lat="45.08078" lon="0.96198">
        <ele>250.783</ele>
        <time>2019-10-29T15:47:09Z</time>
      </trkpt>
      <trkpt lat="45.0803" lon="0.9624">
        <ele>249.323</ele>
        <time>2020-12-25T21:59:35Z</time>
      </trkpt>
      <trkpt lat="45.07919" lon="0.96284">
        <ele>248.061</ele>
        <time>2020-12-25T21:59:15Z</time>
      </trkpt>
      <trkpt lat="45.07869" lon="0.9633">
        <ele>246.392</ele>
        <time>2020-12-25T21:58:55Z</time>
      </trkpt>
      <trkpt lat="45.07861" lon="0.96183">
        <ele>244.496</ele>
        <time>2020-12-25T21:58:35Z</time>
      </trkpt>
      <trkpt lat="45.07811" lon="0.96169">
        <ele>241.414</ele>
        <time>2020-12-25T21:58:15Z</time>
      </trkpt>
      <trkpt lat="45.07811" lon="0.96133">
        <ele>242.488</ele>
        <time>2020-12-25T21:57:55Z</time>
      </trkpt>
      <trkpt lat="45.07786" lon="0.96086">
        <ele>242.625</ele>
        <time>2020-12-25T21:57:35Z</time>
      </trkpt>
      <trkpt lat="45.0779" lon="0.96047">
        <ele>244.97</ele>
        <time>2020-12-25T21:57:15Z</time>
      </trkpt>
      <trkpt lat="45.0792" lon="0.95938">
        <ele>244.774</ele>
        <time>2020-12-25T21:56:55Z</time>
      </trkpt>
      <trkpt lat="45.07942" lon="0.95863">
        <ele>245.108</ele>
        <time>2020-12-25T21:56:35Z</time>
      </trkpt>
      <trkpt lat="45.08078" lon="0.96198">
        <ele>250.717</ele>
        <time>2019-10-29T15:47:09Z</time>
      </trkpt>
      <trkpt lat="45.08272" lon="0.96037">
        <ele>244.325</ele>
        <time>2019-10-29T15:46:49Z</time>
      </trkpt>
      <trkpt lat="45.08347" lon="0.96011">
        <ele>244.483</ele>
        <time>2019-10-29T15:46:29Z</time>
      </trkpt>
      <trkpt lat="45.0831" lon="0.95923">
        <ele>244.094</ele>
        <time>2019-10-29T15:46:09Z</time>
      </trkpt>
      <trkpt lat="45.08375" lon="0.95842">
        <ele>244.435</ele>
        <time>2019-10-29T15:45:49Z</time>
      </trkpt>
      <trkpt lat="45.0843" lon="0.95803">
        <ele>244.659</ele>
        <time>2019-10-29T15:45:29Z</time>
      </trkpt>
      <trkpt lat="45.08479" lon="0.95687">
        <ele>245.477</ele>
        <time>2019-10-29T15:45:09Z</time>
      </trkpt>
      <trkpt lat="45.08476" lon="0.95643">
        <ele>244.271</ele>
        <time>2019-10-29T15:44:49Z</time>
      </trkpt>
      <trkpt lat="45.08505" lon="0.95521">
        <ele>242.768</ele>
        <time>2019-10-29T15:44:29Z</time>
      </trkpt>
      <trkpt lat="45.08588" lon="0.9549">
        <ele>241.073</ele>
        <time>2019-10-29T15:44:09Z</time>
      </trkpt>
      <trkpt lat="45.08677" lon="0.95425">
        <ele>239.977</ele>
        <time>2019-10-29T15:43:49Z</time>
      </trkpt>
      <trkpt lat="45.0877" lon="0.95289">
        <ele>229.808</ele>
        <time>2019-10-29T15:43:29Z</time>
      </trkpt>
      <trkpt lat="45.08771" lon="0.95263">
        <ele>226.611</ele>
        <time>2019-10-29T15:43:09Z</time>
      </trkpt>
      <trkpt lat="45.08779" lon="0.95219">
        <ele>223.965</ele>
        <time>2019-10-29T15:42:49Z</time>
      </trkpt>
      <trkpt lat="45.08805" lon="0.95133">
        <ele>220.815</ele>
        <time>2019-10-29T15:42:29Z</time>
      </trkpt>
      <trkpt lat="45.08868" lon="0.95092">
        <ele>214.025</ele>
        <time>2019-10-29T15:42:09Z</time>
      </trkpt>
      <trkpt lat="45.08933" lon="0.95081">
        <ele>200.266</ele>
        <time>2019-10-29T15:41:49Z</time>
      </trkpt>
      <trkpt lat="45.08986" lon="0.95029">
        <ele>198.54</ele>
        <time>2019-10-29T15:41:29Z</time>
      </trkpt>
      <trkpt lat="45.08978" lon="0.94977">
        <ele>195.348</ele>
        <time>2019-10-29T15:41:09Z</time>
      </trkpt>
      <trkpt lat="45.08986" lon="0.94929">
        <ele>194.562</ele>
        <time>2019-10-29T15:40:49Z</time>
      </trkpt>
      <trkpt lat="45.09003" lon="0.94882">
        <ele>196.769</ele>
        <time>2019-10-29T15:40:29Z</time>
      </trkpt>
      <trkpt lat="45.09111" lon="0.94819">
        <ele>210.654</ele>
        <time>2019-10-29T15:40:09Z</time>
      </trkpt>
      <trkpt lat="45.09185" lon="0.94799">
        <ele>211.318</ele>
        <time>2019-10-29T15:39:49Z</time>
      </trkpt>
      <trkpt lat="45.09224" lon="0.9475">
        <ele>219.208</ele>
        <time>2019-10-29T15:39:29Z</time>
      </trkpt>
      <trkpt lat="45.09262" lon="0.94723">
        <ele>225.12</ele>
        <time>2019-10-29T15:39:09Z</time>
      </trkpt>
      <trkpt lat="45.09283" lon="0.94689">
        <ele>225.8</ele>
        <time>2019-10-29T15:38:49Z</time>
      </trkpt>
      <trkpt lat="45.09414" lon="0.94575">
        <ele>225.429</ele>
        <time>2019-10-29T15:38:29Z</time>
      </trkpt>
      <trkpt lat="45.0948" lon="0.94546">
        <ele>228.558</ele>
        <time>2019-10-29T15:38:09Z</time>
      </trkpt>
      <trkpt lat="45.09374" lon="0.94518">
        <ele>221.179</ele>
        <time>2019-10-29T15:37:49Z</time>
      </trkpt>
      <trkpt lat="45.09348" lon="0.9444">
        <ele>219.973</ele>
        <time>2019-10-29T15:37:29Z</time>
      </trkpt>
      <trkpt lat="45.09366" lon="0.94261">
        <ele>223.281</ele>
        <time>2019-10-29T15:37:09Z</time>
      </trkpt>
      <trkpt lat="45.09457" lon="0.93931">
        <ele>225.095</ele>
        <time>2019-10-29T15:36:49Z</time>
      </trkpt>
      <trkpt lat="45.09525" lon="0.93789">
        <ele>225.972</ele>
        <time>2019-10-29T15:36:29Z</time>
      </trkpt>
      <trkpt lat="45.09591" lon="0.93893">
        <ele>231.967</ele>
        <time>2019-10-29T15:36:09Z</time>
      </trkpt>
      <trkpt lat="45.09631" lon="0.94019">
        <ele>234.891</ele>
        <time>2019-10-29T15:35:49Z</time>
      </trkpt>
      <trkpt lat="45.09696" lon="0.94199">
        <ele>238.108</ele>
        <time>2019-10-29T15:35:29Z</time>
      </trkpt>
      <trkpt lat="45.09794" lon="0.94072">
        <ele>240.211</ele>
        <time>2019-10-29T15:35:09Z</time>
      </trkpt>
      <trkpt lat="45.10058" lon="0.93648">
        <ele>209.656</ele>
        <time>2019-10-29T15:34:49Z</time>
      </trkpt>
      <trkpt lat="45.10088" lon="0.93624">
        <ele>210.254</ele>
        <time>2019-10-29T15:34:29Z</time>
      </trkpt>
      <trkpt lat="45.10132" lon="0.93567">
        <ele>205.134</ele>
        <time>2019-10-29T15:34:09Z</time>
      </trkpt>
      <trkpt lat="45.10139" lon="0.93519">
        <ele>206.615</ele>
        <time>2019-10-29T15:33:49Z</time>
      </trkpt>
      <trkpt lat="45.10195" lon="0.935">
        <ele>216.119</ele>
        <time>2019-10-29T15:33:29Z</time>
      </trkpt>
      <trkpt lat="45.10322" lon="0.93476">
        <ele>223.197</ele>
        <time>2019-10-29T15:33:09Z</time>
      </trkpt>
      <trkpt lat="45.1054" lon="0.93352">
        <ele>223.511</ele>
        <time>2019-10-29T15:32:49Z</time>
      </trkpt>
      <trkpt lat="45.10752" lon="0.92284">
        <ele>229.218</ele>
        <time>2019-10-29T15:32:29Z</time>
      </trkpt>
      <trkpt lat="45.10814" lon="0.91979">
        <ele>229.313</ele>
        <time>2019-10-29T15:32:09Z</time>
      </trkpt>
      <trkpt lat="45.1089" lon="0.91971">
        <ele>228.187</ele>
        <time>2019-10-29T15:31:49Z</time>
      </trkpt>
      <trkpt lat="45.10924" lon="0.9195">
        <ele>229.108</ele>
        <time>2019-10-29T15:31:29Z</time>
      </trkpt>
      <trkpt lat="45.11013" lon="0.91973">
        <ele>231.115</ele>
        <time>2019-10-29T15:31:09Z</time>
      </trkpt>
      <trkpt lat="45.11081" lon="0.91997">
        <ele>229.087</ele>
        <time>2019-10-29T15:30:49Z</time>
      </trkpt>
      <trkpt lat="45.11114" lon="0.92025">
        <ele>231.317</ele>
        <time>2019-10-29T15:30:29Z</time>
      </trkpt>
      <trkpt lat="45.11161" lon="0.92093">
        <ele>232.292</ele>
        <time>2019-10-29T15:30:09Z</time>
      </trkpt>
      <trkpt lat="45.11191" lon="0.92147">
        <ele>234.713</ele>
        <time>2019-10-29T15:29:49Z</time>
      </trkpt>
      <trkpt lat="45.11257" lon="0.92144">
        <ele>235.057</ele>
        <time>2019-10-29T15:29:29Z</time>
      </trkpt>
      <trkpt lat="45.11293" lon="0.921">
        <ele>228.455</ele>
        <time>2019-10-29T15:29:09Z</time>
      </trkpt>
      <trkpt lat="45.1134" lon="0.92118">
        <ele>227.689</ele>
        <time>2019-10-29T15:28:49Z</time>
      </trkpt>
      <trkpt lat="45.11445" lon="0.9217">
        <ele>228.946</ele>
        <time>2019-10-29T15:28:29Z</time>
      </trkpt>
      <trkpt lat="45.11595" lon="0.92132">
        <ele>220.271</ele>
        <time>2019-10-29T15:28:09Z</time>
      </trkpt>
      <trkpt lat="45.1165" lon="0.92126">
        <ele>220.685</ele>
        <time>2019-10-29T15:27:49Z</time>
      </trkpt>
      <trkpt lat="45.11682" lon="0.92085">
        <ele>216.808</ele>
        <time>2019-10-29T15:27:29Z</time>
      </trkpt>
      <trkpt lat="45.11708" lon="0.92066">
        <ele>213.919</ele>
        <time>2019-10-29T15:27:09Z</time>
      </trkpt>
      <trkpt lat="45.11771" lon="0.92053">
        <ele>213.881</ele>
        <time>2019-10-29T15:26:49Z</time>
      </trkpt>
      <trkpt lat="45.11998" lon="0.91875">
        <ele>217.291</ele>
        <time>2019-10-29T15:26:29Z</time>
      </trkpt>
      <trkpt lat="45.12033" lon="0.91838">
        <ele>220.264</ele>
        <time>2019-10-29T15:26:09Z</time>
      </trkpt>
      <trkpt lat="45.12116" lon="0.91831">
        <ele>219.045</ele>
        <time>2019-10-29T15:25:49Z</time>
      </trkpt>
      <trkpt lat="45.12141" lon="0.91857">
        <ele>216.129</ele>
        <time>2019-10-29T15:25:29Z</time>
      </trkpt>
      <trkpt lat="45.12172" lon="0.91862">
        <ele>213.647</ele>
        <time>2019-10-29T15:25:09Z</time>
      </trkpt>
      <trkpt lat="45.12284" lon="0.91817">
        <ele>203.771</ele>
        <time>2019-10-29T15:24:49Z</time>
      </trkpt>
      <trkpt lat="45.1231" lon="0.91739">
        <ele>204.648</ele>
        <time>2019-10-29T15:24:29Z</time>
      </trkpt>
      <trkpt lat="45.1232" lon="0.91638">
        <ele>214.393</ele>
        <time>2019-10-29T15:24:09Z</time>
      </trkpt>
      <trkpt lat="45.1236" lon="0.91566">
        <ele>208.497</ele>
        <time>2019-10-29T15:23:49Z</time>
      </trkpt>
      <trkpt lat="45.12388" lon="0.91503">
        <ele>204.208</ele>
        <time>2019-10-29T15:23:29Z</time>
      </trkpt>
      <trkpt lat="45.12455" lon="0.91417">
        <ele>196.313</ele>
        <time>2019-10-29T15:23:09Z</time>
      </trkpt>
      <trkpt lat="45.12519" lon="0.91378">
        <ele>190.076</ele>
        <time>2019-10-29T15:22:49Z</time>
      </trkpt>
      <trkpt lat="45.12626" lon="0.91166">
        <ele>161.916</ele>
        <time>2019-10-29T15:22:29Z</time>
      </trkpt>
      <trkpt lat="45.12611" lon="0.91121">
        <ele>159.285</ele>
        <time>2019-10-29T15:22:09Z</time>
      </trkpt>
      <trkpt lat="45.12663" lon="0.91124">
        <ele>156.926</ele>
        <time>2019-10-29T15:21:49Z</time>
      </trkpt>
      <trkpt lat="45.12704" lon="0.91092">
        <ele>159.51</ele>
        <time>2019-10-29T15:21:29Z</time>
      </trkpt>
      <trkpt lat="45.12724" lon="0.911">
        <ele>162.778</ele>
        <time>2019-10-29T15:21:09Z</time>
      </trkpt>
      <trkpt lat="45.12748" lon="0.9123">
        <ele>159.682</ele>
        <time>2019-10-29T15:20:49Z</time>
      </trkpt>
      <trkpt lat="45.1279" lon="0.91222">
        <ele>168.029</ele>
        <time>2019-10-29T15:20:29Z</time>
      </trkpt>
      <trkpt lat="45.12771" lon="0.91142">
        <ele>167.734</ele>
        <time>2019-10-29T15:20:09Z</time>
      </trkpt>
      <trkpt lat="45.12825" lon="0.91075">
        <ele>178.458</ele>
        <time>2019-10-29T15:19:49Z</time>
      </trkpt>
      <trkpt lat="45.1295" lon="0.91017">
        <ele>192.208</ele>
        <time>2019-10-29T15:19:29Z</time>
      </trkpt>
      <trkpt lat="45.13064" lon="0.91036">
        <ele>199.714</ele>
        <time>2019-10-29T15:19:09Z</time>
      </trkpt>
      <trkpt lat="45.13083" lon="0.91017">
        <ele>198.004</ele>
        <time>2019-10-29T15:18:49Z</time>
      </trkpt>
      <trkpt lat="45.13146" lon="0.90989">
        <ele>205.624</ele>
        <time>2019-10-29T15:18:29Z</time>
      </trkpt>
      <trkpt lat="45.13171" lon="0.90916">
        <ele>213.574</ele>
        <time>2019-10-29T15:18:09Z</time>
      </trkpt>
      <trkpt lat="45.13195" lon="0.90903">
        <ele>216.555</ele>
        <time>2019-10-29T15:17:49Z</time>
      </trkpt>
      <trkpt lat="45.13261" lon="0.90952">
        <ele>222.079</ele>
        <time>2019-10-29T15:17:29Z</time>
      </trkpt>
      <trkpt lat="45.13281" lon="0.9101">
        <ele>223.367</ele>
        <time>2019-10-29T15:17:09Z</time>
      </trkpt>
      <trkpt lat="45.13301" lon="0.91009">
        <ele>222.811</ele>
        <time>2019-10-29T15:16:49Z</time>
      </trkpt>
      <trkpt lat="45.13324" lon="0.90934">
        <ele>224.868</ele>
        <time>2019-10-29T15:16:29Z</time>
      </trkpt>
      <trkpt lat="45.13454" lon="0.90779">
        <ele>232.213</ele>
        <time>2019-10-29T15:16:09Z</time>
      </trkpt>
      <trkpt lat="45.13557" lon="0.90692">
        <ele>232.177</ele>
        <time>2019-10-29T15:15:49Z</time>
      </trkpt>
      <trkpt lat="45.13598" lon="0.90654">
        <ele>233.708</ele>
        <time>2019-10-29T15:15:29Z</time>
      </trkpt>
      <trkpt lat="45.13623" lon="0.90649">
        <ele>234.317</ele>
        <time>2019-10-29T15:15:09Z</time>
      </trkpt>
      <trkpt lat="45.13651" lon="0.9062">
        <ele>235.398</ele>
        <time>2019-10-29T15:14:49Z</time>
      </trkpt>
      <trkpt lat="45.13721" lon="0.9067">
        <ele>231.718</ele>
        <time>2019-10-29T15:14:29Z</time>
      </trkpt>
      <trkpt lat="45.13783" lon="0.90594">
        <ele>230.396</ele>
        <time>2019-10-29T15:14:09Z</time>
      </trkpt>
      <trkpt lat="45.13876" lon="0.9054">
        <ele>229.817</ele>
        <time>2019-10-29T15:13:49Z</time>
      </trkpt>
      <trkpt lat="45.13847" lon="0.9048">
        <ele>233.271</ele>
        <time>2019-10-29T15:13:29Z</time>
      </trkpt>
      <trkpt lat="45.14057" lon="0.90344">
        <ele>235.619</ele>
        <time>2019-10-29T15:13:09Z</time>
      </trkpt>
      <trkpt lat="45.14121" lon="0.90322">
        <ele>233.853</ele>
        <time>2019-10-29T15:12:49Z</time>
      </trkpt>
      <trkpt lat="45.14217" lon="0.90317">
        <ele>232.14</ele>
        <time>2019-10-29T15:12:29Z</time>
      </trkpt>
      <trkpt lat="45.14291" lon="0.90355">
        <ele>232.945</ele>
        <time>2019-10-29T15:12:09Z</time>
      </trkpt>
      <trkpt lat="45.14391" lon="0.90389">
        <ele>234.959</ele>
        <time>2019-10-29T15:11:49Z</time>
      </trkpt>
      <trkpt lat="45.14553" lon="0.90386">
        <ele>232.108</ele>
        <time>2019-10-29T15:11:29Z</time>
      </trkpt>
      <trkpt lat="45.14608" lon="0.90373">
        <ele>225.907</ele>
        <time>2019-10-29T15:11:09Z</time>
      </trkpt>
      <trkpt lat="45.14726" lon="0.90295">
        <ele>222.561</ele>
        <time>2019-10-29T15:10:49Z</time>
      </trkpt>
      <trkpt lat="45.14776" lon="0.9028">
        <ele>221.131</ele>
        <time>2019-10-29T15:10:29Z</time>
      </trkpt>
      <trkpt lat="45.14797" lon="0.90243">
        <ele>221.411</ele>
        <time>2019-10-29T15:10:09Z</time>
      </trkpt>
      <trkpt lat="45.14838" lon="0.90207">
        <ele>223.432</ele>
        <time>2019-10-29T15:09:49Z</time>
      </trkpt>
      <trkpt lat="45.14896" lon="0.9021">
        <ele>226.986</ele>
        <time>2019-10-29T15:09:29Z</time>
      </trkpt>
      <trkpt lat="45.14956" lon="0.90189">
        <ele>223.564</ele>
        <time>2019-10-29T15:09:09Z</time>
      </trkpt>
      <trkpt lat="45.15096" lon="0.90043">
        <ele>217.518</ele>
        <time>2019-10-29T15:08:49Z</time>
      </trkpt>
      <trkpt lat="45.15233" lon="0.89973">
        <ele>215.395</ele>
        <time>2019-10-29T15:08:29Z</time>
      </trkpt>
      <trkpt lat="45.15437" lon="0.90262">
        <ele>209.85</ele>
        <time>2019-10-29T15:08:09Z</time>
      </trkpt>
      <trkpt lat="45.15453" lon="0.90238">
        <ele>209.094</ele>
        <time>2019-10-29T15:07:49Z</time>
      </trkpt>
      <trkpt lat="45.15458" lon="0.90178">
        <ele>210.708</ele>
        <time>2019-10-29T15:07:29Z</time>
      </trkpt>
      <trkpt lat="45.15498" lon="0.90065">
        <ele>206.926</ele>
        <time>2019-10-29T15:07:09Z</time>
      </trkpt>
      <trkpt lat="45.15596" lon="0.8988">
        <ele>210.006</ele>
        <time>2019-10-29T15:06:49Z</time>
      </trkpt>
      <trkpt lat="45.15702" lon="0.8973">
        <ele>214.089</ele>
        <time>2019-10-29T15:06:29Z</time>
      </trkpt>
      <trkpt lat="45.15791" lon="0.89636">
        <ele>217.286</ele>
        <time>2019-10-29T15:06:09Z</time>
      </trkpt>
      <trkpt lat="45.1584" lon="0.89552">
        <ele>219.857</ele>
        <time>2019-10-29T15:05:49Z</time>
      </trkpt>
      <trkpt lat="45.15923" lon="0.89579">
        <ele>211.741</ele>
        <time>2019-10-29T15:05:29Z</time>
      </trkpt>
      <trkpt lat="45.15989" lon="0.89586">
        <ele>210.169</ele>
        <time>2019-10-29T15:05:09Z</time>
      </trkpt>
      <trkpt lat="45.16053" lon="0.89568">
        <ele>211.533</ele>
        <time>2019-10-29T15:04:49Z</time>
      </trkpt>
      <trkpt lat="45.16124" lon="0.89576">
        <ele>214.88</ele>
        <time>2019-10-29T15:04:29Z</time>
      </trkpt>
      <trkpt lat="45.16159" lon="0.89651">
        <ele>213.355</ele>
        <time>2019-10-29T15:04:09Z</time>
      </trkpt>
      <trkpt lat="45.16179" lon="0.89752">
        <ele>212.159</ele>
        <time>2019-10-29T15:03:49Z</time>
      </trkpt>
      <trkpt lat="45.1624" lon="0.89791">
        <ele>208.408</ele>
        <time>2019-10-29T15:03:29Z</time>
      </trkpt>
      <trkpt lat="45.16314" lon="0.89802">
        <ele>204.613</ele>
        <time>2019-10-29T15:03:09Z</time>
      </trkpt>
      <trkpt lat="45.1628" lon="0.89882">
        <ele>199.449</ele>
        <time>2019-10-29T15:02:49Z</time>
      </trkpt>
      <trkpt lat="45.16381" lon="0.89908">
        <ele>194.037</ele>
        <time>2019-10-29T15:02:29Z</time>
      </trkpt>
      <trkpt lat="45.16495" lon="0.89994">
        <ele>180.014</ele>
        <time>2019-10-29T15:02:09Z</time>
      </trkpt>
      <trkpt lat="45.16589" lon="0.90095">
        <ele>156.375</ele>
        <time>2019-10-29T15:01:49Z</time>
      </trkpt>
      <trkpt lat="45.16631" lon="0.90103">
        <ele>155.839</ele>
        <time>2019-10-29T15:01:29Z</time>
      </trkpt>
      <trkpt lat="45.16649" lon="0.90124">
        <ele>156.117</ele>
        <time>2019-10-29T15:01:09Z</time>
      </trkpt>
      <trkpt lat="45.16774" lon="0.90088">
        <ele>157.651</ele>
        <time>2019-10-29T15:00:49Z</time>
      </trkpt>
      <trkpt lat="45.16819" lon="0.90083">
        <ele>154.598</ele>
        <time>2019-10-29T15:00:29Z</time>
      </trkpt>
      <trkpt lat="45.16894" lon="0.90069">
        <ele>152.053</ele>
        <time>2019-10-29T15:00:09Z</time>
      </trkpt>
      <trkpt lat="45.16936" lon="0.90052">
        <ele>151.077</ele>
        <time>2019-10-29T14:59:49Z</time>
      </trkpt>
      <trkpt lat="45.17008" lon="0.90033">
        <ele>151.108</ele>
        <time>2019-10-29T14:59:29Z</time>
      </trkpt>
      <trkpt lat="45.17051" lon="0.90043">
        <ele>147.019</ele>
        <time>2019-10-29T14:59:09Z</time>
      </trkpt>
      <trkpt lat="45.17108" lon="0.90095">
        <ele>155.909</ele>
        <time>2019-10-29T14:58:49Z</time>
      </trkpt>
      <trkpt lat="45.17162" lon="0.90157">
        <ele>153.519</ele>
        <time>2019-10-29T14:58:29Z</time>
      </trkpt>
      <trkpt lat="45.17212" lon="0.90317">
        <ele>146.856</ele>
        <time>2019-10-29T14:58:09Z</time>
      </trkpt>
      <trkpt lat="45.17235" lon="0.90337">
        <ele>142.267</ele>
        <time>2019-10-29T14:57:49Z</time>
      </trkpt>
      <trkpt lat="45.17258" lon="0.90322">
        <ele>140.751</ele>
        <time>2019-10-29T14:57:29Z</time>
      </trkpt>
      <trkpt lat="45.1735" lon="0.9036">
        <ele>165.919</ele>
        <time>2019-10-29T14:57:09Z</time>
      </trkpt>
      <trkpt lat="45.17385" lon="0.90404">
        <ele>172.183</ele>
        <time>2019-10-29T14:56:49Z</time>
      </trkpt>
      <trkpt lat="45.17487" lon="0.90457">
        <ele>192.54</ele>
        <time>2019-10-29T14:56:29Z</time>
      </trkpt>
      <trkpt lat="45.17552" lon="0.90521">
        <ele>199.455</ele>
        <time>2019-10-29T14:56:09Z</time>
      </trkpt>
      <trkpt lat="45.1765" lon="0.9057">
        <ele>210.269</ele>
        <time>2019-10-29T14:55:49Z</time>
      </trkpt>
      <trkpt lat="45.17683" lon="0.90602">
        <ele>205.708</ele>
        <time>2019-10-29T14:55:29Z</time>
      </trkpt>
      <trkpt lat="45.17798" lon="0.90623">
        <ele>205.207</ele>
        <time>2019-10-29T14:55:09Z</time>
      </trkpt>
      <trkpt lat="45.1786" lon="0.90644">
        <ele>206.961</ele>
        <time>2019-10-29T14:54:49Z</time>
      </trkpt>
      <trkpt lat="45.17887" lon="0.90628">
        <ele>208.331</ele>
        <time>2019-10-29T14:54:29Z</time>
      </trkpt>
      <trkpt lat="45.17975" lon="0.90626">
        <ele>210.981</ele>
        <time>2019-10-29T14:54:09Z</time>
      </trkpt>
      <trkpt lat="45.18013" lon="0.90635">
        <ele>209.982</ele>
        <time>2019-10-29T14:53:49Z</time>
      </trkpt>
      <trkpt lat="45.18123" lon="0.90602">
        <ele>207.946</ele>
        <time>2019-10-29T14:53:29Z</time>
      </trkpt>
      <trkpt lat="45.18251" lon="0.90682">
        <ele>203.664</ele>
        <time>2019-10-29T14:53:09Z</time>
      </trkpt>
      <trkpt lat="45.18293" lon="0.90558">
        <ele>196.078</ele>
        <time>2019-10-29T14:52:49Z</time>
      </trkpt>
      <trkpt lat="45.1838" lon="0.90469">
        <ele>190.925</ele>
        <time>2019-10-29T14:52:29Z</time>
      </trkpt>
      <trkpt lat="45.18406" lon="0.90547">
        <ele>188.87</ele>
        <time>2019-10-29T14:52:09Z</time>
      </trkpt>
      <trkpt lat="45.18437" lon="0.9055">
        <ele>188.784</ele>
        <time>2019-10-29T14:51:49Z</time>
      </trkpt>
      <trkpt lat="45.18496" lon="0.90493">
        <ele>182.308</ele>
        <time>2019-10-29T14:51:29Z</time>
      </trkpt>
      <trkpt lat="45.18575" lon="0.90326">
        <ele>197.817</ele>
        <time>2019-10-29T14:51:09Z</time>
      </trkpt>
      <trkpt lat="45.18576" lon="0.90225">
        <ele>209.589</ele>
        <time>2019-10-29T14:50:49Z</time>
      </trkpt>
      <trkpt lat="45.18669" lon="0.90049">
        <ele>205.685</ele>
        <time>2019-10-29T14:50:29Z</time>
      </trkpt>
      <trkpt lat="45.18782" lon="0.89994">
        <ele>208.09</ele>
        <time>2019-10-29T14:50:09Z</time>
      </trkpt>
      <trkpt lat="45.1879" lon="0.89862">
        <ele>196.131</ele>
        <time>2019-10-29T14:49:49Z</time>
      </trkpt>
      <trkpt lat="45.18817" lon="0.89709">
        <ele>178.195</ele>
        <time>2019-10-29T14:49:29Z</time>
      </trkpt>
      <trkpt lat="45.1885" lon="0.89652">
        <ele>163.893</ele>
        <time>2019-10-29T14:49:09Z</time>
      </trkpt>
      <trkpt lat="45.18902" lon="0.89594">
        <ele>150.277</ele>
        <time>2019-10-29T14:48:49Z</time>
      </trkpt>
      <trkpt lat="45.18897" lon="0.89425">
        <ele>140.344</ele>
        <time>2019-10-29T14:48:29Z</time>
      </trkpt>
      <trkpt lat="45.18998" lon="0.89135">
        <ele>123.949</ele>
        <time>2019-10-29T14:48:09Z</time>
      </trkpt>
      <trkpt lat="45.19032" lon="0.8906">
        <ele>120.783</ele>
        <time>2019-10-29T14:47:49Z</time>
      </trkpt>
      <trkpt lat="45.19175" lon="0.88831">
        <ele>119.608</ele>
        <time>2019-10-29T14:47:29Z</time>
      </trkpt>
      <trkpt lat="45.19292" lon="0.88716">
        <ele>109.721</ele>
        <time>2019-10-29T14:47:09Z</time>
      </trkpt>
      <trkpt lat="45.19456" lon="0.89046">
        <ele>104.856</ele>
        <time>2019-10-29T14:46:49Z</time>
      </trkpt>
      <trkpt lat="45.19426" lon="0.89108">
        <ele>108.574</ele>
        <time>2019-10-29T14:46:29Z</time>
      </trkpt>
      <trkpt lat="45.19375" lon="0.89147">
        <ele>107.425</ele>
        <time>2019-10-29T14:46:09Z</time>
      </trkpt>
      <trkpt lat="45.19408" lon="0.89249">
        <ele>107.056</ele>
        <time>2019-10-29T14:45:49Z</time>
      </trkpt>
      <trkpt lat="45.19421" lon="0.89247">
        <ele>107.15</ele>
        <time>2019-10-29T14:45:29Z</time>
      </trkpt>
      <trkpt lat="45.19445" lon="0.89283">
        <ele>109.468</ele>
        <time>2019-10-29T14:45:09Z</time>
      </trkpt>
      <trkpt lat="45.19654" lon="0.89238">
        <ele>108.072</ele>
        <time>2019-10-29T14:44:49Z</time>
      </trkpt>
      <trkpt lat="45.19736" lon="0.89254">
        <ele>109.769</ele>
        <time>2019-10-29T14:44:29Z</time>
      </trkpt>
      <trkpt lat="45.19829" lon="0.89303">
        <ele>113.734</ele>
        <time>2019-10-29T14:44:09Z</time>
      </trkpt>
      <trkpt lat="45.19877" lon="0.89321">
        <ele>116.398</ele>
        <time>2019-10-29T14:43:49Z</time>
      </trkpt>
      <trkpt lat="45.19995" lon="0.89304">
        <ele>119.508</ele>
        <time>2019-10-29T14:43:29Z</time>
      </trkpt>
      <trkpt lat="45.20069" lon="0.89342">
        <ele>125.005</ele>
        <time>2019-10-29T14:43:09Z</time>
      </trkpt>
      <trkpt lat="45.20135" lon="0.89361">
        <ele>125.741</ele>
        <time>2019-10-29T14:42:49Z</time>
      </trkpt>
      <trkpt lat="45.2019" lon="0.89391">
        <ele>127.021</ele>
        <time>2019-10-29T14:42:29Z</time>
      </trkpt>
      <trkpt lat="45.20301" lon="0.89493">
        <ele>129.66</ele>
        <time>2019-10-29T14:42:09Z</time>
      </trkpt>
      <trkpt lat="45.20379" lon="0.89513">
        <ele>131.451</ele>
        <time>2019-10-29T14:41:49Z</time>
      </trkpt>
      <trkpt lat="45.2046" lon="0.89542">
        <ele>134.685</ele>
        <time>2019-10-29T14:41:29Z</time>
      </trkpt>
      <trkpt lat="45.20585" lon="0.89553">
        <ele>137.143</ele>
        <time>2019-10-29T14:41:09Z</time>
      </trkpt>
      <trkpt lat="45.20663" lon="0.8949">
        <ele>141.367</ele>
        <time>2019-10-29T14:40:49Z</time>
      </trkpt>
      <trkpt lat="45.20741" lon="0.89465">
        <ele>143.794</ele>
        <time>2019-10-29T14:40:29Z</time>
      </trkpt>
      <trkpt lat="45.20716" lon="0.89379">
        <ele>141.559</ele>
        <time>2019-10-29T14:40:09Z</time>
      </trkpt>
      <trkpt lat="45.20696" lon="0.89285">
        <ele>140.873</ele>
        <time>2019-10-29T14:39:49Z</time>
      </trkpt>
      <trkpt lat="45.2069" lon="0.89145">
        <ele>137.408</ele>
        <time>2019-10-29T14:39:29Z</time>
      </trkpt>
      <trkpt lat="45.20683" lon="0.89072">
        <ele>131.82</ele>
        <time>2019-10-29T14:39:09Z</time>
      </trkpt>
      <trkpt lat="45.20695" lon="0.89015">
        <ele>124.828</ele>
        <time>2019-10-29T14:38:49Z</time>
      </trkpt>
      <trkpt lat="45.20726" lon="0.88968">
        <ele>124.375</ele>
        <time>2019-10-29T14:38:29Z</time>
      </trkpt>
      <trkpt lat="45.20772" lon="0.88877">
        <ele>123.354</ele>
        <time>2019-10-29T14:38:09Z</time>
      </trkpt>
      <trkpt lat="45.20828" lon="0.88667">
        <ele>124.055</ele>
        <time>2019-10-29T14:37:49Z</time>
      </trkpt>
      <trkpt lat="45.20844" lon="0.88634">
        <ele>126.419</ele>
        <time>2019-10-29T14:37:29Z</time>
      </trkpt>
      <trkpt lat="45.20861" lon="0.88529">
        <ele>116.117</ele>
        <time>2019-10-29T14:37:09Z</time>
      </trkpt>
      <trkpt lat="45.20917" lon="0.88381">
        <ele>116.061</ele>
        <time>2019-10-29T14:36:49Z</time>
      </trkpt>
      <trkpt lat="45.20995" lon="0.88242">
        <ele>116.118</ele>
        <time>2019-10-29T14:36:29Z</time>
      </trkpt>
      <trkpt lat="45.2099" lon="0.88132">
        <ele>117.433</ele>
        <time>2019-10-29T14:36:09Z</time>
      </trkpt>
      <trkpt lat="45.21102" lon="0.88345">
        <ele>154.747</ele>
        <time>2019-10-29T14:35:49Z</time>
      </trkpt>
      <trkpt lat="45.21152" lon="0.88381">
        <ele>161.408</ele>
        <time>2019-10-29T14:35:29Z</time>
      </trkpt>
      <trkpt lat="45.21249" lon="0.88342">
        <ele>170.917</ele>
        <time>2019-10-29T14:35:09Z</time>
      </trkpt>
      <trkpt lat="45.21283" lon="0.88316">
        <ele>173.598</ele>
        <time>2019-10-29T14:34:49Z</time>
      </trkpt>
      <trkpt lat="45.2133" lon="0.88174">
        <ele>179.818</ele>
        <time>2019-10-29T14:34:29Z</time>
      </trkpt>
      <trkpt lat="45.21289" lon="0.88163">
        <ele>180.568</ele>
        <time>2019-10-29T14:34:09Z</time>
      </trkpt>
      <trkpt lat="45.2122" lon="0.8821">
        <ele>181.179</ele>
        <time>2019-10-29T14:33:49Z</time>
      </trkpt>
      <trkpt lat="45.21216" lon="0.87997">
        <ele>180.373</ele>
        <time>2019-10-29T14:33:29Z</time>
      </trkpt>
      <trkpt lat="45.21248" lon="0.87916">
        <ele>187.011</ele>
        <time>2019-10-29T14:33:09Z</time>
      </trkpt>
      <trkpt lat="45.21308" lon="0.87745">
        <ele>199.095</ele>
        <time>2019-10-29T14:32:49Z</time>
      </trkpt>
      <trkpt lat="45.21326" lon="0.87654">
        <ele>197.462</ele>
        <time>2019-10-29T14:32:29Z</time>
      </trkpt>
      <trkpt lat="45.21413" lon="0.87851">
        <ele>191.337</ele>
        <time>2019-10-29T14:32:09Z</time>
      </trkpt>
      <trkpt lat="45.21441" lon="0.88021">
        <ele>189.921</ele>
        <time>2019-10-29T14:31:49Z</time>
      </trkpt>
      <trkpt lat="45.2156" lon="0.88134">
        <ele>179.208</ele>
        <time>2019-10-29T14:31:29Z</time>
      </trkpt>
      <trkpt lat="45.2159" lon="0.88187">
        <ele>179.314</ele>
        <time>2019-10-29T14:31:09Z</time>
      </trkpt>
      <trkpt lat="45.21666" lon="0.88252">
        <ele>180.159</ele>
        <time>2019-10-29T14:30:49Z</time>
      </trkpt>
      <trkpt lat="45.21718" lon="0.88321">
        <ele>188.656</ele>
        <time>2019-10-29T14:30:29Z</time>
      </trkpt>
      <trkpt lat="45.21753" lon="0.88399">
        <ele>190.721</ele>
        <time>2019-10-29T14:30:09Z</time>
      </trkpt>
      <trkpt lat="45.21802" lon="0.88426">
        <ele>189.922</ele>
        <time>2019-10-29T14:29:49Z</time>
      </trkpt>
      <trkpt lat="45.21851" lon="0.88521">
        <ele>186.846</ele>
        <time>2019-10-29T14:29:29Z</time>
      </trkpt>
      <trkpt lat="45.21897" lon="0.8859">
        <ele>190.784</ele>
        <time>2019-10-29T14:29:09Z</time>
      </trkpt>
      <trkpt lat="45.21952" lon="0.88651">
        <ele>193.798</ele>
        <time>2019-10-29T14:28:49Z</time>
      </trkpt>
      <trkpt lat="45.22019" lon="0.88696">
        <ele>198.035</ele>
        <time>2019-10-29T14:28:29Z</time>
      </trkpt>
      <trkpt lat="45.22042" lon="0.88714">
        <ele>199.52</ele>
        <time>2019-10-29T14:28:09Z</time>
      </trkpt>
      <trkpt lat="45.22105" lon="0.88719">
        <ele>201.064</ele>
        <time>2019-10-29T14:27:49Z</time>
      </trkpt>
      <trkpt lat="45.22184" lon="0.88737">
        <ele>198.908</ele>
        <time>2019-10-29T14:27:29Z</time>
      </trkpt>
      <trkpt lat="45.22241" lon="0.88734">
        <ele>199.126</ele>
        <time>2019-10-29T14:27:09Z</time>
      </trkpt>
      <trkpt lat="45.22256" lon="0.88768">
        <ele>199.406</ele>
        <time>2019-10-29T14:26:49Z</time>
      </trkpt>
      <trkpt lat="45.22311" lon="0.88659">
        <ele>200.289</ele>
        <time>2019-10-29T14:26:29Z</time>
      </trkpt>
      <trkpt lat="45.2233" lon="0.8863">
        <ele>201.638</ele>
        <time>2019-10-29T14:26:09Z</time>
      </trkpt>
      <trkpt lat="45.22304" lon="0.88542">
        <ele>197.439</ele>
        <time>2019-10-29T14:25:49Z</time>
      </trkpt>
      <trkpt lat="45.22315" lon="0.88482">
        <ele>193.873</ele>
        <time>2019-10-29T14:25:29Z</time>
      </trkpt>
      <trkpt lat="45.2231" lon="0.8841">
        <ele>191.681</ele>
        <time>2019-10-29T14:25:09Z</time>
      </trkpt>
      <trkpt lat="45.22311" lon="0.88338">
        <ele>190.895</ele>
        <time>2019-10-29T14:24:49Z</time>
      </trkpt>
      <trkpt lat="45.22328" lon="0.88254">
        <ele>190.022</ele>
        <time>2019-10-29T14:24:29Z</time>
      </trkpt>
      <trkpt lat="45.22373" lon="0.88125">
        <ele>185.597</ele>
        <time>2019-10-29T14:24:09Z</time>
      </trkpt>
      <trkpt lat="45.22373" lon="0.88086">
        <ele>184.441</ele>
        <time>2019-10-29T14:23:49Z</time>
      </trkpt>
      <trkpt lat="45.22386" lon="0.88033">
        <ele>181.208</ele>
        <time>2019-10-29T14:23:29Z</time>
      </trkpt>
      <trkpt lat="45.22398" lon="0.8801">
        <ele>179.914</ele>
        <time>2019-10-29T14:23:09Z</time>
      </trkpt>
      <trkpt lat="45.2242" lon="0.8801">
        <ele>178.859</ele>
        <time>2019-10-29T14:22:49Z</time>
      </trkpt>
      <trkpt lat="45.22442" lon="0.87995">
        <ele>177.256</ele>
        <time>2019-10-29T14:22:29Z</time>
      </trkpt>
      <trkpt lat="45.22457" lon="0.8796">
        <ele>175.231</ele>
        <time>2019-10-29T14:22:09Z</time>
      </trkpt>
      <trkpt lat="45.2249" lon="0.87904">
        <ele>169.892</ele>
        <time>2019-10-29T14:21:49Z</time>
      </trkpt>
      <trkpt lat="45.22527" lon="0.87891">
        <ele>169.966</ele>
        <time>2019-10-29T14:21:29Z</time>
      </trkpt>
      <trkpt lat="45.22546" lon="0.87854">
        <ele>169.184</ele>
        <time>2019-10-29T14:21:09Z</time>
      </trkpt>
      <trkpt lat="45.22564" lon="0.87829">
        <ele>168.398</ele>
        <time>2019-10-29T14:20:49Z</time>
      </trkpt>
      <trkpt lat="45.22587" lon="0.87779">
        <ele>169.725</ele>
        <time>2019-10-29T14:20:29Z</time>
      </trkpt>
      <trkpt lat="45.22592" lon="0.87618">
        <ele>158.86</ele>
        <time>2019-10-29T14:20:09Z</time>
      </trkpt>
      <trkpt lat="45.22567" lon="0.87511">
        <ele>149.694</ele>
        <time>2019-10-29T14:19:49Z</time>
      </trkpt>
      <trkpt lat="45.22544" lon="0.87488">
        <ele>145.208</ele>
        <time>2019-10-29T14:19:29Z</time>
      </trkpt>
      <trkpt lat="45.22584" lon="0.87389">
        <ele>139.017</ele>
        <time>2019-10-29T14:19:09Z</time>
      </trkpt>
      <trkpt lat="45.22631" lon="0.87371">
        <ele>140.543</ele>
        <time>2019-10-29T14:18:49Z</time>
      </trkpt>
      <trkpt lat="45.22627" lon="0.87262">
        <ele>122.982</ele>
        <time>2019-10-29T14:18:29Z</time>
      </trkpt>
      <trkpt lat="45.22584" lon="0.87185">
        <ele>118.611</ele>
        <time>2019-10-29T14:18:09Z</time>
      </trkpt>
      <trkpt lat="45.22606" lon="0.87117">
        <ele>116.122</ele>
        <time>2019-10-29T14:17:49Z</time>
      </trkpt>
      <trkpt lat="45.22562" lon="0.86839">
        <ele>107.956</ele>
        <time>2019-10-29T14:17:29Z</time>
      </trkpt>
      <trkpt lat="45.22523" lon="0.86774">
        <ele>107.224</ele>
        <time>2019-10-29T14:17:09Z</time>
      </trkpt>
      <trkpt lat="45.22468" lon="0.86714">
        <ele>107.598</ele>
        <time>2019-10-29T14:16:49Z</time>
      </trkpt>
      <trkpt lat="45.22406" lon="0.86681">
        <ele>106.925</ele>
        <time>2019-10-29T14:16:29Z</time>
      </trkpt>
      <trkpt lat="45.2238" lon="0.8665">
        <ele>105.13</ele>
        <time>2019-10-29T14:16:09Z</time>
      </trkpt>
      <trkpt lat="45.22333" lon="0.86519">
        <ele>101.324</ele>
        <time>2019-10-29T14:15:49Z</time>
      </trkpt>
      <trkpt lat="45.22322" lon="0.8645">
        <ele>103.808</ele>
        <time>2019-10-29T14:15:29Z</time>
      </trkpt>
      <trkpt lat="45.22342" lon="0.86364">
        <ele>106.326</ele>
        <time>2019-10-29T14:15:09Z</time>
      </trkpt>
      <trkpt lat="45.22386" lon="0.86351">
        <ele>107.042</ele>
        <time>2019-10-29T14:14:49Z</time>
      </trkpt>
      <trkpt lat="45.22412" lon="0.86358">
        <ele>107.887</ele>
        <time>2019-10-29T14:14:29Z</time>
      </trkpt>
      <trkpt lat="45.22422" lon="0.86311">
        <ele>107.098</ele>
        <time>2019-10-29T14:14:09Z</time>
      </trkpt>
      <trkpt lat="45.22464" lon="0.86346">
        <ele>107.619</ele>
        <time>2019-10-29T14:13:49Z</time>
      </trkpt>
      <trkpt lat="45.22504" lon="0.86364">
        <ele>105.873</ele>
        <time>2019-10-29T14:13:29Z</time>
      </trkpt>
      <trkpt lat="45.22531" lon="0.86345">
        <ele>105.371</ele>
        <time>2019-10-29T14:13:09Z</time>
      </trkpt>
      <trkpt lat="45.22571" lon="0.86288">
        <ele>113.585</ele>
        <time>2019-10-29T14:12:49Z</time>
      </trkpt>
      <trkpt lat="45.22637" lon="0.86259">
        <ele>123.342</ele>
        <time>2019-10-29T14:12:29Z</time>
      </trkpt>
      <trkpt lat="45.22665" lon="0.86231">
        <ele>125.897</ele>
        <time>2019-10-29T14:12:09Z</time>
      </trkpt>
      <trkpt lat="45.22708" lon="0.86096">
        <ele>135.491</ele>
        <time>2019-10-29T14:11:49Z</time>
      </trkpt>
      <trkpt lat="45.22702" lon="0.86011">
        <ele>138.208</ele>
        <time>2019-10-29T14:11:29Z</time>
      </trkpt>
      <trkpt lat="45.22714" lon="0.85928">
        <ele>138.314</ele>
        <time>2019-10-29T14:11:09Z</time>
      </trkpt>
      <trkpt lat="45.22733" lon="0.85881">
        <ele>138.304</ele>
        <time>2019-10-29T14:10:49Z</time>
      </trkpt>
      <trkpt lat="45.22742" lon="0.85767">
        <ele>134.253</ele>
        <time>2019-10-29T14:10:29Z</time>
      </trkpt>
      <trkpt lat="45.22761" lon="0.85771">
        <ele>135.624</ele>
        <time>2019-10-29T14:10:09Z</time>
      </trkpt>
      <trkpt lat="45.2278" lon="0.85701">
        <ele>135.165</ele>
        <time>2019-10-29T14:09:49Z</time>
      </trkpt>
      <trkpt lat="45.22807" lon="0.85678">
        <ele>135.529</ele>
        <time>2019-10-29T14:09:29Z</time>
      </trkpt>
      <trkpt lat="45.22805" lon="0.8565">
        <ele>135.677</ele>
        <time>2019-10-29T14:09:09Z</time>
      </trkpt>
      <trkpt lat="45.22816" lon="0.85631">
        <ele>137.261</ele>
        <time>2019-10-29T14:08:49Z</time>
      </trkpt>
      <trkpt lat="45.22808" lon="0.85592">
        <ele>138.888</ele>
        <time>2019-10-29T14:08:29Z</time>
      </trkpt>
      <trkpt lat="45.22805" lon="0.85522">
        <ele>132.313</ele>
        <time>2019-10-29T14:08:09Z</time>
      </trkpt>
      <trkpt lat="45.22818" lon="0.85484">
        <ele>130.997</ele>
        <time>2019-10-29T14:07:49Z</time>
      </trkpt>
      <trkpt lat="45.22804" lon="0.85449">
        <ele>128.808</ele>
        <time>2019-10-29T14:07:29Z</time>
      </trkpt>
      <trkpt lat="45.2278" lon="0.85463">
        <ele>126.813</ele>
        <time>2019-10-29T14:07:09Z</time>
      </trkpt>
      <trkpt lat="45.22772" lon="0.8546">
        <ele>126.176</ele>
        <time>2019-10-29T14:06:49Z</time>
      </trkpt>
      <trkpt lat="45.22756" lon="0.85371">
        <ele>120.416</ele>
        <time>2019-10-29T14:06:29Z</time>
      </trkpt>
      <trkpt lat="45.227" lon="0.85327">
        <ele>115.538</ele>
        <time>2019-10-29T14:06:09Z</time>
      </trkpt>
      <trkpt lat="45.22546" lon="0.85093">
        <ele>107.829</ele>
        <time>2019-10-29T14:05:49Z</time>
      </trkpt>
      <trkpt lat="45.22487" lon="0.84948">
        <ele>106.553</ele>
        <time>2019-10-29T14:05:29Z</time>
      </trkpt>
      <trkpt lat="45.22365" lon="0.84785">
        <ele>105.551</ele>
        <time>2019-10-29T14:05:09Z</time>
      </trkpt>
      <trkpt lat="45.22232" lon="0.84562">
        <ele>105.475</ele>
        <time>2019-10-29T14:04:49Z</time>
      </trkpt>
      <trkpt lat="45.22192" lon="0.84481">
        <ele>105.092</ele>
        <time>2019-10-29T14:04:29Z</time>
      </trkpt>
      <trkpt lat="45.22041" lon="0.83948">
        <ele>101.957</ele>
        <time>2019-10-29T14:04:09Z</time>
      </trkpt>
      <trkpt lat="45.22173" lon="0.83805">
        <ele>109.361</ele>
        <time>2019-10-29T14:03:49Z</time>
      </trkpt>
      <trkpt lat="45.2217" lon="0.8378">
        <ele>112.008</ele>
        <time>2019-10-29T14:03:29Z</time>
      </trkpt>
      <trkpt lat="45.22193" lon="0.83668">
        <ele>120.917</ele>
        <time>2019-10-29T14:03:09Z</time>
      </trkpt>
      <trkpt lat="45.22166" lon="0.83548">
        <ele>136.907</ele>
        <time>2019-10-29T14:02:49Z</time>
      </trkpt>
      <trkpt lat="45.22162" lon="0.83499">
        <ele>143.655</ele>
        <time>2019-10-29T14:02:29Z</time>
      </trkpt>
      <trkpt lat="45.22152" lon="0.8345">
        <ele>148.312</ele>
        <time>2019-10-29T14:02:09Z</time>
      </trkpt>
      <trkpt lat="45.22131" lon="0.83115">
        <ele>160.053</ele>
        <time>2019-10-29T14:01:49Z</time>
      </trkpt>
      <trkpt lat="45.22151" lon="0.82878">
        <ele>167.697</ele>
        <time>2019-10-29T14:01:29Z</time>
      </trkpt>
      <trkpt lat="45.22152" lon="0.82739">
        <ele>177.435</ele>
        <time>2019-10-29T14:01:09Z</time>
      </trkpt>
      <trkpt lat="45.22146" lon="0.8264">
        <ele>185.099</ele>
        <time>2019-10-29T14:00:49Z</time>
      </trkpt>
      <trkpt lat="45.22157" lon="0.82551">
        <ele>188.246</ele>
        <time>2019-10-29T14:00:29Z</time>
      </trkpt>
      <trkpt lat="45.22153" lon="0.82419">
        <ele>190.461</ele>
        <time>2019-10-29T14:00:09Z</time>
      </trkpt>
      <trkpt lat="45.22175" lon="0.82198">
        <ele>191.695</ele>
        <time>2019-10-29T13:59:49Z</time>
      </trkpt>
      <trkpt lat="45.22198" lon="0.82061">
        <ele>192.008</ele>
        <time>2019-10-29T13:59:29Z</time>
      </trkpt>
      <trkpt lat="45.22224" lon="0.82001">
        <ele>192.12</ele>
        <time>2019-10-29T13:59:09Z</time>
      </trkpt>
      <trkpt lat="45.22233" lon="0.81923">
        <ele>192.973</ele>
        <time>2019-10-29T13:58:49Z</time>
      </trkpt>
      <trkpt lat="45.22326" lon="0.81734">
        <ele>197.192</ele>
        <time>2019-10-29T13:58:29Z</time>
      </trkpt>
      <trkpt lat="45.22388" lon="0.8164">
        <ele>195.078</ele>
        <time>2019-10-29T13:58:09Z</time>
      </trkpt>
      <trkpt lat="45.22485" lon="0.81531">
        <ele>204.049</ele>
        <time>2019-10-29T13:57:49Z</time>
      </trkpt>
      <trkpt lat="45.22555" lon="0.81474">
        <ele>205.193</ele>
        <time>2019-10-29T13:57:29Z</time>
      </trkpt>
      <trkpt lat="45.22638" lon="0.8146">
        <ele>203.551</ele>
        <time>2019-10-29T13:57:09Z</time>
      </trkpt>
      <trkpt lat="45.22732" lon="0.81432">
        <ele>207.525</ele>
        <time>2019-10-29T13:56:49Z</time>
      </trkpt>
      <trkpt lat="45.2285" lon="0.81421">
        <ele>211.872</ele>
        <time>2019-10-29T13:56:29Z</time>
      </trkpt>
      <trkpt lat="45.22968" lon="0.81445">
        <ele>202.257</ele>
        <time>2019-10-29T13:56:09Z</time>
      </trkpt>
      <trkpt lat="45.23026" lon="0.81447">
        <ele>201.171</ele>
        <time>2019-10-29T13:55:49Z</time>
      </trkpt>
      <trkpt lat="45.2319" lon="0.81396">
        <ele>202.908</ele>
        <time>2019-10-29T13:55:29Z</time>
      </trkpt>
      <trkpt lat="45.23244" lon="0.81377">
        <ele>203.823</ele>
        <time>2019-10-29T13:55:09Z</time>
      </trkpt>
      <trkpt lat="45.23262" lon="0.81341">
        <ele>206.103</ele>
        <time>2019-10-29T13:54:49Z</time>
      </trkpt>
      <trkpt lat="45.234" lon="0.81199">
        <ele>208.259</ele>
        <time>2020-12-25T20:03:35Z</time>
      </trkpt>
      <trkpt lat="45.23425" lon="0.81155">
        <ele>208.841</ele>
        <time>2020-12-25T20:03:15Z</time>
      </trkpt>
      <trkpt lat="45.2342" lon="0.81036">
        <ele>207.012</ele>
        <time>2020-12-25T20:02:55Z</time>
      </trkpt>
      <trkpt lat="45.23354" lon="0.80956">
        <ele>203.336</ele>
        <time>2020-12-25T20:02:35Z</time>
      </trkpt>
      <trkpt lat="45.2333" lon="0.80753">
        <ele>206.064</ele>
        <time>2020-12-25T20:02:15Z</time>
      </trkpt>
      <trkpt lat="45.232" lon="0.80584">
        <ele>200.228</ele>
        <time>2020-12-25T20:01:55Z</time>
      </trkpt>
      <trkpt lat="45.23184" lon="0.80528">
        <ele>194.945</ele>
        <time>2020-12-25T20:01:35Z</time>
      </trkpt>
      <trkpt lat="45.23197" lon="0.80434">
        <ele>195.17</ele>
        <time>2020-12-25T20:01:15Z</time>
      </trkpt>
      <trkpt lat="45.23174" lon="0.80432">
        <ele>190.574</ele>
        <time>2019-10-29T13:45:29Z</time>
      </trkpt>
      <trkpt lat="45.23111" lon="0.8036">
        <ele>188.108</ele>
        <time>2019-10-29T13:45:09Z</time>
      </trkpt>
      <trkpt lat="45.2309" lon="0.8036">
        <ele>190.326</ele>
        <time>2019-10-29T13:44:49Z</time>
      </trkpt>
      <trkpt lat="45.23032" lon="0.8044">
        <ele>187.324</ele>
        <time>2019-10-29T13:44:29Z</time>
      </trkpt>
      <trkpt lat="45.22972" lon="0.80473">
        <ele>185.088</ele>
        <time>2019-10-29T13:44:09Z</time>
      </trkpt>
      <trkpt lat="45.22876" lon="0.80466">
        <ele>190.244</ele>
        <time>2020-12-25T19:59:15Z</time>
      </trkpt>
      <trkpt lat="45.22824" lon="0.80573">
        <ele>189.435</ele>
        <time>2020-12-25T19:58:55Z</time>
      </trkpt>
      <trkpt lat="45.22752" lon="0.80634">
        <ele>184.449</ele>
        <time>2020-12-25T19:58:35Z</time>
      </trkpt>
      <trkpt lat="45.2269" lon="0.80598">
        <ele>172.947</ele>
        <time>2020-12-25T19:58:15Z</time>
      </trkpt>
      <trkpt lat="45.22616" lon="0.80614">
        <ele>162.031</ele>
        <time>2020-12-25T19:57:55Z</time>
      </trkpt>
      <trkpt lat="45.22593" lon="0.80547">
        <ele>157.138</ele>
        <time>2020-12-25T19:57:35Z</time>
      </trkpt>
      <trkpt lat="45.22725" lon="0.80238">
        <ele>156.643</ele>
        <time>2019-10-29T13:39:49Z</time>
      </trkpt>
      <trkpt lat="45.22779" lon="0.80058">
        <ele>160.977</ele>
        <time>2019-10-29T13:39:29Z</time>
      </trkpt>
      <trkpt lat="45.22779" lon="0.79975">
        <ele>166.708</ele>
        <time>2019-10-29T13:39:09Z</time>
      </trkpt>
      <trkpt lat="45.22756" lon="0.799">
        <ele>168.119</ele>
        <time>2019-10-29T13:38:49Z</time>
      </trkpt>
      <trkpt lat="45.22693" lon="0.79806">
        <ele>172.209</ele>
        <time>2019-10-29T13:38:29Z</time>
      </trkpt>
      <trkpt lat="45.22667" lon="0.79746">
        <ele>180.219</ele>
        <time>2019-10-29T13:38:09Z</time>
      </trkpt>
      <trkpt lat="45.22665" lon="0.79666">
        <ele>182.134</ele>
        <time>2019-10-29T13:37:49Z</time>
      </trkpt>
      <trkpt lat="45.22695" lon="0.79459">
        <ele>185.985</ele>
        <time>2019-10-29T13:37:29Z</time>
      </trkpt>
      <trkpt lat="45.2261" lon="0.79515">
        <ele>190.679</ele>
        <time>2019-10-29T13:37:09Z</time>
      </trkpt>
      <trkpt lat="45.22579" lon="0.79477">
        <ele>193.557</ele>
        <time>2019-10-29T13:36:49Z</time>
      </trkpt>
      <trkpt lat="45.22499" lon="0.79441">
        <ele>198.741</ele>
        <time>2019-10-29T13:36:29Z</time>
      </trkpt>
      <trkpt lat="45.22452" lon="0.79255">
        <ele>197.458</ele>
        <time>2019-10-29T13:36:09Z</time>
      </trkpt>
      <trkpt lat="45.2241" lon="0.79189">
        <ele>193.093</ele>
        <time>2019-10-29T13:35:49Z</time>
      </trkpt>
      <trkpt lat="45.22366" lon="0.79091">
        <ele>191.657</ele>
        <time>2019-10-29T13:35:29Z</time>
      </trkpt>
      <trkpt lat="45.22318" lon="0.79053">
        <ele>194.108</ele>
        <time>2019-10-29T13:35:09Z</time>
      </trkpt>
      <trkpt lat="45.22248" lon="0.78928">
        <ele>201.119</ele>
        <time>2019-10-29T13:34:49Z</time>
      </trkpt>
      <trkpt lat="45.22104" lon="0.78807">
        <ele>210.409</ele>
        <time>2019-10-29T13:34:29Z</time>
      </trkpt>
      <trkpt lat="45.22037" lon="0.78825">
        <ele>208.519</ele>
        <time>2019-10-29T13:34:09Z</time>
      </trkpt>
      <trkpt lat="45.22019" lon="0.78748">
        <ele>218.749</ele>
        <time>2019-10-29T13:33:49Z</time>
      </trkpt>
      <trkpt lat="45.22053" lon="0.78691">
        <ele>222.42</ele>
        <time>2019-10-29T13:33:29Z</time>
      </trkpt>
      <trkpt lat="45.22105" lon="0.78668">
        <ele>226.224</ele>
        <time>2019-10-29T13:33:09Z</time>
      </trkpt>
      <trkpt lat="45.22129" lon="0.78631">
        <ele>229.272</ele>
        <time>2019-10-29T13:32:49Z</time>
      </trkpt>
      <trkpt lat="45.22144" lon="0.7862">
        <ele>229.216</ele>
        <time>2019-10-29T13:32:29Z</time>
      </trkpt>
      <trkpt lat="45.22088" lon="0.78453">
        <ele>217.813</ele>
        <time>2020-12-25T19:49:35Z</time>
      </trkpt>
      <trkpt lat="45.22083" lon="0.78386">
        <ele>214.248</ele>
        <time>2020-12-25T19:49:15Z</time>
      </trkpt>
      <trkpt lat="45.22059" lon="0.78339">
        <ele>208.362</ele>
        <time>2020-12-25T19:48:55Z</time>
      </trkpt>
      <trkpt lat="45.22018" lon="0.78167">
        <ele>188.308</ele>
        <time>2019-10-29T13:30:09Z</time>
      </trkpt>
      <trkpt lat="45.21942" lon="0.77882">
        <ele>174.314</ele>
        <time>2019-10-29T13:29:49Z</time>
      </trkpt>
      <trkpt lat="45.21916" lon="0.77825">
        <ele>173.368</ele>
        <time>2019-10-29T13:29:29Z</time>
      </trkpt>
      <trkpt lat="45.21912" lon="0.77683">
        <ele>161.365</ele>
        <time>2019-10-29T13:29:09Z</time>
      </trkpt>
      <trkpt lat="45.21889" lon="0.77473">
        <ele>152.074</ele>
        <time>2019-10-29T13:28:49Z</time>
      </trkpt>
      <trkpt lat="45.21866" lon="0.7744">
        <ele>150.845</ele>
        <time>2019-10-29T13:28:29Z</time>
      </trkpt>
      <trkpt lat="45.21823" lon="0.77426">
        <ele>146.689</ele>
        <time>2019-10-29T13:28:09Z</time>
      </trkpt>
      <trkpt lat="45.21808" lon="0.77413">
        <ele>145.467</ele>
        <time>2019-10-29T13:27:49Z</time>
      </trkpt>
      <trkpt lat="45.21735" lon="0.77391">
        <ele>145.181</ele>
        <time>2019-10-29T13:27:29Z</time>
      </trkpt>
      <trkpt lat="45.2165" lon="0.77338">
        <ele>145.148</ele>
        <time>2019-10-29T13:27:09Z</time>
      </trkpt>
      <trkpt lat="45.21602" lon="0.77264">
        <ele>144.563</ele>
        <time>2019-10-29T13:26:49Z</time>
      </trkpt>
      <trkpt lat="45.21552" lon="0.77235">
        <ele>144.977</ele>
        <time>2019-10-29T13:26:29Z</time>
      </trkpt>
      <trkpt lat="45.21472" lon="0.77217">
        <ele>140.408</ele>
        <time>2019-10-29T13:26:09Z</time>
      </trkpt>
      <trkpt lat="45.21377" lon="0.77175">
        <ele>138.415</ele>
        <time>2019-10-29T13:25:49Z</time>
      </trkpt>
      <trkpt lat="45.21295" lon="0.77167">
        <ele>136.287</ele>
        <time>2019-10-29T13:25:29Z</time>
      </trkpt>
      <trkpt lat="45.21262" lon="0.77137">
        <ele>134.017</ele>
        <time>2019-10-29T13:25:09Z</time>
      </trkpt>
      <trkpt lat="45.21292" lon="0.77124">
        <ele>134.078</ele>
        <time>2019-10-29T13:24:49Z</time>
      </trkpt>
      <trkpt lat="45.21304" lon="0.77088">
        <ele>133.929</ele>
        <time>2019-10-29T13:24:29Z</time>
      </trkpt>
      <trkpt lat="45.21351" lon="0.77108">
        <ele>141.153</ele>
        <time>2020-12-25T19:42:35Z</time>
      </trkpt>
      <trkpt lat="45.21391" lon="0.76996">
        <ele>152.811</ele>
        <time>2020-12-25T19:42:15Z</time>
      </trkpt>
      <trkpt lat="45.21443" lon="0.76937">
        <ele>161.225</ele>
        <time>2020-12-25T19:41:55Z</time>
      </trkpt>
      <trkpt lat="45.21462" lon="0.76877">
        <ele>167.782</ele>
        <time>2019-10-29T13:23:09Z</time>
      </trkpt>
      <trkpt lat="45.21493" lon="0.76806">
        <ele>172.887</ele>
        <time>2019-10-29T13:22:49Z</time>
      </trkpt>
      <trkpt lat="45.2156" lon="0.7671">
        <ele>181.641</ele>
        <time>2019-10-29T13:22:29Z</time>
      </trkpt>
      <trkpt lat="45.21621" lon="0.76581">
        <ele>188.208</ele>
        <time>2019-10-29T13:22:09Z</time>
      </trkpt>
      <trkpt lat="45.21714" lon="0.76467">
        <ele>200.214</ele>
        <time>2019-10-29T13:21:49Z</time>
      </trkpt>
      <trkpt lat="45.21777" lon="0.76371">
        <ele>197.704</ele>
        <time>2019-10-29T13:21:29Z</time>
      </trkpt>
      <trkpt lat="45.21842" lon="0.76202">
        <ele>204.153</ele>
        <time>2019-10-29T13:21:09Z</time>
      </trkpt>
      <trkpt lat="45.21914" lon="0.75944">
        <ele>230.896</ele>
        <time>2019-10-29T13:20:49Z</time>
      </trkpt>
      <trkpt lat="45.21928" lon="0.75841">
        <ele>232.247</ele>
        <time>2019-10-29T13:20:29Z</time>
      </trkpt>
      <trkpt lat="45.21905" lon="0.75659">
        <ele>229.561</ele>
        <time>2019-10-29T13:20:09Z</time>
      </trkpt>
      <trkpt lat="45.21883" lon="0.75449">
        <ele>219.329</ele>
        <time>2019-10-29T13:19:49Z</time>
      </trkpt>
      <trkpt lat="45.21852" lon="0.75269">
        <ele>228.953</ele>
        <time>2019-10-29T13:19:29Z</time>
      </trkpt>
      <trkpt lat="45.21842" lon="0.75131">
        <ele>236.61</ele>
        <time>2019-10-29T13:19:09Z</time>
      </trkpt>
      <trkpt lat="45.21845" lon="0.75069">
        <ele>237.835</ele>
        <time>2019-10-29T13:18:49Z</time>
      </trkpt>
      <trkpt lat="45.21861" lon="0.75064">
        <ele>237.329</ele>
        <time>2019-10-29T13:18:29Z</time>
      </trkpt>
      <trkpt lat="45.21895" lon="0.74976">
        <ele>237.408</ele>
        <time>2019-10-29T13:18:09Z</time>
      </trkpt>
      <trkpt lat="45.21898" lon="0.74825">
        <ele>238.417</ele>
        <time>2019-10-29T13:17:49Z</time>
      </trkpt>
      <trkpt lat="45.21909" lon="0.74716">
        <ele>233.87</ele>
        <time>2019-10-29T13:17:29Z</time>
      </trkpt>
      <trkpt lat="45.21906" lon="0.74635">
        <ele>227.738</ele>
        <time>2019-10-29T13:17:09Z</time>
      </trkpt>
      <trkpt lat="45.21914" lon="0.74326">
        <ele>223.959</ele>
        <time>2019-10-29T13:16:49Z</time>
      </trkpt>
      <trkpt lat="45.21923" lon="0.7421">
        <ele>218.87</ele>
        <time>2019-10-29T13:16:29Z</time>
      </trkpt>
      <trkpt lat="45.21816" lon="0.74163">
        <ele>208.294</ele>
        <time>2019-10-29T13:16:09Z</time>
      </trkpt>
      <trkpt lat="45.21774" lon="0.7408">
        <ele>203.132</ele>
        <time>2019-10-29T13:15:49Z</time>
      </trkpt>
      <trkpt lat="45.21798" lon="0.73979">
        <ele>200.176</ele>
        <time>2019-10-29T13:15:29Z</time>
      </trkpt>
      <trkpt lat="45.21818" lon="0.73584">
        <ele>191.943</ele>
        <time>2019-10-29T13:15:09Z</time>
      </trkpt>
      <trkpt lat="45.21836" lon="0.7342">
        <ele>190.678</ele>
        <time>2019-10-29T13:14:49Z</time>
      </trkpt>
      <trkpt lat="45.21824" lon="0.73264">
        <ele>190.872</ele>
        <time>2019-10-29T13:14:29Z</time>
      </trkpt>
      <trkpt lat="45.21841" lon="0.73171">
        <ele>188.008</ele>
        <time>2019-10-29T13:14:09Z</time>
      </trkpt>
      <trkpt lat="45.21839" lon="0.73121">
        <ele>184.024</ele>
        <time>2019-10-29T13:13:49Z</time>
      </trkpt>
      <trkpt lat="45.21813" lon="0.73069">
        <ele>186.304</ele>
        <time>2019-10-29T13:13:29Z</time>
      </trkpt>
      <trkpt lat="45.2174" lon="0.72964">
        <ele>192.069</ele>
        <time>2019-10-29T13:13:09Z</time>
      </trkpt>
      <trkpt lat="45.21732" lon="0.72898">
        <ele>196.062</ele>
        <time>2019-10-29T13:12:49Z</time>
      </trkpt>
      <trkpt lat="45.21749" lon="0.7281">
        <ele>196.233</ele>
        <time>2019-10-29T13:12:29Z</time>
      </trkpt>
      <trkpt lat="45.21603" lon="0.72662">
        <ele>203.237</ele>
        <time>2019-10-29T13:12:09Z</time>
      </trkpt>
      <trkpt lat="45.21538" lon="0.72626">
        <ele>208.375</ele>
        <time>2019-10-29T13:11:49Z</time>
      </trkpt>
      <trkpt lat="45.21523" lon="0.72602">
        <ele>208.329</ele>
        <time>2019-10-29T13:11:29Z</time>
      </trkpt>
      <trkpt lat="45.21527" lon="0.72416">
        <ele>202.086</ele>
        <time>2019-10-29T13:11:09Z</time>
      </trkpt>
      <trkpt lat="45.21485" lon="0.72304">
        <ele>203.571</ele>
        <time>2019-10-29T13:10:49Z</time>
      </trkpt>
      <trkpt lat="45.2148" lon="0.72137">
        <ele>204.895</ele>
        <time>2019-10-29T13:10:29Z</time>
      </trkpt>
      <trkpt lat="45.21404" lon="0.7181">
        <ele>206.508</ele>
        <time>2019-10-29T13:10:09Z</time>
      </trkpt>
      <trkpt lat="45.21385" lon="0.71618">
        <ele>200.422</ele>
        <time>2019-10-29T13:09:49Z</time>
      </trkpt>
      <trkpt lat="45.21461" lon="0.71598">
        <ele>197.157</ele>
        <time>2019-10-29T13:09:29Z</time>
      </trkpt>
      <trkpt lat="45.2148" lon="0.71501">
        <ele>187.594</ele>
        <time>2019-10-29T13:09:09Z</time>
      </trkpt>
      <trkpt lat="45.21533" lon="0.71454">
        <ele>182.475</ele>
        <time>2019-10-29T13:08:49Z</time>
      </trkpt>
      <trkpt lat="45.21623" lon="0.71286">
        <ele>163.086</ele>
        <time>2019-10-29T13:08:29Z</time>
      </trkpt>
      <trkpt lat="45.21638" lon="0.71158">
        <ele>152.53</ele>
        <time>2019-10-29T13:08:09Z</time>
      </trkpt>
      <trkpt lat="45.21603" lon="0.7108">
        <ele>142.628</ele>
        <time>2019-10-29T13:07:49Z</time>
      </trkpt>
      <trkpt lat="45.21601" lon="0.71026">
        <ele>139.462</ele>
        <time>2019-10-29T13:07:29Z</time>
      </trkpt>
      <trkpt lat="45.21658" lon="0.70917">
        <ele>121.969</ele>
        <time>2019-10-29T13:07:09Z</time>
      </trkpt>
      <trkpt lat="45.21765" lon="0.70746">
        <ele>102.184</ele>
        <time>2019-10-29T13:06:49Z</time>
      </trkpt>
      <trkpt lat="45.21661" lon="0.7071">
        <ele>107.698</ele>
        <time>2020-12-25T19:24:55Z</time>
      </trkpt>
      <trkpt lat="45.21628" lon="0.7067">
        <ele>104.208</ele>
        <time>2020-12-25T19:24:35Z</time>
      </trkpt>
      <trkpt lat="45.21605" lon="0.70619">
        <ele>102.111</ele>
        <time>2020-12-25T19:24:15Z</time>
      </trkpt>
      <trkpt lat="45.21582" lon="0.70588">
        <ele>100.583</ele>
        <time>2020-12-25T19:23:55Z</time>
      </trkpt>
      <trkpt lat="45.21569" lon="0.70555">
        <ele>99.923</ele>
        <time>2020-12-25T19:23:35Z</time>
      </trkpt>
      <trkpt lat="45.21543" lon="0.70538">
        <ele>100.938</ele>
        <time>2019-10-29T13:04:29Z</time>
      </trkpt>
      <trkpt lat="45.21529" lon="0.70579">
        <ele>104.659</ele>
        <time>2019-10-29T13:04:09Z</time>
      </trkpt>
      <trkpt lat="45.21489" lon="0.70569">
        <ele>104.933</ele>
        <time>2019-10-29T13:03:49Z</time>
      </trkpt>
      <trkpt lat="45.21441" lon="0.70535">
        <ele>103.191</ele>
        <time>2019-10-29T13:03:29Z</time>
      </trkpt>
      <trkpt lat="45.21382" lon="0.70476">
        <ele>107.565</ele>
        <time>2019-10-29T13:03:09Z</time>
      </trkpt>
      <trkpt lat="45.21336" lon="0.70429">
        <ele>105.912</ele>
        <time>2019-10-29T13:02:49Z</time>
      </trkpt>
      <trkpt lat="45.21144" lon="0.70319">
        <ele>105.347</ele>
        <time>2019-10-29T13:02:29Z</time>
      </trkpt>
      <trkpt lat="45.2118" lon="0.70187">
        <ele>105.021</ele>
        <time>2019-10-29T13:02:09Z</time>
      </trkpt>
      <trkpt lat="45.21139" lon="0.70137">
        <ele>105.908</ele>
        <time>2019-10-29T13:01:49Z</time>
      </trkpt>
      <trkpt lat="45.20987" lon="0.70049">
        <ele>106.611</ele>
        <time>2019-10-29T13:01:29Z</time>
      </trkpt>
      <trkpt lat="45.21021" lon="0.70045">
        <ele>113.701</ele>
        <time>2019-10-29T13:01:09Z</time>
      </trkpt>
      <trkpt lat="45.21072" lon="0.70031">
        <ele>128.751</ele>
        <time>2019-10-29T13:00:49Z</time>
      </trkpt>
      <trkpt lat="45.21125" lon="0.70054">
        <ele>130.735</ele>
        <time>2019-10-29T13:00:29Z</time>
      </trkpt>
      <trkpt lat="45.21173" lon="0.70084">
        <ele>127.666</ele>
        <time>2019-10-29T13:00:09Z</time>
      </trkpt>
      <trkpt lat="45.21215" lon="0.70106">
        <ele>127.06</ele>
        <time>2019-10-29T12:59:49Z</time>
      </trkpt>
      <trkpt lat="45.21511" lon="0.70107">
        <ele>145.668</ele>
        <time>2019-10-29T12:59:29Z</time>
      </trkpt>
      <trkpt lat="45.21533" lon="0.70071">
        <ele>151.932</ele>
        <time>2019-10-29T12:59:09Z</time>
      </trkpt>
      <trkpt lat="45.21531" lon="0.70019">
        <ele>157.969</ele>
        <time>2019-10-29T12:58:49Z</time>
      </trkpt>
      <trkpt lat="45.21503" lon="0.69945">
        <ele>165.194</ele>
        <time>2019-10-29T12:58:29Z</time>
      </trkpt>
      <trkpt lat="45.21418" lon="0.70006">
        <ele>167.758</ele>
        <time>2019-10-29T12:58:09Z</time>
      </trkpt>
      <trkpt lat="45.21386" lon="0.69976">
        <ele>175.608</ele>
        <time>2019-10-29T12:57:49Z</time>
      </trkpt>
      <trkpt lat="45.21248" lon="0.69907">
        <ele>182.808</ele>
        <time>2019-10-29T12:57:29Z</time>
      </trkpt>
      <trkpt lat="45.21031" lon="0.69769">
        <ele>169.062</ele>
        <time>2019-10-29T12:57:09Z</time>
      </trkpt>
      <trkpt lat="45.2107" lon="0.69751">
        <ele>169.522</ele>
        <time>2019-10-29T12:56:49Z</time>
      </trkpt>
      <trkpt lat="45.21112" lon="0.69676">
        <ele>169.827</ele>
        <time>2019-10-29T12:56:29Z</time>
      </trkpt>
      <trkpt lat="45.21091" lon="0.69631">
        <ele>164.968</ele>
        <time>2019-10-29T12:56:09Z</time>
      </trkpt>
      <trkpt lat="45.20931" lon="0.69553">
        <ele>167.792</ele>
        <time>2019-10-29T12:55:49Z</time>
      </trkpt>
      <trkpt lat="45.20875" lon="0.69548">
        <ele>169.47</ele>
        <time>2019-10-29T12:55:29Z</time>
      </trkpt>
      <trkpt lat="45.20807" lon="0.69496">
        <ele>172.014</ele>
        <time>2019-10-29T12:55:09Z</time>
      </trkpt>
      <trkpt lat="45.2079" lon="0.69452">
        <ele>170.891</ele>
        <time>2019-10-29T12:54:49Z</time>
      </trkpt>
      <trkpt lat="45.20787" lon="0.69388">
        <ele>169.456</ele>
        <time>2019-10-29T12:54:29Z</time>
      </trkpt>
      <trkpt lat="45.2075" lon="0.69268">
        <ele>174.39</ele>
        <time>2019-10-29T12:54:09Z</time>
      </trkpt>
      <trkpt lat="45.20845" lon="0.69156">
        <ele>175.208</ele>
        <time>2019-10-29T12:53:49Z</time>
      </trkpt>
      <trkpt lat="45.21056" lon="0.68816">
        <ele>176.915</ele>
        <time>2019-10-29T12:53:29Z</time>
      </trkpt>
      <trkpt lat="45.21141" lon="0.68774">
        <ele>176.005</ele>
        <time>2019-10-29T12:53:09Z</time>
      </trkpt>
      <trkpt lat="45.212" lon="0.68714">
        <ele>176.144</ele>
        <time>2019-10-29T12:52:49Z</time>
      </trkpt>
      <trkpt lat="45.21263" lon="0.68681">
        <ele>173.198</ele>
        <time>2019-10-29T12:52:29Z</time>
      </trkpt>
      <trkpt lat="45.21327" lon="0.68593">
        <ele>168.319</ele>
        <time>2019-10-29T12:52:09Z</time>
      </trkpt>
      <trkpt lat="45.21412" lon="0.68553">
        <ele>171.073</ele>
        <time>2019-10-29T12:51:49Z</time>
      </trkpt>
      <trkpt lat="45.21474" lon="0.68483">
        <ele>169.011</ele>
        <time>2019-10-29T12:51:29Z</time>
      </trkpt>
      <trkpt lat="45.21514" lon="0.68458">
        <ele>169.035</ele>
        <time>2019-10-29T12:51:09Z</time>
      </trkpt>
      <trkpt lat="45.21469" lon="0.68401">
        <ele>171.432</ele>
        <time>2019-10-29T12:50:49Z</time>
      </trkpt>
      <trkpt lat="45.21375" lon="0.68227">
        <ele>168.987</ele>
        <time>2019-10-29T12:50:29Z</time>
      </trkpt>
      <trkpt lat="45.21373" lon="0.68149">
        <ele>169.871</ele>
        <time>2019-10-29T12:50:09Z</time>
      </trkpt>
      <trkpt lat="45.21334" lon="0.68133">
        <ele>168.808</ele>
        <time>2019-10-29T12:49:49Z</time>
      </trkpt>
      <trkpt lat="45.21292" lon="0.68099">
        <ele>170.008</ele>
        <time>2019-10-29T12:49:29Z</time>
      </trkpt>
      <trkpt lat="45.21264" lon="0.68052">
        <ele>170.553</ele>
        <time>2019-10-29T12:49:09Z</time>
      </trkpt>
      <trkpt lat="45.21233" lon="0.67946">
        <ele>170.252</ele>
        <time>2019-10-29T12:48:49Z</time>
      </trkpt>
      <trkpt lat="45.21218" lon="0.67837">
        <ele>171.039</ele>
        <time>2019-10-29T12:48:29Z</time>
      </trkpt>
      <trkpt lat="45.21171" lon="0.67766">
        <ele>171.02</ele>
        <time>2019-10-29T12:48:09Z</time>
      </trkpt>
      <trkpt lat="45.21088" lon="0.67783">
        <ele>170.484</ele>
        <time>2019-10-29T12:47:49Z</time>
      </trkpt>
      <trkpt lat="45.21042" lon="0.67751">
        <ele>170.092</ele>
        <time>2019-10-29T12:47:29Z</time>
      </trkpt>
      <trkpt lat="45.20968" lon="0.67738">
        <ele>165.336</ele>
        <time>2019-10-29T12:47:09Z</time>
      </trkpt>
      <trkpt lat="45.20979" lon="0.67492">
        <ele>155.253</ele>
        <time>2019-10-29T12:46:49Z</time>
      </trkpt>
      <trkpt lat="45.20973" lon="0.6738">
        <ele>139.218</ele>
        <time>2019-10-29T12:46:29Z</time>
      </trkpt>
      <trkpt lat="45.20931" lon="0.67274">
        <ele>126.792</ele>
        <time>2019-10-29T12:46:09Z</time>
      </trkpt>
      <trkpt lat="45.20901" lon="0.67214">
        <ele>118.708</ele>
        <time>2019-10-29T12:45:49Z</time>
      </trkpt>
      <trkpt lat="45.20902" lon="0.67167">
        <ele>110.119</ele>
        <time>2019-10-29T12:45:29Z</time>
      </trkpt>
      <trkpt lat="45.20918" lon="0.6711">
        <ele>101.881</ele>
        <time>2019-10-29T12:45:09Z</time>
      </trkpt>
      <trkpt lat="45.20918" lon="0.6705">
        <ele>101.767</ele>
        <time>2019-10-29T12:44:49Z</time>
      </trkpt>
      <trkpt lat="45.20901" lon="0.66952">
        <ele>96.561</ele>
        <time>2019-10-29T12:44:29Z</time>
      </trkpt>
      <trkpt lat="45.20984" lon="0.66913">
        <ele>95.642</ele>
        <time>2019-10-29T12:44:09Z</time>
      </trkpt>
      <trkpt lat="45.21115" lon="0.66912">
        <ele>90.366</ele>
        <time>2019-10-29T12:43:49Z</time>
      </trkpt>
      <trkpt lat="45.21157" lon="0.66922">
        <ele>93.264</ele>
        <time>2019-10-29T12:43:29Z</time>
      </trkpt>
      <trkpt lat="45.212" lon="0.669">
        <ele>95.138</ele>
        <time>2019-10-29T12:43:09Z</time>
      </trkpt>
      <trkpt lat="45.21248" lon="0.66892">
        <ele>100.045</ele>
        <time>2019-10-29T12:42:49Z</time>
      </trkpt>
      <trkpt lat="45.21255" lon="0.66791">
        <ele>103.27</ele>
        <time>2019-10-29T12:42:29Z</time>
      </trkpt>
      <trkpt lat="45.21241" lon="0.66769">
        <ele>101.614</ele>
        <time>2019-10-29T12:42:09Z</time>
      </trkpt>
      <trkpt lat="45.21209" lon="0.66762">
        <ele>95.408</ele>
        <time>2019-10-29T12:41:49Z</time>
      </trkpt>
      <trkpt lat="45.21181" lon="0.66656">
        <ele>92.417</ele>
        <time>2019-10-29T12:41:29Z</time>
      </trkpt>
      <trkpt lat="45.21138" lon="0.66551">
        <ele>96.107</ele>
        <time>2019-10-29T12:41:09Z</time>
      </trkpt>
      <trkpt lat="45.21084" lon="0.66517">
        <ele>93.884</ele>
        <time>2019-10-29T12:40:49Z</time>
      </trkpt>
      <trkpt lat="45.21019" lon="0.66452">
        <ele>91.922</ele>
        <time>2019-10-29T12:40:29Z</time>
      </trkpt>
      <trkpt lat="45.20953" lon="0.66439">
        <ele>101.143</ele>
        <time>2019-10-29T12:40:09Z</time>
      </trkpt>
      <trkpt lat="45.20852" lon="0.66575">
        <ele>101.957</ele>
        <time>2019-10-29T12:39:49Z</time>
      </trkpt>
      <trkpt lat="45.20823" lon="0.66596">
        <ele>102.225</ele>
        <time>2019-10-29T12:39:29Z</time>
      </trkpt>
      <trkpt lat="45.20779" lon="0.666">
        <ele>102.739</ele>
        <time>2019-10-29T12:39:09Z</time>
      </trkpt>
      <trkpt lat="45.20768" lon="0.6658">
        <ele>105.216</ele>
        <time>2019-10-29T12:38:49Z</time>
      </trkpt>
      <trkpt lat="45.20734" lon="0.66578">
        <ele>103.311</ele>
        <time>2019-10-29T12:38:29Z</time>
      </trkpt>
      <trkpt lat="45.20728" lon="0.66556">
        <ele>104.865</ele>
        <time>2019-10-29T12:38:09Z</time>
      </trkpt>
      <trkpt lat="45.20768" lon="0.66422">
        <ele>120.708</ele>
        <time>2019-10-29T12:37:49Z</time>
      </trkpt>
      <trkpt lat="45.20845" lon="0.66321">
        <ele>130.722</ele>
        <time>2019-10-29T12:37:29Z</time>
      </trkpt>
      <trkpt lat="45.20868" lon="0.6633">
        <ele>134.657</ele>
        <time>2019-10-29T12:37:09Z</time>
      </trkpt>
      <trkpt lat="45.20939" lon="0.66252">
        <ele>141.594</ele>
        <time>2019-10-29T12:36:49Z</time>
      </trkpt>
      <trkpt lat="45.20995" lon="0.66224">
        <ele>147.316</ele>
        <time>2019-10-29T12:36:29Z</time>
      </trkpt>
      <trkpt lat="45.21021" lon="0.66242">
        <ele>149.427</ele>
        <time>2019-10-29T12:36:09Z</time>
      </trkpt>
      <trkpt lat="45.21089" lon="0.66227">
        <ele>160.191</ele>
        <time>2019-10-29T12:35:49Z</time>
      </trkpt>
      <trkpt lat="45.2111" lon="0.662">
        <ele>164.779</ele>
        <time>2019-10-29T12:35:29Z</time>
      </trkpt>
      <trkpt lat="45.21215" lon="0.66198">
        <ele>173.073</ele>
        <time>2019-10-29T12:35:09Z</time>
      </trkpt>
      <trkpt lat="45.21257" lon="0.66159">
        <ele>172.26</ele>
        <time>2019-10-29T12:34:49Z</time>
      </trkpt>
      <trkpt lat="45.21344" lon="0.66136">
        <ele>174.235</ele>
        <time>2019-10-29T12:34:29Z</time>
      </trkpt>
      <trkpt lat="45.21367" lon="0.66108">
        <ele>176.199</ele>
        <time>2019-10-29T12:34:09Z</time>
      </trkpt>
      <trkpt lat="45.21442" lon="0.661">
        <ele>175.808</ele>
        <time>2019-10-29T12:33:49Z</time>
      </trkpt>
      <trkpt lat="45.2149" lon="0.66105">
        <ele>175.707</ele>
        <time>2019-10-29T12:33:29Z</time>
      </trkpt>
      <trkpt lat="45.21542" lon="0.66084">
        <ele>179.061</ele>
        <time>2019-10-29T12:33:09Z</time>
      </trkpt>
      <trkpt lat="45.21597" lon="0.66082">
        <ele>181.531</ele>
        <time>2019-10-29T12:32:49Z</time>
      </trkpt>
      <trkpt lat="45.21687" lon="0.66039">
        <ele>181.689</ele>
        <time>2019-10-29T12:32:29Z</time>
      </trkpt>
      <trkpt lat="45.21815" lon="0.66026">
        <ele>184.48</ele>
        <time>2019-10-29T12:32:09Z</time>
      </trkpt>
      <trkpt lat="45.21874" lon="0.65957">
        <ele>180.884</ele>
        <time>2019-10-29T12:31:49Z</time>
      </trkpt>
      <trkpt lat="45.21893" lon="0.65869">
        <ele>181.062</ele>
        <time>2019-10-29T12:31:29Z</time>
      </trkpt>
      <trkpt lat="45.21914" lon="0.65822">
        <ele>180.966</ele>
        <time>2019-10-29T12:31:09Z</time>
      </trkpt>
      <trkpt lat="45.21963" lon="0.65772">
        <ele>182.693</ele>
        <time>2019-10-29T12:30:49Z</time>
      </trkpt>
      <trkpt lat="45.21972" lon="0.65671">
        <ele>184.778</ele>
        <time>2019-10-29T12:30:29Z</time>
      </trkpt>
      <trkpt lat="45.22168" lon="0.6532">
        <ele>191.522</ele>
        <time>2019-10-29T12:30:09Z</time>
      </trkpt>
      <trkpt lat="45.22194" lon="0.65294">
        <ele>193.408</ele>
        <time>2019-10-29T12:29:49Z</time>
      </trkpt>
      <trkpt lat="45.22251" lon="0.65227">
        <ele>194.213</ele>
        <time>2019-10-29T12:29:29Z</time>
      </trkpt>
      <trkpt lat="45.22262" lon="0.65193">
        <ele>193.921</ele>
        <time>2019-10-29T12:29:09Z</time>
      </trkpt>
      <trkpt lat="45.22239" lon="0.65051">
        <ele>187.861</ele>
        <time>2019-10-29T12:28:49Z</time>
      </trkpt>
      <trkpt lat="45.22267" lon="0.64918">
        <ele>185.432</ele>
        <time>2019-10-29T12:28:29Z</time>
      </trkpt>
      <trkpt lat="45.22177" lon="0.64894">
        <ele>185.473</ele>
        <time>2019-10-29T12:28:09Z</time>
      </trkpt>
      <trkpt lat="45.22174" lon="0.64834">
        <ele>184.797</ele>
        <time>2019-10-29T12:27:49Z</time>
      </trkpt>
      <trkpt lat="45.22397" lon="0.64679">
        <ele>163.135</ele>
        <time>2019-10-29T12:27:29Z</time>
      </trkpt>
      <trkpt lat="45.22419" lon="0.64647">
        <ele>159.959</ele>
        <time>2019-10-29T12:27:09Z</time>
      </trkpt>
      <trkpt lat="45.22458" lon="0.64616">
        <ele>156.756</ele>
        <time>2019-10-29T12:26:49Z</time>
      </trkpt>
      <trkpt lat="45.22537" lon="0.6458">
        <ele>144.931</ele>
        <time>2019-10-29T12:26:29Z</time>
      </trkpt>
      <trkpt lat="45.22545" lon="0.64542">
        <ele>140.275</ele>
        <time>2019-10-29T12:26:09Z</time>
      </trkpt>
      <trkpt lat="45.22572" lon="0.64536">
        <ele>138.008</ele>
        <time>2019-10-29T12:25:49Z</time>
      </trkpt>
      <trkpt lat="45.2263" lon="0.64549">
        <ele>141.019</ele>
        <time>2019-10-29T12:25:29Z</time>
      </trkpt>
      <trkpt lat="45.22685" lon="0.6459">
        <ele>142.181</ele>
        <time>2019-10-29T12:25:09Z</time>
      </trkpt>
      <trkpt lat="45.22701" lon="0.6462">
        <ele>141.291</ele>
        <time>2019-10-29T12:24:49Z</time>
      </trkpt>
      <trkpt lat="45.22748" lon="0.64664">
        <ele>139.416</ele>
        <time>2019-10-29T12:24:29Z</time>
      </trkpt>
      <trkpt lat="45.22835" lon="0.64806">
        <ele>141.157</ele>
        <time>2019-10-29T12:24:09Z</time>
      </trkpt>
      <trkpt lat="45.22854" lon="0.64861">
        <ele>137.781</ele>
        <time>2019-10-29T12:23:49Z</time>
      </trkpt>
      <trkpt lat="45.22883" lon="0.64861">
        <ele>138.899</ele>
        <time>2019-10-29T12:23:29Z</time>
      </trkpt>
      <trkpt lat="45.22922" lon="0.64848">
        <ele>141.083</ele>
        <time>2019-10-29T12:23:09Z</time>
      </trkpt>
      <trkpt lat="45.22989" lon="0.64785">
        <ele>148.12</ele>
        <time>2019-10-29T12:22:49Z</time>
      </trkpt>
      <trkpt lat="45.2302" lon="0.64739">
        <ele>152.325</ele>
        <time>2019-10-29T12:22:29Z</time>
      </trkpt>
      <trkpt lat="45.23087" lon="0.64699">
        <ele>158.069</ele>
        <time>2019-10-29T12:22:09Z</time>
      </trkpt>
      <trkpt lat="45.23145" lon="0.64681">
        <ele>163.008</ele>
        <time>2019-10-29T12:21:49Z</time>
      </trkpt>
      <trkpt lat="45.23177" lon="0.64712">
        <ele>169.915</ele>
        <time>2019-10-29T12:21:29Z</time>
      </trkpt>
      <trkpt lat="45.23245" lon="0.64661">
        <ele>181.223</ele>
        <time>2019-10-29T12:21:09Z</time>
      </trkpt>
      <trkpt lat="45.23264" lon="0.64568">
        <ele>178.533</ele>
        <time>2019-10-29T12:20:49Z</time>
      </trkpt>
      <trkpt lat="45.23317" lon="0.64529">
        <ele>179.542</ele>
        <time>2019-10-29T12:20:29Z</time>
      </trkpt>
      <trkpt lat="45.23348" lon="0.64492">
        <ele>181.533</ele>
        <time>2019-10-29T12:20:09Z</time>
      </trkpt>
      <trkpt lat="45.23398" lon="0.64406">
        <ele>188.917</ele>
        <time>2019-10-29T12:19:49Z</time>
      </trkpt>
      <trkpt lat="45.23428" lon="0.64325">
        <ele>189.485</ele>
        <time>2019-10-29T12:19:29Z</time>
      </trkpt>
      <trkpt lat="45.23474" lon="0.64313">
        <ele>187.959</ele>
        <time>2019-10-29T12:19:09Z</time>
      </trkpt>
      <trkpt lat="45.23508" lon="0.64274">
        <ele>186.156</ele>
        <time>2019-10-29T12:18:49Z</time>
      </trkpt>
      <trkpt lat="45.23555" lon="0.64175">
        <ele>180.661</ele>
        <time>2019-10-29T12:18:29Z</time>
      </trkpt>
      <trkpt lat="45.23702" lon="0.63959">
        <ele>172.715</ele>
        <time>2019-10-29T12:18:09Z</time>
      </trkpt>
      <trkpt lat="45.23749" lon="0.63848">
        <ele>170.508</ele>
        <time>2019-10-29T12:17:49Z</time>
      </trkpt>
      <trkpt lat="45.23788" lon="0.63791">
        <ele>172.819</ele>
        <time>2019-10-29T12:17:29Z</time>
      </trkpt>
      <trkpt lat="45.23823" lon="0.63703">
        <ele>173.181</ele>
        <time>2019-10-29T12:17:09Z</time>
      </trkpt>
      <trkpt lat="45.23924" lon="0.63598">
        <ele>170.791</ele>
        <time>2019-10-29T12:16:49Z</time>
      </trkpt>
      <trkpt lat="45.23994" lon="0.63489">
        <ele>169.334</ele>
        <time>2019-10-29T12:16:29Z</time>
      </trkpt>
      <trkpt lat="45.24036" lon="0.63437">
        <ele>172.265</ele>
        <time>2019-10-29T12:16:09Z</time>
      </trkpt>
      <trkpt lat="45.2407" lon="0.63368">
        <ele>169.889</ele>
        <time>2019-10-29T12:15:49Z</time>
      </trkpt>
      <trkpt lat="45.2412" lon="0.63333">
        <ele>169.777</ele>
        <time>2019-10-29T12:15:29Z</time>
      </trkpt>
      <trkpt lat="45.24165" lon="0.63378">
        <ele>179.191</ele>
        <time>2019-10-29T12:15:09Z</time>
      </trkpt>
      <trkpt lat="45.24205" lon="0.63346">
        <ele>183.228</ele>
        <time>2019-10-29T12:14:49Z</time>
      </trkpt>
      <trkpt lat="45.24227" lon="0.63308">
        <ele>185.293</ele>
        <time>2019-10-29T12:14:29Z</time>
      </trkpt>
      <trkpt lat="45.24232" lon="0.63207">
        <ele>177.577</ele>
        <time>2019-10-29T12:14:09Z</time>
      </trkpt>
      <trkpt lat="45.24271" lon="0.63067">
        <ele>179.508</ele>
        <time>2019-10-29T12:13:49Z</time>
      </trkpt>
      <trkpt lat="45.24305" lon="0.62999">
        <ele>181.913</ele>
        <time>2019-10-29T12:13:29Z</time>
      </trkpt>
      <trkpt lat="45.24366" lon="0.62965">
        <ele>185.576</ele>
        <time>2019-10-29T12:13:09Z</time>
      </trkpt>
      <trkpt lat="45.24431" lon="0.62952">
        <ele>189.816</ele>
        <time>2019-10-29T12:12:49Z</time>
      </trkpt>
      <trkpt lat="45.24495" lon="0.62931">
        <ele>193.787</ele>
        <time>2019-10-29T12:12:29Z</time>
      </trkpt>
      <trkpt lat="45.24546" lon="0.62947">
        <ele>197.348</ele>
        <time>2019-10-29T12:12:09Z</time>
      </trkpt>
      <trkpt lat="45.24635" lon="0.63019">
        <ele>204.082</ele>
        <time>2019-10-29T12:11:49Z</time>
      </trkpt>
      <trkpt lat="45.24689" lon="0.63157">
        <ele>217.09</ele>
        <time>2019-10-29T12:11:29Z</time>
      </trkpt>
      <trkpt lat="45.2478" lon="0.63339">
        <ele>216.864</ele>
        <time>2019-10-29T12:11:09Z</time>
      </trkpt>
      <trkpt lat="45.24812" lon="0.63315">
        <ele>217.141</ele>
        <time>2019-10-29T12:10:49Z</time>
      </trkpt>
      <trkpt lat="45.24827" lon="0.63284">
        <ele>215.686</ele>
        <time>2019-10-29T12:10:29Z</time>
      </trkpt>
      <trkpt lat="45.24819" lon="0.6315">
        <ele>209.57</ele>
        <time>2019-10-29T12:10:09Z</time>
      </trkpt>
      <trkpt lat="45.24795" lon="0.63093">
        <ele>212.908</ele>
        <time>2019-10-29T12:09:49Z</time>
      </trkpt>
      <trkpt lat="45.24807" lon="0.63063">
        <ele>211.916</ele>
        <time>2019-10-29T12:09:29Z</time>
      </trkpt>
      <trkpt lat="45.24833" lon="0.63061">
        <ele>208.988</ele>
        <time>2019-10-29T12:09:09Z</time>
      </trkpt>
      <trkpt lat="45.24871" lon="0.6309">
        <ele>203.746</ele>
        <time>2019-10-29T12:08:49Z</time>
      </trkpt>
      <trkpt lat="45.249" lon="0.63097">
        <ele>199.824</ele>
        <time>2019-10-29T12:08:29Z</time>
      </trkpt>
      <trkpt lat="45.24969" lon="0.63077">
        <ele>193.885</ele>
        <time>2019-10-29T12:08:09Z</time>
      </trkpt>
      <trkpt lat="45.25009" lon="0.63024">
        <ele>198.899</ele>
        <time>2019-10-29T12:07:49Z</time>
      </trkpt>
      <trkpt lat="45.25055" lon="0.6303">
        <ele>201.187</ele>
        <time>2019-10-29T12:07:29Z</time>
      </trkpt>
      <trkpt lat="45.25127" lon="0.63012">
        <ele>203.181</ele>
        <time>2019-10-29T12:07:09Z</time>
      </trkpt>
      <trkpt lat="45.25188" lon="0.62928">
        <ele>209.368</ele>
        <time>2019-10-29T12:06:49Z</time>
      </trkpt>
      <trkpt lat="45.2524" lon="0.6289">
        <ele>211.073</ele>
        <time>2019-10-29T12:06:29Z</time>
      </trkpt>
      <trkpt lat="45.25282" lon="0.6289">
        <ele>211.177</ele>
        <time>2019-10-29T12:06:09Z</time>
      </trkpt>
      <trkpt lat="45.25343" lon="0.62828">
        <ele>216.508</ele>
        <time>2019-10-29T12:05:49Z</time>
      </trkpt>
      <trkpt lat="45.2539" lon="0.62906">
        <ele>216.909</ele>
        <time>2019-10-29T12:05:29Z</time>
      </trkpt>
      <trkpt lat="45.25483" lon="0.62822">
        <ele>217.054</ele>
        <time>2019-10-29T12:05:09Z</time>
      </trkpt>
      <trkpt lat="45.25497" lon="0.62788">
        <ele>216.914</ele>
        <time>2019-10-29T12:04:49Z</time>
      </trkpt>
      <trkpt lat="45.25602" lon="0.62648">
        <ele>215.611</ele>
        <time>2019-10-29T12:04:29Z</time>
      </trkpt>
      <trkpt lat="45.25669" lon="0.62588">
        <ele>208.032</ele>
        <time>2019-10-29T12:04:09Z</time>
      </trkpt>
      <trkpt lat="45.25801" lon="0.62562">
        <ele>203.336</ele>
        <time>2019-10-29T12:03:49Z</time>
      </trkpt>
      <trkpt lat="45.25867" lon="0.62562">
        <ele>197.024</ele>
        <time>2019-10-29T12:03:29Z</time>
      </trkpt>
      <trkpt lat="45.26002" lon="0.62484">
        <ele>184.238</ele>
        <time>2019-10-29T12:03:09Z</time>
      </trkpt>
      <trkpt lat="45.26068" lon="0.62433">
        <ele>173.955</ele>
        <time>2019-10-29T12:02:49Z</time>
      </trkpt>
      <trkpt lat="45.26097" lon="0.62367">
        <ele>171.63</ele>
        <time>2019-10-29T12:02:29Z</time>
      </trkpt>
      <trkpt lat="45.2616" lon="0.62425">
        <ele>163.934</ele>
        <time>2019-10-29T12:02:09Z</time>
      </trkpt>
      <trkpt lat="45.26236" lon="0.62399">
        <ele>165.608</ele>
        <time>2019-10-29T12:01:49Z</time>
      </trkpt>
      <trkpt lat="45.26279" lon="0.62412">
        <ele>173.517</ele>
        <time>2019-10-29T12:01:29Z</time>
      </trkpt>
      <trkpt lat="45.2633" lon="0.62407">
        <ele>180.389</ele>
        <time>2019-10-29T12:01:09Z</time>
      </trkpt>
      <trkpt lat="45.26398" lon="0.62355">
        <ele>184.085</ele>
        <time>2019-10-29T12:00:49Z</time>
      </trkpt>
      <trkpt lat="45.26418" lon="0.62316">
        <ele>183.917</ele>
        <time>2019-10-29T12:00:29Z</time>
      </trkpt>
      <trkpt lat="45.26476" lon="0.62313">
        <ele>189.648</ele>
        <time>2019-10-29T12:00:09Z</time>
      </trkpt>
      <trkpt lat="45.26494" lon="0.62329">
        <ele>191.572</ele>
        <time>2019-10-29T11:59:49Z</time>
      </trkpt>
      <trkpt lat="45.26663" lon="0.61936">
        <ele>196.09</ele>
        <time>2019-10-29T11:59:29Z</time>
      </trkpt>
      <trkpt lat="45.26677" lon="0.61854">
        <ele>198.454</ele>
        <time>2019-10-29T11:59:09Z</time>
      </trkpt>
      <trkpt lat="45.26714" lon="0.61768">
        <ele>194.641</ele>
        <time>2019-10-29T11:58:49Z</time>
      </trkpt>
      <trkpt lat="45.26766" lon="0.61649">
        <ele>191.826</ele>
        <time>2019-10-29T11:58:29Z</time>
      </trkpt>
      <trkpt lat="45.26802" lon="0.6162">
        <ele>189.64</ele>
        <time>2019-10-29T11:58:09Z</time>
      </trkpt>
      <trkpt lat="45.26864" lon="0.61526">
        <ele>190.208</ele>
        <time>2019-10-29T11:57:49Z</time>
      </trkpt>
      <trkpt lat="45.26969" lon="0.61409">
        <ele>190.109</ele>
        <time>2019-10-29T11:57:29Z</time>
      </trkpt>
      <trkpt lat="45.27057" lon="0.61225">
        <ele>188.881</ele>
        <time>2019-10-29T11:57:09Z</time>
      </trkpt>
      <trkpt lat="45.27086" lon="0.61176">
        <ele>185.341</ele>
        <time>2019-10-29T11:56:49Z</time>
      </trkpt>
      <trkpt lat="45.27123" lon="0.61178">
        <ele>179.618</ele>
        <time>2019-10-29T11:56:29Z</time>
      </trkpt>
      <trkpt lat="45.27149" lon="0.61199">
        <ele>176.099</ele>
        <time>2019-10-29T11:56:09Z</time>
      </trkpt>
      <trkpt lat="45.27183" lon="0.61176">
        <ele>167.723</ele>
        <time>2019-10-29T11:55:49Z</time>
      </trkpt>
      <trkpt lat="45.27309" lon="0.61149">
        <ele>148.211</ele>
        <time>2019-10-29T11:55:29Z</time>
      </trkpt>
      <trkpt lat="45.27324" lon="0.61126">
        <ele>145.985</ele>
        <time>2019-10-29T11:55:09Z</time>
      </trkpt>
      <trkpt lat="45.27222" lon="0.60892">
        <ele>136.582</ele>
        <time>2019-10-29T11:54:49Z</time>
      </trkpt>
      <trkpt lat="45.27187" lon="0.60862">
        <ele>135.627</ele>
        <time>2019-10-29T11:54:29Z</time>
      </trkpt>
      <trkpt lat="45.27179" lon="0.60815">
        <ele>132.051</ele>
        <time>2019-10-29T11:54:09Z</time>
      </trkpt>
      <trkpt lat="45.27187" lon="0.60799">
        <ele>129.508</ele>
        <time>2019-10-29T11:53:49Z</time>
      </trkpt>
      <trkpt lat="45.27213" lon="0.60804">
        <ele>128.311</ele>
        <time>2019-10-29T11:53:29Z</time>
      </trkpt>
      <trkpt lat="45.27253" lon="0.60736">
        <ele>128.356</ele>
        <time>2019-10-29T11:53:09Z</time>
      </trkpt>
      <trkpt lat="45.27351" lon="0.6082">
        <ele>137.954</ele>
        <time>2019-10-29T11:52:49Z</time>
      </trkpt>
      <trkpt lat="45.27442" lon="0.60919">
        <ele>144.13</ele>
        <time>2019-10-29T11:52:29Z</time>
      </trkpt>
      <trkpt lat="45.27517" lon="0.60942">
        <ele>154.681</ele>
        <time>2019-10-29T11:52:09Z</time>
      </trkpt>
      <trkpt lat="45.27626" lon="0.61095">
        <ele>163.735</ele>
        <time>2019-10-29T11:51:49Z</time>
      </trkpt>
      <trkpt lat="45.27668" lon="0.61131">
        <ele>168.553</ele>
        <time>2019-10-29T11:51:29Z</time>
      </trkpt>
      <trkpt lat="45.27723" lon="0.61197">
        <ele>171.817</ele>
        <time>2019-10-29T11:51:09Z</time>
      </trkpt>
      <trkpt lat="45.27785" lon="0.61241">
        <ele>174.294</ele>
        <time>2019-10-29T11:50:49Z</time>
      </trkpt>
      <trkpt lat="45.27815" lon="0.61274">
        <ele>172.719</ele>
        <time>2019-10-29T11:50:29Z</time>
      </trkpt>
      <trkpt lat="45.27861" lon="0.61399">
        <ele>174.073</ele>
        <time>2019-10-29T11:50:09Z</time>
      </trkpt>
      <trkpt lat="45.279" lon="0.61324">
        <ele>164.408</ele>
        <time>2019-10-29T11:49:49Z</time>
      </trkpt>
      <trkpt lat="45.2795" lon="0.61542">
        <ele>162.326</ele>
        <time>2019-10-29T11:49:29Z</time>
      </trkpt>
      <trkpt lat="45.28014" lon="0.61752">
        <ele>151.533</ele>
        <time>2019-10-29T11:49:09Z</time>
      </trkpt>
      <trkpt lat="45.28045" lon="0.61762">
        <ele>149.878</ele>
        <time>2019-10-29T11:48:49Z</time>
      </trkpt>
      <trkpt lat="45.28075" lon="0.6183">
        <ele>147.775</ele>
        <time>2019-10-29T11:48:29Z</time>
      </trkpt>
      <trkpt lat="45.28085" lon="0.61905">
        <ele>143.486</ele>
        <time>2019-10-29T11:48:09Z</time>
      </trkpt>
      <trkpt lat="45.28106" lon="0.61984">
        <ele>138.03</ele>
        <time>2019-10-29T11:47:49Z</time>
      </trkpt>
      <trkpt lat="45.28186" lon="0.61973">
        <ele>139.888</ele>
        <time>2019-10-29T11:47:29Z</time>
      </trkpt>
      <trkpt lat="45.28241" lon="0.61918">
        <ele>148.082</ele>
        <time>2019-10-29T11:47:09Z</time>
      </trkpt>
      <trkpt lat="45.2828" lon="0.61898">
        <ele>156.699</ele>
        <time>2019-10-29T11:46:49Z</time>
      </trkpt>
      <trkpt lat="45.28398" lon="0.61937">
        <ele>162.034</ele>
        <time>2019-10-29T11:46:29Z</time>
      </trkpt>
      <trkpt lat="45.28475" lon="0.61988">
        <ele>166.378</ele>
        <time>2019-10-29T11:46:09Z</time>
      </trkpt>
      <trkpt lat="45.28569" lon="0.61955">
        <ele>175.008</ele>
        <time>2019-10-29T11:45:49Z</time>
      </trkpt>
      <trkpt lat="45.28612" lon="0.61963">
        <ele>173.414</ele>
        <time>2019-10-29T11:45:29Z</time>
      </trkpt>
      <trkpt lat="45.28653" lon="0.61949">
        <ele>176.704</ele>
        <time>2019-10-29T11:45:09Z</time>
      </trkpt>
      <trkpt lat="45.28664" lon="0.61919">
        <ele>177.724</ele>
        <time>2019-10-29T11:44:49Z</time>
      </trkpt>
      <trkpt lat="45.2865" lon="0.61851">
        <ele>179.219</ele>
        <time>2019-10-29T11:44:29Z</time>
      </trkpt>
      <trkpt lat="45.28664" lon="0.61823">
        <ele>180.86</ele>
        <time>2019-10-29T11:44:09Z</time>
      </trkpt>
      <trkpt lat="45.28709" lon="0.6181">
        <ele>183.554</ele>
        <time>2019-10-29T11:43:49Z</time>
      </trkpt>
      <trkpt lat="45.2867" lon="0.6171">
        <ele>187.832</ele>
        <time>2019-10-29T11:43:29Z</time>
      </trkpt>
      <trkpt lat="45.28749" lon="0.61656">
        <ele>190.456</ele>
        <time>2019-10-29T11:43:09Z</time>
      </trkpt>
      <trkpt lat="45.28786" lon="0.61656">
        <ele>189.323</ele>
        <time>2019-10-29T11:42:49Z</time>
      </trkpt>
      <trkpt lat="45.28851" lon="0.617">
        <ele>186.998</ele>
        <time>2019-10-29T11:42:29Z</time>
      </trkpt>
      <trkpt lat="45.28907" lon="0.61703">
        <ele>184.092</ele>
        <time>2019-10-29T11:42:09Z</time>
      </trkpt>
      <trkpt lat="45.29026" lon="0.61635">
        <ele>169.908</ele>
        <time>2019-10-29T11:41:49Z</time>
      </trkpt>
      <trkpt lat="45.29056" lon="0.6161">
        <ele>172.113</ele>
        <time>2019-10-29T11:41:29Z</time>
      </trkpt>
      <trkpt lat="45.29089" lon="0.61552">
        <ele>178.021</ele>
        <time>2019-10-29T11:41:09Z</time>
      </trkpt>
      <trkpt lat="45.29146" lon="0.61484">
        <ele>183.561</ele>
        <time>2019-10-29T11:40:49Z</time>
      </trkpt>
      <trkpt lat="45.29286" lon="0.61399">
        <ele>190.912</ele>
        <time>2019-10-29T11:40:29Z</time>
      </trkpt>
      <trkpt lat="45.29328" lon="0.61305">
        <ele>188.663</ele>
        <time>2019-10-29T11:40:09Z</time>
      </trkpt>
      <trkpt lat="45.29353" lon="0.61269">
        <ele>187.127</ele>
        <time>2019-10-29T11:39:49Z</time>
      </trkpt>
      <trkpt lat="45.29412" lon="0.61284">
        <ele>184.225</ele>
        <time>2019-10-29T11:39:29Z</time>
      </trkpt>
      <trkpt lat="45.29408" lon="0.61225">
        <ele>182.069</ele>
        <time>2019-10-29T11:39:09Z</time>
      </trkpt>
      <trkpt lat="45.29429" lon="0.61162">
        <ele>177.836</ele>
        <time>2019-10-29T11:38:49Z</time>
      </trkpt>
      <trkpt lat="45.29544" lon="0.6109">
        <ele>170.951</ele>
        <time>2019-10-29T11:38:29Z</time>
      </trkpt>
      <trkpt lat="45.29582" lon="0.61061">
        <ele>167.255</ele>
        <time>2019-10-29T11:38:09Z</time>
      </trkpt>
      <trkpt lat="45.29627" lon="0.60976">
        <ele>162.108</ele>
        <time>2019-10-29T11:37:49Z</time>
      </trkpt>
      <trkpt lat="45.29757" lon="0.61025">
        <ele>159.125</ele>
        <time>2019-10-29T11:37:29Z</time>
      </trkpt>
      <trkpt lat="45.29785" lon="0.60973">
        <ele>158.523</ele>
        <time>2019-10-29T11:37:09Z</time>
      </trkpt>
      <trkpt lat="45.30171" lon="0.60771">
        <ele>134.797</ele>
        <time>2019-10-29T11:36:49Z</time>
      </trkpt>
      <trkpt lat="45.30209" lon="0.60936">
        <ele>134.432</ele>
        <time>2019-10-29T11:36:29Z</time>
      </trkpt>
      <trkpt lat="45.30216" lon="0.61245">
        <ele>135.593</ele>
        <time>2019-10-29T11:36:09Z</time>
      </trkpt>
      <trkpt lat="45.30229" lon="0.61313">
        <ele>137.857</ele>
        <time>2019-10-29T11:35:49Z</time>
      </trkpt>
      <trkpt lat="45.30225" lon="0.61368">
        <ele>139.765</ele>
        <time>2019-10-29T11:35:29Z</time>
      </trkpt>
      <trkpt lat="45.30258" lon="0.61513">
        <ele>149.529</ele>
        <time>2019-10-29T11:35:09Z</time>
      </trkpt>
      <trkpt lat="45.30231" lon="0.61671">
        <ele>145.826</ele>
        <time>2019-10-29T11:34:49Z</time>
      </trkpt>
      <trkpt lat="45.30265" lon="0.6191">
        <ele>149.451</ele>
        <time>2019-10-29T11:34:29Z</time>
      </trkpt>
      <trkpt lat="45.30263" lon="0.6196">
        <ele>149.175</ele>
        <time>2019-10-29T11:34:09Z</time>
      </trkpt>
      <trkpt lat="45.30272" lon="0.6203">
        <ele>149.108</ele>
        <time>2019-10-29T11:33:49Z</time>
      </trkpt>
      <trkpt lat="45.30263" lon="0.6216">
        <ele>146.525</ele>
        <time>2019-10-29T11:33:29Z</time>
      </trkpt>
      <trkpt lat="45.30271" lon="0.62222">
        <ele>146.223</ele>
        <time>2020-12-25T17:51:55Z</time>
      </trkpt>
      <trkpt lat="45.30315" lon="0.62252">
        <ele>151.697</ele>
        <time>2020-12-25T17:51:35Z</time>
      </trkpt>
      <trkpt lat="45.30324" lon="0.62299">
        <ele>152.267</ele>
        <time>2020-12-25T17:51:15Z</time>
      </trkpt>
      <trkpt lat="45.30348" lon="0.62307">
        <ele>155.818</ele>
        <time>2020-12-25T17:50:55Z</time>
      </trkpt>
      <trkpt lat="45.30352" lon="0.62292">
        <ele>156.242</ele>
        <time>2019-10-29T11:32:09Z</time>
      </trkpt>
      <trkpt lat="45.30503" lon="0.62332">
        <ele>179.04</ele>
        <time>2019-10-29T11:31:49Z</time>
      </trkpt>
      <trkpt lat="45.30559" lon="0.62389">
        <ele>187.294</ele>
        <time>2019-10-29T11:31:29Z</time>
      </trkpt>
      <trkpt lat="45.30621" lon="0.62497">
        <ele>196.711</ele>
        <time>2019-10-29T11:31:09Z</time>
      </trkpt>
      <trkpt lat="45.30669" lon="0.6263">
        <ele>206.166</ele>
        <time>2019-10-29T11:30:49Z</time>
      </trkpt>
      <trkpt lat="45.30716" lon="0.62703">
        <ele>209.96</ele>
        <time>2019-10-29T11:30:29Z</time>
      </trkpt>
      <trkpt lat="45.30756" lon="0.62807">
        <ele>214.008</ele>
        <time>2019-10-29T11:30:09Z</time>
      </trkpt>
      <trkpt lat="45.30928" lon="0.62963">
        <ele>217.911</ele>
        <time>2019-10-29T11:29:49Z</time>
      </trkpt>
      <trkpt lat="45.30973" lon="0.62939">
        <ele>218.747</ele>
        <time>2019-10-29T11:29:29Z</time>
      </trkpt>
      <trkpt lat="45.30999" lon="0.62944">
        <ele>220.945</ele>
        <time>2019-10-29T11:29:09Z</time>
      </trkpt>
      <trkpt lat="45.31078" lon="0.63025">
        <ele>225.884</ele>
        <time>2019-10-29T11:28:49Z</time>
      </trkpt>
      <trkpt lat="45.31115" lon="0.63072">
        <ele>224.225</ele>
        <time>2020-12-25T17:46:55Z</time>
      </trkpt>
      <trkpt lat="45.31243" lon="0.63269">
        <ele>221.789</ele>
        <time>2020-12-25T17:46:35Z</time>
      </trkpt>
      <trkpt lat="45.31299" lon="0.63254">
        <ele>222.337</ele>
        <time>2020-12-25T17:46:15Z</time>
      </trkpt>
      <trkpt lat="45.31488" lon="0.63165">
        <ele>219.671</ele>
        <time>2020-12-25T17:45:55Z</time>
      </trkpt>
      <trkpt lat="45.31533" lon="0.63173">
        <ele>217.358</ele>
        <time>2020-12-25T17:45:35Z</time>
      </trkpt>
      <trkpt lat="45.31645" lon="0.63143">
        <ele>207.933</ele>
        <time>2020-12-25T17:45:15Z</time>
      </trkpt>
      <trkpt lat="45.31796" lon="0.63079">
        <ele>187.717</ele>
        <time>2020-12-25T17:44:55Z</time>
      </trkpt>
      <trkpt lat="45.31989" lon="0.62929">
        <ele>158.808</ele>
        <time>2020-12-25T17:44:35Z</time>
      </trkpt>
      <trkpt lat="45.32207" lon="0.6267">
        <ele>155.003</ele>
        <time>2020-12-25T17:44:15Z</time>
      </trkpt>
      <trkpt lat="45.32337" lon="0.62547">
        <ele>151.721</ele>
        <time>2020-12-25T17:43:55Z</time>
      </trkpt>
      <trkpt lat="45.32493" lon="0.62428">
        <ele>140.511</ele>
        <time>2020-12-25T17:43:35Z</time>
      </trkpt>
      <trkpt lat="45.32626" lon="0.62377">
        <ele>134.175</ele>
        <time>2020-12-25T17:43:15Z</time>
      </trkpt>
      <trkpt lat="45.32659" lon="0.62288">
        <ele>133.796</ele>
        <time>2020-12-25T17:42:55Z</time>
      </trkpt>
      <trkpt lat="45.32959" lon="0.62216">
        <ele>127.95</ele>
        <time>2020-12-25T17:42:35Z</time>
      </trkpt>
      <trkpt lat="45.33002" lon="0.62086">
        <ele>122.028</ele>
        <time>2020-12-25T17:42:15Z</time>
      </trkpt>
      <trkpt lat="45.33051" lon="0.61968">
        <ele>115.042</ele>
        <time>2020-12-25T17:41:55Z</time>
      </trkpt>
      <trkpt lat="45.33151" lon="0.61866">
        <ele>114.249</ele>
        <time>2020-12-25T17:41:35Z</time>
      </trkpt>
      <trkpt lat="45.33236" lon="0.61842">
        <ele>114.264</ele>
        <time>2020-12-25T17:41:15Z</time>
      </trkpt>
      <trkpt lat="45.333" lon="0.618">
        <ele>111.458</ele>
        <time>2020-12-25T17:40:55Z</time>
      </trkpt>
      <trkpt lat="45.33326" lon="0.61822">
        <ele>112.008</ele>
        <time>2019-10-28T19:06:43Z</time>
      </trkpt>
      <trkpt lat="45.33356" lon="0.62072">
        <ele>112.917</ele>
        <time>2019-10-28T19:06:23Z</time>
      </trkpt>
      <trkpt lat="45.33346" lon="0.6216">
        <ele>120.689</ele>
        <time>2019-10-28T19:06:03Z</time>
      </trkpt>
      <trkpt lat="45.33353" lon="0.62235">
        <ele>123.928</ele>
        <time>2019-10-28T19:05:43Z</time>
      </trkpt>
      <trkpt lat="45.33469" lon="0.62545">
        <ele>119.394</ele>
        <time>2019-10-28T19:05:23Z</time>
      </trkpt>
      <trkpt lat="45.33417" lon="0.62611">
        <ele>116.145</ele>
        <time>2019-10-28T19:05:03Z</time>
      </trkpt>
      <trkpt lat="45.33417" lon="0.62654">
        <ele>111.959</ele>
        <time>2019-10-28T19:04:43Z</time>
      </trkpt>
      <trkpt lat="45.33435" lon="0.62676">
        <ele>111.797</ele>
        <time>2019-10-28T19:04:23Z</time>
      </trkpt>
      <trkpt lat="45.33481" lon="0.62617">
        <ele>110.791</ele>
        <time>2019-10-28T19:04:03Z</time>
      </trkpt>
      <trkpt lat="45.33559" lon="0.62619">
        <ele>103.288</ele>
        <time>2019-10-28T19:03:43Z</time>
      </trkpt>
      <trkpt lat="45.33607" lon="0.62637">
        <ele>101.993</ele>
        <time>2019-10-28T19:03:23Z</time>
      </trkpt>
      <trkpt lat="45.33778" lon="0.62783">
        <ele>109.327</ele>
        <time>2019-10-28T19:03:03Z</time>
      </trkpt>
      <trkpt lat="45.34044" lon="0.62911">
        <ele>109.908</ele>
        <time>2019-10-28T19:02:43Z</time>
      </trkpt>
      <trkpt lat="45.3402" lon="0.63014">
        <ele>124.817</ele>
        <time>2019-10-28T19:02:23Z</time>
      </trkpt>
      <trkpt lat="45.34061" lon="0.63061">
        <ele>124.798</ele>
        <time>2019-10-28T19:02:03Z</time>
      </trkpt>
      <trkpt lat="45.34058" lon="0.63116">
        <ele>130.218</ele>
        <time>2019-10-28T19:01:43Z</time>
      </trkpt>
      <trkpt lat="45.34035" lon="0.63212">
        <ele>135.492</ele>
        <time>2019-10-28T19:01:23Z</time>
      </trkpt>
      <trkpt lat="45.3403" lon="0.63287">
        <ele>138.653</ele>
        <time>2019-10-28T19:01:03Z</time>
      </trkpt>
      <trkpt lat="45.34011" lon="0.63328">
        <ele>139.457</ele>
        <time>2019-10-28T19:00:43Z</time>
      </trkpt>
      <trkpt lat="45.34009" lon="0.63386">
        <ele>142.855</ele>
        <time>2019-10-28T19:00:23Z</time>
      </trkpt>
      <trkpt lat="45.33987" lon="0.63448">
        <ele>145.589</ele>
        <time>2019-10-28T19:00:03Z</time>
      </trkpt>
      <trkpt lat="45.33978" lon="0.63481">
        <ele>145.816</ele>
        <time>2019-10-28T18:59:43Z</time>
      </trkpt>
      <trkpt lat="45.3395" lon="0.63533">
        <ele>148.051</ele>
        <time>2019-10-28T18:59:23Z</time>
      </trkpt>
      <trkpt lat="45.34008" lon="0.63611">
        <ele>149.075</ele>
        <time>2019-10-28T18:59:03Z</time>
      </trkpt>
      <trkpt lat="45.34054" lon="0.63716">
        <ele>149.108</ele>
        <time>2019-10-28T18:58:43Z</time>
      </trkpt>
      <trkpt lat="45.34101" lon="0.63793">
        <ele>146.02</ele>
        <time>2019-10-28T18:58:23Z</time>
      </trkpt>
      <trkpt lat="45.34148" lon="0.63806">
        <ele>144.773</ele>
        <time>2019-10-28T18:58:03Z</time>
      </trkpt>
      <trkpt lat="45.34204" lon="0.63794">
        <ele>142.492</ele>
        <time>2019-10-28T18:57:43Z</time>
      </trkpt>
      <trkpt lat="45.34244" lon="0.63814">
        <ele>140.269</ele>
        <time>2019-10-28T18:57:23Z</time>
      </trkpt>
      <trkpt lat="45.34242" lon="0.63833">
        <ele>140.36</ele>
        <time>2019-10-28T18:57:03Z</time>
      </trkpt>
      <trkpt lat="45.34165" lon="0.6398">
        <ele>138.554</ele>
        <time>2019-10-28T18:56:43Z</time>
      </trkpt>
      <trkpt lat="45.34149" lon="0.63998">
        <ele>137.232</ele>
        <time>2019-10-28T18:56:23Z</time>
      </trkpt>
      <trkpt lat="45.34145" lon="0.6403">
        <ele>136.446</ele>
        <time>2019-10-28T18:56:03Z</time>
      </trkpt>
      <trkpt lat="45.34222" lon="0.6403">
        <ele>137.143</ele>
        <time>2019-10-28T18:55:43Z</time>
      </trkpt>
      <trkpt lat="45.34305" lon="0.64059">
        <ele>132.388</ele>
        <time>2019-10-28T18:55:23Z</time>
      </trkpt>
      <trkpt lat="45.3435" lon="0.64068">
        <ele>125.812</ele>
        <time>2019-10-28T18:55:03Z</time>
      </trkpt>
      <trkpt lat="45.34392" lon="0.64084">
        <ele>116.408</ele>
        <time>2019-10-28T18:54:43Z</time>
      </trkpt>
      <trkpt lat="45.34441" lon="0.64147">
        <ele>110.718</ele>
        <time>2019-10-28T18:54:23Z</time>
      </trkpt>
      <trkpt lat="45.34459" lon="0.64196">
        <ele>115.044</ele>
        <time>2019-10-28T18:54:03Z</time>
      </trkpt>
      <trkpt lat="45.34486" lon="0.64211">
        <ele>114.863</ele>
        <time>2019-10-28T18:53:43Z</time>
      </trkpt>
      <trkpt lat="45.34517" lon="0.64315">
        <ele>124.337</ele>
        <time>2019-10-28T18:53:23Z</time>
      </trkpt>
      <trkpt lat="45.34597" lon="0.6438">
        <ele>140.568</ele>
        <time>2019-10-28T18:53:03Z</time>
      </trkpt>
      <trkpt lat="45.34669" lon="0.64559">
        <ele>149.722</ele>
        <time>2019-10-28T18:52:43Z</time>
      </trkpt>
      <trkpt lat="45.34752" lon="0.6465">
        <ele>161.52</ele>
        <time>2019-10-28T18:52:23Z</time>
      </trkpt>
      <trkpt lat="45.34812" lon="0.64731">
        <ele>169.484</ele>
        <time>2019-10-28T18:52:03Z</time>
      </trkpt>
      <trkpt lat="45.34846" lon="0.64793">
        <ele>169.141</ele>
        <time>2019-10-28T18:51:43Z</time>
      </trkpt>
      <trkpt lat="45.3486" lon="0.64855">
        <ele>163.036</ele>
        <time>2019-10-28T18:51:23Z</time>
      </trkpt>
      <trkpt lat="45.34862" lon="0.6499">
        <ele>151.29</ele>
        <time>2019-10-28T18:51:03Z</time>
      </trkpt>
      <trkpt lat="45.34882" lon="0.65053">
        <ele>141.908</ele>
        <time>2019-10-28T18:50:43Z</time>
      </trkpt>
      <trkpt lat="45.34881" lon="0.65103">
        <ele>140.511</ele>
        <time>2019-10-28T18:50:23Z</time>
      </trkpt>
      <trkpt lat="45.34968" lon="0.65108">
        <ele>113.647</ele>
        <time>2019-10-28T18:50:03Z</time>
      </trkpt>
      <trkpt lat="45.35024" lon="0.65162">
        <ele>112.045</ele>
        <time>2019-10-28T18:49:43Z</time>
      </trkpt>
      <trkpt lat="45.3503" lon="0.65126">
        <ele>104.918</ele>
        <time>2019-10-28T18:49:23Z</time>
      </trkpt>
      <trkpt lat="45.35056" lon="0.65107">
        <ele>102.739</ele>
        <time>2019-10-28T18:49:03Z</time>
      </trkpt>
      <trkpt lat="45.35105" lon="0.65105">
        <ele>100.473</ele>
        <time>2019-10-28T18:48:43Z</time>
      </trkpt>
      <trkpt lat="45.35179" lon="0.65092">
        <ele>98.611</ele>
        <time>2019-10-28T18:48:23Z</time>
      </trkpt>
      <trkpt lat="45.35208" lon="0.6512">
        <ele>97.785</ele>
        <time>2019-10-28T18:48:03Z</time>
      </trkpt>
      <trkpt lat="45.35338" lon="0.65136">
        <ele>100.362</ele>
        <time>2019-10-28T18:47:43Z</time>
      </trkpt>
      <trkpt lat="45.35338" lon="0.65097">
        <ele>100.387</ele>
        <time>2019-10-28T18:47:23Z</time>
      </trkpt>
      <trkpt lat="45.35323" lon="0.65011">
        <ele>98.661</ele>
        <time>2019-10-28T18:47:03Z</time>
      </trkpt>
      <trkpt lat="45.35341" lon="0.64981">
        <ele>98.808</ele>
        <time>2019-10-28T18:46:43Z</time>
      </trkpt>
      <trkpt lat="45.3538" lon="0.64972">
        <ele>100.417</ele>
        <time>2019-10-28T18:46:23Z</time>
      </trkpt>
      <trkpt lat="45.35394" lon="0.65003">
        <ele>99.852</ele>
        <time>2019-10-28T18:46:03Z</time>
      </trkpt>
      <trkpt lat="45.35393" lon="0.65095">
        <ele>102.358</ele>
        <time>2019-10-28T18:45:43Z</time>
      </trkpt>
      <trkpt lat="45.35411" lon="0.6518">
        <ele>100.68</ele>
        <time>2019-10-28T18:45:23Z</time>
      </trkpt>
      <trkpt lat="45.35523" lon="0.65191">
        <ele>100.961</ele>
        <time>2019-10-28T18:45:03Z</time>
      </trkpt>
      <trkpt lat="45.35579" lon="0.65178">
        <ele>102.785</ele>
        <time>2019-10-28T18:44:43Z</time>
      </trkpt>
      <trkpt lat="45.35611" lon="0.65229">
        <ele>109.293</ele>
        <time>2019-10-28T18:44:23Z</time>
      </trkpt>
      <trkpt lat="45.35718" lon="0.65172">
        <ele>104.317</ele>
        <time>2019-10-28T18:44:03Z</time>
      </trkpt>
      <trkpt lat="45.35785" lon="0.65183">
        <ele>109.094</ele>
        <time>2019-10-28T18:43:43Z</time>
      </trkpt>
      <trkpt lat="45.35819" lon="0.65157">
        <ele>106.179</ele>
        <time>2019-10-28T18:43:23Z</time>
      </trkpt>
      <trkpt lat="45.35858" lon="0.65138">
        <ele>104.773</ele>
        <time>2019-10-28T18:43:03Z</time>
      </trkpt>
      <trkpt lat="45.35902" lon="0.65074">
        <ele>105.608</ele>
        <time>2019-10-28T18:42:43Z</time>
      </trkpt>
      <trkpt lat="45.35941" lon="0.64947">
        <ele>105.627</ele>
        <time>2019-10-28T18:42:23Z</time>
      </trkpt>
      <trkpt lat="45.35985" lon="0.64905">
        <ele>105.361</ele>
        <time>2019-10-28T18:42:03Z</time>
      </trkpt>
      <trkpt lat="45.3609" lon="0.64837">
        <ele>103.277</ele>
        <time>2019-10-28T18:41:43Z</time>
      </trkpt>
      <trkpt lat="45.36135" lon="0.64829">
        <ele>102.031</ele>
        <time>2019-10-28T18:41:23Z</time>
      </trkpt>
      <trkpt lat="45.36243" lon="0.64864">
        <ele>104.132</ele>
        <time>2019-10-28T18:41:03Z</time>
      </trkpt>
      <trkpt lat="45.36285" lon="0.64764">
        <ele>102.736</ele>
        <time>2019-10-28T18:40:43Z</time>
      </trkpt>
      <trkpt lat="45.36317" lon="0.64627">
        <ele>115.334</ele>
        <time>2019-10-28T18:40:23Z</time>
      </trkpt>
      <trkpt lat="45.36426" lon="0.6471">
        <ele>112.218</ele>
        <time>2019-10-28T18:40:03Z</time>
      </trkpt>
      <trkpt lat="45.36485" lon="0.64768">
        <ele>113.335</ele>
        <time>2019-10-28T18:39:43Z</time>
      </trkpt>
      <trkpt lat="45.36549" lon="0.64858">
        <ele>114.74</ele>
        <time>2019-10-28T18:39:23Z</time>
      </trkpt>
      <trkpt lat="45.36571" lon="0.64983">
        <ele>110.554</ele>
        <time>2019-10-28T18:39:03Z</time>
      </trkpt>
      <trkpt lat="45.36564" lon="0.65024">
        <ele>106.508</ele>
        <time>2019-10-28T18:38:43Z</time>
      </trkpt>
      <trkpt lat="45.36587" lon="0.65042">
        <ele>106.517</ele>
        <time>2019-10-28T18:38:23Z</time>
      </trkpt>
      <trkpt lat="45.36635" lon="0.65021">
        <ele>114.943</ele>
        <time>2019-10-28T18:38:03Z</time>
      </trkpt>
      <trkpt lat="45.36668" lon="0.64981">
        <ele>119.582</ele>
        <time>2019-10-28T18:37:43Z</time>
      </trkpt>
      <trkpt lat="45.36747" lon="0.64755">
        <ele>139.02</ele>
        <time>2019-10-28T18:37:23Z</time>
      </trkpt>
      <trkpt lat="45.36695" lon="0.64695">
        <ele>145.961</ele>
        <time>2019-10-28T18:37:03Z</time>
      </trkpt>
      <trkpt lat="45.36627" lon="0.64633">
        <ele>153.285</ele>
        <time>2019-10-28T18:36:43Z</time>
      </trkpt>
      <trkpt lat="45.36564" lon="0.6459">
        <ele>166.923</ele>
        <time>2019-10-28T18:36:23Z</time>
      </trkpt>
      <trkpt lat="45.3647" lon="0.64458">
        <ele>169.827</ele>
        <time>2019-10-28T18:36:03Z</time>
      </trkpt>
      <trkpt lat="45.36446" lon="0.6444">
        <ele>166.654</ele>
        <time>2019-10-28T18:35:43Z</time>
      </trkpt>
      <trkpt lat="45.36257" lon="0.6444">
        <ele>165.499</ele>
        <time>2019-10-28T18:35:23Z</time>
      </trkpt>
      <trkpt lat="45.36188" lon="0.64404">
        <ele>162.643</ele>
        <time>2019-10-28T18:35:03Z</time>
      </trkpt>
      <trkpt lat="45.36063" lon="0.64446">
        <ele>153.208</ele>
        <time>2019-10-28T18:34:43Z</time>
      </trkpt>
      <trkpt lat="45.36055" lon="0.64473">
        <ele>152.013</ele>
        <time>2019-10-28T18:34:23Z</time>
      </trkpt>
      <trkpt lat="45.36027" lon="0.64479">
        <ele>152.585</ele>
        <time>2019-10-28T18:34:03Z</time>
      </trkpt>
      <trkpt lat="45.35971" lon="0.64464">
        <ele>148.773</ele>
        <time>2019-10-28T18:33:43Z</time>
      </trkpt>
      <trkpt lat="45.35926" lon="0.64463">
        <ele>146.959</ele>
        <time>2019-10-28T18:33:23Z</time>
      </trkpt>
      <trkpt lat="45.35888" lon="0.64476">
        <ele>145.94</ele>
        <time>2019-10-28T18:33:03Z</time>
      </trkpt>
      <trkpt lat="45.3587" lon="0.64516">
        <ele>143.864</ele>
        <time>2019-10-28T18:32:43Z</time>
      </trkpt>
      <trkpt lat="45.35835" lon="0.64536">
        <ele>137.672</ele>
        <time>2019-10-28T18:32:23Z</time>
      </trkpt>
      <trkpt lat="45.35814" lon="0.64437">
        <ele>139.646</ele>
        <time>2019-10-28T18:32:03Z</time>
      </trkpt>
      <trkpt lat="45.35778" lon="0.64307">
        <ele>135.143</ele>
        <time>2019-10-28T18:31:43Z</time>
      </trkpt>
      <trkpt lat="45.35878" lon="0.64095">
        <ele>118.558</ele>
        <time>2019-10-28T18:31:23Z</time>
      </trkpt>
      <trkpt lat="45.35868" lon="0.64058">
        <ele>118.452</ele>
        <time>2019-10-28T18:31:03Z</time>
      </trkpt>
      <trkpt lat="45.35846" lon="0.64046">
        <ele>124.108</ele>
        <time>2019-10-28T18:30:43Z</time>
      </trkpt>
      <trkpt lat="45.35809" lon="0.6409">
        <ele>123.321</ele>
        <time>2019-10-28T18:30:23Z</time>
      </trkpt>
      <trkpt lat="45.35761" lon="0.64102">
        <ele>125.229</ele>
        <time>2019-10-28T18:30:03Z</time>
      </trkpt>
      <trkpt lat="45.35785" lon="0.64071">
        <ele>128.266</ele>
        <time>2019-10-28T18:29:43Z</time>
      </trkpt>
      <trkpt lat="45.35797" lon="0.64011">
        <ele>133.878</ele>
        <time>2019-10-28T18:29:23Z</time>
      </trkpt>
      <trkpt lat="45.35754" lon="0.63944">
        <ele>144.129</ele>
        <time>2019-10-28T18:29:03Z</time>
      </trkpt>
      <trkpt lat="45.35752" lon="0.63929">
        <ele>144.133</ele>
        <time>2019-10-28T18:28:43Z</time>
      </trkpt>
      <trkpt lat="45.35797" lon="0.63908">
        <ele>146.071</ele>
        <time>2019-10-28T18:28:23Z</time>
      </trkpt>
      <trkpt lat="45.35859" lon="0.63837">
        <ele>152.575</ele>
        <time>2019-10-28T18:28:03Z</time>
      </trkpt>
      <trkpt lat="45.35898" lon="0.63825">
        <ele>154.462</ele>
        <time>2019-10-28T18:27:43Z</time>
      </trkpt>
      <trkpt lat="45.35925" lon="0.63819">
        <ele>154.687</ele>
        <time>2019-10-28T18:27:23Z</time>
      </trkpt>
      <trkpt lat="45.35999" lon="0.63786">
        <ele>153.841</ele>
        <time>2019-10-28T18:27:03Z</time>
      </trkpt>
      <trkpt lat="45.36065" lon="0.63729">
        <ele>151.508</ele>
        <time>2019-10-28T18:26:43Z</time>
      </trkpt>
      <trkpt lat="45.3613" lon="0.63648">
        <ele>155.214</ele>
        <time>2019-10-28T18:26:23Z</time>
      </trkpt>
      <trkpt lat="45.36189" lon="0.6362">
        <ele>157.759</ele>
        <time>2019-10-28T18:26:03Z</time>
      </trkpt>
      <trkpt lat="45.36285" lon="0.63541">
        <ele>155.756</ele>
        <time>2019-10-28T18:25:43Z</time>
      </trkpt>
      <trkpt lat="45.36319" lon="0.63451">
        <ele>152.275</ele>
        <time>2019-10-28T18:25:23Z</time>
      </trkpt>
      <trkpt lat="45.36323" lon="0.63347">
        <ele>147.186</ele>
        <time>2019-10-28T18:25:03Z</time>
      </trkpt>
      <trkpt lat="45.36306" lon="0.63281">
        <ele>150.64</ele>
        <time>2019-10-28T18:24:43Z</time>
      </trkpt>
      <trkpt lat="45.36302" lon="0.63173">
        <ele>156.628</ele>
        <time>2019-10-28T18:24:23Z</time>
      </trkpt>
      <trkpt lat="45.36363" lon="0.62946">
        <ele>151.092</ele>
        <time>2019-10-28T18:24:03Z</time>
      </trkpt>
      <trkpt lat="45.36437" lon="0.62778">
        <ele>143.879</ele>
        <time>2019-10-28T18:23:43Z</time>
      </trkpt>
      <trkpt lat="45.36461" lon="0.62653">
        <ele>141.144</ele>
        <time>2019-10-28T18:23:23Z</time>
      </trkpt>
      <trkpt lat="45.36502" lon="0.62578">
        <ele>140.388</ele>
        <time>2019-10-28T18:23:03Z</time>
      </trkpt>
      <trkpt lat="45.36549" lon="0.62532">
        <ele>138.808</ele>
        <time>2019-10-28T18:22:43Z</time>
      </trkpt>
      <trkpt lat="45.3658" lon="0.62467">
        <ele>137.614</ele>
        <time>2019-10-28T18:22:23Z</time>
      </trkpt>
      <trkpt lat="45.36605" lon="0.62458">
        <ele>139.004</ele>
        <time>2019-10-28T18:22:03Z</time>
      </trkpt>
      <trkpt lat="45.36637" lon="0.62394">
        <ele>136.324</ele>
        <time>2019-10-28T18:21:43Z</time>
      </trkpt>
      <trkpt lat="45.36648" lon="0.62259">
        <ele>140.542</ele>
        <time>2019-10-28T18:21:23Z</time>
      </trkpt>
      <trkpt lat="45.36629" lon="0.62264">
        <ele>139.813</ele>
        <time>2019-10-28T18:21:03Z</time>
      </trkpt>
      <trkpt lat="45.36613" lon="0.62209">
        <ele>143.567</ele>
        <time>2019-10-28T18:20:43Z</time>
      </trkpt>
      <trkpt lat="45.36605" lon="0.62095">
        <ele>146.655</ele>
        <time>2019-10-28T18:20:23Z</time>
      </trkpt>
      <trkpt lat="45.3659" lon="0.62022">
        <ele>149.859</ele>
        <time>2019-10-28T18:20:03Z</time>
      </trkpt>
      <trkpt lat="45.36548" lon="0.61895">
        <ele>149.366</ele>
        <time>2019-10-28T18:19:43Z</time>
      </trkpt>
      <trkpt lat="45.36538" lon="0.61812">
        <ele>152.881</ele>
        <time>2019-10-28T18:19:23Z</time>
      </trkpt>
      <trkpt lat="45.36525" lon="0.61713">
        <ele>156.935</ele>
        <time>2019-10-28T18:19:03Z</time>
      </trkpt>
      <trkpt lat="45.36431" lon="0.61371">
        <ele>171.708</ele>
        <time>2019-10-28T18:18:43Z</time>
      </trkpt>
      <trkpt lat="45.36428" lon="0.61301">
        <ele>177.219</ele>
        <time>2019-10-28T18:18:23Z</time>
      </trkpt>
      <trkpt lat="45.36444" lon="0.61223">
        <ele>182.981</ele>
        <time>2019-10-28T18:18:03Z</time>
      </trkpt>
      <trkpt lat="45.36526" lon="0.61075">
        <ele>188.391</ele>
        <time>2019-10-28T18:17:43Z</time>
      </trkpt>
      <trkpt lat="45.36556" lon="0.60942">
        <ele>194.17</ele>
        <time>2019-10-28T18:17:23Z</time>
      </trkpt>
      <trkpt lat="45.36564" lon="0.60836">
        <ele>198.621</ele>
        <time>2019-10-28T18:17:03Z</time>
      </trkpt>
      <trkpt lat="45.36526" lon="0.60589">
        <ele>204.355</ele>
        <time>2019-10-28T18:16:43Z</time>
      </trkpt>
      <trkpt lat="45.36518" lon="0.60498">
        <ele>202.063</ele>
        <time>2019-10-28T18:16:23Z</time>
      </trkpt>
      <trkpt lat="45.36519" lon="0.60339">
        <ele>200.977</ele>
        <time>2019-10-28T18:16:03Z</time>
      </trkpt>
      <trkpt lat="45.36499" lon="0.60236">
        <ele>198.994</ele>
        <time>2019-10-28T18:15:43Z</time>
      </trkpt>
      <trkpt lat="45.36467" lon="0.60134">
        <ele>197.619</ele>
        <time>2019-10-28T18:15:23Z</time>
      </trkpt>
      <trkpt lat="45.36667" lon="0.59919">
        <ele>201.123</ele>
        <time>2019-10-28T18:15:03Z</time>
      </trkpt>
      <trkpt lat="45.36722" lon="0.59908">
        <ele>199.008</ele>
        <time>2019-10-28T18:14:43Z</time>
      </trkpt>
      <trkpt lat="45.36758" lon="0.59888">
        <ele>200.019</ele>
        <time>2019-10-28T18:14:23Z</time>
      </trkpt>
      <trkpt lat="45.36815" lon="0.59815">
        <ele>199.89</ele>
        <time>2019-10-28T18:14:03Z</time>
      </trkpt>
      <trkpt lat="45.36864" lon="0.59781">
        <ele>192.976</ele>
        <time>2019-10-28T18:13:43Z</time>
      </trkpt>
      <trkpt lat="45.36917" lon="0.59609">
        <ele>185.142</ele>
        <time>2019-10-28T18:13:23Z</time>
      </trkpt>
      <trkpt lat="45.36917" lon="0.5956">
        <ele>186.013</ele>
        <time>2019-10-28T18:13:03Z</time>
      </trkpt>
      <trkpt lat="45.36896" lon="0.59524">
        <ele>185.957</ele>
        <time>2019-10-28T18:12:43Z</time>
      </trkpt>
      <trkpt lat="45.3691" lon="0.59383">
        <ele>185.845</ele>
        <time>2019-10-28T18:12:23Z</time>
      </trkpt>
      <trkpt lat="45.36933" lon="0.59246">
        <ele>185.649</ele>
        <time>2019-10-28T18:12:03Z</time>
      </trkpt>
      <trkpt lat="45.36964" lon="0.59181">
        <ele>189.036</ele>
        <time>2019-10-28T18:11:43Z</time>
      </trkpt>
      <trkpt lat="45.37029" lon="0.59109">
        <ele>196.961</ele>
        <time>2019-10-28T18:11:23Z</time>
      </trkpt>
      <trkpt lat="45.37037" lon="0.58958">
        <ele>186.555</ele>
        <time>2019-10-28T18:11:03Z</time>
      </trkpt>
      <trkpt lat="45.37061" lon="0.58836">
        <ele>177.008</ele>
        <time>2019-10-28T18:10:43Z</time>
      </trkpt>
      <trkpt lat="45.37198" lon="0.59">
        <ele>186.92</ele>
        <time>2019-10-28T18:10:23Z</time>
      </trkpt>
      <trkpt lat="45.37237" lon="0.59036">
        <ele>182.673</ele>
        <time>2019-10-28T18:10:03Z</time>
      </trkpt>
      <trkpt lat="45.3734" lon="0.59025">
        <ele>170.892</ele>
        <time>2019-10-28T18:09:43Z</time>
      </trkpt>
      <trkpt lat="45.37332" lon="0.58978">
        <ele>173.794</ele>
        <time>2019-10-28T18:09:23Z</time>
      </trkpt>
      <trkpt lat="45.37399" lon="0.58965">
        <ele>165.915</ele>
        <time>2019-10-28T18:09:03Z</time>
      </trkpt>
      <trkpt lat="45.37423" lon="0.58883">
        <ele>165.699</ele>
        <time>2019-10-28T18:08:43Z</time>
      </trkpt>
      <trkpt lat="45.3741" lon="0.58789">
        <ele>164.417</ele>
        <time>2019-10-28T18:08:23Z</time>
      </trkpt>
      <trkpt lat="45.37413" lon="0.58695">
        <ele>163.351</ele>
        <time>2019-10-28T18:08:03Z</time>
      </trkpt>
      <trkpt lat="45.37402" lon="0.58665">
        <ele>161.318</ele>
        <time>2019-10-28T18:07:43Z</time>
      </trkpt>
      <trkpt lat="45.3741" lon="0.58491">
        <ele>147.543</ele>
        <time>2019-10-28T18:07:23Z</time>
      </trkpt>
      <trkpt lat="45.37519" lon="0.58451">
        <ele>147.827</ele>
        <time>2019-10-28T18:07:03Z</time>
      </trkpt>
      <trkpt lat="45.37544" lon="0.58395">
        <ele>147.308</ele>
        <time>2019-10-28T18:06:43Z</time>
      </trkpt>
      <trkpt lat="45.37511" lon="0.58327">
        <ele>149.209</ele>
        <time>2019-10-28T18:06:23Z</time>
      </trkpt>
      <trkpt lat="45.37471" lon="0.58303">
        <ele>150.954</ele>
        <time>2019-10-28T18:06:03Z</time>
      </trkpt>
      <trkpt lat="45.37413" lon="0.58231">
        <ele>152.214</ele>
        <time>2019-10-28T18:05:43Z</time>
      </trkpt>
      <trkpt lat="45.37349" lon="0.58202">
        <ele>154.661</ele>
        <time>2019-10-28T18:05:23Z</time>
      </trkpt>
      <trkpt lat="45.37312" lon="0.58174">
        <ele>155.152</ele>
        <time>2019-10-28T18:05:03Z</time>
      </trkpt>
      <trkpt lat="45.3726" lon="0.58098">
        <ele>157.316</ele>
        <time>2019-10-28T18:04:43Z</time>
      </trkpt>
      <trkpt lat="45.37223" lon="0.5802">
        <ele>159.644</ele>
        <time>2019-10-28T18:04:23Z</time>
      </trkpt>
      <trkpt lat="45.37191" lon="0.58013">
        <ele>162.758</ele>
        <time>2019-10-28T18:04:03Z</time>
      </trkpt>
      <trkpt lat="45.37181" lon="0.57991">
        <ele>162.615</ele>
        <time>2019-10-28T18:03:43Z</time>
      </trkpt>
      <trkpt lat="45.37096" lon="0.57934">
        <ele>160.26</ele>
        <time>2019-10-28T18:03:23Z</time>
      </trkpt>
      <trkpt lat="45.36974" lon="0.58002">
        <ele>152.394</ele>
        <time>2019-10-28T18:03:03Z</time>
      </trkpt>
      <trkpt lat="45.36935" lon="0.5807">
        <ele>152.208</ele>
        <time>2019-10-28T18:02:43Z</time>
      </trkpt>
      <trkpt lat="45.36823" lon="0.57956">
        <ele>163.426</ele>
        <time>2019-10-28T18:02:23Z</time>
      </trkpt>
      <trkpt lat="45.3677" lon="0.57943">
        <ele>165.024</ele>
        <time>2019-10-28T18:02:03Z</time>
      </trkpt>
      <trkpt lat="45.36686" lon="0.57891">
        <ele>171.488</ele>
        <time>2019-10-28T18:01:43Z</time>
      </trkpt>
      <trkpt lat="45.36651" lon="0.57885">
        <ele>170.912</ele>
        <time>2019-10-28T18:01:23Z</time>
      </trkpt>
      <trkpt lat="45.36573" lon="0.57828">
        <ele>175.093</ele>
        <time>2019-10-28T18:01:03Z</time>
      </trkpt>
      <trkpt lat="45.36523" lon="0.57817">
        <ele>171.457</ele>
        <time>2019-10-28T18:00:43Z</time>
      </trkpt>
      <trkpt lat="45.36466" lon="0.5783">
        <ele>174.525</ele>
        <time>2019-10-28T18:00:23Z</time>
      </trkpt>
      <trkpt lat="45.3646" lon="0.57743">
        <ele>173.639</ele>
        <time>2019-10-28T18:00:03Z</time>
      </trkpt>
      <trkpt lat="45.3643" lon="0.57815">
        <ele>176.586</ele>
        <time>2019-10-28T17:59:43Z</time>
      </trkpt>
      <trkpt lat="45.36387" lon="0.57857">
        <ele>176.871</ele>
        <time>2019-10-28T17:59:23Z</time>
      </trkpt>
      <trkpt lat="45.36374" lon="0.57774">
        <ele>175.545</ele>
        <time>2019-10-28T17:59:03Z</time>
      </trkpt>
      <trkpt lat="45.36333" lon="0.57623">
        <ele>173.608</ele>
        <time>2019-10-28T17:58:43Z</time>
      </trkpt>
      <trkpt lat="45.3637" lon="0.57537">
        <ele>171.922</ele>
        <time>2019-10-28T17:58:23Z</time>
      </trkpt>
      <trkpt lat="45.36393" lon="0.57379">
        <ele>163.157</ele>
        <time>2019-10-28T17:58:03Z</time>
      </trkpt>
      <trkpt lat="45.36406" lon="0.57337">
        <ele>161.394</ele>
        <time>2019-10-28T17:57:43Z</time>
      </trkpt>
      <trkpt lat="45.36431" lon="0.57142">
        <ele>157.654</ele>
        <time>2019-10-28T17:57:23Z</time>
      </trkpt>
      <trkpt lat="45.36441" lon="0.5713">
        <ele>157.355</ele>
        <time>2019-10-28T17:57:03Z</time>
      </trkpt>
      <trkpt lat="45.36438" lon="0.57015">
        <ele>151.289</ele>
        <time>2019-10-28T17:56:43Z</time>
      </trkpt>
      <trkpt lat="45.36454" lon="0.56917">
        <ele>148.737</ele>
        <time>2019-10-28T17:56:23Z</time>
      </trkpt>
      <trkpt lat="45.36487" lon="0.56842">
        <ele>146.491</ele>
        <time>2019-10-28T17:56:03Z</time>
      </trkpt>
      <trkpt lat="45.36527" lon="0.56792">
        <ele>143.018</ele>
        <time>2019-10-28T17:55:43Z</time>
      </trkpt>
      <trkpt lat="45.36566" lon="0.56768">
        <ele>141.023</ele>
        <time>2019-10-28T17:55:23Z</time>
      </trkpt>
      <trkpt lat="45.36603" lon="0.56727">
        <ele>133.827</ele>
        <time>2019-10-28T17:55:03Z</time>
      </trkpt>
      <trkpt lat="45.36639" lon="0.56672">
        <ele>120.608</ele>
        <time>2019-10-28T17:54:43Z</time>
      </trkpt>
      <trkpt lat="45.36583" lon="0.56628">
        <ele>119.405</ele>
        <time>2019-10-28T17:54:23Z</time>
      </trkpt>
      <trkpt lat="45.36516" lon="0.5648">
        <ele>115.232</ele>
        <time>2019-10-28T17:54:03Z</time>
      </trkpt>
      <trkpt lat="45.36467" lon="0.56436">
        <ele>118.912</ele>
        <time>2019-10-28T17:53:43Z</time>
      </trkpt>
      <trkpt lat="45.3649" lon="0.56376">
        <ele>109.528</ele>
        <time>2019-10-28T17:53:23Z</time>
      </trkpt>
      <trkpt lat="45.36525" lon="0.5632">
        <ele>115.819</ele>
        <time>2019-10-28T17:53:03Z</time>
      </trkpt>
      <trkpt lat="45.36492" lon="0.56273">
        <ele>115.543</ele>
        <time>2019-10-28T17:52:43Z</time>
      </trkpt>
      <trkpt lat="45.36476" lon="0.56229">
        <ele>112.861</ele>
        <time>2019-10-28T17:52:23Z</time>
      </trkpt>
      <trkpt lat="45.36487" lon="0.56181">
        <ele>113.975</ele>
        <time>2019-10-28T17:52:03Z</time>
      </trkpt>
      <trkpt lat="45.36533" lon="0.56149">
        <ele>116.942</ele>
        <time>2019-10-28T17:51:43Z</time>
      </trkpt>
      <trkpt lat="45.36547" lon="0.56089">
        <ele>113.137</ele>
        <time>2019-10-28T17:51:23Z</time>
      </trkpt>
      <trkpt lat="45.36534" lon="0.56046">
        <ele>107.191</ele>
        <time>2019-10-28T17:51:03Z</time>
      </trkpt>
      <trkpt lat="45.3645" lon="0.55983">
        <ele>119.208</ele>
        <time>2019-10-28T17:50:43Z</time>
      </trkpt>
      <trkpt lat="45.36408" lon="0.55981">
        <ele>118.608</ele>
        <time>2019-10-28T17:50:23Z</time>
      </trkpt>
      <trkpt lat="45.36431" lon="0.55864">
        <ele>134.653</ele>
        <time>2019-10-28T17:50:03Z</time>
      </trkpt>
      <trkpt lat="45.36441" lon="0.55689">
        <ele>147.852</ele>
        <time>2019-10-28T17:49:43Z</time>
      </trkpt>
      <trkpt lat="45.36438" lon="0.55514">
        <ele>155.182</ele>
        <time>2019-10-28T17:49:23Z</time>
      </trkpt>
      <trkpt lat="45.36507" lon="0.55452">
        <ele>165.523</ele>
        <time>2019-10-28T17:49:03Z</time>
      </trkpt>
      <trkpt lat="45.3651" lon="0.5533">
        <ele>164.137</ele>
        <time>2019-10-28T17:48:43Z</time>
      </trkpt>
      <trkpt lat="45.36589" lon="0.55229">
        <ele>166.675</ele>
        <time>2019-10-28T17:48:23Z</time>
      </trkpt>
      <trkpt lat="45.36644" lon="0.55096">
        <ele>172.879</ele>
        <time>2019-10-28T17:48:03Z</time>
      </trkpt>
      <trkpt lat="45.36644" lon="0.55034">
        <ele>175.616</ele>
        <time>2019-10-28T17:47:43Z</time>
      </trkpt>
      <trkpt lat="45.36612" lon="0.54997">
        <ele>178.181</ele>
        <time>2019-10-28T17:47:23Z</time>
      </trkpt>
      <trkpt lat="45.36596" lon="0.54949">
        <ele>178.135</ele>
        <time>2019-10-28T17:47:03Z</time>
      </trkpt>
      <trkpt lat="45.36669" lon="0.54884">
        <ele>177.808</ele>
        <time>2019-10-28T17:46:43Z</time>
      </trkpt>
      <trkpt lat="45.36736" lon="0.54843">
        <ele>179.022</ele>
        <time>2019-10-28T17:46:23Z</time>
      </trkpt>
      <trkpt lat="45.36806" lon="0.54709">
        <ele>181.557</ele>
        <time>2019-10-28T17:46:03Z</time>
      </trkpt>
      <trkpt lat="45.36846" lon="0.54668">
        <ele>183.194</ele>
        <time>2019-10-28T17:45:43Z</time>
      </trkpt>
      <trkpt lat="45.37042" lon="0.54693">
        <ele>184.567</ele>
        <time>2019-10-28T17:45:23Z</time>
      </trkpt>
      <trkpt lat="45.3709" lon="0.54712">
        <ele>183.328</ele>
        <time>2019-10-28T17:45:03Z</time>
      </trkpt>
      <trkpt lat="45.37295" lon="0.54859">
        <ele>179.432</ele>
        <time>2019-10-28T17:44:43Z</time>
      </trkpt>
      <trkpt lat="45.37334" lon="0.54903">
        <ele>177.59</ele>
        <time>2019-10-28T17:44:23Z</time>
      </trkpt>
      <trkpt lat="45.37431" lon="0.55275">
        <ele>170.564</ele>
        <time>2019-10-28T17:44:03Z</time>
      </trkpt>
      <trkpt lat="45.37523" lon="0.5539">
        <ele>169.051</ele>
        <time>2019-10-28T17:43:43Z</time>
      </trkpt>
      <trkpt lat="45.37589" lon="0.55183">
        <ele>160.636</ele>
        <time>2019-10-28T17:43:23Z</time>
      </trkpt>
      <trkpt lat="45.37586" lon="0.55126">
        <ele>159.52</ele>
        <time>2019-10-28T17:43:03Z</time>
      </trkpt>
      <trkpt lat="45.37633" lon="0.54972">
        <ele>167.208</ele>
        <time>2019-10-28T17:42:43Z</time>
      </trkpt>
      <trkpt lat="45.37583" lon="0.54912">
        <ele>168.022</ele>
        <time>2019-10-28T17:42:23Z</time>
      </trkpt>
      <trkpt lat="45.37589" lon="0.54829">
        <ele>167.802</ele>
        <time>2019-10-28T17:42:03Z</time>
      </trkpt>
      <trkpt lat="45.37585" lon="0.54758">
        <ele>165.549</ele>
        <time>2019-10-28T17:41:43Z</time>
      </trkpt>
      <trkpt lat="45.37556" lon="0.54661">
        <ele>160.847</ele>
        <time>2019-10-28T17:41:23Z</time>
      </trkpt>
      <trkpt lat="45.37536" lon="0.54544">
        <ele>162.098</ele>
        <time>2019-10-28T17:41:03Z</time>
      </trkpt>
      <trkpt lat="45.37614" lon="0.54261">
        <ele>168.422</ele>
        <time>2019-10-28T17:40:43Z</time>
      </trkpt>
      <trkpt lat="45.37606" lon="0.54118">
        <ele>171.41</ele>
        <time>2019-10-28T17:40:23Z</time>
      </trkpt>
      <trkpt lat="45.37698" lon="0.53916">
        <ele>173.714</ele>
        <time>2019-10-28T17:40:03Z</time>
      </trkpt>
      <trkpt lat="45.37796" lon="0.53707">
        <ele>176.631</ele>
        <time>2019-10-28T17:39:43Z</time>
      </trkpt>
      <trkpt lat="45.3789" lon="0.53463">
        <ele>176.686</ele>
        <time>2019-10-28T17:39:23Z</time>
      </trkpt>
      <trkpt lat="45.3804" lon="0.53318">
        <ele>180.45</ele>
        <time>2019-10-28T17:39:03Z</time>
      </trkpt>
      <trkpt lat="45.38179" lon="0.53247">
        <ele>177.908</ele>
        <time>2019-10-28T17:38:43Z</time>
      </trkpt>
      <trkpt lat="45.38205" lon="0.53169">
        <ele>179.217</ele>
        <time>2019-10-28T17:38:23Z</time>
      </trkpt>
      <trkpt lat="45.38194" lon="0.52927">
        <ele>174.161</ele>
        <time>2019-10-28T17:38:03Z</time>
      </trkpt>
      <trkpt lat="45.38549" lon="0.52099">
        <ele>156.448</ele>
        <time>2019-10-28T17:37:43Z</time>
      </trkpt>
      <trkpt lat="45.38593" lon="0.5206">
        <ele>163.839</ele>
        <time>2019-10-28T17:37:23Z</time>
      </trkpt>
      <trkpt lat="45.38628" lon="0.5206">
        <ele>166.76</ele>
        <time>2019-10-28T17:37:03Z</time>
      </trkpt>
      <trkpt lat="45.38725" lon="0.52147">
        <ele>164.564</ele>
        <time>2019-10-28T17:36:43Z</time>
      </trkpt>
      <trkpt lat="45.38761" lon="0.52154">
        <ele>168.792</ele>
        <time>2019-10-28T17:36:23Z</time>
      </trkpt>
      <trkpt lat="45.38822" lon="0.52101">
        <ele>172.646</ele>
        <time>2019-10-28T17:36:03Z</time>
      </trkpt>
      <trkpt lat="45.38843" lon="0.52044">
        <ele>174.173</ele>
        <time>2019-10-28T17:35:43Z</time>
      </trkpt>
      <trkpt lat="45.38803" lon="0.51828">
        <ele>180.378</ele>
        <time>2019-10-28T17:35:23Z</time>
      </trkpt>
      <trkpt lat="45.38822" lon="0.5177">
        <ele>181.792</ele>
        <time>2019-10-28T17:35:03Z</time>
      </trkpt>
      <trkpt lat="45.38899" lon="0.51706">
        <ele>177.808</ele>
        <time>2019-10-28T17:34:43Z</time>
      </trkpt>
      <trkpt lat="45.39001" lon="0.51708">
        <ele>172.919</ele>
        <time>2019-10-28T17:34:23Z</time>
      </trkpt>
      <trkpt lat="45.39046" lon="0.51681">
        <ele>169.581</ele>
        <time>2019-10-28T17:34:03Z</time>
      </trkpt>
      <trkpt lat="45.39084" lon="0.51625">
        <ele>171.567</ele>
        <time>2019-10-28T17:33:43Z</time>
      </trkpt>
      <trkpt lat="45.3909" lon="0.51467">
        <ele>177.951</ele>
        <time>2019-10-28T17:33:23Z</time>
      </trkpt>
      <trkpt lat="45.392" lon="0.51359">
        <ele>188.042</ele>
        <time>2019-10-28T17:33:03Z</time>
      </trkpt>
      <trkpt lat="45.39176" lon="0.51276">
        <ele>182.826</ele>
        <time>2019-10-28T17:32:43Z</time>
      </trkpt>
      <trkpt lat="45.39189" lon="0.51218">
        <ele>178.444</ele>
        <time>2019-10-28T17:32:23Z</time>
      </trkpt>
      <trkpt lat="45.39274" lon="0.51142">
        <ele>170.278</ele>
        <time>2019-10-28T17:32:03Z</time>
      </trkpt>
      <trkpt lat="45.39327" lon="0.50754">
        <ele>174.145</ele>
        <time>2019-10-28T17:31:43Z</time>
      </trkpt>
      <trkpt lat="45.39399" lon="0.50544">
        <ele>166.54</ele>
        <time>2019-10-28T17:31:23Z</time>
      </trkpt>
      <trkpt lat="45.39399" lon="0.50365">
        <ele>165.444</ele>
        <time>2019-10-28T17:31:03Z</time>
      </trkpt>
      <trkpt lat="45.39379" lon="0.50206">
        <ele>166.008</ele>
        <time>2019-10-28T17:30:43Z</time>
      </trkpt>
      <trkpt lat="45.39326" lon="0.50045">
        <ele>171.526</ele>
        <time>2019-10-28T17:30:23Z</time>
      </trkpt>
      <trkpt lat="45.3936" lon="0.49963">
        <ele>173.36</ele>
        <time>2019-10-28T17:30:03Z</time>
      </trkpt>
      <trkpt lat="45.39371" lon="0.49878">
        <ele>176.386</ele>
        <time>2019-10-28T17:29:43Z</time>
      </trkpt>
      <trkpt lat="45.39428" lon="0.49765">
        <ele>174.672</ele>
        <time>2019-10-28T17:29:23Z</time>
      </trkpt>
      <trkpt lat="45.39424" lon="0.49576">
        <ele>171.643</ele>
        <time>2019-10-28T17:29:03Z</time>
      </trkpt>
      <trkpt lat="45.39492" lon="0.49491">
        <ele>173.637</ele>
        <time>2019-10-28T17:28:43Z</time>
      </trkpt>
      <trkpt lat="45.39566" lon="0.49385">
        <ele>177.675</ele>
        <time>2019-10-28T17:28:23Z</time>
      </trkpt>
      <trkpt lat="45.3981" lon="0.49093">
        <ele>178.329</ele>
        <time>2019-10-28T17:28:03Z</time>
      </trkpt>
      <trkpt lat="45.3988" lon="0.4885">
        <ele>191.516</ele>
        <time>2019-10-28T17:27:43Z</time>
      </trkpt>
      <trkpt lat="45.39981" lon="0.48647">
        <ele>198.021</ele>
        <time>2019-10-28T17:27:23Z</time>
      </trkpt>
      <trkpt lat="45.40002" lon="0.48705">
        <ele>200.295</ele>
        <time>2019-10-28T17:27:03Z</time>
      </trkpt>
      <trkpt lat="45.40015" lon="0.48771">
        <ele>200.008</ele>
        <time>2019-10-28T17:26:43Z</time>
      </trkpt>
      <trkpt lat="45.40044" lon="0.48868">
        <ele>201.125</ele>
        <time>2019-10-28T17:26:23Z</time>
      </trkpt>
      <trkpt lat="45.40074" lon="0.48879">
        <ele>200.423</ele>
        <time>2019-10-28T17:26:03Z</time>
      </trkpt>
      <trkpt lat="45.40114" lon="0.48925">
        <ele>197.997</ele>
        <time>2019-10-28T17:25:43Z</time>
      </trkpt>
      <trkpt lat="45.40124" lon="0.4896">
        <ele>197.019</ele>
        <time>2019-10-28T17:25:23Z</time>
      </trkpt>
      <trkpt lat="45.40187" lon="0.49036">
        <ele>197.39</ele>
        <time>2019-10-28T17:25:03Z</time>
      </trkpt>
      <trkpt lat="45.4023" lon="0.4899">
        <ele>195.684</ele>
        <time>2019-10-28T17:24:43Z</time>
      </trkpt>
      <trkpt lat="45.40447" lon="0.48902">
        <ele>193.642</ele>
        <time>2019-10-28T17:24:23Z</time>
      </trkpt>
      <trkpt lat="45.40561" lon="0.48829">
        <ele>187.346</ele>
        <time>2019-10-28T17:24:03Z</time>
      </trkpt>
      <trkpt lat="45.40674" lon="0.48884">
        <ele>189.183</ele>
        <time>2019-10-28T17:23:43Z</time>
      </trkpt>
      <trkpt lat="45.40673" lon="0.48863">
        <ele>186.378</ele>
        <time>2019-10-28T17:23:23Z</time>
      </trkpt>
      <trkpt lat="45.40727" lon="0.48877">
        <ele>186.792</ele>
        <time>2019-10-28T17:23:03Z</time>
      </trkpt>
      <trkpt lat="45.408" lon="0.48921">
        <ele>191.508</ele>
        <time>2019-10-28T17:22:43Z</time>
      </trkpt>
      <trkpt lat="45.40831" lon="0.48953">
        <ele>195.326</ele>
        <time>2019-10-28T17:22:23Z</time>
      </trkpt>
      <trkpt lat="45.40855" lon="0.49043">
        <ele>194.642</ele>
        <time>2019-10-28T17:22:03Z</time>
      </trkpt>
      <trkpt lat="45.409" lon="0.49172">
        <ele>188.468</ele>
        <time>2019-10-28T17:21:43Z</time>
      </trkpt>
      <trkpt lat="45.40942" lon="0.49215">
        <ele>190.334</ele>
        <time>2019-10-28T17:21:23Z</time>
      </trkpt>
      <trkpt lat="45.41041" lon="0.49381">
        <ele>191.725</ele>
        <time>2019-10-28T17:21:03Z</time>
      </trkpt>
      <trkpt lat="45.41075" lon="0.49466">
        <ele>191.149</ele>
        <time>2019-10-28T17:20:43Z</time>
      </trkpt>
      <trkpt lat="45.41125" lon="0.49422">
        <ele>188.347</ele>
        <time>2019-10-28T17:20:23Z</time>
      </trkpt>
      <trkpt lat="45.41191" lon="0.4939">
        <ele>182.341</ele>
        <time>2019-10-28T17:20:03Z</time>
      </trkpt>
      <trkpt lat="45.41454" lon="0.49185">
        <ele>173.598</ele>
        <time>2019-10-28T17:19:43Z</time>
      </trkpt>
      <trkpt lat="45.4152" lon="0.49176">
        <ele>175.633</ele>
        <time>2019-10-28T17:19:23Z</time>
      </trkpt>
      <trkpt lat="45.41551" lon="0.4913">
        <ele>173.787</ele>
        <time>2019-10-28T17:19:03Z</time>
      </trkpt>
      <trkpt lat="45.41575" lon="0.49121">
        <ele>174.108</ele>
        <time>2019-10-28T17:18:43Z</time>
      </trkpt>
      <trkpt lat="45.41544" lon="0.49082">
        <ele>171.507</ele>
        <time>2019-10-28T17:18:23Z</time>
      </trkpt>
      <trkpt lat="45.41556" lon="0.49031">
        <ele>167.443</ele>
        <time>2019-10-28T17:18:03Z</time>
      </trkpt>
      <trkpt lat="45.41586" lon="0.48971">
        <ele>162.013</ele>
        <time>2019-10-28T17:17:43Z</time>
      </trkpt>
      <trkpt lat="45.41548" lon="0.48953">
        <ele>159.32</ele>
        <time>2019-10-28T17:17:23Z</time>
      </trkpt>
      <trkpt lat="45.4153" lon="0.48902">
        <ele>160.191</ele>
        <time>2019-10-28T17:17:03Z</time>
      </trkpt>
      <trkpt lat="45.4146" lon="0.48769">
        <ele>165.625</ele>
        <time>2019-10-28T17:16:43Z</time>
      </trkpt>
      <trkpt lat="45.41394" lon="0.48691">
        <ele>163.433</ele>
        <time>2019-10-28T17:16:23Z</time>
      </trkpt>
      <trkpt lat="45.41364" lon="0.48622">
        <ele>164.097</ele>
        <time>2019-10-28T17:16:03Z</time>
      </trkpt>
      <trkpt lat="45.41389" lon="0.48557">
        <ele>169.024</ele>
        <time>2019-10-28T17:15:43Z</time>
      </trkpt>
      <trkpt lat="45.4146" lon="0.48431">
        <ele>175.369</ele>
        <time>2019-10-28T17:15:23Z</time>
      </trkpt>
      <trkpt lat="45.41477" lon="0.48325">
        <ele>176.613</ele>
        <time>2019-10-28T17:15:03Z</time>
      </trkpt>
      <trkpt lat="45.4152" lon="0.48169">
        <ele>180.708</ele>
        <time>2019-10-28T17:14:43Z</time>
      </trkpt>
      <trkpt lat="45.41596" lon="0.48118">
        <ele>181.714</ele>
        <time>2019-10-28T17:14:23Z</time>
      </trkpt>
      <trkpt lat="45.41686" lon="0.4819">
        <ele>181.313</ele>
        <time>2019-10-28T17:14:03Z</time>
      </trkpt>
      <trkpt lat="45.4187" lon="0.48284">
        <ele>176.672</ele>
        <time>2019-10-28T17:13:43Z</time>
      </trkpt>
      <trkpt lat="45.41964" lon="0.48302">
        <ele>178.578</ele>
        <time>2019-10-28T17:13:23Z</time>
      </trkpt>
      <trkpt lat="45.42046" lon="0.48449">
        <ele>173.899</ele>
        <time>2019-10-28T17:13:03Z</time>
      </trkpt>
      <trkpt lat="45.42076" lon="0.48525">
        <ele>170.163</ele>
        <time>2019-10-28T17:12:43Z</time>
      </trkpt>
      <trkpt lat="45.4214" lon="0.48537">
        <ele>172.111</ele>
        <time>2019-10-28T17:12:23Z</time>
      </trkpt>
      <trkpt lat="45.42185" lon="0.48578">
        <ele>171.935</ele>
        <time>2019-10-28T17:12:03Z</time>
      </trkpt>
      <trkpt lat="45.42229" lon="0.48637">
        <ele>167.922</ele>
        <time>2019-10-28T17:11:43Z</time>
      </trkpt>
      <trkpt lat="45.42328" lon="0.4871">
        <ele>160.897</ele>
        <time>2019-10-28T17:11:23Z</time>
      </trkpt>
      <trkpt lat="45.42362" lon="0.48759">
        <ele>156.781</ele>
        <time>2019-10-28T17:11:03Z</time>
      </trkpt>
      <trkpt lat="45.42399" lon="0.48777">
        <ele>155.808</ele>
        <time>2019-10-28T17:10:43Z</time>
      </trkpt>
      <trkpt lat="45.42446" lon="0.48837">
        <ele>156.817</ele>
        <time>2019-10-28T17:10:23Z</time>
      </trkpt>
      <trkpt lat="45.42605" lon="0.48876">
        <ele>152.752</ele>
        <time>2019-10-28T17:10:03Z</time>
      </trkpt>
      <trkpt lat="45.42631" lon="0.48855">
        <ele>150.758</ele>
        <time>2019-10-28T17:09:43Z</time>
      </trkpt>
      <trkpt lat="45.42713" lon="0.48892">
        <ele>154.157</ele>
        <time>2019-10-28T17:09:23Z</time>
      </trkpt>
      <trkpt lat="45.42832" lon="0.48926">
        <ele>148.768</ele>
        <time>2019-10-28T17:09:03Z</time>
      </trkpt>
      <trkpt lat="45.4288" lon="0.48921">
        <ele>148.832</ele>
        <time>2019-10-28T17:08:43Z</time>
      </trkpt>
      <trkpt lat="45.42946" lon="0.48929">
        <ele>144.09</ele>
        <time>2019-10-28T17:08:23Z</time>
      </trkpt>
      <trkpt lat="45.42979" lon="0.48959">
        <ele>140.784</ele>
        <time>2019-10-28T17:08:03Z</time>
      </trkpt>
      <trkpt lat="45.43004" lon="0.48938">
        <ele>141.011</ele>
        <time>2019-10-28T17:07:43Z</time>
      </trkpt>
      <trkpt lat="45.43004" lon="0.48916">
        <ele>142.036</ele>
        <time>2019-10-28T17:07:23Z</time>
      </trkpt>
      <trkpt lat="45.4302" lon="0.48887">
        <ele>143.45</ele>
        <time>2019-10-28T17:07:03Z</time>
      </trkpt>
      <trkpt lat="45.43033" lon="0.48801">
        <ele>146.608</ele>
        <time>2019-10-28T17:06:43Z</time>
      </trkpt>
      <trkpt lat="45.4298" lon="0.48557">
        <ele>155.01</ele>
        <time>2019-10-28T17:06:23Z</time>
      </trkpt>
      <trkpt lat="45.43001" lon="0.48456">
        <ele>150.064</ele>
        <time>2019-10-28T17:06:03Z</time>
      </trkpt>
      <trkpt lat="45.42981" lon="0.48433">
        <ele>152.043</ele>
        <time>2019-10-28T17:05:43Z</time>
      </trkpt>
      <trkpt lat="45.42984" lon="0.48394">
        <ele>152.886</ele>
        <time>2019-10-28T17:05:23Z</time>
      </trkpt>
      <trkpt lat="45.42979" lon="0.48323">
        <ele>155.997</ele>
        <time>2019-10-28T17:05:03Z</time>
      </trkpt>
      <trkpt lat="45.42986" lon="0.4829">
        <ele>157.521</ele>
        <time>2019-10-28T17:04:43Z</time>
      </trkpt>
      <trkpt lat="45.42995" lon="0.48189">
        <ele>158.939</ele>
        <time>2019-10-28T17:04:23Z</time>
      </trkpt>
      <trkpt lat="45.42994" lon="0.48056">
        <ele>156.073</ele>
        <time>2019-10-28T17:04:03Z</time>
      </trkpt>
      <trkpt lat="45.43019" lon="0.48024">
        <ele>155.59</ele>
        <time>2019-10-28T17:03:43Z</time>
      </trkpt>
      <trkpt lat="45.43049" lon="0.47905">
        <ele>160.035</ele>
        <time>2019-10-28T17:03:23Z</time>
      </trkpt>
      <trkpt lat="45.4314" lon="0.47726">
        <ele>162.089</ele>
        <time>2019-10-28T17:03:03Z</time>
      </trkpt>
      <trkpt lat="45.43049" lon="0.47672">
        <ele>162.008</ele>
        <time>2019-10-28T17:02:43Z</time>
      </trkpt>
      <trkpt lat="45.43055" lon="0.47643">
        <ele>162.815</ele>
        <time>2019-10-28T17:02:23Z</time>
      </trkpt>
      <trkpt lat="45.43101" lon="0.47622">
        <ele>161.923</ele>
        <time>2019-10-28T17:02:03Z</time>
      </trkpt>
      <trkpt lat="45.43192" lon="0.47606">
        <ele>159.933</ele>
        <time>2019-10-28T17:01:43Z</time>
      </trkpt>
      <trkpt lat="45.43275" lon="0.4758">
        <ele>156.961</ele>
        <time>2019-10-28T17:01:23Z</time>
      </trkpt>
      <trkpt lat="45.43534" lon="0.47362">
        <ele>151.812</ele>
        <time>2019-10-28T17:01:03Z</time>
      </trkpt>
      <trkpt lat="45.43582" lon="0.4729">
        <ele>151.036</ele>
        <time>2019-10-28T17:00:43Z</time>
      </trkpt>
      <trkpt lat="45.43588" lon="0.4724">
        <ele>150.454</ele>
        <time>2019-10-28T17:00:23Z</time>
      </trkpt>
      <trkpt lat="45.4357" lon="0.47214">
        <ele>147.838</ele>
        <time>2019-10-28T17:00:03Z</time>
      </trkpt>
      <trkpt lat="45.43591" lon="0.4717">
        <ele>145.665</ele>
        <time>2019-10-28T16:59:43Z</time>
      </trkpt>
      <trkpt lat="45.43684" lon="0.47066">
        <ele>145.51</ele>
        <time>2019-10-28T16:59:23Z</time>
      </trkpt>
      <trkpt lat="45.43736" lon="0.4704">
        <ele>146.544</ele>
        <time>2019-10-28T16:59:03Z</time>
      </trkpt>
      <trkpt lat="45.43777" lon="0.47032">
        <ele>146.508</ele>
        <time>2019-10-28T16:58:43Z</time>
      </trkpt>
      <trkpt lat="45.43841" lon="0.47035">
        <ele>149.817</ele>
        <time>2019-10-28T16:58:23Z</time>
      </trkpt>
      <trkpt lat="45.43917" lon="0.46983">
        <ele>144.507</ele>
        <time>2019-10-28T16:58:03Z</time>
      </trkpt>
      <trkpt lat="45.4394" lon="0.46954">
        <ele>141.184</ele>
        <time>2019-10-28T16:57:43Z</time>
      </trkpt>
      <trkpt lat="45.44039" lon="0.46937">
        <ele>143.442</ele>
        <time>2019-10-28T16:57:23Z</time>
      </trkpt>
      <trkpt lat="45.44102" lon="0.4698">
        <ele>138.933</ele>
        <time>2019-10-28T16:57:03Z</time>
      </trkpt>
      <trkpt lat="45.44263" lon="0.46679">
        <ele>151.097</ele>
        <time>2019-10-28T16:56:43Z</time>
      </trkpt>
      <trkpt lat="45.44347" lon="0.46545">
        <ele>152.935</ele>
        <time>2019-10-28T16:56:23Z</time>
      </trkpt>
      <trkpt lat="45.44365" lon="0.46495">
        <ele>151.859</ele>
        <time>2019-10-28T16:56:03Z</time>
      </trkpt>
      <trkpt lat="45.44434" lon="0.46371">
        <ele>152.636</ele>
        <time>2019-10-28T16:55:43Z</time>
      </trkpt>
      <trkpt lat="45.44733" lon="0.45958">
        <ele>148.721</ele>
        <time>2019-10-28T16:55:23Z</time>
      </trkpt>
      <trkpt lat="45.44907" lon="0.45697">
        <ele>132.625</ele>
        <time>2019-10-28T16:55:03Z</time>
      </trkpt>
      <trkpt lat="45.44838" lon="0.4562">
        <ele>139.908</ele>
        <time>2019-10-28T16:54:43Z</time>
      </trkpt>
      <trkpt lat="45.44732" lon="0.4554">
        <ele>135.322</ele>
        <time>2019-10-28T16:54:23Z</time>
      </trkpt>
      <trkpt lat="45.44642" lon="0.45536">
        <ele>134.957</ele>
        <time>2019-10-28T16:54:03Z</time>
      </trkpt>
      <trkpt lat="45.44569" lon="0.45565">
        <ele>132.694</ele>
        <time>2019-10-28T16:53:43Z</time>
      </trkpt>
      <trkpt lat="45.44494" lon="0.45571">
        <ele>129.98</ele>
        <time>2019-10-28T16:53:23Z</time>
      </trkpt>
      <trkpt lat="45.44449" lon="0.45607">
        <ele>134.281</ele>
        <time>2019-10-28T16:53:03Z</time>
      </trkpt>
      <trkpt lat="45.44298" lon="0.45653">
        <ele>131.435</ele>
        <time>2019-10-28T16:52:43Z</time>
      </trkpt>
      <trkpt lat="45.44251" lon="0.45677">
        <ele>129.283</ele>
        <time>2019-10-28T16:52:23Z</time>
      </trkpt>
      <trkpt lat="45.44191" lon="0.45773">
        <ele>127.837</ele>
        <time>2019-10-28T16:52:03Z</time>
      </trkpt>
      <trkpt lat="45.44186" lon="0.45729">
        <ele>124.714</ele>
        <time>2019-10-28T16:51:43Z</time>
      </trkpt>
      <trkpt lat="45.44166" lon="0.45695">
        <ele>123.049</ele>
        <time>2019-10-28T16:51:23Z</time>
      </trkpt>
      <trkpt lat="45.4409" lon="0.45631">
        <ele>126.753</ele>
        <time>2019-10-28T16:51:03Z</time>
      </trkpt>
      <trkpt lat="45.44097" lon="0.45381">
        <ele>126.108</ele>
        <time>2019-10-28T16:50:43Z</time>
      </trkpt>
      <trkpt lat="45.44112" lon="0.453">
        <ele>123.827</ele>
        <time>2019-10-28T16:50:23Z</time>
      </trkpt>
      <trkpt lat="45.441" lon="0.45222">
        <ele>121.661</ele>
        <time>2019-10-28T16:50:03Z</time>
      </trkpt>
      <trkpt lat="45.44135" lon="0.45038">
        <ele>125.377</ele>
        <time>2019-10-28T16:49:43Z</time>
      </trkpt>
      <trkpt lat="45.44134" lon="0.44986">
        <ele>124.062</ele>
        <time>2019-10-28T16:49:23Z</time>
      </trkpt>
      <trkpt lat="45.44108" lon="0.45048">
        <ele>128.543</ele>
        <time>2019-10-28T16:49:03Z</time>
      </trkpt>
      <trkpt lat="45.43971" lon="0.45118">
        <ele>147.267</ele>
        <time>2019-10-28T16:48:43Z</time>
      </trkpt>
      <trkpt lat="45.43906" lon="0.45087">
        <ele>152.275</ele>
        <time>2019-10-28T16:48:23Z</time>
      </trkpt>
      <trkpt lat="45.4379" lon="0.45039">
        <ele>154.019</ele>
        <time>2019-10-28T16:48:03Z</time>
      </trkpt>
      <trkpt lat="45.4373" lon="0.45032">
        <ele>154.036</ele>
        <time>2019-10-28T16:47:43Z</time>
      </trkpt>
      <trkpt lat="45.43591" lon="0.45002">
        <ele>161.721</ele>
        <time>2019-10-28T16:47:23Z</time>
      </trkpt>
      <trkpt lat="45.43449" lon="0.45037">
        <ele>163.015</ele>
        <time>2019-10-28T16:47:03Z</time>
      </trkpt>
      <trkpt lat="45.4337" lon="0.4505">
        <ele>167.908</ele>
        <time>2019-10-28T16:46:43Z</time>
      </trkpt>
      <trkpt lat="45.43268" lon="0.45041">
        <ele>169.825</ele>
        <time>2019-10-28T16:46:23Z</time>
      </trkpt>
      <trkpt lat="45.43267" lon="0.44986">
        <ele>168.023</ele>
        <time>2019-10-28T16:46:03Z</time>
      </trkpt>
      <trkpt lat="45.43246" lon="0.44922">
        <ele>167.497</ele>
        <time>2019-10-28T16:45:43Z</time>
      </trkpt>
      <trkpt lat="45.43255" lon="0.44873">
        <ele>163.545</ele>
        <time>2019-10-28T16:45:23Z</time>
      </trkpt>
      <trkpt lat="45.43302" lon="0.44756">
        <ele>152.366</ele>
        <time>2019-10-28T16:45:03Z</time>
      </trkpt>
      <trkpt lat="45.43354" lon="0.44696">
        <ele>146.45</ele>
        <time>2019-10-28T16:44:43Z</time>
      </trkpt>
      <trkpt lat="45.43425" lon="0.44646">
        <ele>138.918</ele>
        <time>2019-10-28T16:44:23Z</time>
      </trkpt>
      <trkpt lat="45.43499" lon="0.44641">
        <ele>138.172</ele>
        <time>2019-10-28T16:44:03Z</time>
      </trkpt>
      <trkpt lat="45.43501" lon="0.44565">
        <ele>137.039</ele>
        <time>2019-10-28T16:43:43Z</time>
      </trkpt>
      <trkpt lat="45.43556" lon="0.44558">
        <ele>141.534</ele>
        <time>2019-10-28T16:43:23Z</time>
      </trkpt>
      <trkpt lat="45.4362" lon="0.44517">
        <ele>143.678</ele>
        <time>2019-10-28T16:43:03Z</time>
      </trkpt>
      <trkpt lat="45.43631" lon="0.44496">
        <ele>142.608</ele>
        <time>2019-10-28T16:42:43Z</time>
      </trkpt>
      <trkpt lat="45.43711" lon="0.44454">
        <ele>138.314</ele>
        <time>2019-10-28T16:42:23Z</time>
      </trkpt>
      <trkpt lat="45.43732" lon="0.44476">
        <ele>135.804</ele>
        <time>2019-10-28T16:42:03Z</time>
      </trkpt>
      <trkpt lat="45.43798" lon="0.44451">
        <ele>138.524</ele>
        <time>2019-10-28T16:41:43Z</time>
      </trkpt>
      <trkpt lat="45.4377" lon="0.44336">
        <ele>140.492</ele>
        <time>2019-10-28T16:41:23Z</time>
      </trkpt>
      <trkpt lat="45.43717" lon="0.44239">
        <ele>139.363</ele>
        <time>2019-10-28T16:41:03Z</time>
      </trkpt>
      <trkpt lat="45.43729" lon="0.43827">
        <ele>140.237</ele>
        <time>2019-10-28T16:40:43Z</time>
      </trkpt>
      <trkpt lat="45.43663" lon="0.43701">
        <ele>146.225</ele>
        <time>2019-10-28T16:40:23Z</time>
      </trkpt>
      <trkpt lat="45.43591" lon="0.43651">
        <ele>154.549</ele>
        <time>2019-10-28T16:40:03Z</time>
      </trkpt>
      <trkpt lat="45.43475" lon="0.43608">
        <ele>164.076</ele>
        <time>2019-10-28T16:39:43Z</time>
      </trkpt>
      <trkpt lat="45.43427" lon="0.43527">
        <ele>167.451</ele>
        <time>2019-10-28T16:39:23Z</time>
      </trkpt>
      <trkpt lat="45.43478" lon="0.43415">
        <ele>168.945</ele>
        <time>2019-10-28T16:39:03Z</time>
      </trkpt>
      <trkpt lat="45.43404" lon="0.43233">
        <ele>176.808</ele>
        <time>2019-10-28T16:38:43Z</time>
      </trkpt>
      <trkpt lat="45.43261" lon="0.43139">
        <ele>186.621</ele>
        <time>2019-10-28T16:38:23Z</time>
      </trkpt>
      <trkpt lat="45.43234" lon="0.43111">
        <ele>188.065</ele>
        <time>2019-10-28T16:38:03Z</time>
      </trkpt>
      <trkpt lat="45.43091" lon="0.43014">
        <ele>189.493</ele>
        <time>2019-10-28T16:37:43Z</time>
      </trkpt>
      <trkpt lat="45.43023" lon="0.42928">
        <ele>188.477</ele>
        <time>2019-10-28T16:37:23Z</time>
      </trkpt>
      <trkpt lat="45.4288" lon="0.4283">
        <ele>183.268</ele>
        <time>2019-10-28T16:37:03Z</time>
      </trkpt>
      <trkpt lat="45.42852" lon="0.42789">
        <ele>182.982</ele>
        <time>2019-10-28T16:36:43Z</time>
      </trkpt>
      <trkpt lat="45.42882" lon="0.42735">
        <ele>181.54</ele>
        <time>2019-10-28T16:36:23Z</time>
      </trkpt>
      <trkpt lat="45.42862" lon="0.42662">
        <ele>184.064</ele>
        <time>2019-10-28T16:36:03Z</time>
      </trkpt>
      <trkpt lat="45.429" lon="0.42609">
        <ele>184.691</ele>
        <time>2019-10-28T16:35:43Z</time>
      </trkpt>
      <trkpt lat="45.43068" lon="0.42188">
        <ele>186.546</ele>
        <time>2019-10-28T16:35:23Z</time>
      </trkpt>
      <trkpt lat="45.43099" lon="0.42132">
        <ele>185.99</ele>
        <time>2019-10-28T16:35:03Z</time>
      </trkpt>
      <trkpt lat="45.43204" lon="0.41991">
        <ele>186.008</ele>
        <time>2019-10-28T16:34:43Z</time>
      </trkpt>
      <trkpt lat="45.43221" lon="0.41903">
        <ele>187.409</ele>
        <time>2019-10-28T16:34:23Z</time>
      </trkpt>
      <trkpt lat="45.434" lon="0.41699">
        <ele>187.281</ele>
        <time>2019-10-28T16:34:03Z</time>
      </trkpt>
      <trkpt lat="45.43475" lon="0.41572">
        <ele>190.241</ele>
        <time>2019-10-28T16:33:43Z</time>
      </trkpt>
      <trkpt lat="45.43541" lon="0.41518">
        <ele>187.52</ele>
        <time>2019-10-28T16:33:23Z</time>
      </trkpt>
      <trkpt lat="45.43567" lon="0.41469">
        <ele>187.351</ele>
        <time>2019-10-28T16:33:03Z</time>
      </trkpt>
      <trkpt lat="45.43666" lon="0.40883">
        <ele>184.845</ele>
        <time>2019-10-28T16:32:43Z</time>
      </trkpt>
      <trkpt lat="45.4369" lon="0.40821">
        <ele>183.613</ele>
        <time>2019-10-28T16:32:23Z</time>
      </trkpt>
      <trkpt lat="45.4377" lon="0.40718">
        <ele>182.957</ele>
        <time>2019-10-28T16:32:03Z</time>
      </trkpt>
      <trkpt lat="45.43824" lon="0.40677">
        <ele>181.844</ele>
        <time>2019-10-28T16:31:43Z</time>
      </trkpt>
      <trkpt lat="45.43948" lon="0.40553">
        <ele>182.819</ele>
        <time>2019-10-28T16:31:23Z</time>
      </trkpt>
      <trkpt lat="45.44004" lon="0.40551">
        <ele>183.023</ele>
        <time>2019-10-28T16:31:03Z</time>
      </trkpt>
      <trkpt lat="45.44115" lon="0.40613">
        <ele>185.708</ele>
        <time>2019-10-28T16:30:43Z</time>
      </trkpt>
      <trkpt lat="45.44448" lon="0.40634">
        <ele>170.915</ele>
        <time>2019-10-28T16:30:23Z</time>
      </trkpt>
      <trkpt lat="45.44494" lon="0.4066">
        <ele>167.641</ele>
        <time>2019-10-28T16:30:03Z</time>
      </trkpt>
      <trkpt lat="45.44529" lon="0.4072">
        <ele>164.971</ele>
        <time>2019-10-28T16:29:43Z</time>
      </trkpt>
      <trkpt lat="45.44541" lon="0.40804">
        <ele>162.038</ele>
        <time>2019-10-28T16:29:23Z</time>
      </trkpt>
      <trkpt lat="45.44553" lon="0.40815">
        <ele>162.679</ele>
        <time>2019-10-28T16:29:03Z</time>
      </trkpt>
      <trkpt lat="45.44616" lon="0.40759">
        <ele>163.153</ele>
        <time>2019-10-28T16:28:43Z</time>
      </trkpt>
      <trkpt lat="45.44639" lon="0.40755">
        <ele>163.531</ele>
        <time>2019-10-28T16:28:23Z</time>
      </trkpt>
      <trkpt lat="45.44807" lon="0.40662">
        <ele>158.795</ele>
        <time>2019-10-28T16:28:03Z</time>
      </trkpt>
      <trkpt lat="45.45224" lon="0.40583">
        <ele>154.062</ele>
        <time>2019-10-28T16:27:43Z</time>
      </trkpt>
      <trkpt lat="45.45336" lon="0.40559">
        <ele>150.347</ele>
        <time>2019-10-28T16:27:23Z</time>
      </trkpt>
      <trkpt lat="45.45449" lon="0.4048">
        <ele>148.991</ele>
        <time>2019-10-28T16:27:03Z</time>
      </trkpt>
      <trkpt lat="45.45519" lon="0.40386">
        <ele>146.008</ele>
        <time>2019-10-28T16:26:43Z</time>
      </trkpt>
      <trkpt lat="45.45586" lon="0.40222">
        <ele>144.711</ele>
        <time>2019-10-28T16:26:23Z</time>
      </trkpt>
      <trkpt lat="45.4572" lon="0.39806">
        <ele>141.601</ele>
        <time>2019-10-28T16:26:03Z</time>
      </trkpt>
      <trkpt lat="45.45781" lon="0.39643">
        <ele>132.051</ele>
        <time>2019-10-28T16:25:43Z</time>
      </trkpt>
      <trkpt lat="45.45852" lon="0.39521">
        <ele>131.112</ele>
        <time>2019-10-28T16:25:23Z</time>
      </trkpt>
      <trkpt lat="45.45915" lon="0.39461">
        <ele>132.023</ele>
        <time>2019-10-28T16:25:03Z</time>
      </trkpt>
      <trkpt lat="45.45915" lon="0.3942">
        <ele>129.957</ele>
        <time>2019-10-28T16:24:43Z</time>
      </trkpt>
      <trkpt lat="45.45995" lon="0.39379">
        <ele>131.585</ele>
        <time>2019-10-28T16:24:23Z</time>
      </trkpt>
      <trkpt lat="45.46031" lon="0.39439">
        <ele>140.389</ele>
        <time>2019-10-28T16:24:03Z</time>
      </trkpt>
      <trkpt lat="45.46046" lon="0.39532">
        <ele>145.076</ele>
        <time>2019-10-28T16:23:43Z</time>
      </trkpt>
      <trkpt lat="45.46081" lon="0.39549">
        <ele>145.991</ele>
        <time>2019-10-28T16:23:23Z</time>
      </trkpt>
      <trkpt lat="45.46159" lon="0.39532">
        <ele>152.575</ele>
        <time>2019-10-28T16:23:03Z</time>
      </trkpt>
      <trkpt lat="45.46273" lon="0.39467">
        <ele>149.308</ele>
        <time>2019-10-28T16:22:43Z</time>
      </trkpt>
      <trkpt lat="45.46304" lon="0.39381">
        <ele>146.023</ele>
        <time>2019-10-28T16:22:23Z</time>
      </trkpt>
      <trkpt lat="45.46477" lon="0.39109">
        <ele>142.949</ele>
        <time>2019-10-28T16:22:03Z</time>
      </trkpt>
      <trkpt lat="45.46558" lon="0.39053">
        <ele>139.995</ele>
        <time>2019-10-28T16:21:43Z</time>
      </trkpt>
      <trkpt lat="45.46615" lon="0.38961">
        <ele>143.054</ele>
        <time>2019-10-28T16:21:23Z</time>
      </trkpt>
      <trkpt lat="45.46701" lon="0.38729">
        <ele>137.875</ele>
        <time>2019-10-28T16:21:03Z</time>
      </trkpt>
      <trkpt lat="45.46921" lon="0.38366">
        <ele>132.949</ele>
        <time>2019-10-28T16:20:43Z</time>
      </trkpt>
      <trkpt lat="45.46949" lon="0.38353">
        <ele>132.177</ele>
        <time>2019-10-28T16:20:23Z</time>
      </trkpt>
      <trkpt lat="45.46952" lon="0.38233">
        <ele>133.131</ele>
        <time>2019-10-28T16:20:03Z</time>
      </trkpt>
      <trkpt lat="45.46979" lon="0.38178">
        <ele>134.528</ele>
        <time>2019-10-28T16:19:43Z</time>
      </trkpt>
      <trkpt lat="45.47048" lon="0.38115">
        <ele>138.483</ele>
        <time>2019-10-28T16:19:23Z</time>
      </trkpt>
      <trkpt lat="45.47073" lon="0.38053">
        <ele>137.077</ele>
        <time>2019-10-28T16:19:03Z</time>
      </trkpt>
      <trkpt lat="45.47073" lon="0.38006">
        <ele>135.408</ele>
        <time>2019-10-28T16:18:43Z</time>
      </trkpt>
      <trkpt lat="45.47083" lon="0.37969">
        <ele>134.411</ele>
        <time>2019-10-28T16:18:23Z</time>
      </trkpt>
      <trkpt lat="45.4714" lon="0.37899">
        <ele>134.465</ele>
        <time>2019-10-28T16:18:03Z</time>
      </trkpt>
      <trkpt lat="45.47172" lon="0.37839">
        <ele>135.215</ele>
        <time>2019-10-28T16:17:43Z</time>
      </trkpt>
      <trkpt lat="45.47205" lon="0.37903">
        <ele>132.956</ele>
        <time>2019-10-28T16:17:23Z</time>
      </trkpt>
      <trkpt lat="45.47301" lon="0.37982">
        <ele>123.677</ele>
        <time>2019-10-28T16:17:03Z</time>
      </trkpt>
      <trkpt lat="45.47355" lon="0.38006">
        <ele>117.691</ele>
        <time>2019-10-28T16:16:43Z</time>
      </trkpt>
      <trkpt lat="45.4742" lon="0.38066">
        <ele>104.899</ele>
        <time>2019-10-28T16:16:23Z</time>
      </trkpt>
      <trkpt lat="45.47522" lon="0.3812">
        <ele>93.193</ele>
        <time>2019-10-28T16:16:03Z</time>
      </trkpt>
      <trkpt lat="45.47568" lon="0.38154">
        <ele>89.69</ele>
        <time>2019-10-28T16:15:43Z</time>
      </trkpt>
      <trkpt lat="45.47614" lon="0.38169">
        <ele>89.355</ele>
        <time>2019-10-28T16:15:23Z</time>
      </trkpt>
      <trkpt lat="45.47673" lon="0.38167">
        <ele>92.429</ele>
        <time>2019-10-28T16:15:03Z</time>
      </trkpt>
      <trkpt lat="45.47894" lon="0.38053">
        <ele>90.808</ele>
        <time>2019-10-28T16:14:43Z</time>
      </trkpt>
      <trkpt lat="45.4792" lon="0.3809">
        <ele>95.715</ele>
        <time>2019-10-28T16:14:23Z</time>
      </trkpt>
      <trkpt lat="45.48073" lon="0.38087">
        <ele>94.823</ele>
        <time>2019-10-28T16:14:03Z</time>
      </trkpt>
      <trkpt lat="45.48204" lon="0.38014">
        <ele>97.733</ele>
        <time>2019-10-28T16:13:43Z</time>
      </trkpt>
      <trkpt lat="45.48261" lon="0.38002">
        <ele>97.996</ele>
        <time>2019-10-28T16:13:23Z</time>
      </trkpt>
      <trkpt lat="45.48312" lon="0.37954">
        <ele>99.277</ele>
        <time>2019-10-28T16:13:03Z</time>
      </trkpt>
      <trkpt lat="45.48377" lon="0.37952">
        <ele>100.191</ele>
        <time>2019-10-28T16:12:43Z</time>
      </trkpt>
      <trkpt lat="45.4843" lon="0.37892">
        <ele>94.569</ele>
        <time>2019-10-28T16:12:23Z</time>
      </trkpt>
      <trkpt lat="45.48415" lon="0.37821">
        <ele>98.383</ele>
        <time>2019-10-28T16:12:03Z</time>
      </trkpt>
      <trkpt lat="45.48436" lon="0.37761">
        <ele>97.48</ele>
        <time>2019-10-28T16:11:43Z</time>
      </trkpt>
      <trkpt lat="45.485" lon="0.37639">
        <ele>98.095</ele>
        <time>2019-10-28T16:11:23Z</time>
      </trkpt>
      <trkpt lat="45.48505" lon="0.37534">
        <ele>106.089</ele>
        <time>2019-10-28T16:11:03Z</time>
      </trkpt>
      <trkpt lat="45.48512" lon="0.37461">
        <ele>107.808</ele>
        <time>2019-10-28T16:10:43Z</time>
      </trkpt>
      <trkpt lat="45.48571" lon="0.37366">
        <ele>113.01</ele>
        <time>2019-10-28T16:10:23Z</time>
      </trkpt>
      <trkpt lat="45.48624" lon="0.37206">
        <ele>120.355</ele>
        <time>2019-10-28T16:10:03Z</time>
      </trkpt>
      <trkpt lat="45.48845" lon="0.36796">
        <ele>130.834</ele>
        <time>2019-10-28T16:09:43Z</time>
      </trkpt>
      <trkpt lat="45.48873" lon="0.36697">
        <ele>133.475</ele>
        <time>2019-10-28T16:09:23Z</time>
      </trkpt>
      <trkpt lat="45.48899" lon="0.36401">
        <ele>139.586</ele>
        <time>2019-10-28T16:09:03Z</time>
      </trkpt>
      <trkpt lat="45.4886" lon="0.36382">
        <ele>137.99</ele>
        <time>2019-10-28T16:08:43Z</time>
      </trkpt>
      <trkpt lat="45.48809" lon="0.36289">
        <ele>137.378</ele>
        <time>2019-10-28T16:08:23Z</time>
      </trkpt>
      <trkpt lat="45.48807" lon="0.36161">
        <ele>142.262</ele>
        <time>2019-10-28T16:08:03Z</time>
      </trkpt>
      <trkpt lat="45.48777" lon="0.36017">
        <ele>143.459</ele>
        <time>2019-10-28T16:07:43Z</time>
      </trkpt>
      <trkpt lat="45.48738" lon="0.35854">
        <ele>144.114</ele>
        <time>2019-10-28T16:07:23Z</time>
      </trkpt>
      <trkpt lat="45.48704" lon="0.35734">
        <ele>144.748</ele>
        <time>2019-10-28T16:07:03Z</time>
      </trkpt>
      <trkpt lat="45.48728" lon="0.35661">
        <ele>143.008</ele>
        <time>2019-10-28T16:06:43Z</time>
      </trkpt>
      <trkpt lat="45.48755" lon="0.35631">
        <ele>143.72</ele>
        <time>2019-10-28T16:06:23Z</time>
      </trkpt>
      <trkpt lat="45.48801" lon="0.35618">
        <ele>145.8</ele>
        <time>2019-10-28T16:06:03Z</time>
      </trkpt>
      <trkpt lat="45.48801" lon="0.35562">
        <ele>148.029</ele>
        <time>2019-10-28T16:05:43Z</time>
      </trkpt>
      <trkpt lat="45.48779" lon="0.35489">
        <ele>144.349</ele>
        <time>2019-10-28T16:05:23Z</time>
      </trkpt>
      <trkpt lat="45.48776" lon="0.3544">
        <ele>139.41</ele>
        <time>2019-10-28T16:05:03Z</time>
      </trkpt>
      <trkpt lat="45.488" lon="0.35371">
        <ele>140.814</ele>
        <time>2019-10-28T16:04:43Z</time>
      </trkpt>
      <trkpt lat="45.48776" lon="0.35298">
        <ele>134.662</ele>
        <time>2019-10-28T16:04:23Z</time>
      </trkpt>
      <trkpt lat="45.4878" lon="0.35223">
        <ele>133.426</ele>
        <time>2019-10-28T16:04:03Z</time>
      </trkpt>
      <trkpt lat="45.48762" lon="0.35197">
        <ele>132.443</ele>
        <time>2019-10-28T16:03:43Z</time>
      </trkpt>
      <trkpt lat="45.48767" lon="0.35135">
        <ele>131.328</ele>
        <time>2019-10-28T16:03:23Z</time>
      </trkpt>
      <trkpt lat="45.48747" lon="0.35066">
        <ele>131.242</ele>
        <time>2019-10-28T16:03:03Z</time>
      </trkpt>
      <trkpt lat="45.48731" lon="0.34998">
        <ele>134.508</ele>
        <time>2019-10-28T16:02:43Z</time>
      </trkpt>
      <trkpt lat="45.48741" lon="0.34897">
        <ele>141.316</ele>
        <time>2019-10-28T16:02:23Z</time>
      </trkpt>
      <trkpt lat="45.48694" lon="0.34607">
        <ele>146.206</ele>
        <time>2019-10-28T16:02:03Z</time>
      </trkpt>
      <trkpt lat="45.48743" lon="0.34216">
        <ele>155.764</ele>
        <time>2019-10-28T16:01:43Z</time>
      </trkpt>
      <trkpt lat="45.4883" lon="0.33922">
        <ele>163.956</ele>
        <time>2019-10-28T16:01:23Z</time>
      </trkpt>
      <trkpt lat="45.48824" lon="0.33485">
        <ele>150.037</ele>
        <time>2019-10-28T16:01:03Z</time>
      </trkpt>
      <trkpt lat="45.48774" lon="0.33232">
        <ele>163.051</ele>
        <time>2019-10-28T16:00:43Z</time>
      </trkpt>
      <trkpt lat="45.48716" lon="0.33103">
        <ele>158.219</ele>
        <time>2019-10-28T16:00:23Z</time>
      </trkpt>
      <trkpt lat="45.48744" lon="0.32592">
        <ele>154.593</ele>
        <time>2019-10-28T16:00:03Z</time>
      </trkpt>
      <trkpt lat="45.48735" lon="0.32532">
        <ele>152.12</ele>
        <time>2019-10-28T15:59:43Z</time>
      </trkpt>
      <trkpt lat="45.48682" lon="0.3244">
        <ele>145.695</ele>
        <time>2019-10-28T15:59:23Z</time>
      </trkpt>
      <trkpt lat="45.48707" lon="0.32378">
        <ele>146.439</ele>
        <time>2019-10-28T15:59:03Z</time>
      </trkpt>
      <trkpt lat="45.48693" lon="0.32277">
        <ele>140.908</ele>
        <time>2019-10-28T15:58:43Z</time>
      </trkpt>
      <trkpt lat="45.48646" lon="0.32184">
        <ele>142.821</ele>
        <time>2019-10-28T15:58:23Z</time>
      </trkpt>
      <trkpt lat="45.48639" lon="0.32039">
        <ele>152.001</ele>
        <time>2019-10-28T15:58:03Z</time>
      </trkpt>
      <trkpt lat="45.48609" lon="0.31882">
        <ele>157.439</ele>
        <time>2019-10-28T15:57:43Z</time>
      </trkpt>
      <trkpt lat="45.48652" lon="0.31639">
        <ele>155.088</ele>
        <time>2019-10-28T15:57:23Z</time>
      </trkpt>
      <trkpt lat="45.4871" lon="0.31427">
        <ele>145.329</ele>
        <time>2019-10-28T15:57:03Z</time>
      </trkpt>
      <trkpt lat="45.48691" lon="0.31133">
        <ele>133.693</ele>
        <time>2019-10-28T15:56:43Z</time>
      </trkpt>
      <trkpt lat="45.48658" lon="0.30882">
        <ele>123.121</ele>
        <time>2019-10-28T15:56:23Z</time>
      </trkpt>
      <trkpt lat="45.48664" lon="0.30821">
        <ele>121.885</ele>
        <time>2019-10-28T15:56:03Z</time>
      </trkpt>
      <trkpt lat="45.48663" lon="0.30702">
        <ele>120.582</ele>
        <time>2019-10-28T15:55:43Z</time>
      </trkpt>
      <trkpt lat="45.48627" lon="0.3068">
        <ele>118.357</ele>
        <time>2019-10-28T15:55:23Z</time>
      </trkpt>
      <trkpt lat="45.48605" lon="0.30567">
        <ele>112.351</ele>
        <time>2019-10-28T15:55:03Z</time>
      </trkpt>
      <trkpt lat="45.48596" lon="0.30459">
        <ele>107.508</ele>
        <time>2019-10-28T15:54:43Z</time>
      </trkpt>
      <trkpt lat="45.48588" lon="0.30424">
        <ele>106.117</ele>
        <time>2019-10-28T15:54:23Z</time>
      </trkpt>
      <trkpt lat="45.48534" lon="0.3038">
        <ele>104.652</ele>
        <time>2019-10-28T15:54:03Z</time>
      </trkpt>
      <trkpt lat="45.48485" lon="0.30375">
        <ele>101.058</ele>
        <time>2019-10-28T15:53:43Z</time>
      </trkpt>
      <trkpt lat="45.48516" lon="0.30356">
        <ele>101.869</ele>
        <time>2019-10-28T15:53:23Z</time>
      </trkpt>
      <trkpt lat="45.48486" lon="0.30138">
        <ele>106.24</ele>
        <time>2019-10-28T15:53:03Z</time>
      </trkpt>
      <trkpt lat="45.48444" lon="0.30139">
        <ele>111.024</ele>
        <time>2019-10-28T15:52:43Z</time>
      </trkpt>
      <trkpt lat="45.48406" lon="0.3006">
        <ele>113.232</ele>
        <time>2019-10-28T15:52:23Z</time>
      </trkpt>
      <trkpt lat="45.48446" lon="0.29854">
        <ele>121.896</ele>
        <time>2019-10-28T15:52:03Z</time>
      </trkpt>
      <trkpt lat="45.48488" lon="0.2971">
        <ele>124.343</ele>
        <time>2019-10-28T15:51:43Z</time>
      </trkpt>
      <trkpt lat="45.48616" lon="0.29766">
        <ele>128.888</ele>
        <time>2019-10-28T15:51:23Z</time>
      </trkpt>
      <trkpt lat="45.48652" lon="0.29766">
        <ele>127.222</ele>
        <time>2019-10-28T15:51:03Z</time>
      </trkpt>
      <trkpt lat="45.48767" lon="0.29692">
        <ele>127.108</ele>
        <time>2019-10-28T15:50:43Z</time>
      </trkpt>
      <trkpt lat="45.48821" lon="0.29672">
        <ele>128.816</ele>
        <time>2019-10-28T15:50:23Z</time>
      </trkpt>
      <trkpt lat="45.49011" lon="0.29428">
        <ele>123.206</ele>
        <time>2019-10-28T15:50:03Z</time>
      </trkpt>
      <trkpt lat="45.49072" lon="0.2943">
        <ele>121.364</ele>
        <time>2019-10-28T15:49:43Z</time>
      </trkpt>
      <trkpt lat="45.49135" lon="0.29446">
        <ele>119.938</ele>
        <time>2019-10-28T15:49:23Z</time>
      </trkpt>
      <trkpt lat="45.49219" lon="0.29414">
        <ele>118.279</ele>
        <time>2019-10-28T15:49:03Z</time>
      </trkpt>
      <trkpt lat="45.49309" lon="0.29406">
        <ele>121.823</ele>
        <time>2019-10-28T15:48:43Z</time>
      </trkpt>
      <trkpt lat="45.49472" lon="0.29352">
        <ele>123.311</ele>
        <time>2019-10-28T15:48:23Z</time>
      </trkpt>
      <trkpt lat="45.49682" lon="0.2934">
        <ele>109.335</ele>
        <time>2019-10-28T15:48:03Z</time>
      </trkpt>
      <trkpt lat="45.49716" lon="0.29348">
        <ele>107.622</ele>
        <time>2019-10-28T15:47:43Z</time>
      </trkpt>
      <trkpt lat="45.49762" lon="0.29336">
        <ele>105.097</ele>
        <time>2019-10-28T15:47:23Z</time>
      </trkpt>
      <trkpt lat="45.49802" lon="0.29362">
        <ele>105.091</ele>
        <time>2019-10-28T15:47:03Z</time>
      </trkpt>
      <trkpt lat="45.49858" lon="0.29344">
        <ele>105.608</ele>
        <time>2019-10-28T15:46:43Z</time>
      </trkpt>
      <trkpt lat="45.49914" lon="0.29301">
        <ele>107.32</ele>
        <time>2019-10-28T15:46:23Z</time>
      </trkpt>
      <trkpt lat="45.50005" lon="0.2937">
        <ele>112.1</ele>
        <time>2019-10-28T15:46:03Z</time>
      </trkpt>
      <trkpt lat="45.50086" lon="0.29271">
        <ele>110.357</ele>
        <time>2019-10-28T15:45:43Z</time>
      </trkpt>
      <trkpt lat="45.50199" lon="0.29253">
        <ele>112.168</ele>
        <time>2019-10-28T15:45:23Z</time>
      </trkpt>
      <trkpt lat="45.50277" lon="0.29193">
        <ele>109.949</ele>
        <time>2019-10-28T15:45:03Z</time>
      </trkpt>
      <trkpt lat="45.50361" lon="0.29173">
        <ele>113.023</ele>
        <time>2019-10-28T15:44:43Z</time>
      </trkpt>
      <trkpt lat="45.50416" lon="0.29147">
        <ele>116.211</ele>
        <time>2019-10-28T15:44:23Z</time>
      </trkpt>
      <trkpt lat="45.50498" lon="0.29037">
        <ele>110.045</ele>
        <time>2019-10-28T15:44:03Z</time>
      </trkpt>
      <trkpt lat="45.50533" lon="0.29023">
        <ele>108.582</ele>
        <time>2019-10-28T15:43:43Z</time>
      </trkpt>
      <trkpt lat="45.50613" lon="0.29055">
        <ele>109.947</ele>
        <time>2019-10-28T15:43:23Z</time>
      </trkpt>
      <trkpt lat="45.50687" lon="0.29163">
        <ele>114.981</ele>
        <time>2019-10-28T15:43:03Z</time>
      </trkpt>
      <trkpt lat="45.50749" lon="0.29332">
        <ele>114.508</ele>
        <time>2019-10-28T15:42:43Z</time>
      </trkpt>
      <trkpt lat="45.50835" lon="0.29245">
        <ele>112.514</ele>
        <time>2019-10-28T15:42:23Z</time>
      </trkpt>
      <trkpt lat="45.50838" lon="0.29213">
        <ele>114.604</ele>
        <time>2019-10-28T15:42:03Z</time>
      </trkpt>
      <trkpt lat="45.50836" lon="0.29161">
        <ele>118.453</ele>
        <time>2019-10-28T15:41:43Z</time>
      </trkpt>
      <trkpt lat="45.50886" lon="0.29039">
        <ele>128.865</ele>
        <time>2019-10-28T15:41:23Z</time>
      </trkpt>
      <trkpt lat="45.50958" lon="0.2894">
        <ele>132.226</ele>
        <time>2019-10-28T15:41:03Z</time>
      </trkpt>
      <trkpt lat="45.51024" lon="0.28884">
        <ele>133.52</ele>
        <time>2019-10-28T15:40:43Z</time>
      </trkpt>
      <trkpt lat="45.51053" lon="0.28837">
        <ele>138.648</ele>
        <time>2019-10-28T15:40:23Z</time>
      </trkpt>
      <trkpt lat="45.51038" lon="0.2882">
        <ele>139.332</ele>
        <time>2019-10-28T15:40:03Z</time>
      </trkpt>
      <trkpt lat="45.51071" lon="0.2867">
        <ele>140.189</ele>
        <time>2019-10-28T15:39:43Z</time>
      </trkpt>
      <trkpt lat="45.51114" lon="0.28552">
        <ele>140.194</ele>
        <time>2019-10-28T15:39:23Z</time>
      </trkpt>
      <trkpt lat="45.51149" lon="0.28517">
        <ele>143.188</ele>
        <time>2019-10-28T15:39:03Z</time>
      </trkpt>
      <trkpt lat="45.51179" lon="0.28453">
        <ele>146.208</ele>
        <time>2019-10-28T15:38:43Z</time>
      </trkpt>
      <trkpt lat="45.51202" lon="0.28356">
        <ele>145.011</ele>
        <time>2019-10-28T15:38:23Z</time>
      </trkpt>
      <trkpt lat="45.51254" lon="0.28283">
        <ele>148.083</ele>
        <time>2019-10-28T15:38:03Z</time>
      </trkpt>
      <trkpt lat="45.5131" lon="0.2824">
        <ele>150.523</ele>
        <time>2019-10-28T15:37:43Z</time>
      </trkpt>
      <trkpt lat="45.51367" lon="0.28168">
        <ele>152.861</ele>
        <time>2019-10-28T15:37:23Z</time>
      </trkpt>
      <trkpt lat="45.51445" lon="0.28011">
        <ele>150.082</ele>
        <time>2019-10-28T15:37:03Z</time>
      </trkpt>
      <trkpt lat="45.51501" lon="0.27874">
        <ele>151.056</ele>
        <time>2019-10-28T15:36:43Z</time>
      </trkpt>
      <trkpt lat="45.51522" lon="0.27758">
        <ele>151.484</ele>
        <time>2019-10-28T15:36:23Z</time>
      </trkpt>
      <trkpt lat="45.51528" lon="0.27642">
        <ele>153.968</ele>
        <time>2019-10-28T15:36:03Z</time>
      </trkpt>
      <trkpt lat="45.51537" lon="0.27584">
        <ele>157.635</ele>
        <time>2019-10-28T15:35:43Z</time>
      </trkpt>
      <trkpt lat="45.51587" lon="0.27494">
        <ele>161.99</ele>
        <time>2019-10-28T15:35:23Z</time>
      </trkpt>
      <trkpt lat="45.51621" lon="0.27421">
        <ele>161.874</ele>
        <time>2019-10-28T15:35:03Z</time>
      </trkpt>
      <trkpt lat="45.51665" lon="0.2735">
        <ele>159.608</ele>
        <time>2019-10-28T15:34:43Z</time>
      </trkpt>
      <trkpt lat="45.51725" lon="0.27208">
        <ele>160.626</ele>
        <time>2019-10-28T15:34:23Z</time>
      </trkpt>
      <trkpt lat="45.51784" lon="0.26996">
        <ele>161.36</ele>
        <time>2019-10-28T15:34:03Z</time>
      </trkpt>
      <trkpt lat="45.51847" lon="0.26876">
        <ele>156.886</ele>
        <time>2019-10-28T15:33:43Z</time>
      </trkpt>
      <trkpt lat="45.51889" lon="0.26841">
        <ele>157.08</ele>
        <time>2019-10-28T15:33:23Z</time>
      </trkpt>
      <trkpt lat="45.5194" lon="0.26824">
        <ele>157.361</ele>
        <time>2019-10-28T15:33:03Z</time>
      </trkpt>
      <trkpt lat="45.52009" lon="0.26696">
        <ele>166.315</ele>
        <time>2019-10-28T15:32:43Z</time>
      </trkpt>
      <trkpt lat="45.5205" lon="0.26674">
        <ele>167.633</ele>
        <time>2019-10-28T15:32:23Z</time>
      </trkpt>
      <trkpt lat="45.52056" lon="0.26642">
        <ele>167.187</ele>
        <time>2019-10-28T15:32:03Z</time>
      </trkpt>
      <trkpt lat="45.52205" lon="0.2652">
        <ele>175.464</ele>
        <time>2019-10-28T15:31:43Z</time>
      </trkpt>
      <trkpt lat="45.52462" lon="0.26382">
        <ele>197.069</ele>
        <time>2019-10-28T15:31:23Z</time>
      </trkpt>
      <trkpt lat="45.52438" lon="0.26314">
        <ele>202.833</ele>
        <time>2019-10-28T15:31:03Z</time>
      </trkpt>
      <trkpt lat="45.52421" lon="0.26035">
        <ele>202.308</ele>
        <time>2019-10-28T15:30:43Z</time>
      </trkpt>
      <trkpt lat="45.52474" lon="0.25975">
        <ele>201.213</ele>
        <time>2019-10-28T15:30:23Z</time>
      </trkpt>
      <trkpt lat="45.52568" lon="0.2597">
        <ele>201.285</ele>
        <time>2019-10-28T15:30:03Z</time>
      </trkpt>
      <trkpt lat="45.52627" lon="0.25977">
        <ele>202.673</ele>
        <time>2019-10-28T15:29:43Z</time>
      </trkpt>
      <trkpt lat="45.52657" lon="0.26">
        <ele>204.166</ele>
        <time>2019-10-28T15:29:23Z</time>
      </trkpt>
      <trkpt lat="45.5275" lon="0.25975">
        <ele>206.477</ele>
        <time>2019-10-28T15:29:03Z</time>
      </trkpt>
      <trkpt lat="45.52783" lon="0.25878">
        <ele>202.451</ele>
        <time>2019-10-28T15:28:43Z</time>
      </trkpt>
      <trkpt lat="45.5284" lon="0.25784">
        <ele>205.479</ele>
        <time>2019-10-28T15:28:23Z</time>
      </trkpt>
      <trkpt lat="45.52855" lon="0.25719">
        <ele>202.643</ele>
        <time>2019-10-28T15:28:03Z</time>
      </trkpt>
      <trkpt lat="45.52876" lon="0.25668">
        <ele>200.32</ele>
        <time>2019-10-28T15:27:43Z</time>
      </trkpt>
      <trkpt lat="45.52907" lon="0.25655">
        <ele>202.675</ele>
        <time>2019-10-28T15:27:23Z</time>
      </trkpt>
      <trkpt lat="45.52913" lon="0.25502">
        <ele>188.699</ele>
        <time>2019-10-28T15:27:03Z</time>
      </trkpt>
      <trkpt lat="45.52904" lon="0.25378">
        <ele>184.708</ele>
        <time>2019-10-28T15:26:43Z</time>
      </trkpt>
      <trkpt lat="45.52904" lon="0.25281">
        <ele>182.607</ele>
        <time>2019-10-28T15:26:23Z</time>
      </trkpt>
      <trkpt lat="45.5297" lon="0.24844">
        <ele>181.061</ele>
        <time>2019-10-28T15:26:03Z</time>
      </trkpt>
      <trkpt lat="45.52994" lon="0.24773">
        <ele>175.831</ele>
        <time>2019-10-28T15:25:43Z</time>
      </trkpt>
      <trkpt lat="45.52952" lon="0.24741">
        <ele>177.372</ele>
        <time>2019-10-28T15:25:23Z</time>
      </trkpt>
      <trkpt lat="45.52864" lon="0.24728">
        <ele>178.423</ele>
        <time>2019-10-28T15:25:03Z</time>
      </trkpt>
      <trkpt lat="45.52819" lon="0.24644">
        <ele>176.847</ele>
        <time>2019-10-28T15:24:43Z</time>
      </trkpt>
      <trkpt lat="45.52783" lon="0.24614">
        <ele>184.615</ele>
        <time>2019-10-28T15:24:23Z</time>
      </trkpt>
      <trkpt lat="45.52797" lon="0.24601">
        <ele>184.839</ele>
        <time>2019-10-28T15:24:03Z</time>
      </trkpt>
      <trkpt lat="45.52786" lon="0.24565">
        <ele>189.916</ele>
        <time>2019-10-28T15:23:43Z</time>
      </trkpt>
      <trkpt lat="45.52788" lon="0.24447">
        <ele>188.821</ele>
        <time>2019-10-28T15:23:23Z</time>
      </trkpt>
      <trkpt lat="45.52762" lon="0.24342">
        <ele>187.065</ele>
        <time>2019-10-28T15:23:03Z</time>
      </trkpt>
      <trkpt lat="45.5272" lon="0.2426">
        <ele>182.608</ele>
        <time>2019-10-28T15:22:43Z</time>
      </trkpt>
      <trkpt lat="45.52627" lon="0.24125">
        <ele>174.919</ele>
        <time>2019-10-28T15:22:23Z</time>
      </trkpt>
      <trkpt lat="45.52618" lon="0.24061">
        <ele>171.381</ele>
        <time>2019-10-28T15:22:03Z</time>
      </trkpt>
      <trkpt lat="45.52559" lon="0.23906">
        <ele>164.291</ele>
        <time>2019-10-28T15:21:43Z</time>
      </trkpt>
      <trkpt lat="45.52541" lon="0.23818">
        <ele>162.026</ele>
        <time>2019-10-28T15:21:23Z</time>
      </trkpt>
      <trkpt lat="45.5257" lon="0.23649">
        <ele>172.527</ele>
        <time>2019-10-28T15:21:03Z</time>
      </trkpt>
      <trkpt lat="45.52555" lon="0.23462">
        <ele>170.681</ele>
        <time>2019-10-28T15:20:43Z</time>
      </trkpt>
      <trkpt lat="45.52616" lon="0.2299">
        <ele>175.249</ele>
        <time>2019-10-28T15:20:23Z</time>
      </trkpt>
      <trkpt lat="45.52588" lon="0.22973">
        <ele>176.833</ele>
        <time>2019-10-28T15:20:03Z</time>
      </trkpt>
      <trkpt lat="45.52549" lon="0.22979">
        <ele>174.99</ele>
        <time>2019-10-28T15:19:43Z</time>
      </trkpt>
      <trkpt lat="45.52529" lon="0.22893">
        <ele>177.965</ele>
        <time>2019-10-28T15:19:23Z</time>
      </trkpt>
      <trkpt lat="45.52531" lon="0.22827">
        <ele>180.569</ele>
        <time>2019-10-28T15:19:03Z</time>
      </trkpt>
      <trkpt lat="45.52438" lon="0.22677">
        <ele>192.908</ele>
        <time>2019-10-28T15:18:43Z</time>
      </trkpt>
      <trkpt lat="45.52422" lon="0.22591">
        <ele>195.81</ele>
        <time>2019-10-28T15:18:23Z</time>
      </trkpt>
      <trkpt lat="45.5264" lon="0.22368">
        <ele>199.455</ele>
        <time>2019-10-28T15:18:03Z</time>
      </trkpt>
      <trkpt lat="45.52653" lon="0.22099">
        <ele>193.334</ele>
        <time>2019-10-28T15:17:43Z</time>
      </trkpt>
      <trkpt lat="45.52672" lon="0.21968">
        <ele>194.325</ele>
        <time>2019-10-28T15:17:23Z</time>
      </trkpt>
      <trkpt lat="45.52653" lon="0.21876">
        <ele>192.926</ele>
        <time>2019-10-28T15:17:03Z</time>
      </trkpt>
      <trkpt lat="45.52615" lon="0.21795">
        <ele>192.57</ele>
        <time>2019-10-28T15:16:43Z</time>
      </trkpt>
      <trkpt lat="45.52598" lon="0.21694">
        <ele>192.138</ele>
        <time>2019-10-28T15:16:23Z</time>
      </trkpt>
      <trkpt lat="45.52559" lon="0.21606">
        <ele>186.792</ele>
        <time>2019-10-28T15:16:03Z</time>
      </trkpt>
      <trkpt lat="45.52519" lon="0.21434">
        <ele>182.449</ele>
        <time>2019-10-28T15:15:43Z</time>
      </trkpt>
      <trkpt lat="45.52501" lon="0.21327">
        <ele>175.554</ele>
        <time>2019-10-28T15:15:23Z</time>
      </trkpt>
      <trkpt lat="45.52468" lon="0.21213">
        <ele>166.718</ele>
        <time>2019-10-28T15:15:03Z</time>
      </trkpt>
      <trkpt lat="45.52671" lon="0.21078">
        <ele>151.508</ele>
        <time>2019-10-28T15:14:43Z</time>
      </trkpt>
      <trkpt lat="45.52749" lon="0.21099">
        <ele>149.608</ele>
        <time>2019-10-28T15:14:23Z</time>
      </trkpt>
      <trkpt lat="45.52756" lon="0.2125">
        <ele>152.026</ele>
        <time>2019-10-28T15:14:03Z</time>
      </trkpt>
      <trkpt lat="45.52804" lon="0.21258">
        <ele>152.025</ele>
        <time>2019-10-28T15:13:43Z</time>
      </trkpt>
      <trkpt lat="45.52857" lon="0.21245">
        <ele>151.164</ele>
        <time>2019-10-28T15:13:23Z</time>
      </trkpt>
      <trkpt lat="45.52857" lon="0.21222">
        <ele>151.095</ele>
        <time>2019-10-28T15:13:03Z</time>
      </trkpt>
      <trkpt lat="45.52916" lon="0.21213">
        <ele>151.679</ele>
        <time>2019-10-28T15:12:43Z</time>
      </trkpt>
      <trkpt lat="45.5297" lon="0.21217">
        <ele>151.137</ele>
        <time>2019-10-28T15:12:23Z</time>
      </trkpt>
      <trkpt lat="45.53231" lon="0.21308">
        <ele>148.461</ele>
        <time>2019-10-28T15:12:03Z</time>
      </trkpt>
      <trkpt lat="45.53285" lon="0.2135">
        <ele>148.628</ele>
        <time>2019-10-28T15:11:43Z</time>
      </trkpt>
      <trkpt lat="45.53342" lon="0.21426">
        <ele>154.673</ele>
        <time>2019-10-28T15:11:23Z</time>
      </trkpt>
      <trkpt lat="45.5338" lon="0.21464">
        <ele>156.027</ele>
        <time>2019-10-28T15:11:03Z</time>
      </trkpt>
      <trkpt lat="45.53584" lon="0.21619">
        <ele>171.008</ele>
        <time>2020-12-25T13:44:35Z</time>
      </trkpt>
      <trkpt lat="45.53657" lon="0.21624">
        <ele>172.813</ele>
        <time>2020-12-25T13:44:15Z</time>
      </trkpt>
      <trkpt lat="45.53715" lon="0.21641">
        <ele>171.576</ele>
        <time>2020-12-25T13:43:55Z</time>
      </trkpt>
      <trkpt lat="45.5376" lon="0.21647">
        <ele>169.816</ele>
        <time>2020-12-25T13:43:35Z</time>
      </trkpt>
      <trkpt lat="45.53801" lon="0.21617">
        <ele>168.537</ele>
        <time>2019-10-28T15:09:03Z</time>
      </trkpt>
      <trkpt lat="45.5411" lon="0.2122">
        <ele>160.048</ele>
        <time>2019-10-28T15:08:43Z</time>
      </trkpt>
      <trkpt lat="45.54118" lon="0.21177">
        <ele>160.032</ele>
        <time>2019-10-28T15:08:23Z</time>
      </trkpt>
      <trkpt lat="45.54153" lon="0.21164">
        <ele>159.94</ele>
        <time>2019-10-28T15:08:03Z</time>
      </trkpt>
      <trkpt lat="45.54202" lon="0.21162">
        <ele>158.544</ele>
        <time>2019-10-28T15:07:43Z</time>
      </trkpt>
      <trkpt lat="45.54225" lon="0.21119">
        <ele>157.191</ele>
        <time>2019-10-28T15:07:23Z</time>
      </trkpt>
      <trkpt lat="45.54247" lon="0.20968">
        <ele>158.996</ele>
        <time>2019-10-28T15:07:03Z</time>
      </trkpt>
      <trkpt lat="45.54274" lon="0.2085">
        <ele>158.98</ele>
        <time>2019-10-28T15:06:43Z</time>
      </trkpt>
      <trkpt lat="45.5433" lon="0.20758">
        <ele>159.008</ele>
        <time>2019-10-28T15:06:23Z</time>
      </trkpt>
      <trkpt lat="45.54373" lon="0.2072">
        <ele>159.51</ele>
        <time>2019-10-28T15:06:03Z</time>
      </trkpt>
      <trkpt lat="45.54395" lon="0.20687">
        <ele>160.064</ele>
        <time>2019-10-28T15:05:43Z</time>
      </trkpt>
      <trkpt lat="45.54423" lon="0.20597">
        <ele>159.043</ele>
        <time>2019-10-28T15:05:23Z</time>
      </trkpt>
      <trkpt lat="45.54468" lon="0.20522">
        <ele>159.576</ele>
        <time>2019-10-28T15:05:03Z</time>
      </trkpt>
      <trkpt lat="45.545" lon="0.20454">
        <ele>158.737</ele>
        <time>2019-10-28T15:04:43Z</time>
      </trkpt>
      <trkpt lat="45.54536" lon="0.20265">
        <ele>160.341</ele>
        <time>2019-10-28T15:04:23Z</time>
      </trkpt>
      <trkpt lat="45.54554" lon="0.20127">
        <ele>161.959</ele>
        <time>2019-10-28T15:04:03Z</time>
      </trkpt>
      <trkpt lat="45.54615" lon="0.20119">
        <ele>161.053</ele>
        <time>2019-10-28T15:03:43Z</time>
      </trkpt>
      <trkpt lat="45.54665" lon="0.20127">
        <ele>160.03</ele>
        <time>2019-10-28T15:03:23Z</time>
      </trkpt>
      <trkpt lat="45.54718" lon="0.20117">
        <ele>159.055</ele>
        <time>2019-10-28T15:03:03Z</time>
      </trkpt>
      <trkpt lat="45.54784" lon="0.20112">
        <ele>157.899</ele>
        <time>2019-10-28T15:02:43Z</time>
      </trkpt>
      <trkpt lat="45.54842" lon="0.20089">
        <ele>155.408</ele>
        <time>2019-10-28T15:02:23Z</time>
      </trkpt>
      <trkpt lat="45.54884" lon="0.20091">
        <ele>154.307</ele>
        <time>2019-10-28T15:02:03Z</time>
      </trkpt>
      <trkpt lat="45.54939" lon="0.20069">
        <ele>153.661</ele>
        <time>2019-10-28T15:01:43Z</time>
      </trkpt>
      <trkpt lat="45.55017" lon="0.20076">
        <ele>155.331</ele>
        <time>2019-10-28T15:01:23Z</time>
      </trkpt>
      <trkpt lat="45.55048" lon="0.20106">
        <ele>155.215</ele>
        <time>2019-10-28T15:01:03Z</time>
      </trkpt>
      <trkpt lat="45.55141" lon="0.2014">
        <ele>152.826</ele>
        <time>2019-10-28T15:00:43Z</time>
      </trkpt>
      <trkpt lat="45.55183" lon="0.20183">
        <ele>152.44</ele>
        <time>2019-10-28T15:00:23Z</time>
      </trkpt>
      <trkpt lat="45.55221" lon="0.20228">
        <ele>153.798</ele>
        <time>2019-10-28T15:00:03Z</time>
      </trkpt>
      <trkpt lat="45.55322" lon="0.19981">
        <ele>156.752</ele>
        <time>2019-10-28T14:59:43Z</time>
      </trkpt>
      <trkpt lat="45.55397" lon="0.19898">
        <ele>158.079</ele>
        <time>2019-10-28T14:59:23Z</time>
      </trkpt>
      <trkpt lat="45.55446" lon="0.19825">
        <ele>159.814</ele>
        <time>2019-10-28T14:59:03Z</time>
      </trkpt>
      <trkpt lat="45.55491" lon="0.19599">
        <ele>157.978</ele>
        <time>2019-10-28T14:58:43Z</time>
      </trkpt>
      <trkpt lat="45.55529" lon="0.19351">
        <ele>152.008</ele>
        <time>2019-10-28T14:58:23Z</time>
      </trkpt>
      <trkpt lat="45.55538" lon="0.19179">
        <ele>151.72</ele>
        <time>2019-10-28T14:58:03Z</time>
      </trkpt>
      <trkpt lat="45.55586" lon="0.18982">
        <ele>147</ele>
        <time>2019-10-28T14:57:43Z</time>
      </trkpt>
      <trkpt lat="45.55604" lon="0.18851">
        <ele>145.429</ele>
        <time>2019-10-28T14:57:23Z</time>
      </trkpt>
      <trkpt lat="45.5558" lon="0.18449">
        <ele>138.924</ele>
        <time>2019-10-28T14:57:03Z</time>
      </trkpt>
      <trkpt lat="45.55637" lon="0.184">
        <ele>142.375</ele>
        <time>2019-10-28T14:56:43Z</time>
      </trkpt>
      <trkpt lat="45.55703" lon="0.18374">
        <ele>144.849</ele>
        <time>2019-10-28T14:56:23Z</time>
      </trkpt>
      <trkpt lat="45.55768" lon="0.1837">
        <ele>146.887</ele>
        <time>2019-10-28T14:56:03Z</time>
      </trkpt>
      <trkpt lat="45.55855" lon="0.18312">
        <ele>146.781</ele>
        <time>2019-10-28T14:55:43Z</time>
      </trkpt>
      <trkpt lat="45.55995" lon="0.18164">
        <ele>147.238</ele>
        <time>2019-10-28T14:55:23Z</time>
      </trkpt>
      <trkpt lat="45.56288" lon="0.18286">
        <ele>138.193</ele>
        <time>2019-10-28T14:55:03Z</time>
      </trkpt>
      <trkpt lat="45.5636" lon="0.18295">
        <ele>136.657</ele>
        <time>2019-10-28T14:54:43Z</time>
      </trkpt>
      <trkpt lat="45.56414" lon="0.18323">
        <ele>137.108</ele>
        <time>2019-10-28T14:54:23Z</time>
      </trkpt>
      <trkpt lat="45.56441" lon="0.18314">
        <ele>136.407</ele>
        <time>2019-10-28T14:54:03Z</time>
      </trkpt>
      <trkpt lat="45.5647" lon="0.18265">
        <ele>135.643</ele>
        <time>2019-10-28T14:53:43Z</time>
      </trkpt>
      <trkpt lat="45.56507" lon="0.1825">
        <ele>132.813</ele>
        <time>2019-10-28T14:53:23Z</time>
      </trkpt>
      <trkpt lat="45.56549" lon="0.18263">
        <ele>130.947</ele>
        <time>2019-10-28T14:53:03Z</time>
      </trkpt>
      <trkpt lat="45.5657" lon="0.18218">
        <ele>132.748</ele>
        <time>2019-10-28T14:52:43Z</time>
      </trkpt>
      <trkpt lat="45.5665" lon="0.18258">
        <ele>129.732</ele>
        <time>2019-10-28T14:52:23Z</time>
      </trkpt>
      <trkpt lat="45.56729" lon="0.18276">
        <ele>127.38</ele>
        <time>2019-10-28T14:52:03Z</time>
      </trkpt>
      <trkpt lat="45.5679" lon="0.18321">
        <ele>124.454</ele>
        <time>2019-10-28T14:51:43Z</time>
      </trkpt>
      <trkpt lat="45.56859" lon="0.18524">
        <ele>127.061</ele>
        <time>2019-10-28T14:51:23Z</time>
      </trkpt>
      <trkpt lat="45.56904" lon="0.18578">
        <ele>126.376</ele>
        <time>2019-10-28T14:51:03Z</time>
      </trkpt>
      <trkpt lat="45.5695" lon="0.18696">
        <ele>123.24</ele>
        <time>2019-10-28T14:50:43Z</time>
      </trkpt>
      <trkpt lat="45.57013" lon="0.18795">
        <ele>118.408</ele>
        <time>2019-10-28T14:50:23Z</time>
      </trkpt>
      <trkpt lat="45.57073" lon="0.18829">
        <ele>113.714</ele>
        <time>2019-10-28T14:50:03Z</time>
      </trkpt>
      <trkpt lat="45.5715" lon="0.18894">
        <ele>107.422</ele>
        <time>2019-10-28T14:49:43Z</time>
      </trkpt>
      <trkpt lat="45.57177" lon="0.18859">
        <ele>107.342</ele>
        <time>2019-10-28T14:49:23Z</time>
      </trkpt>
      <trkpt lat="45.57209" lon="0.18848">
        <ele>102.545</ele>
        <time>2019-10-28T14:49:03Z</time>
      </trkpt>
      <trkpt lat="45.572" lon="0.18688">
        <ele>99.776</ele>
        <time>2019-10-28T14:48:43Z</time>
      </trkpt>
      <trkpt lat="45.57221" lon="0.18589">
        <ele>98.23</ele>
        <time>2019-10-28T14:48:23Z</time>
      </trkpt>
      <trkpt lat="45.5726" lon="0.18379">
        <ele>103.678</ele>
        <time>2019-10-28T14:48:03Z</time>
      </trkpt>
      <trkpt lat="45.57305" lon="0.18288">
        <ele>109.852</ele>
        <time>2019-10-28T14:47:43Z</time>
      </trkpt>
      <trkpt lat="45.57387" lon="0.18205">
        <ele>111.429</ele>
        <time>2019-10-28T14:47:23Z</time>
      </trkpt>
      <trkpt lat="45.57428" lon="0.18123">
        <ele>110.064</ele>
        <time>2019-10-28T14:47:03Z</time>
      </trkpt>
      <trkpt lat="45.5745" lon="0.18031">
        <ele>109.458</ele>
        <time>2019-10-28T14:46:43Z</time>
      </trkpt>
      <trkpt lat="45.57509" lon="0.17943">
        <ele>110.108</ele>
        <time>2019-10-28T14:46:23Z</time>
      </trkpt>
      <trkpt lat="45.57497" lon="0.17939">
        <ele>111.62</ele>
        <time>2019-10-28T14:46:03Z</time>
      </trkpt>
      <trkpt lat="45.57492" lon="0.17915">
        <ele>113.6</ele>
        <time>2019-10-28T14:45:43Z</time>
      </trkpt>
      <trkpt lat="45.5752" lon="0.17831">
        <ele>117.729</ele>
        <time>2019-10-28T14:45:23Z</time>
      </trkpt>
      <trkpt lat="45.57514" lon="0.17735">
        <ele>121.624</ele>
        <time>2019-10-28T14:45:03Z</time>
      </trkpt>
      <trkpt lat="45.57464" lon="0.17709">
        <ele>127.055</ele>
        <time>2019-10-28T14:44:43Z</time>
      </trkpt>
      <trkpt lat="45.57468" lon="0.17593">
        <ele>121.439</ele>
        <time>2019-10-28T14:44:23Z</time>
      </trkpt>
      <trkpt lat="45.57488" lon="0.17574">
        <ele>120.797</ele>
        <time>2019-10-28T14:44:03Z</time>
      </trkpt>
      <trkpt lat="45.57504" lon="0.17516">
        <ele>116.641</ele>
        <time>2019-10-28T14:43:43Z</time>
      </trkpt>
      <trkpt lat="45.57489" lon="0.1746">
        <ele>116.128</ele>
        <time>2019-10-28T14:43:23Z</time>
      </trkpt>
      <trkpt lat="45.57486" lon="0.17396">
        <ele>117.313</ele>
        <time>2019-10-28T14:43:03Z</time>
      </trkpt>
      <trkpt lat="45.57504" lon="0.17329">
        <ele>118.027</ele>
        <time>2019-10-28T14:42:43Z</time>
      </trkpt>
      <trkpt lat="45.57508" lon="0.17237">
        <ele>120.508</ele>
        <time>2019-10-28T14:42:23Z</time>
      </trkpt>
      <trkpt lat="45.57548" lon="0.17211">
        <ele>116.705</ele>
        <time>2019-10-28T14:42:03Z</time>
      </trkpt>
      <trkpt lat="45.5756" lon="0.1722">
        <ele>115.732</ele>
        <time>2019-10-28T14:41:43Z</time>
      </trkpt>
      <trkpt lat="45.57599" lon="0.17207">
        <ele>112.112</ele>
        <time>2019-10-28T14:41:23Z</time>
      </trkpt>
      <trkpt lat="45.57599" lon="0.17246">
        <ele>109.866</ele>
        <time>2019-10-28T14:41:03Z</time>
      </trkpt>
      <trkpt lat="45.57634" lon="0.17243">
        <ele>102.847</ele>
        <time>2019-10-28T14:40:43Z</time>
      </trkpt>
      <trkpt lat="45.577" lon="0.17271">
        <ele>91.021</ele>
        <time>2019-10-28T14:40:23Z</time>
      </trkpt>
      <trkpt lat="45.57928" lon="0.17331">
        <ele>86.839</ele>
        <time>2019-10-28T14:40:03Z</time>
      </trkpt>
      <trkpt lat="45.57934" lon="0.17263">
        <ele>85.463</ele>
        <time>2019-10-28T14:39:43Z</time>
      </trkpt>
      <trkpt lat="45.57972" lon="0.17196">
        <ele>86.18</ele>
        <time>2019-10-28T14:39:23Z</time>
      </trkpt>
      <trkpt lat="45.58071" lon="0.17123">
        <ele>90.785</ele>
        <time>2019-10-28T14:39:03Z</time>
      </trkpt>
      <trkpt lat="45.5815" lon="0.17001">
        <ele>86.469</ele>
        <time>2019-10-28T14:38:43Z</time>
      </trkpt>
      <trkpt lat="45.58191" lon="0.16907">
        <ele>86.608</ele>
        <time>2019-10-28T14:38:23Z</time>
      </trkpt>
      <trkpt lat="45.58215" lon="0.16973">
        <ele>91.51</ele>
        <time>2019-10-28T14:38:03Z</time>
      </trkpt>
      <trkpt lat="45.58308" lon="0.17014">
        <ele>104.455</ele>
        <time>2019-10-28T14:37:43Z</time>
      </trkpt>
      <trkpt lat="45.58343" lon="0.17048">
        <ele>109.634</ele>
        <time>2019-10-28T14:37:23Z</time>
      </trkpt>
      <trkpt lat="45.58496" lon="0.17117">
        <ele>126.181</ele>
        <time>2019-10-28T14:37:03Z</time>
      </trkpt>
      <trkpt lat="45.58796" lon="0.17288">
        <ele>142.822</ele>
        <time>2019-10-28T14:36:43Z</time>
      </trkpt>
      <trkpt lat="45.58903" lon="0.17293">
        <ele>145.046</ele>
        <time>2019-10-28T14:36:23Z</time>
      </trkpt>
      <trkpt lat="45.58873" lon="0.17475">
        <ele>147.234</ele>
        <time>2019-10-28T14:36:03Z</time>
      </trkpt>
      <trkpt lat="45.58889" lon="0.1755">
        <ele>147.878</ele>
        <time>2019-10-28T14:35:43Z</time>
      </trkpt>
      <trkpt lat="45.58963" lon="0.17705">
        <ele>147.975</ele>
        <time>2019-10-28T14:35:23Z</time>
      </trkpt>
      <trkpt lat="45.59011" lon="0.17765">
        <ele>146.21</ele>
        <time>2019-10-28T14:35:03Z</time>
      </trkpt>
      <trkpt lat="45.59072" lon="0.17812">
        <ele>142.284</ele>
        <time>2019-10-28T14:34:43Z</time>
      </trkpt>
      <trkpt lat="45.5918" lon="0.1772">
        <ele>135.008</ele>
        <time>2019-10-28T14:34:23Z</time>
      </trkpt>
      <trkpt lat="45.59274" lon="0.17849">
        <ele>131.917</ele>
        <time>2019-10-28T14:34:03Z</time>
      </trkpt>
      <trkpt lat="45.59308" lon="0.17879">
        <ele>132.525</ele>
        <time>2019-10-28T14:33:43Z</time>
      </trkpt>
      <trkpt lat="45.59503" lon="0.17919">
        <ele>138.283</ele>
        <time>2019-10-28T14:33:23Z</time>
      </trkpt>
      <trkpt lat="45.59605" lon="0.17866">
        <ele>137.345</ele>
        <time>2019-10-28T14:33:03Z</time>
      </trkpt>
      <trkpt lat="45.59719" lon="0.17825">
        <ele>138.396</ele>
        <time>2019-10-28T14:32:43Z</time>
      </trkpt>
      <trkpt lat="45.59864" lon="0.17767">
        <ele>132.88</ele>
        <time>2019-10-28T14:32:23Z</time>
      </trkpt>
      <trkpt lat="45.60023" lon="0.17666">
        <ele>117.448</ele>
        <time>2019-10-28T14:32:03Z</time>
      </trkpt>
      <trkpt lat="45.60146" lon="0.17726">
        <ele>106.812</ele>
        <time>2019-10-28T14:31:43Z</time>
      </trkpt>
      <trkpt lat="45.602" lon="0.17776">
        <ele>104.289</ele>
        <time>2019-10-28T14:31:23Z</time>
      </trkpt>
      <trkpt lat="45.6024" lon="0.17827">
        <ele>98.034</ele>
        <time>2019-10-28T14:31:03Z</time>
      </trkpt>
      <trkpt lat="45.60269" lon="0.17846">
        <ele>93.758</ele>
        <time>2019-10-28T14:30:43Z</time>
      </trkpt>
      <trkpt lat="45.60352" lon="0.17872">
        <ele>83.008</ele>
        <time>2019-10-28T14:30:23Z</time>
      </trkpt>
      <trkpt lat="45.60383" lon="0.17904">
        <ele>78.411</ele>
        <time>2019-10-28T14:30:03Z</time>
      </trkpt>
      <trkpt lat="45.60436" lon="0.17926">
        <ele>76.247</ele>
        <time>2019-10-28T14:29:43Z</time>
      </trkpt>
      <trkpt lat="45.60479" lon="0.17971">
        <ele>71.726</ele>
        <time>2019-10-28T14:29:23Z</time>
      </trkpt>
      <trkpt lat="45.60547" lon="0.18085">
        <ele>80.249</ele>
        <time>2019-10-28T14:29:03Z</time>
      </trkpt>
      <trkpt lat="45.60583" lon="0.18065">
        <ele>80.31</ele>
        <time>2019-10-28T14:28:43Z</time>
      </trkpt>
      <trkpt lat="45.60682" lon="0.17943">
        <ele>79.474</ele>
        <time>2019-10-28T14:28:23Z</time>
      </trkpt>
      <trkpt lat="45.60751" lon="0.17939">
        <ele>85.112</ele>
        <time>2019-10-28T14:28:03Z</time>
      </trkpt>
      <trkpt lat="45.60814" lon="0.17979">
        <ele>94.066</ele>
        <time>2019-10-28T14:27:43Z</time>
      </trkpt>
      <trkpt lat="45.60854" lon="0.18048">
        <ele>96.273</ele>
        <time>2019-10-28T14:27:23Z</time>
      </trkpt>
      <trkpt lat="45.6089" lon="0.18082">
        <ele>98.168</ele>
        <time>2019-10-28T14:27:03Z</time>
      </trkpt>
      <trkpt lat="45.61011" lon="0.18093">
        <ele>109.352</ele>
        <time>2019-10-28T14:26:43Z</time>
      </trkpt>
      <trkpt lat="45.6106" lon="0.18055">
        <ele>113.208</ele>
        <time>2019-10-28T14:26:23Z</time>
      </trkpt>
      <trkpt lat="45.61171" lon="0.18078">
        <ele>122.724</ele>
        <time>2019-10-28T14:26:03Z</time>
      </trkpt>
      <trkpt lat="45.61254" lon="0.18132">
        <ele>132.204</ele>
        <time>2019-10-28T14:25:43Z</time>
      </trkpt>
      <trkpt lat="45.61303" lon="0.1817">
        <ele>134.869</ele>
        <time>2019-10-28T14:25:23Z</time>
      </trkpt>
      <trkpt lat="45.61338" lon="0.1811">
        <ele>137.145</ele>
        <time>2019-10-28T14:25:03Z</time>
      </trkpt>
      <trkpt lat="45.61443" lon="0.18059">
        <ele>138.276</ele>
        <time>2019-10-28T14:24:43Z</time>
      </trkpt>
      <trkpt lat="45.61503" lon="0.17952">
        <ele>138.85</ele>
        <time>2019-10-28T14:24:23Z</time>
      </trkpt>
      <trkpt lat="45.61638" lon="0.18031">
        <ele>138.188</ele>
        <time>2019-10-28T14:24:03Z</time>
      </trkpt>
      <trkpt lat="45.61693" lon="0.1802">
        <ele>139.452</ele>
        <time>2019-10-28T14:23:43Z</time>
      </trkpt>
      <trkpt lat="45.61794" lon="0.17956">
        <ele>126.279</ele>
        <time>2019-10-28T14:23:23Z</time>
      </trkpt>
      <trkpt lat="45.61815" lon="0.18009">
        <ele>127.154</ele>
        <time>2019-10-28T14:23:03Z</time>
      </trkpt>
      <trkpt lat="45.61869" lon="0.18052">
        <ele>130.088</ele>
        <time>2019-10-28T14:22:43Z</time>
      </trkpt>
      <trkpt lat="45.61907" lon="0.18033">
        <ele>132.008</ele>
        <time>2019-10-28T14:22:23Z</time>
      </trkpt>
      <trkpt lat="45.61968" lon="0.18018">
        <ele>134.611</ele>
        <time>2019-10-28T14:22:03Z</time>
      </trkpt>
      <trkpt lat="45.61992" lon="0.17973">
        <ele>135.447</ele>
        <time>2019-10-28T14:21:43Z</time>
      </trkpt>
      <trkpt lat="45.62073" lon="0.17913">
        <ele>138.326</ele>
        <time>2019-10-28T14:21:23Z</time>
      </trkpt>
      <trkpt lat="45.62111" lon="0.17866">
        <ele>140.165</ele>
        <time>2019-10-28T14:21:03Z</time>
      </trkpt>
      <trkpt lat="45.62157" lon="0.17816">
        <ele>140.356</ele>
        <time>2019-10-28T14:20:43Z</time>
      </trkpt>
      <trkpt lat="45.62187" lon="0.17735">
        <ele>140.07</ele>
        <time>2019-10-28T14:20:23Z</time>
      </trkpt>
      <trkpt lat="45.62325" lon="0.17788">
        <ele>143.878</ele>
        <time>2019-10-28T14:20:03Z</time>
      </trkpt>
      <trkpt lat="45.62387" lon="0.17827">
        <ele>141.942</ele>
        <time>2019-10-28T14:19:43Z</time>
      </trkpt>
      <trkpt lat="45.6242" lon="0.17859">
        <ele>141.089</ele>
        <time>2019-10-28T14:19:23Z</time>
      </trkpt>
      <trkpt lat="45.6248" lon="0.17885">
        <ele>136.994</ele>
        <time>2019-10-28T14:19:03Z</time>
      </trkpt>
      <trkpt lat="45.62523" lon="0.17881">
        <ele>134.678</ele>
        <time>2019-10-28T14:18:43Z</time>
      </trkpt>
      <trkpt lat="45.6254" lon="0.17934">
        <ele>129.408</ele>
        <time>2019-10-28T14:18:23Z</time>
      </trkpt>
      <trkpt lat="45.62493" lon="0.18211">
        <ele>121.711</ele>
        <time>2019-10-28T14:18:03Z</time>
      </trkpt>
      <trkpt lat="45.62412" lon="0.18668">
        <ele>115.347</ele>
        <time>2019-10-28T14:17:43Z</time>
      </trkpt>
      <trkpt lat="45.6236" lon="0.18891">
        <ele>122.326</ele>
        <time>2019-10-28T14:17:23Z</time>
      </trkpt>
      <trkpt lat="45.62348" lon="0.18977">
        <ele>124.455</ele>
        <time>2019-10-28T14:17:03Z</time>
      </trkpt>
      <trkpt lat="45.6225" lon="0.19102">
        <ele>129.336</ele>
        <time>2019-10-28T14:16:43Z</time>
      </trkpt>
      <trkpt lat="45.62133" lon="0.1919">
        <ele>129.05</ele>
        <time>2019-10-28T14:16:23Z</time>
      </trkpt>
      <trkpt lat="45.62076" lon="0.19218">
        <ele>133.918</ele>
        <time>2019-10-28T14:16:03Z</time>
      </trkpt>
      <trkpt lat="45.62036" lon="0.1928">
        <ele>135.782</ele>
        <time>2019-10-28T14:15:43Z</time>
      </trkpt>
      <trkpt lat="45.61997" lon="0.19374">
        <ele>137.129</ele>
        <time>2019-10-28T14:15:23Z</time>
      </trkpt>
      <trkpt lat="45.61971" lon="0.19439">
        <ele>135.064</ele>
        <time>2019-10-28T14:15:03Z</time>
      </trkpt>
      <trkpt lat="45.61853" lon="0.19516">
        <ele>133.638</ele>
        <time>2019-10-28T14:14:43Z</time>
      </trkpt>
      <trkpt lat="45.61808" lon="0.19516">
        <ele>132.908</ele>
        <time>2019-10-28T14:14:23Z</time>
      </trkpt>
      <trkpt lat="45.61784" lon="0.19527">
        <ele>132.814</ele>
        <time>2019-10-28T14:14:03Z</time>
      </trkpt>
      <trkpt lat="45.6169" lon="0.1963">
        <ele>136.268</ele>
        <time>2019-10-28T14:13:43Z</time>
      </trkpt>
      <trkpt lat="45.61635" lon="0.19679">
        <ele>137.827</ele>
        <time>2019-10-28T14:13:23Z</time>
      </trkpt>
      <trkpt lat="45.61582" lon="0.19733">
        <ele>139.364</ele>
        <time>2019-10-28T14:13:03Z</time>
      </trkpt>
      <trkpt lat="45.61479" lon="0.19951">
        <ele>136.965</ele>
        <time>2019-10-28T14:12:43Z</time>
      </trkpt>
      <trkpt lat="45.61425" lon="0.20127">
        <ele>138.089</ele>
        <time>2019-10-28T14:12:23Z</time>
      </trkpt>
      <trkpt lat="45.61231" lon="0.20574">
        <ele>139.327</ele>
        <time>2019-10-28T14:12:03Z</time>
      </trkpt>
      <trkpt lat="45.61185" lon="0.20634">
        <ele>141.271</ele>
        <time>2019-10-28T14:11:43Z</time>
      </trkpt>
      <trkpt lat="45.61107" lon="0.20855">
        <ele>145.848</ele>
        <time>2019-10-28T14:11:23Z</time>
      </trkpt>
      <trkpt lat="45.61048" lon="0.20917">
        <ele>144.753</ele>
        <time>2019-10-28T14:11:03Z</time>
      </trkpt>
      <trkpt lat="45.61356" lon="0.21333">
        <ele>134.257</ele>
        <time>2019-10-28T14:10:43Z</time>
      </trkpt>
      <trkpt lat="45.61584" lon="0.21546">
        <ele>119.308</ele>
        <time>2019-10-28T14:10:23Z</time>
      </trkpt>
      <trkpt lat="45.61525" lon="0.21689">
        <ele>120.207</ele>
        <time>2019-10-28T14:10:03Z</time>
      </trkpt>
      <trkpt lat="45.61431" lon="0.21835">
        <ele>121.443</ele>
        <time>2019-10-28T14:09:43Z</time>
      </trkpt>
      <trkpt lat="45.61332" lon="0.2202">
        <ele>124.413</ele>
        <time>2019-10-28T14:09:23Z</time>
      </trkpt>
      <trkpt lat="45.61314" lon="0.22082">
        <ele>123.741</ele>
        <time>2019-10-28T14:09:03Z</time>
      </trkpt>
      <trkpt lat="45.61317" lon="0.22211">
        <ele>127.592</ele>
        <time>2019-10-28T14:08:43Z</time>
      </trkpt>
      <trkpt lat="45.61375" lon="0.22307">
        <ele>123.026</ele>
        <time>2019-10-28T14:08:23Z</time>
      </trkpt>
      <trkpt lat="45.6148" lon="0.22423">
        <ele>125.354</ele>
        <time>2019-10-28T14:08:03Z</time>
      </trkpt>
      <trkpt lat="45.61494" lon="0.22483">
        <ele>121.438</ele>
        <time>2019-10-28T14:07:43Z</time>
      </trkpt>
      <trkpt lat="45.61453" lon="0.22606">
        <ele>121.995</ele>
        <time>2019-10-28T14:07:23Z</time>
      </trkpt>
      <trkpt lat="45.61405" lon="0.22707">
        <ele>120.31</ele>
        <time>2019-10-28T14:07:03Z</time>
      </trkpt>
      <trkpt lat="45.6136" lon="0.22754">
        <ele>115.184</ele>
        <time>2019-10-28T14:06:43Z</time>
      </trkpt>
      <trkpt lat="45.61363" lon="0.22893">
        <ele>119.708</ele>
        <time>2019-10-28T14:06:23Z</time>
      </trkpt>
      <trkpt lat="45.61206" lon="0.23273">
        <ele>126.826</ele>
        <time>2019-10-28T14:06:03Z</time>
      </trkpt>
      <trkpt lat="45.61161" lon="0.234">
        <ele>131.306</ele>
        <time>2019-10-28T14:05:43Z</time>
      </trkpt>
      <trkpt lat="45.61102" lon="0.23464">
        <ele>132.489</ele>
        <time>2019-10-28T14:05:23Z</time>
      </trkpt>
      <trkpt lat="45.61069" lon="0.23488">
        <ele>132.789</ele>
        <time>2019-10-28T14:05:03Z</time>
      </trkpt>
      <trkpt lat="45.61032" lon="0.23539">
        <ele>131.16</ele>
        <time>2019-10-28T14:04:43Z</time>
      </trkpt>
      <trkpt lat="45.60984" lon="0.23558">
        <ele>131.684</ele>
        <time>2019-10-28T14:04:23Z</time>
      </trkpt>
      <trkpt lat="45.60847" lon="0.23706">
        <ele>141.632</ele>
        <time>2019-10-28T14:04:03Z</time>
      </trkpt>
      <trkpt lat="45.60769" lon="0.23835">
        <ele>150.046</ele>
        <time>2019-10-28T14:03:43Z</time>
      </trkpt>
      <trkpt lat="45.60859" lon="0.23981">
        <ele>146.523</ele>
        <time>2019-10-28T14:03:23Z</time>
      </trkpt>
      <trkpt lat="45.60875" lon="0.24026">
        <ele>145.018</ele>
        <time>2019-10-28T14:03:03Z</time>
      </trkpt>
      <trkpt lat="45.60845" lon="0.24065">
        <ele>147.022</ele>
        <time>2019-10-28T14:02:43Z</time>
      </trkpt>
      <trkpt lat="45.60853" lon="0.24146">
        <ele>145.208</ele>
        <time>2019-10-28T14:02:23Z</time>
      </trkpt>
      <trkpt lat="45.60893" lon="0.24136">
        <ele>144.921</ele>
        <time>2019-10-28T14:02:03Z</time>
      </trkpt>
      <trkpt lat="45.60943" lon="0.24144">
        <ele>145.229</ele>
        <time>2019-10-28T14:01:43Z</time>
      </trkpt>
      <trkpt lat="45.6103" lon="0.24204">
        <ele>142.466</ele>
        <time>2019-10-28T14:01:23Z</time>
      </trkpt>
      <trkpt lat="45.61086" lon="0.24286">
        <ele>138.24</ele>
        <time>2019-10-28T14:01:03Z</time>
      </trkpt>
      <trkpt lat="45.61147" lon="0.24309">
        <ele>136.491</ele>
        <time>2019-10-28T14:00:43Z</time>
      </trkpt>
      <trkpt lat="45.61237" lon="0.2435">
        <ele>137.525</ele>
        <time>2019-10-28T14:00:23Z</time>
      </trkpt>
      <trkpt lat="45.61278" lon="0.24406">
        <ele>138.613</ele>
        <time>2019-10-28T14:00:03Z</time>
      </trkpt>
      <trkpt lat="45.61275" lon="0.245">
        <ele>137.677</ele>
        <time>2019-10-28T13:59:43Z</time>
      </trkpt>
      <trkpt lat="45.61242" lon="0.2455">
        <ele>131.644</ele>
        <time>2019-10-28T13:59:23Z</time>
      </trkpt>
      <trkpt lat="45.61216" lon="0.2461">
        <ele>127.869</ele>
        <time>2019-10-28T13:59:03Z</time>
      </trkpt>
      <trkpt lat="45.61209" lon="0.24661">
        <ele>126.783</ele>
        <time>2019-10-28T13:58:43Z</time>
      </trkpt>
      <trkpt lat="45.61231" lon="0.24756">
        <ele>124.508</ele>
        <time>2019-10-28T13:58:23Z</time>
      </trkpt>
      <trkpt lat="45.61228" lon="0.24839">
        <ele>116.227</ele>
        <time>2019-10-28T13:58:03Z</time>
      </trkpt>
      <trkpt lat="45.61297" lon="0.24869">
        <ele>114.661</ele>
        <time>2019-10-28T13:57:43Z</time>
      </trkpt>
      <trkpt lat="45.61357" lon="0.24882">
        <ele>116.477</ele>
        <time>2019-10-28T13:57:23Z</time>
      </trkpt>
      <trkpt lat="45.61425" lon="0.24869">
        <ele>113.364</ele>
        <time>2019-10-28T13:57:03Z</time>
      </trkpt>
      <trkpt lat="45.61485" lon="0.24831">
        <ele>111.735</ele>
        <time>2019-10-28T13:56:43Z</time>
      </trkpt>
      <trkpt lat="45.61567" lon="0.24728">
        <ele>108.579</ele>
        <time>2019-10-28T13:56:23Z</time>
      </trkpt>
      <trkpt lat="45.61641" lon="0.24599">
        <ele>112.747</ele>
        <time>2019-10-28T13:56:03Z</time>
      </trkpt>
      <trkpt lat="45.61656" lon="0.24603">
        <ele>107.861</ele>
        <time>2019-10-28T13:55:43Z</time>
      </trkpt>
      <trkpt lat="45.61669" lon="0.24651">
        <ele>100.478</ele>
        <time>2019-10-28T13:55:23Z</time>
      </trkpt>
      <trkpt lat="45.61741" lon="0.24719">
        <ele>99.933</ele>
        <time>2019-10-28T13:55:03Z</time>
      </trkpt>
      <trkpt lat="45.6177" lon="0.24711">
        <ele>100.387</ele>
        <time>2019-10-28T13:54:43Z</time>
      </trkpt>
      <trkpt lat="45.61811" lon="0.24739">
        <ele>104.708</ele>
        <time>2019-10-28T13:54:23Z</time>
      </trkpt>
      <trkpt lat="45.61844" lon="0.24797">
        <ele>110.605</ele>
        <time>2019-10-28T13:54:03Z</time>
      </trkpt>
      <trkpt lat="45.61898" lon="0.24644">
        <ele>103.232</ele>
        <time>2019-10-28T13:53:43Z</time>
      </trkpt>
      <trkpt lat="45.61896" lon="0.24603">
        <ele>103.612</ele>
        <time>2019-10-28T13:53:23Z</time>
      </trkpt>
      <trkpt lat="45.61902" lon="0.24561">
        <ele>105.835</ele>
        <time>2019-10-28T13:53:03Z</time>
      </trkpt>
      <trkpt lat="45.6192" lon="0.24515">
        <ele>107.496</ele>
        <time>2019-10-28T13:52:43Z</time>
      </trkpt>
      <trkpt lat="45.61959" lon="0.24625">
        <ele>115.99</ele>
        <time>2019-10-28T13:52:23Z</time>
      </trkpt>
      <trkpt lat="45.62007" lon="0.24691">
        <ele>122.768</ele>
        <time>2019-10-28T13:52:03Z</time>
      </trkpt>
      <trkpt lat="45.62082" lon="0.2482">
        <ele>124.542</ele>
        <time>2019-10-28T13:51:43Z</time>
      </trkpt>
      <trkpt lat="45.62115" lon="0.24782">
        <ele>127.179</ele>
        <time>2019-10-28T13:51:23Z</time>
      </trkpt>
      <trkpt lat="45.62201" lon="0.24747">
        <ele>133.324</ele>
        <time>2019-10-28T13:51:03Z</time>
      </trkpt>
      <trkpt lat="45.6224" lon="0.24715">
        <ele>135.968</ele>
        <time>2019-10-28T13:50:43Z</time>
      </trkpt>
      <trkpt lat="45.62232" lon="0.24629">
        <ele>136.708</ele>
        <time>2019-10-28T13:50:23Z</time>
      </trkpt>
      <trkpt lat="45.62316" lon="0.24421">
        <ele>144.92</ele>
        <time>2019-10-28T13:50:03Z</time>
      </trkpt>
      <trkpt lat="45.62381" lon="0.24316">
        <ele>147.6</ele>
        <time>2019-10-28T13:49:43Z</time>
      </trkpt>
      <trkpt lat="45.62429" lon="0.24286">
        <ele>149.629</ele>
        <time>2019-10-28T13:49:23Z</time>
      </trkpt>
      <trkpt lat="45.62501" lon="0.24316">
        <ele>154.416</ele>
        <time>2019-10-28T13:49:03Z</time>
      </trkpt>
      <trkpt lat="45.62544" lon="0.24363">
        <ele>155.537</ele>
        <time>2019-10-28T13:48:43Z</time>
      </trkpt>
      <trkpt lat="45.62553" lon="0.24427">
        <ele>155.781</ele>
        <time>2019-10-28T13:48:23Z</time>
      </trkpt>
      <trkpt lat="45.62577" lon="0.24475">
        <ele>154.939</ele>
        <time>2019-10-28T13:48:03Z</time>
      </trkpt>
      <trkpt lat="45.62618" lon="0.24498">
        <ele>151.113</ele>
        <time>2019-10-28T13:47:43Z</time>
      </trkpt>
      <trkpt lat="45.62696" lon="0.24526">
        <ele>144.11</ele>
        <time>2019-10-28T13:47:23Z</time>
      </trkpt>
      <trkpt lat="45.62799" lon="0.24653">
        <ele>141.145</ele>
        <time>2019-10-28T13:47:03Z</time>
      </trkpt>
      <trkpt lat="45.62885" lon="0.2461">
        <ele>139.069</ele>
        <time>2019-10-28T13:46:43Z</time>
      </trkpt>
      <trkpt lat="45.62981" lon="0.24606">
        <ele>134.208</ele>
        <time>2019-10-28T13:46:23Z</time>
      </trkpt>
      <trkpt lat="45.63067" lon="0.24593">
        <ele>130.914</ele>
        <time>2019-10-28T13:46:03Z</time>
      </trkpt>
      <trkpt lat="45.6313" lon="0.24541">
        <ele>125.686</ele>
        <time>2019-10-28T13:45:43Z</time>
      </trkpt>
      <trkpt lat="45.63197" lon="0.24524">
        <ele>121.635</ele>
        <time>2019-10-28T13:45:23Z</time>
      </trkpt>
      <trkpt lat="45.63266" lon="0.24526">
        <ele>118.096</ele>
        <time>2019-10-28T13:45:03Z</time>
      </trkpt>
      <trkpt lat="45.63325" lon="0.24511">
        <ele>116.037</ele>
        <time>2019-10-28T13:44:43Z</time>
      </trkpt>
      <trkpt lat="45.63346" lon="0.24479">
        <ele>116.741</ele>
        <time>2019-10-28T13:44:23Z</time>
      </trkpt>
      <trkpt lat="45.63415" lon="0.24473">
        <ele>119.029</ele>
        <time>2019-10-28T13:44:03Z</time>
      </trkpt>
      <trkpt lat="45.63433" lon="0.24455">
        <ele>122.483</ele>
        <time>2019-10-28T13:43:43Z</time>
      </trkpt>
      <trkpt lat="45.63559" lon="0.24427">
        <ele>128.27</ele>
        <time>2019-10-28T13:43:23Z</time>
      </trkpt>
      <trkpt lat="45.63623" lon="0.24464">
        <ele>128.295</ele>
        <time>2019-10-28T13:43:03Z</time>
      </trkpt>
      <trkpt lat="45.63664" lon="0.24423">
        <ele>132.569</ele>
        <time>2019-10-28T13:42:43Z</time>
      </trkpt>
      <trkpt lat="45.63712" lon="0.24333">
        <ele>133.008</ele>
        <time>2019-10-28T13:42:23Z</time>
      </trkpt>
      <trkpt lat="45.63748" lon="0.24312">
        <ele>133.917</ele>
        <time>2019-10-28T13:42:03Z</time>
      </trkpt>
      <trkpt lat="45.63777" lon="0.24306">
        <ele>135.07</ele>
        <time>2019-10-28T13:41:43Z</time>
      </trkpt>
      <trkpt lat="45.63854" lon="0.24428">
        <ele>135.438</ele>
        <time>2019-10-28T13:41:23Z</time>
      </trkpt>
      <trkpt lat="45.63919" lon="0.24629">
        <ele>123.611</ele>
        <time>2019-10-28T13:41:03Z</time>
      </trkpt>
      <trkpt lat="45.63953" lon="0.24659">
        <ele>120.872</ele>
        <time>2019-10-28T13:40:43Z</time>
      </trkpt>
      <trkpt lat="45.64002" lon="0.24645">
        <ele>118.216</ele>
        <time>2019-10-28T13:40:23Z</time>
      </trkpt>
      <trkpt lat="45.63988" lon="0.24753">
        <ele>106.274</ele>
        <time>2019-10-28T13:40:03Z</time>
      </trkpt>
      <trkpt lat="45.64024" lon="0.24877">
        <ele>91.218</ele>
        <time>2019-10-28T13:39:43Z</time>
      </trkpt>
      <trkpt lat="45.64015" lon="0.24945">
        <ele>85.475</ele>
        <time>2019-10-28T13:39:23Z</time>
      </trkpt>
      <trkpt lat="45.64087" lon="0.24995">
        <ele>82.51</ele>
        <time>2019-10-28T13:39:03Z</time>
      </trkpt>
      <trkpt lat="45.64121" lon="0.24977">
        <ele>86.274</ele>
        <time>2019-10-28T13:38:43Z</time>
      </trkpt>
      <trkpt lat="45.64258" lon="0.25125">
        <ele>85.308</ele>
        <time>2019-10-28T13:38:23Z</time>
      </trkpt>
      <trkpt lat="45.64297" lon="0.25321">
        <ele>79.726</ele>
        <time>2019-10-28T13:38:03Z</time>
      </trkpt>
      <trkpt lat="45.64409" lon="0.25281">
        <ele>87.624</ele>
        <time>2019-10-28T13:37:43Z</time>
      </trkpt>
      <trkpt lat="45.64559" lon="0.25171">
        <ele>90.988</ele>
        <time>2019-10-28T13:37:23Z</time>
      </trkpt>
      <trkpt lat="45.64619" lon="0.25147">
        <ele>89.362</ele>
        <time>2019-10-28T13:37:03Z</time>
      </trkpt>
      <trkpt lat="45.64768" lon="0.25127">
        <ele>94.083</ele>
        <time>2019-10-28T13:36:43Z</time>
      </trkpt>
      <trkpt lat="45.64958" lon="0.25065">
        <ele>91.997</ele>
        <time>2019-10-28T13:36:23Z</time>
      </trkpt>
      <trkpt lat="45.65034" lon="0.25079">
        <ele>92.865</ele>
        <time>2019-10-28T13:36:03Z</time>
      </trkpt>
      <trkpt lat="45.65225" lon="0.25067">
        <ele>84.829</ele>
        <time>2019-10-28T13:35:43Z</time>
      </trkpt>
      <trkpt lat="45.65306" lon="0.25099">
        <ele>79.446</ele>
        <time>2019-10-28T13:35:23Z</time>
      </trkpt>
      <trkpt lat="45.65393" lon="0.25191">
        <ele>70.391</ele>
        <time>2019-10-28T13:35:03Z</time>
      </trkpt>
      <trkpt lat="45.65423" lon="0.25205">
        <ele>66.885</ele>
        <time>2019-10-28T13:34:43Z</time>
      </trkpt>
      <trkpt lat="45.65498" lon="0.25213">
        <ele>59.308</ele>
        <time>2019-10-28T13:34:23Z</time>
      </trkpt>
      <trkpt lat="45.65616" lon="0.25321">
        <ele>55.822</ele>
        <time>2019-10-28T13:34:03Z</time>
      </trkpt>
      <trkpt lat="45.65893" lon="0.25464">
        <ele>46.457</ele>
        <time>2019-10-28T13:33:43Z</time>
      </trkpt>
      <trkpt lat="45.65924" lon="0.25449">
        <ele>47.294</ele>
        <time>2019-10-28T13:33:23Z</time>
      </trkpt>
      <trkpt lat="45.65946" lon="0.25399">
        <ele>48.622</ele>
        <time>2019-10-28T13:33:03Z</time>
      </trkpt>
      <trkpt lat="45.66075" lon="0.2582">
        <ele>54.083</ele>
        <time>2019-10-28T13:32:43Z</time>
      </trkpt>
      <trkpt lat="45.66069" lon="0.25864">
        <ele>55.797</ele>
        <time>2019-10-28T13:32:23Z</time>
      </trkpt>
      <trkpt lat="45.6608" lon="0.25902">
        <ele>58.825</ele>
        <time>2019-10-28T13:32:03Z</time>
      </trkpt>
      <trkpt lat="45.6608" lon="0.25958">
        <ele>60.929</ele>
        <time>2019-10-28T13:31:43Z</time>
      </trkpt>
      <trkpt lat="45.66038" lon="0.25996">
        <ele>60.996</ele>
        <time>2019-10-28T13:31:23Z</time>
      </trkpt>
      <trkpt lat="45.65985" lon="0.26076">
        <ele>59.731</ele>
        <time>2019-10-28T13:31:03Z</time>
      </trkpt>
      <trkpt lat="45.65967" lon="0.2615">
        <ele>58.815</ele>
        <time>2019-10-28T13:30:43Z</time>
      </trkpt>
      <trkpt lat="45.6602" lon="0.26206">
        <ele>60.808</ele>
        <time>2019-10-28T13:30:23Z</time>
      </trkpt>
      <trkpt lat="45.66009" lon="0.2624">
        <ele>61.02</ele>
        <time>2019-10-28T13:30:03Z</time>
      </trkpt>
      <trkpt lat="45.66043" lon="0.2627">
        <ele>61.973</ele>
        <time>2019-10-28T13:29:43Z</time>
      </trkpt>
      <trkpt lat="45.66068" lon="0.26318">
        <ele>64.992</ele>
        <time>2019-10-28T13:29:23Z</time>
      </trkpt>
      <trkpt lat="45.6609" lon="0.26465">
        <ele>72.552</ele>
        <time>2019-10-28T13:29:03Z</time>
      </trkpt>
      <trkpt lat="45.66076" lon="0.26649">
        <ele>75.663</ele>
        <time>2019-10-28T13:28:43Z</time>
      </trkpt>
      <trkpt lat="45.66086" lon="0.26711">
        <ele>78.387</ele>
        <time>2019-10-28T13:28:23Z</time>
      </trkpt>
      <trkpt lat="45.66062" lon="0.26749">
        <ele>80.295</ele>
        <time>2019-10-28T13:28:03Z</time>
      </trkpt>
      <trkpt lat="45.6602" lon="0.26905">
        <ele>85.189</ele>
        <time>2019-10-28T13:27:43Z</time>
      </trkpt>
      <trkpt lat="45.65981" lon="0.26945">
        <ele>86.056</ele>
        <time>2019-10-28T13:27:23Z</time>
      </trkpt>
      <trkpt lat="45.65943" lon="0.27033">
        <ele>89.481</ele>
        <time>2019-10-28T13:27:03Z</time>
      </trkpt>
      <trkpt lat="45.65952" lon="0.27113">
        <ele>93.325</ele>
        <time>2019-10-28T13:26:43Z</time>
      </trkpt>
      <trkpt lat="45.65954" lon="0.27215">
        <ele>95.708</ele>
        <time>2019-10-28T13:26:23Z</time>
      </trkpt>
      <trkpt lat="45.66034" lon="0.27365">
        <ele>102.722</ele>
        <time>2019-10-28T13:26:03Z</time>
      </trkpt>
      <trkpt lat="45.66061" lon="0.27456">
        <ele>107.857</ele>
        <time>2019-10-28T13:25:43Z</time>
      </trkpt>
      <trkpt lat="45.66093" lon="0.2753">
        <ele>111.594</ele>
        <time>2019-10-28T13:25:23Z</time>
      </trkpt>
      <trkpt lat="45.66104" lon="0.27602">
        <ele>118.467</ele>
        <time>2019-10-28T13:25:03Z</time>
      </trkpt>
      <trkpt lat="45.66087" lon="0.27674">
        <ele>128.058</ele>
        <time>2019-10-28T13:24:43Z</time>
      </trkpt>
      <trkpt lat="45.66094" lon="0.2775">
        <ele>134.662</ele>
        <time>2019-10-28T13:24:23Z</time>
      </trkpt>
      <trkpt lat="45.66069" lon="0.27822">
        <ele>139.66</ele>
        <time>2019-10-28T13:24:03Z</time>
      </trkpt>
      <trkpt lat="45.66107" lon="0.27964">
        <ele>144.324</ele>
        <time>2019-10-28T13:23:43Z</time>
      </trkpt>
      <trkpt lat="45.66034" lon="0.28058">
        <ele>145.711</ele>
        <time>2019-10-28T13:23:23Z</time>
      </trkpt>
      <trkpt lat="45.66157" lon="0.2816">
        <ele>142.096</ele>
        <time>2019-10-28T13:23:03Z</time>
      </trkpt>
      <trkpt lat="45.66279" lon="0.2831">
        <ele>140.88</ele>
        <time>2019-10-28T13:22:43Z</time>
      </trkpt>
      <trkpt lat="45.66517" lon="0.28086">
        <ele>157.208</ele>
        <time>2019-10-28T13:22:23Z</time>
      </trkpt>
      <trkpt lat="45.66844" lon="0.28022">
        <ele>164.311</ele>
        <time>2019-10-28T13:22:03Z</time>
      </trkpt>
      <trkpt lat="45.66792" lon="0.28485">
        <ele>160.047</ele>
        <time>2019-10-28T13:21:43Z</time>
      </trkpt>
      <trkpt lat="45.6691" lon="0.28467">
        <ele>158.245</ele>
        <time>2019-10-28T13:21:23Z</time>
      </trkpt>
      <trkpt lat="45.66937" lon="0.28637">
        <ele>157.389</ele>
        <time>2019-10-28T13:21:03Z</time>
      </trkpt>
      <trkpt lat="45.67012" lon="0.28991">
        <ele>149.05</ele>
        <time>2019-10-28T13:20:43Z</time>
      </trkpt>
      <trkpt lat="45.67078" lon="0.29181">
        <ele>135.844</ele>
        <time>2019-10-28T13:20:23Z</time>
      </trkpt>
      <trkpt lat="45.67086" lon="0.29251">
        <ele>133.692</ele>
        <time>2019-10-28T13:20:03Z</time>
      </trkpt>
      <trkpt lat="45.67104" lon="0.29324">
        <ele>127.266</ele>
        <time>2019-10-28T13:19:43Z</time>
      </trkpt>
      <trkpt lat="45.67047" lon="0.29366">
        <ele>133.463</ele>
        <time>2019-10-28T13:19:23Z</time>
      </trkpt>
      <trkpt lat="45.6709" lon="0.29446">
        <ele>131.038</ele>
        <time>2019-10-28T13:19:03Z</time>
      </trkpt>
      <trkpt lat="45.67088" lon="0.2952">
        <ele>128.252</ele>
        <time>2019-10-28T13:18:43Z</time>
      </trkpt>
      <trkpt lat="45.6704" lon="0.29678">
        <ele>125.308</ele>
        <time>2019-10-28T13:18:23Z</time>
      </trkpt>
      <trkpt lat="45.66918" lon="0.29894">
        <ele>130.016</ele>
        <time>2019-10-28T13:18:03Z</time>
      </trkpt>
      <trkpt lat="45.6696" lon="0.29916">
        <ele>130.406</ele>
        <time>2019-10-28T13:17:43Z</time>
      </trkpt>
      <trkpt lat="45.66945" lon="0.30006">
        <ele>132.064</ele>
        <time>2019-10-28T13:17:23Z</time>
      </trkpt>
      <trkpt lat="45.66914" lon="0.3007">
        <ele>131.437</ele>
        <time>2019-10-28T13:17:03Z</time>
      </trkpt>
      <trkpt lat="45.66896" lon="0.30152">
        <ele>130.088</ele>
        <time>2019-10-28T13:16:43Z</time>
      </trkpt>
      <trkpt lat="45.66937" lon="0.3014">
        <ele>130.742</ele>
        <time>2019-10-28T13:16:23Z</time>
      </trkpt>
      <trkpt lat="45.66931" lon="0.30238">
        <ele>125.93</ele>
        <time>2019-10-28T13:16:03Z</time>
      </trkpt>
      <trkpt lat="45.6696" lon="0.30394">
        <ele>127.684</ele>
        <time>2019-10-28T13:15:43Z</time>
      </trkpt>
      <trkpt lat="45.66987" lon="0.30473">
        <ele>127.091</ele>
        <time>2019-10-28T13:15:23Z</time>
      </trkpt>
      <trkpt lat="45.66994" lon="0.30544">
        <ele>123.786</ele>
        <time>2019-10-28T13:15:03Z</time>
      </trkpt>
      <trkpt lat="45.66984" lon="0.30622">
        <ele>122.75</ele>
        <time>2019-10-28T13:14:43Z</time>
      </trkpt>
      <trkpt lat="45.66992" lon="0.30681">
        <ele>121.508</ele>
        <time>2019-10-28T13:14:23Z</time>
      </trkpt>
      <trkpt lat="45.66986" lon="0.30854">
        <ele>116.621</ele>
        <time>2019-10-28T13:14:03Z</time>
      </trkpt>
      <trkpt lat="45.66997" lon="0.30915">
        <ele>115.029</ele>
        <time>2019-10-28T13:13:43Z</time>
      </trkpt>
      <trkpt lat="45.67017" lon="0.30934">
        <ele>113.847</ele>
        <time>2019-10-28T13:13:23Z</time>
      </trkpt>
      <trkpt lat="45.67031" lon="0.31029">
        <ele>111.08</ele>
        <time>2019-10-28T13:13:03Z</time>
      </trkpt>
      <trkpt lat="45.67024" lon="0.31129">
        <ele>110.931</ele>
        <time>2019-10-28T13:12:43Z</time>
      </trkpt>
      <trkpt lat="45.67042" lon="0.31264">
        <ele>109.545</ele>
        <time>2019-10-28T13:12:23Z</time>
      </trkpt>
      <trkpt lat="45.67082" lon="0.31437">
        <ele>109.083</ele>
        <time>2019-10-28T13:12:03Z</time>
      </trkpt>
      <trkpt lat="45.67123" lon="0.31514">
        <ele>109.997</ele>
        <time>2019-10-28T13:11:43Z</time>
      </trkpt>
      <trkpt lat="45.67143" lon="0.31601">
        <ele>108.994</ele>
        <time>2019-10-28T13:11:23Z</time>
      </trkpt>
      <trkpt lat="45.67141" lon="0.31675">
        <ele>108.319</ele>
        <time>2019-10-28T13:11:03Z</time>
      </trkpt>
      <trkpt lat="45.67118" lon="0.31807">
        <ele>107.883</ele>
        <time>2019-10-28T13:10:43Z</time>
      </trkpt>
      <trkpt lat="45.67117" lon="0.3185">
        <ele>108.708</ele>
        <time>2019-10-28T13:10:23Z</time>
      </trkpt>
      <trkpt lat="45.67104" lon="0.31878">
        <ele>109.421</ele>
        <time>2019-10-28T13:10:03Z</time>
      </trkpt>
      <trkpt lat="45.67117" lon="0.31967">
        <ele>107.056</ele>
        <time>2019-10-28T13:09:43Z</time>
      </trkpt>
      <trkpt lat="45.67106" lon="0.3211">
        <ele>103.274</ele>
        <time>2019-10-28T13:09:23Z</time>
      </trkpt>
      <trkpt lat="45.67111" lon="0.32194">
        <ele>104.054</ele>
        <time>2019-10-28T13:09:03Z</time>
      </trkpt>
      <trkpt lat="45.67131" lon="0.32299">
        <ele>112.785</ele>
        <time>2019-10-28T13:08:43Z</time>
      </trkpt>
      <trkpt lat="45.67197" lon="0.32507">
        <ele>117.229</ele>
        <time>2019-10-28T13:08:23Z</time>
      </trkpt>
      <trkpt lat="45.67229" lon="0.32709">
        <ele>118.957</ele>
        <time>2019-10-28T13:08:03Z</time>
      </trkpt>
      <trkpt lat="45.67239" lon="0.32813">
        <ele>118.411</ele>
        <time>2019-10-28T13:07:43Z</time>
      </trkpt>
      <trkpt lat="45.67202" lon="0.33023">
        <ele>109.048</ele>
        <time>2019-10-28T13:07:23Z</time>
      </trkpt>
      <trkpt lat="45.67229" lon="0.33155">
        <ele>107.153</ele>
        <time>2019-10-28T13:07:03Z</time>
      </trkpt>
      <trkpt lat="45.67207" lon="0.33157">
        <ele>108.747</ele>
        <time>2019-10-28T13:06:43Z</time>
      </trkpt>
      <trkpt lat="45.67183" lon="0.33175">
        <ele>110.408</ele>
        <time>2019-10-28T13:06:23Z</time>
      </trkpt>
      <trkpt lat="45.67148" lon="0.33226">
        <ele>112.007</ele>
        <time>2019-10-28T13:06:03Z</time>
      </trkpt>
      <trkpt lat="45.67118" lon="0.3326">
        <ele>111.743</ele>
        <time>2019-10-28T13:05:43Z</time>
      </trkpt>
      <trkpt lat="45.67139" lon="0.3337">
        <ele>111.313</ele>
        <time>2019-10-28T13:05:23Z</time>
      </trkpt>
      <trkpt lat="45.67174" lon="0.3342">
        <ele>112.658</ele>
        <time>2019-10-28T13:05:03Z</time>
      </trkpt>
      <trkpt lat="45.6723" lon="0.33456">
        <ele>107.359</ele>
        <time>2019-10-28T13:04:43Z</time>
      </trkpt>
      <trkpt lat="45.67249" lon="0.33532">
        <ele>105.043</ele>
        <time>2019-10-28T13:04:23Z</time>
      </trkpt>
      <trkpt lat="45.67285" lon="0.33588">
        <ele>103.231</ele>
        <time>2019-10-28T13:04:03Z</time>
      </trkpt>
      <trkpt lat="45.673" lon="0.33644">
        <ele>102.785</ele>
        <time>2019-10-28T13:03:43Z</time>
      </trkpt>
      <trkpt lat="45.67414" lon="0.33686">
        <ele>101.422</ele>
        <time>2019-10-28T13:03:23Z</time>
      </trkpt>
      <trkpt lat="45.67446" lon="0.33726">
        <ele>99.927</ele>
        <time>2019-10-28T13:03:03Z</time>
      </trkpt>
      <trkpt lat="45.67477" lon="0.33742">
        <ele>99.461</ele>
        <time>2019-10-28T13:02:43Z</time>
      </trkpt>
      <trkpt lat="45.67478" lon="0.33818">
        <ele>98.908</ele>
        <time>2019-10-28T13:02:23Z</time>
      </trkpt>
      <trkpt lat="45.67488" lon="0.33868">
        <ele>97.008</ele>
        <time>2019-10-28T13:02:03Z</time>
      </trkpt>
      <trkpt lat="45.67571" lon="0.3387">
        <ele>95.253</ele>
        <time>2019-10-28T13:01:43Z</time>
      </trkpt>
      <trkpt lat="45.67714" lon="0.33857">
        <ele>91.152</ele>
        <time>2019-10-28T13:01:23Z</time>
      </trkpt>
      <trkpt lat="45.67805" lon="0.33865">
        <ele>93.586</ele>
        <time>2019-10-28T13:01:03Z</time>
      </trkpt>
      <trkpt lat="45.67847" lon="0.33906">
        <ele>92.197</ele>
        <time>2019-10-28T13:00:43Z</time>
      </trkpt>
      <trkpt lat="45.67901" lon="0.33924">
        <ele>93.061</ele>
        <time>2019-10-28T13:00:23Z</time>
      </trkpt>
      <trkpt lat="45.67939" lon="0.33906">
        <ele>91.249</ele>
        <time>2019-10-28T13:00:03Z</time>
      </trkpt>
      <trkpt lat="45.68015" lon="0.33893">
        <ele>90.783</ele>
        <time>2019-10-28T12:59:43Z</time>
      </trkpt>
      <trkpt lat="45.68078" lon="0.33911">
        <ele>91.08</ele>
        <time>2019-10-28T12:59:23Z</time>
      </trkpt>
      <trkpt lat="45.68169" lon="0.33894">
        <ele>93.625</ele>
        <time>2019-10-28T12:59:03Z</time>
      </trkpt>
      <trkpt lat="45.68251" lon="0.33891">
        <ele>90.879</ele>
        <time>2019-10-28T12:58:43Z</time>
      </trkpt>
      <trkpt lat="45.68427" lon="0.33852">
        <ele>90.308</ele>
        <time>2019-10-28T12:58:23Z</time>
      </trkpt>
      <trkpt lat="45.6848" lon="0.33816">
        <ele>90.017</ele>
        <time>2019-10-28T12:58:03Z</time>
      </trkpt>
      <trkpt lat="45.68597" lon="0.33861">
        <ele>87.57</ele>
        <time>2019-10-28T12:57:43Z</time>
      </trkpt>
      <trkpt lat="45.68645" lon="0.3387">
        <ele>87.738</ele>
        <time>2019-10-28T12:57:23Z</time>
      </trkpt>
      <trkpt lat="45.68685" lon="0.339">
        <ele>87.576</ele>
        <time>2019-10-28T12:57:03Z</time>
      </trkpt>
      <trkpt lat="45.68718" lon="0.33909">
        <ele>88.637</ele>
        <time>2019-10-28T12:56:43Z</time>
      </trkpt>
      <trkpt lat="45.68739" lon="0.33926">
        <ele>87.781</ele>
        <time>2019-10-28T12:56:23Z</time>
      </trkpt>
      <trkpt lat="45.68799" lon="0.33934">
        <ele>87.099</ele>
        <time>2019-10-28T12:56:03Z</time>
      </trkpt>
      <trkpt lat="45.689" lon="0.33937">
        <ele>87.143</ele>
        <time>2019-10-28T12:55:43Z</time>
      </trkpt>
      <trkpt lat="45.68962" lon="0.33928">
        <ele>85.68</ele>
        <time>2019-10-28T12:55:23Z</time>
      </trkpt>
      <trkpt lat="45.69043" lon="0.33893">
        <ele>87.225</ele>
        <time>2019-10-28T12:55:03Z</time>
      </trkpt>
      <trkpt lat="45.69106" lon="0.33894">
        <ele>85.869</ele>
        <time>2019-10-28T12:54:43Z</time>
      </trkpt>
      <trkpt lat="45.69131" lon="0.3387">
        <ele>86.208</ele>
        <time>2019-10-28T12:54:23Z</time>
      </trkpt>
      <trkpt lat="45.69152" lon="0.33889">
        <ele>85.013</ele>
        <time>2019-10-28T12:54:03Z</time>
      </trkpt>
      <trkpt lat="45.69195" lon="0.339">
        <ele>87.249</ele>
        <time>2019-10-28T12:53:43Z</time>
      </trkpt>
      <trkpt lat="45.69247" lon="0.33889">
        <ele>88.237</ele>
        <time>2019-10-28T12:53:23Z</time>
      </trkpt>
      <trkpt lat="45.69328" lon="0.33874">
        <ele>85.825</ele>
        <time>2019-10-28T12:53:03Z</time>
      </trkpt>
      <trkpt lat="45.69406" lon="0.33894">
        <ele>85.626</ele>
        <time>2019-10-28T12:52:43Z</time>
      </trkpt>
      <trkpt lat="45.6943" lon="0.33881">
        <ele>87.34</ele>
        <time>2019-10-28T12:52:23Z</time>
      </trkpt>
      <trkpt lat="45.69465" lon="0.33838">
        <ele>91.438</ele>
        <time>2019-10-28T12:52:03Z</time>
      </trkpt>
      <trkpt lat="45.69529" lon="0.33893">
        <ele>96.642</ele>
        <time>2019-10-28T12:51:43Z</time>
      </trkpt>
      <trkpt lat="45.69607" lon="0.33883">
        <ele>101.499</ele>
        <time>2019-10-28T12:51:23Z</time>
      </trkpt>
      <trkpt lat="45.69726" lon="0.33852">
        <ele>102.854</ele>
        <time>2019-10-28T12:51:03Z</time>
      </trkpt>
      <trkpt lat="45.69809" lon="0.33801">
        <ele>100.638</ele>
        <time>2019-10-28T12:50:43Z</time>
      </trkpt>
      <trkpt lat="45.69891" lon="0.3379">
        <ele>100.808</ele>
        <time>2019-10-28T12:50:23Z</time>
      </trkpt>
      <trkpt lat="45.69914" lon="0.33696">
        <ele>100.114</ele>
        <time>2019-10-28T12:50:03Z</time>
      </trkpt>
      <trkpt lat="45.70025" lon="0.33698">
        <ele>97.104</ele>
        <time>2019-10-28T12:49:43Z</time>
      </trkpt>
      <trkpt lat="45.70045" lon="0.33728">
        <ele>96.724</ele>
        <time>2019-10-28T12:49:23Z</time>
      </trkpt>
      <trkpt lat="45.70082" lon="0.33644">
        <ele>99.848</ele>
        <time>2019-10-28T12:49:03Z</time>
      </trkpt>
      <trkpt lat="45.70087" lon="0.3356">
        <ele>104.859</ele>
        <time>2019-10-28T12:48:43Z</time>
      </trkpt>
      <trkpt lat="45.70099" lon="0.33534">
        <ele>105.373</ele>
        <time>2019-10-28T12:48:23Z</time>
      </trkpt>
      <trkpt lat="45.70169" lon="0.33556">
        <ele>101.981</ele>
        <time>2019-10-28T12:48:03Z</time>
      </trkpt>
      <trkpt lat="45.70175" lon="0.33506">
        <ele>100.675</ele>
        <time>2019-10-28T12:47:43Z</time>
      </trkpt>
      <trkpt lat="45.70195" lon="0.33476">
        <ele>97.232</ele>
        <time>2019-10-28T12:47:23Z</time>
      </trkpt>
      <trkpt lat="45.70285" lon="0.33446">
        <ele>94.337</ele>
        <time>2019-10-28T12:47:03Z</time>
      </trkpt>
      <trkpt lat="45.70319" lon="0.33409">
        <ele>93.191</ele>
        <time>2019-10-28T12:46:43Z</time>
      </trkpt>
      <trkpt lat="45.70332" lon="0.33342">
        <ele>91.708</ele>
        <time>2019-10-28T12:46:23Z</time>
      </trkpt>
      <trkpt lat="45.70472" lon="0.33364">
        <ele>91.014</ele>
        <time>2019-10-28T12:46:03Z</time>
      </trkpt>
      <trkpt lat="45.70514" lon="0.33308">
        <ele>94.004</ele>
        <time>2019-10-28T12:45:43Z</time>
      </trkpt>
      <trkpt lat="45.70597" lon="0.3337">
        <ele>97.953</ele>
        <time>2019-10-28T12:45:23Z</time>
      </trkpt>
      <trkpt lat="45.70644" lon="0.3339">
        <ele>102.475</ele>
        <time>2019-10-28T12:45:03Z</time>
      </trkpt>
      <trkpt lat="45.70685" lon="0.33381">
        <ele>104.476</ele>
        <time>2019-10-28T12:44:43Z</time>
      </trkpt>
      <trkpt lat="45.70907" lon="0.33558">
        <ele>98.67</ele>
        <time>2019-10-28T12:44:23Z</time>
      </trkpt>
      <trkpt lat="45.70931" lon="0.33632">
        <ele>94.088</ele>
        <time>2019-10-28T12:44:03Z</time>
      </trkpt>
      <trkpt lat="45.70973" lon="0.33656">
        <ele>91.882</ele>
        <time>2019-10-28T12:43:43Z</time>
      </trkpt>
      <trkpt lat="45.70985" lon="0.33681">
        <ele>89.669</ele>
        <time>2019-10-28T12:43:23Z</time>
      </trkpt>
      <trkpt lat="45.71014" lon="0.33698">
        <ele>90.274</ele>
        <time>2019-10-28T12:43:03Z</time>
      </trkpt>
      <trkpt lat="45.71019" lon="0.33719">
        <ele>88.648</ele>
        <time>2019-10-28T12:42:43Z</time>
      </trkpt>
      <trkpt lat="45.71" lon="0.33771">
        <ele>84.508</ele>
        <time>2019-10-28T12:42:23Z</time>
      </trkpt>
      <trkpt lat="45.71011" lon="0.33812">
        <ele>81.82</ele>
        <time>2019-10-28T12:42:03Z</time>
      </trkpt>
      <trkpt lat="45.71054" lon="0.33883">
        <ele>79.2</ele>
        <time>2019-10-28T12:41:43Z</time>
      </trkpt>
      <trkpt lat="45.71124" lon="0.33926">
        <ele>81.329</ele>
        <time>2019-10-28T12:41:23Z</time>
      </trkpt>
      <trkpt lat="45.71199" lon="0.33898">
        <ele>84.634</ele>
        <time>2019-10-28T12:41:03Z</time>
      </trkpt>
      <trkpt lat="45.71247" lon="0.33855">
        <ele>86.245</ele>
        <time>2019-10-28T12:40:43Z</time>
      </trkpt>
      <trkpt lat="45.71266" lon="0.33891">
        <ele>81.749</ele>
        <time>2019-10-28T12:40:23Z</time>
      </trkpt>
      <trkpt lat="45.71337" lon="0.33824">
        <ele>80.097</ele>
        <time>2019-10-28T12:40:03Z</time>
      </trkpt>
      <trkpt lat="45.7133" lon="0.33773">
        <ele>81.161</ele>
        <time>2019-10-28T12:39:43Z</time>
      </trkpt>
      <trkpt lat="45.71364" lon="0.3367">
        <ele>89.078</ele>
        <time>2019-10-28T12:39:23Z</time>
      </trkpt>
      <trkpt lat="45.71407" lon="0.33682">
        <ele>90.863</ele>
        <time>2019-10-28T12:39:03Z</time>
      </trkpt>
      <trkpt lat="45.71457" lon="0.33683">
        <ele>91.497</ele>
        <time>2019-10-28T12:38:43Z</time>
      </trkpt>
      <trkpt lat="45.71499" lon="0.33597">
        <ele>92.108</ele>
        <time>2019-10-28T12:38:23Z</time>
      </trkpt>
      <trkpt lat="45.71604" lon="0.33558">
        <ele>90.709</ele>
        <time>2019-10-28T12:38:03Z</time>
      </trkpt>
      <trkpt lat="45.71759" lon="0.33538">
        <ele>98.654</ele>
        <time>2019-10-28T12:37:43Z</time>
      </trkpt>
      <trkpt lat="45.71842" lon="0.33497">
        <ele>97.014</ele>
        <time>2019-10-28T12:37:23Z</time>
      </trkpt>
      <trkpt lat="45.71869" lon="0.33459">
        <ele>96.434</ele>
        <time>2019-10-28T12:37:03Z</time>
      </trkpt>
      <trkpt lat="45.71937" lon="0.33416">
        <ele>92.315</ele>
        <time>2019-10-28T12:36:43Z</time>
      </trkpt>
      <trkpt lat="45.72006" lon="0.33336">
        <ele>91.869</ele>
        <time>2019-10-28T12:36:23Z</time>
      </trkpt>
      <trkpt lat="45.72052" lon="0.33442">
        <ele>88.917</ele>
        <time>2019-10-28T12:36:03Z</time>
      </trkpt>
      <trkpt lat="45.7208" lon="0.33472">
        <ele>89.281</ele>
        <time>2019-10-28T12:35:43Z</time>
      </trkpt>
      <trkpt lat="45.72166" lon="0.33465">
        <ele>88.338</ele>
        <time>2019-10-28T12:35:23Z</time>
      </trkpt>
      <trkpt lat="45.72224" lon="0.33448">
        <ele>89.853</ele>
        <time>2019-10-28T12:35:03Z</time>
      </trkpt>
      <trkpt lat="45.72285" lon="0.33474">
        <ele>87.747</ele>
        <time>2019-10-28T12:34:43Z</time>
      </trkpt>
      <trkpt lat="45.72324" lon="0.33667">
        <ele>76.308</ele>
        <time>2019-10-28T12:34:23Z</time>
      </trkpt>
      <trkpt lat="45.72333" lon="0.33915">
        <ele>77.019</ele>
        <time>2019-10-28T12:34:03Z</time>
      </trkpt>
      <trkpt lat="45.72302" lon="0.34023">
        <ele>81.209</ele>
        <time>2019-10-28T12:33:43Z</time>
      </trkpt>
      <trkpt lat="45.72292" lon="0.34083">
        <ele>86.019</ele>
        <time>2019-10-28T12:33:23Z</time>
      </trkpt>
      <trkpt lat="45.72269" lon="0.34134">
        <ele>86.827</ele>
        <time>2019-10-28T12:33:03Z</time>
      </trkpt>
      <trkpt lat="45.72311" lon="0.34197">
        <ele>90.628</ele>
        <time>2019-10-28T12:32:43Z</time>
      </trkpt>
      <trkpt lat="45.72139" lon="0.34701">
        <ele>99.272</ele>
        <time>2019-10-28T12:32:23Z</time>
      </trkpt>
      <trkpt lat="45.72101" lon="0.34804">
        <ele>104.17</ele>
        <time>2019-10-28T12:32:03Z</time>
      </trkpt>
      <trkpt lat="45.72255" lon="0.34969">
        <ele>100.994</ele>
        <time>2019-10-28T12:31:43Z</time>
      </trkpt>
      <trkpt lat="45.72282" lon="0.35105">
        <ele>107.681</ele>
        <time>2019-10-28T12:31:23Z</time>
      </trkpt>
      <trkpt lat="45.72324" lon="0.3518">
        <ele>109.966</ele>
        <time>2019-10-28T12:31:03Z</time>
      </trkpt>
      <trkpt lat="45.72391" lon="0.35251">
        <ele>111.14</ele>
        <time>2019-10-28T12:30:43Z</time>
      </trkpt>
      <trkpt lat="45.72372" lon="0.35383">
        <ele>109.808</ele>
        <time>2019-10-28T12:30:23Z</time>
      </trkpt>
      <trkpt lat="45.72388" lon="0.35402">
        <ele>110.521</ele>
        <time>2019-10-28T12:30:03Z</time>
      </trkpt>
      <trkpt lat="45.72396" lon="0.35443">
        <ele>109.829</ele>
        <time>2019-10-28T12:29:43Z</time>
      </trkpt>
      <trkpt lat="45.72406" lon="0.35535">
        <ele>107.747</ele>
        <time>2019-10-28T12:29:23Z</time>
      </trkpt>
      <trkpt lat="45.7244" lon="0.35634">
        <ele>107.086</ele>
        <time>2019-10-28T12:29:03Z</time>
      </trkpt>
      <trkpt lat="45.7247" lon="0.35684">
        <ele>109.227</ele>
        <time>2019-10-28T12:28:43Z</time>
      </trkpt>
      <trkpt lat="45.72464" lon="0.35772">
        <ele>113.151</ele>
        <time>2019-10-28T12:28:23Z</time>
      </trkpt>
      <trkpt lat="45.72482" lon="0.35962">
        <ele>111.899</ele>
        <time>2019-10-28T12:28:03Z</time>
      </trkpt>
      <trkpt lat="45.7246" lon="0.35994">
        <ele>109.533</ele>
        <time>2019-10-28T12:27:43Z</time>
      </trkpt>
      <trkpt lat="45.72455" lon="0.36041">
        <ele>110.51</ele>
        <time>2019-10-28T12:27:23Z</time>
      </trkpt>
      <trkpt lat="45.72453" lon="0.36091">
        <ele>112.045</ele>
        <time>2019-10-28T12:27:03Z</time>
      </trkpt>
      <trkpt lat="45.72471" lon="0.36159">
        <ele>111.349</ele>
        <time>2019-10-28T12:26:43Z</time>
      </trkpt>
      <trkpt lat="45.72526" lon="0.36194">
        <ele>110.008</ele>
        <time>2019-10-28T12:26:23Z</time>
      </trkpt>
      <trkpt lat="45.72745" lon="0.3617">
        <ele>112.715</ele>
        <time>2019-10-28T12:26:03Z</time>
      </trkpt>
      <trkpt lat="45.72838" lon="0.36172">
        <ele>112.023</ele>
        <time>2019-10-28T12:25:43Z</time>
      </trkpt>
      <trkpt lat="45.7296" lon="0.36205">
        <ele>108.133</ele>
        <time>2019-10-28T12:25:23Z</time>
      </trkpt>
      <trkpt lat="45.73054" lon="0.36278">
        <ele>107.039</ele>
        <time>2019-10-28T12:25:03Z</time>
      </trkpt>
      <trkpt lat="45.7308" lon="0.36287">
        <ele>107.06</ele>
        <time>2019-10-28T12:24:43Z</time>
      </trkpt>
      <trkpt lat="45.73109" lon="0.36319">
        <ele>106.574</ele>
        <time>2019-10-28T12:24:23Z</time>
      </trkpt>
      <trkpt lat="45.7317" lon="0.36276">
        <ele>105.132</ele>
        <time>2019-10-28T12:24:03Z</time>
      </trkpt>
      <trkpt lat="45.73202" lon="0.36228">
        <ele>105.226</ele>
        <time>2019-10-28T12:23:43Z</time>
      </trkpt>
      <trkpt lat="45.73256" lon="0.36229">
        <ele>107.073</ele>
        <time>2019-10-28T12:23:23Z</time>
      </trkpt>
      <trkpt lat="45.73326" lon="0.36246">
        <ele>107.018</ele>
        <time>2019-10-28T12:23:03Z</time>
      </trkpt>
      <trkpt lat="45.73354" lon="0.36235">
        <ele>106.212</ele>
        <time>2019-10-28T12:22:43Z</time>
      </trkpt>
      <trkpt lat="45.73457" lon="0.3611">
        <ele>109.608</ele>
        <time>2019-10-28T12:22:23Z</time>
      </trkpt>
      <trkpt lat="45.73606" lon="0.36086">
        <ele>107.824</ele>
        <time>2019-10-28T12:22:03Z</time>
      </trkpt>
      <trkpt lat="45.73607" lon="0.36039">
        <ele>106.304</ele>
        <time>2019-10-28T12:21:43Z</time>
      </trkpt>
      <trkpt lat="45.73659" lon="0.36041">
        <ele>106.669</ele>
        <time>2019-10-28T12:21:23Z</time>
      </trkpt>
      <trkpt lat="45.73725" lon="0.3606">
        <ele>107.994</ele>
        <time>2019-10-28T12:21:03Z</time>
      </trkpt>
      <trkpt lat="45.73751" lon="0.3606">
        <ele>108.085</ele>
        <time>2019-10-28T12:20:43Z</time>
      </trkpt>
      <trkpt lat="45.73786" lon="0.36067">
        <ele>107.499</ele>
        <time>2019-10-28T12:20:23Z</time>
      </trkpt>
      <trkpt lat="45.73796" lon="0.36089">
        <ele>106.967</ele>
        <time>2019-10-28T12:20:03Z</time>
      </trkpt>
      <trkpt lat="45.73829" lon="0.36071">
        <ele>107.471</ele>
        <time>2019-10-28T12:19:43Z</time>
      </trkpt>
      <trkpt lat="45.73872" lon="0.3606">
        <ele>108.238</ele>
        <time>2019-10-28T12:19:23Z</time>
      </trkpt>
      <trkpt lat="45.73886" lon="0.3602">
        <ele>110.223</ele>
        <time>2019-10-28T12:19:03Z</time>
      </trkpt>
      <trkpt lat="45.73953" lon="0.35975">
        <ele>112.687</ele>
        <time>2019-10-28T12:18:43Z</time>
      </trkpt>
      <trkpt lat="45.74002" lon="0.35897">
        <ele>108.908</ele>
        <time>2019-10-28T12:18:23Z</time>
      </trkpt>
      <trkpt lat="45.74035" lon="0.35824">
        <ele>109.403</ele>
        <time>2019-10-28T12:18:03Z</time>
      </trkpt>
      <trkpt lat="45.74069" lon="0.35785">
        <ele>108.721</ele>
        <time>2019-10-28T12:17:43Z</time>
      </trkpt>
      <trkpt lat="45.74116" lon="0.35854">
        <ele>109.211</ele>
        <time>2019-10-28T12:17:23Z</time>
      </trkpt>
      <trkpt lat="45.74172" lon="0.3597">
        <ele>111.815</ele>
        <time>2019-10-28T12:17:03Z</time>
      </trkpt>
      <trkpt lat="45.74193" lon="0.36248">
        <ele>100.296</ele>
        <time>2019-10-28T12:16:43Z</time>
      </trkpt>
      <trkpt lat="45.74228" lon="0.36414">
        <ele>91.95</ele>
        <time>2019-10-28T12:16:23Z</time>
      </trkpt>
      <trkpt lat="45.74276" lon="0.36579">
        <ele>93.078</ele>
        <time>2019-10-28T12:16:03Z</time>
      </trkpt>
      <trkpt lat="45.74251" lon="0.3667">
        <ele>92.912</ele>
        <time>2019-10-28T12:15:43Z</time>
      </trkpt>
      <trkpt lat="45.74219" lon="0.36827">
        <ele>91.369</ele>
        <time>2019-10-28T12:15:23Z</time>
      </trkpt>
      <trkpt lat="45.74212" lon="0.36911">
        <ele>93.954</ele>
        <time>2019-10-28T12:15:03Z</time>
      </trkpt>
      <trkpt lat="45.74199" lon="0.37147">
        <ele>95.328</ele>
        <time>2019-10-28T12:14:43Z</time>
      </trkpt>
      <trkpt lat="45.74182" lon="0.37251">
        <ele>99.508</ele>
        <time>2019-10-28T12:14:23Z</time>
      </trkpt>
      <trkpt lat="45.74194" lon="0.37333">
        <ele>99.02</ele>
        <time>2019-10-28T12:14:03Z</time>
      </trkpt>
      <trkpt lat="45.74198" lon="0.37539">
        <ele>102.9</ele>
        <time>2019-10-28T12:13:43Z</time>
      </trkpt>
      <trkpt lat="45.74172" lon="0.37563">
        <ele>103.829</ele>
        <time>2019-10-28T12:13:23Z</time>
      </trkpt>
      <trkpt lat="45.74289" lon="0.37827">
        <ele>88.211</ele>
        <time>2019-10-28T12:13:03Z</time>
      </trkpt>
      <trkpt lat="45.74335" lon="0.37873">
        <ele>86.922</ele>
        <time>2019-10-28T12:12:43Z</time>
      </trkpt>
      <trkpt lat="45.74335" lon="0.37939">
        <ele>84.156</ele>
        <time>2019-10-28T12:12:23Z</time>
      </trkpt>
      <trkpt lat="45.74269" lon="0.38023">
        <ele>84.334</ele>
        <time>2019-10-28T12:12:03Z</time>
      </trkpt>
      <trkpt lat="45.742" lon="0.38083">
        <ele>81.948</ele>
        <time>2019-10-28T12:11:43Z</time>
      </trkpt>
      <trkpt lat="45.74156" lon="0.38096">
        <ele>84.095</ele>
        <time>2019-10-28T12:11:23Z</time>
      </trkpt>
      <trkpt lat="45.74163" lon="0.38208">
        <ele>78.99</ele>
        <time>2019-10-28T12:11:03Z</time>
      </trkpt>
      <trkpt lat="45.74163" lon="0.38208">
        <ele>78.974</ele>
        <time>2019-10-28T12:11:03Z</time>
      </trkpt>
      <trkpt lat="45.74235" lon="0.38223">
        <ele>81.008</ele>
        <time>2019-10-28T14:39:15Z</time>
      </trkpt>
      <trkpt lat="45.74289" lon="0.3826">
        <ele>79.817</ele>
        <time>2019-10-28T14:38:55Z</time>
      </trkpt>
      <trkpt lat="45.7434" lon="0.38256">
        <ele>78.289</ele>
        <time>2019-10-28T14:38:35Z</time>
      </trkpt>
      <trkpt lat="45.74365" lon="0.38196">
        <ele>78.185</ele>
        <time>2019-10-28T14:38:15Z</time>
      </trkpt>
      <trkpt lat="45.74412" lon="0.38142">
        <ele>79.275</ele>
        <time>2019-10-28T14:37:55Z</time>
      </trkpt>
      <trkpt lat="45.74511" lon="0.38097">
        <ele>78.036</ele>
        <time>2019-10-28T14:37:35Z</time>
      </trkpt>
      <trkpt lat="45.74638" lon="0.38095">
        <ele>78.01</ele>
        <time>2019-10-28T14:37:15Z</time>
      </trkpt>
      <trkpt lat="45.74638" lon="0.38095">
        <ele>78.038</ele>
        <time>2019-10-28T14:36:55Z</time>
      </trkpt>
      <trkpt lat="45.7472" lon="0.38067">
        <ele>78.012</ele>
        <time>2019-10-28T14:36:35Z</time>
      </trkpt>
      <trkpt lat="45.74791" lon="0.38054">
        <ele>77.489</ele>
        <time>2019-10-28T14:36:15Z</time>
      </trkpt>
      <trkpt lat="45.74889" lon="0.38056">
        <ele>76.094</ele>
        <time>2019-10-28T14:35:55Z</time>
      </trkpt>
      <trkpt lat="45.7512" lon="0.37923">
        <ele>78.758</ele>
        <time>2019-10-28T14:35:35Z</time>
      </trkpt>
      <trkpt lat="45.74978" lon="0.37702">
        <ele>76.908</ele>
        <time>2019-10-28T14:35:15Z</time>
      </trkpt>
      <trkpt lat="45.74954" lon="0.37631">
        <ele>76.914</ele>
        <time>2019-10-28T14:34:55Z</time>
      </trkpt>
      <trkpt lat="45.74952" lon="0.37573">
        <ele>76.004</ele>
        <time>2019-10-28T14:34:35Z</time>
      </trkpt>
      <trkpt lat="45.75008" lon="0.37386">
        <ele>77.624</ele>
        <time>2019-10-28T14:34:15Z</time>
      </trkpt>
      <trkpt lat="45.75066" lon="0.37243">
        <ele>73.152</ele>
        <time>2019-10-28T14:33:55Z</time>
      </trkpt>
      <trkpt lat="45.75238" lon="0.36975">
        <ele>77.023</ele>
        <time>2019-10-28T14:33:35Z</time>
      </trkpt>
      <trkpt lat="45.75292" lon="0.36923">
        <ele>77.967</ele>
        <time>2019-10-28T14:33:15Z</time>
      </trkpt>
      <trkpt lat="45.75572" lon="0.36723">
        <ele>74.095</ele>
        <time>2019-10-28T14:32:55Z</time>
      </trkpt>
      <trkpt lat="45.75608" lon="0.36715">
        <ele>75.259</ele>
        <time>2019-10-28T14:32:35Z</time>
      </trkpt>
      <trkpt lat="45.75842" lon="0.36578">
        <ele>76.626</ele>
        <time>2019-10-28T14:32:15Z</time>
      </trkpt>
      <trkpt lat="45.75894" lon="0.36565">
        <ele>78.511</ele>
        <time>2019-10-28T14:31:55Z</time>
      </trkpt>
      <trkpt lat="45.75964" lon="0.36475">
        <ele>75.675</ele>
        <time>2019-10-28T14:31:35Z</time>
      </trkpt>
      <trkpt lat="45.76083" lon="0.36393">
        <ele>72.008</ele>
        <time>2019-10-28T14:31:15Z</time>
      </trkpt>
      <trkpt lat="45.76162" lon="0.36221">
        <ele>74.022</ele>
        <time>2019-10-28T14:30:55Z</time>
      </trkpt>
      <trkpt lat="45.76116" lon="0.36112">
        <ele>72.857</ele>
        <time>2019-10-28T14:30:35Z</time>
      </trkpt>
      <trkpt lat="45.76139" lon="0.35994">
        <ele>76.294</ele>
        <time>2019-10-28T14:30:15Z</time>
      </trkpt>
      <trkpt lat="45.76169" lon="0.35977">
        <ele>75.578</ele>
        <time>2019-10-28T14:29:55Z</time>
      </trkpt>
      <trkpt lat="45.76189" lon="0.35936">
        <ele>74.849</ele>
        <time>2019-10-28T14:29:35Z</time>
      </trkpt>
      <trkpt lat="45.76265" lon="0.35859">
        <ele>74.183</ele>
        <time>2019-10-28T14:29:15Z</time>
      </trkpt>
      <trkpt lat="45.76297" lon="0.35857">
        <ele>73.551</ele>
        <time>2019-10-28T14:28:55Z</time>
      </trkpt>
      <trkpt lat="45.76336" lon="0.35805">
        <ele>72.045</ele>
        <time>2019-10-28T14:28:35Z</time>
      </trkpt>
      <trkpt lat="45.76336" lon="0.35758">
        <ele>73.732</ele>
        <time>2019-10-28T14:28:15Z</time>
      </trkpt>
      <trkpt lat="45.76276" lon="0.3567">
        <ele>78.147</ele>
        <time>2019-10-28T14:27:55Z</time>
      </trkpt>
      <trkpt lat="45.7628" lon="0.35633">
        <ele>79.091</ele>
        <time>2019-10-28T14:27:35Z</time>
      </trkpt>
      <trkpt lat="45.76342" lon="0.35627">
        <ele>75.108</ele>
        <time>2019-10-28T14:27:15Z</time>
      </trkpt>
      <trkpt lat="45.76436" lon="0.35642">
        <ele>74.014</ele>
        <time>2019-10-28T14:26:55Z</time>
      </trkpt>
      <trkpt lat="45.76496" lon="0.35543">
        <ele>73.859</ele>
        <time>2019-10-28T14:26:35Z</time>
      </trkpt>
      <trkpt lat="45.7649" lon="0.35507">
        <ele>74.756</ele>
        <time>2019-10-28T14:26:15Z</time>
      </trkpt>
      <trkpt lat="45.76526" lon="0.35503">
        <ele>73.179</ele>
        <time>2019-10-28T14:25:55Z</time>
      </trkpt>
      <trkpt lat="45.76572" lon="0.35449">
        <ele>73.81</ele>
        <time>2019-10-28T14:25:35Z</time>
      </trkpt>
      <trkpt lat="45.76586" lon="0.35372">
        <ele>76.894</ele>
        <time>2019-10-28T14:25:15Z</time>
      </trkpt>
      <trkpt lat="45.76604" lon="0.35337">
        <ele>75.512</ele>
        <time>2019-10-28T14:24:55Z</time>
      </trkpt>
      <trkpt lat="45.76604" lon="0.35337">
        <ele>75.546</ele>
        <time>2019-10-28T14:24:35Z</time>
      </trkpt>
      <trkpt lat="45.76616" lon="0.35365">
        <ele>74.733</ele>
        <time>2019-10-28T14:24:15Z</time>
      </trkpt>
      <trkpt lat="45.76662" lon="0.354">
        <ele>72.268</ele>
        <time>2019-10-28T14:23:55Z</time>
      </trkpt>
      <trkpt lat="45.76701" lon="0.35382">
        <ele>72.212</ele>
        <time>2019-10-28T14:23:35Z</time>
      </trkpt>
      <trkpt lat="45.7675" lon="0.35447">
        <ele>73.908</ele>
        <time>2019-10-28T14:23:15Z</time>
      </trkpt>
      <trkpt lat="45.76818" lon="0.3538">
        <ele>73.516</ele>
        <time>2019-10-28T14:22:55Z</time>
      </trkpt>
      <trkpt lat="45.76864" lon="0.35393">
        <ele>73.806</ele>
        <time>2019-10-28T14:22:35Z</time>
      </trkpt>
      <trkpt lat="45.76901" lon="0.35339">
        <ele>73.064</ele>
        <time>2016-06-05T20:07:35Z</time>
      </trkpt>
      <trkpt lat="45.76898" lon="0.35288">
        <ele>72.091</ele>
        <time>2016-06-05T20:06:15Z</time>
      </trkpt>
      <trkpt lat="45.7691" lon="0.35234">
        <ele>72.972</ele>
        <time>2016-06-05T20:05:55Z</time>
      </trkpt>
      <trkpt lat="45.7688" lon="0.35185">
        <ele>73.656</ele>
        <time>2016-06-05T20:05:35Z</time>
      </trkpt>
      <trkpt lat="45.76873" lon="0.35151">
        <ele>72.894</ele>
        <time>2016-06-05T20:05:15Z</time>
      </trkpt>
      <trkpt lat="45.76915" lon="0.35052">
        <ele>71.928</ele>
        <time>2016-06-05T20:04:55Z</time>
      </trkpt>
      <trkpt lat="45.76966" lon="0.3496">
        <ele>72.075</ele>
        <time>2016-06-05T20:04:15Z</time>
      </trkpt>
      <trkpt lat="45.77021" lon="0.34887">
        <ele>71.03</ele>
        <time>2016-06-05T20:03:55Z</time>
      </trkpt>
      <trkpt lat="45.77109" lon="0.34816">
        <ele>74.444</ele>
        <time>2016-06-05T20:03:35Z</time>
      </trkpt>
      <trkpt lat="45.77168" lon="0.34715">
        <ele>72.308</ele>
        <time>2016-06-05T20:03:15Z</time>
      </trkpt>
      <trkpt lat="45.77225" lon="0.34646">
        <ele>72.926</ele>
        <time>2016-06-05T20:02:55Z</time>
      </trkpt>
      <trkpt lat="45.77288" lon="0.34389">
        <ele>72.006</ele>
        <time>2016-06-05T20:02:35Z</time>
      </trkpt>
      <trkpt lat="45.77243" lon="0.34327">
        <ele>74.289</ele>
        <time>2016-06-05T20:02:15Z</time>
      </trkpt>
      <trkpt lat="45.7735" lon="0.34237">
        <ele>72.557</ele>
        <time>2016-06-05T20:01:55Z</time>
      </trkpt>
      <trkpt lat="45.77379" lon="0.34237">
        <ele>72.248</ele>
        <time>2016-06-05T20:01:35Z</time>
      </trkpt>
      <trkpt lat="45.77406" lon="0.34226">
        <ele>71.552</ele>
        <time>2016-06-05T20:01:15Z</time>
      </trkpt>
      <trkpt lat="45.77476" lon="0.3414">
        <ele>71.16</ele>
        <time>2016-06-05T20:00:55Z</time>
      </trkpt>
      <trkpt lat="45.77472" lon="0.34015">
        <ele>70.584</ele>
        <time>2016-06-05T20:00:35Z</time>
      </trkpt>
      <trkpt lat="45.7752" lon="0.33782">
        <ele>71.351</ele>
        <time>2016-06-05T20:00:15Z</time>
      </trkpt>
      <trkpt lat="45.77558" lon="0.33664">
        <ele>74.056</ele>
        <time>2016-06-05T19:59:55Z</time>
      </trkpt>
      <trkpt lat="45.775" lon="0.33642">
        <ele>75.06</ele>
        <time>2016-06-05T19:59:35Z</time>
      </trkpt>
      <trkpt lat="45.77476" lon="0.33582">
        <ele>77.108</ele>
        <time>2016-06-05T19:59:15Z</time>
      </trkpt>
      <trkpt lat="45.77494" lon="0.33528">
        <ele>79.017</ele>
        <time>2016-06-05T19:58:55Z</time>
      </trkpt>
      <trkpt lat="45.77539" lon="0.33528">
        <ele>79.061</ele>
        <time>2016-06-05T19:58:35Z</time>
      </trkpt>
      <trkpt lat="45.77452" lon="0.32955">
        <ele>76.648</ele>
        <time>2016-06-05T19:58:15Z</time>
      </trkpt>
      <trkpt lat="45.77511" lon="0.32928">
        <ele>76.528</ele>
        <time>2016-06-05T19:57:55Z</time>
      </trkpt>
      <trkpt lat="45.77543" lon="0.32848">
        <ele>79.459</ele>
        <time>2016-06-05T19:57:35Z</time>
      </trkpt>
      <trkpt lat="45.77614" lon="0.32837">
        <ele>81.033</ele>
        <time>2016-06-05T19:57:15Z</time>
      </trkpt>
      <trkpt lat="45.77692" lon="0.32814">
        <ele>77.571</ele>
        <time>2016-06-05T19:56:55Z</time>
      </trkpt>
      <trkpt lat="45.7768" lon="0.32621">
        <ele>77.015</ele>
        <time>2016-06-05T19:56:35Z</time>
      </trkpt>
      <trkpt lat="45.77657" lon="0.32524">
        <ele>78.482</ele>
        <time>2016-06-05T19:56:15Z</time>
      </trkpt>
      <trkpt lat="45.77621" lon="0.32316">
        <ele>90.687</ele>
        <time>2016-06-05T19:55:55Z</time>
      </trkpt>
      <trkpt lat="45.7756" lon="0.32237">
        <ele>91.521</ele>
        <time>2016-06-05T19:55:35Z</time>
      </trkpt>
      <trkpt lat="45.77494" lon="0.32101">
        <ele>88.508</ele>
        <time>2016-06-05T19:55:15Z</time>
      </trkpt>
      <trkpt lat="45.77494" lon="0.31977">
        <ele>88.611</ele>
        <time>2016-06-05T19:54:55Z</time>
      </trkpt>
      <trkpt lat="45.77439" lon="0.31803">
        <ele>93.856</ele>
        <time>2016-06-05T19:54:35Z</time>
      </trkpt>
      <trkpt lat="45.77397" lon="0.31743">
        <ele>97.054</ele>
        <time>2016-06-05T19:54:15Z</time>
      </trkpt>
      <trkpt lat="45.77404" lon="0.317">
        <ele>98.287</ele>
        <time>2016-06-05T19:53:55Z</time>
      </trkpt>
      <trkpt lat="45.77428" lon="0.31677">
        <ele>98.138</ele>
        <time>2016-06-05T19:53:35Z</time>
      </trkpt>
      <trkpt lat="45.77416" lon="0.31599">
        <ele>102.422</ele>
        <time>2016-06-05T19:53:15Z</time>
      </trkpt>
      <trkpt lat="45.77424" lon="0.31561">
        <ele>103.05</ele>
        <time>2016-06-05T19:52:55Z</time>
      </trkpt>
      <trkpt lat="45.77506" lon="0.31511">
        <ele>102.634</ele>
        <time>2016-06-05T19:52:35Z</time>
      </trkpt>
      <trkpt lat="45.77615" lon="0.31414">
        <ele>101.911</ele>
        <time>2016-06-05T19:52:15Z</time>
      </trkpt>
      <trkpt lat="45.77558" lon="0.31331">
        <ele>106.016</ele>
        <time>2016-06-05T19:51:55Z</time>
      </trkpt>
      <trkpt lat="45.77802" lon="0.31241">
        <ele>106.21</ele>
        <time>2016-06-05T19:51:35Z</time>
      </trkpt>
      <trkpt lat="45.77707" lon="0.30415">
        <ele>110.508</ele>
        <time>2016-06-05T19:51:15Z</time>
      </trkpt>
      <trkpt lat="45.7776" lon="0.30404">
        <ele>108.51</ele>
        <time>2016-06-05T19:50:55Z</time>
      </trkpt>
      <trkpt lat="45.78845" lon="0.30711">
        <ele>111.064</ele>
        <time>2016-06-05T19:50:35Z</time>
      </trkpt>
      <trkpt lat="45.78892" lon="0.30782">
        <ele>109.143</ele>
        <time>2016-06-05T19:50:15Z</time>
      </trkpt>
      <trkpt lat="45.79181" lon="0.31078">
        <ele>96.227</ele>
        <time>2016-06-05T19:49:55Z</time>
      </trkpt>
      <trkpt lat="45.79276" lon="0.31222">
        <ele>92.998</ele>
        <time>2016-06-05T19:49:35Z</time>
      </trkpt>
      <trkpt lat="45.79519" lon="0.31514">
        <ele>88.052</ele>
        <time>2016-06-05T19:49:15Z</time>
      </trkpt>
      <trkpt lat="45.79596" lon="0.3146">
        <ele>88.89</ele>
        <time>2016-06-05T19:48:55Z</time>
      </trkpt>
      <trkpt lat="45.79679" lon="0.31389">
        <ele>88.044</ele>
        <time>2016-06-05T19:48:35Z</time>
      </trkpt>
      <trkpt lat="45.79728" lon="0.314">
        <ele>87.391</ele>
        <time>2016-06-05T19:48:15Z</time>
      </trkpt>
      <trkpt lat="45.79804" lon="0.31387">
        <ele>88.066</ele>
        <time>2016-06-05T19:47:55Z</time>
      </trkpt>
      <trkpt lat="45.79909" lon="0.31378">
        <ele>85.55</ele>
        <time>2016-06-05T19:47:35Z</time>
      </trkpt>
      <trkpt lat="45.7999" lon="0.31393">
        <ele>87.008</ele>
        <time>2016-06-05T19:47:15Z</time>
      </trkpt>
      <trkpt lat="45.80053" lon="0.31305">
        <ele>81.21</ele>
        <time>2016-06-05T19:46:55Z</time>
      </trkpt>
      <trkpt lat="45.80093" lon="0.3137">
        <ele>79.364</ele>
        <time>2016-06-05T19:46:35Z</time>
      </trkpt>
      <trkpt lat="45.80165" lon="0.31428">
        <ele>74.043</ele>
        <time>2016-06-05T19:46:15Z</time>
      </trkpt>
      <trkpt lat="45.80192" lon="0.31293">
        <ele>73.189</ele>
        <time>2016-06-05T19:45:55Z</time>
      </trkpt>
      <trkpt lat="45.80276" lon="0.31235">
        <ele>73.02</ele>
        <time>2016-06-05T19:45:35Z</time>
      </trkpt>
      <trkpt lat="45.80321" lon="0.31267">
        <ele>70.994</ele>
        <time>2016-06-05T19:45:15Z</time>
      </trkpt>
      <trkpt lat="45.8037" lon="0.31346">
        <ele>69.742</ele>
        <time>2016-06-05T19:44:55Z</time>
      </trkpt>
      <trkpt lat="45.80494" lon="0.31473">
        <ele>70.266</ele>
        <time>2016-06-05T19:44:35Z</time>
      </trkpt>
      <trkpt lat="45.80584" lon="0.31533">
        <ele>73.263</ele>
        <time>2016-06-05T19:44:15Z</time>
      </trkpt>
      <trkpt lat="45.80666" lon="0.31535">
        <ele>72.288</ele>
        <time>2016-06-05T19:43:55Z</time>
      </trkpt>
      <trkpt lat="45.80612" lon="0.31754">
        <ele>73.012</ele>
        <time>2016-06-05T19:43:35Z</time>
      </trkpt>
      <trkpt lat="45.80609" lon="0.31844">
        <ele>70.908</ele>
        <time>2016-06-05T19:43:15Z</time>
      </trkpt>
      <trkpt lat="45.8057" lon="0.32074">
        <ele>72.613</ele>
        <time>2016-06-05T19:42:55Z</time>
      </trkpt>
      <trkpt lat="45.8057" lon="0.32144">
        <ele>70.921</ele>
        <time>2016-06-05T19:41:55Z</time>
      </trkpt>
      <trkpt lat="45.80536" lon="0.32245">
        <ele>70.161</ele>
        <time>2016-06-05T19:41:35Z</time>
      </trkpt>
      <trkpt lat="45.80512" lon="0.32432">
        <ele>75.04</ele>
        <time>2016-06-05T19:41:15Z</time>
      </trkpt>
      <trkpt lat="45.80642" lon="0.32492">
        <ele>76.981</ele>
        <time>2016-06-05T19:40:55Z</time>
      </trkpt>
      <trkpt lat="45.80665" lon="0.32447">
        <ele>76.115</ele>
        <time>2016-06-05T19:40:35Z</time>
      </trkpt>
      <trkpt lat="45.80714" lon="0.3246">
        <ele>79.343</ele>
        <time>2016-06-05T19:40:15Z</time>
      </trkpt>
      <trkpt lat="45.80742" lon="0.32404">
        <ele>80.197</ele>
        <time>2016-06-05T19:39:55Z</time>
      </trkpt>
      <trkpt lat="45.80841" lon="0.32456">
        <ele>88.694</ele>
        <time>2016-06-05T19:39:35Z</time>
      </trkpt>
      <trkpt lat="45.8088" lon="0.32383">
        <ele>89.319</ele>
        <time>2016-06-05T19:39:15Z</time>
      </trkpt>
      <trkpt lat="45.80938" lon="0.32421">
        <ele>91.963</ele>
        <time>2016-06-05T19:38:55Z</time>
      </trkpt>
      <trkpt lat="45.81032" lon="0.32404">
        <ele>94.308</ele>
        <time>2016-06-05T19:38:35Z</time>
      </trkpt>
      <trkpt lat="45.81175" lon="0.32464">
        <ele>96.414</ele>
        <time>2016-06-05T19:38:15Z</time>
      </trkpt>
      <trkpt lat="45.81193" lon="0.32421">
        <ele>98.813</ele>
        <time>2016-06-05T19:37:55Z</time>
      </trkpt>
      <trkpt lat="45.81242" lon="0.32453">
        <ele>99.972</ele>
        <time>2016-06-05T19:37:35Z</time>
      </trkpt>
      <trkpt lat="45.81278" lon="0.32438">
        <ele>100.841</ele>
        <time>2016-06-05T19:36:35Z</time>
      </trkpt>
      <trkpt lat="45.81462" lon="0.32539">
        <ele>101.652</ele>
        <time>2016-06-05T19:36:15Z</time>
      </trkpt>
      <trkpt lat="45.81704" lon="0.32664">
        <ele>112.766</ele>
        <time>2016-06-05T19:35:55Z</time>
      </trkpt>
      <trkpt lat="45.81831" lon="0.32586">
        <ele>118.194</ele>
        <time>2016-06-05T19:35:35Z</time>
      </trkpt>
      <trkpt lat="45.82132" lon="0.32365">
        <ele>116.988</ele>
        <time>2016-06-05T19:35:15Z</time>
      </trkpt>
      <trkpt lat="45.82459" lon="0.32213">
        <ele>116.845</ele>
        <time>2016-06-05T19:34:55Z</time>
      </trkpt>
      <trkpt lat="45.82568" lon="0.3218">
        <ele>115.77</ele>
        <time>2016-06-05T19:34:15Z</time>
      </trkpt>
      <trkpt lat="45.82654" lon="0.322">
        <ele>118.044</ele>
        <time>2016-06-05T19:33:55Z</time>
      </trkpt>
      <trkpt lat="45.82683" lon="0.32002">
        <ele>121.008</ele>
        <time>2016-06-05T19:33:35Z</time>
      </trkpt>
      <trkpt lat="45.82776" lon="0.31966">
        <ele>123.917</ele>
        <time>2016-06-05T19:33:15Z</time>
      </trkpt>
      <trkpt lat="45.82832" lon="0.31988">
        <ele>123.043</ele>
        <time>2016-06-05T19:32:55Z</time>
      </trkpt>
      <trkpt lat="45.83017" lon="0.31574">
        <ele>116.282</ele>
        <time>2016-06-05T19:32:35Z</time>
      </trkpt>
      <trkpt lat="45.83074" lon="0.31601">
        <ele>114.399</ele>
        <time>2016-06-05T19:32:15Z</time>
      </trkpt>
      <trkpt lat="45.8312" lon="0.3164">
        <ele>111.72</ele>
        <time>2016-06-05T19:31:55Z</time>
      </trkpt>
      <trkpt lat="45.83232" lon="0.31685">
        <ele>99.184</ele>
        <time>2016-06-05T19:31:35Z</time>
      </trkpt>
      <trkpt lat="45.83319" lon="0.31743">
        <ele>94.082</ele>
        <time>2016-06-05T19:31:15Z</time>
      </trkpt>
      <trkpt lat="45.83351" lon="0.31814">
        <ele>94.546</ele>
        <time>2016-06-05T19:30:55Z</time>
      </trkpt>
      <trkpt lat="45.83438" lon="0.31672">
        <ele>86.553</ele>
        <time>2016-06-05T19:30:35Z</time>
      </trkpt>
      <trkpt lat="45.83482" lon="0.31692">
        <ele>87.358</ele>
        <time>2016-06-05T19:30:15Z</time>
      </trkpt>
      <trkpt lat="45.83519" lon="0.31694">
        <ele>82.632</ele>
        <time>2016-06-05T19:29:55Z</time>
      </trkpt>
      <trkpt lat="45.83598" lon="0.31713">
        <ele>81.908</ele>
        <time>2016-06-05T19:29:35Z</time>
      </trkpt>
      <trkpt lat="45.83679" lon="0.31698">
        <ele>81.416</ele>
        <time>2016-06-05T19:29:15Z</time>
      </trkpt>
      <trkpt lat="45.83776" lon="0.31625">
        <ele>82.106</ele>
        <time>2016-06-05T19:28:55Z</time>
      </trkpt>
      <trkpt lat="45.8388" lon="0.31494">
        <ele>82.864</ele>
        <time>2016-06-05T19:28:35Z</time>
      </trkpt>
      <trkpt lat="45.83942" lon="0.31473">
        <ele>79.144</ele>
        <time>2016-06-05T19:28:15Z</time>
      </trkpt>
      <trkpt lat="45.84138" lon="0.31211">
        <ele>75.085</ele>
        <time>2016-06-05T19:27:55Z</time>
      </trkpt>
      <trkpt lat="45.8421" lon="0.3102">
        <ele>75.049</ele>
        <time>2016-06-05T19:27:35Z</time>
      </trkpt>
      <trkpt lat="45.84256" lon="0.3099">
        <ele>76.257</ele>
        <time>2016-06-05T19:27:15Z</time>
      </trkpt>
      <trkpt lat="45.84295" lon="0.30893">
        <ele>76.581</ele>
        <time>2016-06-05T19:26:55Z</time>
      </trkpt>
      <trkpt lat="45.84356" lon="0.30823">
        <ele>74.658</ele>
        <time>2016-06-05T19:26:35Z</time>
      </trkpt>
      <trkpt lat="45.84476" lon="0.30597">
        <ele>72.833</ele>
        <time>2016-06-05T19:26:15Z</time>
      </trkpt>
      <trkpt lat="45.84563" lon="0.30492">
        <ele>72.717</ele>
        <time>2016-06-05T19:25:55Z</time>
      </trkpt>
      <trkpt lat="45.84608" lon="0.30372">
        <ele>74.808</ele>
        <time>2016-06-05T19:25:35Z</time>
      </trkpt>
      <trkpt lat="45.84645" lon="0.30325">
        <ele>72.217</ele>
        <time>2016-06-05T19:25:15Z</time>
      </trkpt>
      <trkpt lat="45.84651" lon="0.30278">
        <ele>71.098</ele>
        <time>2016-06-05T19:24:55Z</time>
      </trkpt>
      <trkpt lat="45.84708" lon="0.30132">
        <ele>77.718</ele>
        <time>2016-06-05T19:24:35Z</time>
      </trkpt>
      <trkpt lat="45.84745" lon="0.29951">
        <ele>72.492</ele>
        <time>2016-06-05T19:24:15Z</time>
      </trkpt>
      <trkpt lat="45.84805" lon="0.29814">
        <ele>77.053</ele>
        <time>2016-06-05T19:23:55Z</time>
      </trkpt>
      <trkpt lat="45.84727" lon="0.29765">
        <ele>80.057</ele>
        <time>2016-06-05T19:23:35Z</time>
      </trkpt>
      <trkpt lat="45.84763" lon="0.29715">
        <ele>79.285</ele>
        <time>2016-06-05T19:23:15Z</time>
      </trkpt>
      <trkpt lat="45.84784" lon="0.29653">
        <ele>78.849</ele>
        <time>2016-06-05T19:22:55Z</time>
      </trkpt>
      <trkpt lat="45.84847" lon="0.29692">
        <ele>75.656</ele>
        <time>2016-06-05T19:22:35Z</time>
      </trkpt>
      <trkpt lat="45.84897" lon="0.29617">
        <ele>76.071</ele>
        <time>2016-06-05T19:22:15Z</time>
      </trkpt>
      <trkpt lat="45.84927" lon="0.29439">
        <ele>74.775</ele>
        <time>2016-06-05T19:21:55Z</time>
      </trkpt>
      <trkpt lat="45.84918" lon="0.29346">
        <ele>77.908</ele>
        <time>2016-06-05T19:21:35Z</time>
      </trkpt>
      <trkpt lat="45.8498" lon="0.29188">
        <ele>73.719</ele>
        <time>2016-06-05T19:20:55Z</time>
      </trkpt>
      <trkpt lat="45.84914" lon="0.29175">
        <ele>79.281</ele>
        <time>2016-06-05T19:20:15Z</time>
      </trkpt>
      <trkpt lat="45.84963" lon="0.28999">
        <ele>77.691</ele>
        <time>2016-06-05T19:19:35Z</time>
      </trkpt>
      <trkpt lat="45.84915" lon="0.28956">
        <ele>78.238</ele>
        <time>2016-06-05T19:18:55Z</time>
      </trkpt>
      <trkpt lat="45.84915" lon="0.28917">
        <ele>78.389</ele>
        <time>2016-06-05T19:18:35Z</time>
      </trkpt>
      <trkpt lat="45.849" lon="0.28865">
        <ele>82.993</ele>
        <time>2016-06-05T19:17:55Z</time>
      </trkpt>
      <trkpt lat="45.84902" lon="0.28811">
        <ele>88.241</ele>
        <time>2016-06-05T19:17:35Z</time>
      </trkpt>
      <trkpt lat="45.84862" lon="0.28789">
        <ele>93.665</ele>
        <time>2016-06-05T19:17:15Z</time>
      </trkpt>
      <trkpt lat="45.84871" lon="0.28751">
        <ele>94.352</ele>
        <time>2016-06-05T19:16:15Z</time>
      </trkpt>
      <trkpt lat="45.84866" lon="0.28726">
        <ele>93.327</ele>
        <time>2016-06-05T19:15:55Z</time>
      </trkpt>
      <trkpt lat="45.84881" lon="0.28576">
        <ele>85.611</ele>
        <time>2016-06-05T19:15:35Z</time>
      </trkpt>
      <trkpt lat="45.84887" lon="0.28529">
        <ele>87.008</ele>
        <time>2016-06-05T19:15:15Z</time>
      </trkpt>
      <trkpt lat="45.84911" lon="0.28503">
        <ele>87.114</ele>
        <time>2016-06-05T19:14:55Z</time>
      </trkpt>
      <trkpt lat="45.84942" lon="0.28428">
        <ele>83.104</ele>
        <time>2016-06-05T19:14:35Z</time>
      </trkpt>
      <trkpt lat="45.84965" lon="0.28237">
        <ele>81.053</ele>
        <time>2016-06-05T19:14:15Z</time>
      </trkpt>
      <trkpt lat="45.84995" lon="0.2819">
        <ele>76.029</ele>
        <time>2016-06-05T19:13:55Z</time>
      </trkpt>
      <trkpt lat="45.85002" lon="0.28052">
        <ele>73.85</ele>
        <time>2016-06-05T19:13:35Z</time>
      </trkpt>
      <trkpt lat="45.85035" lon="0.27902">
        <ele>70.024</ele>
        <time>2016-06-05T19:13:15Z</time>
      </trkpt>
      <trkpt lat="45.85047" lon="0.27525">
        <ele>68.482</ele>
        <time>2016-06-05T19:12:55Z</time>
      </trkpt>
      <trkpt lat="45.85035" lon="0.27443">
        <ele>70.536</ele>
        <time>2016-06-05T19:12:35Z</time>
      </trkpt>
      <trkpt lat="45.85054" lon="0.27361">
        <ele>73.143</ele>
        <time>2016-06-05T19:12:15Z</time>
      </trkpt>
      <trkpt lat="45.85086" lon="0.27312">
        <ele>76.978</ele>
        <time>2016-06-05T19:11:55Z</time>
      </trkpt>
      <trkpt lat="45.85155" lon="0.27239">
        <ele>78.652</ele>
        <time>2016-06-05T19:11:35Z</time>
      </trkpt>
      <trkpt lat="45.85153" lon="0.27194">
        <ele>84.508</ele>
        <time>2016-06-05T19:10:55Z</time>
      </trkpt>
      <trkpt lat="45.85277" lon="0.2698">
        <ele>81.724</ele>
        <time>2016-06-05T19:10:35Z</time>
      </trkpt>
      <trkpt lat="45.85317" lon="0.26932">
        <ele>77.604</ele>
        <time>2016-06-05T19:10:15Z</time>
      </trkpt>
      <trkpt lat="45.8534" lon="0.26874">
        <ele>81.469</ele>
        <time>2016-06-05T19:09:55Z</time>
      </trkpt>
      <trkpt lat="45.85368" lon="0.26836">
        <ele>80.297</ele>
        <time>2016-06-05T19:09:35Z</time>
      </trkpt>
      <trkpt lat="45.85386" lon="0.26791">
        <ele>82.478</ele>
        <time>2016-06-05T19:09:15Z</time>
      </trkpt>
      <trkpt lat="45.85456" lon="0.26769">
        <ele>81.472</ele>
        <time>2016-06-05T19:08:55Z</time>
      </trkpt>
      <trkpt lat="45.85504" lon="0.26759">
        <ele>78.87</ele>
        <time>2016-06-05T19:08:35Z</time>
      </trkpt>
      <trkpt lat="45.85589" lon="0.26902">
        <ele>69.534</ele>
        <time>2016-06-05T19:08:15Z</time>
      </trkpt>
      <trkpt lat="45.85619" lon="0.26934">
        <ele>70.261</ele>
        <time>2016-06-05T19:07:55Z</time>
      </trkpt>
      <trkpt lat="45.85658" lon="0.26894">
        <ele>68.266</ele>
        <time>2016-06-05T19:07:35Z</time>
      </trkpt>
      <trkpt lat="45.85718" lon="0.26784">
        <ele>68.07</ele>
        <time>2016-06-05T19:07:15Z</time>
      </trkpt>
      <trkpt lat="45.85755" lon="0.26675">
        <ele>67.108</ele>
        <time>2016-06-05T19:06:55Z</time>
      </trkpt>
      <trkpt lat="45.85815" lon="0.26537">
        <ele>69.021</ele>
        <time>2016-06-05T19:06:35Z</time>
      </trkpt>
      <trkpt lat="45.85839" lon="0.26512">
        <ele>72.829</ele>
        <time>2016-06-05T19:06:15Z</time>
      </trkpt>
      <trkpt lat="45.85852" lon="0.26447">
        <ele>75.247</ele>
        <time>2016-06-05T19:04:15Z</time>
      </trkpt>
      <trkpt lat="45.85905" lon="0.26295">
        <ele>75.725</ele>
        <time>2016-06-05T19:03:55Z</time>
      </trkpt>
      <trkpt lat="45.85905" lon="0.26295">
        <ele>75.796</ele>
        <time>2016-06-05T19:03:35Z</time>
      </trkpt>
      <trkpt lat="45.85938" lon="0.26256">
        <ele>77.11</ele>
        <time>2016-06-05T19:03:15Z</time>
      </trkpt>
      <trkpt lat="45.85968" lon="0.26171">
        <ele>70.888</ele>
        <time>2016-06-05T19:02:55Z</time>
      </trkpt>
      <trkpt lat="45.86069" lon="0.261">
        <ele>73.512</ele>
        <time>2016-06-05T19:01:55Z</time>
      </trkpt>
      <trkpt lat="45.86068" lon="0.26061">
        <ele>67.259</ele>
        <time>2016-06-05T19:01:35Z</time>
      </trkpt>
      <trkpt lat="45.86141" lon="0.26023">
        <ele>65.994</ele>
        <time>2016-06-05T19:01:15Z</time>
      </trkpt>
      <trkpt lat="45.86202" lon="0.25939">
        <ele>65.518</ele>
        <time>2016-06-05T19:00:55Z</time>
      </trkpt>
      <trkpt lat="45.86395" lon="0.25793">
        <ele>67.008</ele>
        <time>2016-06-05T19:00:35Z</time>
      </trkpt>
      <trkpt lat="45.86473" lon="0.25741">
        <ele>67.814</ele>
        <time>2016-06-05T19:00:15Z</time>
      </trkpt>
      <trkpt lat="45.86543" lon="0.25632">
        <ele>68.304</ele>
        <time>2016-06-05T18:59:55Z</time>
      </trkpt>
      <trkpt lat="45.86629" lon="0.25555">
        <ele>72.224</ele>
        <time>2016-06-05T18:59:35Z</time>
      </trkpt>
      <trkpt lat="45.86688" lon="0.25578">
        <ele>75.075</ele>
        <time>2016-06-05T18:59:15Z</time>
      </trkpt>
      <trkpt lat="45.86686" lon="0.25542">
        <ele>74.976</ele>
        <time>2016-06-05T18:58:55Z</time>
      </trkpt>
      <trkpt lat="45.86698" lon="0.25482">
        <ele>74.41</ele>
        <time>2016-06-05T18:58:35Z</time>
      </trkpt>
      <trkpt lat="45.86761" lon="0.25377">
        <ele>75.158</ele>
        <time>2016-06-05T18:58:15Z</time>
      </trkpt>
      <trkpt lat="45.86825" lon="0.2531">
        <ele>76.112</ele>
        <time>2016-06-05T18:57:55Z</time>
      </trkpt>
      <trkpt lat="45.86854" lon="0.25233">
        <ele>75.269</ele>
        <time>2016-06-05T18:57:35Z</time>
      </trkpt>
      <trkpt lat="45.87003" lon="0.24982">
        <ele>73.974</ele>
        <time>2016-06-05T18:57:15Z</time>
      </trkpt>
      <trkpt lat="45.87018" lon="0.2493">
        <ele>72.378</ele>
        <time>2016-06-05T18:56:55Z</time>
      </trkpt>
      <trkpt lat="45.8706" lon="0.24877">
        <ele>70.108</ele>
        <time>2016-06-05T18:56:35Z</time>
      </trkpt>
      <trkpt lat="45.87088" lon="0.24875">
        <ele>72.608</ele>
        <time>2016-06-05T18:56:15Z</time>
      </trkpt>
      <trkpt lat="45.87127" lon="0.24917">
        <ele>77.662</ele>
        <time>2016-06-05T18:55:55Z</time>
      </trkpt>
      <trkpt lat="45.87169" lon="0.24935">
        <ele>79.122</ele>
        <time>2016-06-05T18:55:35Z</time>
      </trkpt>
      <trkpt lat="45.87197" lon="0.24887">
        <ele>83.427</ele>
        <time>2016-06-05T18:55:15Z</time>
      </trkpt>
      <trkpt lat="45.87206" lon="0.24823">
        <ele>86.828</ele>
        <time>2016-06-05T18:54:55Z</time>
      </trkpt>
      <trkpt lat="45.87235" lon="0.2478">
        <ele>91.712</ele>
        <time>2016-06-05T18:54:35Z</time>
      </trkpt>
      <trkpt lat="45.87279" lon="0.24754">
        <ele>93.96</ele>
        <time>2016-06-05T18:54:15Z</time>
      </trkpt>
      <trkpt lat="45.873" lon="0.24709">
        <ele>94.314</ele>
        <time>2016-06-05T18:53:55Z</time>
      </trkpt>
      <trkpt lat="45.87324" lon="0.24638">
        <ele>97.731</ele>
        <time>2016-06-05T18:53:35Z</time>
      </trkpt>
      <trkpt lat="45.87581" lon="0.24623">
        <ele>98.996</ele>
        <time>2016-06-05T18:53:15Z</time>
      </trkpt>
      <trkpt lat="45.8768" lon="0.24675">
        <ele>102.25</ele>
        <time>2016-06-05T18:52:55Z</time>
      </trkpt>
      <trkpt lat="45.87693" lon="0.24806">
        <ele>99.008</ele>
        <time>2016-06-05T18:52:35Z</time>
      </trkpt>
      <trkpt lat="45.87774" lon="0.2478">
        <ele>101.614</ele>
        <time>2016-06-05T18:52:15Z</time>
      </trkpt>
      <trkpt lat="45.87878" lon="0.24825">
        <ele>104.722</ele>
        <time>2016-06-05T18:51:55Z</time>
      </trkpt>
      <trkpt lat="45.87955" lon="0.24905">
        <ele>101.542</ele>
        <time>2016-06-05T18:51:35Z</time>
      </trkpt>
      <trkpt lat="45.88028" lon="0.24937">
        <ele>97.018</ele>
        <time>2016-06-05T18:51:15Z</time>
      </trkpt>
      <trkpt lat="45.88168" lon="0.24952">
        <ele>93.949</ele>
        <time>2016-06-05T18:50:55Z</time>
      </trkpt>
      <trkpt lat="45.88227" lon="0.24962">
        <ele>91.973</ele>
        <time>2016-06-05T18:50:35Z</time>
      </trkpt>
      <trkpt lat="45.88274" lon="0.24926">
        <ele>92.671</ele>
        <time>2016-06-05T18:50:15Z</time>
      </trkpt>
      <trkpt lat="45.88367" lon="0.24902">
        <ele>91.195</ele>
        <time>2016-06-05T18:49:55Z</time>
      </trkpt>
      <trkpt lat="45.88461" lon="0.24894">
        <ele>89.332</ele>
        <time>2016-06-05T18:49:35Z</time>
      </trkpt>
      <trkpt lat="45.88628" lon="0.24928">
        <ele>90.887</ele>
        <time>2016-06-05T18:49:15Z</time>
      </trkpt>
      <trkpt lat="45.88672" lon="0.24726">
        <ele>84.061</ele>
        <time>2016-06-05T18:48:55Z</time>
      </trkpt>
      <trkpt lat="45.88725" lon="0.24681">
        <ele>80.508</ele>
        <time>2016-06-05T18:48:35Z</time>
      </trkpt>
      <trkpt lat="45.88926" lon="0.24548">
        <ele>73.011</ele>
        <time>2016-06-05T18:48:15Z</time>
      </trkpt>
      <trkpt lat="45.88987" lon="0.24413">
        <ele>73.356</ele>
        <time>2016-06-05T18:47:55Z</time>
      </trkpt>
      <trkpt lat="45.89067" lon="0.24368">
        <ele>68.354</ele>
        <time>2016-06-05T18:47:35Z</time>
      </trkpt>
      <trkpt lat="45.89064" lon="0.24295">
        <ele>69.231</ele>
        <time>2016-06-05T18:47:15Z</time>
      </trkpt>
      <trkpt lat="45.89135" lon="0.24329">
        <ele>70.932</ele>
        <time>2016-06-05T18:46:55Z</time>
      </trkpt>
      <trkpt lat="45.89123" lon="0.24276">
        <ele>70.036</ele>
        <time>2016-06-05T18:46:35Z</time>
      </trkpt>
      <trkpt lat="45.89153" lon="0.24143">
        <ele>69.164</ele>
        <time>2016-06-05T18:46:15Z</time>
      </trkpt>
      <trkpt lat="45.89141" lon="0.24083">
        <ele>66.078</ele>
        <time>2016-06-05T18:45:55Z</time>
      </trkpt>
      <trkpt lat="45.89109" lon="0.24025">
        <ele>64.175</ele>
        <time>2016-06-05T18:45:35Z</time>
      </trkpt>
      <trkpt lat="45.89154" lon="0.2395">
        <ele>62.72</ele>
        <time>2016-06-05T18:45:15Z</time>
      </trkpt>
      <trkpt lat="45.89236" lon="0.23857">
        <ele>65.564</ele>
        <time>2016-06-05T18:44:55Z</time>
      </trkpt>
      <trkpt lat="45.89318" lon="0.23804">
        <ele>63.308</ele>
        <time>2016-06-05T18:44:35Z</time>
      </trkpt>
      <trkpt lat="45.89398" lon="0.2381">
        <ele>69.517</ele>
        <time>2016-06-05T18:44:15Z</time>
      </trkpt>
      <trkpt lat="45.894" lon="0.23754">
        <ele>67.943</ele>
        <time>2016-06-05T18:43:55Z</time>
      </trkpt>
      <trkpt lat="45.89517" lon="0.23782">
        <ele>79.082</ele>
        <time>2016-06-05T18:43:35Z</time>
      </trkpt>
      <trkpt lat="45.89639" lon="0.23849">
        <ele>92.097</ele>
        <time>2016-06-05T18:43:15Z</time>
      </trkpt>
      <trkpt lat="45.89684" lon="0.23847">
        <ele>93.038</ele>
        <time>2016-06-05T18:42:55Z</time>
      </trkpt>
      <trkpt lat="45.89717" lon="0.23862">
        <ele>92.272</ele>
        <time>2016-06-05T18:42:35Z</time>
      </trkpt>
      <trkpt lat="45.89726" lon="0.23927">
        <ele>93.23</ele>
        <time>2016-06-05T18:42:15Z</time>
      </trkpt>
      <trkpt lat="45.89837" lon="0.23937">
        <ele>92.434</ele>
        <time>2016-06-05T18:41:55Z</time>
      </trkpt>
      <trkpt lat="45.89956" lon="0.23995">
        <ele>84.241</ele>
        <time>2016-06-05T18:41:35Z</time>
      </trkpt>
      <trkpt lat="45.89986" lon="0.23997">
        <ele>82.896</ele>
        <time>2016-06-05T18:41:15Z</time>
      </trkpt>
      <trkpt lat="45.90011" lon="0.23857">
        <ele>74.65</ele>
        <time>2016-06-05T18:40:55Z</time>
      </trkpt>
      <trkpt lat="45.90022" lon="0.23718">
        <ele>73.808</ele>
        <time>2016-06-05T18:40:35Z</time>
      </trkpt>
      <trkpt lat="45.9005" lon="0.23596">
        <ele>71.817</ele>
        <time>2016-06-05T18:40:15Z</time>
      </trkpt>
      <trkpt lat="45.90064" lon="0.23454">
        <ele>70.861</ele>
        <time>2016-06-05T18:39:55Z</time>
      </trkpt>
      <trkpt lat="45.90084" lon="0.23372">
        <ele>71.048</ele>
        <time>2016-06-05T18:39:35Z</time>
      </trkpt>
      <trkpt lat="45.90087" lon="0.23308">
        <ele>70.211</ele>
        <time>2016-06-05T18:39:15Z</time>
      </trkpt>
      <trkpt lat="45.90065" lon="0.23171">
        <ele>70.332</ele>
        <time>2016-06-05T18:38:55Z</time>
      </trkpt>
      <trkpt lat="45.90072" lon="0.23113">
        <ele>71.016</ele>
        <time>2016-06-05T18:38:35Z</time>
      </trkpt>
      <trkpt lat="45.90137" lon="0.22991">
        <ele>71.954</ele>
        <time>2016-06-05T18:38:15Z</time>
      </trkpt>
      <trkpt lat="45.90179" lon="0.2287">
        <ele>72.758</ele>
        <time>2016-06-05T18:37:55Z</time>
      </trkpt>
      <trkpt lat="45.90181" lon="0.2284">
        <ele>73.445</ele>
        <time>2016-06-05T18:37:35Z</time>
      </trkpt>
      <trkpt lat="45.90186" lon="0.22744">
        <ele>69.51</ele>
        <time>2016-06-05T18:37:15Z</time>
      </trkpt>
      <trkpt lat="45.90232" lon="0.22649">
        <ele>69.584</ele>
        <time>2016-06-05T18:36:55Z</time>
      </trkpt>
      <trkpt lat="45.90259" lon="0.22559">
        <ele>66.208</ele>
        <time>2016-06-05T18:36:35Z</time>
      </trkpt>
      <trkpt lat="45.90161" lon="0.22467">
        <ele>63.317</ele>
        <time>2016-06-05T18:36:15Z</time>
      </trkpt>
      <trkpt lat="45.90147" lon="0.22364">
        <ele>63.889</ele>
        <time>2016-06-05T18:35:55Z</time>
      </trkpt>
      <trkpt lat="45.90072" lon="0.22257">
        <ele>73.785</ele>
        <time>2016-06-05T18:35:35Z</time>
      </trkpt>
      <trkpt lat="45.90072" lon="0.22257">
        <ele>73.761</ele>
        <time>2016-06-05T18:35:15Z</time>
      </trkpt>
      <trkpt lat="45.90117" lon="0.22173">
        <ele>73.032</ele>
        <time>2016-06-05T18:34:55Z</time>
      </trkpt>
      <trkpt lat="45.90341" lon="0.21875">
        <ele>76.756</ele>
        <time>2016-06-05T18:34:35Z</time>
      </trkpt>
      <trkpt lat="45.90425" lon="0.2183">
        <ele>78.924</ele>
        <time>2016-06-05T18:34:15Z</time>
      </trkpt>
      <trkpt lat="45.90522" lon="0.21866">
        <ele>70.838</ele>
        <time>2016-06-05T18:33:55Z</time>
      </trkpt>
      <trkpt lat="45.90589" lon="0.21851">
        <ele>72.565</ele>
        <time>2016-06-05T18:33:15Z</time>
      </trkpt>
      <trkpt lat="45.9042" lon="0.21744">
        <ele>92.31</ele>
        <time>2016-06-05T18:32:55Z</time>
      </trkpt>
      <trkpt lat="45.90394" lon="0.21628">
        <ele>91.174</ele>
        <time>2016-06-05T18:32:35Z</time>
      </trkpt>
      <trkpt lat="45.90425" lon="0.21579">
        <ele>88.808</ele>
        <time>2016-06-05T18:32:15Z</time>
      </trkpt>
      <trkpt lat="45.90474" lon="0.21549">
        <ele>89.817</ele>
        <time>2016-06-05T18:31:55Z</time>
      </trkpt>
      <trkpt lat="45.90514" lon="0.21512">
        <ele>89.425</ele>
        <time>2016-06-05T18:31:35Z</time>
      </trkpt>
      <trkpt lat="45.90585" lon="0.21433">
        <ele>87.683</ele>
        <time>2016-06-05T18:31:15Z</time>
      </trkpt>
      <trkpt lat="45.90628" lon="0.2139">
        <ele>88.275</ele>
        <time>2016-06-05T18:30:55Z</time>
      </trkpt>
      <trkpt lat="45.90665" lon="0.21289">
        <ele>88.476</ele>
        <time>2016-06-05T18:30:35Z</time>
      </trkpt>
      <trkpt lat="45.90709" lon="0.20943">
        <ele>96.54</ele>
        <time>2016-06-05T18:30:15Z</time>
      </trkpt>
      <trkpt lat="45.90746" lon="0.20838">
        <ele>100.618</ele>
        <time>2016-06-05T18:29:55Z</time>
      </trkpt>
      <trkpt lat="45.90791" lon="0.20695">
        <ele>96.962</ele>
        <time>2016-06-05T18:29:35Z</time>
      </trkpt>
      <trkpt lat="45.9084" lon="0.20471">
        <ele>98.759</ele>
        <time>2016-06-05T18:29:15Z</time>
      </trkpt>
      <trkpt lat="45.90865" lon="0.20403">
        <ele>101.114</ele>
        <time>2016-06-05T18:28:55Z</time>
      </trkpt>
      <trkpt lat="45.90874" lon="0.20295">
        <ele>103.288</ele>
        <time>2016-06-05T18:28:35Z</time>
      </trkpt>
      <trkpt lat="45.90916" lon="0.20156">
        <ele>102.708</ele>
        <time>2016-06-05T18:28:15Z</time>
      </trkpt>
      <trkpt lat="45.90928" lon="0.20029">
        <ele>101.617</ele>
        <time>2016-06-05T18:27:55Z</time>
      </trkpt>
      <trkpt lat="45.90937" lon="0.19986">
        <ele>103.789</ele>
        <time>2016-06-05T18:27:35Z</time>
      </trkpt>
      <trkpt lat="45.90783" lon="0.19918">
        <ele>105.828</ele>
        <time>2016-06-05T18:27:15Z</time>
      </trkpt>
      <trkpt lat="45.90683" lon="0.19862">
        <ele>106.652</ele>
        <time>2016-06-05T18:26:55Z</time>
      </trkpt>
      <trkpt lat="45.90631" lon="0.19823">
        <ele>106.493</ele>
        <time>2016-06-05T18:26:35Z</time>
      </trkpt>
      <trkpt lat="45.90682" lon="0.19718">
        <ele>108.247</ele>
        <time>2016-06-05T18:26:15Z</time>
      </trkpt>
      <trkpt lat="45.90749" lon="0.19544">
        <ele>110.585</ele>
        <time>2016-06-05T18:25:55Z</time>
      </trkpt>
      <trkpt lat="45.90807" lon="0.1933">
        <ele>109.099</ele>
        <time>2016-06-05T18:25:35Z</time>
      </trkpt>
      <trkpt lat="45.90821" lon="0.19231">
        <ele>109.956</ele>
        <time>2016-06-05T18:25:15Z</time>
      </trkpt>
      <trkpt lat="45.90983" lon="0.19321">
        <ele>109.781</ele>
        <time>2016-06-05T18:24:55Z</time>
      </trkpt>
      <trkpt lat="45.91001" lon="0.19233">
        <ele>112.555</ele>
        <time>2016-06-05T18:24:35Z</time>
      </trkpt>
      <trkpt lat="45.91045" lon="0.19098">
        <ele>116.308</ele>
        <time>2016-06-05T18:24:15Z</time>
      </trkpt>
      <trkpt lat="45.91065" lon="0.18993">
        <ele>116.523</ele>
        <time>2016-06-05T18:23:55Z</time>
      </trkpt>
      <trkpt lat="45.91062" lon="0.18944">
        <ele>117.249</ele>
        <time>2016-06-05T18:23:35Z</time>
      </trkpt>
      <trkpt lat="45.91082" lon="0.1886">
        <ele>117.195</ele>
        <time>2016-06-05T18:23:15Z</time>
      </trkpt>
      <trkpt lat="45.91085" lon="0.1877">
        <ele>117.978</ele>
        <time>2016-06-05T18:22:55Z</time>
      </trkpt>
      <trkpt lat="45.91058" lon="0.18634">
        <ele>118.039</ele>
        <time>2016-06-05T18:22:35Z</time>
      </trkpt>
      <trkpt lat="45.91009" lon="0.18484">
        <ele>123.943</ele>
        <time>2016-06-05T18:22:15Z</time>
      </trkpt>
      <trkpt lat="45.91036" lon="0.18339">
        <ele>126.811</ele>
        <time>2016-06-05T18:21:55Z</time>
      </trkpt>
      <trkpt lat="45.91073" lon="0.18272">
        <ele>122.065</ele>
        <time>2016-06-05T18:21:35Z</time>
      </trkpt>
      <trkpt lat="45.91136" lon="0.18143">
        <ele>117.152</ele>
        <time>2016-06-05T18:21:15Z</time>
      </trkpt>
      <trkpt lat="45.91221" lon="0.1804">
        <ele>110.767</ele>
        <time>2016-06-05T18:20:55Z</time>
      </trkpt>
      <trkpt lat="45.91285" lon="0.17942">
        <ele>108.251</ele>
        <time>2016-06-05T18:20:35Z</time>
      </trkpt>
      <trkpt lat="45.91363" lon="0.17663">
        <ele>105.908</ele>
        <time>2016-06-05T18:20:15Z</time>
      </trkpt>
      <trkpt lat="45.91382" lon="0.17414">
        <ele>95.217</ele>
        <time>2016-06-05T18:19:55Z</time>
      </trkpt>
      <trkpt lat="45.914" lon="0.17252">
        <ele>90.552</ele>
        <time>2016-06-05T18:19:35Z</time>
      </trkpt>
      <trkpt lat="45.91286" lon="0.17231">
        <ele>89.258</ele>
        <time>2016-06-05T18:19:15Z</time>
      </trkpt>
      <trkpt lat="45.91065" lon="0.16982">
        <ele>96.886</ele>
        <time>2016-06-05T18:18:55Z</time>
      </trkpt>
      <trkpt lat="45.90947" lon="0.16753">
        <ele>93.967</ele>
        <time>2016-06-05T18:18:35Z</time>
      </trkpt>
      <trkpt lat="45.90888" lon="0.16596">
        <ele>86.561</ele>
        <time>2016-06-05T18:18:15Z</time>
      </trkpt>
      <trkpt lat="45.90767" lon="0.16487">
        <ele>82.619</ele>
        <time>2016-06-05T18:17:55Z</time>
      </trkpt>
      <trkpt lat="45.90514" lon="0.16337">
        <ele>82.153</ele>
        <time>2016-06-05T18:17:35Z</time>
      </trkpt>
      <trkpt lat="45.90425" lon="0.16221">
        <ele>78.66</ele>
        <time>2016-06-05T18:17:15Z</time>
      </trkpt>
      <trkpt lat="45.90377" lon="0.16045">
        <ele>74.635</ele>
        <time>2016-06-05T18:16:55Z</time>
      </trkpt>
      <trkpt lat="45.90329" lon="0.15929">
        <ele>71.659</ele>
        <time>2016-06-05T18:16:35Z</time>
      </trkpt>
      <trkpt lat="45.90392" lon="0.15768">
        <ele>72.908</ele>
        <time>2016-06-05T18:16:15Z</time>
      </trkpt>
      <trkpt lat="45.90404" lon="0.15633">
        <ele>58.91</ele>
        <time>2016-06-05T18:15:55Z</time>
      </trkpt>
      <trkpt lat="45.9044" lon="0.15525">
        <ele>59.855</ele>
        <time>2016-06-05T18:15:35Z</time>
      </trkpt>
      <trkpt lat="45.90552" lon="0.15255">
        <ele>77.234</ele>
        <time>2016-06-05T18:15:15Z</time>
      </trkpt>
      <trkpt lat="45.90616" lon="0.15133">
        <ele>88.412</ele>
        <time>2016-06-05T18:14:55Z</time>
      </trkpt>
      <trkpt lat="45.90807" lon="0.14633">
        <ele>71.823</ele>
        <time>2016-06-05T18:14:35Z</time>
      </trkpt>
      <trkpt lat="45.90947" lon="0.14435">
        <ele>74.377</ele>
        <time>2016-06-05T18:14:15Z</time>
      </trkpt>
      <trkpt lat="45.91024" lon="0.14302">
        <ele>78.725</ele>
        <time>2016-06-05T18:13:55Z</time>
      </trkpt>
      <trkpt lat="45.9114" lon="0.14135">
        <ele>80.989</ele>
        <time>2016-06-05T18:13:35Z</time>
      </trkpt>
      <trkpt lat="45.9118" lon="0.14041">
        <ele>83.356</ele>
        <time>2016-06-05T18:13:15Z</time>
      </trkpt>
      <trkpt lat="45.91216" lon="0.13897">
        <ele>79.871</ele>
        <time>2016-06-05T18:12:55Z</time>
      </trkpt>
      <trkpt lat="45.91231" lon="0.13886">
        <ele>80.255</ele>
        <time>2016-06-05T18:12:35Z</time>
      </trkpt>
      <trkpt lat="45.9133" lon="0.13468">
        <ele>68.308</ele>
        <time>2016-06-05T18:12:15Z</time>
      </trkpt>
      <trkpt lat="45.91388" lon="0.13283">
        <ele>67.222</ele>
        <time>2016-06-05T18:11:55Z</time>
      </trkpt>
      <trkpt lat="45.91416" lon="0.13255">
        <ele>67.257</ele>
        <time>2016-06-05T18:11:15Z</time>
      </trkpt>
      <trkpt lat="45.91573" lon="0.12826">
        <ele>63.694</ele>
        <time>2016-06-05T18:10:55Z</time>
      </trkpt>
      <trkpt lat="45.91448" lon="0.12721">
        <ele>63.095</ele>
        <time>2016-06-05T18:10:35Z</time>
      </trkpt>
      <trkpt lat="45.91443" lon="0.1268">
        <ele>63.046</ele>
        <time>2016-06-05T18:10:15Z</time>
      </trkpt>
      <trkpt lat="45.91419" lon="0.12618">
        <ele>63.95</ele>
        <time>2016-06-05T18:09:55Z</time>
      </trkpt>
      <trkpt lat="45.91433" lon="0.12569">
        <ele>62.588</ele>
        <time>2016-06-05T18:09:35Z</time>
      </trkpt>
      <trkpt lat="45.91409" lon="0.12498">
        <ele>61.312</ele>
        <time>2016-06-05T18:09:15Z</time>
      </trkpt>
      <trkpt lat="45.91227" lon="0.12367">
        <ele>62.579</ele>
        <time>2016-06-05T18:08:35Z</time>
      </trkpt>
      <trkpt lat="45.91097" lon="0.12326">
        <ele>62.974</ele>
        <time>2016-06-05T18:08:15Z</time>
      </trkpt>
      <trkpt lat="45.90834" lon="0.12285">
        <ele>58.368</ele>
        <time>2016-06-05T18:07:55Z</time>
      </trkpt>
      <trkpt lat="45.90486" lon="0.12058">
        <ele>58.108</ele>
        <time>2016-06-05T18:07:35Z</time>
      </trkpt>
      <trkpt lat="45.90337" lon="0.11886">
        <ele>60.605</ele>
        <time>2016-06-05T18:07:15Z</time>
      </trkpt>
      <trkpt lat="45.90344" lon="0.11845">
        <ele>57.741</ele>
        <time>2016-06-05T18:06:55Z</time>
      </trkpt>
      <trkpt lat="45.90417" lon="0.11867">
        <ele>56.221</ele>
        <time>2016-06-05T18:06:35Z</time>
      </trkpt>
      <trkpt lat="45.90546" lon="0.11822">
        <ele>57.046</ele>
        <time>2016-06-05T18:06:15Z</time>
      </trkpt>
      <trkpt lat="45.90616" lon="0.11813">
        <ele>56.267</ele>
        <time>2016-06-05T18:05:55Z</time>
      </trkpt>
      <trkpt lat="45.90599" lon="0.11477">
        <ele>57.261</ele>
        <time>2016-06-05T18:05:35Z</time>
      </trkpt>
      <trkpt lat="45.9058" lon="0.11386">
        <ele>62.069</ele>
        <time>2016-06-05T18:05:15Z</time>
      </trkpt>
      <trkpt lat="45.90609" lon="0.11378">
        <ele>62.443</ele>
        <time>2016-06-05T18:04:55Z</time>
      </trkpt>
      <trkpt lat="45.90598" lon="0.11281">
        <ele>65.07</ele>
        <time>2016-06-05T18:04:35Z</time>
      </trkpt>
      <trkpt lat="45.90618" lon="0.11249">
        <ele>64.895</ele>
        <time>2016-06-05T18:04:15Z</time>
      </trkpt>
      <trkpt lat="45.90729" lon="0.10594">
        <ele>74.689</ele>
        <time>2016-06-05T18:03:55Z</time>
      </trkpt>
      <trkpt lat="45.90792" lon="0.10161">
        <ele>95.808</ele>
        <time>2016-06-05T18:03:35Z</time>
      </trkpt>
      <trkpt lat="45.90676" lon="0.1006">
        <ele>93.707</ele>
        <time>2016-06-05T18:03:15Z</time>
      </trkpt>
      <trkpt lat="45.90565" lon="0.10026">
        <ele>82.761</ele>
        <time>2016-06-05T18:02:55Z</time>
      </trkpt>
      <trkpt lat="45.90547" lon="0.10006">
        <ele>81.931</ele>
        <time>2016-06-05T18:02:35Z</time>
      </trkpt>
      <trkpt lat="45.90555" lon="0.09964">
        <ele>84.338</ele>
        <time>2016-06-05T18:02:15Z</time>
      </trkpt>
      <trkpt lat="45.90547" lon="0.09908">
        <ele>85.819</ele>
        <time>2016-06-05T18:01:55Z</time>
      </trkpt>
      <trkpt lat="45.90561" lon="0.09805">
        <ele>93.263</ele>
        <time>2016-06-05T18:01:35Z</time>
      </trkpt>
      <trkpt lat="45.90594" lon="0.09693">
        <ele>97.041</ele>
        <time>2016-06-05T18:01:15Z</time>
      </trkpt>
      <trkpt lat="45.90594" lon="0.09693">
        <ele>97.035</ele>
        <time>2016-06-05T18:00:55Z</time>
      </trkpt>
      <trkpt lat="45.90615" lon="0.09543">
        <ele>99.432</ele>
        <time>2016-06-05T18:00:35Z</time>
      </trkpt>
      <trkpt lat="45.90697" lon="0.09534">
        <ele>102.387</ele>
        <time>2016-06-05T18:00:15Z</time>
      </trkpt>
      <trkpt lat="45.90912" lon="0.09427">
        <ele>108.441</ele>
        <time>2016-06-05T17:59:55Z</time>
      </trkpt>
      <trkpt lat="45.90962" lon="0.09482">
        <ele>109.008</ele>
        <time>2016-06-05T17:59:35Z</time>
      </trkpt>
      <trkpt lat="45.91139" lon="0.09337">
        <ele>115.111</ele>
        <time>2016-06-05T17:59:15Z</time>
      </trkpt>
      <trkpt lat="45.9112" lon="0.09217">
        <ele>113.056</ele>
        <time>2016-06-05T17:58:55Z</time>
      </trkpt>
      <trkpt lat="45.91389" lon="0.08942">
        <ele>114.154</ele>
        <time>2016-06-05T17:58:35Z</time>
      </trkpt>
      <trkpt lat="45.91316" lon="0.08691">
        <ele>110.824</ele>
        <time>2016-06-05T17:57:55Z</time>
      </trkpt>
      <trkpt lat="45.91301" lon="0.08567">
        <ele>115.385</ele>
        <time>2016-06-05T17:57:35Z</time>
      </trkpt>
      <trkpt lat="45.91248" lon="0.0847">
        <ele>114.829</ele>
        <time>2016-06-05T17:57:15Z</time>
      </trkpt>
      <trkpt lat="45.91415" lon="0.07655">
        <ele>112.927</ele>
        <time>2016-06-05T17:56:55Z</time>
      </trkpt>
      <trkpt lat="45.91434" lon="0.07601">
        <ele>114.311</ele>
        <time>2016-06-05T17:56:35Z</time>
      </trkpt>
      <trkpt lat="45.91454" lon="0.07468">
        <ele>116.348</ele>
        <time>2016-06-05T17:56:15Z</time>
      </trkpt>
      <trkpt lat="45.9148" lon="0.07371">
        <ele>118.263</ele>
        <time>2016-06-05T17:55:55Z</time>
      </trkpt>
      <trkpt lat="45.91521" lon="0.07166">
        <ele>120.337</ele>
        <time>2016-06-05T17:55:35Z</time>
      </trkpt>
      <trkpt lat="45.91551" lon="0.07153">
        <ele>120.508</ele>
        <time>2016-06-05T17:55:15Z</time>
      </trkpt>
      <trkpt lat="45.91592" lon="0.07163">
        <ele>122.903</ele>
        <time>2016-06-05T17:54:55Z</time>
      </trkpt>
      <trkpt lat="45.91636" lon="0.07155">
        <ele>125.021</ele>
        <time>2016-06-05T17:54:35Z</time>
      </trkpt>
      <trkpt lat="45.91731" lon="0.07135">
        <ele>125.211</ele>
        <time>2016-06-05T17:54:15Z</time>
      </trkpt>
      <trkpt lat="45.91824" lon="0.07166">
        <ele>127.357</ele>
        <time>2016-06-05T17:53:55Z</time>
      </trkpt>
      <trkpt lat="45.91906" lon="0.07198">
        <ele>129.698</ele>
        <time>2016-06-05T17:53:35Z</time>
      </trkpt>
      <trkpt lat="45.92101" lon="0.07172">
        <ele>139.482</ele>
        <time>2016-06-05T17:53:15Z</time>
      </trkpt>
      <trkpt lat="45.92173" lon="0.07133">
        <ele>139.41</ele>
        <time>2016-06-05T17:52:55Z</time>
      </trkpt>
      <trkpt lat="45.92222" lon="0.07127">
        <ele>136.684</ele>
        <time>2016-06-05T17:51:15Z</time>
      </trkpt>
      <trkpt lat="45.92491" lon="0.06987">
        <ele>129.561</ele>
        <time>2016-06-05T17:50:55Z</time>
      </trkpt>
      <trkpt lat="45.92669" lon="0.06852">
        <ele>124.066</ele>
        <time>2016-06-05T17:50:35Z</time>
      </trkpt>
      <trkpt lat="45.92852" lon="0.06799">
        <ele>120.72</ele>
        <time>2016-06-05T17:50:15Z</time>
      </trkpt>
      <trkpt lat="45.92936" lon="0.06809">
        <ele>117.408</ele>
        <time>2016-06-05T17:49:15Z</time>
      </trkpt>
      <trkpt lat="45.92991" lon="0.06857">
        <ele>117.015</ele>
        <time>2016-06-05T17:48:55Z</time>
      </trkpt>
      <trkpt lat="45.93093" lon="0.06863">
        <ele>114.705</ele>
        <time>2016-06-05T17:48:35Z</time>
      </trkpt>
      <trkpt lat="45.9325" lon="0.068">
        <ele>118.844</ele>
        <time>2020-12-25T08:19:35Z</time>
      </trkpt>
      <trkpt lat="45.9333" lon="0.06954">
        <ele>124.811</ele>
        <time>2020-12-25T08:19:15Z</time>
      </trkpt>
      <trkpt lat="45.93365" lon="0.06899">
        <ele>123.282</ele>
        <time>2020-12-25T08:18:55Z</time>
      </trkpt>
      <trkpt lat="45.9342" lon="0.06987">
        <ele>126.316</ele>
        <time>2020-12-25T08:18:35Z</time>
      </trkpt>
      <trkpt lat="45.93453" lon="0.07006">
        <ele>126.264</ele>
        <time>2020-12-25T08:18:15Z</time>
      </trkpt>
      <trkpt lat="45.93495" lon="0.06978">
        <ele>124.668</ele>
        <time>2020-12-25T08:17:55Z</time>
      </trkpt>
      <trkpt lat="45.93481" lon="0.06948">
        <ele>123.985</ele>
        <time>2020-12-25T08:17:35Z</time>
      </trkpt>
      <trkpt lat="45.93553" lon="0.0689">
        <ele>119.49</ele>
        <time>2020-12-25T08:17:15Z</time>
      </trkpt>
      <trkpt lat="45.93604" lon="0.06809">
        <ele>114.584</ele>
        <time>2020-12-25T08:16:55Z</time>
      </trkpt>
      <trkpt lat="45.93621" lon="0.06821">
        <ele>114.308</ele>
        <time>2020-12-25T08:16:35Z</time>
      </trkpt>
      <trkpt lat="45.93639" lon="0.06791">
        <ele>112.826</ele>
        <time>2020-12-25T08:16:15Z</time>
      </trkpt>
      <trkpt lat="45.9365" lon="0.06676">
        <ele>110.306</ele>
        <time>2020-12-25T08:15:55Z</time>
      </trkpt>
      <trkpt lat="45.93608" lon="0.06615">
        <ele>109.089</ele>
        <time>2020-12-25T08:15:35Z</time>
      </trkpt>
      <trkpt lat="45.93636" lon="0.06581">
        <ele>108.832</ele>
        <time>2016-06-05T17:46:55Z</time>
      </trkpt>
      <trkpt lat="45.9361" lon="0.0647">
        <ele>106.023</ele>
        <time>2016-06-05T17:46:35Z</time>
      </trkpt>
      <trkpt lat="45.93573" lon="0.06399">
        <ele>103.147</ele>
        <time>2016-06-05T17:46:15Z</time>
      </trkpt>
      <trkpt lat="45.93525" lon="0.06283">
        <ele>106.735</ele>
        <time>2016-06-05T17:45:55Z</time>
      </trkpt>
      <trkpt lat="45.93506" lon="0.06196">
        <ele>108.639</ele>
        <time>2016-06-05T17:45:35Z</time>
      </trkpt>
      <trkpt lat="45.93452" lon="0.06129">
        <ele>109.446</ele>
        <time>2016-06-05T17:45:15Z</time>
      </trkpt>
      <trkpt lat="45.93404" lon="0.06088">
        <ele>113.961</ele>
        <time>2016-06-05T17:44:55Z</time>
      </trkpt>
      <trkpt lat="45.93234" lon="0.06013">
        <ele>115.695</ele>
        <time>2016-06-05T17:44:35Z</time>
      </trkpt>
      <trkpt lat="45.93104" lon="0.05985">
        <ele>120.408</ele>
        <time>2016-06-05T17:44:15Z</time>
      </trkpt>
      <trkpt lat="45.93033" lon="0.05945">
        <ele>123.82</ele>
        <time>2016-06-05T17:43:55Z</time>
      </trkpt>
      <trkpt lat="45.9307" lon="0.05805">
        <ele>119.473</ele>
        <time>2016-06-05T17:43:35Z</time>
      </trkpt>
      <trkpt lat="45.9304" lon="0.05683">
        <ele>120.692</ele>
        <time>2016-06-05T17:43:15Z</time>
      </trkpt>
      <trkpt lat="45.9304" lon="0.0564">
        <ele>117.212</ele>
        <time>2016-06-05T17:42:55Z</time>
      </trkpt>
      <trkpt lat="45.93067" lon="0.05509">
        <ele>113.753</ele>
        <time>2016-06-05T17:42:35Z</time>
      </trkpt>
      <trkpt lat="45.93067" lon="0.05286">
        <ele>114.977</ele>
        <time>2016-06-05T17:42:15Z</time>
      </trkpt>
      <trkpt lat="45.93085" lon="0.05103">
        <ele>114.045</ele>
        <time>2016-06-05T17:41:15Z</time>
      </trkpt>
      <trkpt lat="45.93088" lon="0.04893">
        <ele>109.729</ele>
        <time>2016-06-05T17:40:55Z</time>
      </trkpt>
      <trkpt lat="45.93097" lon="0.04743">
        <ele>103.396</ele>
        <time>2016-06-05T17:39:55Z</time>
      </trkpt>
      <trkpt lat="45.93081" lon="0.04612">
        <ele>104.971</ele>
        <time>2016-06-05T17:39:35Z</time>
      </trkpt>
      <trkpt lat="45.93097" lon="0.04494">
        <ele>111.035</ele>
        <time>2016-06-05T17:39:15Z</time>
      </trkpt>
      <trkpt lat="45.93157" lon="0.04226">
        <ele>106.508</ele>
        <time>2016-06-05T17:38:55Z</time>
      </trkpt>
      <trkpt lat="45.93167" lon="0.04076">
        <ele>106.427</ele>
        <time>2016-06-05T17:38:35Z</time>
      </trkpt>
      <trkpt lat="45.93163" lon="0.0391">
        <ele>104.007</ele>
        <time>2016-06-05T17:38:15Z</time>
      </trkpt>
      <trkpt lat="45.93219" lon="0.03747">
        <ele>100.399</ele>
        <time>2016-06-05T17:37:55Z</time>
      </trkpt>
      <trkpt lat="45.93348" lon="0.03749">
        <ele>93.522</ele>
        <time>2016-06-05T17:37:35Z</time>
      </trkpt>
      <trkpt lat="45.93419" lon="0.03777">
        <ele>91.093</ele>
        <time>2016-06-05T17:37:15Z</time>
      </trkpt>
      <trkpt lat="45.93472" lon="0.0367">
        <ele>87.037</ele>
        <time>2016-06-05T17:36:55Z</time>
      </trkpt>
      <trkpt lat="45.93567" lon="0.03719">
        <ele>86.635</ele>
        <time>2016-06-05T17:36:35Z</time>
      </trkpt>
      <trkpt lat="45.93613" lon="0.03599">
        <ele>87.929</ele>
        <time>2016-06-05T17:36:15Z</time>
      </trkpt>
      <trkpt lat="45.93663" lon="0.03614">
        <ele>84.366</ele>
        <time>2016-06-05T17:35:55Z</time>
      </trkpt>
      <trkpt lat="45.93694" lon="0.03616">
        <ele>82.021</ele>
        <time>2016-06-05T17:35:35Z</time>
      </trkpt>
      <trkpt lat="45.93692" lon="0.03593">
        <ele>83.485</ele>
        <time>2016-06-05T17:35:15Z</time>
      </trkpt>
      <trkpt lat="45.93719" lon="0.03531">
        <ele>85.908</ele>
        <time>2016-06-05T17:34:55Z</time>
      </trkpt>
      <trkpt lat="45.93724" lon="0.03455">
        <ele>87.922</ele>
        <time>2016-06-05T17:34:35Z</time>
      </trkpt>
      <trkpt lat="45.93786" lon="0.03224">
        <ele>83.457</ele>
        <time>2016-06-05T17:34:15Z</time>
      </trkpt>
      <trkpt lat="45.93786" lon="0.03153">
        <ele>85.794</ele>
        <time>2016-06-05T17:33:55Z</time>
      </trkpt>
      <trkpt lat="45.93806" lon="0.03061">
        <ele>85.297</ele>
        <time>2016-06-05T17:33:35Z</time>
      </trkpt>
      <trkpt lat="45.93846" lon="0.03048">
        <ele>80.958</ele>
        <time>2016-06-05T17:33:15Z</time>
      </trkpt>
      <trkpt lat="45.93885" lon="0.03009">
        <ele>79.182</ele>
        <time>2016-06-05T17:32:55Z</time>
      </trkpt>
      <trkpt lat="45.93897" lon="0.02971">
        <ele>79.86</ele>
        <time>2016-06-05T17:32:35Z</time>
      </trkpt>
      <trkpt lat="45.93872" lon="0.02898">
        <ele>83.544</ele>
        <time>2016-06-05T17:32:15Z</time>
      </trkpt>
      <trkpt lat="45.93873" lon="0.02803">
        <ele>86.711</ele>
        <time>2016-06-05T17:31:55Z</time>
      </trkpt>
      <trkpt lat="45.93931" lon="0.02653">
        <ele>88.216</ele>
        <time>2016-06-05T17:31:35Z</time>
      </trkpt>
      <trkpt lat="45.9398" lon="0.02501">
        <ele>86.44</ele>
        <time>2016-06-05T17:31:15Z</time>
      </trkpt>
      <trkpt lat="45.94045" lon="0.02464">
        <ele>82.608</ele>
        <time>2016-06-05T17:30:55Z</time>
      </trkpt>
      <trkpt lat="45.94065" lon="0.02406">
        <ele>81.414</ele>
        <time>2016-06-05T17:30:35Z</time>
      </trkpt>
      <trkpt lat="45.94083" lon="0.02402">
        <ele>78.522</ele>
        <time>2016-06-05T17:30:15Z</time>
      </trkpt>
      <trkpt lat="45.94234" lon="0.0246">
        <ele>76.042</ele>
        <time>2016-06-05T17:29:55Z</time>
      </trkpt>
      <trkpt lat="45.94254" lon="0.02458">
        <ele>76.379</ele>
        <time>2016-06-05T17:29:35Z</time>
      </trkpt>
      <trkpt lat="45.94251" lon="0.02408">
        <ele>75.73</ele>
        <time>2016-06-05T17:29:15Z</time>
      </trkpt>
      <trkpt lat="45.94286" lon="0.02333">
        <ele>76.674</ele>
        <time>2016-06-05T17:28:55Z</time>
      </trkpt>
      <trkpt lat="45.94337" lon="0.02164">
        <ele>73.882</ele>
        <time>2016-06-05T17:28:35Z</time>
      </trkpt>
      <trkpt lat="45.94382" lon="0.02151">
        <ele>74.326</ele>
        <time>2016-06-05T17:28:15Z</time>
      </trkpt>
      <trkpt lat="45.94398" lon="0.02183">
        <ele>75.143</ele>
        <time>2016-06-05T17:27:55Z</time>
      </trkpt>
      <trkpt lat="45.94468" lon="0.02217">
        <ele>76.888</ele>
        <time>2016-06-05T17:27:35Z</time>
      </trkpt>
      <trkpt lat="45.94559" lon="0.02239">
        <ele>75.832</ele>
        <time>2016-06-05T17:27:15Z</time>
      </trkpt>
      <trkpt lat="45.94589" lon="0.02232">
        <ele>77.108</ele>
        <time>2016-06-05T17:26:55Z</time>
      </trkpt>
      <trkpt lat="45.94567" lon="0.02136">
        <ele>75.413</ele>
        <time>2016-06-05T17:26:35Z</time>
      </trkpt>
      <trkpt lat="45.94567" lon="0.02041">
        <ele>75.621</ele>
        <time>2016-06-05T17:26:15Z</time>
      </trkpt>
      <trkpt lat="45.94583" lon="0.01936">
        <ele>77.061</ele>
        <time>2016-06-05T17:25:55Z</time>
      </trkpt>
      <trkpt lat="45.94492" lon="0.01951">
        <ele>76.828</ele>
        <time>2016-06-05T17:25:35Z</time>
      </trkpt>
      <trkpt lat="45.94474" lon="0.01876">
        <ele>75.679</ele>
        <time>2016-06-05T17:25:15Z</time>
      </trkpt>
      <trkpt lat="45.94389" lon="0.01857">
        <ele>75.813</ele>
        <time>2016-06-05T17:24:55Z</time>
      </trkpt>
      <trkpt lat="45.94337" lon="0.01546">
        <ele>86.681</ele>
        <time>2016-06-05T17:24:35Z</time>
      </trkpt>
      <trkpt lat="45.94301" lon="0.01552">
        <ele>86.065</ele>
        <time>2016-06-05T17:24:15Z</time>
      </trkpt>
      <trkpt lat="45.94301" lon="0.01507">
        <ele>87.662</ele>
        <time>2016-06-05T17:23:55Z</time>
      </trkpt>
      <trkpt lat="45.94339" lon="0.01417">
        <ele>99.287</ele>
        <time>2016-06-05T17:23:35Z</time>
      </trkpt>
      <trkpt lat="45.94434" lon="0.01376">
        <ele>100.851</ele>
        <time>2016-06-05T17:23:15Z</time>
      </trkpt>
      <trkpt lat="45.94525" lon="0.01305">
        <ele>92.508</ele>
        <time>2016-06-05T17:22:55Z</time>
      </trkpt>
      <trkpt lat="45.9453" lon="0.01134">
        <ele>98.52</ele>
        <time>2016-06-05T17:22:35Z</time>
      </trkpt>
      <trkpt lat="45.94594" lon="0.01136">
        <ele>91.2</ele>
        <time>2016-06-05T17:22:15Z</time>
      </trkpt>
      <trkpt lat="45.94682" lon="0.01129">
        <ele>92.757</ele>
        <time>2016-06-05T17:21:55Z</time>
      </trkpt>
      <trkpt lat="45.94853" lon="0.01097">
        <ele>93.371</ele>
        <time>2016-06-05T17:21:35Z</time>
      </trkpt>
      <trkpt lat="45.95022" lon="0.01099">
        <ele>98.542</ele>
        <time>2016-06-05T17:21:15Z</time>
      </trkpt>
      <trkpt lat="45.95074" lon="0.00861">
        <ele>98.336</ele>
        <time>2016-06-05T17:20:55Z</time>
      </trkpt>
      <trkpt lat="45.95089" lon="0.00705">
        <ele>98.414</ele>
        <time>2016-06-05T17:20:35Z</time>
      </trkpt>
      <trkpt lat="45.95123" lon="0.0072">
        <ele>98.578</ele>
        <time>2016-06-05T17:20:15Z</time>
      </trkpt>
      <trkpt lat="45.95181" lon="0.00689">
        <ele>95.335</ele>
        <time>2016-06-05T17:19:55Z</time>
      </trkpt>
      <trkpt lat="45.95267" lon="0.00736">
        <ele>94.88</ele>
        <time>2016-06-05T17:19:35Z</time>
      </trkpt>
      <trkpt lat="45.95276" lon="0.00769">
        <ele>94.874</ele>
        <time>2016-06-05T17:19:15Z</time>
      </trkpt>
      <trkpt lat="45.95265" lon="0.00827">
        <ele>94.908</ele>
        <time>2016-06-05T17:18:55Z</time>
      </trkpt>
      <trkpt lat="45.95367" lon="0.00842">
        <ele>94.017</ele>
        <time>2016-06-05T17:18:35Z</time>
      </trkpt>
      <trkpt lat="45.95492" lon="0.00608">
        <ele>96.125</ele>
        <time>2016-06-05T17:18:15Z</time>
      </trkpt>
      <trkpt lat="45.95498" lon="0.00458">
        <ele>96.483</ele>
        <time>2016-06-05T17:17:55Z</time>
      </trkpt>
      <trkpt lat="45.95528" lon="0.00166">
        <ele>92.074</ele>
        <time>2016-06-05T17:17:35Z</time>
      </trkpt>
      <trkpt lat="45.95511" lon="0.00112">
        <ele>92.645</ele>
        <time>2016-06-05T17:17:15Z</time>
      </trkpt>
      <trkpt lat="45.95535" lon="0.00108">
        <ele>91.979</ele>
        <time>2016-06-05T17:16:55Z</time>
      </trkpt>
      <trkpt lat="45.95551" lon="0.00076">
        <ele>91.627</ele>
        <time>2016-06-05T17:16:35Z</time>
      </trkpt>
      <trkpt lat="45.95575" lon="0.00054">
        <ele>91.741</ele>
        <time>2016-06-05T17:16:15Z</time>
      </trkpt>
      <trkpt lat="45.95593" lon="-0.00023">
        <ele>91.448</ele>
        <time>2016-06-05T17:15:15Z</time>
      </trkpt>
      <trkpt lat="45.95644" lon="0.00027">
        <ele>93.423</ele>
        <time>2016-06-05T17:14:55Z</time>
      </trkpt>
      <trkpt lat="45.95666" lon="0.00069">
        <ele>94.087</ele>
        <time>2016-06-05T17:14:35Z</time>
      </trkpt>
      <trkpt lat="45.9572" lon="0.00053">
        <ele>95.808</ele>
        <time>2016-06-05T17:14:15Z</time>
      </trkpt>
      <trkpt lat="45.95643" lon="-0.00228">
        <ele>89.417</ele>
        <time>2016-06-05T17:13:55Z</time>
      </trkpt>
      <trkpt lat="45.95648" lon="-0.00405">
        <ele>80.498</ele>
        <time>2016-06-05T17:13:35Z</time>
      </trkpt>
      <trkpt lat="45.95626" lon="-0.00433">
        <ele>76.918</ele>
        <time>2016-06-05T17:13:15Z</time>
      </trkpt>
      <trkpt lat="45.95508" lon="-0.00525">
        <ele>74.015</ele>
        <time>2016-06-05T17:12:55Z</time>
      </trkpt>
      <trkpt lat="45.95481" lon="-0.00562">
        <ele>73.756</ele>
        <time>2016-06-05T17:12:35Z</time>
      </trkpt>
      <trkpt lat="45.95408" lon="-0.00596">
        <ele>76.89</ele>
        <time>2016-06-05T17:12:15Z</time>
      </trkpt>
      <trkpt lat="45.95356" lon="-0.00643">
        <ele>78.898</ele>
        <time>2016-06-05T17:11:55Z</time>
      </trkpt>
      <trkpt lat="45.95346" lon="-0.0074">
        <ele>74.232</ele>
        <time>2016-06-05T17:11:35Z</time>
      </trkpt>
      <trkpt lat="45.95292" lon="-0.00847">
        <ele>75.249</ele>
        <time>2016-06-05T17:11:15Z</time>
      </trkpt>
      <trkpt lat="45.95281" lon="-0.01057">
        <ele>81.054</ele>
        <time>2016-06-05T17:10:15Z</time>
      </trkpt>
      <trkpt lat="45.95325" lon="-0.01066">
        <ele>81.088</ele>
        <time>2016-06-05T17:09:55Z</time>
      </trkpt>
      <trkpt lat="45.95359" lon="-0.01057">
        <ele>79.208</ele>
        <time>2016-06-05T17:09:35Z</time>
      </trkpt>
      <trkpt lat="45.95381" lon="-0.01113">
        <ele>79.311</ele>
        <time>2016-06-05T17:09:15Z</time>
      </trkpt>
      <trkpt lat="45.9544" lon="-0.01096">
        <ele>75.847</ele>
        <time>2016-06-05T17:08:55Z</time>
      </trkpt>
      <trkpt lat="45.95501" lon="-0.01179">
        <ele>74.926</ele>
        <time>2016-06-05T17:08:35Z</time>
      </trkpt>
      <trkpt lat="45.95614" lon="-0.0127">
        <ele>77.497</ele>
        <time>2016-06-05T17:08:15Z</time>
      </trkpt>
      <trkpt lat="45.95686" lon="-0.01287">
        <ele>77.338</ele>
        <time>2016-06-05T17:07:55Z</time>
      </trkpt>
      <trkpt lat="45.9581" lon="-0.01413">
        <ele>85.612</ele>
        <time>2016-06-05T17:07:35Z</time>
      </trkpt>
      <trkpt lat="45.9583" lon="-0.0154">
        <ele>87.14</ele>
        <time>2016-06-05T17:07:15Z</time>
      </trkpt>
      <trkpt lat="45.95969" lon="-0.01521">
        <ele>89.874</ele>
        <time>2016-06-05T17:06:55Z</time>
      </trkpt>
      <trkpt lat="45.96178" lon="-0.01446">
        <ele>95.071</ele>
        <time>2016-06-05T17:06:35Z</time>
      </trkpt>
      <trkpt lat="45.96242" lon="-0.01534">
        <ele>91.446</ele>
        <time>2016-06-05T17:06:15Z</time>
      </trkpt>
      <trkpt lat="45.96272" lon="-0.01641">
        <ele>92.45</ele>
        <time>2016-06-05T17:05:55Z</time>
      </trkpt>
      <trkpt lat="45.96394" lon="-0.01866">
        <ele>98.208</ele>
        <time>2016-06-05T17:05:35Z</time>
      </trkpt>
      <trkpt lat="45.96452" lon="-0.01894">
        <ele>100.221</ele>
        <time>2016-06-05T17:05:15Z</time>
      </trkpt>
      <trkpt lat="45.96542" lon="-0.01909">
        <ele>100.729</ele>
        <time>2016-06-05T17:04:55Z</time>
      </trkpt>
      <trkpt lat="45.96639" lon="-0.01969">
        <ele>101.947</ele>
        <time>2016-06-05T17:04:35Z</time>
      </trkpt>
      <trkpt lat="45.96722" lon="-0.01969">
        <ele>103.915</ele>
        <time>2016-06-05T17:04:15Z</time>
      </trkpt>
      <trkpt lat="45.96769" lon="-0.0231">
        <ele>106.436</ele>
        <time>2016-06-05T17:03:55Z</time>
      </trkpt>
      <trkpt lat="45.96795" lon="-0.0233">
        <ele>106.97</ele>
        <time>2016-06-05T17:03:35Z</time>
      </trkpt>
      <trkpt lat="45.96855" lon="-0.02319">
        <ele>107.038</ele>
        <time>2016-06-05T17:03:15Z</time>
      </trkpt>
      <trkpt lat="45.96916" lon="-0.02342">
        <ele>107.342</ele>
        <time>2016-06-05T17:02:55Z</time>
      </trkpt>
      <trkpt lat="45.9693" lon="-0.02493">
        <ele>112.719</ele>
        <time>2016-06-05T17:02:35Z</time>
      </trkpt>
      <trkpt lat="45.96912" lon="-0.02559">
        <ele>113.884</ele>
        <time>2016-06-05T17:02:15Z</time>
      </trkpt>
      <trkpt lat="45.96907" lon="-0.02636">
        <ele>112.818</ele>
        <time>2016-06-05T17:01:55Z</time>
      </trkpt>
      <trkpt lat="45.969" lon="-0.02701">
        <ele>112.008</ele>
        <time>2016-06-05T17:01:35Z</time>
      </trkpt>
      <trkpt lat="45.96913" lon="-0.02761">
        <ele>114.117</ele>
        <time>2016-06-05T17:01:15Z</time>
      </trkpt>
      <trkpt lat="45.96919" lon="-0.02881">
        <ele>114.889</ele>
        <time>2016-06-05T17:00:55Z</time>
      </trkpt>
      <trkpt lat="45.96919" lon="-0.02939">
        <ele>116.028</ele>
        <time>2016-06-05T17:00:35Z</time>
      </trkpt>
      <trkpt lat="45.96876" lon="-0.03048">
        <ele>115.071</ele>
        <time>2016-06-05T17:00:15Z</time>
      </trkpt>
      <trkpt lat="45.96873" lon="-0.03102">
        <ele>114.242</ele>
        <time>2016-06-05T16:59:55Z</time>
      </trkpt>
      <trkpt lat="45.96852" lon="-0.0316">
        <ele>112.896</ele>
        <time>2016-06-05T16:59:35Z</time>
      </trkpt>
      <trkpt lat="45.96842" lon="-0.03224">
        <ele>110.554</ele>
        <time>2016-06-05T16:59:15Z</time>
      </trkpt>
      <trkpt lat="45.9696" lon="-0.0351">
        <ele>108.198</ele>
        <time>2016-06-05T16:58:55Z</time>
      </trkpt>
      <trkpt lat="45.97013" lon="-0.03596">
        <ele>110.545</ele>
        <time>2016-06-05T16:58:35Z</time>
      </trkpt>
      <trkpt lat="45.97058" lon="-0.03746">
        <ele>107.22</ele>
        <time>2016-06-05T16:58:15Z</time>
      </trkpt>
      <trkpt lat="45.97121" lon="-0.03834">
        <ele>103.084</ele>
        <time>2016-06-05T16:57:55Z</time>
      </trkpt>
      <trkpt lat="45.97221" lon="-0.039">
        <ele>101.908</ele>
        <time>2016-06-05T16:57:35Z</time>
      </trkpt>
      <trkpt lat="45.97316" lon="-0.03909">
        <ele>105.717</ele>
        <time>2016-06-05T16:57:15Z</time>
      </trkpt>
      <trkpt lat="45.97413" lon="-0.03868">
        <ele>110.407</ele>
        <time>2016-06-05T16:56:55Z</time>
      </trkpt>
      <trkpt lat="45.97574" lon="-0.03963">
        <ele>115.084</ele>
        <time>2016-06-05T16:56:35Z</time>
      </trkpt>
      <trkpt lat="45.9764" lon="-0.0398">
        <ele>117.027</ele>
        <time>2016-06-05T16:56:15Z</time>
      </trkpt>
      <trkpt lat="45.97869" lon="-0.04126">
        <ele>120.848</ele>
        <time>2016-06-05T16:55:55Z</time>
      </trkpt>
      <trkpt lat="45.97933" lon="-0.04184">
        <ele>117.622</ele>
        <time>2016-06-05T16:55:35Z</time>
      </trkpt>
      <trkpt lat="45.98002" lon="-0.04274">
        <ele>113.26</ele>
        <time>2016-06-05T16:55:15Z</time>
      </trkpt>
      <trkpt lat="45.98074" lon="-0.04417">
        <ele>115.644</ele>
        <time>2016-06-05T16:54:55Z</time>
      </trkpt>
      <trkpt lat="45.98135" lon="-0.0457">
        <ele>116.881</ele>
        <time>2016-06-05T16:54:35Z</time>
      </trkpt>
      <trkpt lat="45.98144" lon="-0.04621">
        <ele>117.276</ele>
        <time>2016-06-05T16:54:15Z</time>
      </trkpt>
      <trkpt lat="45.98194" lon="-0.04711">
        <ele>114.67</ele>
        <time>2016-06-05T16:53:55Z</time>
      </trkpt>
      <trkpt lat="45.98233" lon="-0.04767">
        <ele>114.608</ele>
        <time>2016-06-05T16:53:35Z</time>
      </trkpt>
      <trkpt lat="45.98264" lon="-0.04771">
        <ele>113.109</ele>
        <time>2016-06-05T16:53:15Z</time>
      </trkpt>
      <trkpt lat="45.98303" lon="-0.04808">
        <ele>111.181</ele>
        <time>2016-06-05T16:52:55Z</time>
      </trkpt>
      <trkpt lat="45.98352" lon="-0.04812">
        <ele>112.241</ele>
        <time>2016-06-05T16:52:35Z</time>
      </trkpt>
      <trkpt lat="45.98443" lon="-0.04885">
        <ele>111.032</ele>
        <time>2016-06-05T16:52:15Z</time>
      </trkpt>
      <trkpt lat="45.98548" lon="-0.04975">
        <ele>110.113</ele>
        <time>2016-06-05T16:51:55Z</time>
      </trkpt>
      <trkpt lat="45.98615" lon="-0.04997">
        <ele>107.967</ele>
        <time>2016-06-05T16:51:35Z</time>
      </trkpt>
      <trkpt lat="45.98665" lon="-0.04977">
        <ele>105.195</ele>
        <time>2016-06-05T16:51:15Z</time>
      </trkpt>
      <trkpt lat="45.98762" lon="-0.05001">
        <ele>103.449</ele>
        <time>2016-06-05T16:50:55Z</time>
      </trkpt>
      <trkpt lat="45.98844" lon="-0.04971">
        <ele>106.416</ele>
        <time>2016-06-05T16:50:35Z</time>
      </trkpt>
      <trkpt lat="45.98919" lon="-0.04982">
        <ele>111.621</ele>
        <time>2016-06-05T16:50:15Z</time>
      </trkpt>
      <trkpt lat="45.98858" lon="-0.05267">
        <ele>110.335</ele>
        <time>2016-06-05T16:49:55Z</time>
      </trkpt>
      <trkpt lat="45.98689" lon="-0.05853">
        <ele>106.408</ele>
        <time>2016-06-05T16:49:35Z</time>
      </trkpt>
      <trkpt lat="45.98428" lon="-0.0607">
        <ele>94.226</ele>
        <time>2016-06-05T16:49:15Z</time>
      </trkpt>
      <trkpt lat="45.9857" lon="-0.06231">
        <ele>93.415</ele>
        <time>2016-06-05T16:48:55Z</time>
      </trkpt>
      <trkpt lat="45.98656" lon="-0.06434">
        <ele>93.398</ele>
        <time>2016-06-05T16:48:35Z</time>
      </trkpt>
      <trkpt lat="45.98706" lon="-0.06655">
        <ele>94.281</ele>
        <time>2016-06-05T16:48:15Z</time>
      </trkpt>
      <trkpt lat="45.98714" lon="-0.06757">
        <ele>94.712</ele>
        <time>2016-06-05T16:47:55Z</time>
      </trkpt>
      <trkpt lat="45.9851" lon="-0.06795">
        <ele>88.166</ele>
        <time>2016-06-05T16:47:35Z</time>
      </trkpt>
      <trkpt lat="45.984" lon="-0.06986">
        <ele>85.084</ele>
        <time>2016-06-05T16:47:15Z</time>
      </trkpt>
      <trkpt lat="45.98246" lon="-0.07138">
        <ele>84.868</ele>
        <time>2016-06-05T16:46:15Z</time>
      </trkpt>
      <trkpt lat="45.98203" lon="-0.07168">
        <ele>85.015</ele>
        <time>2016-06-05T16:45:55Z</time>
      </trkpt>
      <trkpt lat="45.98108" lon="-0.07349">
        <ele>86.04</ele>
        <time>2016-06-05T16:45:35Z</time>
      </trkpt>
      <trkpt lat="45.98068" lon="-0.07492">
        <ele>90.374</ele>
        <time>2016-06-05T16:45:15Z</time>
      </trkpt>
      <trkpt lat="45.98005" lon="-0.07597">
        <ele>88.008</ele>
        <time>2016-06-05T16:44:55Z</time>
      </trkpt>
      <trkpt lat="45.97951" lon="-0.07679">
        <ele>89.626</ele>
        <time>2016-06-05T16:44:15Z</time>
      </trkpt>
      <trkpt lat="45.97874" lon="-0.0796">
        <ele>92.106</ele>
        <time>2016-06-05T16:43:55Z</time>
      </trkpt>
      <trkpt lat="45.97845" lon="-0.081">
        <ele>92.689</ele>
        <time>2016-06-05T16:43:35Z</time>
      </trkpt>
      <trkpt lat="45.97801" lon="-0.08218">
        <ele>94.562</ele>
        <time>2016-06-05T16:43:15Z</time>
      </trkpt>
      <trkpt lat="45.97801" lon="-0.08218">
        <ele>94.543</ele>
        <time>2016-06-05T16:42:55Z</time>
      </trkpt>
      <trkpt lat="45.97595" lon="-0.08546">
        <ele>97.747</ele>
        <time>2016-06-05T16:42:35Z</time>
      </trkpt>
      <trkpt lat="45.97502" lon="-0.08757">
        <ele>102.645</ele>
        <time>2016-06-05T16:42:15Z</time>
      </trkpt>
      <trkpt lat="45.9727" lon="-0.0943">
        <ele>109.069</ele>
        <time>2016-06-05T16:41:55Z</time>
      </trkpt>
      <trkpt lat="45.97183" lon="-0.09582">
        <ele>110.446</ele>
        <time>2016-06-05T16:41:35Z</time>
      </trkpt>
      <trkpt lat="45.97136" lon="-0.09737">
        <ele>116.211</ele>
        <time>2016-06-05T16:41:15Z</time>
      </trkpt>
      <trkpt lat="45.97173" lon="-0.09836">
        <ele>110.765</ele>
        <time>2016-06-05T16:40:55Z</time>
      </trkpt>
      <trkpt lat="45.97271" lon="-0.10018">
        <ele>110.008</ele>
        <time>2016-06-05T16:40:35Z</time>
      </trkpt>
      <trkpt lat="45.97365" lon="-0.1025">
        <ele>110.127</ele>
        <time>2016-06-05T16:40:15Z</time>
      </trkpt>
      <trkpt lat="45.97455" lon="-0.104">
        <ele>115.107</ele>
        <time>2016-06-05T16:39:55Z</time>
      </trkpt>
      <trkpt lat="45.97498" lon="-0.10539">
        <ele>115.099</ele>
        <time>2016-06-05T16:39:35Z</time>
      </trkpt>
      <trkpt lat="45.9751" lon="-0.10659">
        <ele>115.47</ele>
        <time>2016-06-05T16:39:15Z</time>
      </trkpt>
      <trkpt lat="45.97537" lon="-0.1078">
        <ele>114.751</ele>
        <time>2016-06-05T16:38:55Z</time>
      </trkpt>
      <trkpt lat="45.97547" lon="-0.10848">
        <ele>116.455</ele>
        <time>2016-06-05T16:38:35Z</time>
      </trkpt>
      <trkpt lat="45.97632" lon="-0.11031">
        <ele>114.773</ele>
        <time>2016-06-05T16:38:15Z</time>
      </trkpt>
      <trkpt lat="45.97672" lon="-0.11134">
        <ele>112.057</ele>
        <time>2016-06-05T16:37:55Z</time>
      </trkpt>
      <trkpt lat="45.97723" lon="-0.11207">
        <ele>116.014</ele>
        <time>2016-06-05T16:37:35Z</time>
      </trkpt>
      <trkpt lat="45.97795" lon="-0.11395">
        <ele>120.569</ele>
        <time>2016-06-05T16:37:15Z</time>
      </trkpt>
      <trkpt lat="45.97875" lon="-0.11606">
        <ele>120.423</ele>
        <time>2016-06-05T16:36:55Z</time>
      </trkpt>
      <trkpt lat="45.97907" lon="-0.1179">
        <ele>124.508</ele>
        <time>2016-06-05T16:36:35Z</time>
      </trkpt>
      <trkpt lat="45.97945" lon="-0.11915">
        <ele>124.02</ele>
        <time>2016-06-05T16:36:15Z</time>
      </trkpt>
      <trkpt lat="45.97945" lon="-0.11915">
        <ele>124.028</ele>
        <time>2016-06-05T16:35:55Z</time>
      </trkpt>
      <trkpt lat="45.9796" lon="-0.12028">
        <ele>124.875</ele>
        <time>2016-06-05T16:35:35Z</time>
      </trkpt>
      <trkpt lat="45.98" lon="-0.12166">
        <ele>120.062</ele>
        <time>2016-06-05T16:35:15Z</time>
      </trkpt>
      <trkpt lat="45.98048" lon="-0.1226">
        <ele>122.623</ele>
        <time>2016-06-05T16:34:55Z</time>
      </trkpt>
      <trkpt lat="45.98059" lon="-0.12355">
        <ele>121.397</ele>
        <time>2016-06-05T16:34:35Z</time>
      </trkpt>
      <trkpt lat="45.98045" lon="-0.12507">
        <ele>121.855</ele>
        <time>2016-06-05T16:34:15Z</time>
      </trkpt>
      <trkpt lat="45.98041" lon="-0.12642">
        <ele>119.969</ele>
        <time>2016-06-05T16:33:55Z</time>
      </trkpt>
      <trkpt lat="45.98048" lon="-0.12756">
        <ele>116.966</ele>
        <time>2016-06-05T16:33:35Z</time>
      </trkpt>
      <trkpt lat="45.98078" lon="-0.12887">
        <ele>112.131</ele>
        <time>2016-06-05T16:33:15Z</time>
      </trkpt>
      <trkpt lat="45.98141" lon="-0.12951">
        <ele>111.835</ele>
        <time>2016-06-05T16:32:55Z</time>
      </trkpt>
      <trkpt lat="45.98413" lon="-0.13003">
        <ele>121.808</ele>
        <time>2016-06-05T16:32:35Z</time>
      </trkpt>
      <trkpt lat="45.98648" lon="-0.12975">
        <ele>117.92</ele>
        <time>2016-06-05T16:32:15Z</time>
      </trkpt>
      <trkpt lat="45.9873" lon="-0.12992">
        <ele>120.173</ele>
        <time>2016-06-05T16:31:55Z</time>
      </trkpt>
      <trkpt lat="45.98782" lon="-0.12985">
        <ele>120.692</ele>
        <time>2016-06-05T16:31:35Z</time>
      </trkpt>
      <trkpt lat="45.98891" lon="-0.13026">
        <ele>122.065</ele>
        <time>2016-06-05T16:31:15Z</time>
      </trkpt>
      <trkpt lat="45.99098" lon="-0.12951">
        <ele>123.976</ele>
        <time>2016-06-05T16:30:55Z</time>
      </trkpt>
      <trkpt lat="45.99157" lon="-0.12943">
        <ele>121.55</ele>
        <time>2016-06-05T16:30:35Z</time>
      </trkpt>
      <trkpt lat="45.99339" lon="-0.12855">
        <ele>120.098</ele>
        <time>2016-06-05T16:30:15Z</time>
      </trkpt>
      <trkpt lat="45.99427" lon="-0.12844">
        <ele>120.842</ele>
        <time>2016-06-05T16:29:55Z</time>
      </trkpt>
      <trkpt lat="45.9962" lon="-0.12857">
        <ele>113.799</ele>
        <time>2016-06-05T16:29:35Z</time>
      </trkpt>
      <trkpt lat="45.99669" lon="-0.12833">
        <ele>112.124</ele>
        <time>2016-06-05T16:29:15Z</time>
      </trkpt>
      <trkpt lat="45.99736" lon="-0.12844">
        <ele>114.678</ele>
        <time>2016-06-05T16:28:55Z</time>
      </trkpt>
      <trkpt lat="45.99795" lon="-0.12711">
        <ele>115.808</ele>
        <time>2016-06-05T16:28:35Z</time>
      </trkpt>
      <trkpt lat="45.99949" lon="-0.12522">
        <ele>108.808</ele>
        <time>2016-06-05T16:28:15Z</time>
      </trkpt>
      <trkpt lat="45.99998" lon="-0.12475">
        <ele>108.162</ele>
        <time>2016-06-05T16:27:55Z</time>
      </trkpt>
      <trkpt lat="46.00007" lon="-0.12586">
        <ele>108.622</ele>
        <time>2016-06-05T16:27:35Z</time>
      </trkpt>
      <trkpt lat="46.00067" lon="-0.12741">
        <ele>111.492</ele>
        <time>2016-06-05T16:27:15Z</time>
      </trkpt>
      <trkpt lat="46.00159" lon="-0.13018">
        <ele>114.053</ele>
        <time>2016-06-05T16:26:55Z</time>
      </trkpt>
      <trkpt lat="46.00164" lon="-0.13215">
        <ele>118.197</ele>
        <time>2016-06-05T16:26:35Z</time>
      </trkpt>
      <trkpt lat="46.00182" lon="-0.13312">
        <ele>114.435</ele>
        <time>2016-06-05T16:26:15Z</time>
      </trkpt>
      <trkpt lat="46.00252" lon="-0.13468">
        <ele>116.929</ele>
        <time>2016-06-05T16:25:55Z</time>
      </trkpt>
      <trkpt lat="46.00317" lon="-0.13573">
        <ele>120.326</ele>
        <time>2016-06-05T16:25:35Z</time>
      </trkpt>
      <trkpt lat="46.00338" lon="-0.13651">
        <ele>121.061</ele>
        <time>2016-06-05T16:25:15Z</time>
      </trkpt>
      <trkpt lat="46.00363" lon="-0.13792">
        <ele>120.215</ele>
        <time>2016-06-05T16:24:55Z</time>
      </trkpt>
      <trkpt lat="46.0039" lon="-0.14112">
        <ele>123.108</ele>
        <time>2016-06-05T16:24:35Z</time>
      </trkpt>
      <trkpt lat="46.00469" lon="-0.14408">
        <ele>127.52</ele>
        <time>2016-06-05T16:24:15Z</time>
      </trkpt>
      <trkpt lat="46.00465" lon="-0.14481">
        <ele>127.373</ele>
        <time>2016-06-05T16:23:55Z</time>
      </trkpt>
      <trkpt lat="46.00347" lon="-0.15258">
        <ele>131.292</ele>
        <time>2016-06-05T16:23:35Z</time>
      </trkpt>
      <trkpt lat="46.00348" lon="-0.15331">
        <ele>128.654</ele>
        <time>2016-06-05T16:23:15Z</time>
      </trkpt>
      <trkpt lat="46.00371" lon="-0.15434">
        <ele>127.415</ele>
        <time>2016-06-05T16:22:55Z</time>
      </trkpt>
      <trkpt lat="46.00413" lon="-0.15507">
        <ele>126.229</ele>
        <time>2016-06-05T16:22:35Z</time>
      </trkpt>
      <trkpt lat="46.00457" lon="-0.15638">
        <ele>125.957</ele>
        <time>2016-06-05T16:22:15Z</time>
      </trkpt>
      <trkpt lat="46.00481" lon="-0.15721">
        <ele>128.961</ele>
        <time>2016-06-05T16:21:55Z</time>
      </trkpt>
      <trkpt lat="46.00515" lon="-0.15893">
        <ele>131.688</ele>
        <time>2016-06-05T16:21:35Z</time>
      </trkpt>
      <trkpt lat="46.00576" lon="-0.15891">
        <ele>134.223</ele>
        <time>2016-06-05T16:21:15Z</time>
      </trkpt>
      <trkpt lat="46.0062" lon="-0.15904">
        <ele>131.267</ele>
        <time>2016-06-05T16:20:55Z</time>
      </trkpt>
      <trkpt lat="46.00703" lon="-0.15945">
        <ele>125.008</ele>
        <time>2016-06-05T16:20:35Z</time>
      </trkpt>
      <trkpt lat="46.00727" lon="-0.15975">
        <ele>126.109</ele>
        <time>2016-06-05T16:20:15Z</time>
      </trkpt>
      <trkpt lat="46.00769" lon="-0.16093">
        <ele>128.054</ele>
        <time>2016-06-05T16:19:55Z</time>
      </trkpt>
      <trkpt lat="46.00912" lon="-0.16">
        <ele>126.214</ele>
        <time>2016-06-05T16:19:35Z</time>
      </trkpt>
      <trkpt lat="46.00951" lon="-0.1608">
        <ele>128.892</ele>
        <time>2016-06-05T16:19:15Z</time>
      </trkpt>
      <trkpt lat="46.0098" lon="-0.16159">
        <ele>131.523</ele>
        <time>2016-06-05T16:18:55Z</time>
      </trkpt>
      <trkpt lat="46.01018" lon="-0.16333">
        <ele>134.047</ele>
        <time>2016-06-05T16:18:35Z</time>
      </trkpt>
      <trkpt lat="46.01061" lon="-0.16432">
        <ele>134.175</ele>
        <time>2016-06-05T16:18:15Z</time>
      </trkpt>
      <trkpt lat="46.01086" lon="-0.16528">
        <ele>132.939</ele>
        <time>2016-06-05T16:17:55Z</time>
      </trkpt>
      <trkpt lat="46.01091" lon="-0.1662">
        <ele>131.336</ele>
        <time>2016-06-05T16:17:35Z</time>
      </trkpt>
      <trkpt lat="46.01129" lon="-0.16987">
        <ele>136.031</ele>
        <time>2016-06-05T16:17:15Z</time>
      </trkpt>
      <trkpt lat="46.01201" lon="-0.17211">
        <ele>142.285</ele>
        <time>2016-06-05T16:16:55Z</time>
      </trkpt>
      <trkpt lat="46.01219" lon="-0.17283">
        <ele>142.908</ele>
        <time>2016-06-05T16:16:35Z</time>
      </trkpt>
      <trkpt lat="46.01326" lon="-0.17485">
        <ele>139.519</ele>
        <time>2016-06-05T16:16:15Z</time>
      </trkpt>
      <trkpt lat="46.01177" lon="-0.17496">
        <ele>140.881</ele>
        <time>2016-06-05T16:15:55Z</time>
      </trkpt>
      <trkpt lat="46.011" lon="-0.17528">
        <ele>139.091</ele>
        <time>2016-06-05T16:15:35Z</time>
      </trkpt>
      <trkpt lat="46.00918" lon="-0.17494">
        <ele>137.055</ele>
        <time>2016-06-05T16:15:15Z</time>
      </trkpt>
      <trkpt lat="46.00788" lon="-0.1835">
        <ele>140.266</ele>
        <time>2016-06-05T16:14:55Z</time>
      </trkpt>
      <trkpt lat="46.00787" lon="-0.1841">
        <ele>140.08</ele>
        <time>2016-06-05T16:14:35Z</time>
      </trkpt>
      <trkpt lat="46.00775" lon="-0.18472">
        <ele>140.928</ele>
        <time>2016-06-05T16:14:15Z</time>
      </trkpt>
      <trkpt lat="46.00809" lon="-0.18482">
        <ele>140.352</ele>
        <time>2016-06-05T16:13:55Z</time>
      </trkpt>
      <trkpt lat="46.00858" lon="-0.18509">
        <ele>138.799</ele>
        <time>2016-06-05T16:13:35Z</time>
      </trkpt>
      <trkpt lat="46.00913" lon="-0.18644">
        <ele>136.774</ele>
        <time>2016-06-05T16:13:15Z</time>
      </trkpt>
      <trkpt lat="46.01105" lon="-0.18501">
        <ele>140.088</ele>
        <time>2016-06-05T16:12:55Z</time>
      </trkpt>
      <trkpt lat="46.01203" lon="-0.18414">
        <ele>139.008</ele>
        <time>2016-06-05T16:12:35Z</time>
      </trkpt>
      <trkpt lat="46.01256" lon="-0.1841">
        <ele>139.814</ele>
        <time>2016-06-05T16:12:15Z</time>
      </trkpt>
      <trkpt lat="46.01314" lon="-0.18427">
        <ele>138.004</ele>
        <time>2016-06-05T16:11:55Z</time>
      </trkpt>
      <trkpt lat="46.01372" lon="-0.18423">
        <ele>138.024</ele>
        <time>2016-06-05T16:11:35Z</time>
      </trkpt>
      <trkpt lat="46.01539" lon="-0.18361">
        <ele>134.046</ele>
        <time>2016-06-05T16:11:15Z</time>
      </trkpt>
      <trkpt lat="46.0163" lon="-0.18361">
        <ele>133.087</ele>
        <time>2016-06-05T16:10:35Z</time>
      </trkpt>
      <trkpt lat="46.0176" lon="-0.18322">
        <ele>134.031</ele>
        <time>2016-06-05T16:10:15Z</time>
      </trkpt>
      <trkpt lat="46.01863" lon="-0.18305">
        <ele>133.929</ele>
        <time>2016-06-05T16:09:55Z</time>
      </trkpt>
      <trkpt lat="46.01904" lon="-0.18309">
        <ele>133.063</ele>
        <time>2016-06-05T16:09:35Z</time>
      </trkpt>
      <trkpt lat="46.02078" lon="-0.183">
        <ele>133.37</ele>
        <time>2016-06-05T16:09:15Z</time>
      </trkpt>
      <trkpt lat="46.02202" lon="-0.18206">
        <ele>134.315</ele>
        <time>2016-06-05T16:08:55Z</time>
      </trkpt>
      <trkpt lat="46.02339" lon="-0.18168">
        <ele>139.099</ele>
        <time>2016-06-05T16:08:35Z</time>
      </trkpt>
      <trkpt lat="46.02447" lon="-0.18118">
        <ele>136.208</ele>
        <time>2016-06-05T16:08:15Z</time>
      </trkpt>
      <trkpt lat="46.02554" lon="-0.17983">
        <ele>138.318</ele>
        <time>2016-06-05T16:07:35Z</time>
      </trkpt>
      <trkpt lat="46.02953" lon="-0.17515">
        <ele>126.217</ele>
        <time>2016-06-05T16:07:15Z</time>
      </trkpt>
      <trkpt lat="46.03282" lon="-0.17517">
        <ele>123.936</ele>
        <time>2016-06-05T16:06:55Z</time>
      </trkpt>
      <trkpt lat="46.03327" lon="-0.17468">
        <ele>126.677</ele>
        <time>2016-06-05T16:06:35Z</time>
      </trkpt>
      <trkpt lat="46.03327" lon="-0.17468">
        <ele>126.618</ele>
        <time>2016-06-05T16:06:15Z</time>
      </trkpt>
      <trkpt lat="46.03611" lon="-0.18187">
        <ele>134.462</ele>
        <time>2016-06-05T16:05:55Z</time>
      </trkpt>
      <trkpt lat="46.03731" lon="-0.18528">
        <ele>138.75</ele>
        <time>2016-06-05T16:05:35Z</time>
      </trkpt>
      <trkpt lat="46.03731" lon="-0.18528">
        <ele>138.734</ele>
        <time>2016-06-05T16:05:15Z</time>
      </trkpt>
      <trkpt lat="46.04246" lon="-0.19918">
        <ele>133.061</ele>
        <time>2016-06-05T16:04:55Z</time>
      </trkpt>
      <trkpt lat="46.04397" lon="-0.1991">
        <ele>131.036</ele>
        <time>2016-06-05T16:04:35Z</time>
      </trkpt>
      <trkpt lat="46.04423" lon="-0.19897">
        <ele>131.02</ele>
        <time>2016-06-05T16:04:15Z</time>
      </trkpt>
      <trkpt lat="46.0448" lon="-0.20109">
        <ele>131.508</ele>
        <time>2016-06-05T16:03:55Z</time>
      </trkpt>
      <trkpt lat="46.04565" lon="-0.20863">
        <ele>138.009</ele>
        <time>2016-06-05T16:03:35Z</time>
      </trkpt>
      <trkpt lat="46.04607" lon="-0.2074">
        <ele>136.781</ele>
        <time>2016-06-05T16:03:15Z</time>
      </trkpt>
      <trkpt lat="46.05539" lon="-0.2339">
        <ele>135.141</ele>
        <time>2020-12-25T06:35:35Z</time>
      </trkpt>
      <trkpt lat="46.05488" lon="-0.23415">
        <ele>135.95</ele>
        <time>2020-12-25T06:35:15Z</time>
      </trkpt>
      <trkpt lat="46.05433" lon="-0.24213">
        <ele>139.021</ele>
        <time>2020-12-25T06:34:55Z</time>
      </trkpt>
      <trkpt lat="46.0546" lon="-0.24253">
        <ele>140.035</ele>
        <time>2020-12-25T06:34:35Z</time>
      </trkpt>
      <trkpt lat="46.05316" lon="-0.25268">
        <ele>145.613</ele>
        <time>2020-12-25T06:34:15Z</time>
      </trkpt>
      <trkpt lat="46.05197" lon="-0.25317">
        <ele>147.657</ele>
        <time>2020-12-25T06:33:55Z</time>
      </trkpt>
      <trkpt lat="46.05481" lon="-0.26116">
        <ele>136.644</ele>
        <time>2020-12-25T06:33:35Z</time>
      </trkpt>
      <trkpt lat="46.05601" lon="-0.26637">
        <ele>139.719</ele>
        <time>2016-06-05T16:02:15Z</time>
      </trkpt>
      <trkpt lat="46.0564" lon="-0.26778">
        <ele>138.023</ele>
        <time>2016-06-05T16:01:55Z</time>
      </trkpt>
      <trkpt lat="46.05749" lon="-0.27319">
        <ele>131.008</ele>
        <time>2016-06-05T16:01:35Z</time>
      </trkpt>
      <trkpt lat="46.05776" lon="-0.27678">
        <ele>122.025</ele>
        <time>2016-06-05T16:01:15Z</time>
      </trkpt>
      <trkpt lat="46.0578" lon="-0.27793">
        <ele>121.005</ele>
        <time>2016-06-05T16:00:55Z</time>
      </trkpt>
      <trkpt lat="46.05791" lon="-0.2795">
        <ele>117.879</ele>
        <time>2016-06-05T16:00:35Z</time>
      </trkpt>
      <trkpt lat="46.05786" lon="-0.28047">
        <ele>112.354</ele>
        <time>2016-06-05T16:00:15Z</time>
      </trkpt>
      <trkpt lat="46.05798" lon="-0.28328">
        <ele>110.895</ele>
        <time>2016-06-05T15:59:55Z</time>
      </trkpt>
      <trkpt lat="46.05805" lon="-0.28373">
        <ele>110.099</ele>
        <time>2016-06-05T15:59:35Z</time>
      </trkpt>
      <trkpt lat="46.05822" lon="-0.28532">
        <ele>111.537</ele>
        <time>2016-06-05T15:59:15Z</time>
      </trkpt>
      <trkpt lat="46.05923" lon="-0.28274">
        <ele>108.221</ele>
        <time>2016-06-05T15:58:55Z</time>
      </trkpt>
      <trkpt lat="46.0599" lon="-0.28328">
        <ele>110.058</ele>
        <time>2016-06-05T15:58:35Z</time>
      </trkpt>
      <trkpt lat="46.0609" lon="-0.28482">
        <ele>106.563</ele>
        <time>2016-06-05T15:58:15Z</time>
      </trkpt>
      <trkpt lat="46.06158" lon="-0.28559">
        <ele>103.447</ele>
        <time>2016-06-05T15:57:55Z</time>
      </trkpt>
      <trkpt lat="46.06212" lon="-0.28669">
        <ele>102.008</ele>
        <time>2016-06-05T15:57:35Z</time>
      </trkpt>
      <trkpt lat="46.06349" lon="-0.28864">
        <ele>93.213</ele>
        <time>2016-06-05T15:57:15Z</time>
      </trkpt>
      <trkpt lat="46.06346" lon="-0.28899">
        <ele>89.976</ele>
        <time>2016-06-05T15:56:55Z</time>
      </trkpt>
      <trkpt lat="46.06353" lon="-0.28937">
        <ele>88.916</ele>
        <time>2016-06-05T15:56:35Z</time>
      </trkpt>
      <trkpt lat="46.06392" lon="-0.2898">
        <ele>88.182</ele>
        <time>2016-06-05T15:56:15Z</time>
      </trkpt>
      <trkpt lat="46.06392" lon="-0.28997">
        <ele>87.083</ele>
        <time>2016-06-05T15:55:55Z</time>
      </trkpt>
      <trkpt lat="46.06411" lon="-0.29017">
        <ele>85.427</ele>
        <time>2016-06-05T15:55:35Z</time>
      </trkpt>
      <trkpt lat="46.06428" lon="-0.29135">
        <ele>85.795</ele>
        <time>2016-06-05T15:55:15Z</time>
      </trkpt>
      <trkpt lat="46.06586" lon="-0.29143">
        <ele>77.149</ele>
        <time>2016-06-05T15:54:55Z</time>
      </trkpt>
      <trkpt lat="46.06673" lon="-0.29128">
        <ele>78.216</ele>
        <time>2016-06-05T15:54:35Z</time>
      </trkpt>
      <trkpt lat="46.06784" lon="-0.29143">
        <ele>84.271</ele>
        <time>2016-06-05T15:54:15Z</time>
      </trkpt>
      <trkpt lat="46.06915" lon="-0.29128">
        <ele>90.985</ele>
        <time>2016-06-05T15:53:55Z</time>
      </trkpt>
      <trkpt lat="46.07031" lon="-0.29107">
        <ele>98.308</ele>
        <time>2016-06-05T15:53:35Z</time>
      </trkpt>
      <trkpt lat="46.0718" lon="-0.29115">
        <ele>106.22</ele>
        <time>2016-06-05T15:53:15Z</time>
      </trkpt>
      <trkpt lat="46.07254" lon="-0.291">
        <ele>106.973</ele>
        <time>2016-06-05T15:52:55Z</time>
      </trkpt>
      <trkpt lat="46.0737" lon="-0.29109">
        <ele>103.392</ele>
        <time>2016-06-05T15:52:35Z</time>
      </trkpt>
      <trkpt lat="46.07482" lon="-0.29703">
        <ele>109.511</ele>
        <time>2016-06-05T15:52:15Z</time>
      </trkpt>
      <trkpt lat="46.07531" lon="-0.29763">
        <ele>107.932</ele>
        <time>2016-06-05T15:51:55Z</time>
      </trkpt>
      <trkpt lat="46.07558" lon="-0.29845">
        <ele>106.986</ele>
        <time>2016-06-05T15:51:35Z</time>
      </trkpt>
      <trkpt lat="46.07579" lon="-0.29875">
        <ele>106.734</ele>
        <time>2016-06-05T15:51:15Z</time>
      </trkpt>
      <trkpt lat="46.07616" lon="-0.30049">
        <ele>104.758</ele>
        <time>2016-06-05T15:50:55Z</time>
      </trkpt>
      <trkpt lat="46.07681" lon="-0.30158">
        <ele>103.865</ele>
        <time>2016-06-05T15:50:35Z</time>
      </trkpt>
      <trkpt lat="46.0771" lon="-0.30259">
        <ele>102.24</ele>
        <time>2016-06-05T15:50:15Z</time>
      </trkpt>
      <trkpt lat="46.07753" lon="-0.30364">
        <ele>99.484</ele>
        <time>2016-06-05T15:49:55Z</time>
      </trkpt>
      <trkpt lat="46.07832" lon="-0.30712">
        <ele>101.908</ele>
        <time>2016-06-05T15:49:35Z</time>
      </trkpt>
      <trkpt lat="46.07879" lon="-0.31388">
        <ele>104.317</ele>
        <time>2016-06-05T15:49:15Z</time>
      </trkpt>
      <trkpt lat="46.07873" lon="-0.31598">
        <ele>102.489</ele>
        <time>2016-06-05T15:48:55Z</time>
      </trkpt>
      <trkpt lat="46.07881" lon="-0.31735">
        <ele>98.785</ele>
        <time>2016-06-05T15:48:35Z</time>
      </trkpt>
      <trkpt lat="46.0791" lon="-0.31851">
        <ele>96.184</ele>
        <time>2016-06-05T15:48:15Z</time>
      </trkpt>
      <trkpt lat="46.0807" lon="-0.32145">
        <ele>90.435</ele>
        <time>2016-06-05T15:47:55Z</time>
      </trkpt>
      <trkpt lat="46.08102" lon="-0.32418">
        <ele>83.729</ele>
        <time>2016-06-05T15:47:35Z</time>
      </trkpt>
      <trkpt lat="46.08184" lon="-0.32403">
        <ele>86.467</ele>
        <time>2016-06-05T15:47:15Z</time>
      </trkpt>
      <trkpt lat="46.08286" lon="-0.32379">
        <ele>86.661</ele>
        <time>2016-06-05T15:46:55Z</time>
      </trkpt>
      <trkpt lat="46.08369" lon="-0.32572">
        <ele>88.898</ele>
        <time>2016-06-05T15:46:35Z</time>
      </trkpt>
      <trkpt lat="46.08603" lon="-0.32617">
        <ele>92.033</ele>
        <time>2016-06-05T15:46:15Z</time>
      </trkpt>
      <trkpt lat="46.08662" lon="-0.326">
        <ele>94.867</ele>
        <time>2016-06-05T15:45:55Z</time>
      </trkpt>
      <trkpt lat="46.0885" lon="-0.32574">
        <ele>88.308</ele>
        <time>2016-06-05T15:45:35Z</time>
      </trkpt>
      <trkpt lat="46.08928" lon="-0.32578">
        <ele>86.207</ele>
        <time>2016-06-05T15:45:15Z</time>
      </trkpt>
      <trkpt lat="46.09213" lon="-0.326">
        <ele>66.543</ele>
        <time>2016-06-05T15:44:55Z</time>
      </trkpt>
      <trkpt lat="46.09375" lon="-0.32596">
        <ele>60.813</ele>
        <time>2016-06-05T15:44:35Z</time>
      </trkpt>
      <trkpt lat="46.09414" lon="-0.32566">
        <ele>60.847</ele>
        <time>2016-06-05T15:44:15Z</time>
      </trkpt>
      <trkpt lat="46.09519" lon="-0.32546">
        <ele>56.598</ele>
        <time>2016-06-05T15:43:55Z</time>
      </trkpt>
      <trkpt lat="46.09719" lon="-0.32536">
        <ele>55.452</ele>
        <time>2016-06-05T15:43:35Z</time>
      </trkpt>
      <trkpt lat="46.09885" lon="-0.32516">
        <ele>56.05</ele>
        <time>2016-06-05T15:43:15Z</time>
      </trkpt>
      <trkpt lat="46.10108" lon="-0.32553">
        <ele>51.994</ele>
        <time>2016-06-05T15:42:55Z</time>
      </trkpt>
      <trkpt lat="46.10088" lon="-0.32716">
        <ele>53.661</ele>
        <time>2016-06-05T15:42:35Z</time>
      </trkpt>
      <trkpt lat="46.10095" lon="-0.32922">
        <ele>54.296</ele>
        <time>2016-06-05T15:42:15Z</time>
      </trkpt>
      <trkpt lat="46.10071" lon="-0.33102">
        <ele>53.47</ele>
        <time>2016-06-05T15:41:55Z</time>
      </trkpt>
      <trkpt lat="46.10015" lon="-0.33282">
        <ele>51.908</ele>
        <time>2016-06-05T15:41:35Z</time>
      </trkpt>
      <trkpt lat="46.10007" lon="-0.33336">
        <ele>52.715</ele>
        <time>2016-06-05T15:41:15Z</time>
      </trkpt>
      <trkpt lat="46.09976" lon="-0.33287">
        <ele>54.505</ele>
        <time>2016-06-05T15:40:55Z</time>
      </trkpt>
      <trkpt lat="46.09815" lon="-0.33154">
        <ele>60.644</ele>
        <time>2016-06-05T15:40:35Z</time>
      </trkpt>
      <trkpt lat="46.09811" lon="-0.334">
        <ele>61.61</ele>
        <time>2016-06-05T15:39:55Z</time>
      </trkpt>
      <trkpt lat="46.09857" lon="-0.34203">
        <ele>53.951</ele>
        <time>2016-06-05T15:39:35Z</time>
      </trkpt>
      <trkpt lat="46.09875" lon="-0.3428">
        <ele>52.565</ele>
        <time>2016-06-05T15:39:15Z</time>
      </trkpt>
      <trkpt lat="46.09966" lon="-0.34402">
        <ele>43.483</ele>
        <time>2016-06-05T15:38:55Z</time>
      </trkpt>
      <trkpt lat="46.09966" lon="-0.34402">
        <ele>43.457</ele>
        <time>2016-06-05T15:38:35Z</time>
      </trkpt>
      <trkpt lat="46.09949" lon="-0.3451">
        <ele>45.764</ele>
        <time>2016-06-05T15:38:15Z</time>
      </trkpt>
      <trkpt lat="46.09983" lon="-0.34591">
        <ele>43.659</ele>
        <time>2016-06-05T15:37:55Z</time>
      </trkpt>
      <trkpt lat="46.10001" lon="-0.34699">
        <ele>43.123</ele>
        <time>2016-06-05T15:37:35Z</time>
      </trkpt>
      <trkpt lat="46.10034" lon="-0.34696">
        <ele>41.808</ele>
        <time>2016-06-05T15:37:15Z</time>
      </trkpt>
      <trkpt lat="46.10047" lon="-0.34716">
        <ele>41.313</ele>
        <time>2016-06-05T15:36:55Z</time>
      </trkpt>
      <trkpt lat="46.10113" lon="-0.34699">
        <ele>40.085</ele>
        <time>2016-06-05T15:36:35Z</time>
      </trkpt>
      <trkpt lat="46.10116" lon="-0.34623">
        <ele>40.173</ele>
        <time>2016-06-05T15:36:15Z</time>
      </trkpt>
      <trkpt lat="46.10189" lon="-0.34593">
        <ele>43.668</ele>
        <time>2016-06-05T15:35:55Z</time>
      </trkpt>
      <trkpt lat="46.10344" lon="-0.34553">
        <ele>39.059</ele>
        <time>2016-06-05T15:35:35Z</time>
      </trkpt>
      <trkpt lat="46.10466" lon="-0.3449">
        <ele>40.073</ele>
        <time>2016-06-05T15:35:15Z</time>
      </trkpt>
      <trkpt lat="46.10519" lon="-0.34387">
        <ele>39.381</ele>
        <time>2016-06-05T15:34:55Z</time>
      </trkpt>
      <trkpt lat="46.10589" lon="-0.34281">
        <ele>42.055</ele>
        <time>2016-06-05T15:34:35Z</time>
      </trkpt>
      <trkpt lat="46.10661" lon="-0.34199">
        <ele>41.492</ele>
        <time>2016-06-05T15:34:15Z</time>
      </trkpt>
      <trkpt lat="46.10628" lon="-0.34072">
        <ele>40.737</ele>
        <time>2016-06-05T15:33:35Z</time>
      </trkpt>
      <trkpt lat="46.10659" lon="-0.34063">
        <ele>40.051</ele>
        <time>2016-06-05T15:33:15Z</time>
      </trkpt>
      <trkpt lat="46.10745" lon="-0.34063">
        <ele>41.208</ele>
        <time>2016-06-05T15:32:55Z</time>
      </trkpt>
      <trkpt lat="46.10956" lon="-0.34081">
        <ele>42.011</ele>
        <time>2016-06-05T15:32:35Z</time>
      </trkpt>
      <trkpt lat="46.11191" lon="-0.34188">
        <ele>40.901</ele>
        <time>2016-06-05T15:32:15Z</time>
      </trkpt>
      <trkpt lat="46.11367" lon="-0.34244">
        <ele>42.851</ele>
        <time>2016-06-05T15:31:55Z</time>
      </trkpt>
      <trkpt lat="46.11498" lon="-0.34239">
        <ele>44.357</ele>
        <time>2016-06-05T15:31:35Z</time>
      </trkpt>
      <trkpt lat="46.11535" lon="-0.34638">
        <ele>44.788</ele>
        <time>2016-06-05T15:31:15Z</time>
      </trkpt>
      <trkpt lat="46.11556" lon="-0.34696">
        <ele>46.282</ele>
        <time>2016-06-05T15:30:55Z</time>
      </trkpt>
      <trkpt lat="46.11556" lon="-0.34696">
        <ele>46.23</ele>
        <time>2016-06-05T15:30:55Z</time>
      </trkpt>
      <trkpt lat="46.11542" lon="-0.34761">
        <ele>53.234</ele>
        <time>2019-10-27T22:58:22Z</time>
      </trkpt>
      <trkpt lat="46.11554" lon="-0.34853">
        <ele>58.731</ele>
        <time>2019-10-27T22:58:02Z</time>
      </trkpt>
      <trkpt lat="46.11606" lon="-0.34933">
        <ele>63.816</ele>
        <time>2019-10-27T22:57:42Z</time>
      </trkpt>
      <trkpt lat="46.11626" lon="-0.35014">
        <ele>65.58</ele>
        <time>2019-10-27T22:57:22Z</time>
      </trkpt>
      <trkpt lat="46.11707" lon="-0.3513">
        <ele>67.408</ele>
        <time>2019-10-27T22:57:02Z</time>
      </trkpt>
      <trkpt lat="46.11802" lon="-0.35311">
        <ele>66.014</ele>
        <time>2019-10-27T22:56:42Z</time>
      </trkpt>
      <trkpt lat="46.11931" lon="-0.35568">
        <ele>66.322</ele>
        <time>2019-10-27T22:56:22Z</time>
      </trkpt>
      <trkpt lat="46.11958" lon="-0.3566">
        <ele>65.642</ele>
        <time>2019-10-27T22:56:02Z</time>
      </trkpt>
      <trkpt lat="46.12113" lon="-0.35918">
        <ele>76.196</ele>
        <time>2019-10-27T22:55:42Z</time>
      </trkpt>
      <trkpt lat="46.12157" lon="-0.36147">
        <ele>81.377</ele>
        <time>2019-10-27T22:55:22Z</time>
      </trkpt>
      <trkpt lat="46.12107" lon="-0.36349">
        <ele>86.731</ele>
        <time>2019-10-27T22:55:02Z</time>
      </trkpt>
      <trkpt lat="46.12116" lon="-0.36394">
        <ele>86.719</ele>
        <time>2019-10-27T22:54:42Z</time>
      </trkpt>
      <trkpt lat="46.12177" lon="-0.36607">
        <ele>88.753</ele>
        <time>2019-10-27T22:54:22Z</time>
      </trkpt>
      <trkpt lat="46.12227" lon="-0.36686">
        <ele>86.11</ele>
        <time>2019-10-27T22:54:02Z</time>
      </trkpt>
      <trkpt lat="46.12324" lon="-0.36952">
        <ele>87.575</ele>
        <time>2019-10-27T22:53:42Z</time>
      </trkpt>
      <trkpt lat="46.12323" lon="-0.36976">
        <ele>89.019</ele>
        <time>2016-06-05T00:18:20Z</time>
      </trkpt>
      <trkpt lat="46.12348" lon="-0.37042">
        <ele>91.208</ele>
        <time>2016-06-05T00:18:00Z</time>
      </trkpt>
      <trkpt lat="46.12456" lon="-0.36958">
        <ele>87.811</ele>
        <time>2016-06-05T00:17:40Z</time>
      </trkpt>
      <trkpt lat="46.12558" lon="-0.36879">
        <ele>86.792</ele>
        <time>2016-06-05T00:17:20Z</time>
      </trkpt>
      <trkpt lat="46.12656" lon="-0.36864">
        <ele>88.532</ele>
        <time>2016-06-05T00:17:00Z</time>
      </trkpt>
      <trkpt lat="46.12688" lon="-0.36886">
        <ele>88.184</ele>
        <time>2016-06-05T00:16:40Z</time>
      </trkpt>
      <trkpt lat="46.12755" lon="-0.36853">
        <ele>86.035</ele>
        <time>2016-06-05T00:16:20Z</time>
      </trkpt>
      <trkpt lat="46.12876" lon="-0.36892">
        <ele>84.169</ele>
        <time>2016-06-05T00:16:00Z</time>
      </trkpt>
      <trkpt lat="46.129" lon="-0.36886">
        <ele>84.517</ele>
        <time>2016-06-05T00:15:40Z</time>
      </trkpt>
      <trkpt lat="46.12934" lon="-0.36896">
        <ele>85.031</ele>
        <time>2016-06-05T00:15:20Z</time>
      </trkpt>
      <trkpt lat="46.12968" lon="-0.36894">
        <ele>83.598</ele>
        <time>2016-06-05T00:15:00Z</time>
      </trkpt>
      <trkpt lat="46.13585" lon="-0.37525">
        <ele>91.943</ele>
        <time>2016-06-05T00:14:40Z</time>
      </trkpt>
      <trkpt lat="46.13774" lon="-0.37559">
        <ele>95.247</ele>
        <time>2016-06-05T00:14:20Z</time>
      </trkpt>
      <trkpt lat="46.1466" lon="-0.37667">
        <ele>95.008</ele>
        <time>2016-06-05T00:14:00Z</time>
      </trkpt>
      <trkpt lat="46.14609" lon="-0.38609">
        <ele>98.109</ele>
        <time>2016-06-05T00:13:40Z</time>
      </trkpt>
      <trkpt lat="46.14624" lon="-0.38639">
        <ele>99.554</ele>
        <time>2016-06-05T00:13:20Z</time>
      </trkpt>
      <trkpt lat="46.14596" lon="-0.3877">
        <ele>97.314</ele>
        <time>2016-06-05T00:13:00Z</time>
      </trkpt>
      <trkpt lat="46.14483" lon="-0.38821">
        <ele>100.548</ele>
        <time>2016-06-05T00:12:40Z</time>
      </trkpt>
      <trkpt lat="46.14443" lon="-0.38892">
        <ele>99.199</ele>
        <time>2016-06-05T00:12:20Z</time>
      </trkpt>
      <trkpt lat="46.14354" lon="-0.38967">
        <ele>98.223</ele>
        <time>2016-06-05T00:12:00Z</time>
      </trkpt>
      <trkpt lat="46.1436" lon="-0.39033">
        <ele>96.671</ele>
        <time>2016-06-05T00:11:40Z</time>
      </trkpt>
      <trkpt lat="46.14265" lon="-0.39079">
        <ele>95.435</ele>
        <time>2016-06-05T00:11:20Z</time>
      </trkpt>
      <trkpt lat="46.14239" lon="-0.39126">
        <ele>97.152</ele>
        <time>2016-06-05T00:11:00Z</time>
      </trkpt>
      <trkpt lat="46.14259" lon="-0.39233">
        <ele>96.347</ele>
        <time>2016-06-05T00:10:40Z</time>
      </trkpt>
      <trkpt lat="46.1425" lon="-0.39272">
        <ele>96.881</ele>
        <time>2016-06-05T00:10:20Z</time>
      </trkpt>
      <trkpt lat="46.14266" lon="-0.39323">
        <ele>97.808</ele>
        <time>2016-06-05T00:10:00Z</time>
      </trkpt>
      <trkpt lat="46.14259" lon="-0.3939">
        <ele>97.017</ele>
        <time>2016-06-05T00:09:40Z</time>
      </trkpt>
      <trkpt lat="46.14294" lon="-0.39469">
        <ele>97.752</ele>
        <time>2016-06-05T00:09:20Z</time>
      </trkpt>
      <trkpt lat="46.1432" lon="-0.39458">
        <ele>98.858</ele>
        <time>2016-06-05T00:09:00Z</time>
      </trkpt>
      <trkpt lat="46.14336" lon="-0.39467">
        <ele>99.04</ele>
        <time>2016-06-05T00:08:40Z</time>
      </trkpt>
      <trkpt lat="46.14324" lon="-0.39475">
        <ele>98.781</ele>
        <time>2016-06-05T00:08:20Z</time>
      </trkpt>
      <trkpt lat="46.14337" lon="-0.39506">
        <ele>99.015</ele>
        <time>2016-06-05T00:08:00Z</time>
      </trkpt>
      <trkpt lat="46.14395" lon="-0.39506">
        <ele>100.043</ele>
        <time>2016-06-05T00:07:40Z</time>
      </trkpt>
      <trkpt lat="46.14439" lon="-0.39495">
        <ele>97.037</ele>
        <time>2016-06-05T00:07:20Z</time>
      </trkpt>
      <trkpt lat="46.14439" lon="-0.39495">
        <ele>97.034</ele>
        <time>2016-06-05T00:07:00Z</time>
      </trkpt>
      <trkpt lat="46.14441" lon="-0.39486">
        <ele>96.979</ele>
        <time>2016-06-05T00:06:40Z</time>
      </trkpt>
      <trkpt lat="46.14441" lon="-0.39488">
        <ele>96.913</ele>
        <time>2016-06-05T00:06:20Z</time>
      </trkpt>
      <trkpt lat="46.14453" lon="-0.39538">
        <ele>95.408</ele>
        <time>2016-06-05T00:06:00Z</time>
      </trkpt>
      <trkpt lat="46.1445" lon="-0.39591">
        <ele>95.514</ele>
        <time>2016-06-05T00:05:40Z</time>
      </trkpt>
      <trkpt lat="46.14476" lon="-0.39817">
        <ele>97.213</ele>
        <time>2016-06-05T00:05:20Z</time>
      </trkpt>
      <trkpt lat="46.14516" lon="-0.40096">
        <ele>96.072</ele>
        <time>2020-12-25T05:43:35Z</time>
      </trkpt>
      <trkpt lat="46.1458" lon="-0.40082">
        <ele>93.129</ele>
        <time>2020-12-25T05:43:15Z</time>
      </trkpt>
      <trkpt lat="46.14586" lon="-0.40179">
        <ele>91.81</ele>
        <time>2020-12-25T05:42:55Z</time>
      </trkpt>
      <trkpt lat="46.14553" lon="-0.40261">
        <ele>93.074</ele>
        <time>2020-12-25T05:42:35Z</time>
      </trkpt>
      <trkpt lat="46.14599" lon="-0.40387">
        <ele>88.962</ele>
        <time>2016-06-05T00:04:00Z</time>
      </trkpt>
      <trkpt lat="46.14659" lon="-0.40394">
        <ele>85.336</ele>
        <time>2016-06-05T00:03:40Z</time>
      </trkpt>
      <trkpt lat="46.14678" lon="-0.40428">
        <ele>85.063</ele>
        <time>2016-06-05T00:03:20Z</time>
      </trkpt>
      <trkpt lat="46.14717" lon="-0.40608">
        <ele>85.838</ele>
        <time>2016-06-05T00:03:00Z</time>
      </trkpt>
      <trkpt lat="46.14851" lon="-0.40465">
        <ele>80.692</ele>
        <time>2016-06-05T00:02:40Z</time>
      </trkpt>
      <trkpt lat="46.14859" lon="-0.40306">
        <ele>84.008</ele>
        <time>2016-06-05T00:02:20Z</time>
      </trkpt>
      <trkpt lat="46.14922" lon="-0.40272">
        <ele>86.011</ele>
        <time>2016-06-05T00:02:00Z</time>
      </trkpt>
      <trkpt lat="46.14944" lon="-0.40302">
        <ele>83.383</ele>
        <time>2016-06-05T00:01:40Z</time>
      </trkpt>
      <trkpt lat="46.15014" lon="-0.40306">
        <ele>83.062</ele>
        <time>2016-06-05T00:01:20Z</time>
      </trkpt>
      <trkpt lat="46.15167" lon="-0.40132">
        <ele>78.221</ele>
        <time>2016-06-05T00:01:00Z</time>
      </trkpt>
      <trkpt lat="46.15228" lon="-0.40068">
        <ele>78.512</ele>
        <time>2016-06-05T00:00:40Z</time>
      </trkpt>
      <trkpt lat="46.16444" lon="-0.40302">
        <ele>85.076</ele>
        <time>2016-06-05T00:00:20Z</time>
      </trkpt>
      <trkpt lat="46.16548" lon="-0.40192">
        <ele>85.684</ele>
        <time>2016-06-05T00:00:00Z</time>
      </trkpt>
      <trkpt lat="46.16621" lon="-0.40081">
        <ele>88.778</ele>
        <time>2016-06-04T23:59:40Z</time>
      </trkpt>
      <trkpt lat="46.16684" lon="-0.39868">
        <ele>91.525</ele>
        <time>2016-06-04T23:59:20Z</time>
      </trkpt>
      <trkpt lat="46.16676" lon="-0.39847">
        <ele>91.32</ele>
        <time>2016-06-04T23:59:00Z</time>
      </trkpt>
      <trkpt lat="46.16702" lon="-0.39712">
        <ele>93.774</ele>
        <time>2016-06-04T23:58:40Z</time>
      </trkpt>
      <trkpt lat="46.16765" lon="-0.39654">
        <ele>95.908</ele>
        <time>2016-06-04T23:58:20Z</time>
      </trkpt>
      <trkpt lat="46.16823" lon="-0.39591">
        <ele>95.826</ele>
        <time>2016-06-04T23:58:00Z</time>
      </trkpt>
      <trkpt lat="46.16885" lon="-0.39497">
        <ele>98.142</ele>
        <time>2016-06-04T23:57:40Z</time>
      </trkpt>
      <trkpt lat="46.16936" lon="-0.3949">
        <ele>97.687</ele>
        <time>2016-06-04T23:57:00Z</time>
      </trkpt>
      <trkpt lat="46.1697" lon="-0.39454">
        <ele>97.752</ele>
        <time>2016-06-04T23:56:40Z</time>
      </trkpt>
      <trkpt lat="46.17017" lon="-0.39433">
        <ele>97.463</ele>
        <time>2016-06-04T23:56:20Z</time>
      </trkpt>
      <trkpt lat="46.17084" lon="-0.39368">
        <ele>98.067</ele>
        <time>2016-06-04T23:56:00Z</time>
      </trkpt>
      <trkpt lat="46.17139" lon="-0.39289">
        <ele>98.045</ele>
        <time>2016-06-04T23:55:40Z</time>
      </trkpt>
      <trkpt lat="46.17842" lon="-0.39366">
        <ele>87.759</ele>
        <time>2016-06-04T23:55:20Z</time>
      </trkpt>
      <trkpt lat="46.17845" lon="-0.39383">
        <ele>87.616</ele>
        <time>2016-06-04T23:55:00Z</time>
      </trkpt>
      <trkpt lat="46.1783" lon="-0.39433">
        <ele>88.691</ele>
        <time>2016-06-04T23:54:40Z</time>
      </trkpt>
      <trkpt lat="46.1779" lon="-0.39561">
        <ele>89.585</ele>
        <time>2016-06-04T23:54:20Z</time>
      </trkpt>
      <trkpt lat="46.17763" lon="-0.39684">
        <ele>89.008</ele>
        <time>2016-06-04T23:54:00Z</time>
      </trkpt>
      <trkpt lat="46.17748" lon="-0.3978">
        <ele>89.126</ele>
        <time>2016-06-04T23:53:40Z</time>
      </trkpt>
      <trkpt lat="46.17734" lon="-0.3999">
        <ele>88.015</ele>
        <time>2016-06-04T23:53:20Z</time>
      </trkpt>
      <trkpt lat="46.17748" lon="-0.40078">
        <ele>87.098</ele>
        <time>2016-06-04T23:53:00Z</time>
      </trkpt>
      <trkpt lat="46.17736" lon="-0.40181">
        <ele>84.568</ele>
        <time>2016-06-04T23:52:40Z</time>
      </trkpt>
      <trkpt lat="46.17747" lon="-0.40362">
        <ele>82.149</ele>
        <time>2016-06-04T23:52:20Z</time>
      </trkpt>
      <trkpt lat="46.17793" lon="-0.40424">
        <ele>81.343</ele>
        <time>2016-06-04T23:52:00Z</time>
      </trkpt>
      <trkpt lat="46.17791" lon="-0.40467">
        <ele>82.431</ele>
        <time>2016-06-04T23:51:40Z</time>
      </trkpt>
      <trkpt lat="46.17878" lon="-0.40488">
        <ele>85.285</ele>
        <time>2016-06-04T23:51:20Z</time>
      </trkpt>
      <trkpt lat="46.18007" lon="-0.40576">
        <ele>91.762</ele>
        <time>2016-06-04T23:51:00Z</time>
      </trkpt>
      <trkpt lat="46.18151" lon="-0.40746">
        <ele>91.637</ele>
        <time>2016-06-04T23:50:40Z</time>
      </trkpt>
      <trkpt lat="46.18151" lon="-0.40746">
        <ele>91.641</ele>
        <time>2016-06-04T23:50:20Z</time>
      </trkpt>
      <trkpt lat="46.18151" lon="-0.40746">
        <ele>91.608</ele>
        <time>2016-06-04T23:50:00Z</time>
      </trkpt>
      <trkpt lat="46.18151" lon="-0.40746">
        <ele>91.614</ele>
        <time>2016-06-04T23:49:40Z</time>
      </trkpt>
      <trkpt lat="46.18142" lon="-0.40827">
        <ele>93.459</ele>
        <time>2016-06-04T23:49:20Z</time>
      </trkpt>
      <trkpt lat="46.18209" lon="-0.41113">
        <ele>89.956</ele>
        <time>2016-06-04T23:49:00Z</time>
      </trkpt>
      <trkpt lat="46.18294" lon="-0.41387">
        <ele>83.689</ele>
        <time>2016-06-04T23:48:40Z</time>
      </trkpt>
      <trkpt lat="46.18365" lon="-0.41441">
        <ele>84.97</ele>
        <time>2016-06-04T23:48:20Z</time>
      </trkpt>
      <trkpt lat="46.18371" lon="-0.41529">
        <ele>84.724</ele>
        <time>2016-06-04T23:48:00Z</time>
      </trkpt>
      <trkpt lat="46.18402" lon="-0.41578">
        <ele>84.992</ele>
        <time>2016-06-04T23:47:40Z</time>
      </trkpt>
      <trkpt lat="46.18479" lon="-0.41774">
        <ele>79.976</ele>
        <time>2016-06-04T23:47:20Z</time>
      </trkpt>
      <trkpt lat="46.18511" lon="-0.42102">
        <ele>79.893</ele>
        <time>2016-06-04T23:47:00Z</time>
      </trkpt>
      <trkpt lat="46.18568" lon="-0.42276">
        <ele>77.548</ele>
        <time>2016-06-04T23:46:40Z</time>
      </trkpt>
      <trkpt lat="46.18586" lon="-0.42437">
        <ele>79.752</ele>
        <time>2016-06-04T23:46:20Z</time>
      </trkpt>
      <trkpt lat="46.18573" lon="-0.42563">
        <ele>74.908</ele>
        <time>2016-06-04T23:46:00Z</time>
      </trkpt>
      <trkpt lat="46.18579" lon="-0.42666">
        <ele>76.324</ele>
        <time>2016-06-04T23:45:40Z</time>
      </trkpt>
      <trkpt lat="46.18551" lon="-0.42769">
        <ele>78.804</ele>
        <time>2016-06-04T23:45:20Z</time>
      </trkpt>
      <trkpt lat="46.18564" lon="-0.42829">
        <ele>77.769</ele>
        <time>2016-06-04T23:45:00Z</time>
      </trkpt>
      <trkpt lat="46.18564" lon="-0.42829">
        <ele>77.779</ele>
        <time>2016-06-04T23:44:40Z</time>
      </trkpt>
      <trkpt lat="46.18459" lon="-0.42962">
        <ele>78.52</ele>
        <time>2016-06-04T23:44:20Z</time>
      </trkpt>
      <trkpt lat="46.18349" lon="-0.43209">
        <ele>74.284</ele>
        <time>2016-06-04T23:44:00Z</time>
      </trkpt>
      <trkpt lat="46.18335" lon="-0.43147">
        <ele>76.022</ele>
        <time>2016-06-04T23:43:40Z</time>
      </trkpt>
      <trkpt lat="46.18108" lon="-0.43258">
        <ele>74.726</ele>
        <time>2016-06-04T23:43:20Z</time>
      </trkpt>
      <trkpt lat="46.18089" lon="-0.4328">
        <ele>74.043</ele>
        <time>2016-06-04T23:43:00Z</time>
      </trkpt>
      <trkpt lat="46.18161" lon="-0.43591">
        <ele>72.048</ele>
        <time>2016-06-04T23:42:40Z</time>
      </trkpt>
      <trkpt lat="46.18187" lon="-0.4363">
        <ele>71.942</ele>
        <time>2016-06-04T23:42:20Z</time>
      </trkpt>
      <trkpt lat="46.18289" lon="-0.43952">
        <ele>69.908</ele>
        <time>2016-06-04T23:42:00Z</time>
      </trkpt>
      <trkpt lat="46.18306" lon="-0.4419">
        <ele>70.824</ele>
        <time>2016-06-04T23:41:40Z</time>
      </trkpt>
      <trkpt lat="46.18322" lon="-0.44267">
        <ele>71.404</ele>
        <time>2016-06-04T23:41:20Z</time>
      </trkpt>
      <trkpt lat="46.18311" lon="-0.44351">
        <ele>69.969</ele>
        <time>2016-06-04T23:41:00Z</time>
      </trkpt>
      <trkpt lat="46.18323" lon="-0.44419">
        <ele>68.786</ele>
        <time>2016-06-04T23:40:40Z</time>
      </trkpt>
      <trkpt lat="46.18368" lon="-0.44424">
        <ele>68.237</ele>
        <time>2016-06-04T23:40:20Z</time>
      </trkpt>
      <trkpt lat="46.18359" lon="-0.44608">
        <ele>66.871</ele>
        <time>2016-06-04T23:40:00Z</time>
      </trkpt>
      <trkpt lat="46.18323" lon="-0.44836">
        <ele>67.629</ele>
        <time>2016-06-04T23:39:40Z</time>
      </trkpt>
      <trkpt lat="46.18308" lon="-0.45014">
        <ele>64.193</ele>
        <time>2016-06-04T23:39:20Z</time>
      </trkpt>
      <trkpt lat="46.18291" lon="-0.45179">
        <ele>63.63</ele>
        <time>2016-06-04T23:39:00Z</time>
      </trkpt>
      <trkpt lat="46.18242" lon="-0.45235">
        <ele>64.325</ele>
        <time>2016-06-04T23:38:40Z</time>
      </trkpt>
      <trkpt lat="46.18289" lon="-0.45396">
        <ele>65.699</ele>
        <time>2016-06-04T23:38:20Z</time>
      </trkpt>
      <trkpt lat="46.18307" lon="-0.45413">
        <ele>65.008</ele>
        <time>2016-06-04T23:38:00Z</time>
      </trkpt>
      <trkpt lat="46.18334" lon="-0.45602">
        <ele>64.613</ele>
        <time>2016-06-04T23:37:40Z</time>
      </trkpt>
      <trkpt lat="46.18277" lon="-0.45632">
        <ele>67.049</ele>
        <time>2016-06-04T23:37:20Z</time>
      </trkpt>
      <trkpt lat="46.17612" lon="-0.45389">
        <ele>90.537</ele>
        <time>2020-12-25T05:15:35Z</time>
      </trkpt>
      <trkpt lat="46.17484" lon="-0.45484">
        <ele>88.31</ele>
        <time>2020-12-25T05:15:15Z</time>
      </trkpt>
      <trkpt lat="46.17428" lon="-0.45544">
        <ele>86.421</ele>
        <time>2020-12-25T05:14:55Z</time>
      </trkpt>
      <trkpt lat="46.17422" lon="-0.45591">
        <ele>87.075</ele>
        <time>2020-12-25T05:14:35Z</time>
      </trkpt>
      <trkpt lat="46.17332" lon="-0.45599">
        <ele>82.983</ele>
        <time>2016-06-04T23:35:40Z</time>
      </trkpt>
      <trkpt lat="46.17332" lon="-0.45599">
        <ele>82.977</ele>
        <time>2016-06-04T23:35:20Z</time>
      </trkpt>
      <trkpt lat="46.17355" lon="-0.45696">
        <ele>83.834</ele>
        <time>2016-06-04T23:35:00Z</time>
      </trkpt>
      <trkpt lat="46.17481" lon="-0.45816">
        <ele>85.639</ele>
        <time>2016-06-04T23:34:40Z</time>
      </trkpt>
      <trkpt lat="46.17509" lon="-0.45821">
        <ele>86.353</ele>
        <time>2016-06-04T23:34:20Z</time>
      </trkpt>
      <trkpt lat="46.17514" lon="-0.46026">
        <ele>84.008</ele>
        <time>2016-06-04T23:34:00Z</time>
      </trkpt>
      <trkpt lat="46.17581" lon="-0.46221">
        <ele>82.12</ele>
        <time>2016-06-04T23:33:40Z</time>
      </trkpt>
      <trkpt lat="46.17607" lon="-0.46324">
        <ele>80.028</ele>
        <time>2016-06-04T23:33:20Z</time>
      </trkpt>
      <trkpt lat="46.17652" lon="-0.46439">
        <ele>78.675</ele>
        <time>2016-06-04T23:33:00Z</time>
      </trkpt>
      <trkpt lat="46.17704" lon="-0.4661">
        <ele>77.079</ele>
        <time>2016-06-04T23:32:40Z</time>
      </trkpt>
      <trkpt lat="46.17777" lon="-0.46582">
        <ele>75.14</ele>
        <time>2016-06-04T23:32:20Z</time>
      </trkpt>
      <trkpt lat="46.17788" lon="-0.46711">
        <ele>73.484</ele>
        <time>2016-06-04T23:32:00Z</time>
      </trkpt>
      <trkpt lat="46.17815" lon="-0.46947">
        <ele>71.382</ele>
        <time>2016-06-04T23:31:00Z</time>
      </trkpt>
      <trkpt lat="46.17843" lon="-0.4708">
        <ele>70.636</ele>
        <time>2016-06-04T23:30:40Z</time>
      </trkpt>
      <trkpt lat="46.17903" lon="-0.47232">
        <ele>70.773</ele>
        <time>2016-06-04T23:30:20Z</time>
      </trkpt>
      <trkpt lat="46.17937" lon="-0.4735">
        <ele>72.128</ele>
        <time>2016-06-04T23:30:00Z</time>
      </trkpt>
      <trkpt lat="46.17971" lon="-0.47404">
        <ele>70.192</ele>
        <time>2016-06-04T23:29:40Z</time>
      </trkpt>
      <trkpt lat="46.17974" lon="-0.47441">
        <ele>69.908</ele>
        <time>2016-06-04T23:29:20Z</time>
      </trkpt>
      <trkpt lat="46.18004" lon="-0.47434">
        <ele>68.318</ele>
        <time>2016-06-04T23:28:20Z</time>
      </trkpt>
      <trkpt lat="46.1804" lon="-0.47574">
        <ele>66.644</ele>
        <time>2016-06-04T23:28:00Z</time>
      </trkpt>
      <trkpt lat="46.18095" lon="-0.47529">
        <ele>65.663</ele>
        <time>2016-06-04T23:27:40Z</time>
      </trkpt>
      <trkpt lat="46.18173" lon="-0.47526">
        <ele>63.892</ele>
        <time>2016-06-04T23:27:20Z</time>
      </trkpt>
      <trkpt lat="46.18255" lon="-0.47471">
        <ele>63.153</ele>
        <time>2016-06-04T23:27:00Z</time>
      </trkpt>
      <trkpt lat="46.18343" lon="-0.47468">
        <ele>64.787</ele>
        <time>2016-06-04T23:26:40Z</time>
      </trkpt>
      <trkpt lat="46.18444" lon="-0.47516">
        <ele>63.495</ele>
        <time>2016-06-04T23:26:20Z</time>
      </trkpt>
      <trkpt lat="46.18503" lon="-0.47507">
        <ele>64.729</ele>
        <time>2016-06-04T23:26:00Z</time>
      </trkpt>
      <trkpt lat="46.18522" lon="-0.47591">
        <ele>60.956</ele>
        <time>2016-06-04T23:25:40Z</time>
      </trkpt>
      <trkpt lat="46.18528" lon="-0.47691">
        <ele>60.811</ele>
        <time>2020-12-25T05:05:15Z</time>
      </trkpt>
      <trkpt lat="46.18545" lon="-0.47705">
        <ele>61.445</ele>
        <time>2020-12-25T05:04:55Z</time>
      </trkpt>
      <trkpt lat="46.18561" lon="-0.47735">
        <ele>62.008</ele>
        <time>2020-12-25T05:04:35Z</time>
      </trkpt>
      <trkpt lat="46.18584" lon="-0.47811">
        <ele>63.721</ele>
        <time>2020-12-25T05:04:15Z</time>
      </trkpt>
      <trkpt lat="46.18614" lon="-0.47797">
        <ele>63.765</ele>
        <time>2020-12-25T05:03:55Z</time>
      </trkpt>
      <trkpt lat="46.18658" lon="-0.47797">
        <ele>64.093</ele>
        <time>2020-12-25T05:03:35Z</time>
      </trkpt>
      <trkpt lat="46.18658" lon="-0.47747">
        <ele>63.991</ele>
        <time>2020-12-25T05:03:15Z</time>
      </trkpt>
      <trkpt lat="46.18873" lon="-0.47754">
        <ele>58.312</ele>
        <time>2016-06-04T23:24:40Z</time>
      </trkpt>
      <trkpt lat="46.1888" lon="-0.47823">
        <ele>58.616</ele>
        <time>2016-06-04T23:24:20Z</time>
      </trkpt>
      <trkpt lat="46.18922" lon="-0.47895">
        <ele>52.874</ele>
        <time>2016-06-04T23:24:00Z</time>
      </trkpt>
      <trkpt lat="46.18971" lon="-0.47921">
        <ele>51.078</ele>
        <time>2016-06-04T23:23:40Z</time>
      </trkpt>
      <trkpt lat="46.19036" lon="-0.47919">
        <ele>51.065</ele>
        <time>2016-06-04T23:23:20Z</time>
      </trkpt>
      <trkpt lat="46.19057" lon="-0.47945">
        <ele>50.01</ele>
        <time>2016-06-04T23:23:00Z</time>
      </trkpt>
      <trkpt lat="46.19088" lon="-0.48063">
        <ele>50.844</ele>
        <time>2016-06-04T23:22:40Z</time>
      </trkpt>
      <trkpt lat="46.19133" lon="-0.48172">
        <ele>51.808</ele>
        <time>2016-06-04T23:22:20Z</time>
      </trkpt>
      <trkpt lat="46.19198" lon="-0.48233">
        <ele>50.926</ele>
        <time>2016-06-04T23:22:00Z</time>
      </trkpt>
      <trkpt lat="46.19448" lon="-0.4867">
        <ele>59.824</ele>
        <time>2016-06-04T23:21:40Z</time>
      </trkpt>
      <trkpt lat="46.19335" lon="-0.48752">
        <ele>63.188</ele>
        <time>2016-06-04T23:21:20Z</time>
      </trkpt>
      <trkpt lat="46.19304" lon="-0.48752">
        <ele>62.087</ele>
        <time>2016-06-04T23:21:00Z</time>
      </trkpt>
      <trkpt lat="46.19243" lon="-0.48771">
        <ele>62.888</ele>
        <time>2016-06-04T23:20:40Z</time>
      </trkpt>
      <trkpt lat="46.19293" lon="-0.48829">
        <ele>66.252</ele>
        <time>2016-06-04T23:20:20Z</time>
      </trkpt>
      <trkpt lat="46.1935" lon="-0.48955">
        <ele>61.59</ele>
        <time>2016-06-04T23:20:00Z</time>
      </trkpt>
      <trkpt lat="46.19391" lon="-0.49114">
        <ele>66.774</ele>
        <time>2016-06-04T23:19:40Z</time>
      </trkpt>
      <trkpt lat="46.1942" lon="-0.49168">
        <ele>66.871</ele>
        <time>2016-06-04T23:18:20Z</time>
      </trkpt>
      <trkpt lat="46.19464" lon="-0.49194">
        <ele>65.336</ele>
        <time>2016-06-04T23:18:00Z</time>
      </trkpt>
      <trkpt lat="46.19574" lon="-0.49406">
        <ele>68.37</ele>
        <time>2016-06-04T23:17:40Z</time>
      </trkpt>
      <trkpt lat="46.19723" lon="-0.49601">
        <ele>69.008</ele>
        <time>2016-06-04T23:17:20Z</time>
      </trkpt>
      <trkpt lat="46.19767" lon="-0.49612">
        <ele>69.015</ele>
        <time>2016-06-04T23:17:00Z</time>
      </trkpt>
      <trkpt lat="46.19761" lon="-0.4967">
        <ele>68.505</ele>
        <time>2016-06-04T23:16:40Z</time>
      </trkpt>
      <trkpt lat="46.19721" lon="-0.497">
        <ele>67.044</ele>
        <time>2016-06-04T23:16:20Z</time>
      </trkpt>
      <trkpt lat="46.19681" lon="-0.49726">
        <ele>66.189</ele>
        <time>2016-06-04T23:16:00Z</time>
      </trkpt>
      <trkpt lat="46.19733" lon="-0.49928">
        <ele>64.63</ele>
        <time>2016-06-04T23:15:40Z</time>
      </trkpt>
      <trkpt lat="46.19877" lon="-0.50196">
        <ele>60.644</ele>
        <time>2016-06-04T23:15:20Z</time>
      </trkpt>
      <trkpt lat="46.19931" lon="-0.50187">
        <ele>61.132</ele>
        <time>2016-06-04T23:15:00Z</time>
      </trkpt>
      <trkpt lat="46.19975" lon="-0.50204">
        <ele>61.216</ele>
        <time>2016-06-04T23:14:40Z</time>
      </trkpt>
      <trkpt lat="46.20011" lon="-0.50299">
        <ele>61.243</ele>
        <time>2016-06-04T23:14:20Z</time>
      </trkpt>
      <trkpt lat="46.20058" lon="-0.50342">
        <ele>58.028</ele>
        <time>2016-06-04T23:14:00Z</time>
      </trkpt>
      <trkpt lat="46.2014" lon="-0.5046">
        <ele>57.052</ele>
        <time>2016-06-04T23:13:40Z</time>
      </trkpt>
      <trkpt lat="46.20234" lon="-0.50668">
        <ele>53.008</ele>
        <time>2016-06-04T23:13:20Z</time>
      </trkpt>
      <trkpt lat="46.20329" lon="-0.50839">
        <ele>54.713</ele>
        <time>2016-06-04T23:13:00Z</time>
      </trkpt>
      <trkpt lat="46.20422" lon="-0.5117">
        <ele>53.921</ele>
        <time>2016-06-04T23:12:40Z</time>
      </trkpt>
      <trkpt lat="46.2045" lon="-0.51376">
        <ele>53.061</ele>
        <time>2016-06-04T23:12:20Z</time>
      </trkpt>
      <trkpt lat="46.20433" lon="-0.51565">
        <ele>49.099</ele>
        <time>2016-06-04T23:12:00Z</time>
      </trkpt>
      <trkpt lat="46.2045" lon="-0.51676">
        <ele>43.44</ele>
        <time>2016-06-04T23:11:40Z</time>
      </trkpt>
      <trkpt lat="46.20507" lon="-0.51854">
        <ele>40.024</ele>
        <time>2016-06-04T23:11:20Z</time>
      </trkpt>
      <trkpt lat="46.20594" lon="-0.51979">
        <ele>38.972</ele>
        <time>2016-06-04T23:11:00Z</time>
      </trkpt>
      <trkpt lat="46.20691" lon="-0.52155">
        <ele>41.766</ele>
        <time>2016-06-04T23:10:40Z</time>
      </trkpt>
      <trkpt lat="46.2071" lon="-0.52251">
        <ele>40.533</ele>
        <time>2016-06-04T23:10:20Z</time>
      </trkpt>
      <trkpt lat="46.20857" lon="-0.52539">
        <ele>41.418</ele>
        <time>2016-06-04T23:10:00Z</time>
      </trkpt>
      <trkpt lat="46.20967" lon="-0.52681">
        <ele>37.362</ele>
        <time>2016-06-04T23:09:40Z</time>
      </trkpt>
      <trkpt lat="46.2101" lon="-0.52696">
        <ele>36.608</ele>
        <time>2016-06-04T23:09:20Z</time>
      </trkpt>
      <trkpt lat="46.21163" lon="-0.52859">
        <ele>36.019</ele>
        <time>2016-06-04T23:09:00Z</time>
      </trkpt>
      <trkpt lat="46.21191" lon="-0.52938">
        <ele>33.381</ele>
        <time>2016-06-04T23:08:40Z</time>
      </trkpt>
      <trkpt lat="46.21263" lon="-0.52867">
        <ele>38.667</ele>
        <time>2016-06-04T23:08:20Z</time>
      </trkpt>
      <trkpt lat="46.21304" lon="-0.5288">
        <ele>36.748</ele>
        <time>2016-06-04T23:08:00Z</time>
      </trkpt>
      <trkpt lat="46.21365" lon="-0.52955">
        <ele>34.479</ele>
        <time>2016-06-04T23:07:40Z</time>
      </trkpt>
      <trkpt lat="46.21445" lon="-0.52959">
        <ele>34.073</ele>
        <time>2016-06-04T23:07:20Z</time>
      </trkpt>
      <trkpt lat="46.21482" lon="-0.52987">
        <ele>33.771</ele>
        <time>2016-06-04T23:07:00Z</time>
      </trkpt>
      <trkpt lat="46.21527" lon="-0.5306">
        <ele>34.055</ele>
        <time>2016-06-04T23:06:40Z</time>
      </trkpt>
      <trkpt lat="46.21577" lon="-0.53039">
        <ele>37.042</ele>
        <time>2016-06-04T23:06:20Z</time>
      </trkpt>
      <trkpt lat="46.21668" lon="-0.53005">
        <ele>36.887</ele>
        <time>2016-06-04T23:06:00Z</time>
      </trkpt>
      <trkpt lat="46.21824" lon="-0.52962">
        <ele>31.511</ele>
        <time>2016-06-04T23:05:40Z</time>
      </trkpt>
      <trkpt lat="46.22018" lon="-0.52863">
        <ele>28.008</ele>
        <time>2016-06-04T23:05:20Z</time>
      </trkpt>
      <trkpt lat="46.22042" lon="-0.52861">
        <ele>28.017</ele>
        <time>2016-06-04T23:05:00Z</time>
      </trkpt>
      <trkpt lat="46.22091" lon="-0.52822">
        <ele>28.007</ele>
        <time>2016-06-04T23:04:40Z</time>
      </trkpt>
      <trkpt lat="46.22188" lon="-0.52794">
        <ele>26.955</ele>
        <time>2016-06-04T23:04:20Z</time>
      </trkpt>
      <trkpt lat="46.22324" lon="-0.52723">
        <ele>24.039</ele>
        <time>2016-06-04T23:04:00Z</time>
      </trkpt>
      <trkpt lat="46.22623" lon="-0.52655">
        <ele>26.04</ele>
        <time>2016-06-04T23:03:40Z</time>
      </trkpt>
      <trkpt lat="46.22818" lon="-0.52629">
        <ele>26.444</ele>
        <time>2016-06-04T23:03:20Z</time>
      </trkpt>
      <trkpt lat="46.22885" lon="-0.52629">
        <ele>25.412</ele>
        <time>2016-06-04T23:03:00Z</time>
      </trkpt>
      <trkpt lat="46.23013" lon="-0.52595">
        <ele>25.016</ele>
        <time>2016-06-04T23:02:40Z</time>
      </trkpt>
      <trkpt lat="46.23046" lon="-0.52537">
        <ele>25.013</ele>
        <time>2016-06-04T23:02:20Z</time>
      </trkpt>
      <trkpt lat="46.23069" lon="-0.52331">
        <ele>23.548</ele>
        <time>2016-06-04T23:02:00Z</time>
      </trkpt>
      <trkpt lat="46.23001" lon="-0.52311">
        <ele>24.042</ele>
        <time>2016-06-04T23:01:40Z</time>
      </trkpt>
      <trkpt lat="46.2298" lon="-0.52275">
        <ele>24.408</ele>
        <time>2016-06-04T23:01:20Z</time>
      </trkpt>
      <trkpt lat="46.22936" lon="-0.52254">
        <ele>25.311</ele>
        <time>2016-06-04T23:01:00Z</time>
      </trkpt>
      <trkpt lat="46.22845" lon="-0.52215">
        <ele>27.483</ele>
        <time>2016-06-04T23:00:40Z</time>
      </trkpt>
      <trkpt lat="46.2287" lon="-0.5209">
        <ele>26.862</ele>
        <time>2016-06-04T23:00:20Z</time>
      </trkpt>
      <trkpt lat="46.2289" lon="-0.52065">
        <ele>27.734</ele>
        <time>2016-06-04T23:00:00Z</time>
      </trkpt>
      <trkpt lat="46.22934" lon="-0.5193">
        <ele>24.815</ele>
        <time>2016-06-04T22:59:40Z</time>
      </trkpt>
      <trkpt lat="46.22928" lon="-0.51857">
        <ele>25.259</ele>
        <time>2016-06-04T22:59:20Z</time>
      </trkpt>
      <trkpt lat="46.23071" lon="-0.51857">
        <ele>25.537</ele>
        <time>2016-06-04T22:59:00Z</time>
      </trkpt>
      <trkpt lat="46.23083" lon="-0.51736">
        <ele>24.031</ele>
        <time>2016-06-04T22:58:40Z</time>
      </trkpt>
      <trkpt lat="46.23166" lon="-0.51698">
        <ele>22.918</ele>
        <time>2016-06-04T22:58:20Z</time>
      </trkpt>
      <trkpt lat="46.23255" lon="-0.51687">
        <ele>25.023</ele>
        <time>2016-06-04T22:58:00Z</time>
      </trkpt>
      <trkpt lat="46.23268" lon="-0.5161">
        <ele>24.077</ele>
        <time>2016-06-04T22:57:40Z</time>
      </trkpt>
      <trkpt lat="46.23328" lon="-0.51352">
        <ele>23.608</ele>
        <time>2016-06-04T22:57:20Z</time>
      </trkpt>
      <trkpt lat="46.23378" lon="-0.51312">
        <ele>27.813</ele>
        <time>2016-06-04T22:57:00Z</time>
      </trkpt>
      <trkpt lat="46.23581" lon="-0.51299">
        <ele>25.276</ele>
        <time>2016-06-04T22:56:40Z</time>
      </trkpt>
      <trkpt lat="46.23641" lon="-0.51284">
        <ele>26.816</ele>
        <time>2016-06-04T22:56:20Z</time>
      </trkpt>
      <trkpt lat="46.23742" lon="-0.51301">
        <ele>23.415</ele>
        <time>2016-06-04T22:56:00Z</time>
      </trkpt>
      <trkpt lat="46.23823" lon="-0.51284">
        <ele>25.916</ele>
        <time>2016-06-04T22:55:40Z</time>
      </trkpt>
      <trkpt lat="46.23791" lon="-0.51118">
        <ele>27.42</ele>
        <time>2016-06-04T22:55:20Z</time>
      </trkpt>
      <trkpt lat="46.23779" lon="-0.50957">
        <ele>25.588</ele>
        <time>2016-06-04T22:55:00Z</time>
      </trkpt>
      <trkpt lat="46.23751" lon="-0.50878">
        <ele>27.082</ele>
        <time>2016-06-04T22:54:40Z</time>
      </trkpt>
      <trkpt lat="46.23724" lon="-0.50788">
        <ele>27.059</ele>
        <time>2016-06-04T22:54:20Z</time>
      </trkpt>
      <trkpt lat="46.23657" lon="-0.50653">
        <ele>28.734</ele>
        <time>2016-06-04T22:54:00Z</time>
      </trkpt>
      <trkpt lat="46.23647" lon="-0.50569">
        <ele>27.938</ele>
        <time>2016-06-04T22:53:40Z</time>
      </trkpt>
      <trkpt lat="46.23601" lon="-0.50556">
        <ele>26.408</ele>
        <time>2016-06-04T22:53:20Z</time>
      </trkpt>
      <trkpt lat="46.23575" lon="-0.50485">
        <ele>26.32</ele>
        <time>2016-06-04T22:53:00Z</time>
      </trkpt>
      <trkpt lat="46.23568" lon="-0.50406">
        <ele>27</ele>
        <time>2016-06-04T22:52:40Z</time>
      </trkpt>
      <trkpt lat="46.23619" lon="-0.50367">
        <ele>27.029</ele>
        <time>2016-06-04T22:52:20Z</time>
      </trkpt>
      <trkpt lat="46.23675" lon="-0.50344">
        <ele>28.074</ele>
        <time>2016-06-04T22:52:00Z</time>
      </trkpt>
      <trkpt lat="46.2389" lon="-0.50108">
        <ele>27.035</ele>
        <time>2016-06-04T22:51:40Z</time>
      </trkpt>
      <trkpt lat="46.23927" lon="-0.50252">
        <ele>27.099</ele>
        <time>2016-06-04T22:51:20Z</time>
      </trkpt>
      <trkpt lat="46.2393" lon="-0.50365">
        <ele>28.047</ele>
        <time>2016-06-04T22:51:00Z</time>
      </trkpt>
      <trkpt lat="46.24037" lon="-0.50266">
        <ele>29.511</ele>
        <time>2016-06-04T22:50:40Z</time>
      </trkpt>
      <trkpt lat="46.24717" lon="-0.50258">
        <ele>37.078</ele>
        <time>2016-06-04T22:50:20Z</time>
      </trkpt>
      <trkpt lat="46.2468" lon="-0.50299">
        <ele>36.123</ele>
        <time>2016-06-04T22:50:00Z</time>
      </trkpt>
      <trkpt lat="46.24589" lon="-0.50648">
        <ele>34.747</ele>
        <time>2016-06-04T22:49:40Z</time>
      </trkpt>
      <trkpt lat="46.24616" lon="-0.50795">
        <ele>34.608</ele>
        <time>2016-06-04T22:49:20Z</time>
      </trkpt>
      <trkpt lat="46.2464" lon="-0.51005">
        <ele>34.019</ele>
        <time>2016-06-04T22:49:00Z</time>
      </trkpt>
      <trkpt lat="46.24687" lon="-0.51191">
        <ele>34.509</ele>
        <time>2016-06-04T22:48:40Z</time>
      </trkpt>
      <trkpt lat="46.24776" lon="-0.51338">
        <ele>35.819</ele>
        <time>2016-06-04T22:48:00Z</time>
      </trkpt>
      <trkpt lat="46.24819" lon="-0.51455">
        <ele>31.048</ele>
        <time>2016-06-04T22:47:40Z</time>
      </trkpt>
      <trkpt lat="46.24865" lon="-0.5153">
        <ele>29.669</ele>
        <time>2016-06-04T22:47:20Z</time>
      </trkpt>
      <trkpt lat="46.25419" lon="-0.51522">
        <ele>13.123</ele>
        <time>2016-06-04T22:45:20Z</time>
      </trkpt>
      <trkpt lat="46.25404" lon="-0.51623">
        <ele>15.071</ele>
        <time>2016-06-04T22:45:00Z</time>
      </trkpt>
      <trkpt lat="46.25397" lon="-0.51823">
        <ele>12.485</ele>
        <time>2016-06-04T22:44:40Z</time>
      </trkpt>
      <trkpt lat="46.25344" lon="-0.52215">
        <ele>12.242</ele>
        <time>2016-06-04T22:44:20Z</time>
      </trkpt>
      <trkpt lat="46.25307" lon="-0.52824">
        <ele>13.487</ele>
        <time>2016-06-04T22:43:20Z</time>
      </trkpt>
      <trkpt lat="46.25379" lon="-0.52996">
        <ele>13.171</ele>
        <time>2016-06-04T22:42:40Z</time>
      </trkpt>
      <trkpt lat="46.25393" lon="-0.53067">
        <ele>12.408</ele>
        <time>2016-06-04T22:42:20Z</time>
      </trkpt>
      <trkpt lat="46.25436" lon="-0.53168">
        <ele>14.32</ele>
        <time>2016-06-04T22:42:00Z</time>
      </trkpt>
      <trkpt lat="46.25484" lon="-0.53337">
        <ele>13.1</ele>
        <time>2016-06-04T22:41:40Z</time>
      </trkpt>
      <trkpt lat="46.25445" lon="-0.53357">
        <ele>15.157</ele>
        <time>2020-12-25T04:23:35Z</time>
      </trkpt>
      <trkpt lat="46.25415" lon="-0.5339">
        <ele>16.112</ele>
        <time>2020-12-25T04:23:15Z</time>
      </trkpt>
      <trkpt lat="46.25498" lon="-0.53591">
        <ele>18.073</ele>
        <time>2020-12-25T04:22:55Z</time>
      </trkpt>
      <trkpt lat="46.25409" lon="-0.5366">
        <ele>19.167</ele>
        <time>2020-12-25T04:22:35Z</time>
      </trkpt>
      <trkpt lat="46.2534" lon="-0.53887">
        <ele>23.285</ele>
        <time>2020-12-25T04:22:15Z</time>
      </trkpt>
      <trkpt lat="46.25385" lon="-0.54072">
        <ele>24.489</ele>
        <time>2020-12-25T04:21:55Z</time>
      </trkpt>
      <trkpt lat="46.2542" lon="-0.54328">
        <ele>22.096</ele>
        <time>2020-12-25T04:21:35Z</time>
      </trkpt>
      <trkpt lat="46.25468" lon="-0.54509">
        <ele>24.151</ele>
        <time>2020-12-25T04:21:15Z</time>
      </trkpt>
      <trkpt lat="46.25551" lon="-0.54417">
        <ele>18.555</ele>
        <time>2020-12-25T04:20:55Z</time>
      </trkpt>
      <trkpt lat="46.25589" lon="-0.54412">
        <ele>16.808</ele>
        <time>2020-12-25T04:20:35Z</time>
      </trkpt>
      <trkpt lat="46.25651" lon="-0.54485">
        <ele>14.627</ele>
        <time>2020-12-25T04:20:15Z</time>
      </trkpt>
      <trkpt lat="46.25725" lon="-0.5433">
        <ele>16.007</ele>
        <time>2020-12-25T04:19:55Z</time>
      </trkpt>
      <trkpt lat="46.25763" lon="-0.54316">
        <ele>15.499</ele>
        <time>2020-12-25T04:19:35Z</time>
      </trkpt>
      <trkpt lat="46.25806" lon="-0.54342">
        <ele>13.914</ele>
        <time>2020-12-25T04:19:15Z</time>
      </trkpt>
      <trkpt lat="46.25821" lon="-0.54393">
        <ele>13.175</ele>
        <time>2020-12-25T04:18:55Z</time>
      </trkpt>
      <trkpt lat="46.2596" lon="-0.54341">
        <ele>11.149</ele>
        <time>2020-12-25T04:18:35Z</time>
      </trkpt>
      <trkpt lat="46.26239" lon="-0.54318">
        <ele>12.657</ele>
        <time>2020-12-25T04:18:15Z</time>
      </trkpt>
      <trkpt lat="46.2634" lon="-0.54367">
        <ele>12.411</ele>
        <time>2020-12-25T04:17:55Z</time>
      </trkpt>
      <trkpt lat="46.26461" lon="-0.54475">
        <ele>14.138</ele>
        <time>2020-12-25T04:17:35Z</time>
      </trkpt>
      <trkpt lat="46.26595" lon="-0.54557">
        <ele>13.163</ele>
        <time>2020-12-25T04:17:15Z</time>
      </trkpt>
      <trkpt lat="46.26895" lon="-0.54908">
        <ele>15.187</ele>
        <time>2020-12-25T04:16:55Z</time>
      </trkpt>
      <trkpt lat="46.26996" lon="-0.54931">
        <ele>16.008</ele>
        <time>2020-12-25T04:16:35Z</time>
      </trkpt>
      <trkpt lat="46.27042" lon="-0.54957">
        <ele>14.713</ele>
        <time>2020-12-25T04:16:15Z</time>
      </trkpt>
      <trkpt lat="46.27138" lon="-0.5511">
        <ele>8.376</ele>
        <time>2020-12-25T04:15:55Z</time>
      </trkpt>
      <trkpt lat="46.27156" lon="-0.55192">
        <ele>7.116</ele>
        <time>2020-12-25T04:15:35Z</time>
      </trkpt>
      <trkpt lat="46.27239" lon="-0.55245">
        <ele>6.089</ele>
        <time>2020-12-25T04:15:15Z</time>
      </trkpt>
      <trkpt lat="46.27466" lon="-0.55473">
        <ele>3.29</ele>
        <time>2020-12-25T04:14:55Z</time>
      </trkpt>
      <trkpt lat="46.27559" lon="-0.55502">
        <ele>4.774</ele>
        <time>2020-12-25T04:14:35Z</time>
      </trkpt>
      <trkpt lat="46.27693" lon="-0.55495">
        <ele>6.062</ele>
        <time>2020-12-25T04:14:15Z</time>
      </trkpt>
      <trkpt lat="46.27716" lon="-0.55562">
        <ele>6.496</ele>
        <time>2020-12-25T04:13:55Z</time>
      </trkpt>
      <trkpt lat="46.27843" lon="-0.55536">
        <ele>5.643</ele>
        <time>2020-12-25T04:13:35Z</time>
      </trkpt>
      <trkpt lat="46.2791" lon="-0.55495">
        <ele>6.838</ele>
        <time>2020-12-25T04:13:15Z</time>
      </trkpt>
      <trkpt lat="46.27987" lon="-0.5548">
        <ele>6.152</ele>
        <time>2020-12-25T04:12:55Z</time>
      </trkpt>
      <trkpt lat="46.28065" lon="-0.55133">
        <ele>4.608</ele>
        <time>2020-12-25T04:12:35Z</time>
      </trkpt>
      <trkpt lat="46.28119" lon="-0.54964">
        <ele>5.216</ele>
        <time>2020-12-25T04:12:15Z</time>
      </trkpt>
      <trkpt lat="46.28222" lon="-0.54822">
        <ele>6.106</ele>
        <time>2020-12-25T04:11:55Z</time>
      </trkpt>
      <trkpt lat="46.28189" lon="-0.544">
        <ele>4.764</ele>
        <time>2020-12-25T04:11:35Z</time>
      </trkpt>
      <trkpt lat="46.28194" lon="-0.54228">
        <ele>4.228</ele>
        <time>2020-12-25T04:11:15Z</time>
      </trkpt>
      <trkpt lat="46.28096" lon="-0.5375">
        <ele>4.299</ele>
        <time>2020-12-25T04:10:55Z</time>
      </trkpt>
      <trkpt lat="46.28114" lon="-0.53553">
        <ele>5.723</ele>
        <time>2020-12-25T04:10:35Z</time>
      </trkpt>
      <trkpt lat="46.28108" lon="-0.53423">
        <ele>7.581</ele>
        <time>2020-12-25T04:10:15Z</time>
      </trkpt>
      <trkpt lat="46.28087" lon="-0.53307">
        <ele>9.075</ele>
        <time>2020-12-25T04:09:55Z</time>
      </trkpt>
      <trkpt lat="46.28345" lon="-0.53303">
        <ele>8.512</ele>
        <time>2016-06-04T22:31:40Z</time>
      </trkpt>
      <trkpt lat="46.28442" lon="-0.5329">
        <ele>10.657</ele>
        <time>2016-06-04T22:31:20Z</time>
      </trkpt>
      <trkpt lat="46.28827" lon="-0.53314">
        <ele>13.951</ele>
        <time>2016-06-04T22:31:00Z</time>
      </trkpt>
      <trkpt lat="46.2887" lon="-0.53275">
        <ele>15.008</ele>
        <time>2016-06-04T22:30:40Z</time>
      </trkpt>
      <trkpt lat="46.29214" lon="-0.53277">
        <ele>21.02</ele>
        <time>2016-06-04T22:30:20Z</time>
      </trkpt>
      <trkpt lat="46.29318" lon="-0.53245">
        <ele>12.6</ele>
        <time>2016-06-04T22:30:00Z</time>
      </trkpt>
      <trkpt lat="46.29398" lon="-0.53234">
        <ele>9.357</ele>
        <time>2016-06-04T22:29:40Z</time>
      </trkpt>
      <trkpt lat="46.29678" lon="-0.5332">
        <ele>13.681</ele>
        <time>2016-06-04T22:29:20Z</time>
      </trkpt>
      <trkpt lat="46.29674" lon="-0.53243">
        <ele>20.432</ele>
        <time>2016-06-04T22:29:00Z</time>
      </trkpt>
      <trkpt lat="46.29675" lon="-0.5317">
        <ele>25.216</ele>
        <time>2016-06-04T22:28:40Z</time>
      </trkpt>
      <trkpt lat="46.29638" lon="-0.52944">
        <ele>23.044</ele>
        <time>2016-06-04T22:28:20Z</time>
      </trkpt>
      <trkpt lat="46.29598" lon="-0.52929">
        <ele>23.528</ele>
        <time>2016-06-04T22:28:00Z</time>
      </trkpt>
      <trkpt lat="46.29595" lon="-0.5288">
        <ele>23.015</ele>
        <time>2016-06-04T22:27:40Z</time>
      </trkpt>
      <trkpt lat="46.29619" lon="-0.52758">
        <ele>24.95</ele>
        <time>2016-06-04T22:27:20Z</time>
      </trkpt>
      <trkpt lat="46.29619" lon="-0.52605">
        <ele>23.644</ele>
        <time>2016-06-04T22:27:00Z</time>
      </trkpt>
      <trkpt lat="46.29651" lon="-0.525">
        <ele>24.408</ele>
        <time>2016-06-04T22:26:40Z</time>
      </trkpt>
      <trkpt lat="46.29709" lon="-0.52442">
        <ele>24.017</ele>
        <time>2016-06-04T22:26:20Z</time>
      </trkpt>
      <trkpt lat="46.29745" lon="-0.52387">
        <ele>25.861</ele>
        <time>2016-06-04T22:26:00Z</time>
      </trkpt>
      <trkpt lat="46.29749" lon="-0.52247">
        <ele>27.981</ele>
        <time>2016-06-04T22:25:40Z</time>
      </trkpt>
      <trkpt lat="46.29798" lon="-0.52099">
        <ele>27.016</ele>
        <time>2016-06-04T22:25:20Z</time>
      </trkpt>
      <trkpt lat="46.29855" lon="-0.52005">
        <ele>28.187</ele>
        <time>2016-06-04T22:25:00Z</time>
      </trkpt>
      <trkpt lat="46.29903" lon="-0.51779">
        <ele>27.591</ele>
        <time>2016-06-04T22:24:40Z</time>
      </trkpt>
      <trkpt lat="46.29921" lon="-0.51614">
        <ele>28.179</ele>
        <time>2016-06-04T22:24:20Z</time>
      </trkpt>
      <trkpt lat="46.29895" lon="-0.51472">
        <ele>27.483</ele>
        <time>2016-06-04T22:24:00Z</time>
      </trkpt>
      <trkpt lat="46.29911" lon="-0.51359">
        <ele>28.89</ele>
        <time>2016-06-04T22:23:40Z</time>
      </trkpt>
      <trkpt lat="46.29858" lon="-0.51249">
        <ele>26.915</ele>
        <time>2016-06-04T22:23:20Z</time>
      </trkpt>
      <trkpt lat="46.29914" lon="-0.51217">
        <ele>29.999</ele>
        <time>2016-06-04T22:23:00Z</time>
      </trkpt>
      <trkpt lat="46.29954" lon="-0.5117">
        <ele>29.608</ele>
        <time>2016-06-04T22:22:40Z</time>
      </trkpt>
      <trkpt lat="46.30004" lon="-0.51133">
        <ele>27.814</ele>
        <time>2016-06-04T22:22:20Z</time>
      </trkpt>
      <trkpt lat="46.30015" lon="-0.51168">
        <ele>27.986</ele>
        <time>2016-06-04T22:22:00Z</time>
      </trkpt>
      <trkpt lat="46.30062" lon="-0.51155">
        <ele>25.035</ele>
        <time>2016-06-04T22:21:40Z</time>
      </trkpt>
      <trkpt lat="46.30074" lon="-0.51187">
        <ele>25.772</ele>
        <time>2016-06-04T22:21:20Z</time>
      </trkpt>
      <trkpt lat="46.30083" lon="-0.51266">
        <ele>27.083</ele>
        <time>2016-06-04T22:21:00Z</time>
      </trkpt>
      <trkpt lat="46.30092" lon="-0.51312">
        <ele>25.587</ele>
        <time>2016-06-04T22:20:40Z</time>
      </trkpt>
      <trkpt lat="46.30129" lon="-0.51387">
        <ele>15.225</ele>
        <time>2016-06-04T22:20:20Z</time>
      </trkpt>
      <trkpt lat="46.30201" lon="-0.51423">
        <ele>8.479</ele>
        <time>2016-06-04T22:20:00Z</time>
      </trkpt>
      <trkpt lat="46.30187" lon="-0.51533">
        <ele>9.916</ele>
        <time>2016-06-04T22:19:40Z</time>
      </trkpt>
      <trkpt lat="46.30212" lon="-0.51567">
        <ele>8.021</ele>
        <time>2016-06-04T22:19:20Z</time>
      </trkpt>
      <trkpt lat="46.30246" lon="-0.51578">
        <ele>7.935</ele>
        <time>2020-12-25T03:56:55Z</time>
      </trkpt>
      <trkpt lat="46.30253" lon="-0.51602">
        <ele>7.708</ele>
        <time>2020-12-25T03:56:35Z</time>
      </trkpt>
      <trkpt lat="46.30307" lon="-0.51604">
        <ele>7.123</ele>
        <time>2020-12-25T03:56:15Z</time>
      </trkpt>
      <trkpt lat="46.3032" lon="-0.51583">
        <ele>7.249</ele>
        <time>2020-12-25T03:55:55Z</time>
      </trkpt>
      <trkpt lat="46.30397" lon="-0.516">
        <ele>6.895</ele>
        <time>2020-12-25T03:55:35Z</time>
      </trkpt>
      <trkpt lat="46.30406" lon="-0.51678">
        <ele>5.762</ele>
        <time>2016-06-04T22:18:00Z</time>
      </trkpt>
      <trkpt lat="46.30472" lon="-0.51666">
        <ele>5.373</ele>
        <time>2020-12-25T03:54:55Z</time>
      </trkpt>
      <trkpt lat="46.30553" lon="-0.51627">
        <ele>6.337</ele>
        <time>2016-06-04T22:17:20Z</time>
      </trkpt>
      <trkpt lat="46.30631" lon="-0.51614">
        <ele>5.365</ele>
        <time>2016-06-04T22:17:00Z</time>
      </trkpt>
      <trkpt lat="46.30793" lon="-0.51646">
        <ele>5.749</ele>
        <time>2016-06-04T22:16:40Z</time>
      </trkpt>
      <trkpt lat="46.30805" lon="-0.51603">
        <ele>5.026</ele>
        <time>2016-06-04T22:16:20Z</time>
      </trkpt>
      <trkpt lat="46.30877" lon="-0.51541">
        <ele>6.241</ele>
        <time>2016-06-04T22:16:00Z</time>
      </trkpt>
      <trkpt lat="46.30937" lon="-0.51505">
        <ele>4.965</ele>
        <time>2016-06-04T22:15:40Z</time>
      </trkpt>
      <trkpt lat="46.31024" lon="-0.51496">
        <ele>7.608</ele>
        <time>2016-06-04T22:15:20Z</time>
      </trkpt>
      <trkpt lat="46.31075" lon="-0.51479">
        <ele>6.823</ele>
        <time>2016-06-04T22:15:00Z</time>
      </trkpt>
      <trkpt lat="46.3108" lon="-0.51605">
        <ele>7.049</ele>
        <time>2016-06-04T22:14:40Z</time>
      </trkpt>
      <trkpt lat="46.31051" lon="-0.51693">
        <ele>7.095</ele>
        <time>2016-06-04T22:14:20Z</time>
      </trkpt>
      <trkpt lat="46.31258" lon="-0.51771">
        <ele>13.011</ele>
        <time>2016-06-04T22:14:00Z</time>
      </trkpt>
      <trkpt lat="46.31399" lon="-0.51801">
        <ele>13.132</ele>
        <time>2016-06-04T22:13:40Z</time>
      </trkpt>
      <trkpt lat="46.31567" lon="-0.52337">
        <ele>5.356</ele>
        <time>2016-06-04T22:12:40Z</time>
      </trkpt>
      <trkpt lat="46.31595" lon="-0.52309">
        <ele>7.384</ele>
        <time>2016-06-04T22:12:20Z</time>
      </trkpt>
      <trkpt lat="46.31613" lon="-0.52269">
        <ele>7.678</ele>
        <time>2016-06-04T22:12:00Z</time>
      </trkpt>
      <trkpt lat="46.3166" lon="-0.52213">
        <ele>5.685</ele>
        <time>2016-06-04T22:11:40Z</time>
      </trkpt>
      <trkpt lat="46.31697" lon="-0.52133">
        <ele>6.16</ele>
        <time>2016-06-04T22:11:20Z</time>
      </trkpt>
      <trkpt lat="46.31744" lon="-0.52069">
        <ele>8.594</ele>
        <time>2016-06-04T22:11:00Z</time>
      </trkpt>
      <trkpt lat="46.3182" lon="-0.52">
        <ele>6.508</ele>
        <time>2016-06-04T22:10:40Z</time>
      </trkpt>
      <trkpt lat="46.31916" lon="-0.5188">
        <ele>6.317</ele>
        <time>2016-06-04T22:10:20Z</time>
      </trkpt>
      <trkpt lat="46.31953" lon="-0.51889">
        <ele>7.343</ele>
        <time>2016-06-04T22:10:00Z</time>
      </trkpt>
      <trkpt lat="46.32048" lon="-0.51814">
        <ele>7.082</ele>
        <time>2016-06-04T22:09:40Z</time>
      </trkpt>
      <trkpt lat="46.32109" lon="-0.51805">
        <ele>6.145</ele>
        <time>2016-06-04T22:09:20Z</time>
      </trkpt>
      <trkpt lat="46.32285" lon="-0.51676">
        <ele>5.786</ele>
        <time>2016-06-04T22:09:00Z</time>
      </trkpt>
      <trkpt lat="46.32325" lon="-0.51672">
        <ele>6.51</ele>
        <time>2016-06-04T22:08:40Z</time>
      </trkpt>
      <trkpt lat="46.32348" lon="-0.51646">
        <ele>7.228</ele>
        <time>2016-06-04T22:08:20Z</time>
      </trkpt>
      <trkpt lat="46.32466" lon="-0.51614">
        <ele>5.982</ele>
        <time>2016-06-04T22:08:00Z</time>
      </trkpt>
      <trkpt lat="46.32496" lon="-0.5158">
        <ele>6.329</ele>
        <time>2016-06-04T22:07:40Z</time>
      </trkpt>
      <trkpt lat="46.3246" lon="-0.51404">
        <ele>14.554</ele>
        <time>2016-06-04T22:07:20Z</time>
      </trkpt>
      <trkpt lat="46.32417" lon="-0.51309">
        <ele>15.098</ele>
        <time>2016-06-04T22:07:00Z</time>
      </trkpt>
      <trkpt lat="46.32608" lon="-0.51239">
        <ele>16.208</ele>
        <time>2016-06-04T22:06:40Z</time>
      </trkpt>
      <trkpt lat="46.3258" lon="-0.51142">
        <ele>17.114</ele>
        <time>2016-06-04T22:06:20Z</time>
      </trkpt>
      <trkpt lat="46.32622" lon="-0.51091">
        <ele>13.904</ele>
        <time>2016-06-04T22:06:00Z</time>
      </trkpt>
      <trkpt lat="46.32668" lon="-0.51073">
        <ele>15.624</ele>
        <time>2016-06-04T22:05:40Z</time>
      </trkpt>
      <trkpt lat="46.32881" lon="-0.50932">
        <ele>8.917</ele>
        <time>2016-06-04T22:05:20Z</time>
      </trkpt>
      <trkpt lat="46.32976" lon="-0.509">
        <ele>8.718</ele>
        <time>2016-06-04T22:05:00Z</time>
      </trkpt>
      <trkpt lat="46.331" lon="-0.5091">
        <ele>6.652</ele>
        <time>2016-06-04T22:04:40Z</time>
      </trkpt>
      <trkpt lat="46.33145" lon="-0.5088">
        <ele>7.09</ele>
        <time>2016-06-04T22:04:20Z</time>
      </trkpt>
      <trkpt lat="46.33206" lon="-0.50906">
        <ele>7.154</ele>
        <time>2016-06-04T22:04:00Z</time>
      </trkpt>
      <trkpt lat="46.33229" lon="-0.50812">
        <ele>8.891</ele>
        <time>2016-06-04T22:03:40Z</time>
      </trkpt>
      <trkpt lat="46.33253" lon="-0.50803">
        <ele>10.246</ele>
        <time>2016-06-04T22:03:20Z</time>
      </trkpt>
      <trkpt lat="46.33257" lon="-0.50711">
        <ele>8.83</ele>
        <time>2016-06-04T22:03:00Z</time>
      </trkpt>
      <trkpt lat="46.33188" lon="-0.50698">
        <ele>7.908</ele>
        <time>2016-06-04T22:02:40Z</time>
      </trkpt>
      <trkpt lat="46.33054" lon="-0.50749">
        <ele>10.011</ele>
        <time>2016-06-04T22:02:20Z</time>
      </trkpt>
      <trkpt lat="46.33022" lon="-0.50749">
        <ele>10.047</ele>
        <time>2016-06-04T22:02:00Z</time>
      </trkpt>
      <trkpt lat="46.32869" lon="-0.50786">
        <ele>14.045</ele>
        <time>2016-06-04T22:01:40Z</time>
      </trkpt>
      <trkpt lat="46.32736" lon="-0.50745">
        <ele>9.438</ele>
        <time>2016-06-04T22:01:20Z</time>
      </trkpt>
      <trkpt lat="46.32681" lon="-0.50743">
        <ele>9.949</ele>
        <time>2016-06-04T22:01:00Z</time>
      </trkpt>
      <trkpt lat="46.32641" lon="-0.50824">
        <ele>8.863</ele>
        <time>2016-06-04T22:00:40Z</time>
      </trkpt>
      <trkpt lat="46.32595" lon="-0.50844">
        <ele>7.721</ele>
        <time>2016-06-04T22:00:20Z</time>
      </trkpt>
      <trkpt lat="46.32595" lon="-0.50865">
        <ele>8.145</ele>
        <time>2016-06-04T22:00:00Z</time>
      </trkpt>
      <trkpt lat="46.32564" lon="-0.50962">
        <ele>11.582</ele>
        <time>2016-06-04T21:59:40Z</time>
      </trkpt>
      <trkpt lat="46.32445" lon="-0.51039">
        <ele>10.557</ele>
        <time>2016-06-04T21:59:20Z</time>
      </trkpt>
      <trkpt lat="46.32416" lon="-0.51067">
        <ele>10.821</ele>
        <time>2016-06-04T21:59:00Z</time>
      </trkpt>
      <trkpt lat="46.32302" lon="-0.51065">
        <ele>8.008</ele>
        <time>2016-06-04T21:58:40Z</time>
      </trkpt>
      <trkpt lat="46.32239" lon="-0.51026">
        <ele>10.911</ele>
        <time>2016-06-04T21:58:20Z</time>
      </trkpt>
      <trkpt lat="46.32167" lon="-0.50962">
        <ele>10.001</ele>
        <time>2016-06-04T21:58:00Z</time>
      </trkpt>
      <trkpt lat="46.32096" lon="-0.50874">
        <ele>8.651</ele>
        <time>2016-06-04T21:57:40Z</time>
      </trkpt>
      <trkpt lat="46.32056" lon="-0.50801">
        <ele>9.511</ele>
        <time>2016-06-04T21:57:20Z</time>
      </trkpt>
      <trkpt lat="46.32051" lon="-0.50736">
        <ele>6.052</ele>
        <time>2016-06-04T21:57:00Z</time>
      </trkpt>
      <trkpt lat="46.32042" lon="-0.50674">
        <ele>6.796</ele>
        <time>2016-06-04T21:56:40Z</time>
      </trkpt>
      <trkpt lat="46.32032" lon="-0.50528">
        <ele>6.084</ele>
        <time>2016-06-04T21:56:20Z</time>
      </trkpt>
      <trkpt lat="46.32044" lon="-0.50427">
        <ele>7.278</ele>
        <time>2016-06-04T21:56:00Z</time>
      </trkpt>
      <trkpt lat="46.32093" lon="-0.50314">
        <ele>6.755</ele>
        <time>2016-06-04T21:55:40Z</time>
      </trkpt>
      <trkpt lat="46.32063" lon="-0.50179">
        <ele>8.48</ele>
        <time>2016-06-04T21:55:20Z</time>
      </trkpt>
      <trkpt lat="46.31995" lon="-0.50043">
        <ele>7.384</ele>
        <time>2016-06-04T21:55:00Z</time>
      </trkpt>
      <trkpt lat="46.31974" lon="-0.49964">
        <ele>6.308</ele>
        <time>2016-06-04T21:54:40Z</time>
      </trkpt>
      <trkpt lat="46.31982" lon="-0.49915">
        <ele>6.726</ele>
        <time>2016-06-04T21:54:20Z</time>
      </trkpt>
      <trkpt lat="46.32045" lon="-0.4982">
        <ele>8.124</ele>
        <time>2016-06-04T21:54:00Z</time>
      </trkpt>
      <trkpt lat="46.32103" lon="-0.49745">
        <ele>6.888</ele>
        <time>2016-06-04T21:53:40Z</time>
      </trkpt>
      <trkpt lat="46.32177" lon="-0.49704">
        <ele>6.631</ele>
        <time>2016-06-04T21:53:20Z</time>
      </trkpt>
      <trkpt lat="46.32225" lon="-0.49663">
        <ele>8.752</ele>
        <time>2020-12-25T03:30:55Z</time>
      </trkpt>
      <trkpt lat="46.32169" lon="-0.4962">
        <ele>8.696</ele>
        <time>2020-12-25T03:30:35Z</time>
      </trkpt>
      <trkpt lat="46.32176" lon="-0.49586">
        <ele>9.124</ele>
        <time>2020-12-25T03:30:15Z</time>
      </trkpt>
      <trkpt lat="46.3221" lon="-0.49594">
        <ele>9.448</ele>
        <time>2020-12-25T03:29:55Z</time>
      </trkpt>
      <trkpt lat="46.32371" lon="-0.49389">
        <ele>8.465</ele>
        <time>2020-12-25T03:29:35Z</time>
      </trkpt>
      <trkpt lat="46.32416" lon="-0.49323">
        <ele>8.07</ele>
        <time>2020-12-25T03:29:15Z</time>
      </trkpt>
      <trkpt lat="46.32465" lon="-0.49282">
        <ele>6.884</ele>
        <time>2020-12-25T03:28:55Z</time>
      </trkpt>
      <trkpt lat="46.32518" lon="-0.49242">
        <ele>6.208</ele>
        <time>2020-12-25T03:28:35Z</time>
      </trkpt>
      <trkpt lat="46.32586" lon="-0.49243">
        <ele>6.517</ele>
        <time>2020-12-25T03:28:15Z</time>
      </trkpt>
      <trkpt lat="46.32601" lon="-0.4921">
        <ele>8.789</ele>
        <time>2020-12-25T03:27:55Z</time>
      </trkpt>
      <trkpt lat="46.32639" lon="-0.49206">
        <ele>10.385</ele>
        <time>2020-12-25T03:27:35Z</time>
      </trkpt>
      <trkpt lat="46.32659" lon="-0.49193">
        <ele>11.15</ele>
        <time>2020-12-25T03:27:15Z</time>
      </trkpt>
      <trkpt lat="46.32655" lon="-0.49136">
        <ele>10.641</ele>
        <time>2020-12-25T03:26:55Z</time>
      </trkpt>
      <trkpt lat="46.32665" lon="-0.49066">
        <ele>10.495</ele>
        <time>2020-12-25T03:26:35Z</time>
      </trkpt>
      <trkpt lat="46.32685" lon="-0.49042">
        <ele>10.923</ele>
        <time>2020-12-25T03:26:15Z</time>
      </trkpt>
      <trkpt lat="46.32687" lon="-0.49021">
        <ele>11.217</ele>
        <time>2020-12-25T03:25:55Z</time>
      </trkpt>
      <trkpt lat="46.33556" lon="-0.48675">
        <ele>8.674</ele>
        <time>2020-12-25T03:25:35Z</time>
      </trkpt>
      <trkpt lat="46.33581" lon="-0.48639">
        <ele>9.069</ele>
        <time>2020-12-25T03:25:15Z</time>
      </trkpt>
      <trkpt lat="46.33604" lon="-0.48445">
        <ele>10.533</ele>
        <time>2020-12-25T03:24:55Z</time>
      </trkpt>
      <trkpt lat="46.33613" lon="-0.48283">
        <ele>12.708</ele>
        <time>2020-12-25T03:24:35Z</time>
      </trkpt>
      <trkpt lat="46.3361" lon="-0.48211">
        <ele>12.915</ele>
        <time>2020-12-25T03:24:15Z</time>
      </trkpt>
      <trkpt lat="46.3362" lon="-0.48197">
        <ele>14.241</ele>
        <time>2020-12-25T03:23:55Z</time>
      </trkpt>
      <trkpt lat="46.33609" lon="-0.48121">
        <ele>13.471</ele>
        <time>2020-12-25T03:23:35Z</time>
      </trkpt>
      <trkpt lat="46.3358" lon="-0.48036">
        <ele>10.72</ele>
        <time>2020-12-25T03:23:15Z</time>
      </trkpt>
      <trkpt lat="46.3355" lon="-0.47995">
        <ele>11.191</ele>
        <time>2020-12-25T03:22:55Z</time>
      </trkpt>
      <trkpt lat="46.33483" lon="-0.47965">
        <ele>10.815</ele>
        <time>2020-12-25T03:22:35Z</time>
      </trkpt>
      <trkpt lat="46.33329" lon="-0.47935">
        <ele>11.573</ele>
        <time>2020-12-25T03:22:15Z</time>
      </trkpt>
      <trkpt lat="46.33129" lon="-0.47924">
        <ele>13.577</ele>
        <time>2020-12-25T03:21:55Z</time>
      </trkpt>
      <trkpt lat="46.33016" lon="-0.47937">
        <ele>15.214</ele>
        <time>2020-12-25T03:21:35Z</time>
      </trkpt>
      <trkpt lat="46.32982" lon="-0.4795">
        <ele>16.499</ele>
        <time>2020-12-25T03:21:15Z</time>
      </trkpt>
      <trkpt lat="46.3298" lon="-0.47915">
        <ele>13.783</ele>
        <time>2020-12-25T03:20:55Z</time>
      </trkpt>
      <trkpt lat="46.32996" lon="-0.47885">
        <ele>12.508</ele>
        <time>2020-12-25T03:20:35Z</time>
      </trkpt>
      <trkpt lat="46.32987" lon="-0.47862">
        <ele>11.52</ele>
        <time>2020-12-25T03:20:15Z</time>
      </trkpt>
      <trkpt lat="46.32986" lon="-0.47828">
        <ele>10.428</ele>
        <time>2020-12-25T03:19:55Z</time>
      </trkpt>
      <trkpt lat="46.32927" lon="-0.47772">
        <ele>11.875</ele>
        <time>2020-12-25T03:19:35Z</time>
      </trkpt>
      <trkpt lat="46.32908" lon="-0.47785">
        <ele>12.065</ele>
        <time>2020-12-25T03:19:15Z</time>
      </trkpt>
      <trkpt lat="46.32887" lon="-0.47856">
        <ele>12.236</ele>
        <time>2020-12-25T03:18:55Z</time>
      </trkpt>
      <trkpt lat="46.32844" lon="-0.47874">
        <ele>12.96</ele>
        <time>2020-12-25T03:18:35Z</time>
      </trkpt>
      <trkpt lat="46.32795" lon="-0.47878">
        <ele>15.178</ele>
        <time>2020-12-25T03:18:15Z</time>
      </trkpt>
      <trkpt lat="46.32716" lon="-0.47842">
        <ele>15.182</ele>
        <time>2020-12-25T03:17:55Z</time>
      </trkpt>
      <trkpt lat="46.32621" lon="-0.47771">
        <ele>15.379</ele>
        <time>2020-12-25T03:17:35Z</time>
      </trkpt>
      <trkpt lat="46.32562" lon="-0.47683">
        <ele>11.134</ele>
        <time>2020-12-25T03:17:15Z</time>
      </trkpt>
      <trkpt lat="46.32567" lon="-0.47658">
        <ele>9.378</ele>
        <time>2020-12-25T03:16:55Z</time>
      </trkpt>
      <trkpt lat="46.32543" lon="-0.47641">
        <ele>10.908</ele>
        <time>2020-12-25T03:16:35Z</time>
      </trkpt>
      <trkpt lat="46.32532" lon="-0.476">
        <ele>10.805</ele>
        <time>2020-12-25T03:16:15Z</time>
      </trkpt>
      <trkpt lat="46.32577" lon="-0.47525">
        <ele>10.241</ele>
        <time>2020-12-25T03:15:55Z</time>
      </trkpt>
      <trkpt lat="46.32557" lon="-0.47488">
        <ele>11.521</ele>
        <time>2016-06-04T21:41:20Z</time>
      </trkpt>
      <trkpt lat="46.32527" lon="-0.47303">
        <ele>13.025</ele>
        <time>2016-06-04T21:41:00Z</time>
      </trkpt>
      <trkpt lat="46.32508" lon="-0.47074">
        <ele>10.466</ele>
        <time>2016-06-04T21:40:40Z</time>
      </trkpt>
      <trkpt lat="46.32508" lon="-0.47074">
        <ele>10.43</ele>
        <time>2016-06-04T21:40:20Z</time>
      </trkpt>
      <trkpt lat="46.32488" lon="-0.47059">
        <ele>9.558</ele>
        <time>2016-06-04T21:40:00Z</time>
      </trkpt>
      <trkpt lat="46.32485" lon="-0.47059">
        <ele>9.632</ele>
        <time>2016-06-04T21:39:40Z</time>
      </trkpt>
      <trkpt lat="46.32482" lon="-0.46975">
        <ele>11.979</ele>
        <time>2016-06-04T21:39:20Z</time>
      </trkpt>
      <trkpt lat="46.32482" lon="-0.46975">
        <ele>11.944</ele>
        <time>2016-06-04T21:39:00Z</time>
      </trkpt>
      <trkpt lat="46.32527" lon="-0.46958">
        <ele>12.058</ele>
        <time>2016-06-04T21:38:40Z</time>
      </trkpt>
      <trkpt lat="46.32548" lon="-0.46872">
        <ele>14.608</ele>
        <time>2016-06-04T21:38:20Z</time>
      </trkpt>
      <trkpt lat="46.32579" lon="-0.46844">
        <ele>13.808</ele>
        <time>2016-06-04T21:38:00Z</time>
      </trkpt>
      <trkpt lat="46.32506" lon="-0.46814">
        <ele>14.426</ele>
        <time>2016-06-04T21:37:40Z</time>
      </trkpt>
      <trkpt lat="46.32511" lon="-0.46741">
        <ele>15.025</ele>
        <time>2016-06-04T21:37:20Z</time>
      </trkpt>
      <trkpt lat="46.32502" lon="-0.46717">
        <ele>14.185</ele>
        <time>2016-06-04T21:37:00Z</time>
      </trkpt>
      <trkpt lat="46.32517" lon="-0.46692">
        <ele>14.066</ele>
        <time>2016-06-04T21:36:40Z</time>
      </trkpt>
      <trkpt lat="46.32552" lon="-0.46651">
        <ele>13.95</ele>
        <time>2016-06-04T21:36:20Z</time>
      </trkpt>
      <trkpt lat="46.32519" lon="-0.46593">
        <ele>17.878</ele>
        <time>2016-06-04T21:36:00Z</time>
      </trkpt>
      <trkpt lat="46.32561" lon="-0.46522">
        <ele>16.512</ele>
        <time>2016-06-04T21:35:40Z</time>
      </trkpt>
      <trkpt lat="46.32592" lon="-0.46531">
        <ele>13.939</ele>
        <time>2016-06-04T21:35:20Z</time>
      </trkpt>
      <trkpt lat="46.32635" lon="-0.46501">
        <ele>13.364</ele>
        <time>2016-06-04T21:35:00Z</time>
      </trkpt>
      <trkpt lat="46.32625" lon="-0.46484">
        <ele>15.848</ele>
        <time>2016-06-04T21:34:40Z</time>
      </trkpt>
      <trkpt lat="46.32675" lon="-0.46451">
        <ele>13.708</ele>
        <time>2016-06-04T21:34:20Z</time>
      </trkpt>
      <trkpt lat="46.32691" lon="-0.46479">
        <ele>10.405</ele>
        <time>2016-06-04T21:34:00Z</time>
      </trkpt>
      <trkpt lat="46.3272" lon="-0.46456">
        <ele>11.341</ele>
        <time>2016-06-04T21:33:40Z</time>
      </trkpt>
      <trkpt lat="46.32782" lon="-0.46447">
        <ele>14.021</ele>
        <time>2016-06-04T21:33:20Z</time>
      </trkpt>
      <trkpt lat="46.32783" lon="-0.46417">
        <ele>14.075</ele>
        <time>2016-06-04T21:33:00Z</time>
      </trkpt>
      <trkpt lat="46.32848" lon="-0.46381">
        <ele>15.586</ele>
        <time>2016-06-04T21:32:40Z</time>
      </trkpt>
      <trkpt lat="46.32954" lon="-0.46357">
        <ele>18.54</ele>
        <time>2016-06-04T21:32:20Z</time>
      </trkpt>
      <trkpt lat="46.32974" lon="-0.46293">
        <ele>17.378</ele>
        <time>2016-06-04T21:32:00Z</time>
      </trkpt>
      <trkpt lat="46.33094" lon="-0.46273">
        <ele>12.132</ele>
        <time>2016-06-04T21:31:40Z</time>
      </trkpt>
      <trkpt lat="46.33093" lon="-0.46215">
        <ele>23.089</ele>
        <time>2016-06-04T21:31:20Z</time>
      </trkpt>
      <trkpt lat="46.3322" lon="-0.4623">
        <ele>21.294</ele>
        <time>2016-06-04T21:31:00Z</time>
      </trkpt>
      <trkpt lat="46.33244" lon="-0.46215">
        <ele>22.428</ele>
        <time>2016-06-04T21:30:40Z</time>
      </trkpt>
      <trkpt lat="46.33366" lon="-0.46256">
        <ele>15.408</ele>
        <time>2016-06-04T21:30:20Z</time>
      </trkpt>
      <trkpt lat="46.33542" lon="-0.46361">
        <ele>17.014</ele>
        <time>2016-06-04T21:30:00Z</time>
      </trkpt>
      <trkpt lat="46.33604" lon="-0.46415">
        <ele>17.468</ele>
        <time>2016-06-04T21:29:40Z</time>
      </trkpt>
      <trkpt lat="46.33505" lon="-0.46488">
        <ele>17.427</ele>
        <time>2016-06-04T21:29:20Z</time>
      </trkpt>
      <trkpt lat="46.33486" lon="-0.46477">
        <ele>15.976</ele>
        <time>2016-06-04T21:29:00Z</time>
      </trkpt>
      <trkpt lat="46.33465" lon="-0.46503">
        <ele>14.077</ele>
        <time>2016-06-04T21:28:40Z</time>
      </trkpt>
      <trkpt lat="46.33491" lon="-0.46559">
        <ele>17.131</ele>
        <time>2016-06-04T21:28:20Z</time>
      </trkpt>
      <trkpt lat="46.33534" lon="-0.46561">
        <ele>19.039</ele>
        <time>2016-06-04T21:28:00Z</time>
      </trkpt>
      <trkpt lat="46.33568" lon="-0.46602">
        <ele>16.673</ele>
        <time>2016-06-04T21:27:40Z</time>
      </trkpt>
      <trkpt lat="46.33646" lon="-0.46623">
        <ele>13.21</ele>
        <time>2016-06-04T21:27:20Z</time>
      </trkpt>
      <trkpt lat="46.3368" lon="-0.46649">
        <ele>13.545</ele>
        <time>2016-06-04T21:27:00Z</time>
      </trkpt>
      <trkpt lat="46.33708" lon="-0.46642">
        <ele>13.559</ele>
        <time>2016-06-04T21:26:40Z</time>
      </trkpt>
      <trkpt lat="46.33733" lon="-0.46589">
        <ele>15.608</ele>
        <time>2016-06-04T21:26:20Z</time>
      </trkpt>
      <trkpt lat="46.33736" lon="-0.46533">
        <ele>18.318</ele>
        <time>2016-06-04T21:26:00Z</time>
      </trkpt>
      <trkpt lat="46.33723" lon="-0.46454">
        <ele>17.017</ele>
        <time>2016-06-04T21:25:40Z</time>
      </trkpt>
      <trkpt lat="46.33798" lon="-0.46443">
        <ele>20.736</ele>
        <time>2016-06-04T21:25:20Z</time>
      </trkpt>
      <trkpt lat="46.33822" lon="-0.46428">
        <ele>20.448</ele>
        <time>2016-06-04T21:25:00Z</time>
      </trkpt>
      <trkpt lat="46.33943" lon="-0.46423">
        <ele>17.069</ele>
        <time>2016-06-04T21:24:40Z</time>
      </trkpt>
      <trkpt lat="46.34022" lon="-0.46406">
        <ele>15.673</ele>
        <time>2016-06-04T21:24:20Z</time>
      </trkpt>
      <trkpt lat="46.34099" lon="-0.46449">
        <ele>15.091</ele>
        <time>2016-06-04T21:24:00Z</time>
      </trkpt>
      <trkpt lat="46.34137" lon="-0.4652">
        <ele>14.985</ele>
        <time>2016-06-04T21:23:40Z</time>
      </trkpt>
      <trkpt lat="46.342" lon="-0.46572">
        <ele>19.872</ele>
        <time>2016-06-04T21:23:20Z</time>
      </trkpt>
      <trkpt lat="46.34283" lon="-0.4658">
        <ele>21.447</ele>
        <time>2016-06-04T21:23:00Z</time>
      </trkpt>
      <trkpt lat="46.34317" lon="-0.46612">
        <ele>23.451</ele>
        <time>2016-06-04T21:22:40Z</time>
      </trkpt>
      <trkpt lat="46.34395" lon="-0.46627">
        <ele>24.008</ele>
        <time>2016-06-04T21:22:20Z</time>
      </trkpt>
      <trkpt lat="46.3448" lon="-0.46666">
        <ele>22.717</ele>
        <time>2016-06-04T21:22:00Z</time>
      </trkpt>
      <trkpt lat="46.34565" lon="-0.4675">
        <ele>20.652</ele>
        <time>2016-06-04T21:21:40Z</time>
      </trkpt>
      <trkpt lat="46.34628" lon="-0.46698">
        <ele>18.858</ele>
        <time>2016-06-04T21:21:20Z</time>
      </trkpt>
      <trkpt lat="46.34665" lon="-0.46694">
        <ele>16.28</ele>
        <time>2016-06-04T21:21:00Z</time>
      </trkpt>
      <trkpt lat="46.34706" lon="-0.46634">
        <ele>17.361</ele>
        <time>2016-06-04T21:20:40Z</time>
      </trkpt>
      <trkpt lat="46.34734" lon="-0.46587">
        <ele>19.365</ele>
        <time>2016-06-04T21:20:20Z</time>
      </trkpt>
      <trkpt lat="46.34872" lon="-0.46711">
        <ele>20.263</ele>
        <time>2016-06-04T21:20:00Z</time>
      </trkpt>
      <trkpt lat="46.34911" lon="-0.46632">
        <ele>23.117</ele>
        <time>2016-06-04T21:19:40Z</time>
      </trkpt>
      <trkpt lat="46.34931" lon="-0.46572">
        <ele>21.324</ele>
        <time>2016-06-04T21:19:20Z</time>
      </trkpt>
      <trkpt lat="46.34976" lon="-0.46475">
        <ele>19.649</ele>
        <time>2016-06-04T21:19:00Z</time>
      </trkpt>
      <trkpt lat="46.35007" lon="-0.46303">
        <ele>17.543</ele>
        <time>2016-06-04T21:18:40Z</time>
      </trkpt>
      <trkpt lat="46.34992" lon="-0.46269">
        <ele>16.808</ele>
        <time>2016-06-04T21:18:20Z</time>
      </trkpt>
      <trkpt lat="46.35022" lon="-0.46042">
        <ele>14.713</ele>
        <time>2016-06-04T21:18:00Z</time>
      </trkpt>
      <trkpt lat="46.35056" lon="-0.46046">
        <ele>16.385</ele>
        <time>2016-06-04T21:17:40Z</time>
      </trkpt>
      <trkpt lat="46.35105" lon="-0.46104">
        <ele>20.773</ele>
        <time>2016-06-04T21:17:20Z</time>
      </trkpt>
      <trkpt lat="46.35171" lon="-0.46123">
        <ele>28.138</ele>
        <time>2016-06-04T21:17:00Z</time>
      </trkpt>
      <trkpt lat="46.35202" lon="-0.46054">
        <ele>26.569</ele>
        <time>2016-06-04T21:16:40Z</time>
      </trkpt>
      <trkpt lat="46.35213" lon="-0.4599">
        <ele>25.453</ele>
        <time>2016-06-04T21:16:20Z</time>
      </trkpt>
      <trkpt lat="46.35244" lon="-0.45919">
        <ele>23.161</ele>
        <time>2016-06-04T21:16:00Z</time>
      </trkpt>
      <trkpt lat="46.35374" lon="-0.45733">
        <ele>20.985</ele>
        <time>2016-06-04T21:15:40Z</time>
      </trkpt>
      <trkpt lat="46.35414" lon="-0.457">
        <ele>17.622</ele>
        <time>2016-06-04T21:15:20Z</time>
      </trkpt>
      <trkpt lat="46.35466" lon="-0.45756">
        <ele>15.767</ele>
        <time>2016-06-04T21:15:00Z</time>
      </trkpt>
      <trkpt lat="46.35485" lon="-0.45756">
        <ele>15.151</ele>
        <time>2016-06-04T21:14:40Z</time>
      </trkpt>
      <trkpt lat="46.35552" lon="-0.45649">
        <ele>18.608</ele>
        <time>2016-06-04T21:14:20Z</time>
      </trkpt>
      <trkpt lat="46.3558" lon="-0.45636">
        <ele>22.217</ele>
        <time>2016-06-04T21:14:00Z</time>
      </trkpt>
      <trkpt lat="46.35679" lon="-0.45795">
        <ele>23.107</ele>
        <time>2016-06-04T21:13:40Z</time>
      </trkpt>
      <trkpt lat="46.35713" lon="-0.45782">
        <ele>28.455</ele>
        <time>2016-06-04T21:13:20Z</time>
      </trkpt>
      <trkpt lat="46.35777" lon="-0.4599">
        <ele>22.364</ele>
        <time>2016-06-04T21:13:00Z</time>
      </trkpt>
      <trkpt lat="46.35821" lon="-0.46011">
        <ele>22.065</ele>
        <time>2016-06-04T21:12:40Z</time>
      </trkpt>
      <trkpt lat="46.35892" lon="-0.46001">
        <ele>22.679</ele>
        <time>2016-06-04T21:12:20Z</time>
      </trkpt>
      <trkpt lat="46.35925" lon="-0.45941">
        <ele>25.357</ele>
        <time>2016-06-04T21:12:00Z</time>
      </trkpt>
      <trkpt lat="46.35947" lon="-0.45928">
        <ele>28.191</ele>
        <time>2016-06-04T21:11:40Z</time>
      </trkpt>
      <trkpt lat="46.3595" lon="-0.45954">
        <ele>30.378</ele>
        <time>2016-06-04T21:11:20Z</time>
      </trkpt>
      <trkpt lat="46.36046" lon="-0.45919">
        <ele>35.843</ele>
        <time>2016-06-04T21:11:00Z</time>
      </trkpt>
      <trkpt lat="46.36061" lon="-0.46029">
        <ele>36.257</ele>
        <time>2016-06-04T21:10:40Z</time>
      </trkpt>
      <trkpt lat="46.36094" lon="-0.46121">
        <ele>37.608</ele>
        <time>2016-06-04T21:10:20Z</time>
      </trkpt>
      <trkpt lat="46.36195" lon="-0.45984">
        <ele>42.207</ele>
        <time>2016-06-04T21:10:00Z</time>
      </trkpt>
      <trkpt lat="46.36301" lon="-0.45883">
        <ele>43.043</ele>
        <time>2016-06-04T21:09:40Z</time>
      </trkpt>
      <trkpt lat="46.36384" lon="-0.45756">
        <ele>38.813</ele>
        <time>2016-06-04T21:09:20Z</time>
      </trkpt>
      <trkpt lat="46.36415" lon="-0.45692">
        <ele>40.195</ele>
        <time>2016-06-04T21:09:00Z</time>
      </trkpt>
      <trkpt lat="46.36485" lon="-0.45486">
        <ele>36.256</ele>
        <time>2016-06-04T21:08:40Z</time>
      </trkpt>
      <trkpt lat="46.36581" lon="-0.45357">
        <ele>40.44</ele>
        <time>2016-06-04T21:08:20Z</time>
      </trkpt>
      <trkpt lat="46.36599" lon="-0.45245">
        <ele>46.868</ele>
        <time>2016-06-04T21:08:00Z</time>
      </trkpt>
      <trkpt lat="46.36572" lon="-0.45117">
        <ele>47.772</ele>
        <time>2016-06-04T21:07:40Z</time>
      </trkpt>
      <trkpt lat="46.36622" lon="-0.45085">
        <ele>50.829</ele>
        <time>2016-06-04T21:07:20Z</time>
      </trkpt>
      <trkpt lat="46.36692" lon="-0.45014">
        <ele>56.524</ele>
        <time>2016-06-04T21:07:00Z</time>
      </trkpt>
      <trkpt lat="46.36805" lon="-0.44958">
        <ele>62.568</ele>
        <time>2016-06-04T21:06:40Z</time>
      </trkpt>
      <trkpt lat="46.36882" lon="-0.44898">
        <ele>64.208</ele>
        <time>2016-06-04T21:06:20Z</time>
      </trkpt>
      <trkpt lat="46.36981" lon="-0.44874">
        <ele>67.32</ele>
        <time>2016-06-04T21:06:00Z</time>
      </trkpt>
      <trkpt lat="46.3707" lon="-0.44823">
        <ele>66.6</ele>
        <time>2016-06-04T21:05:40Z</time>
      </trkpt>
      <trkpt lat="46.3728" lon="-0.4475">
        <ele>66.129</ele>
        <time>2016-06-04T21:05:20Z</time>
      </trkpt>
      <trkpt lat="46.3746" lon="-0.4467">
        <ele>62.317</ele>
        <time>2016-06-04T21:05:00Z</time>
      </trkpt>
      <trkpt lat="46.37566" lon="-0.44612">
        <ele>56.038</ele>
        <time>2016-06-04T21:04:40Z</time>
      </trkpt>
      <trkpt lat="46.37619" lon="-0.44572">
        <ele>59.172</ele>
        <time>2016-06-04T21:04:20Z</time>
      </trkpt>
      <trkpt lat="46.37691" lon="-0.4478">
        <ele>50.96</ele>
        <time>2016-06-04T21:04:00Z</time>
      </trkpt>
      <trkpt lat="46.37746" lon="-0.44838">
        <ele>50.134</ele>
        <time>2016-06-04T21:03:40Z</time>
      </trkpt>
      <trkpt lat="46.37807" lon="-0.45286">
        <ele>45.261</ele>
        <time>2016-06-04T21:03:20Z</time>
      </trkpt>
      <trkpt lat="46.37801" lon="-0.45338">
        <ele>41.876</ele>
        <time>2016-06-04T21:03:00Z</time>
      </trkpt>
      <trkpt lat="46.37805" lon="-0.45449">
        <ele>41.06</ele>
        <time>2016-06-04T21:02:40Z</time>
      </trkpt>
      <trkpt lat="46.378" lon="-0.45552">
        <ele>42.808</ele>
        <time>2016-06-04T21:02:20Z</time>
      </trkpt>
      <trkpt lat="46.37807" lon="-0.4578">
        <ele>34.316</ele>
        <time>2016-06-04T21:02:00Z</time>
      </trkpt>
      <trkpt lat="46.3778" lon="-0.4584">
        <ele>32.788</ele>
        <time>2016-06-04T21:01:40Z</time>
      </trkpt>
      <trkpt lat="46.3778" lon="-0.45896">
        <ele>35.246</ele>
        <time>2016-06-04T21:01:20Z</time>
      </trkpt>
      <trkpt lat="46.37762" lon="-0.4596">
        <ele>31.538</ele>
        <time>2016-06-04T21:01:00Z</time>
      </trkpt>
      <trkpt lat="46.37748" lon="-0.46194">
        <ele>29.749</ele>
        <time>2016-06-04T21:00:40Z</time>
      </trkpt>
      <trkpt lat="46.37771" lon="-0.4629">
        <ele>31.553</ele>
        <time>2016-06-04T21:00:20Z</time>
      </trkpt>
      <trkpt lat="46.37783" lon="-0.46402">
        <ele>32.951</ele>
        <time>2016-06-04T21:00:00Z</time>
      </trkpt>
      <trkpt lat="46.37831" lon="-0.46529">
        <ele>35.915</ele>
        <time>2016-06-04T20:59:40Z</time>
      </trkpt>
      <trkpt lat="46.37814" lon="-0.46634">
        <ele>33.162</ele>
        <time>2016-06-04T20:59:20Z</time>
      </trkpt>
      <trkpt lat="46.37876" lon="-0.46582">
        <ele>37.167</ele>
        <time>2016-06-04T20:59:00Z</time>
      </trkpt>
      <trkpt lat="46.37961" lon="-0.46548">
        <ele>40.281</ele>
        <time>2016-06-04T20:58:40Z</time>
      </trkpt>
      <trkpt lat="46.38059" lon="-0.46428">
        <ele>45.708</ele>
        <time>2016-06-04T20:58:20Z</time>
      </trkpt>
      <trkpt lat="46.38241" lon="-0.46273">
        <ele>49.208</ele>
        <time>2016-06-04T20:58:00Z</time>
      </trkpt>
      <trkpt lat="46.38319" lon="-0.4617">
        <ele>49.953</ele>
        <time>2016-06-04T20:57:40Z</time>
      </trkpt>
      <trkpt lat="46.38319" lon="-0.4617">
        <ele>49.952</ele>
        <time>2016-06-04T20:57:20Z</time>
      </trkpt>
      <trkpt lat="46.38369" lon="-0.4608">
        <ele>47.754</ele>
        <time>2016-06-04T20:57:00Z</time>
      </trkpt>
      <trkpt lat="46.38383" lon="-0.4593">
        <ele>49.015</ele>
        <time>2016-06-04T20:56:40Z</time>
      </trkpt>
      <trkpt lat="46.38415" lon="-0.45833">
        <ele>50.139</ele>
        <time>2016-06-04T20:56:20Z</time>
      </trkpt>
      <trkpt lat="46.38488" lon="-0.45741">
        <ele>50.257</ele>
        <time>2016-06-04T20:56:00Z</time>
      </trkpt>
      <trkpt lat="46.38614" lon="-0.45529">
        <ele>49.961</ele>
        <time>2016-06-04T20:55:40Z</time>
      </trkpt>
      <trkpt lat="46.38714" lon="-0.45318">
        <ele>50.778</ele>
        <time>2016-06-04T20:55:20Z</time>
      </trkpt>
      <trkpt lat="46.38723" lon="-0.45265">
        <ele>49.093</ele>
        <time>2016-06-04T20:55:00Z</time>
      </trkpt>
      <trkpt lat="46.38778" lon="-0.45273">
        <ele>49.857</ele>
        <time>2016-06-04T20:54:40Z</time>
      </trkpt>
      <trkpt lat="46.39" lon="-0.45245">
        <ele>33.708</ele>
        <time>2016-06-04T20:54:20Z</time>
      </trkpt>
      <trkpt lat="46.39098" lon="-0.45179">
        <ele>24.505</ele>
        <time>2016-06-04T20:54:00Z</time>
      </trkpt>
      <trkpt lat="46.39086" lon="-0.45093">
        <ele>23.732</ele>
        <time>2016-06-04T20:53:40Z</time>
      </trkpt>
      <trkpt lat="46.39087" lon="-0.44999">
        <ele>24.912</ele>
        <time>2016-06-04T20:53:20Z</time>
      </trkpt>
      <trkpt lat="46.39067" lon="-0.44863">
        <ele>24.152</ele>
        <time>2016-06-04T20:53:00Z</time>
      </trkpt>
      <trkpt lat="46.39064" lon="-0.44615">
        <ele>28.343</ele>
        <time>2016-06-04T20:52:40Z</time>
      </trkpt>
      <trkpt lat="46.39077" lon="-0.44475">
        <ele>26.467</ele>
        <time>2016-06-04T20:52:20Z</time>
      </trkpt>
      <trkpt lat="46.39092" lon="-0.44336">
        <ele>29.735</ele>
        <time>2016-06-04T20:52:00Z</time>
      </trkpt>
      <trkpt lat="46.39083" lon="-0.44321">
        <ele>30.159</ele>
        <time>2016-06-04T20:51:40Z</time>
      </trkpt>
      <trkpt lat="46.39101" lon="-0.44295">
        <ele>29.326</ele>
        <time>2016-06-04T20:51:20Z</time>
      </trkpt>
      <trkpt lat="46.39117" lon="-0.44211">
        <ele>30.861</ele>
        <time>2016-06-04T20:51:00Z</time>
      </trkpt>
      <trkpt lat="46.39176" lon="-0.4413">
        <ele>29.785</ele>
        <time>2016-06-04T20:50:40Z</time>
      </trkpt>
      <trkpt lat="46.3932" lon="-0.43874">
        <ele>29.008</ele>
        <time>2016-06-04T20:50:20Z</time>
      </trkpt>
      <trkpt lat="46.39377" lon="-0.43726">
        <ele>31.523</ele>
        <time>2016-06-04T20:50:00Z</time>
      </trkpt>
      <trkpt lat="46.39453" lon="-0.43645">
        <ele>28.749</ele>
        <time>2016-06-04T20:49:40Z</time>
      </trkpt>
      <trkpt lat="46.39645" lon="-0.43391">
        <ele>29.295</ele>
        <time>2016-06-04T20:49:20Z</time>
      </trkpt>
      <trkpt lat="46.39759" lon="-0.43319">
        <ele>26.485</ele>
        <time>2016-06-04T20:49:00Z</time>
      </trkpt>
      <trkpt lat="46.39966" lon="-0.43177">
        <ele>26.846</ele>
        <time>2016-06-04T20:48:40Z</time>
      </trkpt>
      <trkpt lat="46.40092" lon="-0.43123">
        <ele>26.06</ele>
        <time>2016-06-04T20:48:20Z</time>
      </trkpt>
      <trkpt lat="46.40264" lon="-0.43027">
        <ele>28.518</ele>
        <time>2016-06-04T20:48:00Z</time>
      </trkpt>
      <trkpt lat="46.40424" lon="-0.42879">
        <ele>27.812</ele>
        <time>2016-06-04T20:47:40Z</time>
      </trkpt>
      <trkpt lat="46.40512" lon="-0.42606">
        <ele>28.069</ele>
        <time>2016-06-04T20:47:20Z</time>
      </trkpt>
      <trkpt lat="46.40657" lon="-0.42632">
        <ele>33.694</ele>
        <time>2016-06-04T20:47:00Z</time>
      </trkpt>
      <trkpt lat="46.40674" lon="-0.42565">
        <ele>38.638</ele>
        <time>2016-06-04T20:46:40Z</time>
      </trkpt>
      <trkpt lat="46.40696" lon="-0.42516">
        <ele>48.408</ele>
        <time>2016-06-04T20:46:20Z</time>
      </trkpt>
      <trkpt lat="46.40685" lon="-0.42465">
        <ele>49.305</ele>
        <time>2016-06-04T20:46:00Z</time>
      </trkpt>
      <trkpt lat="46.40721" lon="-0.42437">
        <ele>55.241</ele>
        <time>2016-06-04T20:45:40Z</time>
      </trkpt>
      <trkpt lat="46.40702" lon="-0.42293">
        <ele>57.521</ele>
        <time>2016-06-04T20:45:20Z</time>
      </trkpt>
      <trkpt lat="46.4081" lon="-0.42301">
        <ele>53.777</ele>
        <time>2016-06-04T20:45:00Z</time>
      </trkpt>
      <trkpt lat="46.40866" lon="-0.42226">
        <ele>52.258</ele>
        <time>2016-06-04T20:44:40Z</time>
      </trkpt>
      <trkpt lat="46.40921" lon="-0.42173">
        <ele>47.382</ele>
        <time>2016-06-04T20:44:20Z</time>
      </trkpt>
      <trkpt lat="46.40992" lon="-0.42149">
        <ele>42.82</ele>
        <time>2016-06-04T20:44:00Z</time>
      </trkpt>
      <trkpt lat="46.40993" lon="-0.42166">
        <ele>42.024</ele>
        <time>2016-06-04T20:43:40Z</time>
      </trkpt>
      <trkpt lat="46.4102" lon="-0.42177">
        <ele>42.921</ele>
        <time>2016-06-04T20:43:20Z</time>
      </trkpt>
      <trkpt lat="46.41052" lon="-0.42162">
        <ele>44.266</ele>
        <time>2016-06-04T20:43:00Z</time>
      </trkpt>
      <trkpt lat="46.41078" lon="-0.42183">
        <ele>47.62</ele>
        <time>2016-06-04T20:42:40Z</time>
      </trkpt>
      <trkpt lat="46.41112" lon="-0.42166">
        <ele>51.008</ele>
        <time>2016-06-04T20:42:20Z</time>
      </trkpt>
      <trkpt lat="46.41163" lon="-0.42183">
        <ele>59.21</ele>
        <time>2016-06-04T20:42:00Z</time>
      </trkpt>
      <trkpt lat="46.41215" lon="-0.42274">
        <ele>67.764</ele>
        <time>2016-06-04T20:41:40Z</time>
      </trkpt>
      <trkpt lat="46.41265" lon="-0.42259">
        <ele>69.143</ele>
        <time>2016-06-04T20:41:20Z</time>
      </trkpt>
      <trkpt lat="46.41286" lon="-0.42235">
        <ele>68.878</ele>
        <time>2016-06-04T20:41:00Z</time>
      </trkpt>
      <trkpt lat="46.41339" lon="-0.42207">
        <ele>70.789</ele>
        <time>2016-06-04T20:40:40Z</time>
      </trkpt>
      <trkpt lat="46.41301" lon="-0.42078">
        <ele>57.283</ele>
        <time>2016-06-04T20:40:20Z</time>
      </trkpt>
      <trkpt lat="46.41286" lon="-0.42065">
        <ele>54.981</ele>
        <time>2016-06-04T20:40:00Z</time>
      </trkpt>
      <trkpt lat="46.41294" lon="-0.42046">
        <ele>53.285</ele>
        <time>2016-06-04T20:39:40Z</time>
      </trkpt>
      <trkpt lat="46.41338" lon="-0.42038">
        <ele>55.792</ele>
        <time>2016-06-04T20:39:20Z</time>
      </trkpt>
      <trkpt lat="46.41339" lon="-0.42016">
        <ele>53.537</ele>
        <time>2016-06-04T20:39:00Z</time>
      </trkpt>
      <trkpt lat="46.41367" lon="-0.41982">
        <ele>53.331</ele>
        <time>2016-06-04T20:38:40Z</time>
      </trkpt>
      <trkpt lat="46.4145" lon="-0.41975">
        <ele>56.508</ele>
        <time>2016-06-04T20:38:20Z</time>
      </trkpt>
      <trkpt lat="46.41468" lon="-0.41958">
        <ele>55.011</ele>
        <time>2016-06-04T20:38:00Z</time>
      </trkpt>
      <trkpt lat="46.41495" lon="-0.41956">
        <ele>55.656</ele>
        <time>2016-06-04T20:37:40Z</time>
      </trkpt>
      <trkpt lat="46.41512" lon="-0.41926">
        <ele>55.854</ele>
        <time>2016-06-04T20:37:20Z</time>
      </trkpt>
      <trkpt lat="46.41561" lon="-0.41885">
        <ele>56.116</ele>
        <time>2016-06-04T20:37:00Z</time>
      </trkpt>
      <trkpt lat="46.4161" lon="-0.4181">
        <ele>53.317</ele>
        <time>2016-06-04T20:36:40Z</time>
      </trkpt>
      <trkpt lat="46.41683" lon="-0.41741">
        <ele>59.641</ele>
        <time>2016-06-04T20:36:20Z</time>
      </trkpt>
      <trkpt lat="46.41699" lon="-0.41701">
        <ele>60.579</ele>
        <time>2016-06-04T20:36:00Z</time>
      </trkpt>
      <trkpt lat="46.41721" lon="-0.41634">
        <ele>59.463</ele>
        <time>2016-06-04T20:35:40Z</time>
      </trkpt>
      <trkpt lat="46.41764" lon="-0.416">
        <ele>61.05</ele>
        <time>2016-06-04T20:35:20Z</time>
      </trkpt>
      <trkpt lat="46.41764" lon="-0.416">
        <ele>61.065</ele>
        <time>2016-06-04T20:35:00Z</time>
      </trkpt>
      <trkpt lat="46.419" lon="-0.41922">
        <ele>73.439</ele>
        <time>2016-06-04T20:34:40Z</time>
      </trkpt>
      <trkpt lat="46.42223" lon="-0.41759">
        <ele>73.308</ele>
        <time>2016-06-04T20:34:20Z</time>
      </trkpt>
      <trkpt lat="46.42397" lon="-0.41812">
        <ele>72.213</ele>
        <time>2016-06-04T20:34:00Z</time>
      </trkpt>
      <trkpt lat="46.42471" lon="-0.41892">
        <ele>74.149</ele>
        <time>2016-06-04T20:33:40Z</time>
      </trkpt>
      <trkpt lat="46.42496" lon="-0.41894">
        <ele>74.937</ele>
        <time>2016-06-04T20:33:20Z</time>
      </trkpt>
      <trkpt lat="46.42533" lon="-0.41855">
        <ele>76.014</ele>
        <time>2016-06-04T20:33:00Z</time>
      </trkpt>
      <trkpt lat="46.4262" lon="-0.41855">
        <ele>75.575</ele>
        <time>2016-06-04T20:32:40Z</time>
      </trkpt>
      <trkpt lat="46.42637" lon="-0.41844">
        <ele>76.089</ele>
        <time>2016-06-04T20:32:20Z</time>
      </trkpt>
      <trkpt lat="46.42705" lon="-0.41834">
        <ele>76.497</ele>
        <time>2016-06-04T20:32:00Z</time>
      </trkpt>
      <trkpt lat="46.42853" lon="-0.41774">
        <ele>76.411</ele>
        <time>2016-06-04T20:31:40Z</time>
      </trkpt>
      <trkpt lat="46.43036" lon="-0.41683">
        <ele>82.058</ele>
        <time>2016-06-04T20:31:20Z</time>
      </trkpt>
      <trkpt lat="46.43135" lon="-0.41662">
        <ele>84.623</ele>
        <time>2016-06-04T20:31:00Z</time>
      </trkpt>
      <trkpt lat="46.4344" lon="-0.41703">
        <ele>89.017</ele>
        <time>2016-06-04T20:30:40Z</time>
      </trkpt>
      <trkpt lat="46.4354" lon="-0.41823">
        <ele>90.808</ele>
        <time>2016-06-04T20:30:20Z</time>
      </trkpt>
      <trkpt lat="46.43654" lon="-0.41997">
        <ele>93.509</ele>
        <time>2016-06-04T20:30:00Z</time>
      </trkpt>
      <trkpt lat="46.43815" lon="-0.41812">
        <ele>94.754</ele>
        <time>2016-06-04T20:29:40Z</time>
      </trkpt>
      <trkpt lat="46.43919" lon="-0.41677">
        <ele>97.114</ele>
        <time>2016-06-04T20:29:20Z</time>
      </trkpt>
      <trkpt lat="46.43913" lon="-0.41632">
        <ele>96.772</ele>
        <time>2016-06-04T20:29:00Z</time>
      </trkpt>
      <trkpt lat="46.43926" lon="-0.41621">
        <ele>97.383</ele>
        <time>2016-06-04T20:28:40Z</time>
      </trkpt>
      <trkpt lat="46.43923" lon="-0.41568">
        <ele>97.877</ele>
        <time>2016-06-04T20:28:20Z</time>
      </trkpt>
      <trkpt lat="46.44052" lon="-0.41394">
        <ele>97.175</ele>
        <time>2016-06-04T20:28:00Z</time>
      </trkpt>
      <trkpt lat="46.44084" lon="-0.41379">
        <ele>97.049</ele>
        <time>2016-06-04T20:27:40Z</time>
      </trkpt>
      <trkpt lat="46.4411" lon="-0.41344">
        <ele>96.756</ele>
        <time>2016-06-04T20:27:20Z</time>
      </trkpt>
      <trkpt lat="46.44161" lon="-0.41381">
        <ele>95.921</ele>
        <time>2016-06-04T20:27:00Z</time>
      </trkpt>
      <trkpt lat="46.44204" lon="-0.41516">
        <ele>93.455</ele>
        <time>2016-06-04T20:26:40Z</time>
      </trkpt>
      <trkpt lat="46.44238" lon="-0.41559">
        <ele>90.808</ele>
        <time>2016-06-04T20:26:20Z</time>
      </trkpt>
      <trkpt lat="46.44238" lon="-0.41559">
        <ele>90.819</ele>
        <time>2016-06-04T20:26:00Z</time>
      </trkpt>
      <trkpt lat="46.44361" lon="-0.41353">
        <ele>94.981</ele>
        <time>2016-06-04T20:25:40Z</time>
      </trkpt>
      <trkpt lat="46.44445" lon="-0.41411">
        <ele>91.291</ele>
        <time>2016-06-04T20:25:20Z</time>
      </trkpt>
      <trkpt lat="46.44503" lon="-0.41368">
        <ele>92.831</ele>
        <time>2016-06-04T20:25:00Z</time>
      </trkpt>
      <trkpt lat="46.44555" lon="-0.41405">
        <ele>92.052</ele>
        <time>2016-06-04T20:24:40Z</time>
      </trkpt>
      <trkpt lat="46.44714" lon="-0.41432">
        <ele>93.796</ele>
        <time>2016-06-04T20:24:00Z</time>
      </trkpt>
      <trkpt lat="46.44751" lon="-0.4148">
        <ele>92.964</ele>
        <time>2016-06-04T20:23:40Z</time>
      </trkpt>
      <trkpt lat="46.44926" lon="-0.41799">
        <ele>71.318</ele>
        <time>2016-06-04T20:23:20Z</time>
      </trkpt>
      <trkpt lat="46.44949" lon="-0.41819">
        <ele>68.945</ele>
        <time>2016-06-04T20:23:00Z</time>
      </trkpt>
      <trkpt lat="46.45" lon="-0.41808">
        <ele>66.93</ele>
        <time>2016-06-04T20:22:40Z</time>
      </trkpt>
      <trkpt lat="46.45062" lon="-0.41829">
        <ele>66.784</ele>
        <time>2016-06-04T20:22:20Z</time>
      </trkpt>
      <trkpt lat="46.45074" lon="-0.41874">
        <ele>70.608</ele>
        <time>2016-06-04T20:22:00Z</time>
      </trkpt>
      <trkpt lat="46.45066" lon="-0.41956">
        <ele>79.017</ele>
        <time>2016-06-04T20:21:40Z</time>
      </trkpt>
      <trkpt lat="46.45038" lon="-0.41967">
        <ele>77.489</ele>
        <time>2016-06-04T20:21:20Z</time>
      </trkpt>
      <trkpt lat="46.45022" lon="-0.41997">
        <ele>80.385</ele>
        <time>2016-06-04T20:21:00Z</time>
      </trkpt>
      <trkpt lat="46.45041" lon="-0.42053">
        <ele>87.247</ele>
        <time>2016-06-04T20:20:40Z</time>
      </trkpt>
      <trkpt lat="46.45048" lon="-0.42132">
        <ele>90.578</ele>
        <time>2016-06-04T20:20:20Z</time>
      </trkpt>
      <trkpt lat="46.45034" lon="-0.42222">
        <ele>92.212</ele>
        <time>2016-06-04T20:20:00Z</time>
      </trkpt>
      <trkpt lat="46.45053" lon="-0.4228">
        <ele>92.86</ele>
        <time>2016-06-04T20:19:40Z</time>
      </trkpt>
      <trkpt lat="46.45199" lon="-0.424">
        <ele>89.084</ele>
        <time>2016-06-04T20:19:20Z</time>
      </trkpt>
      <trkpt lat="46.45513" lon="-0.42173">
        <ele>100.851</ele>
        <time>2016-06-04T20:19:00Z</time>
      </trkpt>
      <trkpt lat="46.45635" lon="-0.42068">
        <ele>101.526</ele>
        <time>2016-06-04T20:18:40Z</time>
      </trkpt>
      <trkpt lat="46.45795" lon="-0.41952">
        <ele>103.65</ele>
        <time>2016-06-04T20:18:20Z</time>
      </trkpt>
      <trkpt lat="46.45873" lon="-0.41924">
        <ele>104.408</ele>
        <time>2016-06-04T20:18:00Z</time>
      </trkpt>
      <trkpt lat="46.46034" lon="-0.41932">
        <ele>99.416</ele>
        <time>2016-06-04T20:17:40Z</time>
      </trkpt>
      <trkpt lat="46.46212" lon="-0.41922">
        <ele>98.888</ele>
        <time>2016-06-04T20:17:20Z</time>
      </trkpt>
      <trkpt lat="46.46386" lon="-0.41866">
        <ele>109.746</ele>
        <time>2016-06-04T20:17:00Z</time>
      </trkpt>
      <trkpt lat="46.46506" lon="-0.41836">
        <ele>107.564</ele>
        <time>2016-06-04T20:16:40Z</time>
      </trkpt>
      <trkpt lat="46.46637" lon="-0.41924">
        <ele>90.085</ele>
        <time>2016-06-04T20:16:20Z</time>
      </trkpt>
      <trkpt lat="46.46673" lon="-0.41995">
        <ele>83.919</ele>
        <time>2016-06-04T20:16:00Z</time>
      </trkpt>
      <trkpt lat="46.46732" lon="-0.42076">
        <ele>91.267</ele>
        <time>2016-06-04T20:15:40Z</time>
      </trkpt>
      <trkpt lat="46.46742" lon="-0.42194">
        <ele>95.731</ele>
        <time>2016-06-04T20:15:20Z</time>
      </trkpt>
      <trkpt lat="46.46775" lon="-0.42237">
        <ele>97.948</ele>
        <time>2016-06-04T20:15:00Z</time>
      </trkpt>
      <trkpt lat="46.46821" lon="-0.4225">
        <ele>98.033</ele>
        <time>2016-06-04T20:14:40Z</time>
      </trkpt>
      <trkpt lat="46.46901" lon="-0.42216">
        <ele>99.867</ele>
        <time>2016-06-04T20:14:20Z</time>
      </trkpt>
      <trkpt lat="46.46992" lon="-0.42228">
        <ele>99.708</ele>
        <time>2016-06-04T20:14:00Z</time>
      </trkpt>
      <trkpt lat="46.47069" lon="-0.42171">
        <ele>102.705</ele>
        <time>2016-06-04T20:13:40Z</time>
      </trkpt>
      <trkpt lat="46.47076" lon="-0.42259">
        <ele>99.732</ele>
        <time>2016-06-04T20:13:20Z</time>
      </trkpt>
      <trkpt lat="46.47094" lon="-0.42321">
        <ele>99.812</ele>
        <time>2016-06-04T20:13:00Z</time>
      </trkpt>
      <trkpt lat="46.47183" lon="-0.4234">
        <ele>97.911</ele>
        <time>2016-06-04T20:12:40Z</time>
      </trkpt>
      <trkpt lat="46.47227" lon="-0.42291">
        <ele>86.932</ele>
        <time>2016-06-04T20:12:20Z</time>
      </trkpt>
      <trkpt lat="46.47264" lon="-0.42276">
        <ele>78.856</ele>
        <time>2016-06-04T20:12:00Z</time>
      </trkpt>
      <trkpt lat="46.47335" lon="-0.42321">
        <ele>66.134</ele>
        <time>2016-06-04T20:11:40Z</time>
      </trkpt>
      <trkpt lat="46.47379" lon="-0.42282">
        <ele>63.348</ele>
        <time>2016-06-04T20:11:20Z</time>
      </trkpt>
      <trkpt lat="46.47394" lon="-0.42282">
        <ele>63.525</ele>
        <time>2016-06-04T20:11:00Z</time>
      </trkpt>
      <trkpt lat="46.47406" lon="-0.42256">
        <ele>64.47</ele>
        <time>2016-06-04T20:10:40Z</time>
      </trkpt>
      <trkpt lat="46.47452" lon="-0.42265">
        <ele>68.674</ele>
        <time>2016-06-04T20:10:20Z</time>
      </trkpt>
      <trkpt lat="46.47504" lon="-0.4225">
        <ele>74.108</ele>
        <time>2016-06-04T20:10:00Z</time>
      </trkpt>
      <trkpt lat="46.4761" lon="-0.42336">
        <ele>78.026</ele>
        <time>2016-06-04T20:09:40Z</time>
      </trkpt>
      <trkpt lat="46.47645" lon="-0.4234">
        <ele>81.542</ele>
        <time>2016-06-04T20:09:20Z</time>
      </trkpt>
      <trkpt lat="46.47832" lon="-0.42276">
        <ele>89.987</ele>
        <time>2016-06-04T20:09:00Z</time>
      </trkpt>
      <trkpt lat="46.47839" lon="-0.42334">
        <ele>88.447</ele>
        <time>2016-06-04T20:08:40Z</time>
      </trkpt>
      <trkpt lat="46.47801" lon="-0.42434">
        <ele>90.188</ele>
        <time>2016-06-04T20:08:20Z</time>
      </trkpt>
      <trkpt lat="46.47948" lon="-0.42477">
        <ele>102.532</ele>
        <time>2016-06-04T20:08:00Z</time>
      </trkpt>
      <trkpt lat="46.47963" lon="-0.42467">
        <ele>102.32</ele>
        <time>2016-06-04T20:07:40Z</time>
      </trkpt>
      <trkpt lat="46.48061" lon="-0.42505">
        <ele>109.314</ele>
        <time>2016-06-04T20:07:20Z</time>
      </trkpt>
      <trkpt lat="46.48142" lon="-0.42514">
        <ele>110.461</ele>
        <time>2016-06-04T20:07:00Z</time>
      </trkpt>
      <trkpt lat="46.4821" lon="-0.42342">
        <ele>114.496</ele>
        <time>2016-06-04T20:06:40Z</time>
      </trkpt>
      <trkpt lat="46.48214" lon="-0.42269">
        <ele>114.88</ele>
        <time>2016-06-04T20:06:20Z</time>
      </trkpt>
      <trkpt lat="46.48279" lon="-0.42241">
        <ele>119.008</ele>
        <time>2016-06-04T20:06:00Z</time>
      </trkpt>
      <trkpt lat="46.48414" lon="-0.42115">
        <ele>121.116</ele>
        <time>2016-06-04T20:05:40Z</time>
      </trkpt>
      <trkpt lat="46.4839" lon="-0.42016">
        <ele>118.788</ele>
        <time>2016-06-04T20:05:20Z</time>
      </trkpt>
      <trkpt lat="46.48335" lon="-0.41911">
        <ele>110.946</ele>
        <time>2016-06-04T20:05:00Z</time>
      </trkpt>
      <trkpt lat="46.48313" lon="-0.41885">
        <ele>108.522</ele>
        <time>2016-06-04T20:04:40Z</time>
      </trkpt>
      <trkpt lat="46.48263" lon="-0.41744">
        <ele>112.233</ele>
        <time>2016-06-04T20:04:20Z</time>
      </trkpt>
      <trkpt lat="46.48279" lon="-0.41677">
        <ele>114.027</ele>
        <time>2016-06-04T20:04:00Z</time>
      </trkpt>
      <trkpt lat="46.48279" lon="-0.41653">
        <ele>114.165</ele>
        <time>2016-06-04T20:03:40Z</time>
      </trkpt>
      <trkpt lat="46.48248" lon="-0.41628">
        <ele>112.589</ele>
        <time>2016-06-04T20:03:20Z</time>
      </trkpt>
      <trkpt lat="46.48239" lon="-0.41602">
        <ele>111.286</ele>
        <time>2016-06-04T20:03:00Z</time>
      </trkpt>
      <trkpt lat="46.48235" lon="-0.41248">
        <ele>99.841</ele>
        <time>2016-06-04T20:02:40Z</time>
      </trkpt>
      <trkpt lat="46.48176" lon="-0.41018">
        <ele>86.395</ele>
        <time>2016-06-04T20:02:20Z</time>
      </trkpt>
      <trkpt lat="46.48539" lon="-0.40806">
        <ele>96.008</ele>
        <time>2016-06-04T20:02:00Z</time>
      </trkpt>
      <trkpt lat="46.48474" lon="-0.40628">
        <ele>109.72</ele>
        <time>2016-06-04T20:01:40Z</time>
      </trkpt>
      <trkpt lat="46.4843" lon="-0.4057">
        <ele>111.773</ele>
        <time>2016-06-04T20:01:20Z</time>
      </trkpt>
      <trkpt lat="46.48535" lon="-0.40469">
        <ele>113.892</ele>
        <time>2016-06-04T20:01:00Z</time>
      </trkpt>
      <trkpt lat="46.48594" lon="-0.40456">
        <ele>114.241</ele>
        <time>2016-06-04T20:00:40Z</time>
      </trkpt>
      <trkpt lat="46.48776" lon="-0.40529">
        <ele>113.012</ele>
        <time>2016-06-04T20:00:20Z</time>
      </trkpt>
      <trkpt lat="46.48881" lon="-0.40508">
        <ele>115.036</ele>
        <time>2016-06-04T20:00:00Z</time>
      </trkpt>
      <trkpt lat="46.4892" lon="-0.4046">
        <ele>115.694</ele>
        <time>2016-06-04T19:59:40Z</time>
      </trkpt>
      <trkpt lat="46.48965" lon="-0.40426">
        <ele>112.238</ele>
        <time>2016-06-04T19:59:20Z</time>
      </trkpt>
      <trkpt lat="46.49127" lon="-0.40424">
        <ele>116.385</ele>
        <time>2016-06-04T19:59:00Z</time>
      </trkpt>
      <trkpt lat="46.49245" lon="-0.40368">
        <ele>123.13</ele>
        <time>2016-06-04T19:58:40Z</time>
      </trkpt>
      <trkpt lat="46.49408" lon="-0.40368">
        <ele>129.184</ele>
        <time>2016-06-04T19:58:20Z</time>
      </trkpt>
      <trkpt lat="46.49423" lon="-0.40357">
        <ele>129.108</ele>
        <time>2016-06-04T19:58:00Z</time>
      </trkpt>
      <trkpt lat="46.49557" lon="-0.4028">
        <ele>123.617</ele>
        <time>2016-06-04T19:57:40Z</time>
      </trkpt>
      <trkpt lat="46.49638" lon="-0.40248">
        <ele>109.189</ele>
        <time>2016-06-04T19:57:20Z</time>
      </trkpt>
      <trkpt lat="46.49727" lon="-0.40263">
        <ele>105.285</ele>
        <time>2016-06-04T19:57:00Z</time>
      </trkpt>
      <trkpt lat="46.49804" lon="-0.40231">
        <ele>106.992</ele>
        <time>2016-06-04T19:56:40Z</time>
      </trkpt>
      <trkpt lat="46.49894" lon="-0.40154">
        <ele>110.573</ele>
        <time>2016-06-04T19:56:20Z</time>
      </trkpt>
      <trkpt lat="46.49934" lon="-0.40169">
        <ele>109.927</ele>
        <time>2016-06-04T19:56:00Z</time>
      </trkpt>
      <trkpt lat="46.49947" lon="-0.40205">
        <ele>108.795</ele>
        <time>2016-06-04T19:55:40Z</time>
      </trkpt>
      <trkpt lat="46.49968" lon="-0.40207">
        <ele>108.939</ele>
        <time>2016-06-04T19:55:20Z</time>
      </trkpt>
      <trkpt lat="46.50034" lon="-0.40175">
        <ele>108.086</ele>
        <time>2016-06-04T19:55:00Z</time>
      </trkpt>
      <trkpt lat="46.50068" lon="-0.40181">
        <ele>108.071</ele>
        <time>2016-06-04T19:54:40Z</time>
      </trkpt>
      <trkpt lat="46.50073" lon="-0.40267">
        <ele>108.815</ele>
        <time>2016-06-04T19:54:20Z</time>
      </trkpt>
      <trkpt lat="46.50102" lon="-0.40329">
        <ele>110.608</ele>
        <time>2016-06-04T19:54:00Z</time>
      </trkpt>
      <trkpt lat="46.50116" lon="-0.404">
        <ele>112.327</ele>
        <time>2016-06-04T19:53:40Z</time>
      </trkpt>
      <trkpt lat="46.50173" lon="-0.40523">
        <ele>116.707</ele>
        <time>2016-06-04T19:53:20Z</time>
      </trkpt>
      <trkpt lat="46.5021" lon="-0.40641">
        <ele>120.999</ele>
        <time>2016-06-04T19:53:00Z</time>
      </trkpt>
      <trkpt lat="46.50302" lon="-0.40572">
        <ele>118.619</ele>
        <time>2016-06-04T19:52:40Z</time>
      </trkpt>
      <trkpt lat="46.50355" lon="-0.40591">
        <ele>119.87</ele>
        <time>2016-06-04T19:52:20Z</time>
      </trkpt>
      <trkpt lat="46.50415" lon="-0.40581">
        <ele>122.094</ele>
        <time>2016-06-04T19:52:00Z</time>
      </trkpt>
      <trkpt lat="46.50485" lon="-0.4057">
        <ele>124.322</ele>
        <time>2016-06-04T19:51:40Z</time>
      </trkpt>
      <trkpt lat="46.5056" lon="-0.4054">
        <ele>125.116</ele>
        <time>2016-06-04T19:51:20Z</time>
      </trkpt>
      <trkpt lat="46.50666" lon="-0.4046">
        <ele>124.463</ele>
        <time>2016-06-04T19:51:00Z</time>
      </trkpt>
      <trkpt lat="46.5079" lon="-0.40452">
        <ele>125.038</ele>
        <time>2016-06-04T19:50:40Z</time>
      </trkpt>
      <trkpt lat="46.5086" lon="-0.40435">
        <ele>126.612</ele>
        <time>2016-06-04T19:50:20Z</time>
      </trkpt>
      <trkpt lat="46.50938" lon="-0.40435">
        <ele>131.108</ele>
        <time>2016-06-04T19:50:00Z</time>
      </trkpt>
      <trkpt lat="46.51039" lon="-0.40405">
        <ele>133.724</ele>
        <time>2016-06-04T19:49:40Z</time>
      </trkpt>
      <trkpt lat="46.51148" lon="-0.40405">
        <ele>135.604</ele>
        <time>2016-06-04T19:49:20Z</time>
      </trkpt>
      <trkpt lat="46.51231" lon="-0.40387">
        <ele>137.069</ele>
        <time>2016-06-04T19:49:00Z</time>
      </trkpt>
      <trkpt lat="46.51214" lon="-0.40224">
        <ele>136.056</ele>
        <time>2016-06-04T19:48:40Z</time>
      </trkpt>
      <trkpt lat="46.51222" lon="-0.40156">
        <ele>137.027</ele>
        <time>2016-06-04T19:48:20Z</time>
      </trkpt>
      <trkpt lat="46.51309" lon="-0.39911">
        <ele>139.031</ele>
        <time>2016-06-04T19:48:00Z</time>
      </trkpt>
      <trkpt lat="46.51396" lon="-0.39769">
        <ele>137.719</ele>
        <time>2016-06-04T19:47:40Z</time>
      </trkpt>
      <trkpt lat="46.51411" lon="-0.39707">
        <ele>137.123</ele>
        <time>2016-06-04T19:47:20Z</time>
      </trkpt>
      <trkpt lat="46.51427" lon="-0.39506">
        <ele>137.28</ele>
        <time>2016-06-04T19:47:00Z</time>
      </trkpt>
      <trkpt lat="46.51468" lon="-0.394">
        <ele>137.435</ele>
        <time>2016-06-04T19:46:40Z</time>
      </trkpt>
      <trkpt lat="46.51586" lon="-0.39259">
        <ele>139.249</ele>
        <time>2016-06-04T19:46:20Z</time>
      </trkpt>
      <trkpt lat="46.51628" lon="-0.39126">
        <ele>142.708</ele>
        <time>2016-06-04T19:46:00Z</time>
      </trkpt>
      <trkpt lat="46.51697" lon="-0.39036">
        <ele>143.415</ele>
        <time>2016-06-04T19:45:40Z</time>
      </trkpt>
      <trkpt lat="46.51833" lon="-0.38754">
        <ele>159.823</ele>
        <time>2016-06-04T19:45:20Z</time>
      </trkpt>
      <trkpt lat="46.51855" lon="-0.38733">
        <ele>161.433</ele>
        <time>2016-06-04T19:45:00Z</time>
      </trkpt>
      <trkpt lat="46.51964" lon="-0.38576">
        <ele>168.134</ele>
        <time>2016-06-04T19:44:40Z</time>
      </trkpt>
      <trkpt lat="46.52034" lon="-0.38527">
        <ele>167.255</ele>
        <time>2016-06-04T19:44:20Z</time>
      </trkpt>
      <trkpt lat="46.52071" lon="-0.38448">
        <ele>167.059</ele>
        <time>2016-06-04T19:44:00Z</time>
      </trkpt>
      <trkpt lat="46.52094" lon="-0.38428">
        <ele>168.457</ele>
        <time>2016-06-04T19:43:40Z</time>
      </trkpt>
      <trkpt lat="46.52078" lon="-0.38263">
        <ele>166.071</ele>
        <time>2016-06-04T19:43:20Z</time>
      </trkpt>
      <trkpt lat="46.52041" lon="-0.38169">
        <ele>168.058</ele>
        <time>2016-06-04T19:43:00Z</time>
      </trkpt>
      <trkpt lat="46.52023" lon="-0.38053">
        <ele>168.363</ele>
        <time>2016-06-04T19:42:40Z</time>
      </trkpt>
      <trkpt lat="46.52013" lon="-0.37969">
        <ele>171.227</ele>
        <time>2016-06-04T19:42:20Z</time>
      </trkpt>
      <trkpt lat="46.52077" lon="-0.37896">
        <ele>171.208</ele>
        <time>2016-06-04T19:42:00Z</time>
      </trkpt>
      <trkpt lat="46.52125" lon="-0.37819">
        <ele>170.009</ele>
        <time>2016-06-04T19:41:40Z</time>
      </trkpt>
      <trkpt lat="46.5215" lon="-0.37804">
        <ele>169.654</ele>
        <time>2016-06-04T19:41:20Z</time>
      </trkpt>
      <trkpt lat="46.52176" lon="-0.37765">
        <ele>170.114</ele>
        <time>2016-06-04T19:41:00Z</time>
      </trkpt>
      <trkpt lat="46.5221" lon="-0.37735">
        <ele>169.797</ele>
        <time>2016-06-04T19:40:40Z</time>
      </trkpt>
      <trkpt lat="46.52266" lon="-0.37617">
        <ele>169.678</ele>
        <time>2016-06-04T19:40:20Z</time>
      </trkpt>
      <trkpt lat="46.52286" lon="-0.37484">
        <ele>164.132</ele>
        <time>2016-06-04T19:40:00Z</time>
      </trkpt>
      <trkpt lat="46.52322" lon="-0.37448">
        <ele>160.53</ele>
        <time>2016-06-04T19:39:40Z</time>
      </trkpt>
      <trkpt lat="46.52447" lon="-0.37385">
        <ele>153.014</ele>
        <time>2016-06-04T19:39:20Z</time>
      </trkpt>
      <trkpt lat="46.52517" lon="-0.37302">
        <ele>152.111</ele>
        <time>2016-06-04T19:39:00Z</time>
      </trkpt>
      <trkpt lat="46.5254" lon="-0.37306">
        <ele>152.046</ele>
        <time>2016-06-04T19:38:40Z</time>
      </trkpt>
      <trkpt lat="46.52576" lon="-0.37377">
        <ele>148.72</ele>
        <time>2016-06-04T19:38:20Z</time>
      </trkpt>
      <trkpt lat="46.52685" lon="-0.37473">
        <ele>145.408</ele>
        <time>2016-06-04T19:38:00Z</time>
      </trkpt>
      <trkpt lat="46.52723" lon="-0.37478">
        <ele>142.911</ele>
        <time>2016-06-04T19:37:40Z</time>
      </trkpt>
      <trkpt lat="46.52791" lon="-0.37542">
        <ele>138.547</ele>
        <time>2016-06-04T19:37:20Z</time>
      </trkpt>
      <trkpt lat="46.5281" lon="-0.37656">
        <ele>140.345</ele>
        <time>2016-06-04T19:37:00Z</time>
      </trkpt>
      <trkpt lat="46.52869" lon="-0.37647">
        <ele>137.378</ele>
        <time>2016-06-04T19:36:40Z</time>
      </trkpt>
      <trkpt lat="46.52971" lon="-0.37602">
        <ele>136.089</ele>
        <time>2016-06-04T19:36:20Z</time>
      </trkpt>
      <trkpt lat="46.53008" lon="-0.37626">
        <ele>137.723</ele>
        <time>2016-06-04T19:36:00Z</time>
      </trkpt>
      <trkpt lat="46.5307" lon="-0.37727">
        <ele>143.731</ele>
        <time>2016-06-04T19:35:40Z</time>
      </trkpt>
      <trkpt lat="46.53131" lon="-0.37795">
        <ele>149.645</ele>
        <time>2016-06-04T19:35:20Z</time>
      </trkpt>
      <trkpt lat="46.53259" lon="-0.37853">
        <ele>156.852</ele>
        <time>2016-06-04T19:35:00Z</time>
      </trkpt>
      <trkpt lat="46.5334" lon="-0.37843">
        <ele>155.767</ele>
        <time>2016-06-04T19:34:40Z</time>
      </trkpt>
      <trkpt lat="46.5345" lon="-0.37954">
        <ele>152.661</ele>
        <time>2016-06-04T19:34:20Z</time>
      </trkpt>
      <trkpt lat="46.53495" lon="-0.37978">
        <ele>150.108</ele>
        <time>2016-06-04T19:34:00Z</time>
      </trkpt>
      <trkpt lat="46.53546" lon="-0.38036">
        <ele>147.217</ele>
        <time>2016-06-04T19:33:40Z</time>
      </trkpt>
      <trkpt lat="46.53584" lon="-0.38109">
        <ele>143.152</ele>
        <time>2016-06-04T19:33:20Z</time>
      </trkpt>
      <trkpt lat="46.53658" lon="-0.38149">
        <ele>141.058</ele>
        <time>2016-06-04T19:33:00Z</time>
      </trkpt>
      <trkpt lat="46.53671" lon="-0.38186">
        <ele>142.011</ele>
        <time>2016-06-04T19:32:40Z</time>
      </trkpt>
      <trkpt lat="46.53714" lon="-0.38182">
        <ele>144.642</ele>
        <time>2016-06-04T19:32:20Z</time>
      </trkpt>
      <trkpt lat="46.53789" lon="-0.38121">
        <ele>143.836</ele>
        <time>2016-06-04T19:32:00Z</time>
      </trkpt>
      <trkpt lat="46.53854" lon="-0.38094">
        <ele>142.814</ele>
        <time>2016-06-04T19:31:40Z</time>
      </trkpt>
      <trkpt lat="46.53912" lon="-0.38113">
        <ele>143.868</ele>
        <time>2016-06-04T19:31:20Z</time>
      </trkpt>
      <trkpt lat="46.53981" lon="-0.38079">
        <ele>147.115</ele>
        <time>2016-06-04T19:31:00Z</time>
      </trkpt>
      <trkpt lat="46.54002" lon="-0.38104">
        <ele>148.95</ele>
        <time>2016-06-04T19:30:40Z</time>
      </trkpt>
      <trkpt lat="46.54084" lon="-0.38074">
        <ele>152.794</ele>
        <time>2016-06-04T19:30:20Z</time>
      </trkpt>
      <trkpt lat="46.54078" lon="-0.38021">
        <ele>149.608</ele>
        <time>2016-06-04T19:30:00Z</time>
      </trkpt>
      <trkpt lat="46.54049" lon="-0.37988">
        <ele>147.817</ele>
        <time>2016-06-04T19:29:40Z</time>
      </trkpt>
      <trkpt lat="46.54021" lon="-0.37954">
        <ele>147.361</ele>
        <time>2016-06-04T19:29:20Z</time>
      </trkpt>
      <trkpt lat="46.54008" lon="-0.37873">
        <ele>151.581</ele>
        <time>2016-06-04T19:29:00Z</time>
      </trkpt>
      <trkpt lat="46.53988" lon="-0.37853">
        <ele>153.317</ele>
        <time>2016-06-04T19:28:40Z</time>
      </trkpt>
      <trkpt lat="46.53948" lon="-0.37714">
        <ele>166.128</ele>
        <time>2016-06-04T19:28:20Z</time>
      </trkpt>
      <trkpt lat="46.53869" lon="-0.376">
        <ele>179.342</ele>
        <time>2016-06-04T19:28:00Z</time>
      </trkpt>
      <trkpt lat="46.53854" lon="-0.37561">
        <ele>182.04</ele>
        <time>2016-06-04T19:27:40Z</time>
      </trkpt>
      <trkpt lat="46.5387" lon="-0.37493">
        <ele>184.314</ele>
        <time>2016-06-04T19:27:20Z</time>
      </trkpt>
      <trkpt lat="46.53863" lon="-0.3745">
        <ele>185.841</ele>
        <time>2016-06-04T19:27:00Z</time>
      </trkpt>
      <trkpt lat="46.53898" lon="-0.37435">
        <ele>186.276</ele>
        <time>2016-06-04T19:26:40Z</time>
      </trkpt>
      <trkpt lat="46.53932" lon="-0.37383">
        <ele>185.91</ele>
        <time>2016-06-04T19:26:20Z</time>
      </trkpt>
      <trkpt lat="46.53979" lon="-0.37353">
        <ele>187.008</ele>
        <time>2016-06-04T19:26:00Z</time>
      </trkpt>
      <trkpt lat="46.54043" lon="-0.37276">
        <ele>189.01</ele>
        <time>2016-06-04T19:25:40Z</time>
      </trkpt>
      <trkpt lat="46.54168" lon="-0.37158">
        <ele>189.364</ele>
        <time>2016-06-04T19:25:20Z</time>
      </trkpt>
      <trkpt lat="46.5422" lon="-0.37137">
        <ele>188.143</ele>
        <time>2016-06-04T19:25:00Z</time>
      </trkpt>
      <trkpt lat="46.54366" lon="-0.36948">
        <ele>190.864</ele>
        <time>2016-06-04T19:24:40Z</time>
      </trkpt>
      <trkpt lat="46.54471" lon="-0.36765">
        <ele>186.085</ele>
        <time>2016-06-04T19:24:20Z</time>
      </trkpt>
      <trkpt lat="46.54499" lon="-0.36641">
        <ele>184.919</ele>
        <time>2016-06-04T19:24:00Z</time>
      </trkpt>
      <trkpt lat="46.54565" lon="-0.36493">
        <ele>187.347</ele>
        <time>2016-06-04T19:23:40Z</time>
      </trkpt>
      <trkpt lat="46.54629" lon="-0.36289">
        <ele>184.321</ele>
        <time>2016-06-04T19:23:20Z</time>
      </trkpt>
      <trkpt lat="46.54688" lon="-0.36197">
        <ele>184.698</ele>
        <time>2016-06-04T19:23:00Z</time>
      </trkpt>
      <trkpt lat="46.5475" lon="-0.36135">
        <ele>184.293</ele>
        <time>2016-06-04T19:22:40Z</time>
      </trkpt>
      <trkpt lat="46.5479" lon="-0.36047">
        <ele>188.327</ele>
        <time>2016-06-04T19:22:20Z</time>
      </trkpt>
      <trkpt lat="46.54809" lon="-0.35965">
        <ele>188.908</ele>
        <time>2016-06-04T19:22:00Z</time>
      </trkpt>
      <trkpt lat="46.54865" lon="-0.35913">
        <ele>194.311</ele>
        <time>2016-06-04T19:21:40Z</time>
      </trkpt>
      <trkpt lat="46.54905" lon="-0.35843">
        <ele>199.665</ele>
        <time>2016-06-04T19:21:20Z</time>
      </trkpt>
      <trkpt lat="46.54968" lon="-0.35787">
        <ele>202.715</ele>
        <time>2016-06-04T19:21:00Z</time>
      </trkpt>
      <trkpt lat="46.54987" lon="-0.3571">
        <ele>205.585</ele>
        <time>2016-06-04T19:20:40Z</time>
      </trkpt>
      <trkpt lat="46.55038" lon="-0.35626">
        <ele>205.456</ele>
        <time>2016-06-04T19:20:20Z</time>
      </trkpt>
      <trkpt lat="46.55092" lon="-0.35517">
        <ele>208.63</ele>
        <time>2016-06-04T19:20:00Z</time>
      </trkpt>
      <trkpt lat="46.55111" lon="-0.35441">
        <ele>209.998</ele>
        <time>2016-06-04T19:19:40Z</time>
      </trkpt>
      <trkpt lat="46.55169" lon="-0.35358">
        <ele>209.922</ele>
        <time>2016-06-04T19:19:20Z</time>
      </trkpt>
      <trkpt lat="46.55198" lon="-0.35293">
        <ele>208.649</ele>
        <time>2016-06-04T19:19:00Z</time>
      </trkpt>
      <trkpt lat="46.55296" lon="-0.35203">
        <ele>209.044</ele>
        <time>2016-06-04T19:18:40Z</time>
      </trkpt>
      <trkpt lat="46.55322" lon="-0.35162">
        <ele>208.788</ele>
        <time>2016-06-04T19:18:20Z</time>
      </trkpt>
      <trkpt lat="46.55376" lon="-0.35094">
        <ele>212.308</ele>
        <time>2016-06-04T19:18:00Z</time>
      </trkpt>
      <trkpt lat="46.55445" lon="-0.34978">
        <ele>212.011</ele>
        <time>2016-06-04T19:17:40Z</time>
      </trkpt>
      <trkpt lat="46.5551" lon="-0.34907">
        <ele>215.047</ele>
        <time>2016-06-04T19:17:20Z</time>
      </trkpt>
      <trkpt lat="46.55544" lon="-0.3489">
        <ele>214.426</ele>
        <time>2016-06-04T19:17:00Z</time>
      </trkpt>
      <trkpt lat="46.55598" lon="-0.34849">
        <ele>215.577</ele>
        <time>2016-06-04T19:16:40Z</time>
      </trkpt>
      <trkpt lat="46.5551" lon="-0.34343">
        <ele>213.688</ele>
        <time>2016-06-04T19:16:20Z</time>
      </trkpt>
      <trkpt lat="46.55529" lon="-0.34356">
        <ele>214.092</ele>
        <time>2016-06-04T19:16:00Z</time>
      </trkpt>
      <trkpt lat="46.55598" lon="-0.34158">
        <ele>217.56</ele>
        <time>2016-06-04T19:15:40Z</time>
      </trkpt>
      <trkpt lat="46.55646" lon="-0.34077">
        <ele>217.054</ele>
        <time>2016-06-04T19:15:20Z</time>
      </trkpt>
      <trkpt lat="46.55742" lon="-0.33952">
        <ele>216.371</ele>
        <time>2016-06-04T19:15:00Z</time>
      </trkpt>
      <trkpt lat="46.55812" lon="-0.33899">
        <ele>214.876</ele>
        <time>2016-06-04T19:14:40Z</time>
      </trkpt>
      <trkpt lat="46.55901" lon="-0.33712">
        <ele>213.37</ele>
        <time>2016-06-04T19:14:20Z</time>
      </trkpt>
      <trkpt lat="46.56025" lon="-0.33695">
        <ele>213.008</ele>
        <time>2016-06-04T19:14:00Z</time>
      </trkpt>
      <trkpt lat="46.56305" lon="-0.33469">
        <ele>209.016</ele>
        <time>2016-06-04T19:13:40Z</time>
      </trkpt>
      <trkpt lat="46.56357" lon="-0.33388">
        <ele>207.888</ele>
        <time>2016-06-04T19:13:20Z</time>
      </trkpt>
      <trkpt lat="46.56467" lon="-0.33371">
        <ele>207.846</ele>
        <time>2016-06-04T19:13:00Z</time>
      </trkpt>
      <trkpt lat="46.56549" lon="-0.33407">
        <ele>211.237</ele>
        <time>2016-06-04T19:12:40Z</time>
      </trkpt>
      <trkpt lat="46.56675" lon="-0.33534">
        <ele>206.658</ele>
        <time>2016-06-04T19:12:20Z</time>
      </trkpt>
      <trkpt lat="46.56681" lon="-0.33491">
        <ele>206.162</ele>
        <time>2016-06-04T19:12:00Z</time>
      </trkpt>
      <trkpt lat="46.56711" lon="-0.33392">
        <ele>206.48</ele>
        <time>2016-06-04T19:11:40Z</time>
      </trkpt>
      <trkpt lat="46.5673" lon="-0.3327">
        <ele>205.074</ele>
        <time>2016-06-04T19:11:20Z</time>
      </trkpt>
      <trkpt lat="46.56724" lon="-0.33191">
        <ele>204.941</ele>
        <time>2016-06-04T19:11:00Z</time>
      </trkpt>
      <trkpt lat="46.5669" lon="-0.33066">
        <ele>203.136</ele>
        <time>2016-06-04T19:10:40Z</time>
      </trkpt>
      <trkpt lat="46.56603" lon="-0.32856">
        <ele>207.06</ele>
        <time>2016-06-04T19:10:20Z</time>
      </trkpt>
      <trkpt lat="46.56574" lon="-0.32753">
        <ele>205.108</ele>
        <time>2016-06-04T19:10:00Z</time>
      </trkpt>
      <trkpt lat="46.56596" lon="-0.3253">
        <ele>206.609</ele>
        <time>2016-06-04T19:09:40Z</time>
      </trkpt>
      <trkpt lat="46.56568" lon="-0.32416">
        <ele>207.681</ele>
        <time>2016-06-04T19:09:20Z</time>
      </trkpt>
      <trkpt lat="46.56529" lon="-0.32388">
        <ele>208.041</ele>
        <time>2016-06-04T19:09:00Z</time>
      </trkpt>
      <trkpt lat="46.56492" lon="-0.32285">
        <ele>206.251</ele>
        <time>2016-06-04T19:08:40Z</time>
      </trkpt>
      <trkpt lat="46.56504" lon="-0.31875">
        <ele>200.882</ele>
        <time>2016-06-04T19:08:20Z</time>
      </trkpt>
      <trkpt lat="46.56559" lon="-0.31695">
        <ele>200.916</ele>
        <time>2016-06-04T19:08:00Z</time>
      </trkpt>
      <trkpt lat="46.56556" lon="-0.31643">
        <ele>201.044</ele>
        <time>2016-06-04T19:07:40Z</time>
      </trkpt>
      <trkpt lat="46.56754" lon="-0.31403">
        <ele>187.018</ele>
        <time>2016-06-04T19:07:20Z</time>
      </trkpt>
      <trkpt lat="46.5677" lon="-0.3136">
        <ele>183.555</ele>
        <time>2016-06-04T19:07:00Z</time>
      </trkpt>
      <trkpt lat="46.56827" lon="-0.31311">
        <ele>179.38</ele>
        <time>2016-06-04T19:06:40Z</time>
      </trkpt>
      <trkpt lat="46.56907" lon="-0.31285">
        <ele>177.344</ele>
        <time>2016-06-04T19:06:20Z</time>
      </trkpt>
      <trkpt lat="46.571" lon="-0.31158">
        <ele>187.208</ele>
        <time>2016-06-04T19:06:00Z</time>
      </trkpt>
      <trkpt lat="46.57156" lon="-0.31077">
        <ele>191.126</ele>
        <time>2016-06-04T19:05:40Z</time>
      </trkpt>
      <trkpt lat="46.57192" lon="-0.31066">
        <ele>192.906</ele>
        <time>2016-06-04T19:05:20Z</time>
      </trkpt>
      <trkpt lat="46.57186" lon="-0.30807">
        <ele>200.089</ele>
        <time>2016-06-04T19:05:00Z</time>
      </trkpt>
      <trkpt lat="46.57149" lon="-0.3065">
        <ele>205.23</ele>
        <time>2016-06-04T19:04:40Z</time>
      </trkpt>
      <trkpt lat="46.57233" lon="-0.30641">
        <ele>208.021</ele>
        <time>2016-06-04T19:04:20Z</time>
      </trkpt>
      <trkpt lat="46.57285" lon="-0.30663">
        <ele>209.355</ele>
        <time>2016-06-04T19:04:00Z</time>
      </trkpt>
      <trkpt lat="46.5733" lon="-0.30609">
        <ele>212.913</ele>
        <time>2016-06-04T19:03:40Z</time>
      </trkpt>
      <trkpt lat="46.57404" lon="-0.30553">
        <ele>215.587</ele>
        <time>2016-06-04T19:03:20Z</time>
      </trkpt>
      <trkpt lat="46.57538" lon="-0.30474">
        <ele>212.294</ele>
        <time>2016-06-04T19:03:00Z</time>
      </trkpt>
      <trkpt lat="46.57581" lon="-0.30422">
        <ele>210.169</ele>
        <time>2016-06-04T19:02:40Z</time>
      </trkpt>
      <trkpt lat="46.57634" lon="-0.30407">
        <ele>206.063</ele>
        <time>2016-06-04T19:02:20Z</time>
      </trkpt>
      <trkpt lat="46.57681" lon="-0.30388">
        <ele>207.008</ele>
        <time>2016-06-04T19:02:00Z</time>
      </trkpt>
      <trkpt lat="46.57789" lon="-0.30461">
        <ele>197.82</ele>
        <time>2016-06-04T19:01:40Z</time>
      </trkpt>
      <trkpt lat="46.57938" lon="-0.30472">
        <ele>193.228</ele>
        <time>2016-06-04T19:01:20Z</time>
      </trkpt>
      <trkpt lat="46.58053" lon="-0.3045">
        <ele>188.075</ele>
        <time>2016-06-04T19:01:00Z</time>
      </trkpt>
      <trkpt lat="46.58198" lon="-0.30532">
        <ele>190.01</ele>
        <time>2016-06-04T19:00:40Z</time>
      </trkpt>
      <trkpt lat="46.58289" lon="-0.30549">
        <ele>190.531</ele>
        <time>2016-06-04T19:00:20Z</time>
      </trkpt>
      <trkpt lat="46.58441" lon="-0.30502">
        <ele>186.055</ele>
        <time>2016-06-04T19:00:00Z</time>
      </trkpt>
      <trkpt lat="46.5847" lon="-0.30345">
        <ele>182.023</ele>
        <time>2016-06-04T18:59:40Z</time>
      </trkpt>
      <trkpt lat="46.58525" lon="-0.30294">
        <ele>181.587</ele>
        <time>2016-06-04T18:59:20Z</time>
      </trkpt>
      <trkpt lat="46.58562" lon="-0.30281">
        <ele>182.394</ele>
        <time>2016-06-04T18:59:00Z</time>
      </trkpt>
      <trkpt lat="46.58616" lon="-0.30227">
        <ele>182.199</ele>
        <time>2016-06-04T18:58:40Z</time>
      </trkpt>
      <trkpt lat="46.58698" lon="-0.30186">
        <ele>181.293</ele>
        <time>2016-06-04T18:58:20Z</time>
      </trkpt>
      <trkpt lat="46.58805" lon="-0.30071">
        <ele>187.008</ele>
        <time>2016-06-04T18:58:00Z</time>
      </trkpt>
      <trkpt lat="46.58823" lon="-0.29961">
        <ele>184.626</ele>
        <time>2016-06-04T18:57:40Z</time>
      </trkpt>
      <trkpt lat="46.5891" lon="-0.2977">
        <ele>185.033</ele>
        <time>2016-06-04T18:57:20Z</time>
      </trkpt>
      <trkpt lat="46.58917" lon="-0.29704">
        <ele>184.778</ele>
        <time>2016-06-04T18:57:00Z</time>
      </trkpt>
      <trkpt lat="46.5901" lon="-0.29757">
        <ele>188.926</ele>
        <time>2016-06-04T18:56:40Z</time>
      </trkpt>
      <trkpt lat="46.59106" lon="-0.29826">
        <ele>193.717</ele>
        <time>2016-06-04T18:56:20Z</time>
      </trkpt>
      <trkpt lat="46.5922" lon="-0.29877">
        <ele>195.621</ele>
        <time>2016-06-04T18:56:00Z</time>
      </trkpt>
      <trkpt lat="46.59339" lon="-0.29903">
        <ele>196.739</ele>
        <time>2016-06-04T18:55:40Z</time>
      </trkpt>
      <trkpt lat="46.59414" lon="-0.29901">
        <ele>197.453</ele>
        <time>2016-06-04T18:55:20Z</time>
      </trkpt>
      <trkpt lat="46.59529" lon="-0.3">
        <ele>202.17</ele>
        <time>2016-06-04T18:55:00Z</time>
      </trkpt>
      <trkpt lat="46.59557" lon="-0.29968">
        <ele>201.825</ele>
        <time>2016-06-04T18:54:40Z</time>
      </trkpt>
      <trkpt lat="46.59634" lon="-0.30071">
        <ele>206.179</ele>
        <time>2016-06-04T18:54:20Z</time>
      </trkpt>
      <trkpt lat="46.59902" lon="-0.29826">
        <ele>207.008</ele>
        <time>2016-06-04T18:54:00Z</time>
      </trkpt>
      <trkpt lat="46.60016" lon="-0.29787">
        <ele>202.118</ele>
        <time>2016-06-04T18:53:40Z</time>
      </trkpt>
      <trkpt lat="46.60109" lon="-0.29734">
        <ele>199.017</ele>
        <time>2016-06-04T18:53:20Z</time>
      </trkpt>
      <trkpt lat="46.60128" lon="-0.29701">
        <ele>198.436</ele>
        <time>2016-06-04T18:53:00Z</time>
      </trkpt>
      <trkpt lat="46.60089" lon="-0.29545">
        <ele>196.147</ele>
        <time>2016-06-04T18:52:40Z</time>
      </trkpt>
      <trkpt lat="46.6011" lon="-0.29457">
        <ele>200.068</ele>
        <time>2016-06-04T18:52:20Z</time>
      </trkpt>
      <trkpt lat="46.60101" lon="-0.29232">
        <ele>195.932</ele>
        <time>2016-06-04T18:52:00Z</time>
      </trkpt>
      <trkpt lat="46.60061" lon="-0.29199">
        <ele>197.89</ele>
        <time>2016-06-04T18:51:40Z</time>
      </trkpt>
      <trkpt lat="46.60007" lon="-0.28998">
        <ele>200.044</ele>
        <time>2016-06-04T18:51:20Z</time>
      </trkpt>
      <trkpt lat="46.59972" lon="-0.28897">
        <ele>200.321</ele>
        <time>2016-06-04T18:51:00Z</time>
      </trkpt>
      <trkpt lat="46.59929" lon="-0.28901">
        <ele>198.926</ele>
        <time>2016-06-04T18:50:40Z</time>
      </trkpt>
      <trkpt lat="46.5992" lon="-0.2882">
        <ele>196.47</ele>
        <time>2016-06-04T18:50:20Z</time>
      </trkpt>
      <trkpt lat="46.59973" lon="-0.28811">
        <ele>196.208</ele>
        <time>2016-06-04T18:50:00Z</time>
      </trkpt>
      <trkpt lat="46.60216" lon="-0.28719">
        <ele>190.81</ele>
        <time>2016-06-04T18:49:40Z</time>
      </trkpt>
      <trkpt lat="46.60328" lon="-0.28667">
        <ele>192.064</ele>
        <time>2016-06-04T18:49:20Z</time>
      </trkpt>
      <trkpt lat="46.60327" lon="-0.28558">
        <ele>192.543</ele>
        <time>2016-06-04T18:49:00Z</time>
      </trkpt>
      <trkpt lat="46.60258" lon="-0.28496">
        <ele>189.36</ele>
        <time>2016-06-04T18:48:40Z</time>
      </trkpt>
      <trkpt lat="46.60258" lon="-0.28448">
        <ele>189.321</ele>
        <time>2016-06-04T18:48:20Z</time>
      </trkpt>
      <trkpt lat="46.60278" lon="-0.28408">
        <ele>190.095</ele>
        <time>2016-06-04T18:48:00Z</time>
      </trkpt>
      <trkpt lat="46.6044" lon="-0.28193">
        <ele>184.193</ele>
        <time>2016-06-04T18:47:40Z</time>
      </trkpt>
      <trkpt lat="46.60517" lon="-0.28077">
        <ele>177.287</ele>
        <time>2016-06-04T18:47:20Z</time>
      </trkpt>
      <trkpt lat="46.60573" lon="-0.28024">
        <ele>172.724</ele>
        <time>2016-06-04T18:47:00Z</time>
      </trkpt>
      <trkpt lat="46.60631" lon="-0.27918">
        <ele>169.769</ele>
        <time>2016-06-04T18:46:40Z</time>
      </trkpt>
      <trkpt lat="46.6069" lon="-0.27723">
        <ele>168.053</ele>
        <time>2016-06-04T18:46:20Z</time>
      </trkpt>
      <trkpt lat="46.60726" lon="-0.27539">
        <ele>166.708</ele>
        <time>2016-06-04T18:46:00Z</time>
      </trkpt>
      <trkpt lat="46.60881" lon="-0.27339">
        <ele>161.825</ele>
        <time>2016-06-04T18:45:40Z</time>
      </trkpt>
      <trkpt lat="46.60912" lon="-0.27255">
        <ele>159.205</ele>
        <time>2016-06-04T18:45:20Z</time>
      </trkpt>
      <trkpt lat="46.60974" lon="-0.27174">
        <ele>160.179</ele>
        <time>2016-06-04T18:45:00Z</time>
      </trkpt>
      <trkpt lat="46.61124" lon="-0.27047">
        <ele>169.076</ele>
        <time>2016-06-04T18:44:40Z</time>
      </trkpt>
      <trkpt lat="46.61211" lon="-0.27004">
        <ele>165.817</ele>
        <time>2016-06-04T18:44:20Z</time>
      </trkpt>
      <trkpt lat="46.61341" lon="-0.26869">
        <ele>160.781</ele>
        <time>2016-06-04T18:44:00Z</time>
      </trkpt>
      <trkpt lat="46.61428" lon="-0.26813">
        <ele>160.199</ele>
        <time>2016-06-04T18:43:40Z</time>
      </trkpt>
      <trkpt lat="46.61475" lon="-0.26807">
        <ele>161.043</ele>
        <time>2016-06-04T18:43:20Z</time>
      </trkpt>
      <trkpt lat="46.61577" lon="-0.26706">
        <ele>159.02</ele>
        <time>2016-06-04T18:43:00Z</time>
      </trkpt>
      <trkpt lat="46.61652" lon="-0.26659">
        <ele>161.685</ele>
        <time>2016-06-04T18:42:40Z</time>
      </trkpt>
      <trkpt lat="46.61764" lon="-0.26644">
        <ele>163.719</ele>
        <time>2016-06-04T18:42:20Z</time>
      </trkpt>
      <trkpt lat="46.61836" lon="-0.26612">
        <ele>159.908</ele>
        <time>2016-06-04T18:42:00Z</time>
      </trkpt>
      <trkpt lat="46.61959" lon="-0.26526">
        <ele>156.013</ele>
        <time>2016-06-04T18:41:40Z</time>
      </trkpt>
      <trkpt lat="46.62007" lon="-0.26607">
        <ele>153.649</ele>
        <time>2016-06-04T18:41:20Z</time>
      </trkpt>
      <trkpt lat="46.62035" lon="-0.26725">
        <ele>150.937</ele>
        <time>2016-06-04T18:41:00Z</time>
      </trkpt>
      <trkpt lat="46.62102" lon="-0.26839">
        <ele>153.725</ele>
        <time>2016-06-04T18:40:40Z</time>
      </trkpt>
      <trkpt lat="46.621" lon="-0.26963">
        <ele>155.766</ele>
        <time>2016-06-04T18:40:20Z</time>
      </trkpt>
      <trkpt lat="46.62116" lon="-0.27011">
        <ele>158.22</ele>
        <time>2016-06-04T18:40:00Z</time>
      </trkpt>
      <trkpt lat="46.62225" lon="-0.27045">
        <ele>158.248</ele>
        <time>2016-06-04T18:39:40Z</time>
      </trkpt>
      <trkpt lat="46.62296" lon="-0.27041">
        <ele>158.482</ele>
        <time>2016-06-04T18:39:20Z</time>
      </trkpt>
      <trkpt lat="46.62523" lon="-0.26923">
        <ele>149.079</ele>
        <time>2016-06-04T18:39:00Z</time>
      </trkpt>
      <trkpt lat="46.62595" lon="-0.26951">
        <ele>149.294</ele>
        <time>2016-06-04T18:38:40Z</time>
      </trkpt>
      <trkpt lat="46.6267" lon="-0.26882">
        <ele>150.058</ele>
        <time>2016-06-04T18:38:20Z</time>
      </trkpt>
      <trkpt lat="46.62729" lon="-0.26843">
        <ele>146.508</ele>
        <time>2016-06-04T18:38:00Z</time>
      </trkpt>
      <trkpt lat="46.62925" lon="-0.26803">
        <ele>143.317</ele>
        <time>2016-06-04T18:37:40Z</time>
      </trkpt>
      <trkpt lat="46.62968" lon="-0.26777">
        <ele>142.289</ele>
        <time>2016-06-04T18:37:20Z</time>
      </trkpt>
      <trkpt lat="46.63033" lon="-0.26753">
        <ele>142.228</ele>
        <time>2016-06-04T18:37:00Z</time>
      </trkpt>
      <trkpt lat="46.63145" lon="-0.26738">
        <ele>137.848</ele>
        <time>2016-06-04T18:36:40Z</time>
      </trkpt>
      <trkpt lat="46.63202" lon="-0.26691">
        <ele>137.279</ele>
        <time>2016-06-04T18:36:20Z</time>
      </trkpt>
      <trkpt lat="46.63291" lon="-0.26717">
        <ele>138.223</ele>
        <time>2016-06-04T18:36:00Z</time>
      </trkpt>
      <trkpt lat="46.63333" lon="-0.26753">
        <ele>136.881</ele>
        <time>2016-06-04T18:35:40Z</time>
      </trkpt>
      <trkpt lat="46.63379" lon="-0.26773">
        <ele>137.645</ele>
        <time>2016-06-04T18:35:20Z</time>
      </trkpt>
      <trkpt lat="46.63441" lon="-0.26652">
        <ele>143.152</ele>
        <time>2016-06-04T18:35:00Z</time>
      </trkpt>
      <trkpt lat="46.63494" lon="-0.26622">
        <ele>148.267</ele>
        <time>2016-06-04T18:34:40Z</time>
      </trkpt>
      <trkpt lat="46.63544" lon="-0.26612">
        <ele>152.251</ele>
        <time>2016-06-04T18:34:20Z</time>
      </trkpt>
      <trkpt lat="46.63554" lon="-0.26642">
        <ele>150.708</ele>
        <time>2016-06-04T18:34:00Z</time>
      </trkpt>
      <trkpt lat="46.63584" lon="-0.26644">
        <ele>150.42</ele>
        <time>2016-06-04T18:33:40Z</time>
      </trkpt>
      <trkpt lat="46.63682" lon="-0.26597">
        <ele>142.2</ele>
        <time>2020-12-25T00:07:55Z</time>
      </trkpt>
      <trkpt lat="46.63712" lon="-0.26651">
        <ele>140.157</ele>
        <time>2020-12-25T00:07:35Z</time>
      </trkpt>
      <trkpt lat="46.63852" lon="-0.26464">
        <ele>134.447</ele>
        <time>2016-06-04T18:33:00Z</time>
      </trkpt>
      <trkpt lat="46.63913" lon="-0.26334">
        <ele>136.298</ele>
        <time>2020-12-25T00:06:55Z</time>
      </trkpt>
      <trkpt lat="46.63927" lon="-0.26353">
        <ele>135.362</ele>
        <time>2020-12-25T00:06:35Z</time>
      </trkpt>
      <trkpt lat="46.63996" lon="-0.26329">
        <ele>136.29</ele>
        <time>2020-12-25T00:06:15Z</time>
      </trkpt>
      <trkpt lat="46.64023" lon="-0.26372">
        <ele>133.584</ele>
        <time>2020-12-25T00:05:55Z</time>
      </trkpt>
      <trkpt lat="46.64022" lon="-0.26399">
        <ele>131.231</ele>
        <time>2016-06-04T18:31:40Z</time>
      </trkpt>
      <trkpt lat="46.63992" lon="-0.26472">
        <ele>131.356</ele>
        <time>2016-06-04T18:31:20Z</time>
      </trkpt>
      <trkpt lat="46.64051" lon="-0.26498">
        <ele>130.95</ele>
        <time>2016-06-04T18:31:00Z</time>
      </trkpt>
      <trkpt lat="46.64128" lon="-0.26442">
        <ele>131.208</ele>
        <time>2016-06-04T18:30:40Z</time>
      </trkpt>
      <trkpt lat="46.64194" lon="-0.26369">
        <ele>131.011</ele>
        <time>2016-06-04T18:30:20Z</time>
      </trkpt>
      <trkpt lat="46.64237" lon="-0.26363">
        <ele>132.447</ele>
        <time>2016-06-04T18:30:00Z</time>
      </trkpt>
      <trkpt lat="46.6431" lon="-0.26371">
        <ele>132.745</ele>
        <time>2016-06-04T18:29:40Z</time>
      </trkpt>
      <trkpt lat="46.64354" lon="-0.26358">
        <ele>133.921</ele>
        <time>2016-06-04T18:29:20Z</time>
      </trkpt>
      <trkpt lat="46.64372" lon="-0.26365">
        <ele>133.992</ele>
        <time>2016-06-04T18:29:00Z</time>
      </trkpt>
      <trkpt lat="46.64465" lon="-0.26393">
        <ele>135.556</ele>
        <time>2016-06-04T18:28:40Z</time>
      </trkpt>
      <trkpt lat="46.64515" lon="-0.26361">
        <ele>135.534</ele>
        <time>2016-06-04T18:28:20Z</time>
      </trkpt>
      <trkpt lat="46.64536" lon="-0.26264">
        <ele>138.228</ele>
        <time>2016-06-04T18:28:00Z</time>
      </trkpt>
      <trkpt lat="46.64537" lon="-0.26157">
        <ele>142.075</ele>
        <time>2016-06-04T18:27:40Z</time>
      </trkpt>
      <trkpt lat="46.64567" lon="-0.26017">
        <ele>143.44</ele>
        <time>2016-06-04T18:27:20Z</time>
      </trkpt>
      <trkpt lat="46.64556" lon="-0.25912">
        <ele>144.174</ele>
        <time>2016-06-04T18:27:00Z</time>
      </trkpt>
      <trkpt lat="46.64599" lon="-0.25661">
        <ele>140.608</ele>
        <time>2016-06-04T18:26:40Z</time>
      </trkpt>
      <trkpt lat="46.64624" lon="-0.25562">
        <ele>143.817</ele>
        <time>2016-06-04T18:26:20Z</time>
      </trkpt>
      <trkpt lat="46.64712" lon="-0.25376">
        <ele>141.589</ele>
        <time>2016-06-04T18:26:00Z</time>
      </trkpt>
      <trkpt lat="46.6476" lon="-0.25365">
        <ele>135.585</ele>
        <time>2016-06-04T18:25:40Z</time>
      </trkpt>
      <trkpt lat="46.64792" lon="-0.25304">
        <ele>146.452</ele>
        <time>2020-12-24T23:59:15Z</time>
      </trkpt>
      <trkpt lat="46.64829" lon="-0.2529">
        <ele>148.073</ele>
        <time>2020-12-24T23:58:55Z</time>
      </trkpt>
      <trkpt lat="46.64834" lon="-0.2527">
        <ele>152.327</ele>
        <time>2020-12-24T23:58:35Z</time>
      </trkpt>
      <trkpt lat="46.64832" lon="-0.25246">
        <ele>157.665</ele>
        <time>2020-12-24T23:58:15Z</time>
      </trkpt>
      <trkpt lat="46.64845" lon="-0.25244">
        <ele>156.719</ele>
        <time>2020-12-24T23:57:55Z</time>
      </trkpt>
      <trkpt lat="46.64848" lon="-0.25212">
        <ele>160.476</ele>
        <time>2020-12-24T23:57:35Z</time>
      </trkpt>
      <trkpt lat="46.64858" lon="-0.25193">
        <ele>162.171</ele>
        <time>2020-12-24T23:57:15Z</time>
      </trkpt>
      <trkpt lat="46.64875" lon="-0.25198">
        <ele>160.275</ele>
        <time>2020-12-24T23:56:55Z</time>
      </trkpt>
      <trkpt lat="46.64919" lon="-0.25195">
        <ele>160.708</ele>
        <time>2016-06-04T18:24:20Z</time>
      </trkpt>
      <trkpt lat="46.65011" lon="-0.25159">
        <ele>160.319</ele>
        <time>2016-06-04T18:24:00Z</time>
      </trkpt>
      <trkpt lat="46.65138" lon="-0.25152">
        <ele>151.181</ele>
        <time>2016-06-04T18:23:40Z</time>
      </trkpt>
      <trkpt lat="46.6515" lon="-0.25145">
        <ele>147.291</ele>
        <time>2020-12-24T23:55:35Z</time>
      </trkpt>
      <trkpt lat="46.65178" lon="-0.25115">
        <ele>141.589</ele>
        <time>2020-12-24T23:55:15Z</time>
      </trkpt>
      <trkpt lat="46.65183" lon="-0.25092">
        <ele>139.36</ele>
        <time>2020-12-24T23:54:55Z</time>
      </trkpt>
      <trkpt lat="46.65169" lon="-0.25062">
        <ele>138.574</ele>
        <time>2020-12-24T23:54:35Z</time>
      </trkpt>
      <trkpt lat="46.6514" lon="-0.25051">
        <ele>141.882</ele>
        <time>2020-12-24T23:54:15Z</time>
      </trkpt>
      <trkpt lat="46.65114" lon="-0.25023">
        <ele>143.276</ele>
        <time>2020-12-24T23:53:55Z</time>
      </trkpt>
      <trkpt lat="46.65077" lon="-0.24996">
        <ele>145.633</ele>
        <time>2020-12-24T23:53:35Z</time>
      </trkpt>
      <trkpt lat="46.65123" lon="-0.24963">
        <ele>141.828</ele>
        <time>2020-12-24T23:53:15Z</time>
      </trkpt>
      <trkpt lat="46.65171" lon="-0.2496">
        <ele>135.762</ele>
        <time>2020-12-24T23:52:55Z</time>
      </trkpt>
      <trkpt lat="46.65261" lon="-0.24924">
        <ele>132.108</ele>
        <time>2020-12-24T23:52:35Z</time>
      </trkpt>
      <trkpt lat="46.65313" lon="-0.2489">
        <ele>136.813</ele>
        <time>2020-12-24T23:52:15Z</time>
      </trkpt>
      <trkpt lat="46.65316" lon="-0.24913">
        <ele>137.321</ele>
        <time>2020-12-24T23:51:55Z</time>
      </trkpt>
      <trkpt lat="46.65365" lon="-0.24972">
        <ele>141.761</ele>
        <time>2020-12-24T23:51:35Z</time>
      </trkpt>
      <trkpt lat="46.65384" lon="-0.24945">
        <ele>142.425</ele>
        <time>2020-12-24T23:51:15Z</time>
      </trkpt>
      <trkpt lat="46.65396" lon="-0.24903">
        <ele>141.656</ele>
        <time>2020-12-24T23:50:55Z</time>
      </trkpt>
      <trkpt lat="46.65451" lon="-0.24835">
        <ele>140.98</ele>
        <time>2020-12-24T23:50:35Z</time>
      </trkpt>
      <trkpt lat="46.65468" lon="-0.24779">
        <ele>138.648</ele>
        <time>2020-12-24T23:50:15Z</time>
      </trkpt>
      <trkpt lat="46.655" lon="-0.24679">
        <ele>134.692</ele>
        <time>2020-12-24T23:49:55Z</time>
      </trkpt>
      <trkpt lat="46.65552" lon="-0.24639">
        <ele>138.839</ele>
        <time>2020-12-24T23:49:35Z</time>
      </trkpt>
      <trkpt lat="46.65661" lon="-0.24412">
        <ele>131.694</ele>
        <time>2020-12-24T23:49:15Z</time>
      </trkpt>
      <trkpt lat="46.65679" lon="-0.24425">
        <ele>133.388</ele>
        <time>2020-12-24T23:48:55Z</time>
      </trkpt>
      <trkpt lat="46.65732" lon="-0.24323">
        <ele>136.708</ele>
        <time>2020-12-24T23:48:35Z</time>
      </trkpt>
      <trkpt lat="46.65759" lon="-0.2421">
        <ele>136.508</ele>
        <time>2020-12-24T23:48:15Z</time>
      </trkpt>
      <trkpt lat="46.65737" lon="-0.24197">
        <ele>134.326</ele>
        <time>2020-12-24T23:47:55Z</time>
      </trkpt>
      <trkpt lat="46.65746" lon="-0.24147">
        <ele>133.625</ele>
        <time>2020-12-24T23:47:35Z</time>
      </trkpt>
      <trkpt lat="46.65741" lon="-0.24119">
        <ele>133.09</ele>
        <time>2020-12-24T23:47:15Z</time>
      </trkpt>
      <trkpt lat="46.65749" lon="-0.24061">
        <ele>132.481</ele>
        <time>2020-12-24T23:46:55Z</time>
      </trkpt>
      <trkpt lat="46.65751" lon="-0.24021">
        <ele>131.645</ele>
        <time>2020-12-24T23:46:35Z</time>
      </trkpt>
      <trkpt lat="46.65779" lon="-0.23983">
        <ele>134.183</ele>
        <time>2020-12-24T23:46:15Z</time>
      </trkpt>
      <trkpt lat="46.65785" lon="-0.23897">
        <ele>132.977</ele>
        <time>2020-12-24T23:45:55Z</time>
      </trkpt>
      <trkpt lat="46.65812" lon="-0.23797">
        <ele>135.134</ele>
        <time>2020-12-24T23:45:35Z</time>
      </trkpt>
      <trkpt lat="46.65861" lon="-0.23737">
        <ele>140.489</ele>
        <time>2020-12-24T23:45:15Z</time>
      </trkpt>
      <trkpt lat="46.6587" lon="-0.23674">
        <ele>141.563</ele>
        <time>2020-12-24T23:44:55Z</time>
      </trkpt>
      <trkpt lat="46.65886" lon="-0.2365">
        <ele>147.208</ele>
        <time>2016-06-04T18:14:40Z</time>
      </trkpt>
      <trkpt lat="46.65908" lon="-0.23663">
        <ele>152.127</ele>
        <time>2016-06-04T18:14:20Z</time>
      </trkpt>
      <trkpt lat="46.65935" lon="-0.23738">
        <ele>152.661</ele>
        <time>2016-06-04T18:14:00Z</time>
      </trkpt>
      <trkpt lat="46.65932" lon="-0.23767">
        <ele>148.577</ele>
        <time>2020-12-24T23:43:35Z</time>
      </trkpt>
      <trkpt lat="46.65922" lon="-0.23769">
        <ele>147.969</ele>
        <time>2020-12-24T23:43:15Z</time>
      </trkpt>
      <trkpt lat="46.65906" lon="-0.23812">
        <ele>141.69</ele>
        <time>2020-12-24T23:42:55Z</time>
      </trkpt>
      <trkpt lat="46.65954" lon="-0.23838">
        <ele>141.424</ele>
        <time>2020-12-24T23:42:35Z</time>
      </trkpt>
      <trkpt lat="46.65967" lon="-0.23834">
        <ele>141.812</ele>
        <time>2020-12-24T23:42:15Z</time>
      </trkpt>
      <trkpt lat="46.66" lon="-0.23813">
        <ele>145.526</ele>
        <time>2020-12-24T23:41:55Z</time>
      </trkpt>
      <trkpt lat="46.66057" lon="-0.23812">
        <ele>144.413</ele>
        <time>2020-12-24T23:41:35Z</time>
      </trkpt>
      <trkpt lat="46.66029" lon="-0.23848">
        <ele>139.568</ele>
        <time>2016-06-04T18:11:20Z</time>
      </trkpt>
      <trkpt lat="46.6605" lon="-0.23878">
        <ele>140.512</ele>
        <time>2016-06-04T18:11:00Z</time>
      </trkpt>
      <trkpt lat="46.66067" lon="-0.23887">
        <ele>143.408</ele>
        <time>2020-12-24T23:40:35Z</time>
      </trkpt>
      <trkpt lat="46.66095" lon="-0.23882">
        <ele>142.318</ele>
        <time>2016-06-04T18:10:40Z</time>
      </trkpt>
      <trkpt lat="46.66156" lon="-0.23861">
        <ele>145.044</ele>
        <time>2020-12-24T23:39:55Z</time>
      </trkpt>
      <trkpt lat="46.66185" lon="-0.23858">
        <ele>145.863</ele>
        <time>2020-12-24T23:39:35Z</time>
      </trkpt>
      <trkpt lat="46.66186" lon="-0.23846">
        <ele>145.734</ele>
        <time>2020-12-24T23:39:15Z</time>
      </trkpt>
      <trkpt lat="46.66151" lon="-0.23801">
        <ele>146.225</ele>
        <time>2016-06-04T18:10:00Z</time>
      </trkpt>
      <trkpt lat="46.66087" lon="-0.23776">
        <ele>146.889</ele>
        <time>2020-12-24T23:38:35Z</time>
      </trkpt>
      <trkpt lat="46.66107" lon="-0.23751">
        <ele>148.977</ele>
        <time>2020-12-24T23:38:15Z</time>
      </trkpt>
      <trkpt lat="46.66115" lon="-0.2371">
        <ele>150.961</ele>
        <time>2020-12-24T23:37:55Z</time>
      </trkpt>
      <trkpt lat="46.66113" lon="-0.23689">
        <ele>151.398</ele>
        <time>2016-06-04T18:09:00Z</time>
      </trkpt>
      <trkpt lat="46.6619" lon="-0.23552">
        <ele>156.063</ele>
        <time>2016-06-04T18:08:40Z</time>
      </trkpt>
      <trkpt lat="46.66252" lon="-0.23466">
        <ele>157.257</ele>
        <time>2016-06-04T18:08:20Z</time>
      </trkpt>
      <trkpt lat="46.66306" lon="-0.23466">
        <ele>157.208</ele>
        <time>2016-06-04T18:08:00Z</time>
      </trkpt>
      <trkpt lat="46.66399" lon="-0.2352">
        <ele>154.715</ele>
        <time>2016-06-04T18:07:40Z</time>
      </trkpt>
      <trkpt lat="46.66556" lon="-0.22936">
        <ele>169.087</ele>
        <time>2016-06-04T18:07:20Z</time>
      </trkpt>
      <trkpt lat="46.6662" lon="-0.22867">
        <ele>166.817</ele>
        <time>2016-06-04T18:07:00Z</time>
      </trkpt>
      <trkpt lat="46.66699" lon="-0.22717">
        <ele>164.742</ele>
        <time>2016-06-04T18:06:40Z</time>
      </trkpt>
      <trkpt lat="46.66739" lon="-0.22666">
        <ele>161.483</ele>
        <time>2016-06-04T18:06:20Z</time>
      </trkpt>
      <trkpt lat="46.66789" lon="-0.22569">
        <ele>161.597</ele>
        <time>2016-06-04T18:06:00Z</time>
      </trkpt>
      <trkpt lat="46.6682" lon="-0.22466">
        <ele>161.845</ele>
        <time>2016-06-04T18:05:40Z</time>
      </trkpt>
      <trkpt lat="46.6692" lon="-0.2235">
        <ele>165.059</ele>
        <time>2016-06-04T18:05:20Z</time>
      </trkpt>
      <trkpt lat="46.6692" lon="-0.2235">
        <ele>165.036</ele>
        <time>2016-06-04T18:05:00Z</time>
      </trkpt>
      <trkpt lat="46.67003" lon="-0.22058">
        <ele>160.971</ele>
        <time>2016-06-04T18:04:40Z</time>
      </trkpt>
      <trkpt lat="46.67005" lon="-0.21972">
        <ele>161.225</ele>
        <time>2016-06-04T18:04:20Z</time>
      </trkpt>
      <trkpt lat="46.67035" lon="-0.21769">
        <ele>157.908</ele>
        <time>2016-06-04T18:04:00Z</time>
      </trkpt>
      <trkpt lat="46.67129" lon="-0.21548">
        <ele>149.22</ele>
        <time>2016-06-04T18:03:40Z</time>
      </trkpt>
      <trkpt lat="46.67138" lon="-0.21509">
        <ele>149.073</ele>
        <time>2016-06-04T18:03:20Z</time>
      </trkpt>
      <trkpt lat="46.67163" lon="-0.21468">
        <ele>149.192</ele>
        <time>2016-06-04T18:03:00Z</time>
      </trkpt>
      <trkpt lat="46.67245" lon="-0.21404">
        <ele>148.93</ele>
        <time>2016-06-04T18:02:40Z</time>
      </trkpt>
      <trkpt lat="46.67297" lon="-0.21275">
        <ele>147.011</ele>
        <time>2016-06-04T18:02:20Z</time>
      </trkpt>
      <trkpt lat="46.67344" lon="-0.21181">
        <ele>146.995</ele>
        <time>2016-06-04T18:02:00Z</time>
      </trkpt>
      <trkpt lat="46.6745" lon="-0.21009">
        <ele>143.613</ele>
        <time>2016-06-04T18:01:40Z</time>
      </trkpt>
      <trkpt lat="46.67513" lon="-0.20857">
        <ele>143.437</ele>
        <time>2016-06-04T18:01:20Z</time>
      </trkpt>
      <trkpt lat="46.67544" lon="-0.20816">
        <ele>144.044</ele>
        <time>2016-06-04T18:01:00Z</time>
      </trkpt>
      <trkpt lat="46.6758" lon="-0.20932">
        <ele>146.799</ele>
        <time>2016-06-04T18:00:40Z</time>
      </trkpt>
      <trkpt lat="46.6772" lon="-0.2106">
        <ele>146.383</ele>
        <time>2016-06-04T18:00:20Z</time>
      </trkpt>
      <trkpt lat="46.67742" lon="-0.21174">
        <ele>147.508</ele>
        <time>2016-06-04T18:00:00Z</time>
      </trkpt>
      <trkpt lat="46.67773" lon="-0.21198">
        <ele>146.527</ele>
        <time>2016-06-04T17:59:40Z</time>
      </trkpt>
      <trkpt lat="46.67949" lon="-0.20938">
        <ele>145.161</ele>
        <time>2016-06-04T17:59:20Z</time>
      </trkpt>
      <trkpt lat="46.6828" lon="-0.20327">
        <ele>164.977</ele>
        <time>2016-06-04T17:59:00Z</time>
      </trkpt>
      <trkpt lat="46.68389" lon="-0.20078">
        <ele>166.054</ele>
        <time>2016-06-04T17:58:40Z</time>
      </trkpt>
      <trkpt lat="46.68466" lon="-0.19897">
        <ele>163.885</ele>
        <time>2016-06-04T17:58:20Z</time>
      </trkpt>
      <trkpt lat="46.68691" lon="-0.1943">
        <ele>160.929</ele>
        <time>2016-06-04T17:58:00Z</time>
      </trkpt>
      <trkpt lat="46.68865" lon="-0.18943">
        <ele>155.027</ele>
        <time>2016-06-04T17:57:40Z</time>
      </trkpt>
      <trkpt lat="46.69015" lon="-0.187">
        <ele>157.561</ele>
        <time>2016-06-04T17:57:20Z</time>
      </trkpt>
      <trkpt lat="46.691" lon="-0.18516">
        <ele>156.038</ele>
        <time>2016-06-04T17:57:00Z</time>
      </trkpt>
      <trkpt lat="46.69156" lon="-0.18413">
        <ele>154.053</ele>
        <time>2016-06-04T17:56:40Z</time>
      </trkpt>
      <trkpt lat="46.69193" lon="-0.18273">
        <ele>155.167</ele>
        <time>2016-06-04T17:56:20Z</time>
      </trkpt>
      <trkpt lat="46.6922" lon="-0.18196">
        <ele>155.008</ele>
        <time>2016-06-04T17:56:00Z</time>
      </trkpt>
      <trkpt lat="46.6923" lon="-0.18095">
        <ele>153.319</ele>
        <time>2016-06-04T17:55:40Z</time>
      </trkpt>
      <trkpt lat="46.6928" lon="-0.17992">
        <ele>153.209</ele>
        <time>2016-06-04T17:55:20Z</time>
      </trkpt>
      <trkpt lat="46.69398" lon="-0.17825">
        <ele>150.619</ele>
        <time>2016-06-04T17:55:00Z</time>
      </trkpt>
      <trkpt lat="46.69474" lon="-0.1779">
        <ele>148.595</ele>
        <time>2016-06-04T17:54:40Z</time>
      </trkpt>
      <trkpt lat="46.69598" lon="-0.17784">
        <ele>146.976</ele>
        <time>2016-06-04T17:54:20Z</time>
      </trkpt>
      <trkpt lat="46.69919" lon="-0.17578">
        <ele>144.96</ele>
        <time>2016-06-04T17:54:00Z</time>
      </trkpt>
      <trkpt lat="46.69989" lon="-0.17584">
        <ele>143.688</ele>
        <time>2016-06-04T17:53:40Z</time>
      </trkpt>
      <trkpt lat="46.70058" lon="-0.1755">
        <ele>144.232</ele>
        <time>2016-06-04T17:53:20Z</time>
      </trkpt>
      <trkpt lat="46.70175" lon="-0.17507">
        <ele>142.579</ele>
        <time>2016-06-04T17:53:00Z</time>
      </trkpt>
      <trkpt lat="46.70247" lon="-0.17514">
        <ele>140.534</ele>
        <time>2016-06-04T17:52:40Z</time>
      </trkpt>
      <trkpt lat="46.70345" lon="-0.17464">
        <ele>140.048</ele>
        <time>2016-06-04T17:52:20Z</time>
      </trkpt>
      <trkpt lat="46.70465" lon="-0.17381">
        <ele>137.908</ele>
        <time>2016-06-04T17:52:00Z</time>
      </trkpt>
      <trkpt lat="46.70541" lon="-0.17348">
        <ele>135.511</ele>
        <time>2016-06-04T17:51:40Z</time>
      </trkpt>
      <trkpt lat="46.70674" lon="-0.17348">
        <ele>135.983</ele>
        <time>2016-06-04T17:51:20Z</time>
      </trkpt>
      <trkpt lat="46.70734" lon="-0.17368">
        <ele>135.923</ele>
        <time>2016-06-04T17:51:00Z</time>
      </trkpt>
      <trkpt lat="46.70832" lon="-0.1737">
        <ele>134.781</ele>
        <time>2016-06-04T17:50:40Z</time>
      </trkpt>
      <trkpt lat="46.70941" lon="-0.1731">
        <ele>134.132</ele>
        <time>2016-06-04T17:50:20Z</time>
      </trkpt>
      <trkpt lat="46.70996" lon="-0.17209">
        <ele>134.596</ele>
        <time>2016-06-04T17:50:00Z</time>
      </trkpt>
      <trkpt lat="46.7108" lon="-0.17202">
        <ele>133.094</ele>
        <time>2016-06-04T17:49:40Z</time>
      </trkpt>
      <trkpt lat="46.71234" lon="-0.1722">
        <ele>132.968</ele>
        <time>2016-06-04T17:49:20Z</time>
      </trkpt>
      <trkpt lat="46.71446" lon="-0.17209">
        <ele>135.135</ele>
        <time>2016-06-04T17:49:00Z</time>
      </trkpt>
      <trkpt lat="46.71589" lon="-0.17123">
        <ele>134.99</ele>
        <time>2016-06-04T17:48:40Z</time>
      </trkpt>
      <trkpt lat="46.71736" lon="-0.17005">
        <ele>126.184</ele>
        <time>2016-06-04T17:48:20Z</time>
      </trkpt>
      <trkpt lat="46.71968" lon="-0.16988">
        <ele>123.108</ele>
        <time>2016-06-04T17:48:00Z</time>
      </trkpt>
      <trkpt lat="46.72031" lon="-0.17059">
        <ele>123.226</ele>
        <time>2016-06-04T17:47:40Z</time>
      </trkpt>
      <trkpt lat="46.72137" lon="-0.16984">
        <ele>125.66</ele>
        <time>2016-06-04T17:47:20Z</time>
      </trkpt>
      <trkpt lat="46.72301" lon="-0.16829">
        <ele>116.086</ele>
        <time>2016-06-04T17:47:00Z</time>
      </trkpt>
      <trkpt lat="46.72455" lon="-0.1667">
        <ele>114.428</ele>
        <time>2016-06-04T17:46:40Z</time>
      </trkpt>
      <trkpt lat="46.72467" lon="-0.16642">
        <ele>114.689</ele>
        <time>2016-06-04T17:46:20Z</time>
      </trkpt>
      <trkpt lat="46.72508" lon="-0.16666">
        <ele>116.333</ele>
        <time>2016-06-04T17:46:00Z</time>
      </trkpt>
      <trkpt lat="46.72565" lon="-0.16683">
        <ele>117.751</ele>
        <time>2016-06-04T17:45:40Z</time>
      </trkpt>
      <trkpt lat="46.7263" lon="-0.1672">
        <ele>121.475</ele>
        <time>2016-06-04T17:45:20Z</time>
      </trkpt>
      <trkpt lat="46.72667" lon="-0.1672">
        <ele>123.072</ele>
        <time>2016-06-04T17:45:00Z</time>
      </trkpt>
      <trkpt lat="46.72733" lon="-0.16756">
        <ele>129.787</ele>
        <time>2016-06-04T17:44:40Z</time>
      </trkpt>
      <trkpt lat="46.72733" lon="-0.16756">
        <ele>129.751</ele>
        <time>2016-06-04T17:44:40Z</time>
      </trkpt>
      <trkpt lat="46.72764" lon="-0.16711">
        <ele>132.408</ele>
        <time>2020-03-27T01:40:21Z</time>
      </trkpt>
      <trkpt lat="46.72816" lon="-0.16689">
        <ele>132.811</ele>
        <time>2019-10-27T18:08:41Z</time>
      </trkpt>
      <trkpt lat="46.72816" lon="-0.16774">
        <ele>133.856</ele>
        <time>2020-12-24T23:11:55Z</time>
      </trkpt>
      <trkpt lat="46.72887" lon="-0.16845">
        <ele>129.654</ele>
        <time>2020-12-24T23:11:35Z</time>
      </trkpt>
      <trkpt lat="46.73007" lon="-0.16575">
        <ele>123.727</ele>
        <time>2020-12-24T23:11:15Z</time>
      </trkpt>
      <trkpt lat="46.73106" lon="-0.16807">
        <ele>124.828</ele>
        <time>2019-10-27T18:06:41Z</time>
      </trkpt>
      <trkpt lat="46.73137" lon="-0.16933">
        <ele>123.612</ele>
        <time>2019-10-27T18:06:21Z</time>
      </trkpt>
      <trkpt lat="46.73165" lon="-0.17047">
        <ele>123.48</ele>
        <time>2019-10-27T18:06:01Z</time>
      </trkpt>
      <trkpt lat="46.73244" lon="-0.1703">
        <ele>126.084</ele>
        <time>2019-10-27T18:05:41Z</time>
      </trkpt>
      <trkpt lat="46.73337" lon="-0.17038">
        <ele>123.941</ele>
        <time>2019-10-27T18:05:21Z</time>
      </trkpt>
      <trkpt lat="46.73443" lon="-0.17105">
        <ele>122.116</ele>
        <time>2019-10-27T18:05:01Z</time>
      </trkpt>
      <trkpt lat="46.73649" lon="-0.17171">
        <ele>124.52</ele>
        <time>2019-10-27T18:04:41Z</time>
      </trkpt>
      <trkpt lat="46.73872" lon="-0.17262">
        <ele>125.608</ele>
        <time>2019-10-27T18:04:21Z</time>
      </trkpt>
      <trkpt lat="46.74043" lon="-0.17392">
        <ele>127.915</ele>
        <time>2019-10-27T18:04:01Z</time>
      </trkpt>
      <trkpt lat="46.74107" lon="-0.17433">
        <ele>125.305</ele>
        <time>2019-10-27T18:03:41Z</time>
      </trkpt>
      <trkpt lat="46.74269" lon="-0.17418">
        <ele>117.644</ele>
        <time>2019-10-27T18:03:21Z</time>
      </trkpt>
      <trkpt lat="46.74324" lon="-0.17395">
        <ele>116.019</ele>
        <time>2019-10-27T18:03:01Z</time>
      </trkpt>
      <trkpt lat="46.74366" lon="-0.17401">
        <ele>114.04</ele>
        <time>2019-10-27T18:02:41Z</time>
      </trkpt>
      <trkpt lat="46.74447" lon="-0.1753">
        <ele>103.644</ele>
        <time>2019-10-27T18:02:21Z</time>
      </trkpt>
      <trkpt lat="46.74497" lon="-0.17515">
        <ele>99.772</ele>
        <time>2019-10-27T18:02:01Z</time>
      </trkpt>
      <trkpt lat="46.74515" lon="-0.17517">
        <ele>98.326</ele>
        <time>2019-10-27T18:01:41Z</time>
      </trkpt>
      <trkpt lat="46.74534" lon="-0.17545">
        <ele>97.013</ele>
        <time>2019-10-27T18:01:21Z</time>
      </trkpt>
      <trkpt lat="46.74566" lon="-0.17571">
        <ele>98.188</ele>
        <time>2019-10-27T18:01:01Z</time>
      </trkpt>
      <trkpt lat="46.74622" lon="-0.17611">
        <ele>100.222</ele>
        <time>2019-10-27T18:00:41Z</time>
      </trkpt>
      <trkpt lat="46.7465" lon="-0.17678">
        <ele>103.008</ele>
        <time>2019-10-27T18:00:21Z</time>
      </trkpt>
      <trkpt lat="46.74712" lon="-0.17665">
        <ele>102.521</ele>
        <time>2019-10-27T18:00:01Z</time>
      </trkpt>
      <trkpt lat="46.74766" lon="-0.17663">
        <ele>101.429</ele>
        <time>2019-10-27T17:59:41Z</time>
      </trkpt>
      <trkpt lat="46.74797" lon="-0.17699">
        <ele>102.966</ele>
        <time>2019-10-27T17:59:21Z</time>
      </trkpt>
      <trkpt lat="46.74874" lon="-0.17747">
        <ele>100.081</ele>
        <time>2019-10-27T17:59:01Z</time>
      </trkpt>
      <trkpt lat="46.74869" lon="-0.17708">
        <ele>99.752</ele>
        <time>2019-10-27T17:58:41Z</time>
      </trkpt>
      <trkpt lat="46.74846" lon="-0.17686">
        <ele>100.146</ele>
        <time>2019-10-27T17:58:21Z</time>
      </trkpt>
      <trkpt lat="46.74785" lon="-0.17609">
        <ele>95.964</ele>
        <time>2019-10-27T17:58:01Z</time>
      </trkpt>
      <trkpt lat="46.74778" lon="-0.17504">
        <ele>92.998</ele>
        <time>2019-10-27T17:57:41Z</time>
      </trkpt>
      <trkpt lat="46.74906" lon="-0.17189">
        <ele>105.245</ele>
        <time>2019-10-27T17:57:21Z</time>
      </trkpt>
      <trkpt lat="46.74913" lon="-0.17077">
        <ele>112.14</ele>
        <time>2019-10-27T17:57:01Z</time>
      </trkpt>
      <trkpt lat="46.74946" lon="-0.16976">
        <ele>114.934</ele>
        <time>2019-10-27T17:56:41Z</time>
      </trkpt>
      <trkpt lat="46.74946" lon="-0.16893">
        <ele>120.708</ele>
        <time>2019-10-27T17:56:21Z</time>
      </trkpt>
      <trkpt lat="46.74956" lon="-0.16764">
        <ele>126.926</ele>
        <time>2019-10-27T17:56:01Z</time>
      </trkpt>
      <trkpt lat="46.74929" lon="-0.16721">
        <ele>128.06</ele>
        <time>2019-10-27T17:55:41Z</time>
      </trkpt>
      <trkpt lat="46.74931" lon="-0.16635">
        <ele>131.686</ele>
        <time>2019-10-27T17:55:21Z</time>
      </trkpt>
      <trkpt lat="46.74935" lon="-0.16558">
        <ele>135.812</ele>
        <time>2019-10-27T17:55:01Z</time>
      </trkpt>
      <trkpt lat="46.7496" lon="-0.16453">
        <ele>141.283</ele>
        <time>2019-10-27T17:54:41Z</time>
      </trkpt>
      <trkpt lat="46.74978" lon="-0.16356">
        <ele>149.457</ele>
        <time>2019-10-27T17:54:21Z</time>
      </trkpt>
      <trkpt lat="46.75015" lon="-0.16251">
        <ele>154.455</ele>
        <time>2019-10-27T17:54:01Z</time>
      </trkpt>
      <trkpt lat="46.7501" lon="-0.16227">
        <ele>155.889</ele>
        <time>2019-10-27T17:53:41Z</time>
      </trkpt>
      <trkpt lat="46.75043" lon="-0.16212">
        <ele>156.066</ele>
        <time>2019-10-27T17:53:21Z</time>
      </trkpt>
      <trkpt lat="46.75082" lon="-0.16225">
        <ele>155.781</ele>
        <time>2019-10-27T17:53:01Z</time>
      </trkpt>
      <trkpt lat="46.75141" lon="-0.16307">
        <ele>154.115</ele>
        <time>2019-10-27T17:52:41Z</time>
      </trkpt>
      <trkpt lat="46.752" lon="-0.16322">
        <ele>153.308</ele>
        <time>2019-10-27T17:52:21Z</time>
      </trkpt>
      <trkpt lat="46.75262" lon="-0.16339">
        <ele>151.821</ele>
        <time>2019-10-27T17:52:01Z</time>
      </trkpt>
      <trkpt lat="46.75409" lon="-0.1645">
        <ele>146.165</ele>
        <time>2019-10-27T17:51:41Z</time>
      </trkpt>
      <trkpt lat="46.75441" lon="-0.16457">
        <ele>146.493</ele>
        <time>2019-10-27T17:51:21Z</time>
      </trkpt>
      <trkpt lat="46.75504" lon="-0.16472">
        <ele>143.848</ele>
        <time>2016-06-04T13:39:38Z</time>
      </trkpt>
      <trkpt lat="46.75448" lon="-0.16605">
        <ele>138.379</ele>
        <time>2016-06-04T13:39:18Z</time>
      </trkpt>
      <trkpt lat="46.75465" lon="-0.16654">
        <ele>135.723</ele>
        <time>2016-06-04T13:38:58Z</time>
      </trkpt>
      <trkpt lat="46.75459" lon="-0.16815">
        <ele>129.381</ele>
        <time>2016-06-04T13:38:38Z</time>
      </trkpt>
      <trkpt lat="46.75445" lon="-0.17013">
        <ele>124.555</ele>
        <time>2016-06-04T13:38:18Z</time>
      </trkpt>
      <trkpt lat="46.75442" lon="-0.17139">
        <ele>117.042</ele>
        <time>2016-06-04T13:37:58Z</time>
      </trkpt>
      <trkpt lat="46.75487" lon="-0.17206">
        <ele>110.497</ele>
        <time>2016-06-04T13:37:38Z</time>
      </trkpt>
      <trkpt lat="46.75523" lon="-0.17322">
        <ele>105.821</ele>
        <time>2016-06-04T13:37:18Z</time>
      </trkpt>
      <trkpt lat="46.75506" lon="-0.17429">
        <ele>102.708</ele>
        <time>2016-06-04T13:36:58Z</time>
      </trkpt>
      <trkpt lat="46.75548" lon="-0.17478">
        <ele>98.308</ele>
        <time>2016-06-04T13:36:38Z</time>
      </trkpt>
      <trkpt lat="46.75565" lon="-0.17523">
        <ele>96.753</ele>
        <time>2016-06-04T13:36:18Z</time>
      </trkpt>
      <trkpt lat="46.75551" lon="-0.17699">
        <ele>92.752</ele>
        <time>2016-06-04T13:35:58Z</time>
      </trkpt>
      <trkpt lat="46.75559" lon="-0.17824">
        <ele>96.267</ele>
        <time>2016-06-04T13:35:38Z</time>
      </trkpt>
      <trkpt lat="46.7567" lon="-0.17841">
        <ele>106.098</ele>
        <time>2016-06-04T13:35:18Z</time>
      </trkpt>
      <trkpt lat="46.75698" lon="-0.17871">
        <ele>107.282</ele>
        <time>2016-06-04T13:34:58Z</time>
      </trkpt>
      <trkpt lat="46.75731" lon="-0.17824">
        <ele>107.62</ele>
        <time>2016-06-04T13:34:38Z</time>
      </trkpt>
      <trkpt lat="46.75756" lon="-0.17764">
        <ele>109.064</ele>
        <time>2016-06-04T13:34:18Z</time>
      </trkpt>
      <trkpt lat="46.75881" lon="-0.17738">
        <ele>118.871</ele>
        <time>2016-06-04T13:33:58Z</time>
      </trkpt>
      <trkpt lat="46.7608" lon="-0.17751">
        <ele>116.956</ele>
        <time>2016-06-04T13:33:38Z</time>
      </trkpt>
      <trkpt lat="46.76111" lon="-0.17766">
        <ele>116.63</ele>
        <time>2016-06-04T13:33:18Z</time>
      </trkpt>
      <trkpt lat="46.76233" lon="-0.17762">
        <ele>119.208</ele>
        <time>2016-06-04T13:32:58Z</time>
      </trkpt>
      <trkpt lat="46.76336" lon="-0.17682">
        <ele>118.415</ele>
        <time>2016-06-04T13:32:38Z</time>
      </trkpt>
      <trkpt lat="46.76348" lon="-0.17708">
        <ele>118.505</ele>
        <time>2016-06-04T13:32:18Z</time>
      </trkpt>
      <trkpt lat="46.76483" lon="-0.17577">
        <ele>109.344</ele>
        <time>2016-06-04T13:31:58Z</time>
      </trkpt>
      <trkpt lat="46.76611" lon="-0.17377">
        <ele>106.08</ele>
        <time>2016-06-04T13:31:38Z</time>
      </trkpt>
      <trkpt lat="46.76482" lon="-0.17289">
        <ele>95.151</ele>
        <time>2016-06-04T13:31:18Z</time>
      </trkpt>
      <trkpt lat="46.76455" lon="-0.17191">
        <ele>90.865</ele>
        <time>2016-06-04T13:30:58Z</time>
      </trkpt>
      <trkpt lat="46.76499" lon="-0.1698">
        <ele>94.853</ele>
        <time>2016-06-04T13:30:38Z</time>
      </trkpt>
      <trkpt lat="46.76539" lon="-0.16933">
        <ele>93.417</ele>
        <time>2016-06-04T13:30:18Z</time>
      </trkpt>
      <trkpt lat="46.76573" lon="-0.16918">
        <ele>94.464</ele>
        <time>2016-06-04T13:29:58Z</time>
      </trkpt>
      <trkpt lat="46.76582" lon="-0.1686">
        <ele>87.089</ele>
        <time>2016-06-04T13:29:38Z</time>
      </trkpt>
      <trkpt lat="46.76607" lon="-0.16822">
        <ele>85.193</ele>
        <time>2016-06-04T13:29:18Z</time>
      </trkpt>
      <trkpt lat="46.76608" lon="-0.16762">
        <ele>90.608</ele>
        <time>2016-06-04T13:28:58Z</time>
      </trkpt>
      <trkpt lat="46.76611" lon="-0.16719">
        <ele>95.113</ele>
        <time>2016-06-04T13:28:38Z</time>
      </trkpt>
      <trkpt lat="46.76696" lon="-0.16506">
        <ele>101.785</ele>
        <time>2016-06-04T13:28:18Z</time>
      </trkpt>
      <trkpt lat="46.76758" lon="-0.16478">
        <ele>99.573</ele>
        <time>2016-06-04T13:27:58Z</time>
      </trkpt>
      <trkpt lat="46.7674" lon="-0.1642">
        <ele>107.885</ele>
        <time>2016-06-04T13:27:38Z</time>
      </trkpt>
      <trkpt lat="46.76782" lon="-0.16384">
        <ele>113.096</ele>
        <time>2016-06-04T13:27:18Z</time>
      </trkpt>
      <trkpt lat="46.76829" lon="-0.16384">
        <ele>113.55</ele>
        <time>2016-06-04T13:26:58Z</time>
      </trkpt>
      <trkpt lat="46.76871" lon="-0.16255">
        <ele>126.278</ele>
        <time>2016-06-04T13:26:38Z</time>
      </trkpt>
      <trkpt lat="46.76901" lon="-0.16268">
        <ele>125.172</ele>
        <time>2016-06-04T13:26:18Z</time>
      </trkpt>
      <trkpt lat="46.76951" lon="-0.16285">
        <ele>124.919</ele>
        <time>2016-06-04T13:25:58Z</time>
      </trkpt>
      <trkpt lat="46.77036" lon="-0.1633">
        <ele>121.594</ele>
        <time>2016-06-04T13:25:38Z</time>
      </trkpt>
      <trkpt lat="46.77106" lon="-0.16328">
        <ele>117.568</ele>
        <time>2016-06-04T13:25:18Z</time>
      </trkpt>
      <trkpt lat="46.77236" lon="-0.16369">
        <ele>111.908</ele>
        <time>2016-06-04T13:24:58Z</time>
      </trkpt>
      <trkpt lat="46.77277" lon="-0.16373">
        <ele>110.114</ele>
        <time>2016-06-04T13:24:38Z</time>
      </trkpt>
      <trkpt lat="46.77346" lon="-0.16403">
        <ele>109.304</ele>
        <time>2016-06-04T13:24:18Z</time>
      </trkpt>
      <trkpt lat="46.7738" lon="-0.16446">
        <ele>108.324</ele>
        <time>2016-06-04T13:23:58Z</time>
      </trkpt>
      <trkpt lat="46.77394" lon="-0.16489">
        <ele>107.638</ele>
        <time>2016-06-04T13:23:38Z</time>
      </trkpt>
      <trkpt lat="46.77553" lon="-0.16545">
        <ele>102.129</ele>
        <time>2016-06-04T13:23:18Z</time>
      </trkpt>
      <trkpt lat="46.7758" lon="-0.16584">
        <ele>99.583</ele>
        <time>2016-06-04T13:22:58Z</time>
      </trkpt>
      <trkpt lat="46.7766" lon="-0.16605">
        <ele>97.491</ele>
        <time>2016-06-04T13:22:38Z</time>
      </trkpt>
      <trkpt lat="46.77682" lon="-0.16659">
        <ele>94.935</ele>
        <time>2016-06-04T13:22:18Z</time>
      </trkpt>
      <trkpt lat="46.77731" lon="-0.16725">
        <ele>90.312</ele>
        <time>2016-06-04T13:21:58Z</time>
      </trkpt>
      <trkpt lat="46.77728" lon="-0.16779">
        <ele>84.547</ele>
        <time>2016-06-04T13:21:38Z</time>
      </trkpt>
      <trkpt lat="46.77829" lon="-0.16781">
        <ele>83.931</ele>
        <time>2016-06-04T13:21:18Z</time>
      </trkpt>
      <trkpt lat="46.77919" lon="-0.16792">
        <ele>83.408</ele>
        <time>2016-06-04T13:20:58Z</time>
      </trkpt>
      <trkpt lat="46.77975" lon="-0.16777">
        <ele>81.023</ele>
        <time>2016-06-04T13:20:38Z</time>
      </trkpt>
      <trkpt lat="46.78016" lon="-0.16764">
        <ele>81.503</ele>
        <time>2016-06-04T13:20:18Z</time>
      </trkpt>
      <trkpt lat="46.78067" lon="-0.16725">
        <ele>81.259</ele>
        <time>2016-06-04T13:19:58Z</time>
      </trkpt>
      <trkpt lat="46.78095" lon="-0.16719">
        <ele>80.661</ele>
        <time>2016-06-04T13:19:38Z</time>
      </trkpt>
      <trkpt lat="46.78131" lon="-0.1668">
        <ele>82.052</ele>
        <time>2016-06-04T13:19:18Z</time>
      </trkpt>
      <trkpt lat="46.782" lon="-0.16644">
        <ele>81.876</ele>
        <time>2016-06-04T13:18:58Z</time>
      </trkpt>
      <trkpt lat="46.78273" lon="-0.16588">
        <ele>80.394</ele>
        <time>2016-06-04T13:18:38Z</time>
      </trkpt>
      <trkpt lat="46.78319" lon="-0.16532">
        <ele>81.888</ele>
        <time>2016-06-04T13:18:18Z</time>
      </trkpt>
      <trkpt lat="46.78403" lon="-0.16491">
        <ele>79.535</ele>
        <time>2016-06-04T13:17:58Z</time>
      </trkpt>
      <trkpt lat="46.78497" lon="-0.16498">
        <ele>78.16</ele>
        <time>2016-06-04T13:17:38Z</time>
      </trkpt>
      <trkpt lat="46.78571" lon="-0.16485">
        <ele>80.064</ele>
        <time>2016-06-04T13:17:18Z</time>
      </trkpt>
      <trkpt lat="46.78592" lon="-0.16496">
        <ele>80.108</ele>
        <time>2016-06-04T13:16:58Z</time>
      </trkpt>
      <trkpt lat="46.7862" lon="-0.16506">
        <ele>80.317</ele>
        <time>2016-06-04T13:16:38Z</time>
      </trkpt>
      <trkpt lat="46.78674" lon="-0.16652">
        <ele>82.007</ele>
        <time>2016-06-04T13:16:18Z</time>
      </trkpt>
      <trkpt lat="46.78723" lon="-0.16678">
        <ele>82.084</ele>
        <time>2016-06-04T13:15:58Z</time>
      </trkpt>
      <trkpt lat="46.78808" lon="-0.16695">
        <ele>84.975</ele>
        <time>2016-06-04T13:15:38Z</time>
      </trkpt>
      <trkpt lat="46.78808" lon="-0.16695">
        <ele>84.966</ele>
        <time>2016-06-04T13:15:18Z</time>
      </trkpt>
      <trkpt lat="46.78906" lon="-0.16732">
        <ele>82.84</ele>
        <time>2016-06-04T13:14:58Z</time>
      </trkpt>
      <trkpt lat="46.78981" lon="-0.16626">
        <ele>81.448</ele>
        <time>2016-06-04T13:14:38Z</time>
      </trkpt>
      <trkpt lat="46.78996" lon="-0.16594">
        <ele>82.032</ele>
        <time>2016-06-04T13:14:18Z</time>
      </trkpt>
      <trkpt lat="46.78987" lon="-0.16536">
        <ele>83.389</ele>
        <time>2016-06-04T13:13:58Z</time>
      </trkpt>
      <trkpt lat="46.78977" lon="-0.16335">
        <ele>87.034</ele>
        <time>2016-06-04T13:13:38Z</time>
      </trkpt>
      <trkpt lat="46.78992" lon="-0.16322">
        <ele>87.898</ele>
        <time>2016-06-04T13:13:18Z</time>
      </trkpt>
      <trkpt lat="46.79033" lon="-0.16167">
        <ele>98.508</ele>
        <time>2016-06-04T13:12:58Z</time>
      </trkpt>
      <trkpt lat="46.79067" lon="-0.16045">
        <ele>108.017</ele>
        <time>2016-06-04T13:12:38Z</time>
      </trkpt>
      <trkpt lat="46.79122" lon="-0.16056">
        <ele>112.089</ele>
        <time>2016-06-04T13:12:18Z</time>
      </trkpt>
      <trkpt lat="46.79142" lon="-0.16084">
        <ele>113.128</ele>
        <time>2016-06-04T13:11:58Z</time>
      </trkpt>
      <trkpt lat="46.79234" lon="-0.16114">
        <ele>111.63</ele>
        <time>2016-06-04T13:11:38Z</time>
      </trkpt>
      <trkpt lat="46.79319" lon="-0.16101">
        <ele>109.311</ele>
        <time>2016-06-04T13:11:18Z</time>
      </trkpt>
      <trkpt lat="46.79366" lon="-0.16077">
        <ele>108.115</ele>
        <time>2016-06-04T13:10:58Z</time>
      </trkpt>
      <trkpt lat="46.79366" lon="-0.16077">
        <ele>108.123</ele>
        <time>2016-06-04T13:10:38Z</time>
      </trkpt>
      <trkpt lat="46.79474" lon="-0.16">
        <ele>104.077</ele>
        <time>2016-06-04T13:10:18Z</time>
      </trkpt>
      <trkpt lat="46.79509" lon="-0.15953">
        <ele>103.264</ele>
        <time>2016-06-04T13:09:58Z</time>
      </trkpt>
      <trkpt lat="46.79557" lon="-0.15867">
        <ele>100.939</ele>
        <time>2016-06-04T13:09:38Z</time>
      </trkpt>
      <trkpt lat="46.79637" lon="-0.15822">
        <ele>97.763</ele>
        <time>2016-06-04T13:09:18Z</time>
      </trkpt>
      <trkpt lat="46.79759" lon="-0.15777">
        <ele>91.408</ele>
        <time>2016-06-04T13:08:58Z</time>
      </trkpt>
      <trkpt lat="46.79764" lon="-0.15745">
        <ele>90.813</ele>
        <time>2016-06-04T13:08:38Z</time>
      </trkpt>
      <trkpt lat="46.79748" lon="-0.15539">
        <ele>91.085</ele>
        <time>2016-06-04T13:08:18Z</time>
      </trkpt>
      <trkpt lat="46.7977" lon="-0.15536">
        <ele>91.773</ele>
        <time>2016-06-04T13:07:58Z</time>
      </trkpt>
      <trkpt lat="46.79816" lon="-0.15536">
        <ele>90.328</ele>
        <time>2016-06-04T13:07:38Z</time>
      </trkpt>
      <trkpt lat="46.7985" lon="-0.15337">
        <ele>87.979</ele>
        <time>2016-06-04T13:07:18Z</time>
      </trkpt>
      <trkpt lat="46.7991" lon="-0.15223">
        <ele>87.033</ele>
        <time>2016-06-04T13:06:58Z</time>
      </trkpt>
      <trkpt lat="46.79939" lon="-0.15163">
        <ele>87.211</ele>
        <time>2016-06-04T13:06:38Z</time>
      </trkpt>
      <trkpt lat="46.80039" lon="-0.14976">
        <ele>81.275</ele>
        <time>2016-06-04T13:06:18Z</time>
      </trkpt>
      <trkpt lat="46.80042" lon="-0.14929">
        <ele>81.242</ele>
        <time>2016-06-04T13:05:58Z</time>
      </trkpt>
      <trkpt lat="46.80058" lon="-0.14888">
        <ele>79.827</ele>
        <time>2016-06-04T13:05:38Z</time>
      </trkpt>
      <trkpt lat="46.8013" lon="-0.14826">
        <ele>81.971</ele>
        <time>2016-06-04T13:05:18Z</time>
      </trkpt>
      <trkpt lat="46.80158" lon="-0.14936">
        <ele>77.708</ele>
        <time>2016-06-04T13:04:58Z</time>
      </trkpt>
      <trkpt lat="46.80135" lon="-0.15045">
        <ele>79.317</ele>
        <time>2016-06-04T13:04:38Z</time>
      </trkpt>
      <trkpt lat="46.80118" lon="-0.15309">
        <ele>81.907</ele>
        <time>2016-06-04T13:04:18Z</time>
      </trkpt>
      <trkpt lat="46.80148" lon="-0.15513">
        <ele>83.955</ele>
        <time>2016-06-04T13:03:58Z</time>
      </trkpt>
      <trkpt lat="46.80154" lon="-0.15691">
        <ele>81.712</ele>
        <time>2016-06-04T13:03:38Z</time>
      </trkpt>
      <trkpt lat="46.80048" lon="-0.15704">
        <ele>77.233</ele>
        <time>2016-06-04T13:03:18Z</time>
      </trkpt>
      <trkpt lat="46.80042" lon="-0.15717">
        <ele>77.417</ele>
        <time>2016-06-04T13:02:58Z</time>
      </trkpt>
      <trkpt lat="46.8008" lon="-0.15807">
        <ele>79.775</ele>
        <time>2016-06-04T13:02:38Z</time>
      </trkpt>
      <trkpt lat="46.80101" lon="-0.15822">
        <ele>79.239</ele>
        <time>2016-06-04T13:02:18Z</time>
      </trkpt>
      <trkpt lat="46.80115" lon="-0.15914">
        <ele>80.716</ele>
        <time>2016-06-04T13:01:58Z</time>
      </trkpt>
      <trkpt lat="46.80126" lon="-0.15918">
        <ele>82.781</ele>
        <time>2016-06-04T13:01:38Z</time>
      </trkpt>
      <trkpt lat="46.80092" lon="-0.16013">
        <ele>83.745</ele>
        <time>2016-06-04T13:01:18Z</time>
      </trkpt>
      <trkpt lat="46.80098" lon="-0.16101">
        <ele>87.508</ele>
        <time>2016-06-04T13:00:58Z</time>
      </trkpt>
      <trkpt lat="46.80146" lon="-0.16073">
        <ele>92.021</ele>
        <time>2016-06-04T13:00:38Z</time>
      </trkpt>
      <trkpt lat="46.80164" lon="-0.15985">
        <ele>91.365</ele>
        <time>2016-06-04T13:00:18Z</time>
      </trkpt>
      <trkpt lat="46.80198" lon="-0.15951">
        <ele>92.793</ele>
        <time>2016-06-04T12:59:58Z</time>
      </trkpt>
      <trkpt lat="46.80273" lon="-0.15908">
        <ele>103.276</ele>
        <time>2016-06-04T12:59:38Z</time>
      </trkpt>
      <trkpt lat="46.80306" lon="-0.15832">
        <ele>107.127</ele>
        <time>2016-06-04T12:59:18Z</time>
      </trkpt>
      <trkpt lat="46.80314" lon="-0.15766">
        <ele>109.631</ele>
        <time>2016-06-04T12:58:58Z</time>
      </trkpt>
      <trkpt lat="46.80356" lon="-0.15687">
        <ele>112.359</ele>
        <time>2016-06-04T12:58:38Z</time>
      </trkpt>
      <trkpt lat="46.80402" lon="-0.15611">
        <ele>109.053</ele>
        <time>2016-06-04T12:58:18Z</time>
      </trkpt>
      <trkpt lat="46.80447" lon="-0.15584">
        <ele>108.16</ele>
        <time>2016-06-04T12:57:58Z</time>
      </trkpt>
      <trkpt lat="46.8065" lon="-0.15506">
        <ele>104.745</ele>
        <time>2016-06-04T12:57:38Z</time>
      </trkpt>
      <trkpt lat="46.80699" lon="-0.15474">
        <ele>103.169</ele>
        <time>2016-06-04T12:57:18Z</time>
      </trkpt>
      <trkpt lat="46.80701" lon="-0.15446">
        <ele>101.808</ele>
        <time>2016-06-04T12:56:58Z</time>
      </trkpt>
      <trkpt lat="46.80826" lon="-0.15292">
        <ele>88.418</ele>
        <time>2016-06-04T12:56:38Z</time>
      </trkpt>
      <trkpt lat="46.80938" lon="-0.15193">
        <ele>79.617</ele>
        <time>2016-06-04T12:56:18Z</time>
      </trkpt>
      <trkpt lat="46.81013" lon="-0.1518">
        <ele>80.636</ele>
        <time>2016-06-04T12:55:58Z</time>
      </trkpt>
      <trkpt lat="46.81089" lon="-0.15127">
        <ele>77.477</ele>
        <time>2016-06-04T12:55:38Z</time>
      </trkpt>
      <trkpt lat="46.81111" lon="-0.15088">
        <ele>75.398</ele>
        <time>2016-06-04T12:55:18Z</time>
      </trkpt>
      <trkpt lat="46.81195" lon="-0.14996">
        <ele>77.832</ele>
        <time>2016-06-04T12:54:58Z</time>
      </trkpt>
      <trkpt lat="46.81239" lon="-0.14938">
        <ele>74.88</ele>
        <time>2016-06-04T12:54:38Z</time>
      </trkpt>
      <trkpt lat="46.81298" lon="-0.14888">
        <ele>74.314</ele>
        <time>2016-06-04T12:54:18Z</time>
      </trkpt>
      <trkpt lat="46.81434" lon="-0.14783">
        <ele>75.541</ele>
        <time>2016-06-04T12:53:58Z</time>
      </trkpt>
      <trkpt lat="46.81543" lon="-0.14749">
        <ele>76.086</ele>
        <time>2016-06-04T12:53:38Z</time>
      </trkpt>
      <trkpt lat="46.81667" lon="-0.1472">
        <ele>79.86</ele>
        <time>2016-06-04T12:53:18Z</time>
      </trkpt>
      <trkpt lat="46.81778" lon="-0.14654">
        <ele>78.108</ele>
        <time>2016-06-04T12:52:58Z</time>
      </trkpt>
      <trkpt lat="46.81843" lon="-0.14639">
        <ele>76.709</ele>
        <time>2016-06-04T12:52:38Z</time>
      </trkpt>
      <trkpt lat="46.8192" lon="-0.14657">
        <ele>79.181</ele>
        <time>2016-06-04T12:52:18Z</time>
      </trkpt>
      <trkpt lat="46.81941" lon="-0.14487">
        <ele>82.241</ele>
        <time>2016-06-04T12:51:58Z</time>
      </trkpt>
      <trkpt lat="46.81938" lon="-0.14427">
        <ele>84.057</ele>
        <time>2016-06-04T12:51:38Z</time>
      </trkpt>
      <trkpt lat="46.81919" lon="-0.14382">
        <ele>83.238</ele>
        <time>2016-06-04T12:51:18Z</time>
      </trkpt>
      <trkpt lat="46.81947" lon="-0.14324">
        <ele>85.772</ele>
        <time>2016-06-04T12:50:58Z</time>
      </trkpt>
      <trkpt lat="46.81954" lon="-0.14275">
        <ele>88.21</ele>
        <time>2016-06-04T12:50:38Z</time>
      </trkpt>
      <trkpt lat="46.82004" lon="-0.14195">
        <ele>98.544</ele>
        <time>2016-06-04T12:50:18Z</time>
      </trkpt>
      <trkpt lat="46.82025" lon="-0.14127">
        <ele>102.981</ele>
        <time>2016-06-04T12:49:58Z</time>
      </trkpt>
      <trkpt lat="46.82139" lon="-0.13938">
        <ele>115.276</ele>
        <time>2016-06-04T12:49:38Z</time>
      </trkpt>
      <trkpt lat="46.8233" lon="-0.13843">
        <ele>118.46</ele>
        <time>2016-06-04T12:49:18Z</time>
      </trkpt>
      <trkpt lat="46.82337" lon="-0.13788">
        <ele>120.508</ele>
        <time>2016-06-04T12:48:58Z</time>
      </trkpt>
      <trkpt lat="46.82423" lon="-0.1362">
        <ele>119.014</ele>
        <time>2016-06-04T12:48:38Z</time>
      </trkpt>
      <trkpt lat="46.82465" lon="-0.13616">
        <ele>117.822</ele>
        <time>2020-12-24T22:03:55Z</time>
      </trkpt>
      <trkpt lat="46.82511" lon="-0.13691">
        <ele>117.042</ele>
        <time>2020-12-24T22:03:35Z</time>
      </trkpt>
      <trkpt lat="46.82534" lon="-0.13711">
        <ele>115.448</ele>
        <time>2020-12-24T22:03:15Z</time>
      </trkpt>
      <trkpt lat="46.82496" lon="-0.13876">
        <ele>116.189</ele>
        <time>2020-12-24T22:02:55Z</time>
      </trkpt>
      <trkpt lat="46.8255" lon="-0.13903">
        <ele>108.553</ele>
        <time>2020-12-24T22:02:35Z</time>
      </trkpt>
      <trkpt lat="46.82631" lon="-0.13805">
        <ele>105.271</ele>
        <time>2020-12-24T22:02:15Z</time>
      </trkpt>
      <trkpt lat="46.82648" lon="-0.13814">
        <ele>103.385</ele>
        <time>2020-12-24T22:01:55Z</time>
      </trkpt>
      <trkpt lat="46.82649" lon="-0.13762">
        <ele>105.292</ele>
        <time>2020-12-24T22:01:35Z</time>
      </trkpt>
      <trkpt lat="46.82671" lon="-0.13706">
        <ele>105.397</ele>
        <time>2020-12-24T22:01:15Z</time>
      </trkpt>
      <trkpt lat="46.8268" lon="-0.13618">
        <ele>106.561</ele>
        <time>2020-12-24T22:00:55Z</time>
      </trkpt>
      <trkpt lat="46.82689" lon="-0.13704">
        <ele>106.208</ele>
        <time>2020-12-24T22:00:35Z</time>
      </trkpt>
      <trkpt lat="46.82699" lon="-0.13742">
        <ele>106.417</ele>
        <time>2020-12-24T22:00:15Z</time>
      </trkpt>
      <trkpt lat="46.82696" lon="-0.13823">
        <ele>104.452</ele>
        <time>2020-12-24T21:59:55Z</time>
      </trkpt>
      <trkpt lat="46.82659" lon="-0.13841">
        <ele>101.458</ele>
        <time>2020-12-24T21:59:35Z</time>
      </trkpt>
      <trkpt lat="46.82634" lon="-0.13914">
        <ele>100.114</ele>
        <time>2020-12-24T21:59:15Z</time>
      </trkpt>
      <trkpt lat="46.8268" lon="-0.13985">
        <ele>100.125</ele>
        <time>2020-12-24T21:58:55Z</time>
      </trkpt>
      <trkpt lat="46.82714" lon="-0.13978">
        <ele>105.329</ele>
        <time>2020-12-24T21:58:35Z</time>
      </trkpt>
      <trkpt lat="46.82714" lon="-0.14014">
        <ele>105.597</ele>
        <time>2020-12-24T21:58:15Z</time>
      </trkpt>
      <trkpt lat="46.82759" lon="-0.14032">
        <ele>111.111</ele>
        <time>2020-12-24T21:57:55Z</time>
      </trkpt>
      <trkpt lat="46.82757" lon="-0.14053">
        <ele>111.148</ele>
        <time>2020-12-24T21:57:35Z</time>
      </trkpt>
      <trkpt lat="46.82714" lon="-0.14049">
        <ele>105.873</ele>
        <time>2020-12-24T21:57:15Z</time>
      </trkpt>
      <trkpt lat="46.8271" lon="-0.14088">
        <ele>105.857</ele>
        <time>2020-12-24T21:56:55Z</time>
      </trkpt>
      <trkpt lat="46.82687" lon="-0.14157">
        <ele>104.808</ele>
        <time>2020-12-24T21:56:35Z</time>
      </trkpt>
      <trkpt lat="46.82629" lon="-0.14261">
        <ele>102.303</ele>
        <time>2020-12-24T21:56:15Z</time>
      </trkpt>
      <trkpt lat="46.82644" lon="-0.14286">
        <ele>104.821</ele>
        <time>2020-12-24T21:55:55Z</time>
      </trkpt>
      <trkpt lat="46.82706" lon="-0.14287">
        <ele>109.111</ele>
        <time>2020-12-24T21:55:35Z</time>
      </trkpt>
      <trkpt lat="46.82718" lon="-0.14402">
        <ele>108.07</ele>
        <time>2016-06-04T12:40:58Z</time>
      </trkpt>
      <trkpt lat="46.82993" lon="-0.14375">
        <ele>109.141</ele>
        <time>2016-06-04T12:40:38Z</time>
      </trkpt>
      <trkpt lat="46.83122" lon="-0.1461">
        <ele>102.645</ele>
        <time>2016-06-04T12:40:18Z</time>
      </trkpt>
      <trkpt lat="46.83201" lon="-0.14692">
        <ele>97.283</ele>
        <time>2016-06-04T12:39:58Z</time>
      </trkpt>
      <trkpt lat="46.83325" lon="-0.1481">
        <ele>97.517</ele>
        <time>2016-06-04T12:39:38Z</time>
      </trkpt>
      <trkpt lat="46.83341" lon="-0.14879">
        <ele>93.784</ele>
        <time>2016-06-04T12:39:18Z</time>
      </trkpt>
      <trkpt lat="46.83428" lon="-0.15027">
        <ele>88.979</ele>
        <time>2016-06-04T12:38:58Z</time>
      </trkpt>
      <trkpt lat="46.83448" lon="-0.1504">
        <ele>88.673</ele>
        <time>2016-06-04T12:38:18Z</time>
      </trkpt>
      <trkpt lat="46.83507" lon="-0.1513">
        <ele>76.808</ele>
        <time>2016-06-04T12:37:58Z</time>
      </trkpt>
      <trkpt lat="46.8352" lon="-0.15209">
        <ele>80.019</ele>
        <time>2016-06-04T12:37:38Z</time>
      </trkpt>
      <trkpt lat="46.83514" lon="-0.15246">
        <ele>81.19</ele>
        <time>2016-06-04T12:37:18Z</time>
      </trkpt>
      <trkpt lat="46.83538" lon="-0.15293">
        <ele>75.276</ele>
        <time>2016-06-04T12:36:58Z</time>
      </trkpt>
      <trkpt lat="46.83552" lon="-0.15325">
        <ele>73.332</ele>
        <time>2016-06-04T12:36:18Z</time>
      </trkpt>
      <trkpt lat="46.8358" lon="-0.15331">
        <ele>72.193</ele>
        <time>2016-06-04T12:35:58Z</time>
      </trkpt>
      <trkpt lat="46.83617" lon="-0.15312">
        <ele>72.897</ele>
        <time>2016-06-04T12:35:38Z</time>
      </trkpt>
      <trkpt lat="46.83627" lon="-0.15274">
        <ele>75.825</ele>
        <time>2016-06-04T12:34:58Z</time>
      </trkpt>
      <trkpt lat="46.8372" lon="-0.15306">
        <ele>85.929</ele>
        <time>2016-06-04T12:34:38Z</time>
      </trkpt>
      <trkpt lat="46.83692" lon="-0.15377">
        <ele>83.656</ele>
        <time>2016-06-04T12:34:18Z</time>
      </trkpt>
      <trkpt lat="46.8373" lon="-0.1546">
        <ele>91.171</ele>
        <time>2016-06-04T12:33:58Z</time>
      </trkpt>
      <trkpt lat="46.83783" lon="-0.15501">
        <ele>90.555</ele>
        <time>2016-06-04T12:33:38Z</time>
      </trkpt>
      <trkpt lat="46.83892" lon="-0.1585">
        <ele>88.008</ele>
        <time>2016-06-04T12:33:18Z</time>
      </trkpt>
      <trkpt lat="46.84005" lon="-0.15862">
        <ele>89.022</ele>
        <time>2016-06-04T12:32:58Z</time>
      </trkpt>
      <trkpt lat="46.8406" lon="-0.15885">
        <ele>87.457</ele>
        <time>2016-06-04T12:32:38Z</time>
      </trkpt>
      <trkpt lat="46.84117" lon="-0.15898">
        <ele>82.594</ele>
        <time>2016-06-04T12:32:18Z</time>
      </trkpt>
      <trkpt lat="46.84155" lon="-0.15932">
        <ele>81.798</ele>
        <time>2016-06-04T12:31:58Z</time>
      </trkpt>
      <trkpt lat="46.84236" lon="-0.15962">
        <ele>78.869</ele>
        <time>2016-06-04T12:31:38Z</time>
      </trkpt>
      <trkpt lat="46.84351" lon="-0.16029">
        <ele>73.443</ele>
        <time>2016-06-04T12:31:18Z</time>
      </trkpt>
      <trkpt lat="46.84442" lon="-0.16164">
        <ele>80.881</ele>
        <time>2016-06-04T12:30:58Z</time>
      </trkpt>
      <trkpt lat="46.84486" lon="-0.16192">
        <ele>83.685</ele>
        <time>2016-06-04T12:30:38Z</time>
      </trkpt>
      <trkpt lat="46.84561" lon="-0.16168">
        <ele>75.912</ele>
        <time>2016-06-04T12:30:18Z</time>
      </trkpt>
      <trkpt lat="46.84594" lon="-0.1613">
        <ele>73.957</ele>
        <time>2016-06-04T12:29:58Z</time>
      </trkpt>
      <trkpt lat="46.84697" lon="-0.16046">
        <ele>79.741</ele>
        <time>2016-06-04T12:29:38Z</time>
      </trkpt>
      <trkpt lat="46.84869" lon="-0.15902">
        <ele>84.408</ele>
        <time>2016-06-04T12:29:18Z</time>
      </trkpt>
      <trkpt lat="46.84958" lon="-0.1581">
        <ele>84.517</ele>
        <time>2016-06-04T12:24:18Z</time>
      </trkpt>
      <trkpt lat="46.84986" lon="-0.15797">
        <ele>86.707</ele>
        <time>2016-06-04T12:23:58Z</time>
      </trkpt>
      <trkpt lat="46.85093" lon="-0.15776">
        <ele>92.755</ele>
        <time>2016-06-04T12:23:38Z</time>
      </trkpt>
      <trkpt lat="46.85134" lon="-0.15735">
        <ele>97.812</ele>
        <time>2016-06-04T12:23:18Z</time>
      </trkpt>
      <trkpt lat="46.8518" lon="-0.15711">
        <ele>99.353</ele>
        <time>2016-06-04T12:22:58Z</time>
      </trkpt>
      <trkpt lat="46.85217" lon="-0.1572">
        <ele>101.617</ele>
        <time>2016-06-04T12:22:38Z</time>
      </trkpt>
      <trkpt lat="46.85293" lon="-0.15932">
        <ele>107.815</ele>
        <time>2016-06-04T12:22:18Z</time>
      </trkpt>
      <trkpt lat="46.8535" lon="-0.16016">
        <ele>109.099</ele>
        <time>2016-06-04T12:21:38Z</time>
      </trkpt>
      <trkpt lat="46.85421" lon="-0.16108">
        <ele>110.276</ele>
        <time>2016-06-04T12:21:18Z</time>
      </trkpt>
      <trkpt lat="46.85444" lon="-0.162">
        <ele>110.081</ele>
        <time>2016-06-04T12:20:58Z</time>
      </trkpt>
      <trkpt lat="46.85542" lon="-0.16288">
        <ele>104.365</ele>
        <time>2016-06-04T12:20:38Z</time>
      </trkpt>
      <trkpt lat="46.85576" lon="-0.16188">
        <ele>105.508</ele>
        <time>2016-06-04T12:19:58Z</time>
      </trkpt>
      <trkpt lat="46.85626" lon="-0.16085">
        <ele>100.426</ele>
        <time>2016-06-04T12:19:38Z</time>
      </trkpt>
      <trkpt lat="46.8567" lon="-0.16089">
        <ele>94.115</ele>
        <time>2016-06-04T12:19:18Z</time>
      </trkpt>
      <trkpt lat="46.85773" lon="-0.15679">
        <ele>85.398</ele>
        <time>2016-06-04T12:18:58Z</time>
      </trkpt>
      <trkpt lat="46.85886" lon="-0.15683">
        <ele>79.841</ele>
        <time>2016-06-04T12:18:38Z</time>
      </trkpt>
      <trkpt lat="46.85944" lon="-0.15632">
        <ele>89.272</ele>
        <time>2016-06-04T12:18:18Z</time>
      </trkpt>
      <trkpt lat="46.85993" lon="-0.15486">
        <ele>87.446</ele>
        <time>2016-06-04T12:17:58Z</time>
      </trkpt>
      <trkpt lat="46.85999" lon="-0.15557">
        <ele>94.754</ele>
        <time>2016-06-04T12:17:38Z</time>
      </trkpt>
      <trkpt lat="46.86009" lon="-0.1555">
        <ele>96.218</ele>
        <time>2016-06-04T12:17:18Z</time>
      </trkpt>
      <trkpt lat="46.86046" lon="-0.15533">
        <ele>100.355</ele>
        <time>2016-06-04T12:16:58Z</time>
      </trkpt>
      <trkpt lat="46.86073" lon="-0.15449">
        <ele>99.37</ele>
        <time>2016-06-04T12:16:38Z</time>
      </trkpt>
      <trkpt lat="46.86093" lon="-0.15419">
        <ele>100.094</ele>
        <time>2016-06-04T12:16:18Z</time>
      </trkpt>
      <trkpt lat="46.86122" lon="-0.15309">
        <ele>99.608</ele>
        <time>2016-06-04T12:15:58Z</time>
      </trkpt>
      <trkpt lat="46.86166" lon="-0.1531">
        <ele>100.026</ele>
        <time>2016-06-04T12:15:18Z</time>
      </trkpt>
      <trkpt lat="46.86247" lon="-0.15295">
        <ele>99.624</ele>
        <time>2016-06-04T12:14:58Z</time>
      </trkpt>
      <trkpt lat="46.86346" lon="-0.15325">
        <ele>99.388</ele>
        <time>2016-06-04T12:14:38Z</time>
      </trkpt>
      <trkpt lat="46.86401" lon="-0.15327">
        <ele>99.961</ele>
        <time>2016-06-04T12:14:18Z</time>
      </trkpt>
      <trkpt lat="46.86483" lon="-0.15368">
        <ele>103.092</ele>
        <time>2016-06-04T12:13:58Z</time>
      </trkpt>
      <trkpt lat="46.86593" lon="-0.15364">
        <ele>103.426</ele>
        <time>2016-06-04T12:13:38Z</time>
      </trkpt>
      <trkpt lat="46.86701" lon="-0.15452">
        <ele>105.624</ele>
        <time>2016-06-04T12:13:18Z</time>
      </trkpt>
      <trkpt lat="46.86781" lon="-0.15559">
        <ele>104.848</ele>
        <time>2016-06-04T12:12:58Z</time>
      </trkpt>
      <trkpt lat="46.86942" lon="-0.15645">
        <ele>100.025</ele>
        <time>2016-06-04T12:12:38Z</time>
      </trkpt>
      <trkpt lat="46.8721" lon="-0.15514">
        <ele>99.23</ele>
        <time>2016-06-04T12:12:18Z</time>
      </trkpt>
      <trkpt lat="46.87362" lon="-0.15655">
        <ele>98.014</ele>
        <time>2016-06-04T12:11:58Z</time>
      </trkpt>
      <trkpt lat="46.87502" lon="-0.15769">
        <ele>84.308</ele>
        <time>2016-06-04T12:11:38Z</time>
      </trkpt>
      <trkpt lat="46.87611" lon="-0.15812">
        <ele>72.026</ele>
        <time>2016-06-04T12:11:18Z</time>
      </trkpt>
      <trkpt lat="46.87609" lon="-0.159">
        <ele>71.124</ele>
        <time>2016-06-04T12:10:58Z</time>
      </trkpt>
      <trkpt lat="46.87655" lon="-0.15939">
        <ele>67.888</ele>
        <time>2016-06-04T12:10:38Z</time>
      </trkpt>
      <trkpt lat="46.87689" lon="-0.15889">
        <ele>66.295</ele>
        <time>2016-06-04T12:10:18Z</time>
      </trkpt>
      <trkpt lat="46.87709" lon="-0.15896">
        <ele>65.926</ele>
        <time>2016-06-04T12:09:58Z</time>
      </trkpt>
      <trkpt lat="46.8774" lon="-0.15889">
        <ele>65.44</ele>
        <time>2016-06-04T12:09:38Z</time>
      </trkpt>
      <trkpt lat="46.87802" lon="-0.159">
        <ele>64.088</ele>
        <time>2016-06-04T12:09:18Z</time>
      </trkpt>
      <trkpt lat="46.8785" lon="-0.15889">
        <ele>64.112</ele>
        <time>2016-06-04T12:08:58Z</time>
      </trkpt>
      <trkpt lat="46.87904" lon="-0.159">
        <ele>68.179</ele>
        <time>2016-06-04T12:08:38Z</time>
      </trkpt>
      <trkpt lat="46.87931" lon="-0.15876">
        <ele>64.754</ele>
        <time>2016-06-04T12:08:18Z</time>
      </trkpt>
      <trkpt lat="46.87947" lon="-0.15816">
        <ele>62.238</ele>
        <time>2016-06-04T12:07:58Z</time>
      </trkpt>
      <trkpt lat="46.87929" lon="-0.15705">
        <ele>60.808</ele>
        <time>2016-06-04T12:07:38Z</time>
      </trkpt>
      <trkpt lat="46.87942" lon="-0.15658">
        <ele>62.617</ele>
        <time>2016-06-04T12:07:18Z</time>
      </trkpt>
      <trkpt lat="46.87982" lon="-0.15591">
        <ele>63.889</ele>
        <time>2016-06-04T12:06:58Z</time>
      </trkpt>
      <trkpt lat="46.87989" lon="-0.15591">
        <ele>63.528</ele>
        <time>2016-06-04T12:06:38Z</time>
      </trkpt>
      <trkpt lat="46.8814" lon="-0.15486">
        <ele>63.055</ele>
        <time>2016-06-04T12:06:18Z</time>
      </trkpt>
      <trkpt lat="46.88192" lon="-0.15387">
        <ele>65.096</ele>
        <time>2016-06-04T12:05:58Z</time>
      </trkpt>
      <trkpt lat="46.88234" lon="-0.15216">
        <ele>64.01</ele>
        <time>2016-06-04T12:05:38Z</time>
      </trkpt>
      <trkpt lat="46.88218" lon="-0.14904">
        <ele>61.178</ele>
        <time>2016-06-04T12:05:18Z</time>
      </trkpt>
      <trkpt lat="46.88243" lon="-0.14874">
        <ele>63.282</ele>
        <time>2016-06-04T12:04:58Z</time>
      </trkpt>
      <trkpt lat="46.88215" lon="-0.14675">
        <ele>64.819</ele>
        <time>2016-06-04T12:04:38Z</time>
      </trkpt>
      <trkpt lat="46.88208" lon="-0.14542">
        <ele>63.934</ele>
        <time>2016-06-04T12:03:18Z</time>
      </trkpt>
      <trkpt lat="46.88221" lon="-0.1437">
        <ele>61.478</ele>
        <time>2016-06-04T12:02:58Z</time>
      </trkpt>
      <trkpt lat="46.88245" lon="-0.14239">
        <ele>62.708</ele>
        <time>2016-06-04T12:02:38Z</time>
      </trkpt>
      <trkpt lat="46.88287" lon="-0.14151">
        <ele>63.208</ele>
        <time>2016-06-04T12:02:18Z</time>
      </trkpt>
      <trkpt lat="46.88324" lon="-0.14074">
        <ele>63.862</ele>
        <time>2016-06-04T12:01:58Z</time>
      </trkpt>
      <trkpt lat="46.88396" lon="-0.1401">
        <ele>62.622</ele>
        <time>2016-06-04T12:01:38Z</time>
      </trkpt>
      <trkpt lat="46.88421" lon="-0.14111">
        <ele>67.159</ele>
        <time>2016-06-04T12:01:18Z</time>
      </trkpt>
      <trkpt lat="46.88467" lon="-0.14063">
        <ele>68.92</ele>
        <time>2016-06-04T12:00:58Z</time>
      </trkpt>
      <trkpt lat="46.88484" lon="-0.14072">
        <ele>69.814</ele>
        <time>2016-06-04T12:00:38Z</time>
      </trkpt>
      <trkpt lat="46.88538" lon="-0.14053">
        <ele>69.492</ele>
        <time>2016-06-04T12:00:18Z</time>
      </trkpt>
      <trkpt lat="46.88579" lon="-0.1407">
        <ele>68.796</ele>
        <time>2016-06-04T11:59:58Z</time>
      </trkpt>
      <trkpt lat="46.88605" lon="-0.1402">
        <ele>63.763</ele>
        <time>2016-06-04T11:59:38Z</time>
      </trkpt>
      <trkpt lat="46.88607" lon="-0.13915">
        <ele>61.218</ele>
        <time>2016-06-04T11:59:18Z</time>
      </trkpt>
      <trkpt lat="46.88709" lon="-0.13932">
        <ele>62.742</ele>
        <time>2016-06-04T11:58:58Z</time>
      </trkpt>
      <trkpt lat="46.88899" lon="-0.1398">
        <ele>61.508</ele>
        <time>2016-06-04T11:58:38Z</time>
      </trkpt>
      <trkpt lat="46.89033" lon="-0.14014">
        <ele>62.024</ele>
        <time>2016-06-04T11:58:18Z</time>
      </trkpt>
      <trkpt lat="46.89116" lon="-0.14048">
        <ele>63.904</ele>
        <time>2016-06-04T11:57:58Z</time>
      </trkpt>
      <trkpt lat="46.89116" lon="-0.14095">
        <ele>68.869</ele>
        <time>2016-06-04T11:57:38Z</time>
      </trkpt>
      <trkpt lat="46.89466" lon="-0.14098">
        <ele>68.527</ele>
        <time>2016-06-04T11:57:18Z</time>
      </trkpt>
      <trkpt lat="46.89569" lon="-0.14063">
        <ele>64.228</ele>
        <time>2016-06-04T11:56:58Z</time>
      </trkpt>
      <trkpt lat="46.89645" lon="-0.14012">
        <ele>62.462</ele>
        <time>2016-06-04T11:56:38Z</time>
      </trkpt>
      <trkpt lat="46.89717" lon="-0.1402">
        <ele>61.95</ele>
        <time>2016-06-04T11:56:18Z</time>
      </trkpt>
      <trkpt lat="46.89837" lon="-0.1401">
        <ele>62.034</ele>
        <time>2016-06-04T11:55:58Z</time>
      </trkpt>
      <trkpt lat="46.90047" lon="-0.14027">
        <ele>61.091</ele>
        <time>2016-06-04T11:55:38Z</time>
      </trkpt>
      <trkpt lat="46.90155" lon="-0.14008">
        <ele>61.336</ele>
        <time>2016-06-04T11:55:18Z</time>
      </trkpt>
      <trkpt lat="46.90312" lon="-0.14053">
        <ele>61.81</ele>
        <time>2016-06-04T11:54:58Z</time>
      </trkpt>
      <trkpt lat="46.90377" lon="-0.14106">
        <ele>60.908</ele>
        <time>2016-06-04T11:54:38Z</time>
      </trkpt>
      <trkpt lat="46.90409" lon="-0.14181">
        <ele>61.709</ele>
        <time>2016-06-04T11:54:18Z</time>
      </trkpt>
      <trkpt lat="46.90489" lon="-0.14254">
        <ele>61.081</ele>
        <time>2016-06-04T11:53:58Z</time>
      </trkpt>
      <trkpt lat="46.90882" lon="-0.14546">
        <ele>62.941</ele>
        <time>2016-06-04T11:53:38Z</time>
      </trkpt>
      <trkpt lat="46.90907" lon="-0.14587">
        <ele>66.55</ele>
        <time>2016-06-04T11:53:18Z</time>
      </trkpt>
      <trkpt lat="46.9101" lon="-0.14632">
        <ele>73.031</ele>
        <time>2016-06-04T11:52:58Z</time>
      </trkpt>
      <trkpt lat="46.91178" lon="-0.14645">
        <ele>68.285</ele>
        <time>2016-06-04T11:52:38Z</time>
      </trkpt>
      <trkpt lat="46.91236" lon="-0.14638">
        <ele>67.973</ele>
        <time>2016-06-04T11:52:18Z</time>
      </trkpt>
      <trkpt lat="46.9131" lon="-0.14595">
        <ele>69.977</ele>
        <time>2016-06-04T11:51:58Z</time>
      </trkpt>
      <trkpt lat="46.91397" lon="-0.14499">
        <ele>71.014</ele>
        <time>2016-06-04T11:51:38Z</time>
      </trkpt>
      <trkpt lat="46.91454" lon="-0.14394">
        <ele>69.879</ele>
        <time>2016-06-04T11:51:18Z</time>
      </trkpt>
      <trkpt lat="46.91562" lon="-0.1416">
        <ele>65.283</ele>
        <time>2016-06-04T11:50:58Z</time>
      </trkpt>
      <trkpt lat="46.91681" lon="-0.13971">
        <ele>60.508</ele>
        <time>2016-06-04T11:50:38Z</time>
      </trkpt>
      <trkpt lat="46.91697" lon="-0.13909">
        <ele>61.925</ele>
        <time>2016-06-04T11:50:18Z</time>
      </trkpt>
      <trkpt lat="46.91716" lon="-0.13874">
        <ele>64.505</ele>
        <time>2016-06-04T11:49:58Z</time>
      </trkpt>
      <trkpt lat="46.91819" lon="-0.13844">
        <ele>62.779</ele>
        <time>2016-06-04T11:49:38Z</time>
      </trkpt>
      <trkpt lat="46.91847" lon="-0.13829">
        <ele>61.54</ele>
        <time>2016-06-04T11:49:18Z</time>
      </trkpt>
      <trkpt lat="46.91933" lon="-0.13752">
        <ele>61.041</ele>
        <time>2016-06-04T11:48:58Z</time>
      </trkpt>
      <trkpt lat="46.91944" lon="-0.13771">
        <ele>61.025</ele>
        <time>2016-06-04T11:48:38Z</time>
      </trkpt>
      <trkpt lat="46.91939" lon="-0.13853">
        <ele>65.863</ele>
        <time>2016-06-04T11:48:18Z</time>
      </trkpt>
      <trkpt lat="46.91955" lon="-0.13917">
        <ele>68.417</ele>
        <time>2016-06-04T11:47:58Z</time>
      </trkpt>
      <trkpt lat="46.91996" lon="-0.13965">
        <ele>67.854</ele>
        <time>2016-06-04T11:47:38Z</time>
      </trkpt>
      <trkpt lat="46.91993" lon="-0.13473">
        <ele>61.039</ele>
        <time>2016-06-04T11:47:18Z</time>
      </trkpt>
      <trkpt lat="46.92089" lon="-0.13505">
        <ele>59.593</ele>
        <time>2016-06-04T11:46:58Z</time>
      </trkpt>
      <trkpt lat="46.92199" lon="-0.13499">
        <ele>63.908</ele>
        <time>2016-06-04T11:46:38Z</time>
      </trkpt>
      <trkpt lat="46.92282" lon="-0.13514">
        <ele>60.726</ele>
        <time>2016-06-04T11:46:18Z</time>
      </trkpt>
      <trkpt lat="46.92347" lon="-0.13565">
        <ele>59.133</ele>
        <time>2016-06-04T11:45:58Z</time>
      </trkpt>
      <trkpt lat="46.92398" lon="-0.13645">
        <ele>57.378</ele>
        <time>2016-06-04T11:45:38Z</time>
      </trkpt>
      <trkpt lat="46.92434" lon="-0.13688">
        <ele>59.554</ele>
        <time>2016-06-04T11:45:18Z</time>
      </trkpt>
      <trkpt lat="46.9249" lon="-0.13838">
        <ele>60.955</ele>
        <time>2016-06-04T11:44:58Z</time>
      </trkpt>
      <trkpt lat="46.92527" lon="-0.13866">
        <ele>61.979</ele>
        <time>2016-06-04T11:44:38Z</time>
      </trkpt>
      <trkpt lat="46.92593" lon="-0.14224">
        <ele>66.317</ele>
        <time>2016-06-04T11:44:18Z</time>
      </trkpt>
      <trkpt lat="46.92585" lon="-0.14492">
        <ele>65.351</ele>
        <time>2016-06-04T11:43:58Z</time>
      </trkpt>
      <trkpt lat="46.92593" lon="-0.1458">
        <ele>69.388</ele>
        <time>2016-06-04T11:43:38Z</time>
      </trkpt>
      <trkpt lat="46.92565" lon="-0.14683">
        <ele>64.343</ele>
        <time>2016-06-04T11:43:18Z</time>
      </trkpt>
      <trkpt lat="46.92565" lon="-0.14789">
        <ele>63.077</ele>
        <time>2016-06-04T11:42:58Z</time>
      </trkpt>
      <trkpt lat="46.92547" lon="-0.14892">
        <ele>61.608</ele>
        <time>2016-06-04T11:42:38Z</time>
      </trkpt>
      <trkpt lat="46.92561" lon="-0.15083">
        <ele>59.415</ele>
        <time>2016-06-04T11:42:18Z</time>
      </trkpt>
      <trkpt lat="46.92602" lon="-0.15297">
        <ele>58.687</ele>
        <time>2016-06-04T11:41:58Z</time>
      </trkpt>
      <trkpt lat="46.9266" lon="-0.15437">
        <ele>59.517</ele>
        <time>2016-06-04T11:41:38Z</time>
      </trkpt>
      <trkpt lat="46.92731" lon="-0.15548">
        <ele>58.325</ele>
        <time>2016-06-04T11:41:18Z</time>
      </trkpt>
      <trkpt lat="46.92848" lon="-0.1564">
        <ele>57.176</ele>
        <time>2016-06-04T11:40:58Z</time>
      </trkpt>
      <trkpt lat="46.92931" lon="-0.15632">
        <ele>58.76</ele>
        <time>2016-06-04T11:40:38Z</time>
      </trkpt>
      <trkpt lat="46.93098" lon="-0.15529">
        <ele>58.148</ele>
        <time>2016-06-04T11:40:18Z</time>
      </trkpt>
      <trkpt lat="46.93233" lon="-0.154">
        <ele>58.672</ele>
        <time>2016-06-04T11:39:58Z</time>
      </trkpt>
      <trkpt lat="46.93318" lon="-0.15308">
        <ele>62.939</ele>
        <time>2016-06-04T11:39:38Z</time>
      </trkpt>
      <trkpt lat="46.93383" lon="-0.1522">
        <ele>64.444</ele>
        <time>2016-06-04T11:39:18Z</time>
      </trkpt>
      <trkpt lat="46.93459" lon="-0.15143">
        <ele>62.348</ele>
        <time>2016-06-04T11:38:58Z</time>
      </trkpt>
      <trkpt lat="46.93586" lon="-0.14965">
        <ele>63.108</ele>
        <time>2016-06-04T11:38:38Z</time>
      </trkpt>
      <trkpt lat="46.93639" lon="-0.14838">
        <ele>64.011</ele>
        <time>2016-06-04T11:38:18Z</time>
      </trkpt>
      <trkpt lat="46.93664" lon="-0.14789">
        <ele>63.147</ele>
        <time>2016-06-04T11:37:58Z</time>
      </trkpt>
      <trkpt lat="46.93951" lon="-0.14683">
        <ele>63.926</ele>
        <time>2016-06-04T11:37:38Z</time>
      </trkpt>
      <trkpt lat="46.94007" lon="-0.14681">
        <ele>63.471</ele>
        <time>2016-06-04T11:37:18Z</time>
      </trkpt>
      <trkpt lat="46.94103" lon="-0.1469">
        <ele>63.912</ele>
        <time>2016-06-04T11:36:58Z</time>
      </trkpt>
      <trkpt lat="46.94079" lon="-0.1475">
        <ele>63.046</ele>
        <time>2016-06-04T11:36:38Z</time>
      </trkpt>
      <trkpt lat="46.94085" lon="-0.14836">
        <ele>57.924</ele>
        <time>2016-06-04T11:36:18Z</time>
      </trkpt>
      <trkpt lat="46.9418" lon="-0.14872">
        <ele>57.148</ele>
        <time>2016-06-04T11:35:58Z</time>
      </trkpt>
      <trkpt lat="46.94256" lon="-0.14849">
        <ele>60.065</ele>
        <time>2016-06-04T11:35:38Z</time>
      </trkpt>
      <trkpt lat="46.94373" lon="-0.14887">
        <ele>60.55</ele>
        <time>2016-06-04T11:35:18Z</time>
      </trkpt>
      <trkpt lat="46.94459" lon="-0.14892">
        <ele>65.324</ele>
        <time>2016-06-04T11:34:58Z</time>
      </trkpt>
      <trkpt lat="46.94427" lon="-0.14999">
        <ele>57.408</ele>
        <time>2016-06-04T11:34:38Z</time>
      </trkpt>
      <trkpt lat="46.94361" lon="-0.15186">
        <ele>59.026</ele>
        <time>2016-06-04T11:34:18Z</time>
      </trkpt>
      <trkpt lat="46.94232" lon="-0.15115">
        <ele>60.924</ele>
        <time>2016-06-04T11:33:58Z</time>
      </trkpt>
      <trkpt lat="46.94074" lon="-0.15102">
        <ele>57.888</ele>
        <time>2016-06-04T11:33:38Z</time>
      </trkpt>
      <trkpt lat="46.93955" lon="-0.15136">
        <ele>59.644</ele>
        <time>2016-06-04T11:33:18Z</time>
      </trkpt>
      <trkpt lat="46.93907" lon="-0.15175">
        <ele>59.865</ele>
        <time>2016-06-04T11:32:58Z</time>
      </trkpt>
      <trkpt lat="46.93866" lon="-0.15289">
        <ele>59.999</ele>
        <time>2016-06-04T11:32:38Z</time>
      </trkpt>
      <trkpt lat="46.93857" lon="-0.15346">
        <ele>62.587</ele>
        <time>2016-06-04T11:32:18Z</time>
      </trkpt>
      <trkpt lat="46.93764" lon="-0.15514">
        <ele>62.281</ele>
        <time>2016-06-04T11:31:58Z</time>
      </trkpt>
      <trkpt lat="46.93802" lon="-0.15565">
        <ele>64.248</ele>
        <time>2016-06-04T11:31:38Z</time>
      </trkpt>
      <trkpt lat="46.93797" lon="-0.15707">
        <ele>68.413</ele>
        <time>2016-06-04T11:31:18Z</time>
      </trkpt>
      <trkpt lat="46.93813" lon="-0.15778">
        <ele>70.817</ele>
        <time>2016-06-04T11:30:38Z</time>
      </trkpt>
      <trkpt lat="46.93882" lon="-0.15879">
        <ele>81.108</ele>
        <time>2016-06-04T11:30:18Z</time>
      </trkpt>
      <trkpt lat="46.93958" lon="-0.16029">
        <ele>86.015</ele>
        <time>2016-06-04T11:29:58Z</time>
      </trkpt>
      <trkpt lat="46.94008" lon="-0.16166">
        <ele>89.087</ele>
        <time>2016-06-04T11:29:38Z</time>
      </trkpt>
      <trkpt lat="46.94004" lon="-0.16331">
        <ele>90.017</ele>
        <time>2016-06-04T11:29:18Z</time>
      </trkpt>
      <trkpt lat="46.94442" lon="-0.16705">
        <ele>93.685</ele>
        <time>2016-06-04T11:28:58Z</time>
      </trkpt>
      <trkpt lat="46.94553" lon="-0.16894">
        <ele>93.286</ele>
        <time>2016-06-04T11:28:38Z</time>
      </trkpt>
      <trkpt lat="46.94623" lon="-0.1708">
        <ele>93.14</ele>
        <time>2016-06-04T11:28:18Z</time>
      </trkpt>
      <trkpt lat="46.94773" lon="-0.17134">
        <ele>87.428</ele>
        <time>2016-06-04T11:27:58Z</time>
      </trkpt>
      <trkpt lat="46.94821" lon="-0.1725">
        <ele>88.932</ele>
        <time>2016-06-04T11:27:38Z</time>
      </trkpt>
      <trkpt lat="46.94829" lon="-0.174">
        <ele>84.819</ele>
        <time>2016-06-04T11:27:18Z</time>
      </trkpt>
      <trkpt lat="46.94965" lon="-0.17359">
        <ele>72.084</ele>
        <time>2016-06-04T11:26:58Z</time>
      </trkpt>
      <trkpt lat="46.95035" lon="-0.17348">
        <ele>64.368</ele>
        <time>2016-06-04T11:26:38Z</time>
      </trkpt>
      <trkpt lat="46.95129" lon="-0.17368">
        <ele>56.708</ele>
        <time>2016-06-04T11:26:18Z</time>
      </trkpt>
      <trkpt lat="46.95201" lon="-0.17451">
        <ele>55.014</ele>
        <time>2016-06-04T11:25:38Z</time>
      </trkpt>
      <trkpt lat="46.95268" lon="-0.17681">
        <ele>56.768</ele>
        <time>2016-06-04T11:24:58Z</time>
      </trkpt>
      <trkpt lat="46.95291" lon="-0.17934">
        <ele>60.027</ele>
        <time>2016-06-04T11:24:38Z</time>
      </trkpt>
      <trkpt lat="46.95294" lon="-0.18061">
        <ele>58.115</ele>
        <time>2016-06-04T11:24:18Z</time>
      </trkpt>
      <trkpt lat="46.95272" lon="-0.18172">
        <ele>62.246</ele>
        <time>2016-06-04T11:23:58Z</time>
      </trkpt>
      <trkpt lat="46.95284" lon="-0.18237">
        <ele>60.94</ele>
        <time>2016-06-04T11:23:38Z</time>
      </trkpt>
      <trkpt lat="46.9524" lon="-0.18269">
        <ele>62.588</ele>
        <time>2016-06-04T11:23:18Z</time>
      </trkpt>
      <trkpt lat="46.9525" lon="-0.18441">
        <ele>62.882</ele>
        <time>2016-06-04T11:22:58Z</time>
      </trkpt>
      <trkpt lat="46.95252" lon="-0.18539">
        <ele>62.839</ele>
        <time>2016-06-04T11:22:38Z</time>
      </trkpt>
      <trkpt lat="46.95247" lon="-0.18638">
        <ele>61.274</ele>
        <time>2016-06-04T11:22:18Z</time>
      </trkpt>
      <trkpt lat="46.95183" lon="-0.18898">
        <ele>64.068</ele>
        <time>2016-06-04T11:21:58Z</time>
      </trkpt>
      <trkpt lat="46.95187" lon="-0.18986">
        <ele>62.508</ele>
        <time>2016-06-04T11:21:38Z</time>
      </trkpt>
      <trkpt lat="46.95177" lon="-0.19022">
        <ele>63.205</ele>
        <time>2016-06-04T11:21:18Z</time>
      </trkpt>
      <trkpt lat="46.95176" lon="-0.19063">
        <ele>64.041</ele>
        <time>2016-06-04T11:20:58Z</time>
      </trkpt>
      <trkpt lat="46.95183" lon="-0.19091">
        <ele>63.121</ele>
        <time>2016-06-04T11:20:38Z</time>
      </trkpt>
      <trkpt lat="46.95296" lon="-0.19147">
        <ele>55.641</ele>
        <time>2016-06-04T11:20:18Z</time>
      </trkpt>
      <trkpt lat="46.9529" lon="-0.19198">
        <ele>56.862</ele>
        <time>2016-06-04T11:19:58Z</time>
      </trkpt>
      <trkpt lat="46.95296" lon="-0.19286">
        <ele>55.636</ele>
        <time>2016-06-04T11:19:38Z</time>
      </trkpt>
      <trkpt lat="46.95341" lon="-0.19385">
        <ele>53.434</ele>
        <time>2016-06-04T11:19:18Z</time>
      </trkpt>
      <trkpt lat="46.95391" lon="-0.19441">
        <ele>54.038</ele>
        <time>2016-06-04T11:18:58Z</time>
      </trkpt>
      <trkpt lat="46.95429" lon="-0.19445">
        <ele>54.025</ele>
        <time>2016-06-04T11:18:38Z</time>
      </trkpt>
      <trkpt lat="46.95498" lon="-0.19413">
        <ele>55.14</ele>
        <time>2016-06-04T11:18:18Z</time>
      </trkpt>
      <trkpt lat="46.95539" lon="-0.19346">
        <ele>57.824</ele>
        <time>2016-06-04T11:17:58Z</time>
      </trkpt>
      <trkpt lat="46.95703" lon="-0.19192">
        <ele>58.508</ele>
        <time>2016-06-04T11:17:38Z</time>
      </trkpt>
      <trkpt lat="46.95848" lon="-0.19108">
        <ele>58.217</ele>
        <time>2016-06-04T11:17:18Z</time>
      </trkpt>
      <trkpt lat="46.95983" lon="-0.18945">
        <ele>66.225</ele>
        <time>2016-06-04T11:16:58Z</time>
      </trkpt>
      <trkpt lat="46.96027" lon="-0.18923">
        <ele>65.483</ele>
        <time>2016-06-04T11:16:38Z</time>
      </trkpt>
      <trkpt lat="46.96084" lon="-0.18868">
        <ele>69.371</ele>
        <time>2016-06-04T11:16:18Z</time>
      </trkpt>
      <trkpt lat="46.96104" lon="-0.18861">
        <ele>70.032</ele>
        <time>2016-06-04T11:15:58Z</time>
      </trkpt>
      <trkpt lat="46.96123" lon="-0.18861">
        <ele>69.176</ele>
        <time>2016-06-04T11:15:38Z</time>
      </trkpt>
      <trkpt lat="46.96154" lon="-0.18827">
        <ele>68.544</ele>
        <time>2016-06-04T11:15:18Z</time>
      </trkpt>
      <trkpt lat="46.96164" lon="-0.18782">
        <ele>67.518</ele>
        <time>2016-06-04T11:14:58Z</time>
      </trkpt>
      <trkpt lat="46.96188" lon="-0.18745">
        <ele>68.375</ele>
        <time>2016-06-04T11:14:38Z</time>
      </trkpt>
      <trkpt lat="46.96218" lon="-0.18818">
        <ele>63.56</ele>
        <time>2016-06-04T11:14:18Z</time>
      </trkpt>
      <trkpt lat="46.9628" lon="-0.18835">
        <ele>59.754</ele>
        <time>2016-06-04T11:13:58Z</time>
      </trkpt>
      <trkpt lat="46.96318" lon="-0.1882">
        <ele>58.508</ele>
        <time>2016-06-04T11:13:38Z</time>
      </trkpt>
      <trkpt lat="46.96372" lon="-0.1882">
        <ele>57.517</ele>
        <time>2016-06-04T11:13:18Z</time>
      </trkpt>
      <trkpt lat="46.96486" lon="-0.18765">
        <ele>57.261</ele>
        <time>2016-06-04T11:12:58Z</time>
      </trkpt>
      <trkpt lat="46.96592" lon="-0.18713">
        <ele>61.681</ele>
        <time>2016-06-04T11:12:38Z</time>
      </trkpt>
      <trkpt lat="46.96688" lon="-0.18712">
        <ele>58.791</ele>
        <time>2016-06-04T11:12:18Z</time>
      </trkpt>
      <trkpt lat="46.96793" lon="-0.18726">
        <ele>59.152</ele>
        <time>2016-06-04T11:11:58Z</time>
      </trkpt>
      <trkpt lat="46.96908" lon="-0.1875">
        <ele>64.936</ele>
        <time>2016-06-04T11:11:38Z</time>
      </trkpt>
      <trkpt lat="46.96965" lon="-0.18827">
        <ele>61.664</ele>
        <time>2016-06-04T11:11:18Z</time>
      </trkpt>
      <trkpt lat="46.97015" lon="-0.18883">
        <ele>60.778</ele>
        <time>2016-06-04T11:10:58Z</time>
      </trkpt>
      <trkpt lat="46.97037" lon="-0.18934">
        <ele>58.085</ele>
        <time>2016-06-04T11:10:38Z</time>
      </trkpt>
      <trkpt lat="46.97081" lon="-0.19011">
        <ele>56.67</ele>
        <time>2016-06-04T11:10:18Z</time>
      </trkpt>
      <trkpt lat="46.9708" lon="-0.19224">
        <ele>62.234</ele>
        <time>2016-06-04T11:09:58Z</time>
      </trkpt>
      <trkpt lat="46.97104" lon="-0.19318">
        <ele>69.908</ele>
        <time>2016-06-04T11:09:38Z</time>
      </trkpt>
      <trkpt lat="46.97097" lon="-0.19541">
        <ele>82.426</ele>
        <time>2016-06-04T11:09:18Z</time>
      </trkpt>
      <trkpt lat="46.97046" lon="-0.19664">
        <ele>84.106</ele>
        <time>2016-06-04T11:08:58Z</time>
      </trkpt>
      <trkpt lat="46.97052" lon="-0.19717">
        <ele>87.789</ele>
        <time>2016-06-04T11:08:38Z</time>
      </trkpt>
      <trkpt lat="46.97077" lon="-0.19771">
        <ele>89.544</ele>
        <time>2016-06-04T11:08:18Z</time>
      </trkpt>
      <trkpt lat="46.97096" lon="-0.19844">
        <ele>85.635</ele>
        <time>2016-06-04T11:07:58Z</time>
      </trkpt>
      <trkpt lat="46.97142" lon="-0.19956">
        <ele>78.799</ele>
        <time>2016-06-04T11:07:38Z</time>
      </trkpt>
      <trkpt lat="46.97142" lon="-0.20026">
        <ele>77.017</ele>
        <time>2016-06-04T11:07:18Z</time>
      </trkpt>
      <trkpt lat="46.97181" lon="-0.20074">
        <ele>75.781</ele>
        <time>2016-06-04T11:06:58Z</time>
      </trkpt>
      <trkpt lat="46.97232" lon="-0.20082">
        <ele>75.458</ele>
        <time>2016-06-04T11:06:38Z</time>
      </trkpt>
      <trkpt lat="46.97271" lon="-0.20134">
        <ele>73.043</ele>
        <time>2016-06-04T11:06:18Z</time>
      </trkpt>
      <trkpt lat="46.97315" lon="-0.20204">
        <ele>77.427</ele>
        <time>2016-06-04T11:05:58Z</time>
      </trkpt>
      <trkpt lat="46.9735" lon="-0.20329">
        <ele>73.008</ele>
        <time>2016-06-04T11:05:38Z</time>
      </trkpt>
      <trkpt lat="46.97424" lon="-0.20509">
        <ele>68.419</ele>
        <time>2016-06-04T11:05:18Z</time>
      </trkpt>
      <trkpt lat="46.97475" lon="-0.20758">
        <ele>69.609</ele>
        <time>2016-06-04T11:04:58Z</time>
      </trkpt>
      <trkpt lat="46.97522" lon="-0.20917">
        <ele>71.319</ele>
        <time>2016-06-04T11:04:38Z</time>
      </trkpt>
      <trkpt lat="46.9753" lon="-0.21033">
        <ele>71.599</ele>
        <time>2016-06-04T11:04:18Z</time>
      </trkpt>
      <trkpt lat="46.9761" lon="-0.21048">
        <ele>82.13</ele>
        <time>2016-06-04T11:03:58Z</time>
      </trkpt>
      <trkpt lat="46.97615" lon="-0.21101">
        <ele>84.064</ele>
        <time>2016-06-04T11:03:38Z</time>
      </trkpt>
      <trkpt lat="46.9762" lon="-0.21162">
        <ele>87.222</ele>
        <time>2016-06-04T11:03:18Z</time>
      </trkpt>
      <trkpt lat="46.97577" lon="-0.21194">
        <ele>87.016</ele>
        <time>2016-06-04T11:02:58Z</time>
      </trkpt>
      <trkpt lat="46.97497" lon="-0.21224">
        <ele>84.053</ele>
        <time>2016-06-04T11:02:38Z</time>
      </trkpt>
      <trkpt lat="46.97465" lon="-0.21277">
        <ele>86.138</ele>
        <time>2016-06-04T11:02:18Z</time>
      </trkpt>
      <trkpt lat="46.97455" lon="-0.21389">
        <ele>90.812</ele>
        <time>2016-06-04T11:01:58Z</time>
      </trkpt>
      <trkpt lat="46.97438" lon="-0.21516">
        <ele>92.108</ele>
        <time>2016-06-04T11:01:38Z</time>
      </trkpt>
      <trkpt lat="46.97481" lon="-0.21563">
        <ele>93.026</ele>
        <time>2016-06-04T11:01:18Z</time>
      </trkpt>
      <trkpt lat="46.97487" lon="-0.21584">
        <ele>92.542</ele>
        <time>2016-06-04T11:00:58Z</time>
      </trkpt>
      <trkpt lat="46.97569" lon="-0.21623">
        <ele>90.568</ele>
        <time>2016-06-04T11:00:38Z</time>
      </trkpt>
      <trkpt lat="46.97782" lon="-0.21726">
        <ele>93.369</ele>
        <time>2016-06-04T11:00:18Z</time>
      </trkpt>
      <trkpt lat="46.97803" lon="-0.21719">
        <ele>95.93</ele>
        <time>2016-06-04T10:59:58Z</time>
      </trkpt>
      <trkpt lat="46.97907" lon="-0.21773">
        <ele>99.754</ele>
        <time>2016-06-04T10:59:38Z</time>
      </trkpt>
      <trkpt lat="46.97898" lon="-0.21814">
        <ele>92.022</ele>
        <time>2016-06-04T10:59:18Z</time>
      </trkpt>
      <trkpt lat="46.97876" lon="-0.21837">
        <ele>87.876</ele>
        <time>2016-06-04T10:58:58Z</time>
      </trkpt>
      <trkpt lat="46.97891" lon="-0.21861">
        <ele>83.043</ele>
        <time>2016-06-04T10:58:38Z</time>
      </trkpt>
      <trkpt lat="46.97935" lon="-0.21874">
        <ele>81.738</ele>
        <time>2016-06-04T10:58:18Z</time>
      </trkpt>
      <trkpt lat="46.97958" lon="-0.21917">
        <ele>71.552</ele>
        <time>2016-06-04T10:57:58Z</time>
      </trkpt>
      <trkpt lat="46.98139" lon="-0.22063">
        <ele>57.908</ele>
        <time>2016-06-04T10:57:38Z</time>
      </trkpt>
      <trkpt lat="46.98188" lon="-0.22194">
        <ele>56.613</ele>
        <time>2016-06-04T10:57:18Z</time>
      </trkpt>
      <trkpt lat="46.9822" lon="-0.22342">
        <ele>58.821</ele>
        <time>2016-06-04T10:56:58Z</time>
      </trkpt>
      <trkpt lat="46.98235" lon="-0.22494">
        <ele>55.861</ele>
        <time>2016-06-04T10:56:38Z</time>
      </trkpt>
      <trkpt lat="46.98226" lon="-0.22631">
        <ele>61.498</ele>
        <time>2016-06-04T10:56:18Z</time>
      </trkpt>
      <trkpt lat="46.98211" lon="-0.227">
        <ele>57.719</ele>
        <time>2016-06-04T10:55:58Z</time>
      </trkpt>
      <trkpt lat="46.98205" lon="-0.22844">
        <ele>58.683</ele>
        <time>2016-06-04T10:55:38Z</time>
      </trkpt>
      <trkpt lat="46.98182" lon="-0.22955">
        <ele>56.631</ele>
        <time>2016-06-04T10:55:18Z</time>
      </trkpt>
      <trkpt lat="46.98163" lon="-0.23076">
        <ele>53.415</ele>
        <time>2016-06-04T10:54:58Z</time>
      </trkpt>
      <trkpt lat="46.9817" lon="-0.23232">
        <ele>50.852</ele>
        <time>2016-06-04T10:54:38Z</time>
      </trkpt>
      <trkpt lat="46.98194" lon="-0.23425">
        <ele>49.037</ele>
        <time>2016-06-04T10:54:18Z</time>
      </trkpt>
      <trkpt lat="46.98221" lon="-0.23556">
        <ele>49.981</ele>
        <time>2016-06-04T10:53:58Z</time>
      </trkpt>
      <trkpt lat="46.98242" lon="-0.23711">
        <ele>49.808</ele>
        <time>2016-06-04T10:53:38Z</time>
      </trkpt>
      <trkpt lat="46.98299" lon="-0.24">
        <ele>50.314</ele>
        <time>2016-06-04T10:53:18Z</time>
      </trkpt>
      <trkpt lat="46.98374" lon="-0.24198">
        <ele>49.359</ele>
        <time>2016-06-04T10:52:58Z</time>
      </trkpt>
      <trkpt lat="46.98407" lon="-0.24224">
        <ele>51.956</ele>
        <time>2016-06-04T10:52:38Z</time>
      </trkpt>
      <trkpt lat="46.98503" lon="-0.2438">
        <ele>50.548</ele>
        <time>2016-06-04T10:52:18Z</time>
      </trkpt>
      <trkpt lat="46.98612" lon="-0.24475">
        <ele>48.279</ele>
        <time>2016-06-04T10:51:58Z</time>
      </trkpt>
      <trkpt lat="46.98725" lon="-0.24584">
        <ele>51.183</ele>
        <time>2016-06-04T10:51:38Z</time>
      </trkpt>
      <trkpt lat="46.98792" lon="-0.24651">
        <ele>50.051</ele>
        <time>2016-06-04T10:51:18Z</time>
      </trkpt>
      <trkpt lat="46.98908" lon="-0.24754">
        <ele>48.395</ele>
        <time>2016-06-04T10:50:58Z</time>
      </trkpt>
      <trkpt lat="46.98997" lon="-0.24775">
        <ele>50.272</ele>
        <time>2016-06-04T10:50:38Z</time>
      </trkpt>
      <trkpt lat="46.99151" lon="-0.24745">
        <ele>48.927</ele>
        <time>2016-06-04T10:50:18Z</time>
      </trkpt>
      <trkpt lat="46.99186" lon="-0.24754">
        <ele>48.051</ele>
        <time>2016-06-04T10:49:58Z</time>
      </trkpt>
      <trkpt lat="46.9928" lon="-0.24728">
        <ele>48.708</ele>
        <time>2016-06-04T10:49:38Z</time>
      </trkpt>
      <trkpt lat="46.99302" lon="-0.24698">
        <ele>48.223</ele>
        <time>2016-06-04T10:49:18Z</time>
      </trkpt>
      <trkpt lat="46.99384" lon="-0.2467">
        <ele>46.103</ele>
        <time>2016-06-04T10:48:58Z</time>
      </trkpt>
      <trkpt lat="46.99428" lon="-0.24644">
        <ele>48.259</ele>
        <time>2016-06-04T10:48:38Z</time>
      </trkpt>
      <trkpt lat="46.99498" lon="-0.2462">
        <ele>49.269</ele>
        <time>2016-06-04T10:48:18Z</time>
      </trkpt>
      <trkpt lat="46.996" lon="-0.24614">
        <ele>48.81</ele>
        <time>2016-06-04T10:47:58Z</time>
      </trkpt>
      <trkpt lat="46.99678" lon="-0.24588">
        <ele>46.694</ele>
        <time>2016-06-04T10:47:38Z</time>
      </trkpt>
      <trkpt lat="46.99729" lon="-0.24597">
        <ele>47.962</ele>
        <time>2016-06-04T10:47:18Z</time>
      </trkpt>
      <trkpt lat="46.99821" lon="-0.24565">
        <ele>49.426</ele>
        <time>2016-06-04T10:46:58Z</time>
      </trkpt>
      <trkpt lat="46.99843" lon="-0.2455">
        <ele>49.233</ele>
        <time>2016-06-04T10:46:18Z</time>
      </trkpt>
      <trkpt lat="46.99853" lon="-0.24524">
        <ele>48.368</ele>
        <time>2016-06-04T10:45:58Z</time>
      </trkpt>
      <trkpt lat="47.00014" lon="-0.24543">
        <ele>44.792</ele>
        <time>2016-06-04T10:45:38Z</time>
      </trkpt>
      <trkpt lat="47.00134" lon="-0.24558">
        <ele>45.908</ele>
        <time>2016-06-04T10:45:18Z</time>
      </trkpt>
      <trkpt lat="47.00252" lon="-0.24595">
        <ele>47.014</ele>
        <time>2016-06-04T10:44:58Z</time>
      </trkpt>
      <trkpt lat="47.00363" lon="-0.24605">
        <ele>48.468</ele>
        <time>2016-06-04T10:44:38Z</time>
      </trkpt>
      <trkpt lat="47.00443" lon="-0.24599">
        <ele>51.165</ele>
        <time>2016-06-04T10:44:18Z</time>
      </trkpt>
      <trkpt lat="47.00481" lon="-0.24623">
        <ele>52.272</ele>
        <time>2016-06-04T10:43:58Z</time>
      </trkpt>
      <trkpt lat="47.00509" lon="-0.24672">
        <ele>49.053</ele>
        <time>2016-06-04T10:43:38Z</time>
      </trkpt>
      <trkpt lat="47.00623" lon="-0.24801">
        <ele>54.387</ele>
        <time>2016-06-04T10:43:18Z</time>
      </trkpt>
      <trkpt lat="47.00695" lon="-0.24919">
        <ele>45.975</ele>
        <time>2016-06-04T10:42:58Z</time>
      </trkpt>
      <trkpt lat="47.00739" lon="-0.24998">
        <ele>46.349</ele>
        <time>2016-06-04T10:42:38Z</time>
      </trkpt>
      <trkpt lat="47.00813" lon="-0.25105">
        <ele>44.456</ele>
        <time>2016-06-04T10:42:18Z</time>
      </trkpt>
      <trkpt lat="47.0093" lon="-0.25243">
        <ele>44.521</ele>
        <time>2016-06-04T10:41:58Z</time>
      </trkpt>
      <trkpt lat="47.00976" lon="-0.25324">
        <ele>43.925</ele>
        <time>2016-06-04T10:41:38Z</time>
      </trkpt>
      <trkpt lat="47.00995" lon="-0.25348">
        <ele>43.208</ele>
        <time>2016-06-04T10:41:18Z</time>
      </trkpt>
      <trkpt lat="47.01069" lon="-0.255">
        <ele>43.519</ele>
        <time>2016-06-04T10:40:58Z</time>
      </trkpt>
      <trkpt lat="47.01109" lon="-0.25528">
        <ele>44.181</ele>
        <time>2016-06-04T10:40:38Z</time>
      </trkpt>
      <trkpt lat="47.0114" lon="-0.25623">
        <ele>42.491</ele>
        <time>2016-06-04T10:40:18Z</time>
      </trkpt>
      <trkpt lat="47.01182" lon="-0.25715">
        <ele>40.817</ele>
        <time>2016-06-04T10:39:58Z</time>
      </trkpt>
      <trkpt lat="47.01235" lon="-0.25766">
        <ele>43.348</ele>
        <time>2016-06-04T10:39:38Z</time>
      </trkpt>
      <trkpt lat="47.01302" lon="-0.25781">
        <ele>44.912</ele>
        <time>2016-06-04T10:39:18Z</time>
      </trkpt>
      <trkpt lat="47.01412" lon="-0.25747">
        <ele>45.07</ele>
        <time>2016-06-04T10:38:58Z</time>
      </trkpt>
      <trkpt lat="47.015" lon="-0.25693">
        <ele>45.074</ele>
        <time>2016-06-04T10:38:38Z</time>
      </trkpt>
      <trkpt lat="47.0158" lon="-0.25625">
        <ele>44.491</ele>
        <time>2016-06-04T10:38:18Z</time>
      </trkpt>
      <trkpt lat="47.01644" lon="-0.25601">
        <ele>45.526</ele>
        <time>2016-06-04T10:37:58Z</time>
      </trkpt>
      <trkpt lat="47.01772" lon="-0.25605">
        <ele>45.82</ele>
        <time>2016-06-04T10:37:38Z</time>
      </trkpt>
      <trkpt lat="47.01798" lon="-0.25595">
        <ele>45.608</ele>
        <time>2016-06-04T10:37:18Z</time>
      </trkpt>
      <trkpt lat="47.01895" lon="-0.25554">
        <ele>43.322</ele>
        <time>2016-06-04T10:36:58Z</time>
      </trkpt>
      <trkpt lat="47.0196" lon="-0.25492">
        <ele>44.402</ele>
        <time>2016-06-04T10:36:38Z</time>
      </trkpt>
      <trkpt lat="47.02006" lon="-0.25408">
        <ele>45.349</ele>
        <time>2016-06-04T10:36:18Z</time>
      </trkpt>
      <trkpt lat="47.02053" lon="-0.25271">
        <ele>46.645</ele>
        <time>2016-06-04T10:35:58Z</time>
      </trkpt>
      <trkpt lat="47.0214" lon="-0.25095">
        <ele>43.476</ele>
        <time>2016-06-04T10:35:38Z</time>
      </trkpt>
      <trkpt lat="47.02212" lon="-0.24904">
        <ele>42.02</ele>
        <time>2016-06-04T10:35:18Z</time>
      </trkpt>
      <trkpt lat="47.02263" lon="-0.24734">
        <ele>43.548</ele>
        <time>2016-06-04T10:34:58Z</time>
      </trkpt>
      <trkpt lat="47.02304" lon="-0.2464">
        <ele>42.172</ele>
        <time>2016-06-04T10:34:38Z</time>
      </trkpt>
      <trkpt lat="47.02312" lon="-0.2453">
        <ele>44.099</ele>
        <time>2016-06-04T10:34:18Z</time>
      </trkpt>
      <trkpt lat="47.0239" lon="-0.24468">
        <ele>44.074</ele>
        <time>2016-06-04T10:33:58Z</time>
      </trkpt>
      <trkpt lat="47.02486" lon="-0.24331">
        <ele>43.028</ele>
        <time>2016-06-04T10:33:38Z</time>
      </trkpt>
      <trkpt lat="47.02547" lon="-0.24264">
        <ele>43.708</ele>
        <time>2016-06-04T10:33:18Z</time>
      </trkpt>
      <trkpt lat="47.02588" lon="-0.24157">
        <ele>43.817</ele>
        <time>2016-06-04T10:32:58Z</time>
      </trkpt>
      <trkpt lat="47.02636" lon="-0.24067">
        <ele>44.589</ele>
        <time>2016-06-04T10:32:38Z</time>
      </trkpt>
      <trkpt lat="47.02878" lon="-0.2367">
        <ele>44.628</ele>
        <time>2016-06-04T10:32:18Z</time>
      </trkpt>
      <trkpt lat="47.02949" lon="-0.23582">
        <ele>44.932</ele>
        <time>2016-06-04T10:31:58Z</time>
      </trkpt>
      <trkpt lat="47.02986" lon="-0.23543">
        <ele>43.343</ele>
        <time>2016-06-04T10:31:38Z</time>
      </trkpt>
      <trkpt lat="47.03008" lon="-0.23509">
        <ele>42.577</ele>
        <time>2016-06-04T10:31:18Z</time>
      </trkpt>
      <trkpt lat="47.03074" lon="-0.2344">
        <ele>42.455</ele>
        <time>2016-06-04T10:30:58Z</time>
      </trkpt>
      <trkpt lat="47.03113" lon="-0.23423">
        <ele>42.979</ele>
        <time>2016-06-04T10:30:38Z</time>
      </trkpt>
      <trkpt lat="47.03215" lon="-0.2343">
        <ele>41.876</ele>
        <time>2016-06-04T10:30:18Z</time>
      </trkpt>
      <trkpt lat="47.03337" lon="-0.23389">
        <ele>42.171</ele>
        <time>2016-06-04T10:29:58Z</time>
      </trkpt>
      <trkpt lat="47.03463" lon="-0.23369">
        <ele>43.165</ele>
        <time>2016-06-04T10:29:38Z</time>
      </trkpt>
      <trkpt lat="47.03572" lon="-0.23166">
        <ele>42.408</ele>
        <time>2016-06-04T10:29:18Z</time>
      </trkpt>
      <trkpt lat="47.03638" lon="-0.23097">
        <ele>43.523</ele>
        <time>2016-06-04T10:28:58Z</time>
      </trkpt>
      <trkpt lat="47.03783" lon="-0.23078">
        <ele>40.849</ele>
        <time>2016-06-04T10:28:38Z</time>
      </trkpt>
      <trkpt lat="47.03795" lon="-0.23061">
        <ele>40.495</ele>
        <time>2016-06-04T10:28:18Z</time>
      </trkpt>
      <trkpt lat="47.03783" lon="-0.22936">
        <ele>42.936</ele>
        <time>2016-06-04T10:27:58Z</time>
      </trkpt>
      <trkpt lat="47.03762" lon="-0.22831">
        <ele>43.497</ele>
        <time>2016-06-04T10:27:38Z</time>
      </trkpt>
      <trkpt lat="47.03768" lon="-0.22792">
        <ele>43.051</ele>
        <time>2016-06-04T10:27:18Z</time>
      </trkpt>
      <trkpt lat="47.03814" lon="-0.22752">
        <ele>42.019</ele>
        <time>2016-06-04T10:26:58Z</time>
      </trkpt>
      <trkpt lat="47.03814" lon="-0.22694">
        <ele>42.753</ele>
        <time>2016-06-04T10:26:38Z</time>
      </trkpt>
      <trkpt lat="47.03822" lon="-0.22661">
        <ele>43.58</ele>
        <time>2016-06-04T10:26:18Z</time>
      </trkpt>
      <trkpt lat="47.03809" lon="-0.22582">
        <ele>46.225</ele>
        <time>2016-06-04T10:25:58Z</time>
      </trkpt>
      <trkpt lat="47.03907" lon="-0.22548">
        <ele>50.549</ele>
        <time>2016-06-04T10:25:38Z</time>
      </trkpt>
      <trkpt lat="47.04004" lon="-0.22552">
        <ele>44.308</ele>
        <time>2016-06-04T10:25:18Z</time>
      </trkpt>
      <trkpt lat="47.04093" lon="-0.22533">
        <ele>47.307</ele>
        <time>2016-06-04T10:24:58Z</time>
      </trkpt>
      <trkpt lat="47.04119" lon="-0.22404">
        <ele>50.861</ele>
        <time>2016-06-04T10:24:38Z</time>
      </trkpt>
      <trkpt lat="47.04198" lon="-0.22363">
        <ele>49.731</ele>
        <time>2016-06-04T10:24:18Z</time>
      </trkpt>
      <trkpt lat="47.04227" lon="-0.22374">
        <ele>47.656</ele>
        <time>2016-06-04T10:23:58Z</time>
      </trkpt>
      <trkpt lat="47.04286" lon="-0.22447">
        <ele>41.567</ele>
        <time>2016-06-04T10:23:38Z</time>
      </trkpt>
      <trkpt lat="47.04467" lon="-0.22292">
        <ele>48.021</ele>
        <time>2016-06-04T10:23:18Z</time>
      </trkpt>
      <trkpt lat="47.04542" lon="-0.22262">
        <ele>42.869</ele>
        <time>2016-06-04T10:22:58Z</time>
      </trkpt>
      <trkpt lat="47.04564" lon="-0.22232">
        <ele>43.853</ele>
        <time>2016-06-04T10:22:38Z</time>
      </trkpt>
      <trkpt lat="47.04602" lon="-0.22217">
        <ele>43.21</ele>
        <time>2016-06-04T10:22:18Z</time>
      </trkpt>
      <trkpt lat="47.04719" lon="-0.22131">
        <ele>43.935</ele>
        <time>2016-06-04T10:21:58Z</time>
      </trkpt>
      <trkpt lat="47.0477" lon="-0.22078">
        <ele>41.569</ele>
        <time>2016-06-04T10:21:38Z</time>
      </trkpt>
      <trkpt lat="47.04752" lon="-0.22033">
        <ele>45.508</ele>
        <time>2016-06-04T10:21:18Z</time>
      </trkpt>
      <trkpt lat="47.04679" lon="-0.21938">
        <ele>53.407</ele>
        <time>2016-06-04T10:20:58Z</time>
      </trkpt>
      <trkpt lat="47.04662" lon="-0.21882">
        <ele>52.261</ele>
        <time>2016-06-04T10:20:38Z</time>
      </trkpt>
      <trkpt lat="47.04574" lon="-0.21788">
        <ele>53.031</ele>
        <time>2016-06-04T10:20:18Z</time>
      </trkpt>
      <trkpt lat="47.04553" lon="-0.21737">
        <ele>54.094</ele>
        <time>2016-06-04T10:19:58Z</time>
      </trkpt>
      <trkpt lat="47.0462" lon="-0.2171">
        <ele>51.525</ele>
        <time>2016-06-04T10:19:38Z</time>
      </trkpt>
      <trkpt lat="47.04759" lon="-0.21718">
        <ele>50.239</ele>
        <time>2016-06-04T10:19:18Z</time>
      </trkpt>
      <trkpt lat="47.04833" lon="-0.21788">
        <ele>48.647</ele>
        <time>2016-06-04T10:18:58Z</time>
      </trkpt>
      <trkpt lat="47.04874" lon="-0.21797">
        <ele>44.671</ele>
        <time>2016-06-04T10:18:38Z</time>
      </trkpt>
      <trkpt lat="47.05058" lon="-0.21756">
        <ele>42.848</ele>
        <time>2016-06-04T10:18:18Z</time>
      </trkpt>
      <trkpt lat="47.05077" lon="-0.21732">
        <ele>43.693</ele>
        <time>2016-06-04T10:17:58Z</time>
      </trkpt>
      <trkpt lat="47.05154" lon="-0.21852">
        <ele>40.957</ele>
        <time>2016-06-04T10:17:38Z</time>
      </trkpt>
      <trkpt lat="47.05396" lon="-0.22013">
        <ele>39.508</ele>
        <time>2016-06-04T10:17:18Z</time>
      </trkpt>
      <trkpt lat="47.05545" lon="-0.22069">
        <ele>37.217</ele>
        <time>2016-06-04T10:16:58Z</time>
      </trkpt>
      <trkpt lat="47.05676" lon="-0.22011">
        <ele>38.798</ele>
        <time>2016-06-04T10:16:38Z</time>
      </trkpt>
      <trkpt lat="47.05704" lon="-0.22024">
        <ele>37.718</ele>
        <time>2016-06-04T10:16:18Z</time>
      </trkpt>
      <trkpt lat="47.05934" lon="-0.22026">
        <ele>39.257</ele>
        <time>2016-06-04T10:15:58Z</time>
      </trkpt>
      <trkpt lat="47.06186" lon="-0.2196">
        <ele>38.138</ele>
        <time>2016-06-04T10:15:38Z</time>
      </trkpt>
      <trkpt lat="47.06262" lon="-0.21962">
        <ele>39.022</ele>
        <time>2016-06-04T10:15:18Z</time>
      </trkpt>
      <trkpt lat="47.06363" lon="-0.22005">
        <ele>38.06</ele>
        <time>2016-06-04T10:14:58Z</time>
      </trkpt>
      <trkpt lat="47.06435" lon="-0.21983">
        <ele>38.344</ele>
        <time>2016-06-04T10:14:38Z</time>
      </trkpt>
      <trkpt lat="47.06493" lon="-0.21981">
        <ele>38.021</ele>
        <time>2016-06-04T10:14:18Z</time>
      </trkpt>
      <trkpt lat="47.06528" lon="-0.2196">
        <ele>38.566</ele>
        <time>2016-06-04T10:13:58Z</time>
      </trkpt>
      <trkpt lat="47.06591" lon="-0.21934">
        <ele>39.81</ele>
        <time>2016-06-04T10:13:38Z</time>
      </trkpt>
      <trkpt lat="47.06602" lon="-0.2181">
        <ele>40.008</ele>
        <time>2016-06-04T10:13:18Z</time>
      </trkpt>
      <trkpt lat="47.06699" lon="-0.2176">
        <ele>36.91</ele>
        <time>2016-06-04T10:12:58Z</time>
      </trkpt>
      <trkpt lat="47.06732" lon="-0.21719">
        <ele>36.364</ele>
        <time>2016-06-04T10:12:38Z</time>
      </trkpt>
      <trkpt lat="47.06796" lon="-0.2164">
        <ele>38.043</ele>
        <time>2016-06-04T10:12:18Z</time>
      </trkpt>
      <trkpt lat="47.06846" lon="-0.21576">
        <ele>37.686</ele>
        <time>2016-06-04T10:11:58Z</time>
      </trkpt>
      <trkpt lat="47.06938" lon="-0.21531">
        <ele>37.717</ele>
        <time>2016-06-04T10:11:38Z</time>
      </trkpt>
      <trkpt lat="47.07002" lon="-0.21479">
        <ele>42.191</ele>
        <time>2016-06-04T10:11:18Z</time>
      </trkpt>
      <trkpt lat="47.07131" lon="-0.21449">
        <ele>41.069</ele>
        <time>2016-06-04T10:10:58Z</time>
      </trkpt>
      <trkpt lat="47.07332" lon="-0.21348">
        <ele>38.013</ele>
        <time>2016-06-04T10:09:58Z</time>
      </trkpt>
      <trkpt lat="47.07568" lon="-0.21065">
        <ele>36.94</ele>
        <time>2016-06-04T10:09:38Z</time>
      </trkpt>
      <trkpt lat="47.07619" lon="-0.20966">
        <ele>38.135</ele>
        <time>2016-06-04T10:09:18Z</time>
      </trkpt>
      <trkpt lat="47.07644" lon="-0.209">
        <ele>39.269</ele>
        <time>2016-06-04T10:08:58Z</time>
      </trkpt>
      <trkpt lat="47.07651" lon="-0.20848">
        <ele>40.008</ele>
        <time>2016-06-04T10:08:38Z</time>
      </trkpt>
      <trkpt lat="47.07674" lon="-0.20687">
        <ele>38.115</ele>
        <time>2016-06-04T10:08:18Z</time>
      </trkpt>
      <trkpt lat="47.07708" lon="-0.20608">
        <ele>39.423</ele>
        <time>2016-06-04T10:07:58Z</time>
      </trkpt>
      <trkpt lat="47.07796" lon="-0.20466">
        <ele>39.033</ele>
        <time>2016-06-04T10:07:38Z</time>
      </trkpt>
      <trkpt lat="47.07908" lon="-0.20314">
        <ele>38.278</ele>
        <time>2016-06-04T10:07:18Z</time>
      </trkpt>
      <trkpt lat="47.07927" lon="-0.20271">
        <ele>38.849</ele>
        <time>2016-06-04T10:06:58Z</time>
      </trkpt>
      <trkpt lat="47.08043" lon="-0.20117">
        <ele>39.573</ele>
        <time>2016-06-04T10:06:38Z</time>
      </trkpt>
      <trkpt lat="47.08151" lon="-0.20048">
        <ele>39.921</ele>
        <time>2016-06-04T10:06:18Z</time>
      </trkpt>
      <trkpt lat="47.08167" lon="-0.19919">
        <ele>37.175</ele>
        <time>2016-06-04T10:05:58Z</time>
      </trkpt>
      <trkpt lat="47.08588" lon="-0.19695">
        <ele>36.852</ele>
        <time>2016-06-04T10:05:38Z</time>
      </trkpt>
      <trkpt lat="47.08691" lon="-0.19653">
        <ele>35.997</ele>
        <time>2016-06-04T10:05:18Z</time>
      </trkpt>
      <trkpt lat="47.08715" lon="-0.19775">
        <ele>35.041</ele>
        <time>2016-06-04T10:04:58Z</time>
      </trkpt>
      <trkpt lat="47.08756" lon="-0.1982">
        <ele>35.708</ele>
        <time>2016-06-04T10:04:38Z</time>
      </trkpt>
      <trkpt lat="47.08792" lon="-0.19893">
        <ele>36.72</ele>
        <time>2016-06-04T10:04:18Z</time>
      </trkpt>
      <trkpt lat="47.08814" lon="-0.20016">
        <ele>36.3</ele>
        <time>2016-06-04T10:03:58Z</time>
      </trkpt>
      <trkpt lat="47.08834" lon="-0.20054">
        <ele>35.157</ele>
        <time>2016-06-04T10:03:38Z</time>
      </trkpt>
      <trkpt lat="47.08931" lon="-0.20127">
        <ele>39.052</ele>
        <time>2016-06-04T10:03:18Z</time>
      </trkpt>
      <trkpt lat="47.08957" lon="-0.20134">
        <ele>39.043</ele>
        <time>2016-06-04T10:02:58Z</time>
      </trkpt>
      <trkpt lat="47.09099" lon="-0.20106">
        <ele>41.147</ele>
        <time>2016-06-04T10:02:38Z</time>
      </trkpt>
      <trkpt lat="47.09178" lon="-0.20076">
        <ele>38.355</ele>
        <time>2016-06-04T10:02:18Z</time>
      </trkpt>
      <trkpt lat="47.09214" lon="-0.20067">
        <ele>38.299</ele>
        <time>2016-06-04T10:01:58Z</time>
      </trkpt>
      <trkpt lat="47.09403" lon="-0.19943">
        <ele>35.066</ele>
        <time>2016-06-04T10:01:38Z</time>
      </trkpt>
      <trkpt lat="47.0948" lon="-0.19829">
        <ele>35.171</ele>
        <time>2016-06-04T10:01:18Z</time>
      </trkpt>
      <trkpt lat="47.09523" lon="-0.1978">
        <ele>37.085</ele>
        <time>2016-06-04T10:00:58Z</time>
      </trkpt>
      <trkpt lat="47.09541" lon="-0.19737">
        <ele>35.308</ele>
        <time>2016-06-04T10:00:38Z</time>
      </trkpt>
      <trkpt lat="47.09603" lon="-0.1964">
        <ele>37.023</ele>
        <time>2016-06-04T10:00:18Z</time>
      </trkpt>
      <trkpt lat="47.09581" lon="-0.19587">
        <ele>35.949</ele>
        <time>2016-06-04T09:59:58Z</time>
      </trkpt>
      <trkpt lat="47.0972" lon="-0.19359">
        <ele>38.895</ele>
        <time>2016-06-04T09:59:38Z</time>
      </trkpt>
      <trkpt lat="47.09676" lon="-0.19314">
        <ele>36.155</ele>
        <time>2016-06-04T09:59:18Z</time>
      </trkpt>
      <trkpt lat="47.09638" lon="-0.19241">
        <ele>37.016</ele>
        <time>2016-06-04T09:58:58Z</time>
      </trkpt>
      <trkpt lat="47.09582" lon="-0.19095">
        <ele>35.58</ele>
        <time>2016-06-04T09:58:38Z</time>
      </trkpt>
      <trkpt lat="47.09634" lon="-0.19048">
        <ele>35.948</ele>
        <time>2016-06-04T09:58:18Z</time>
      </trkpt>
      <trkpt lat="47.09699" lon="-0.19014">
        <ele>35.052</ele>
        <time>2016-06-04T09:57:58Z</time>
      </trkpt>
      <trkpt lat="47.09772" lon="-0.18981">
        <ele>35.099</ele>
        <time>2016-06-04T09:56:58Z</time>
      </trkpt>
      <trkpt lat="47.09797" lon="-0.18956">
        <ele>34.134</ele>
        <time>2016-06-04T09:56:38Z</time>
      </trkpt>
      <trkpt lat="47.09984" lon="-0.18799">
        <ele>34.838</ele>
        <time>2016-06-04T09:56:18Z</time>
      </trkpt>
      <trkpt lat="47.1005" lon="-0.18702">
        <ele>39.808</ele>
        <time>2016-06-04T09:55:58Z</time>
      </trkpt>
      <trkpt lat="47.10085" lon="-0.18619">
        <ele>40.614</ele>
        <time>2016-06-04T09:55:38Z</time>
      </trkpt>
      <trkpt lat="47.10136" lon="-0.18593">
        <ele>37.204</ele>
        <time>2016-06-04T09:55:18Z</time>
      </trkpt>
      <trkpt lat="47.1018" lon="-0.18576">
        <ele>36.024</ele>
        <time>2016-06-04T09:54:58Z</time>
      </trkpt>
      <trkpt lat="47.10276" lon="-0.18574">
        <ele>37.372</ele>
        <time>2016-06-04T09:54:38Z</time>
      </trkpt>
      <trkpt lat="47.10352" lon="-0.1852">
        <ele>38.633</ele>
        <time>2016-06-04T09:54:18Z</time>
      </trkpt>
      <trkpt lat="47.10456" lon="-0.18391">
        <ele>39.997</ele>
        <time>2016-06-04T09:53:58Z</time>
      </trkpt>
      <trkpt lat="47.10538" lon="-0.18327">
        <ele>39.815</ele>
        <time>2016-06-04T09:53:38Z</time>
      </trkpt>
      <trkpt lat="47.10586" lon="-0.18303">
        <ele>42.179</ele>
        <time>2016-06-04T09:53:18Z</time>
      </trkpt>
      <trkpt lat="47.10733" lon="-0.18273">
        <ele>39.096</ele>
        <time>2016-06-04T09:52:58Z</time>
      </trkpt>
      <trkpt lat="47.10801" lon="-0.18265">
        <ele>38.661</ele>
        <time>2016-06-04T09:52:38Z</time>
      </trkpt>
      <trkpt lat="47.10928" lon="-0.18185">
        <ele>36.775</ele>
        <time>2016-06-04T09:52:18Z</time>
      </trkpt>
      <trkpt lat="47.11207" lon="-0.17894">
        <ele>35.808</ele>
        <time>2016-06-04T09:51:58Z</time>
      </trkpt>
      <trkpt lat="47.11239" lon="-0.17844">
        <ele>37.626</ele>
        <time>2016-06-04T09:51:38Z</time>
      </trkpt>
      <trkpt lat="47.11296" lon="-0.17737">
        <ele>38.415</ele>
        <time>2016-06-04T09:51:18Z</time>
      </trkpt>
      <trkpt lat="47.11426" lon="-0.17539">
        <ele>36.698</ele>
        <time>2016-06-04T09:50:58Z</time>
      </trkpt>
      <trkpt lat="47.11535" lon="-0.17398">
        <ele>34.76</ele>
        <time>2016-06-04T09:50:38Z</time>
      </trkpt>
      <trkpt lat="47.11643" lon="-0.17162">
        <ele>33.291</ele>
        <time>2016-06-04T09:50:18Z</time>
      </trkpt>
      <trkpt lat="47.11667" lon="-0.17076">
        <ele>33.055</ele>
        <time>2016-06-04T09:49:58Z</time>
      </trkpt>
      <trkpt lat="47.11712" lon="-0.16973">
        <ele>32.083</ele>
        <time>2016-06-04T09:49:38Z</time>
      </trkpt>
      <trkpt lat="47.1176" lon="-0.16851">
        <ele>34.847</ele>
        <time>2016-06-04T09:49:18Z</time>
      </trkpt>
      <trkpt lat="47.11785" lon="-0.16831">
        <ele>34.964</ele>
        <time>2016-06-04T09:48:58Z</time>
      </trkpt>
      <trkpt lat="47.12109" lon="-0.16469">
        <ele>34.169</ele>
        <time>2016-06-04T09:48:38Z</time>
      </trkpt>
      <trkpt lat="47.1217" lon="-0.16413">
        <ele>34.733</ele>
        <time>2016-06-04T09:48:18Z</time>
      </trkpt>
      <trkpt lat="47.12255" lon="-0.16424">
        <ele>32.808</ele>
        <time>2016-06-04T09:47:58Z</time>
      </trkpt>
      <trkpt lat="47.12363" lon="-0.16398">
        <ele>31.125</ele>
        <time>2016-06-04T09:47:38Z</time>
      </trkpt>
      <trkpt lat="47.12864" lon="-0.16291">
        <ele>33.305</ele>
        <time>2016-06-04T09:47:18Z</time>
      </trkpt>
      <trkpt lat="47.12875" lon="-0.16228">
        <ele>33.179</ele>
        <time>2016-06-04T09:46:58Z</time>
      </trkpt>
      <trkpt lat="47.12915" lon="-0.16188">
        <ele>33.711</ele>
        <time>2016-06-04T09:46:38Z</time>
      </trkpt>
      <trkpt lat="47.12947" lon="-0.1611">
        <ele>35.172</ele>
        <time>2016-06-04T09:46:18Z</time>
      </trkpt>
      <trkpt lat="47.13087" lon="-0.16044">
        <ele>36.456</ele>
        <time>2016-06-04T09:45:58Z</time>
      </trkpt>
      <trkpt lat="47.13128" lon="-0.15999">
        <ele>36.754</ele>
        <time>2016-06-04T09:45:38Z</time>
      </trkpt>
      <trkpt lat="47.13265" lon="-0.15789">
        <ele>34.518</ele>
        <time>2016-06-04T09:45:18Z</time>
      </trkpt>
      <trkpt lat="47.13286" lon="-0.1575">
        <ele>34.075</ele>
        <time>2016-06-04T09:44:58Z</time>
      </trkpt>
      <trkpt lat="47.13324" lon="-0.15621">
        <ele>38.68</ele>
        <time>2016-06-04T09:44:38Z</time>
      </trkpt>
      <trkpt lat="47.13341" lon="-0.15595">
        <ele>38.064</ele>
        <time>2016-06-04T09:44:18Z</time>
      </trkpt>
      <trkpt lat="47.13359" lon="-0.15595">
        <ele>35.408</ele>
        <time>2016-06-04T09:43:58Z</time>
      </trkpt>
      <trkpt lat="47.1341" lon="-0.15484">
        <ele>37.117</ele>
        <time>2016-06-04T09:43:38Z</time>
      </trkpt>
      <trkpt lat="47.13407" lon="-0.15428">
        <ele>41.507</ele>
        <time>2016-06-04T09:43:18Z</time>
      </trkpt>
      <trkpt lat="47.13426" lon="-0.15381">
        <ele>40.084</ele>
        <time>2016-06-04T09:42:58Z</time>
      </trkpt>
      <trkpt lat="47.13465" lon="-0.15365">
        <ele>37.221</ele>
        <time>2016-06-04T09:42:38Z</time>
      </trkpt>
      <trkpt lat="47.13509" lon="-0.15398">
        <ele>34.532</ele>
        <time>2016-06-04T09:42:18Z</time>
      </trkpt>
      <trkpt lat="47.13516" lon="-0.15385">
        <ele>34.476</ele>
        <time>2016-06-04T09:41:58Z</time>
      </trkpt>
      <trkpt lat="47.13484" lon="-0.15325">
        <ele>37.014</ele>
        <time>2016-06-04T09:41:38Z</time>
      </trkpt>
      <trkpt lat="47.13487" lon="-0.15278">
        <ele>37.478</ele>
        <time>2016-06-04T09:41:18Z</time>
      </trkpt>
      <trkpt lat="47.13524" lon="-0.15203">
        <ele>38.835</ele>
        <time>2016-06-04T09:40:58Z</time>
      </trkpt>
      <trkpt lat="47.13543" lon="-0.15136">
        <ele>38.97</ele>
        <time>2016-06-04T09:40:38Z</time>
      </trkpt>
      <trkpt lat="47.13534" lon="-0.15061">
        <ele>39.064</ele>
        <time>2016-06-04T09:40:18Z</time>
      </trkpt>
      <trkpt lat="47.13436" lon="-0.1498">
        <ele>49.308</ele>
        <time>2016-06-04T09:39:58Z</time>
      </trkpt>
      <trkpt lat="47.1388" lon="-0.14231">
        <ele>42.517</ele>
        <time>2016-06-04T09:39:38Z</time>
      </trkpt>
      <trkpt lat="47.13961" lon="-0.14385">
        <ele>38.007</ele>
        <time>2016-06-04T09:39:18Z</time>
      </trkpt>
      <trkpt lat="47.13986" lon="-0.14402">
        <ele>37.584</ele>
        <time>2016-06-04T09:38:58Z</time>
      </trkpt>
      <trkpt lat="47.14002" lon="-0.14437">
        <ele>36.046</ele>
        <time>2016-06-04T09:38:38Z</time>
      </trkpt>
      <trkpt lat="47.14116" lon="-0.14332">
        <ele>36.497</ele>
        <time>2016-06-04T09:38:18Z</time>
      </trkpt>
      <trkpt lat="47.14135" lon="-0.14323">
        <ele>34.581</ele>
        <time>2016-06-04T09:37:58Z</time>
      </trkpt>
      <trkpt lat="47.14313" lon="-0.14156">
        <ele>32.539</ele>
        <time>2016-06-04T09:37:38Z</time>
      </trkpt>
      <trkpt lat="47.14382" lon="-0.14072">
        <ele>30.773</ele>
        <time>2016-06-04T09:37:18Z</time>
      </trkpt>
      <trkpt lat="47.14447" lon="-0.13997">
        <ele>36.08</ele>
        <time>2016-06-04T09:36:58Z</time>
      </trkpt>
      <trkpt lat="47.14519" lon="-0.13894">
        <ele>33.125</ele>
        <time>2016-06-04T09:36:38Z</time>
      </trkpt>
      <trkpt lat="47.14595" lon="-0.13806">
        <ele>32.159</ele>
        <time>2016-06-04T09:36:18Z</time>
      </trkpt>
      <trkpt lat="47.14684" lon="-0.13694">
        <ele>31.108</ele>
        <time>2016-06-04T09:35:58Z</time>
      </trkpt>
      <trkpt lat="47.14783" lon="-0.13538">
        <ele>30.21</ele>
        <time>2016-06-04T09:35:38Z</time>
      </trkpt>
      <trkpt lat="47.14825" lon="-0.1349">
        <ele>32.055</ele>
        <time>2016-06-04T09:35:18Z</time>
      </trkpt>
      <trkpt lat="47.1502" lon="-0.13265">
        <ele>30.534</ele>
        <time>2016-06-04T09:34:38Z</time>
      </trkpt>
      <trkpt lat="47.15031" lon="-0.13231">
        <ele>29.312</ele>
        <time>2016-06-04T09:34:18Z</time>
      </trkpt>
      <trkpt lat="47.1509" lon="-0.13231">
        <ele>31.573</ele>
        <time>2016-06-04T09:33:58Z</time>
      </trkpt>
      <trkpt lat="47.15338" lon="-0.12608">
        <ele>28.097</ele>
        <time>2016-06-04T09:33:38Z</time>
      </trkpt>
      <trkpt lat="47.15231" lon="-0.12347">
        <ele>34.585</ele>
        <time>2016-06-04T09:33:18Z</time>
      </trkpt>
      <trkpt lat="47.15309" lon="-0.12119">
        <ele>39.699</ele>
        <time>2016-06-04T09:32:58Z</time>
      </trkpt>
      <trkpt lat="47.15362" lon="-0.12006">
        <ele>41.216</ele>
        <time>2016-06-04T09:32:38Z</time>
      </trkpt>
      <trkpt lat="47.15564" lon="-0.11533">
        <ele>35.461</ele>
        <time>2016-06-04T09:32:18Z</time>
      </trkpt>
      <trkpt lat="47.15647" lon="-0.11439">
        <ele>36.415</ele>
        <time>2016-06-04T09:31:58Z</time>
      </trkpt>
      <trkpt lat="47.1598" lon="-0.11272">
        <ele>33.308</ele>
        <time>2016-06-04T09:31:38Z</time>
      </trkpt>
      <trkpt lat="47.16063" lon="-0.1122">
        <ele>34.819</ele>
        <time>2016-06-04T09:31:18Z</time>
      </trkpt>
      <trkpt lat="47.16104" lon="-0.11184">
        <ele>34.681</ele>
        <time>2016-06-04T09:30:58Z</time>
      </trkpt>
      <trkpt lat="47.16145" lon="-0.11139">
        <ele>35.091</ele>
        <time>2016-06-04T09:30:38Z</time>
      </trkpt>
      <trkpt lat="47.15996" lon="-0.11036">
        <ele>36.198</ele>
        <time>2016-06-04T09:30:18Z</time>
      </trkpt>
      <trkpt lat="47.16178" lon="-0.10778">
        <ele>35.029</ele>
        <time>2016-06-04T09:29:58Z</time>
      </trkpt>
      <trkpt lat="47.16404" lon="-0.10585">
        <ele>32.463</ele>
        <time>2016-06-04T09:29:38Z</time>
      </trkpt>
      <trkpt lat="47.16512" lon="-0.10473">
        <ele>31.031</ele>
        <time>2016-06-04T09:29:18Z</time>
      </trkpt>
      <trkpt lat="47.16601" lon="-0.1039">
        <ele>31.335</ele>
        <time>2016-06-04T09:28:58Z</time>
      </trkpt>
      <trkpt lat="47.16441" lon="-0.09722">
        <ele>34.052</ele>
        <time>2016-06-04T09:28:38Z</time>
      </trkpt>
      <trkpt lat="47.16587" lon="-0.09486">
        <ele>32.977</ele>
        <time>2016-06-04T09:28:18Z</time>
      </trkpt>
      <trkpt lat="47.16527" lon="-0.09486">
        <ele>33.081</ele>
        <time>2016-06-04T09:27:58Z</time>
      </trkpt>
      <trkpt lat="47.16533" lon="-0.08886">
        <ele>33.408</ele>
        <time>2016-06-04T09:27:38Z</time>
      </trkpt>
      <trkpt lat="47.16537" lon="-0.08841">
        <ele>33.817</ele>
        <time>2016-06-04T09:27:18Z</time>
      </trkpt>
      <trkpt lat="47.16591" lon="-0.08873">
        <ele>33.307</ele>
        <time>2016-06-04T09:26:58Z</time>
      </trkpt>
      <trkpt lat="47.16689" lon="-0.08334">
        <ele>30.655</ele>
        <time>2016-06-04T09:26:38Z</time>
      </trkpt>
      <trkpt lat="47.16719" lon="-0.08214">
        <ele>29.269</ele>
        <time>2016-06-04T09:26:18Z</time>
      </trkpt>
      <trkpt lat="47.16633" lon="-0.08128">
        <ele>32.52</ele>
        <time>2016-06-04T09:25:58Z</time>
      </trkpt>
      <trkpt lat="47.16479" lon="-0.07986">
        <ele>29.464</ele>
        <time>2016-06-04T09:25:38Z</time>
      </trkpt>
      <trkpt lat="47.16356" lon="-0.07849">
        <ele>35.472</ele>
        <time>2016-06-04T09:25:18Z</time>
      </trkpt>
      <trkpt lat="47.1627" lon="-0.07783">
        <ele>36.726</ele>
        <time>2016-06-04T09:24:58Z</time>
      </trkpt>
      <trkpt lat="47.16187" lon="-0.0769">
        <ele>33.923</ele>
        <time>2016-06-04T09:24:38Z</time>
      </trkpt>
      <trkpt lat="47.16159" lon="-0.07637">
        <ele>30.748</ele>
        <time>2016-06-04T09:24:18Z</time>
      </trkpt>
      <trkpt lat="47.16089" lon="-0.07596">
        <ele>37.572</ele>
        <time>2016-06-04T09:23:58Z</time>
      </trkpt>
      <trkpt lat="47.16053" lon="-0.07557">
        <ele>36.308</ele>
        <time>2016-06-04T09:23:38Z</time>
      </trkpt>
      <trkpt lat="47.15971" lon="-0.07424">
        <ele>33.911</ele>
        <time>2016-06-04T09:23:18Z</time>
      </trkpt>
      <trkpt lat="47.15883" lon="-0.07308">
        <ele>33.783</ele>
        <time>2016-06-04T09:22:58Z</time>
      </trkpt>
      <trkpt lat="47.15997" lon="-0.07152">
        <ele>27.962</ele>
        <time>2016-06-04T09:22:38Z</time>
      </trkpt>
      <trkpt lat="47.16018" lon="-0.07141">
        <ele>26.499</ele>
        <time>2016-06-04T09:22:18Z</time>
      </trkpt>
      <trkpt lat="47.16058" lon="-0.07193">
        <ele>27.97</ele>
        <time>2016-06-04T09:21:58Z</time>
      </trkpt>
      <trkpt lat="47.16076" lon="-0.07184">
        <ele>27.534</ele>
        <time>2016-06-04T09:21:38Z</time>
      </trkpt>
      <trkpt lat="47.16388" lon="-0.06514">
        <ele>29.092</ele>
        <time>2016-06-04T09:21:18Z</time>
      </trkpt>
      <trkpt lat="47.16391" lon="-0.06474">
        <ele>28.176</ele>
        <time>2016-06-04T09:20:58Z</time>
      </trkpt>
      <trkpt lat="47.16331" lon="-0.06414">
        <ele>31.213</ele>
        <time>2016-06-04T09:20:38Z</time>
      </trkpt>
      <trkpt lat="47.16323" lon="-0.06384">
        <ele>32.078</ele>
        <time>2016-06-04T09:20:18Z</time>
      </trkpt>
      <trkpt lat="47.16372" lon="-0.06137">
        <ele>35.052</ele>
        <time>2016-06-04T09:19:58Z</time>
      </trkpt>
      <trkpt lat="47.16404" lon="-0.06075">
        <ele>36.708</ele>
        <time>2016-06-04T09:19:38Z</time>
      </trkpt>
      <trkpt lat="47.16499" lon="-0.06206">
        <ele>35.621</ele>
        <time>2016-06-04T09:19:18Z</time>
      </trkpt>
      <trkpt lat="47.16522" lon="-0.06278">
        <ele>33.829</ele>
        <time>2016-06-04T09:18:58Z</time>
      </trkpt>
      <trkpt lat="47.16587" lon="-0.06417">
        <ele>33.166</ele>
        <time>2016-06-04T09:18:38Z</time>
      </trkpt>
      <trkpt lat="47.16658" lon="-0.06478">
        <ele>34.512</ele>
        <time>2016-06-04T09:18:18Z</time>
      </trkpt>
      <trkpt lat="47.16733" lon="-0.06575">
        <ele>33.073</ele>
        <time>2016-06-04T09:17:58Z</time>
      </trkpt>
      <trkpt lat="47.16839" lon="-0.06763">
        <ele>36.547</ele>
        <time>2016-06-04T09:17:38Z</time>
      </trkpt>
      <trkpt lat="47.1702" lon="-0.07002">
        <ele>39.015</ele>
        <time>2016-06-04T09:17:18Z</time>
      </trkpt>
      <trkpt lat="47.17005" lon="-0.07027">
        <ele>38.279</ele>
        <time>2016-06-04T09:16:58Z</time>
      </trkpt>
      <trkpt lat="47.17516" lon="-0.07697">
        <ele>31.596</ele>
        <time>2016-06-04T09:16:38Z</time>
      </trkpt>
      <trkpt lat="47.17625" lon="-0.07476">
        <ele>40.431</ele>
        <time>2016-06-04T09:16:18Z</time>
      </trkpt>
      <trkpt lat="47.1778" lon="-0.07079">
        <ele>40.835</ele>
        <time>2016-06-04T09:15:58Z</time>
      </trkpt>
      <trkpt lat="47.18107" lon="-0.07201">
        <ele>37.808</ele>
        <time>2016-06-04T09:15:38Z</time>
      </trkpt>
      <trkpt lat="47.18166" lon="-0.07195">
        <ele>38.024</ele>
        <time>2016-06-04T09:15:18Z</time>
      </trkpt>
      <trkpt lat="47.1788" lon="-0.08182">
        <ele>30.031</ele>
        <time>2016-06-04T09:14:58Z</time>
      </trkpt>
      <trkpt lat="47.17967" lon="-0.08227">
        <ele>30.396</ele>
        <time>2016-06-04T09:14:38Z</time>
      </trkpt>
      <trkpt lat="47.18022" lon="-0.08274">
        <ele>32.837</ele>
        <time>2016-06-04T09:14:18Z</time>
      </trkpt>
      <trkpt lat="47.18131" lon="-0.08289">
        <ele>29.358</ele>
        <time>2016-06-04T09:13:58Z</time>
      </trkpt>
      <trkpt lat="47.18314" lon="-0.08283">
        <ele>30.152</ele>
        <time>2016-06-04T09:13:38Z</time>
      </trkpt>
      <trkpt lat="47.18314" lon="-0.08283">
        <ele>30.11</ele>
        <time>2016-06-04T09:13:18Z</time>
      </trkpt>
      <trkpt lat="47.1842" lon="-0.08253">
        <ele>31.944</ele>
        <time>2016-06-04T09:12:58Z</time>
      </trkpt>
      <trkpt lat="47.18522" lon="-0.08231">
        <ele>30.351</ele>
        <time>2016-06-04T09:12:38Z</time>
      </trkpt>
      <trkpt lat="47.18686" lon="-0.0825">
        <ele>30.066</ele>
        <time>2016-06-04T09:12:18Z</time>
      </trkpt>
      <trkpt lat="47.18772" lon="-0.08242">
        <ele>31.47</ele>
        <time>2016-06-04T09:11:38Z</time>
      </trkpt>
      <trkpt lat="47.18882" lon="-0.08259">
        <ele>27.508</ele>
        <time>2016-06-04T09:10:58Z</time>
      </trkpt>
      <trkpt lat="47.18916" lon="-0.08242">
        <ele>28.022</ele>
        <time>2016-06-04T09:10:38Z</time>
      </trkpt>
      <trkpt lat="47.1897" lon="-0.08225">
        <ele>28.802</ele>
        <time>2016-06-04T09:10:18Z</time>
      </trkpt>
      <trkpt lat="47.19057" lon="-0.0819">
        <ele>31.149</ele>
        <time>2016-06-04T09:09:58Z</time>
      </trkpt>
      <trkpt lat="47.19159" lon="-0.08096">
        <ele>31.111</ele>
        <time>2016-06-04T09:09:38Z</time>
      </trkpt>
      <trkpt lat="47.19245" lon="-0.08036">
        <ele>28.532</ele>
        <time>2016-06-04T09:09:18Z</time>
      </trkpt>
      <trkpt lat="47.1931" lon="-0.0801">
        <ele>27.616</ele>
        <time>2016-06-04T09:08:58Z</time>
      </trkpt>
      <trkpt lat="47.19308" lon="-0.07806">
        <ele>27.994</ele>
        <time>2016-06-04T09:08:38Z</time>
      </trkpt>
      <trkpt lat="47.19333" lon="-0.07778">
        <ele>29.068</ele>
        <time>2016-06-04T09:08:18Z</time>
      </trkpt>
      <trkpt lat="47.19366" lon="-0.07894">
        <ele>29.215</ele>
        <time>2016-06-04T09:07:58Z</time>
      </trkpt>
      <trkpt lat="47.19428" lon="-0.07905">
        <ele>31.06</ele>
        <time>2016-06-04T09:07:38Z</time>
      </trkpt>
      <trkpt lat="47.19432" lon="-0.07935">
        <ele>29.694</ele>
        <time>2016-06-04T09:07:18Z</time>
      </trkpt>
      <trkpt lat="47.1947" lon="-0.07982">
        <ele>29.608</ele>
        <time>2016-06-04T09:06:58Z</time>
      </trkpt>
      <trkpt lat="47.19498" lon="-0.07995">
        <ele>30.117</ele>
        <time>2016-06-04T09:06:38Z</time>
      </trkpt>
      <trkpt lat="47.196" lon="-0.08004">
        <ele>31.589</ele>
        <time>2016-06-04T09:06:18Z</time>
      </trkpt>
      <trkpt lat="47.19722" lon="-0.07993">
        <ele>38.385</ele>
        <time>2016-06-04T09:05:58Z</time>
      </trkpt>
      <trkpt lat="47.19786" lon="-0.08019">
        <ele>40.144</ele>
        <time>2016-06-04T09:05:38Z</time>
      </trkpt>
      <trkpt lat="47.19811" lon="-0.08014">
        <ele>42.455</ele>
        <time>2016-06-04T09:05:18Z</time>
      </trkpt>
      <trkpt lat="47.1981" lon="-0.07974">
        <ele>44.229</ele>
        <time>2016-06-04T09:04:58Z</time>
      </trkpt>
      <trkpt lat="47.19823" lon="-0.07941">
        <ele>46.427</ele>
        <time>2016-06-04T09:04:38Z</time>
      </trkpt>
      <trkpt lat="47.19862" lon="-0.07967">
        <ele>49.471</ele>
        <time>2016-06-04T09:04:18Z</time>
      </trkpt>
      <trkpt lat="47.19875" lon="-0.0801">
        <ele>48.278</ele>
        <time>2016-06-04T09:03:58Z</time>
      </trkpt>
      <trkpt lat="47.19909" lon="-0.08036">
        <ele>48.773</ele>
        <time>2016-06-04T09:03:38Z</time>
      </trkpt>
      <trkpt lat="47.19921" lon="-0.08098">
        <ele>39.577</ele>
        <time>2016-06-04T09:03:18Z</time>
      </trkpt>
      <trkpt lat="47.19945" lon="-0.08141">
        <ele>32.808</ele>
        <time>2016-06-04T09:02:58Z</time>
      </trkpt>
      <trkpt lat="47.19983" lon="-0.08156">
        <ele>33.719</ele>
        <time>2016-06-04T09:02:38Z</time>
      </trkpt>
      <trkpt lat="47.20046" lon="-0.08169">
        <ele>35.309</ele>
        <time>2016-06-04T09:02:18Z</time>
      </trkpt>
      <trkpt lat="47.20062" lon="-0.08205">
        <ele>30.919</ele>
        <time>2016-06-04T09:01:58Z</time>
      </trkpt>
      <trkpt lat="47.20086" lon="-0.08229">
        <ele>29.875</ele>
        <time>2016-06-04T09:01:38Z</time>
      </trkpt>
      <trkpt lat="47.20308" lon="-0.08278">
        <ele>30.076</ele>
        <time>2016-06-04T09:01:18Z</time>
      </trkpt>
      <trkpt lat="47.20526" lon="-0.0828">
        <ele>25.98</ele>
        <time>2016-06-04T09:00:58Z</time>
      </trkpt>
      <trkpt lat="47.20661" lon="-0.08214">
        <ele>27.588</ele>
        <time>2016-06-04T09:00:38Z</time>
      </trkpt>
      <trkpt lat="47.20828" lon="-0.08165">
        <ele>29.872</ele>
        <time>2016-06-04T09:00:18Z</time>
      </trkpt>
      <trkpt lat="47.20925" lon="-0.08122">
        <ele>29.079</ele>
        <time>2016-06-04T08:59:58Z</time>
      </trkpt>
      <trkpt lat="47.20961" lon="-0.08064">
        <ele>29.094</ele>
        <time>2016-06-04T08:59:38Z</time>
      </trkpt>
      <trkpt lat="47.21007" lon="-0.08032">
        <ele>29.338</ele>
        <time>2016-06-04T08:59:18Z</time>
      </trkpt>
      <trkpt lat="47.21014" lon="-0.07984">
        <ele>29.808</ele>
        <time>2016-06-04T08:58:58Z</time>
      </trkpt>
      <trkpt lat="47.21135" lon="-0.0795">
        <ele>30.814</ele>
        <time>2016-06-04T08:58:38Z</time>
      </trkpt>
      <trkpt lat="47.21253" lon="-0.07978">
        <ele>33.804</ele>
        <time>2016-06-04T08:58:18Z</time>
      </trkpt>
      <trkpt lat="47.2134" lon="-0.07944">
        <ele>33.724</ele>
        <time>2016-06-04T08:57:58Z</time>
      </trkpt>
      <trkpt lat="47.21495" lon="-0.07989">
        <ele>30.768</ele>
        <time>2016-06-04T08:57:38Z</time>
      </trkpt>
      <trkpt lat="47.21556" lon="-0.07961">
        <ele>28.869</ele>
        <time>2016-06-04T08:57:18Z</time>
      </trkpt>
      <trkpt lat="47.21673" lon="-0.07959">
        <ele>28.343</ele>
        <time>2016-06-04T08:56:58Z</time>
      </trkpt>
      <trkpt lat="47.21731" lon="-0.07974">
        <ele>27.351</ele>
        <time>2016-06-04T08:56:38Z</time>
      </trkpt>
      <trkpt lat="47.21805" lon="-0.08057">
        <ele>27.985</ele>
        <time>2016-06-04T08:56:18Z</time>
      </trkpt>
      <trkpt lat="47.21966" lon="-0.08128">
        <ele>26.432</ele>
        <time>2016-06-04T08:55:58Z</time>
      </trkpt>
      <trkpt lat="47.22044" lon="-0.08128">
        <ele>28.437</ele>
        <time>2016-06-04T08:55:38Z</time>
      </trkpt>
      <trkpt lat="47.22143" lon="-0.08145">
        <ele>28.961</ele>
        <time>2016-06-04T08:54:58Z</time>
      </trkpt>
      <trkpt lat="47.22248" lon="-0.08147">
        <ele>29.708</ele>
        <time>2016-06-04T08:54:38Z</time>
      </trkpt>
      <trkpt lat="47.22278" lon="-0.08156">
        <ele>29.008</ele>
        <time>2016-06-04T08:54:18Z</time>
      </trkpt>
      <trkpt lat="47.22484" lon="-0.08152">
        <ele>28.453</ele>
        <time>2016-06-04T08:53:58Z</time>
      </trkpt>
      <trkpt lat="47.22776" lon="-0.08032">
        <ele>30.052</ele>
        <time>2016-06-04T08:53:38Z</time>
      </trkpt>
      <trkpt lat="47.2291" lon="-0.07954">
        <ele>27.869</ele>
        <time>2016-06-04T08:53:18Z</time>
      </trkpt>
      <trkpt lat="47.23041" lon="-0.07929">
        <ele>30.79</ele>
        <time>2016-06-04T08:52:58Z</time>
      </trkpt>
      <trkpt lat="47.23158" lon="-0.07892">
        <ele>29.964</ele>
        <time>2016-06-04T08:52:38Z</time>
      </trkpt>
      <trkpt lat="47.2323" lon="-0.07856">
        <ele>26.462</ele>
        <time>2016-06-04T08:52:18Z</time>
      </trkpt>
      <trkpt lat="47.23305" lon="-0.07849">
        <ele>26.076</ele>
        <time>2016-06-04T08:51:58Z</time>
      </trkpt>
      <trkpt lat="47.23532" lon="-0.07793">
        <ele>28.613</ele>
        <time>2016-06-04T08:51:38Z</time>
      </trkpt>
      <trkpt lat="47.23707" lon="-0.07776">
        <ele>30.118</ele>
        <time>2016-06-04T08:51:18Z</time>
      </trkpt>
      <trkpt lat="47.23711" lon="-0.07929">
        <ele>26.642</ele>
        <time>2016-06-04T08:50:58Z</time>
      </trkpt>
      <trkpt lat="47.23742" lon="-0.07974">
        <ele>28.708</ele>
        <time>2016-06-04T08:50:38Z</time>
      </trkpt>
      <trkpt lat="47.23784" lon="-0.08072">
        <ele>25.326</ele>
        <time>2016-06-04T08:50:18Z</time>
      </trkpt>
      <trkpt lat="47.23772" lon="-0.08115">
        <ele>24.242</ele>
        <time>2016-06-04T08:49:58Z</time>
      </trkpt>
      <trkpt lat="47.2378" lon="-0.08162">
        <ele>24.068</ele>
        <time>2016-06-04T08:49:38Z</time>
      </trkpt>
      <trkpt lat="47.23794" lon="-0.082">
        <ele>25.115</ele>
        <time>2016-06-04T08:49:18Z</time>
      </trkpt>
      <trkpt lat="47.23809" lon="-0.08476">
        <ele>26.096</ele>
        <time>2016-06-04T08:48:58Z</time>
      </trkpt>
      <trkpt lat="47.23819" lon="-0.08527">
        <ele>25.51</ele>
        <time>2016-06-04T08:48:38Z</time>
      </trkpt>
      <trkpt lat="47.23902" lon="-0.08589">
        <ele>25.818</ele>
        <time>2016-06-04T08:48:18Z</time>
      </trkpt>
      <trkpt lat="47.24006" lon="-0.08632">
        <ele>25.452</ele>
        <time>2016-06-04T08:47:58Z</time>
      </trkpt>
      <trkpt lat="47.24032" lon="-0.08658">
        <ele>26.229</ele>
        <time>2016-06-04T08:47:38Z</time>
      </trkpt>
      <trkpt lat="47.24086" lon="-0.08665">
        <ele>26.094</ele>
        <time>2016-06-04T08:47:18Z</time>
      </trkpt>
      <trkpt lat="47.24111" lon="-0.08651">
        <ele>25.638</ele>
        <time>2016-06-04T08:46:58Z</time>
      </trkpt>
      <trkpt lat="47.24123" lon="-0.08584">
        <ele>27.408</ele>
        <time>2016-06-04T08:46:38Z</time>
      </trkpt>
      <trkpt lat="47.24176" lon="-0.086">
        <ele>27.717</ele>
        <time>2016-06-04T08:46:18Z</time>
      </trkpt>
      <trkpt lat="47.24277" lon="-0.08594">
        <ele>27.089</ele>
        <time>2016-06-04T08:45:58Z</time>
      </trkpt>
      <trkpt lat="47.24387" lon="-0.08532">
        <ele>25.128</ele>
        <time>2016-06-04T08:45:38Z</time>
      </trkpt>
      <trkpt lat="47.24457" lon="-0.08463">
        <ele>25.298</ele>
        <time>2016-06-04T08:45:18Z</time>
      </trkpt>
      <trkpt lat="47.24459" lon="-0.08478">
        <ele>25.029</ele>
        <time>2016-06-04T08:44:58Z</time>
      </trkpt>
      <trkpt lat="47.24479" lon="-0.08506">
        <ele>25.293</ele>
        <time>2016-06-04T08:44:38Z</time>
      </trkpt>
      <trkpt lat="47.24543" lon="-0.08501">
        <ele>24.171</ele>
        <time>2016-06-04T08:44:18Z</time>
      </trkpt>
      <trkpt lat="47.24623" lon="-0.08456">
        <ele>27.435</ele>
        <time>2016-06-04T08:43:18Z</time>
      </trkpt>
      <trkpt lat="47.24674" lon="-0.08456">
        <ele>26.262</ele>
        <time>2016-06-04T08:42:58Z</time>
      </trkpt>
      <trkpt lat="47.24718" lon="-0.08437">
        <ele>26.487</ele>
        <time>2016-06-04T08:42:38Z</time>
      </trkpt>
      <trkpt lat="47.24814" lon="-0.08433">
        <ele>30.481</ele>
        <time>2016-06-04T08:42:18Z</time>
      </trkpt>
      <trkpt lat="47.24947" lon="-0.08332">
        <ele>27.008</ele>
        <time>2016-06-04T08:41:58Z</time>
      </trkpt>
      <trkpt lat="47.25056" lon="-0.08298">
        <ele>28.014</ele>
        <time>2016-06-04T08:41:38Z</time>
      </trkpt>
      <trkpt lat="47.25132" lon="-0.08319">
        <ele>26.959</ele>
        <time>2016-06-04T08:40:58Z</time>
      </trkpt>
      <trkpt lat="47.25223" lon="-0.08381">
        <ele>29.356</ele>
        <time>2016-06-04T08:40:38Z</time>
      </trkpt>
      <trkpt lat="47.2528" lon="-0.08454">
        <ele>29.388</ele>
        <time>2016-06-04T08:40:18Z</time>
      </trkpt>
      <trkpt lat="47.25309" lon="-0.08493">
        <ele>29.329</ele>
        <time>2016-06-04T08:39:58Z</time>
      </trkpt>
      <trkpt lat="47.25388" lon="-0.08643">
        <ele>30.073</ele>
        <time>2016-06-04T08:39:38Z</time>
      </trkpt>
      <trkpt lat="47.25384" lon="-0.08707">
        <ele>30.041</ele>
        <time>2016-06-04T08:39:18Z</time>
      </trkpt>
      <trkpt lat="47.25419" lon="-0.08774">
        <ele>28.385</ele>
        <time>2016-06-04T08:38:58Z</time>
      </trkpt>
      <trkpt lat="47.25437" lon="-0.08776">
        <ele>29.622</ele>
        <time>2016-06-04T08:38:38Z</time>
      </trkpt>
      <trkpt lat="47.25449" lon="-0.08795">
        <ele>28.887</ele>
        <time>2016-06-04T08:38:18Z</time>
      </trkpt>
      <trkpt lat="47.25496" lon="-0.08815">
        <ele>28.331</ele>
        <time>2016-06-04T08:37:58Z</time>
      </trkpt>
      <trkpt lat="47.25526" lon="-0.08804">
        <ele>29.108</ele>
        <time>2016-06-04T08:37:38Z</time>
      </trkpt>
      <trkpt lat="47.25576" lon="-0.08798">
        <ele>32.717</ele>
        <time>2016-06-04T08:37:18Z</time>
      </trkpt>
      <trkpt lat="47.25641" lon="-0.08516">
        <ele>26.752</ele>
        <time>2016-06-04T08:36:58Z</time>
      </trkpt>
      <trkpt lat="47.25472" lon="-0.08197">
        <ele>28.158</ele>
        <time>2016-06-04T08:36:38Z</time>
      </trkpt>
      <trkpt lat="47.25443" lon="-0.0818">
        <ele>29.097</ele>
        <time>2016-06-04T08:36:18Z</time>
      </trkpt>
      <trkpt lat="47.25579" lon="-0.07932">
        <ele>29.298</ele>
        <time>2016-06-04T08:35:58Z</time>
      </trkpt>
      <trkpt lat="47.2557" lon="-0.079">
        <ele>30.172</ele>
        <time>2016-06-04T08:35:38Z</time>
      </trkpt>
      <trkpt lat="47.25611" lon="-0.07874">
        <ele>31.17</ele>
        <time>2016-06-04T08:35:18Z</time>
      </trkpt>
      <trkpt lat="47.2563" lon="-0.0784">
        <ele>33.484</ele>
        <time>2016-06-04T08:34:58Z</time>
      </trkpt>
      <trkpt lat="47.25703" lon="-0.07811">
        <ele>33.771</ele>
        <time>2016-06-04T08:34:38Z</time>
      </trkpt>
      <trkpt lat="47.25673" lon="-0.07684">
        <ele>37.426</ele>
        <time>2016-06-04T08:34:18Z</time>
      </trkpt>
      <trkpt lat="47.25673" lon="-0.07635">
        <ele>41.57</ele>
        <time>2016-06-04T08:33:58Z</time>
      </trkpt>
      <trkpt lat="47.25718" lon="-0.07638">
        <ele>43.708</ele>
        <time>2016-06-04T08:33:38Z</time>
      </trkpt>
      <trkpt lat="47.25744" lon="-0.07613">
        <ele>43.921</ele>
        <time>2016-06-04T08:33:18Z</time>
      </trkpt>
      <trkpt lat="47.25783" lon="-0.07608">
        <ele>41.229</ele>
        <time>2016-06-04T08:32:58Z</time>
      </trkpt>
      <trkpt lat="47.2582" lon="-0.07563">
        <ele>43.247</ele>
        <time>2016-06-04T08:32:38Z</time>
      </trkpt>
      <trkpt lat="47.25832" lon="-0.07539">
        <ele>42.587</ele>
        <time>2016-06-04T08:32:18Z</time>
      </trkpt>
      <trkpt lat="47.25829" lon="-0.07518">
        <ele>42.398</ele>
        <time>2016-06-04T08:31:58Z</time>
      </trkpt>
      <trkpt lat="47.2584" lon="-0.07503">
        <ele>40.432</ele>
        <time>2016-06-04T08:29:58Z</time>
      </trkpt>
      <trkpt lat="47.25856" lon="-0.07508">
        <ele>38.83</ele>
        <time>2016-06-04T08:29:38Z</time>
      </trkpt>
      <trkpt lat="47.25877" lon="-0.07493">
        <ele>37.164</ele>
        <time>2016-06-04T08:26:58Z</time>
      </trkpt>
      <trkpt lat="47.25906" lon="-0.07495">
        <ele>36.791</ele>
        <time>2016-06-04T08:26:38Z</time>
      </trkpt>
      <trkpt lat="47.25982" lon="-0.07448">
        <ele>35.846</ele>
        <time>2016-06-04T08:26:18Z</time>
      </trkpt>
      <trkpt lat="47.25995" lon="-0.0742">
        <ele>32.21</ele>
        <time>2016-06-04T08:25:58Z</time>
      </trkpt>
      <trkpt lat="47.26128" lon="-0.07678">
        <ele>36.108</ele>
        <time>2016-06-04T08:25:38Z</time>
      </trkpt>
      <trkpt lat="47.26128" lon="-0.07678">
        <ele>36.11</ele>
        <time>2016-06-04T08:25:18Z</time>
      </trkpt>
      <trkpt lat="47.26722" lon="-0.06991">
        <ele>28.264</ele>
        <time>2016-06-04T08:24:58Z</time>
      </trkpt>
      <trkpt lat="47.26553" lon="-0.06658">
        <ele>26.943</ele>
        <time>2016-06-04T08:24:38Z</time>
      </trkpt>
      <trkpt lat="47.26358" lon="-0.05648">
        <ele>29.748</ele>
        <time>2016-06-04T08:24:18Z</time>
      </trkpt>
      <trkpt lat="47.26358" lon="-0.05648">
        <ele>29.789</ele>
        <time>2016-06-04T08:23:58Z</time>
      </trkpt>
      <trkpt lat="47.26358" lon="-0.05645">
        <ele>29.683</ele>
        <time>2016-06-04T08:23:38Z</time>
      </trkpt>
      <trkpt lat="47.26441" lon="-0.05592">
        <ele>27.051</ele>
        <time>2016-06-04T08:23:18Z</time>
      </trkpt>
      <trkpt lat="47.26519" lon="-0.05564">
        <ele>27.225</ele>
        <time>2016-06-04T08:22:58Z</time>
      </trkpt>
      <trkpt lat="47.26624" lon="-0.05504">
        <ele>27.152</ele>
        <time>2016-06-04T08:22:38Z</time>
      </trkpt>
      <trkpt lat="47.2662" lon="-0.05489">
        <ele>26.787</ele>
        <time>2016-06-04T08:22:18Z</time>
      </trkpt>
      <trkpt lat="47.26562" lon="-0.05328">
        <ele>26.881</ele>
        <time>2016-06-04T08:21:58Z</time>
      </trkpt>
      <trkpt lat="47.26496" lon="-0.05173">
        <ele>26.908</ele>
        <time>2016-06-04T08:21:38Z</time>
      </trkpt>
      <trkpt lat="47.26457" lon="-0.05137">
        <ele>29.017</ele>
        <time>2016-06-04T08:21:18Z</time>
      </trkpt>
      <trkpt lat="47.26435" lon="-0.051">
        <ele>28.552</ele>
        <time>2016-06-04T08:20:58Z</time>
      </trkpt>
      <trkpt lat="47.26448" lon="-0.05034">
        <ele>27.358</ele>
        <time>2016-06-04T08:20:38Z</time>
      </trkpt>
      <trkpt lat="47.26506" lon="-0.04989">
        <ele>26.876</ele>
        <time>2016-06-04T08:20:18Z</time>
      </trkpt>
      <trkpt lat="47.26589" lon="-0.04967">
        <ele>25.067</ele>
        <time>2016-06-04T08:19:58Z</time>
      </trkpt>
      <trkpt lat="47.26677" lon="-0.04897">
        <ele>25.041</ele>
        <time>2016-06-04T08:19:38Z</time>
      </trkpt>
      <trkpt lat="47.2669" lon="-0.0486">
        <ele>25.059</ele>
        <time>2016-06-04T08:19:18Z</time>
      </trkpt>
      <trkpt lat="47.26715" lon="-0.04824">
        <ele>26.043</ele>
        <time>2016-06-04T08:18:58Z</time>
      </trkpt>
      <trkpt lat="47.26761" lon="-0.04727">
        <ele>25.04</ele>
        <time>2016-06-04T08:18:38Z</time>
      </trkpt>
      <trkpt lat="47.2692" lon="-0.04512">
        <ele>25.015</ele>
        <time>2016-06-04T08:18:18Z</time>
      </trkpt>
      <trkpt lat="47.26964" lon="-0.04403">
        <ele>23.889</ele>
        <time>2016-06-04T08:17:58Z</time>
      </trkpt>
      <trkpt lat="47.26977" lon="-0.04345">
        <ele>23.008</ele>
        <time>2016-06-04T08:17:38Z</time>
      </trkpt>
      <trkpt lat="47.27048" lon="-0.04266">
        <ele>26.015</ele>
        <time>2016-06-04T08:17:18Z</time>
      </trkpt>
      <trkpt lat="47.27038" lon="-0.04212">
        <ele>26.423</ele>
        <time>2016-06-04T08:16:58Z</time>
      </trkpt>
      <trkpt lat="47.27083" lon="-0.04143">
        <ele>25.033</ele>
        <time>2016-06-04T08:16:38Z</time>
      </trkpt>
      <trkpt lat="47.27099" lon="-0.04049">
        <ele>22.372</ele>
        <time>2016-06-04T08:16:18Z</time>
      </trkpt>
      <trkpt lat="47.27162" lon="-0.04017">
        <ele>22.323</ele>
        <time>2016-06-04T08:15:58Z</time>
      </trkpt>
      <trkpt lat="47.27207" lon="-0.03957">
        <ele>23.427</ele>
        <time>2016-06-04T08:15:38Z</time>
      </trkpt>
      <trkpt lat="47.27224" lon="-0.03895">
        <ele>24.075</ele>
        <time>2016-06-04T08:15:18Z</time>
      </trkpt>
      <trkpt lat="47.27288" lon="-0.0377">
        <ele>28.169</ele>
        <time>2016-06-04T08:14:58Z</time>
      </trkpt>
      <trkpt lat="47.27348" lon="-0.03744">
        <ele>25.536</ele>
        <time>2016-06-04T08:14:38Z</time>
      </trkpt>
      <trkpt lat="47.27466" lon="-0.03725">
        <ele>27.761</ele>
        <time>2016-06-04T08:14:18Z</time>
      </trkpt>
      <trkpt lat="47.27536" lon="-0.03736">
        <ele>24.735</ele>
        <time>2016-06-04T08:13:58Z</time>
      </trkpt>
      <trkpt lat="47.27675" lon="-0.03699">
        <ele>23.508</ele>
        <time>2016-06-04T08:13:38Z</time>
      </trkpt>
      <trkpt lat="47.27836" lon="-0.03611">
        <ele>25.026</ele>
        <time>2016-06-04T08:13:18Z</time>
      </trkpt>
      <trkpt lat="47.27955" lon="-0.03562">
        <ele>21.115</ele>
        <time>2016-06-04T08:12:58Z</time>
      </trkpt>
      <trkpt lat="47.27956" lon="-0.03427">
        <ele>23.098</ele>
        <time>2016-06-04T08:12:38Z</time>
      </trkpt>
      <trkpt lat="47.27968" lon="-0.03354">
        <ele>22.968</ele>
        <time>2016-06-04T08:12:18Z</time>
      </trkpt>
      <trkpt lat="47.27948" lon="-0.03214">
        <ele>23.069</ele>
        <time>2016-06-04T08:11:58Z</time>
      </trkpt>
      <trkpt lat="47.28026" lon="-0.03152">
        <ele>22.943</ele>
        <time>2016-06-04T08:11:38Z</time>
      </trkpt>
      <trkpt lat="47.28034" lon="-0.03111">
        <ele>23.011</ele>
        <time>2016-06-04T08:11:18Z</time>
      </trkpt>
      <trkpt lat="47.28006" lon="-0.03">
        <ele>23.225</ele>
        <time>2016-06-04T08:10:58Z</time>
      </trkpt>
      <trkpt lat="47.27969" lon="-0.02925">
        <ele>26.732</ele>
        <time>2020-12-24T17:41:35Z</time>
      </trkpt>
      <trkpt lat="47.28026" lon="-0.02827">
        <ele>29.617</ele>
        <time>2020-12-24T17:41:15Z</time>
      </trkpt>
      <trkpt lat="47.28108" lon="-0.02762">
        <ele>24.081</ele>
        <time>2020-12-24T17:40:55Z</time>
      </trkpt>
      <trkpt lat="47.28245" lon="-0.02583">
        <ele>22.008</ele>
        <time>2020-12-24T17:40:35Z</time>
      </trkpt>
      <trkpt lat="47.28249" lon="-0.02535">
        <ele>22.623</ele>
        <time>2020-12-24T17:40:15Z</time>
      </trkpt>
      <trkpt lat="47.2839" lon="-0.02382">
        <ele>23.303</ele>
        <time>2020-12-24T17:39:55Z</time>
      </trkpt>
      <trkpt lat="47.28782" lon="-0.02199">
        <ele>24.959</ele>
        <time>2016-06-04T08:01:18Z</time>
      </trkpt>
      <trkpt lat="47.29041" lon="-0.02004">
        <ele>23.419</ele>
        <time>2016-06-04T08:00:58Z</time>
      </trkpt>
      <trkpt lat="47.29144" lon="-0.01948">
        <ele>22.94</ele>
        <time>2016-06-04T08:00:38Z</time>
      </trkpt>
      <trkpt lat="47.29347" lon="-0.0179">
        <ele>23.414</ele>
        <time>2016-06-04T08:00:18Z</time>
      </trkpt>
      <trkpt lat="47.29463" lon="-0.01663">
        <ele>21.392</ele>
        <time>2016-06-04T07:59:58Z</time>
      </trkpt>
      <trkpt lat="47.29563" lon="-0.01581">
        <ele>24.056</ele>
        <time>2016-06-04T07:59:38Z</time>
      </trkpt>
      <trkpt lat="47.2954" lon="-0.01472">
        <ele>22.933</ele>
        <time>2016-06-04T07:59:18Z</time>
      </trkpt>
      <trkpt lat="47.2952" lon="-0.01262">
        <ele>20.718</ele>
        <time>2016-06-04T07:58:58Z</time>
      </trkpt>
      <trkpt lat="47.29537" lon="-0.01154">
        <ele>21.852</ele>
        <time>2016-06-04T07:58:38Z</time>
      </trkpt>
      <trkpt lat="47.29533" lon="-0.0103">
        <ele>25.008</ele>
        <time>2016-06-04T07:58:18Z</time>
      </trkpt>
      <trkpt lat="47.29542" lon="-0.00925">
        <ele>22.016</ele>
        <time>2016-06-04T07:57:58Z</time>
      </trkpt>
      <trkpt lat="47.29582" lon="-0.00833">
        <ele>22.006</ele>
        <time>2016-06-04T07:57:38Z</time>
      </trkpt>
      <trkpt lat="47.29563" lon="-0.00635">
        <ele>23.964</ele>
        <time>2016-06-04T07:57:18Z</time>
      </trkpt>
      <trkpt lat="47.29751" lon="-0.00562">
        <ele>24.029</ele>
        <time>2016-06-04T07:56:58Z</time>
      </trkpt>
      <trkpt lat="47.29835" lon="-0.00584">
        <ele>26.09</ele>
        <time>2016-06-04T07:56:38Z</time>
      </trkpt>
      <trkpt lat="47.29898" lon="-0.0059">
        <ele>25.484</ele>
        <time>2016-06-04T07:56:18Z</time>
      </trkpt>
      <trkpt lat="47.29972" lon="-0.0056">
        <ele>24.292</ele>
        <time>2016-06-04T07:55:58Z</time>
      </trkpt>
      <trkpt lat="47.30097" lon="-0.00487">
        <ele>25.786</ele>
        <time>2016-06-04T07:55:38Z</time>
      </trkpt>
      <trkpt lat="47.30193" lon="-0.00461">
        <ele>28.553</ele>
        <time>2016-06-04T07:55:18Z</time>
      </trkpt>
      <trkpt lat="47.30241" lon="-0.00524">
        <ele>28.918</ele>
        <time>2016-06-04T07:54:58Z</time>
      </trkpt>
      <trkpt lat="47.30333" lon="-0.00442">
        <ele>28.962</ele>
        <time>2016-06-04T07:54:38Z</time>
      </trkpt>
      <trkpt lat="47.3032" lon="-0.00408">
        <ele>27.808</ele>
        <time>2016-06-04T07:54:18Z</time>
      </trkpt>
      <trkpt lat="47.30276" lon="-0.00382">
        <ele>27.024</ele>
        <time>2016-06-04T07:53:58Z</time>
      </trkpt>
      <trkpt lat="47.30255" lon="-0.00298">
        <ele>27.504</ele>
        <time>2016-06-04T07:53:38Z</time>
      </trkpt>
      <trkpt lat="47.30282" lon="-0.00255">
        <ele>26.069</ele>
        <time>2016-06-04T07:53:18Z</time>
      </trkpt>
      <trkpt lat="47.30256" lon="-0.00129">
        <ele>28.289</ele>
        <time>2016-06-04T07:52:58Z</time>
      </trkpt>
      <trkpt lat="47.30246" lon="-0.00034">
        <ele>28.84</ele>
        <time>2016-06-04T07:52:38Z</time>
      </trkpt>
      <trkpt lat="47.30182" lon="0.00223">
        <ele>27.154</ele>
        <time>2016-06-04T07:52:18Z</time>
      </trkpt>
      <trkpt lat="47.3016" lon="0.00421">
        <ele>27.752</ele>
        <time>2016-06-04T07:51:58Z</time>
      </trkpt>
      <trkpt lat="47.30259" lon="0.00416">
        <ele>28.346</ele>
        <time>2016-06-04T07:51:38Z</time>
      </trkpt>
      <trkpt lat="47.30352" lon="0.00479">
        <ele>29.053</ele>
        <time>2016-06-04T07:51:18Z</time>
      </trkpt>
      <trkpt lat="47.30319" lon="0.00526">
        <ele>29.048</ele>
        <time>2016-06-04T07:50:58Z</time>
      </trkpt>
      <trkpt lat="47.30236" lon="0.00577">
        <ele>27.982</ele>
        <time>2016-06-04T07:50:38Z</time>
      </trkpt>
      <trkpt lat="47.3015" lon="0.00614">
        <ele>28.108</ele>
        <time>2016-06-04T07:50:18Z</time>
      </trkpt>
      <trkpt lat="47.30148" lon="0.00642">
        <ele>29.113</ele>
        <time>2016-06-04T07:49:58Z</time>
      </trkpt>
      <trkpt lat="47.30141" lon="0.00809">
        <ele>29.821</ele>
        <time>2016-06-04T07:49:38Z</time>
      </trkpt>
      <trkpt lat="47.30112" lon="0.00914">
        <ele>28.961</ele>
        <time>2016-06-04T07:49:18Z</time>
      </trkpt>
      <trkpt lat="47.3018" lon="0.00991">
        <ele>30.295</ele>
        <time>2016-06-04T07:48:58Z</time>
      </trkpt>
      <trkpt lat="47.30135" lon="0.01114">
        <ele>35.056</ele>
        <time>2016-06-04T07:48:38Z</time>
      </trkpt>
      <trkpt lat="47.30122" lon="0.012">
        <ele>35.42</ele>
        <time>2016-06-04T07:48:18Z</time>
      </trkpt>
      <trkpt lat="47.30131" lon="0.01253">
        <ele>36.778</ele>
        <time>2016-06-04T07:47:58Z</time>
      </trkpt>
      <trkpt lat="47.3016" lon="0.01356">
        <ele>37.032</ele>
        <time>2016-06-04T07:47:38Z</time>
      </trkpt>
      <trkpt lat="47.30166" lon="0.01704">
        <ele>39.059</ele>
        <time>2016-06-04T07:47:18Z</time>
      </trkpt>
      <trkpt lat="47.30183" lon="0.01891">
        <ele>40.054</ele>
        <time>2016-06-04T07:46:58Z</time>
      </trkpt>
      <trkpt lat="47.30185" lon="0.02043">
        <ele>38.868</ele>
        <time>2016-06-04T07:46:38Z</time>
      </trkpt>
      <trkpt lat="47.3015" lon="0.02363">
        <ele>39.608</ele>
        <time>2016-06-04T07:46:18Z</time>
      </trkpt>
      <trkpt lat="47.30108" lon="0.02468">
        <ele>40.02</ele>
        <time>2016-06-04T07:45:58Z</time>
      </trkpt>
      <trkpt lat="47.30071" lon="0.0259">
        <ele>39.9</ele>
        <time>2016-06-04T07:45:38Z</time>
      </trkpt>
      <trkpt lat="47.30049" lon="0.02749">
        <ele>40.229</ele>
        <time>2016-06-04T07:45:18Z</time>
      </trkpt>
      <trkpt lat="47.30057" lon="0.02809">
        <ele>40.049</ele>
        <time>2016-06-04T07:44:58Z</time>
      </trkpt>
      <trkpt lat="47.30028" lon="0.02933">
        <ele>40.05</ele>
        <time>2016-06-04T07:44:38Z</time>
      </trkpt>
      <trkpt lat="47.30022" lon="0.03021">
        <ele>40.844</ele>
        <time>2016-06-04T07:44:18Z</time>
      </trkpt>
      <trkpt lat="47.30022" lon="0.033">
        <ele>41.632</ele>
        <time>2016-06-04T07:43:58Z</time>
      </trkpt>
      <trkpt lat="47.30007" lon="0.03356">
        <ele>42.836</ele>
        <time>2016-06-04T07:43:38Z</time>
      </trkpt>
      <trkpt lat="47.29945" lon="0.03412">
        <ele>40.063</ele>
        <time>2016-06-04T07:43:18Z</time>
      </trkpt>
      <trkpt lat="47.29866" lon="0.03607">
        <ele>41.038</ele>
        <time>2016-06-04T07:42:58Z</time>
      </trkpt>
      <trkpt lat="47.29961" lon="0.03682">
        <ele>39.892</ele>
        <time>2016-06-04T07:42:38Z</time>
      </trkpt>
      <trkpt lat="47.29981" lon="0.03678">
        <ele>40.108</ele>
        <time>2016-06-04T07:42:18Z</time>
      </trkpt>
      <trkpt lat="47.30009" lon="0.03603">
        <ele>40.018</ele>
        <time>2016-06-04T07:41:58Z</time>
      </trkpt>
      <trkpt lat="47.30028" lon="0.03603">
        <ele>40.044</ele>
        <time>2016-06-04T07:41:38Z</time>
      </trkpt>
      <trkpt lat="47.30045" lon="0.03616">
        <ele>40.763</ele>
        <time>2016-06-04T07:41:18Z</time>
      </trkpt>
      <trkpt lat="47.30122" lon="0.03661">
        <ele>43.456</ele>
        <time>2016-06-04T07:40:58Z</time>
      </trkpt>
      <trkpt lat="47.30273" lon="0.0379">
        <ele>41.567</ele>
        <time>2016-06-04T07:40:38Z</time>
      </trkpt>
      <trkpt lat="47.30305" lon="0.03848">
        <ele>42.021</ele>
        <time>2016-06-04T07:40:18Z</time>
      </trkpt>
      <trkpt lat="47.30349" lon="0.03873">
        <ele>42.639</ele>
        <time>2016-06-04T07:39:58Z</time>
      </trkpt>
      <trkpt lat="47.30423" lon="0.0386">
        <ele>44.263</ele>
        <time>2016-06-04T07:39:38Z</time>
      </trkpt>
      <trkpt lat="47.3058" lon="0.03901">
        <ele>46.32</ele>
        <time>2016-06-04T07:39:18Z</time>
      </trkpt>
      <trkpt lat="47.30621" lon="0.03933">
        <ele>50.035</ele>
        <time>2016-06-04T07:38:58Z</time>
      </trkpt>
      <trkpt lat="47.30928" lon="0.04117">
        <ele>67.329</ele>
        <time>2016-06-04T07:38:38Z</time>
      </trkpt>
      <trkpt lat="47.30977" lon="0.04108">
        <ele>70.208</ele>
        <time>2016-06-04T07:38:18Z</time>
      </trkpt>
      <trkpt lat="47.31013" lon="0.04067">
        <ele>73.821</ele>
        <time>2016-06-04T07:37:58Z</time>
      </trkpt>
      <trkpt lat="47.31047" lon="0.0407">
        <ele>76.701</ele>
        <time>2016-06-04T07:37:38Z</time>
      </trkpt>
      <trkpt lat="47.31102" lon="0.04145">
        <ele>77.839</ele>
        <time>2016-06-04T07:37:18Z</time>
      </trkpt>
      <trkpt lat="47.31179" lon="0.04329">
        <ele>84.196</ele>
        <time>2016-06-04T07:36:58Z</time>
      </trkpt>
      <trkpt lat="47.31211" lon="0.0446">
        <ele>87.957</ele>
        <time>2016-06-04T07:36:38Z</time>
      </trkpt>
      <trkpt lat="47.31249" lon="0.04529">
        <ele>87.081</ele>
        <time>2016-06-04T07:36:18Z</time>
      </trkpt>
      <trkpt lat="47.313" lon="0.04557">
        <ele>84.919</ele>
        <time>2016-06-04T07:35:58Z</time>
      </trkpt>
      <trkpt lat="47.314" lon="0.04735">
        <ele>92.263</ele>
        <time>2016-06-04T07:35:38Z</time>
      </trkpt>
      <trkpt lat="47.31477" lon="0.0479">
        <ele>96.15</ele>
        <time>2016-06-04T07:35:18Z</time>
      </trkpt>
      <trkpt lat="47.31553" lon="0.04893">
        <ele>103.575</ele>
        <time>2016-06-04T07:34:58Z</time>
      </trkpt>
      <trkpt lat="47.31553" lon="0.04893">
        <ele>103.569</ele>
        <time>2016-06-04T07:34:58Z</time>
      </trkpt>
      <trkpt lat="47.31774" lon="0.05303">
        <ele>95.808</ele>
        <time>2019-10-27T15:16:38Z</time>
      </trkpt>
      <trkpt lat="47.31791" lon="0.05348">
        <ele>96.211</ele>
        <time>2019-10-27T15:16:18Z</time>
      </trkpt>
      <trkpt lat="47.31825" lon="0.05385">
        <ele>94.592</ele>
        <time>2019-10-27T15:15:58Z</time>
      </trkpt>
      <trkpt lat="47.3189" lon="0.05411">
        <ele>92.532</ele>
        <time>2019-10-27T15:15:38Z</time>
      </trkpt>
      <trkpt lat="47.32065" lon="0.05563">
        <ele>89.975</ele>
        <time>2019-10-27T15:15:18Z</time>
      </trkpt>
      <trkpt lat="47.32293" lon="0.05728">
        <ele>89.976</ele>
        <time>2019-10-27T15:14:58Z</time>
      </trkpt>
      <trkpt lat="47.32387" lon="0.0589">
        <ele>98.16</ele>
        <time>2019-10-27T15:14:38Z</time>
      </trkpt>
      <trkpt lat="47.32566" lon="0.05847">
        <ele>103.278</ele>
        <time>2019-10-27T15:14:18Z</time>
      </trkpt>
      <trkpt lat="47.32617" lon="0.05775">
        <ele>108.522</ele>
        <time>2019-10-27T15:13:58Z</time>
      </trkpt>
      <trkpt lat="47.32579" lon="0.06058">
        <ele>109.399</ele>
        <time>2019-10-27T15:13:38Z</time>
      </trkpt>
      <trkpt lat="47.32469" lon="0.06156">
        <ele>109.714</ele>
        <time>2019-10-27T15:13:18Z</time>
      </trkpt>
      <trkpt lat="47.32377" lon="0.06249">
        <ele>111.128</ele>
        <time>2019-10-27T15:12:58Z</time>
      </trkpt>
      <trkpt lat="47.3263" lon="0.062">
        <ele>113.008</ele>
        <time>2019-10-27T15:12:38Z</time>
      </trkpt>
      <trkpt lat="47.32682" lon="0.06207">
        <ele>113.314</ele>
        <time>2019-10-27T15:12:18Z</time>
      </trkpt>
      <trkpt lat="47.33178" lon="0.06361">
        <ele>109.468</ele>
        <time>2019-10-27T15:11:58Z</time>
      </trkpt>
      <trkpt lat="47.3342" lon="0.06511">
        <ele>102.327</ele>
        <time>2019-10-27T15:11:38Z</time>
      </trkpt>
      <trkpt lat="47.33561" lon="0.06651">
        <ele>99.869</ele>
        <time>2019-10-27T15:11:18Z</time>
      </trkpt>
      <trkpt lat="47.33678" lon="0.0673">
        <ele>102.05</ele>
        <time>2019-10-27T15:10:58Z</time>
      </trkpt>
      <trkpt lat="47.33727" lon="0.06737">
        <ele>102.694</ele>
        <time>2019-10-27T15:10:38Z</time>
      </trkpt>
      <trkpt lat="47.33895" lon="0.06881">
        <ele>110.612</ele>
        <time>2019-10-27T15:10:18Z</time>
      </trkpt>
      <trkpt lat="47.33973" lon="0.06919">
        <ele>110.066</ele>
        <time>2019-10-27T15:09:58Z</time>
      </trkpt>
      <trkpt lat="47.33993" lon="0.07053">
        <ele>108.683</ele>
        <time>2019-10-27T15:09:38Z</time>
      </trkpt>
      <trkpt lat="47.34014" lon="0.07115">
        <ele>110.558</ele>
        <time>2019-10-27T15:09:18Z</time>
      </trkpt>
      <trkpt lat="47.34057" lon="0.07323">
        <ele>102.682</ele>
        <time>2019-10-27T15:08:58Z</time>
      </trkpt>
      <trkpt lat="47.34094" lon="0.07467">
        <ele>100.908</ele>
        <time>2019-10-27T15:08:38Z</time>
      </trkpt>
      <trkpt lat="47.34115" lon="0.07594">
        <ele>103.424</ele>
        <time>2019-10-27T15:08:18Z</time>
      </trkpt>
      <trkpt lat="47.34053" lon="0.07681">
        <ele>107.004</ele>
        <time>2019-10-27T15:07:58Z</time>
      </trkpt>
      <trkpt lat="47.34078" lon="0.07783">
        <ele>108.869</ele>
        <time>2019-10-27T15:07:38Z</time>
      </trkpt>
      <trkpt lat="47.34117" lon="0.07873">
        <ele>108.088</ele>
        <time>2019-10-27T15:07:18Z</time>
      </trkpt>
      <trkpt lat="47.34225" lon="0.08061">
        <ele>110.649</ele>
        <time>2019-10-27T15:06:58Z</time>
      </trkpt>
      <trkpt lat="47.34284" lon="0.08256">
        <ele>109.493</ele>
        <time>2019-10-27T15:06:38Z</time>
      </trkpt>
      <trkpt lat="47.34377" lon="0.08325">
        <ele>108.961</ele>
        <time>2019-10-27T15:06:18Z</time>
      </trkpt>
      <trkpt lat="47.34426" lon="0.08336">
        <ele>110.775</ele>
        <time>2019-10-27T15:05:58Z</time>
      </trkpt>
      <trkpt lat="47.34463" lon="0.08332">
        <ele>112.722</ele>
        <time>2019-10-27T15:05:38Z</time>
      </trkpt>
      <trkpt lat="47.34494" lon="0.08337">
        <ele>112.947</ele>
        <time>2019-10-27T15:05:18Z</time>
      </trkpt>
      <trkpt lat="47.34542" lon="0.08359">
        <ele>110.111</ele>
        <time>2019-10-27T15:04:58Z</time>
      </trkpt>
      <trkpt lat="47.3512" lon="0.08902">
        <ele>114.508</ele>
        <time>2019-10-27T15:04:38Z</time>
      </trkpt>
      <trkpt lat="47.35211" lon="0.09018">
        <ele>120.223</ele>
        <time>2019-10-27T15:04:18Z</time>
      </trkpt>
      <trkpt lat="47.35357" lon="0.09154">
        <ele>113.503</ele>
        <time>2016-06-02T21:48:13Z</time>
      </trkpt>
      <trkpt lat="47.35429" lon="0.09233">
        <ele>113.059</ele>
        <time>2016-06-02T21:47:53Z</time>
      </trkpt>
      <trkpt lat="47.35521" lon="0.09297">
        <ele>117.52</ele>
        <time>2016-06-02T21:47:33Z</time>
      </trkpt>
      <trkpt lat="47.35607" lon="0.09402">
        <ele>113.521</ele>
        <time>2016-06-02T21:47:13Z</time>
      </trkpt>
      <trkpt lat="47.35699" lon="0.09496">
        <ele>115.165</ele>
        <time>2016-06-02T21:46:53Z</time>
      </trkpt>
      <trkpt lat="47.35708" lon="0.09356">
        <ele>117.193</ele>
        <time>2016-06-02T21:46:33Z</time>
      </trkpt>
      <trkpt lat="47.35701" lon="0.09162">
        <ele>112.837</ele>
        <time>2016-06-02T21:46:13Z</time>
      </trkpt>
      <trkpt lat="47.35715" lon="0.08987">
        <ele>114.044</ele>
        <time>2016-06-02T21:45:53Z</time>
      </trkpt>
      <trkpt lat="47.35811" lon="0.08805">
        <ele>107.839</ele>
        <time>2016-06-02T21:45:33Z</time>
      </trkpt>
      <trkpt lat="47.35801" lon="0.08714">
        <ele>108.723</ele>
        <time>2016-06-02T21:45:13Z</time>
      </trkpt>
      <trkpt lat="47.35962" lon="0.08557">
        <ele>100.308</ele>
        <time>2016-06-02T21:44:53Z</time>
      </trkpt>
      <trkpt lat="47.35986" lon="0.08594">
        <ele>99.313</ele>
        <time>2016-06-02T21:44:33Z</time>
      </trkpt>
      <trkpt lat="47.36042" lon="0.08611">
        <ele>100.585</ele>
        <time>2016-06-02T21:44:13Z</time>
      </trkpt>
      <trkpt lat="47.3611" lon="0.08555">
        <ele>100.073</ele>
        <time>2016-06-02T21:43:53Z</time>
      </trkpt>
      <trkpt lat="47.36109" lon="0.08624">
        <ele>103.33</ele>
        <time>2016-06-02T21:43:33Z</time>
      </trkpt>
      <trkpt lat="47.36154" lon="0.08749">
        <ele>106.681</ele>
        <time>2016-06-02T21:43:13Z</time>
      </trkpt>
      <trkpt lat="47.3617" lon="0.08848">
        <ele>109.855</ele>
        <time>2016-06-02T21:42:53Z</time>
      </trkpt>
      <trkpt lat="47.36391" lon="0.09357">
        <ele>111.193</ele>
        <time>2016-06-02T21:42:33Z</time>
      </trkpt>
      <trkpt lat="47.36391" lon="0.09357">
        <ele>111.197</ele>
        <time>2016-06-02T21:41:53Z</time>
      </trkpt>
      <trkpt lat="47.36567" lon="0.09517">
        <ele>120.484</ele>
        <time>2016-06-02T21:41:33Z</time>
      </trkpt>
      <trkpt lat="47.36646" lon="0.09598">
        <ele>122.989</ele>
        <time>2016-06-02T21:41:13Z</time>
      </trkpt>
      <trkpt lat="47.36681" lon="0.09636">
        <ele>120.433</ele>
        <time>2016-06-02T21:40:53Z</time>
      </trkpt>
      <trkpt lat="47.36733" lon="0.0971">
        <ele>121.208</ele>
        <time>2016-06-02T21:40:33Z</time>
      </trkpt>
      <trkpt lat="47.36756" lon="0.09734">
        <ele>122.427</ele>
        <time>2016-06-02T21:40:13Z</time>
      </trkpt>
      <trkpt lat="47.36852" lon="0.09787">
        <ele>116.061</ele>
        <time>2016-06-02T21:39:53Z</time>
      </trkpt>
      <trkpt lat="47.3708" lon="0.09995">
        <ele>118.777</ele>
        <time>2016-06-02T21:39:33Z</time>
      </trkpt>
      <trkpt lat="47.37222" lon="0.10184">
        <ele>116.058</ele>
        <time>2016-06-02T21:39:13Z</time>
      </trkpt>
      <trkpt lat="47.37257" lon="0.10227">
        <ele>117.079</ele>
        <time>2016-06-02T21:38:13Z</time>
      </trkpt>
      <trkpt lat="47.37293" lon="0.10261">
        <ele>115.343</ele>
        <time>2016-06-02T21:37:33Z</time>
      </trkpt>
      <trkpt lat="47.37326" lon="0.10314">
        <ele>115.831</ele>
        <time>2016-06-02T21:37:13Z</time>
      </trkpt>
      <trkpt lat="47.37352" lon="0.10339">
        <ele>117.635</ele>
        <time>2016-06-02T21:36:53Z</time>
      </trkpt>
      <trkpt lat="47.3743" lon="0.1051">
        <ele>111.072</ele>
        <time>2016-06-02T21:36:33Z</time>
      </trkpt>
      <trkpt lat="47.37478" lon="0.10581">
        <ele>105.767</ele>
        <time>2016-06-02T21:36:13Z</time>
      </trkpt>
      <trkpt lat="47.37497" lon="0.10628">
        <ele>107.651</ele>
        <time>2016-06-02T21:35:53Z</time>
      </trkpt>
      <trkpt lat="47.37608" lon="0.10819">
        <ele>104.508</ele>
        <time>2016-06-02T21:35:33Z</time>
      </trkpt>
      <trkpt lat="47.3764" lon="0.10861">
        <ele>104.111</ele>
        <time>2016-06-02T21:35:13Z</time>
      </trkpt>
      <trkpt lat="47.37691" lon="0.109">
        <ele>104.256</ele>
        <time>2016-06-02T21:34:53Z</time>
      </trkpt>
      <trkpt lat="47.37776" lon="0.11025">
        <ele>95.154</ele>
        <time>2016-06-02T21:34:33Z</time>
      </trkpt>
      <trkpt lat="47.37794" lon="0.11081">
        <ele>94.718</ele>
        <time>2016-06-02T21:33:13Z</time>
      </trkpt>
      <trkpt lat="47.37839" lon="0.1115">
        <ele>89.149</ele>
        <time>2016-06-02T21:32:53Z</time>
      </trkpt>
      <trkpt lat="47.37929" lon="0.11205">
        <ele>86.023</ele>
        <time>2016-06-02T21:32:33Z</time>
      </trkpt>
      <trkpt lat="47.38033" lon="0.1127">
        <ele>87.561</ele>
        <time>2016-06-02T21:32:13Z</time>
      </trkpt>
      <trkpt lat="47.38161" lon="0.11341">
        <ele>82.955</ele>
        <time>2016-06-02T21:30:53Z</time>
      </trkpt>
      <trkpt lat="47.38269" lon="0.11341">
        <ele>82.742</ele>
        <time>2016-06-02T21:30:33Z</time>
      </trkpt>
      <trkpt lat="47.38269" lon="0.11413">
        <ele>81.117</ele>
        <time>2016-06-02T21:30:13Z</time>
      </trkpt>
      <trkpt lat="47.38269" lon="0.11413">
        <ele>81.151</ele>
        <time>2016-06-02T21:29:53Z</time>
      </trkpt>
      <trkpt lat="47.38238" lon="0.11801">
        <ele>79.008</ele>
        <time>2016-06-02T21:29:33Z</time>
      </trkpt>
      <trkpt lat="47.3825" lon="0.11824">
        <ele>78.317</ele>
        <time>2016-06-02T21:29:13Z</time>
      </trkpt>
      <trkpt lat="47.38455" lon="0.11968">
        <ele>79.207</ele>
        <time>2016-06-02T21:28:53Z</time>
      </trkpt>
      <trkpt lat="47.3853" lon="0.11995">
        <ele>77.255</ele>
        <time>2016-06-02T21:28:33Z</time>
      </trkpt>
      <trkpt lat="47.3857" lon="0.12001">
        <ele>76.544</ele>
        <time>2016-06-02T21:28:13Z</time>
      </trkpt>
      <trkpt lat="47.38688" lon="0.11965">
        <ele>74.535</ele>
        <time>2016-06-02T21:27:53Z</time>
      </trkpt>
      <trkpt lat="47.38715" lon="0.11938">
        <ele>75.219</ele>
        <time>2016-06-02T21:27:33Z</time>
      </trkpt>
      <trkpt lat="47.38733" lon="0.11894">
        <ele>73.497</ele>
        <time>2016-06-02T21:27:13Z</time>
      </trkpt>
      <trkpt lat="47.38873" lon="0.11855">
        <ele>73.221</ele>
        <time>2016-06-02T21:26:53Z</time>
      </trkpt>
      <trkpt lat="47.38906" lon="0.1187">
        <ele>73.268</ele>
        <time>2016-06-02T21:26:33Z</time>
      </trkpt>
      <trkpt lat="47.38935" lon="0.11877">
        <ele>74.793</ele>
        <time>2016-06-02T21:26:13Z</time>
      </trkpt>
      <trkpt lat="47.39014" lon="0.11863">
        <ele>80.117</ele>
        <time>2016-06-02T21:25:53Z</time>
      </trkpt>
      <trkpt lat="47.39101" lon="0.11818">
        <ele>78.908</ele>
        <time>2016-06-02T21:25:33Z</time>
      </trkpt>
      <trkpt lat="47.39162" lon="0.11842">
        <ele>81.505</ele>
        <time>2016-06-02T21:25:13Z</time>
      </trkpt>
      <trkpt lat="47.39212" lon="0.1183">
        <ele>78.832</ele>
        <time>2016-06-02T21:24:53Z</time>
      </trkpt>
      <trkpt lat="47.39262" lon="0.118">
        <ele>75.312</ele>
        <time>2016-06-02T21:24:33Z</time>
      </trkpt>
      <trkpt lat="47.39315" lon="0.11719">
        <ele>72.596</ele>
        <time>2016-06-02T21:24:13Z</time>
      </trkpt>
      <trkpt lat="47.39359" lon="0.11781">
        <ele>70.337</ele>
        <time>2016-06-02T21:23:53Z</time>
      </trkpt>
      <trkpt lat="47.39389" lon="0.11865">
        <ele>73.041</ele>
        <time>2016-06-02T21:23:33Z</time>
      </trkpt>
      <trkpt lat="47.39502" lon="0.12306">
        <ele>70.919</ele>
        <time>2016-06-02T21:23:13Z</time>
      </trkpt>
      <trkpt lat="47.39597" lon="0.12528">
        <ele>68.513</ele>
        <time>2016-06-02T21:22:53Z</time>
      </trkpt>
      <trkpt lat="47.39635" lon="0.12639">
        <ele>68.11</ele>
        <time>2016-06-02T21:22:33Z</time>
      </trkpt>
      <trkpt lat="47.39733" lon="0.12854">
        <ele>66.095</ele>
        <time>2016-06-02T21:22:13Z</time>
      </trkpt>
      <trkpt lat="47.39775" lon="0.12922">
        <ele>66.119</ele>
        <time>2016-06-02T21:21:53Z</time>
      </trkpt>
      <trkpt lat="47.39863" lon="0.131">
        <ele>68.108</ele>
        <time>2016-06-02T21:21:33Z</time>
      </trkpt>
      <trkpt lat="47.39991" lon="0.13341">
        <ele>69.007</ele>
        <time>2016-06-02T21:21:13Z</time>
      </trkpt>
      <trkpt lat="47.40014" lon="0.13333">
        <ele>68.561</ele>
        <time>2016-06-02T21:20:53Z</time>
      </trkpt>
      <trkpt lat="47.40088" lon="0.13466">
        <ele>67.831</ele>
        <time>2016-06-02T21:20:33Z</time>
      </trkpt>
      <trkpt lat="47.4014" lon="0.13594">
        <ele>67.052</ele>
        <time>2016-06-02T21:20:13Z</time>
      </trkpt>
      <trkpt lat="47.40164" lon="0.13688">
        <ele>68.823</ele>
        <time>2016-06-02T21:19:53Z</time>
      </trkpt>
      <trkpt lat="47.40209" lon="0.13799">
        <ele>67.617</ele>
        <time>2016-06-02T21:19:33Z</time>
      </trkpt>
      <trkpt lat="47.40382" lon="0.1449">
        <ele>67.875</ele>
        <time>2016-06-02T21:19:13Z</time>
      </trkpt>
      <trkpt lat="47.40474" lon="0.14714">
        <ele>66.119</ele>
        <time>2016-06-02T21:18:53Z</time>
      </trkpt>
      <trkpt lat="47.40502" lon="0.14757">
        <ele>68.336</ele>
        <time>2016-06-02T21:18:33Z</time>
      </trkpt>
      <trkpt lat="47.40513" lon="0.14817">
        <ele>68.681</ele>
        <time>2016-06-02T21:18:13Z</time>
      </trkpt>
      <trkpt lat="47.40519" lon="0.14884">
        <ele>67.935</ele>
        <time>2016-06-02T21:17:53Z</time>
      </trkpt>
      <trkpt lat="47.40571" lon="0.15002">
        <ele>67.608</ele>
        <time>2016-06-02T21:17:33Z</time>
      </trkpt>
      <trkpt lat="47.40374" lon="0.15243">
        <ele>70.327</ele>
        <time>2016-06-02T21:17:13Z</time>
      </trkpt>
      <trkpt lat="47.40421" lon="0.15319">
        <ele>70.907</ele>
        <time>2016-06-02T21:16:53Z</time>
      </trkpt>
      <trkpt lat="47.40421" lon="0.15393">
        <ele>72.099</ele>
        <time>2016-06-02T21:16:33Z</time>
      </trkpt>
      <trkpt lat="47.4043" lon="0.15524">
        <ele>73.529</ele>
        <time>2016-06-02T21:16:13Z</time>
      </trkpt>
      <trkpt lat="47.40444" lon="0.15637">
        <ele>73.09</ele>
        <time>2016-06-02T21:15:53Z</time>
      </trkpt>
      <trkpt lat="47.4044" lon="0.16072">
        <ele>73.014</ele>
        <time>2016-06-02T21:15:33Z</time>
      </trkpt>
      <trkpt lat="47.40447" lon="0.1621">
        <ele>71.572</ele>
        <time>2016-06-02T21:15:13Z</time>
      </trkpt>
      <trkpt lat="47.40422" lon="0.16201">
        <ele>71.636</ele>
        <time>2016-06-02T21:14:53Z</time>
      </trkpt>
      <trkpt lat="47.40364" lon="0.16374">
        <ele>72.983</ele>
        <time>2016-06-02T21:14:33Z</time>
      </trkpt>
      <trkpt lat="47.40354" lon="0.16421">
        <ele>73.038</ele>
        <time>2016-06-02T21:14:13Z</time>
      </trkpt>
      <trkpt lat="47.40321" lon="0.16476">
        <ele>72.912</ele>
        <time>2016-06-02T21:13:53Z</time>
      </trkpt>
      <trkpt lat="47.40294" lon="0.16467">
        <ele>73.008</ele>
        <time>2016-06-02T21:13:33Z</time>
      </trkpt>
      <trkpt lat="47.40281" lon="0.16521">
        <ele>72.013</ele>
        <time>2016-06-02T21:13:13Z</time>
      </trkpt>
      <trkpt lat="47.40609" lon="0.16801">
        <ele>72.821</ele>
        <time>2016-06-02T21:12:53Z</time>
      </trkpt>
      <trkpt lat="47.40915" lon="0.1705">
        <ele>74.061</ele>
        <time>2016-06-02T21:12:33Z</time>
      </trkpt>
      <trkpt lat="47.41094" lon="0.17154">
        <ele>78.214</ele>
        <time>2016-06-02T21:12:13Z</time>
      </trkpt>
      <trkpt lat="47.41758" lon="0.17651">
        <ele>77.085</ele>
        <time>2016-06-02T21:11:53Z</time>
      </trkpt>
      <trkpt lat="47.41813" lon="0.17683">
        <ele>78.969</ele>
        <time>2016-06-02T21:11:33Z</time>
      </trkpt>
      <trkpt lat="47.41832" lon="0.17685">
        <ele>78.787</ele>
        <time>2016-06-02T21:11:13Z</time>
      </trkpt>
      <trkpt lat="47.41925" lon="0.17721">
        <ele>80.021</ele>
        <time>2016-06-02T21:10:53Z</time>
      </trkpt>
      <trkpt lat="47.42001" lon="0.17732">
        <ele>78.078</ele>
        <time>2016-06-02T21:10:33Z</time>
      </trkpt>
      <trkpt lat="47.4204" lon="0.17725">
        <ele>77.053</ele>
        <time>2016-06-02T21:10:13Z</time>
      </trkpt>
      <trkpt lat="47.42087" lon="0.17769">
        <ele>78.077</ele>
        <time>2016-06-02T21:09:53Z</time>
      </trkpt>
      <trkpt lat="47.42123" lon="0.17788">
        <ele>78.808</ele>
        <time>2016-06-02T21:09:33Z</time>
      </trkpt>
      <trkpt lat="47.42247" lon="0.17836">
        <ele>84.911</ele>
        <time>2016-06-02T21:09:13Z</time>
      </trkpt>
      <trkpt lat="47.42287" lon="0.17845">
        <ele>86.365</ele>
        <time>2016-06-02T21:08:53Z</time>
      </trkpt>
      <trkpt lat="47.42308" lon="0.17866">
        <ele>86.815</ele>
        <time>2016-06-02T21:08:33Z</time>
      </trkpt>
      <trkpt lat="47.42371" lon="0.17968">
        <ele>86.166</ele>
        <time>2016-06-02T21:08:13Z</time>
      </trkpt>
      <trkpt lat="47.42394" lon="0.18028">
        <ele>87.447</ele>
        <time>2016-06-02T21:07:53Z</time>
      </trkpt>
      <trkpt lat="47.42569" lon="0.18013">
        <ele>99.071</ele>
        <time>2016-06-02T21:07:33Z</time>
      </trkpt>
      <trkpt lat="47.42655" lon="0.18054">
        <ele>99.429</ele>
        <time>2016-06-02T21:07:13Z</time>
      </trkpt>
      <trkpt lat="47.42714" lon="0.18104">
        <ele>99.853</ele>
        <time>2016-06-02T21:06:53Z</time>
      </trkpt>
      <trkpt lat="47.42796" lon="0.18195">
        <ele>103.88</ele>
        <time>2016-06-02T21:06:33Z</time>
      </trkpt>
      <trkpt lat="47.42878" lon="0.18299">
        <ele>105.295</ele>
        <time>2016-06-02T21:06:13Z</time>
      </trkpt>
      <trkpt lat="47.42945" lon="0.18456">
        <ele>108.099</ele>
        <time>2016-06-02T21:05:53Z</time>
      </trkpt>
      <trkpt lat="47.43057" lon="0.18408">
        <ele>109.908</ele>
        <time>2016-06-02T21:05:33Z</time>
      </trkpt>
      <trkpt lat="47.43268" lon="0.18342">
        <ele>115.314</ele>
        <time>2016-06-02T21:05:13Z</time>
      </trkpt>
      <trkpt lat="47.43348" lon="0.18314">
        <ele>115.886</ele>
        <time>2016-06-02T21:04:53Z</time>
      </trkpt>
      <trkpt lat="47.43583" lon="0.18314">
        <ele>118.435</ele>
        <time>2016-06-02T21:04:13Z</time>
      </trkpt>
      <trkpt lat="47.43655" lon="0.18306">
        <ele>117.469</ele>
        <time>2016-06-02T21:03:53Z</time>
      </trkpt>
      <trkpt lat="47.43803" lon="0.18278">
        <ele>115.11</ele>
        <time>2016-06-02T21:03:33Z</time>
      </trkpt>
      <trkpt lat="47.44039" lon="0.18255">
        <ele>112.654</ele>
        <time>2016-06-02T21:03:13Z</time>
      </trkpt>
      <trkpt lat="47.44336" lon="0.18262">
        <ele>119.552</ele>
        <time>2016-06-02T21:02:53Z</time>
      </trkpt>
      <trkpt lat="47.44388" lon="0.18258">
        <ele>118.496</ele>
        <time>2016-06-02T21:02:33Z</time>
      </trkpt>
      <trkpt lat="47.44513" lon="0.18233">
        <ele>120.153</ele>
        <time>2016-06-02T21:02:13Z</time>
      </trkpt>
      <trkpt lat="47.44793" lon="0.18189">
        <ele>121.268</ele>
        <time>2016-06-02T21:01:53Z</time>
      </trkpt>
      <trkpt lat="47.4507" lon="0.18184">
        <ele>127.162</ele>
        <time>2016-06-02T21:01:33Z</time>
      </trkpt>
      <trkpt lat="47.45249" lon="0.18134">
        <ele>125.908</ele>
        <time>2016-06-02T21:01:13Z</time>
      </trkpt>
      <trkpt lat="47.45336" lon="0.18117">
        <ele>121.221</ele>
        <time>2016-06-02T21:00:53Z</time>
      </trkpt>
      <trkpt lat="47.45404" lon="0.18187">
        <ele>120.629</ele>
        <time>2016-06-02T21:00:33Z</time>
      </trkpt>
      <trkpt lat="47.45509" lon="0.1832">
        <ele>113.566</ele>
        <time>2016-06-02T21:00:13Z</time>
      </trkpt>
      <trkpt lat="47.45683" lon="0.18578">
        <ele>106.989</ele>
        <time>2016-06-02T20:59:53Z</time>
      </trkpt>
      <trkpt lat="47.458" lon="0.1872">
        <ele>110.29</ele>
        <time>2016-06-02T20:59:33Z</time>
      </trkpt>
      <trkpt lat="47.45867" lon="0.18798">
        <ele>105.774</ele>
        <time>2016-06-02T20:59:13Z</time>
      </trkpt>
      <trkpt lat="47.45963" lon="0.18877">
        <ele>101.432</ele>
        <time>2016-06-02T20:58:53Z</time>
      </trkpt>
      <trkpt lat="47.45977" lon="0.18876">
        <ele>100.116</ele>
        <time>2016-06-02T20:58:33Z</time>
      </trkpt>
      <trkpt lat="47.46117" lon="0.19034">
        <ele>91.283</ele>
        <time>2016-06-02T20:58:13Z</time>
      </trkpt>
      <trkpt lat="47.46257" lon="0.19207">
        <ele>87.818</ele>
        <time>2016-06-02T20:57:53Z</time>
      </trkpt>
      <trkpt lat="47.46333" lon="0.19279">
        <ele>84.052</ele>
        <time>2016-06-02T20:57:33Z</time>
      </trkpt>
      <trkpt lat="47.46484" lon="0.19498">
        <ele>80.108</ele>
        <time>2016-06-02T20:57:13Z</time>
      </trkpt>
      <trkpt lat="47.46487" lon="0.19442">
        <ele>81.521</ele>
        <time>2016-06-02T20:56:53Z</time>
      </trkpt>
      <trkpt lat="47.4648" lon="0.1936">
        <ele>82.429</ele>
        <time>2016-06-02T20:56:33Z</time>
      </trkpt>
      <trkpt lat="47.46472" lon="0.18828">
        <ele>91.266</ele>
        <time>2016-06-02T20:56:13Z</time>
      </trkpt>
      <trkpt lat="47.46428" lon="0.18291">
        <ele>89.366</ele>
        <time>2016-06-02T20:55:53Z</time>
      </trkpt>
      <trkpt lat="47.46426" lon="0.1816">
        <ele>86.787</ele>
        <time>2016-06-02T20:55:33Z</time>
      </trkpt>
      <trkpt lat="47.4643" lon="0.18032">
        <ele>87.711</ele>
        <time>2016-06-02T20:55:13Z</time>
      </trkpt>
      <trkpt lat="47.46442" lon="0.17821">
        <ele>86.929</ele>
        <time>2016-06-02T20:54:53Z</time>
      </trkpt>
      <trkpt lat="47.46452" lon="0.17758">
        <ele>84.193</ele>
        <time>2016-06-02T20:54:33Z</time>
      </trkpt>
      <trkpt lat="47.46447" lon="0.1748">
        <ele>79.99</ele>
        <time>2016-06-02T20:54:13Z</time>
      </trkpt>
      <trkpt lat="47.46414" lon="0.17418">
        <ele>79.245</ele>
        <time>2016-06-02T20:53:53Z</time>
      </trkpt>
      <trkpt lat="47.46368" lon="0.17309">
        <ele>83.719</ele>
        <time>2016-06-02T20:53:33Z</time>
      </trkpt>
      <trkpt lat="47.46388" lon="0.17068">
        <ele>75.508</ele>
        <time>2016-06-02T20:53:13Z</time>
      </trkpt>
      <trkpt lat="47.464" lon="0.16884">
        <ele>76.718</ele>
        <time>2016-06-02T20:52:53Z</time>
      </trkpt>
      <trkpt lat="47.46394" lon="0.1681">
        <ele>73.217</ele>
        <time>2016-06-02T20:52:33Z</time>
      </trkpt>
      <trkpt lat="47.4578" lon="0.16257">
        <ele>85.636</ele>
        <time>2016-06-02T20:52:13Z</time>
      </trkpt>
      <trkpt lat="47.45729" lon="0.16186">
        <ele>85.31</ele>
        <time>2016-06-02T20:51:53Z</time>
      </trkpt>
      <trkpt lat="47.45714" lon="0.16134">
        <ele>87.841</ele>
        <time>2016-06-02T20:51:33Z</time>
      </trkpt>
      <trkpt lat="47.45647" lon="0.16005">
        <ele>92.165</ele>
        <time>2016-06-02T20:51:13Z</time>
      </trkpt>
      <trkpt lat="47.4554" lon="0.15758">
        <ele>91.683</ele>
        <time>2016-06-02T20:50:53Z</time>
      </trkpt>
      <trkpt lat="47.45472" lon="0.15586">
        <ele>88.067</ele>
        <time>2016-06-02T20:50:33Z</time>
      </trkpt>
      <trkpt lat="47.45188" lon="0.1501">
        <ele>74.984</ele>
        <time>2016-06-02T20:50:13Z</time>
      </trkpt>
      <trkpt lat="47.45172" lon="0.14912">
        <ele>71.619</ele>
        <time>2016-06-02T20:49:53Z</time>
      </trkpt>
      <trkpt lat="47.45101" lon="0.14636">
        <ele>74.143</ele>
        <time>2016-06-02T20:49:33Z</time>
      </trkpt>
      <trkpt lat="47.4501" lon="0.1442">
        <ele>68.408</ele>
        <time>2016-06-02T20:49:13Z</time>
      </trkpt>
      <trkpt lat="47.44947" lon="0.14331">
        <ele>73.026</ele>
        <time>2016-06-02T20:48:53Z</time>
      </trkpt>
      <trkpt lat="47.44995" lon="0.14259">
        <ele>72.833</ele>
        <time>2016-06-02T20:48:33Z</time>
      </trkpt>
      <trkpt lat="47.45086" lon="0.14105">
        <ele>72.978</ele>
        <time>2016-06-02T20:48:13Z</time>
      </trkpt>
      <trkpt lat="47.45108" lon="0.14059">
        <ele>73.14</ele>
        <time>2016-06-02T20:47:53Z</time>
      </trkpt>
      <trkpt lat="47.45132" lon="0.14054">
        <ele>72.261</ele>
        <time>2016-06-02T20:47:33Z</time>
      </trkpt>
      <trkpt lat="47.45307" lon="0.13962">
        <ele>70.085</ele>
        <time>2016-06-02T20:47:13Z</time>
      </trkpt>
      <trkpt lat="47.4557" lon="0.13791">
        <ele>72.353</ele>
        <time>2016-06-02T20:46:53Z</time>
      </trkpt>
      <trkpt lat="47.45584" lon="0.13711">
        <ele>72.057</ele>
        <time>2016-06-02T20:46:33Z</time>
      </trkpt>
      <trkpt lat="47.45615" lon="0.13693">
        <ele>71.224</ele>
        <time>2016-06-02T20:46:13Z</time>
      </trkpt>
      <trkpt lat="47.45667" lon="0.13569">
        <ele>69.519</ele>
        <time>2016-06-02T20:45:53Z</time>
      </trkpt>
      <trkpt lat="47.45678" lon="0.135">
        <ele>72.443</ele>
        <time>2016-06-02T20:45:33Z</time>
      </trkpt>
      <trkpt lat="47.45647" lon="0.13194">
        <ele>67.308</ele>
        <time>2016-06-02T20:45:13Z</time>
      </trkpt>
      <trkpt lat="47.45819" lon="0.13028">
        <ele>73.014</ele>
        <time>2016-06-02T20:44:53Z</time>
      </trkpt>
      <trkpt lat="47.45873" lon="0.12987">
        <ele>78.413</ele>
        <time>2016-06-02T20:44:33Z</time>
      </trkpt>
      <trkpt lat="47.45962" lon="0.12941">
        <ele>81.372</ele>
        <time>2016-06-02T20:44:13Z</time>
      </trkpt>
      <trkpt lat="47.46003" lon="0.12896">
        <ele>83.161</ele>
        <time>2016-06-02T20:42:53Z</time>
      </trkpt>
      <trkpt lat="47.46064" lon="0.12792">
        <ele>87.072</ele>
        <time>2016-06-02T20:42:33Z</time>
      </trkpt>
      <trkpt lat="47.46123" lon="0.12749">
        <ele>88.496</ele>
        <time>2016-06-02T20:42:13Z</time>
      </trkpt>
      <trkpt lat="47.46136" lon="0.12337">
        <ele>94.014</ele>
        <time>2016-06-02T20:41:53Z</time>
      </trkpt>
      <trkpt lat="47.46178" lon="0.12259">
        <ele>93.468</ele>
        <time>2016-06-02T20:41:33Z</time>
      </trkpt>
      <trkpt lat="47.46183" lon="0.12102">
        <ele>91.565</ele>
        <time>2016-06-02T20:41:13Z</time>
      </trkpt>
      <trkpt lat="47.46188" lon="0.11957">
        <ele>86.98</ele>
        <time>2016-06-02T20:40:53Z</time>
      </trkpt>
      <trkpt lat="47.46213" lon="0.11879">
        <ele>83.724</ele>
        <time>2016-06-02T20:40:33Z</time>
      </trkpt>
      <trkpt lat="47.46261" lon="0.11518">
        <ele>76.208</ele>
        <time>2016-06-02T20:40:13Z</time>
      </trkpt>
      <trkpt lat="47.46239" lon="0.11378">
        <ele>79.817</ele>
        <time>2016-06-02T20:39:53Z</time>
      </trkpt>
      <trkpt lat="47.46204" lon="0.11241">
        <ele>80.407</ele>
        <time>2016-06-02T20:39:33Z</time>
      </trkpt>
      <trkpt lat="47.46156" lon="0.11186">
        <ele>82.584</ele>
        <time>2016-06-02T20:39:13Z</time>
      </trkpt>
      <trkpt lat="47.46181" lon="0.11156">
        <ele>83.235</ele>
        <time>2016-06-02T20:38:53Z</time>
      </trkpt>
      <trkpt lat="47.46215" lon="0.11085">
        <ele>87.856</ele>
        <time>2016-06-02T20:38:33Z</time>
      </trkpt>
      <trkpt lat="47.46323" lon="0.1075">
        <ele>68.71</ele>
        <time>2016-06-02T20:38:13Z</time>
      </trkpt>
      <trkpt lat="47.46356" lon="0.10683">
        <ele>71.188</ele>
        <time>2016-06-02T20:37:53Z</time>
      </trkpt>
      <trkpt lat="47.4637" lon="0.10622">
        <ele>70.822</ele>
        <time>2016-06-02T20:37:33Z</time>
      </trkpt>
      <trkpt lat="47.46398" lon="0.10572">
        <ele>70.359</ele>
        <time>2016-06-02T20:37:13Z</time>
      </trkpt>
      <trkpt lat="47.46414" lon="0.10277">
        <ele>67.324</ele>
        <time>2016-06-02T20:36:53Z</time>
      </trkpt>
      <trkpt lat="47.46411" lon="0.10099">
        <ele>67.228</ele>
        <time>2016-06-02T20:36:33Z</time>
      </trkpt>
      <trkpt lat="47.46425" lon="0.10017">
        <ele>64.608</ele>
        <time>2016-06-02T20:36:13Z</time>
      </trkpt>
      <trkpt lat="47.46432" lon="0.0988">
        <ele>59.708</ele>
        <time>2016-06-02T20:35:53Z</time>
      </trkpt>
      <trkpt lat="47.46409" lon="0.09808">
        <ele>61.362</ele>
        <time>2016-06-02T20:35:33Z</time>
      </trkpt>
      <trkpt lat="47.46502" lon="0.09815">
        <ele>55.222</ele>
        <time>2016-06-02T20:35:13Z</time>
      </trkpt>
      <trkpt lat="47.46536" lon="0.09845">
        <ele>58.57</ele>
        <time>2016-06-02T20:34:53Z</time>
      </trkpt>
      <trkpt lat="47.46566" lon="0.09764">
        <ele>60.961</ele>
        <time>2016-06-02T20:34:33Z</time>
      </trkpt>
      <trkpt lat="47.46684" lon="0.09656">
        <ele>64.035</ele>
        <time>2016-06-02T20:34:13Z</time>
      </trkpt>
      <trkpt lat="47.46799" lon="0.09512">
        <ele>61.023</ele>
        <time>2016-06-02T20:33:53Z</time>
      </trkpt>
      <trkpt lat="47.46915" lon="0.09393">
        <ele>61.097</ele>
        <time>2016-06-02T20:33:33Z</time>
      </trkpt>
      <trkpt lat="47.46895" lon="0.09605">
        <ele>66.024</ele>
        <time>2016-06-02T20:33:13Z</time>
      </trkpt>
      <trkpt lat="47.47092" lon="0.09622">
        <ele>62.029</ele>
        <time>2016-06-02T20:32:53Z</time>
      </trkpt>
      <trkpt lat="47.47227" lon="0.09597">
        <ele>66.723</ele>
        <time>2016-06-02T20:32:33Z</time>
      </trkpt>
      <trkpt lat="47.47294" lon="0.0959">
        <ele>69.508</ele>
        <time>2016-06-02T20:32:13Z</time>
      </trkpt>
      <trkpt lat="47.47358" lon="0.09571">
        <ele>74.821</ele>
        <time>2016-06-02T20:31:53Z</time>
      </trkpt>
      <trkpt lat="47.47458" lon="0.0956">
        <ele>81.556</ele>
        <time>2016-06-02T20:31:33Z</time>
      </trkpt>
      <trkpt lat="47.47606" lon="0.09652">
        <ele>85.274</ele>
        <time>2016-06-02T20:31:13Z</time>
      </trkpt>
      <trkpt lat="47.47715" lon="0.09695">
        <ele>83.065</ele>
        <time>2016-06-02T20:30:53Z</time>
      </trkpt>
      <trkpt lat="47.47761" lon="0.09585">
        <ele>84.966</ele>
        <time>2016-06-02T20:30:33Z</time>
      </trkpt>
      <trkpt lat="47.4786" lon="0.09445">
        <ele>85.92</ele>
        <time>2016-06-02T20:30:13Z</time>
      </trkpt>
      <trkpt lat="47.47885" lon="0.09402">
        <ele>85.538</ele>
        <time>2016-06-02T20:29:53Z</time>
      </trkpt>
      <trkpt lat="47.47934" lon="0.09238">
        <ele>82.332</ele>
        <time>2016-06-02T20:29:33Z</time>
      </trkpt>
      <trkpt lat="47.48073" lon="0.0919">
        <ele>81.939</ele>
        <time>2016-06-02T20:29:13Z</time>
      </trkpt>
      <trkpt lat="47.48097" lon="0.09235">
        <ele>81.634</ele>
        <time>2020-12-24T15:45:15Z</time>
      </trkpt>
      <trkpt lat="47.48117" lon="0.09207">
        <ele>81.158</ele>
        <time>2020-12-24T15:44:55Z</time>
      </trkpt>
      <trkpt lat="47.48282" lon="0.09489">
        <ele>81.108</ele>
        <time>2020-12-24T15:44:35Z</time>
      </trkpt>
      <trkpt lat="47.484" lon="0.09607">
        <ele>81.611</ele>
        <time>2020-12-24T15:44:15Z</time>
      </trkpt>
      <trkpt lat="47.48462" lon="0.09777">
        <ele>81.483</ele>
        <time>2020-12-24T15:43:55Z</time>
      </trkpt>
      <trkpt lat="47.48687" lon="0.10102">
        <ele>81.723</ele>
        <time>2020-12-24T15:43:35Z</time>
      </trkpt>
      <trkpt lat="47.4893" lon="0.10346">
        <ele>82.787</ele>
        <time>2020-12-24T15:43:15Z</time>
      </trkpt>
      <trkpt lat="47.49567" lon="0.10997">
        <ele>86.668</ele>
        <time>2020-12-24T15:42:55Z</time>
      </trkpt>
      <trkpt lat="47.49581" lon="0.10997">
        <ele>86.972</ele>
        <time>2020-12-24T15:42:35Z</time>
      </trkpt>
      <trkpt lat="47.49734" lon="0.11139">
        <ele>85.71</ele>
        <time>2020-12-24T15:42:15Z</time>
      </trkpt>
      <trkpt lat="47.49808" lon="0.11157">
        <ele>85.394</ele>
        <time>2020-12-24T15:41:55Z</time>
      </trkpt>
      <trkpt lat="47.49904" lon="0.11161">
        <ele>86.741</ele>
        <time>2020-12-24T15:41:35Z</time>
      </trkpt>
      <trkpt lat="47.49969" lon="0.11187">
        <ele>85.476</ele>
        <time>2020-12-24T15:41:15Z</time>
      </trkpt>
      <trkpt lat="47.50044" lon="0.11203">
        <ele>83.57</ele>
        <time>2020-12-24T15:40:55Z</time>
      </trkpt>
      <trkpt lat="47.50194" lon="0.11185">
        <ele>80.708</ele>
        <time>2020-12-24T15:40:35Z</time>
      </trkpt>
      <trkpt lat="47.50347" lon="0.11233">
        <ele>80.921</ele>
        <time>2020-12-24T15:40:15Z</time>
      </trkpt>
      <trkpt lat="47.50505" lon="0.11341">
        <ele>81.029</ele>
        <time>2020-12-24T15:39:55Z</time>
      </trkpt>
      <trkpt lat="47.50549" lon="0.11207">
        <ele>81.147</ele>
        <time>2020-12-24T15:39:35Z</time>
      </trkpt>
      <trkpt lat="47.50601" lon="0.11085">
        <ele>83.096</ele>
        <time>2020-12-24T15:39:15Z</time>
      </trkpt>
      <trkpt lat="47.50704" lon="0.11225">
        <ele>82.757</ele>
        <time>2020-12-24T15:38:55Z</time>
      </trkpt>
      <trkpt lat="47.5089" lon="0.11147">
        <ele>82.861</ele>
        <time>2020-12-24T15:38:35Z</time>
      </trkpt>
      <trkpt lat="47.50954" lon="0.11485">
        <ele>83.939</ele>
        <time>2020-12-24T15:38:15Z</time>
      </trkpt>
      <trkpt lat="47.51066" lon="0.11365">
        <ele>84.623</ele>
        <time>2020-12-24T15:37:55Z</time>
      </trkpt>
      <trkpt lat="47.51185" lon="0.11499">
        <ele>84.82</ele>
        <time>2020-12-24T15:37:35Z</time>
      </trkpt>
      <trkpt lat="47.51259" lon="0.11407">
        <ele>85.095</ele>
        <time>2020-12-24T15:37:15Z</time>
      </trkpt>
      <trkpt lat="47.51373" lon="0.11425">
        <ele>83.559</ele>
        <time>2020-12-24T15:36:55Z</time>
      </trkpt>
      <trkpt lat="47.51393" lon="0.11353">
        <ele>82.408</ele>
        <time>2020-12-24T15:36:35Z</time>
      </trkpt>
      <trkpt lat="47.51506" lon="0.11099">
        <ele>82.811</ele>
        <time>2020-12-24T15:36:15Z</time>
      </trkpt>
      <trkpt lat="47.51724" lon="0.10427">
        <ele>84.692</ele>
        <time>2016-06-02T20:11:13Z</time>
      </trkpt>
      <trkpt lat="47.51795" lon="0.10441">
        <ele>84.632</ele>
        <time>2016-06-02T20:10:53Z</time>
      </trkpt>
      <trkpt lat="47.51876" lon="0.10494">
        <ele>84.517</ele>
        <time>2016-06-02T20:10:33Z</time>
      </trkpt>
      <trkpt lat="47.51971" lon="0.10593">
        <ele>82.388</ele>
        <time>2016-06-02T20:10:13Z</time>
      </trkpt>
      <trkpt lat="47.5209" lon="0.1069">
        <ele>85.032</ele>
        <time>2016-06-02T20:09:53Z</time>
      </trkpt>
      <trkpt lat="47.5219" lon="0.10748">
        <ele>84.82</ele>
        <time>2016-06-02T20:09:33Z</time>
      </trkpt>
      <trkpt lat="47.52245" lon="0.10734">
        <ele>85.444</ele>
        <time>2016-06-02T20:09:13Z</time>
      </trkpt>
      <trkpt lat="47.52329" lon="0.10772">
        <ele>83.261</ele>
        <time>2016-06-02T20:08:53Z</time>
      </trkpt>
      <trkpt lat="47.52417" lon="0.10855">
        <ele>81.246</ele>
        <time>2016-06-02T20:08:33Z</time>
      </trkpt>
      <trkpt lat="47.52443" lon="0.10903">
        <ele>81.04</ele>
        <time>2016-06-02T20:08:13Z</time>
      </trkpt>
      <trkpt lat="47.5249" lon="0.11036">
        <ele>82.708</ele>
        <time>2016-06-02T20:07:53Z</time>
      </trkpt>
      <trkpt lat="47.5253" lon="0.11102">
        <ele>80.816</ele>
        <time>2016-06-02T20:07:33Z</time>
      </trkpt>
      <trkpt lat="47.5257" lon="0.11215">
        <ele>79.488</ele>
        <time>2016-06-02T20:07:13Z</time>
      </trkpt>
      <trkpt lat="47.52628" lon="0.11268">
        <ele>78.446</ele>
        <time>2016-06-02T20:06:53Z</time>
      </trkpt>
      <trkpt lat="47.52775" lon="0.11492">
        <ele>76.025</ele>
        <time>2016-06-02T20:06:33Z</time>
      </trkpt>
      <trkpt lat="47.52817" lon="0.11615">
        <ele>75.516</ele>
        <time>2016-06-02T20:06:13Z</time>
      </trkpt>
      <trkpt lat="47.52829" lon="0.11787">
        <ele>74.57</ele>
        <time>2016-06-02T20:05:53Z</time>
      </trkpt>
      <trkpt lat="47.5291" lon="0.11808">
        <ele>76.898</ele>
        <time>2016-06-02T20:05:33Z</time>
      </trkpt>
      <trkpt lat="47.5289" lon="0.11664">
        <ele>76.912</ele>
        <time>2016-06-02T20:05:13Z</time>
      </trkpt>
      <trkpt lat="47.52885" lon="0.1156">
        <ele>75.769</ele>
        <time>2016-06-02T20:04:53Z</time>
      </trkpt>
      <trkpt lat="47.52922" lon="0.11335">
        <ele>76.664</ele>
        <time>2016-06-02T20:04:33Z</time>
      </trkpt>
      <trkpt lat="47.52949" lon="0.11239">
        <ele>77.068</ele>
        <time>2016-06-02T20:04:13Z</time>
      </trkpt>
      <trkpt lat="47.53028" lon="0.11238">
        <ele>76.008</ele>
        <time>2016-06-02T20:03:53Z</time>
      </trkpt>
      <trkpt lat="47.53201" lon="0.11174">
        <ele>74.314</ele>
        <time>2016-06-02T20:03:33Z</time>
      </trkpt>
      <trkpt lat="47.53213" lon="0.11146">
        <ele>74.068</ele>
        <time>2016-06-02T20:03:13Z</time>
      </trkpt>
      <trkpt lat="47.53276" lon="0.11125">
        <ele>73.627</ele>
        <time>2016-06-02T20:02:53Z</time>
      </trkpt>
      <trkpt lat="47.53346" lon="0.11094">
        <ele>72.422</ele>
        <time>2016-06-02T20:02:33Z</time>
      </trkpt>
      <trkpt lat="47.53395" lon="0.11055">
        <ele>74.073</ele>
        <time>2016-06-02T20:02:13Z</time>
      </trkpt>
      <trkpt lat="47.53459" lon="0.11059">
        <ele>75.087</ele>
        <time>2016-06-02T20:01:53Z</time>
      </trkpt>
      <trkpt lat="47.53457" lon="0.11261">
        <ele>77.855</ele>
        <time>2016-06-02T20:01:33Z</time>
      </trkpt>
      <trkpt lat="47.53616" lon="0.1131">
        <ele>78.049</ele>
        <time>2016-06-02T20:01:13Z</time>
      </trkpt>
      <trkpt lat="47.53681" lon="0.11324">
        <ele>78.516</ele>
        <time>2016-06-02T20:00:53Z</time>
      </trkpt>
      <trkpt lat="47.53785" lon="0.11367">
        <ele>79.481</ele>
        <time>2020-12-24T15:25:15Z</time>
      </trkpt>
      <trkpt lat="47.53847" lon="0.11366">
        <ele>78.345</ele>
        <time>2020-12-24T15:24:55Z</time>
      </trkpt>
      <trkpt lat="47.5386" lon="0.11315">
        <ele>78.608</ele>
        <time>2020-12-24T15:24:35Z</time>
      </trkpt>
      <trkpt lat="47.53956" lon="0.11261">
        <ele>79.321</ele>
        <time>2020-12-24T15:24:15Z</time>
      </trkpt>
      <trkpt lat="47.53975" lon="0.112">
        <ele>80.165</ele>
        <time>2020-12-24T15:23:55Z</time>
      </trkpt>
      <trkpt lat="47.54043" lon="0.11195">
        <ele>78.893</ele>
        <time>2020-12-24T15:23:35Z</time>
      </trkpt>
      <trkpt lat="47.54035" lon="0.10964">
        <ele>79.762</ele>
        <time>2020-12-24T15:23:15Z</time>
      </trkpt>
      <trkpt lat="47.54008" lon="0.10865">
        <ele>79.993</ele>
        <time>2020-12-24T15:22:55Z</time>
      </trkpt>
      <trkpt lat="47.54067" lon="0.10856">
        <ele>80.027</ele>
        <time>2016-06-02T19:58:33Z</time>
      </trkpt>
      <trkpt lat="47.54104" lon="0.10794">
        <ele>78.325</ele>
        <time>2016-06-02T19:58:13Z</time>
      </trkpt>
      <trkpt lat="47.54208" lon="0.1076">
        <ele>76.129</ele>
        <time>2016-06-02T19:57:53Z</time>
      </trkpt>
      <trkpt lat="47.5421" lon="0.10622">
        <ele>78.546</ele>
        <time>2016-06-02T19:57:33Z</time>
      </trkpt>
      <trkpt lat="47.54261" lon="0.10572">
        <ele>76.661</ele>
        <time>2016-06-02T19:57:13Z</time>
      </trkpt>
      <trkpt lat="47.54241" lon="0.10483">
        <ele>76.065</ele>
        <time>2016-06-02T19:56:53Z</time>
      </trkpt>
      <trkpt lat="47.54287" lon="0.10467">
        <ele>74.108</ele>
        <time>2016-06-02T19:56:33Z</time>
      </trkpt>
      <trkpt lat="47.54366" lon="0.10462">
        <ele>75.519</ele>
        <time>2016-06-02T19:56:13Z</time>
      </trkpt>
      <trkpt lat="47.54404" lon="0.10479">
        <ele>75.681</ele>
        <time>2016-06-02T19:55:53Z</time>
      </trkpt>
      <trkpt lat="47.54564" lon="0.10436">
        <ele>73.091</ele>
        <time>2016-06-02T19:55:33Z</time>
      </trkpt>
      <trkpt lat="47.54579" lon="0.10498">
        <ele>72.949</ele>
        <time>2016-06-02T19:55:13Z</time>
      </trkpt>
      <trkpt lat="47.546" lon="0.10543">
        <ele>73.99</ele>
        <time>2016-06-02T19:54:53Z</time>
      </trkpt>
      <trkpt lat="47.54616" lon="0.10556">
        <ele>74.014</ele>
        <time>2016-06-02T19:54:33Z</time>
      </trkpt>
      <trkpt lat="47.54753" lon="0.10545">
        <ele>71.942</ele>
        <time>2016-06-02T19:53:33Z</time>
      </trkpt>
      <trkpt lat="47.54777" lon="0.10559">
        <ele>71.156</ele>
        <time>2016-06-02T19:53:13Z</time>
      </trkpt>
      <trkpt lat="47.54836" lon="0.10565">
        <ele>71.073</ele>
        <time>2016-06-02T19:52:33Z</time>
      </trkpt>
      <trkpt lat="47.54911" lon="0.10632">
        <ele>71.668</ele>
        <time>2016-06-02T19:51:53Z</time>
      </trkpt>
      <trkpt lat="47.55064" lon="0.10741">
        <ele>72.272</ele>
        <time>2016-06-02T19:51:33Z</time>
      </trkpt>
      <trkpt lat="47.55316" lon="0.10791">
        <ele>68.808</ele>
        <time>2016-06-02T19:51:13Z</time>
      </trkpt>
      <trkpt lat="47.55472" lon="0.10935">
        <ele>73.016</ele>
        <time>2016-06-02T19:50:53Z</time>
      </trkpt>
      <trkpt lat="47.55505" lon="0.11147">
        <ele>71.806</ele>
        <time>2016-06-02T19:50:33Z</time>
      </trkpt>
      <trkpt lat="47.55506" lon="0.11346">
        <ele>73.664</ele>
        <time>2016-06-02T19:50:13Z</time>
      </trkpt>
      <trkpt lat="47.555" lon="0.1158">
        <ele>73.977</ele>
        <time>2016-06-02T19:49:53Z</time>
      </trkpt>
      <trkpt lat="47.55481" lon="0.11943">
        <ele>74.728</ele>
        <time>2016-06-02T19:48:53Z</time>
      </trkpt>
      <trkpt lat="47.55435" lon="0.11998">
        <ele>74.412</ele>
        <time>2016-06-02T19:48:33Z</time>
      </trkpt>
      <trkpt lat="47.55426" lon="0.12027">
        <ele>74.32</ele>
        <time>2016-06-02T19:48:13Z</time>
      </trkpt>
      <trkpt lat="47.55422" lon="0.12109">
        <ele>76.614</ele>
        <time>2016-06-02T19:47:53Z</time>
      </trkpt>
      <trkpt lat="47.55428" lon="0.12192">
        <ele>75.681</ele>
        <time>2016-06-02T19:47:33Z</time>
      </trkpt>
      <trkpt lat="47.55423" lon="0.12272">
        <ele>75.246</ele>
        <time>2016-06-02T19:47:13Z</time>
      </trkpt>
      <trkpt lat="47.55347" lon="0.12284">
        <ele>73.69</ele>
        <time>2016-06-02T19:46:53Z</time>
      </trkpt>
      <trkpt lat="47.55333" lon="0.12308">
        <ele>75.108</ele>
        <time>2016-06-02T19:46:33Z</time>
      </trkpt>
      <trkpt lat="47.55317" lon="0.12401">
        <ele>74.216</ele>
        <time>2016-06-02T19:46:13Z</time>
      </trkpt>
      <trkpt lat="47.55088" lon="0.12344">
        <ele>70.588</ele>
        <time>2016-06-02T19:45:53Z</time>
      </trkpt>
      <trkpt lat="47.55239" lon="0.12783">
        <ele>70.046</ele>
        <time>2016-06-02T19:45:33Z</time>
      </trkpt>
      <trkpt lat="47.55209" lon="0.12808">
        <ele>70.456</ele>
        <time>2016-06-02T19:45:13Z</time>
      </trkpt>
      <trkpt lat="47.55157" lon="0.13059">
        <ele>62.217</ele>
        <time>2016-06-02T19:44:53Z</time>
      </trkpt>
      <trkpt lat="47.55103" lon="0.13304">
        <ele>76.441</ele>
        <time>2016-06-02T19:44:33Z</time>
      </trkpt>
      <trkpt lat="47.55102" lon="0.13336">
        <ele>76.769</ele>
        <time>2016-06-02T19:44:13Z</time>
      </trkpt>
      <trkpt lat="47.5511" lon="0.13362">
        <ele>77.863</ele>
        <time>2016-06-02T19:43:53Z</time>
      </trkpt>
      <trkpt lat="47.55174" lon="0.13467">
        <ele>77.42</ele>
        <time>2016-06-02T19:43:33Z</time>
      </trkpt>
      <trkpt lat="47.55174" lon="0.13485">
        <ele>77.095</ele>
        <time>2016-06-02T19:43:13Z</time>
      </trkpt>
      <trkpt lat="47.55221" lon="0.135">
        <ele>81.969</ele>
        <time>2016-06-02T19:42:53Z</time>
      </trkpt>
      <trkpt lat="47.55403" lon="0.13745">
        <ele>79.708</ele>
        <time>2016-06-02T19:42:33Z</time>
      </trkpt>
      <trkpt lat="47.5617" lon="0.153">
        <ele>68.215</ele>
        <time>2016-06-02T19:42:13Z</time>
      </trkpt>
      <trkpt lat="47.56232" lon="0.15377">
        <ele>65.023</ele>
        <time>2016-06-02T19:41:33Z</time>
      </trkpt>
      <trkpt lat="47.56269" lon="0.1545">
        <ele>64.933</ele>
        <time>2016-06-02T19:41:13Z</time>
      </trkpt>
      <trkpt lat="47.56375" lon="0.15353">
        <ele>65.719</ele>
        <time>2016-06-02T19:40:53Z</time>
      </trkpt>
      <trkpt lat="47.56489" lon="0.15241">
        <ele>65.74</ele>
        <time>2016-06-02T19:40:33Z</time>
      </trkpt>
      <trkpt lat="47.56543" lon="0.154">
        <ele>64.554</ele>
        <time>2016-06-02T19:40:13Z</time>
      </trkpt>
      <trkpt lat="47.56558" lon="0.15527">
        <ele>63.942</ele>
        <time>2016-06-02T19:39:53Z</time>
      </trkpt>
      <trkpt lat="47.56562" lon="0.1578">
        <ele>61.856</ele>
        <time>2016-06-02T19:39:33Z</time>
      </trkpt>
      <trkpt lat="47.5663" lon="0.15881">
        <ele>60.553</ele>
        <time>2016-06-02T19:39:13Z</time>
      </trkpt>
      <trkpt lat="47.56763" lon="0.15923">
        <ele>61.238</ele>
        <time>2016-06-02T19:38:53Z</time>
      </trkpt>
      <trkpt lat="47.56758" lon="0.16124">
        <ele>66.312</ele>
        <time>2016-06-02T19:38:33Z</time>
      </trkpt>
      <trkpt lat="47.5681" lon="0.16194">
        <ele>70.208</ele>
        <time>2016-06-02T19:38:13Z</time>
      </trkpt>
      <trkpt lat="47.56858" lon="0.16306">
        <ele>74.013</ele>
        <time>2016-06-02T19:37:53Z</time>
      </trkpt>
      <trkpt lat="47.5693" lon="0.16348">
        <ele>71.521</ele>
        <time>2016-06-02T19:36:33Z</time>
      </trkpt>
      <trkpt lat="47.56988" lon="0.16603">
        <ele>72.261</ele>
        <time>2016-06-02T19:36:13Z</time>
      </trkpt>
      <trkpt lat="47.57202" lon="0.17071">
        <ele>78.397</ele>
        <time>2016-06-02T19:35:53Z</time>
      </trkpt>
      <trkpt lat="47.57574" lon="0.16947">
        <ele>71.118</ele>
        <time>2020-12-24T15:02:55Z</time>
      </trkpt>
      <trkpt lat="47.57694" lon="0.16902">
        <ele>73.232</ele>
        <time>2020-12-24T15:02:35Z</time>
      </trkpt>
      <trkpt lat="47.57956" lon="0.16693">
        <ele>73.99</ele>
        <time>2020-12-24T15:02:15Z</time>
      </trkpt>
      <trkpt lat="47.57953" lon="0.16973">
        <ele>73.454</ele>
        <time>2020-12-24T15:01:55Z</time>
      </trkpt>
      <trkpt lat="47.57927" lon="0.17357">
        <ele>76.481</ele>
        <time>2020-12-24T15:01:35Z</time>
      </trkpt>
      <trkpt lat="47.57988" lon="0.17542">
        <ele>80.756</ele>
        <time>2020-12-24T15:01:15Z</time>
      </trkpt>
      <trkpt lat="47.57975" lon="0.17832">
        <ele>80.31</ele>
        <time>2020-12-24T15:00:55Z</time>
      </trkpt>
      <trkpt lat="47.5794" lon="0.17965">
        <ele>78.608</ele>
        <time>2020-12-24T15:00:35Z</time>
      </trkpt>
      <trkpt lat="47.5794" lon="0.18079">
        <ele>78.414</ele>
        <time>2020-12-24T15:00:15Z</time>
      </trkpt>
      <trkpt lat="47.57978" lon="0.18151">
        <ele>78.322</ele>
        <time>2020-12-24T14:59:55Z</time>
      </trkpt>
      <trkpt lat="47.58076" lon="0.18538">
        <ele>84.942</ele>
        <time>2020-12-24T14:59:35Z</time>
      </trkpt>
      <trkpt lat="47.58144" lon="0.19588">
        <ele>98.081</ele>
        <time>2020-12-24T14:59:15Z</time>
      </trkpt>
      <trkpt lat="47.58479" lon="0.1944">
        <ele>102.092</ele>
        <time>2016-06-02T19:23:33Z</time>
      </trkpt>
      <trkpt lat="47.5873" lon="0.19491">
        <ele>108.256</ele>
        <time>2016-06-02T19:23:13Z</time>
      </trkpt>
      <trkpt lat="47.5879" lon="0.19494">
        <ele>110.494</ele>
        <time>2016-06-02T19:22:53Z</time>
      </trkpt>
      <trkpt lat="47.59234" lon="0.18951">
        <ele>112.118</ele>
        <time>2016-06-02T19:22:33Z</time>
      </trkpt>
      <trkpt lat="47.59636" lon="0.1831">
        <ele>104.975</ele>
        <time>2016-06-02T19:22:13Z</time>
      </trkpt>
      <trkpt lat="47.59672" lon="0.18224">
        <ele>108.32</ele>
        <time>2016-06-02T19:21:53Z</time>
      </trkpt>
      <trkpt lat="47.59804" lon="0.18086">
        <ele>114.034</ele>
        <time>2016-06-02T19:21:33Z</time>
      </trkpt>
      <trkpt lat="47.59905" lon="0.18009">
        <ele>115.008</ele>
        <time>2016-06-02T19:21:13Z</time>
      </trkpt>
      <trkpt lat="47.60281" lon="0.17799">
        <ele>97.017</ele>
        <time>2016-06-02T19:20:53Z</time>
      </trkpt>
      <trkpt lat="47.6034" lon="0.17741">
        <ele>88.461</ele>
        <time>2016-06-02T19:20:33Z</time>
      </trkpt>
      <trkpt lat="47.60391" lon="0.17646">
        <ele>81.481</ele>
        <time>2016-06-02T19:20:13Z</time>
      </trkpt>
      <trkpt lat="47.60485" lon="0.17533">
        <ele>75.062</ele>
        <time>2016-06-02T19:19:53Z</time>
      </trkpt>
      <trkpt lat="47.60629" lon="0.17331">
        <ele>70.743</ele>
        <time>2016-06-02T19:19:33Z</time>
      </trkpt>
      <trkpt lat="47.60671" lon="0.17258">
        <ele>70.117</ele>
        <time>2016-06-02T19:19:13Z</time>
      </trkpt>
      <trkpt lat="47.6077" lon="0.17175">
        <ele>69.375</ele>
        <time>2016-06-02T19:18:53Z</time>
      </trkpt>
      <trkpt lat="47.60821" lon="0.17156">
        <ele>70.019</ele>
        <time>2016-06-02T19:18:33Z</time>
      </trkpt>
      <trkpt lat="47.60934" lon="0.17087">
        <ele>72.626</ele>
        <time>2016-06-02T19:18:13Z</time>
      </trkpt>
      <trkpt lat="47.61071" lon="0.17225">
        <ele>74.051</ele>
        <time>2016-06-02T19:17:53Z</time>
      </trkpt>
      <trkpt lat="47.61259" lon="0.17229">
        <ele>75.065</ele>
        <time>2016-06-02T19:17:33Z</time>
      </trkpt>
      <trkpt lat="47.61341" lon="0.1721">
        <ele>75.008</ele>
        <time>2016-06-02T19:17:13Z</time>
      </trkpt>
      <trkpt lat="47.61367" lon="0.17214">
        <ele>74.825</ele>
        <time>2016-06-02T19:16:53Z</time>
      </trkpt>
      <trkpt lat="47.61379" lon="0.17164">
        <ele>74.423</ele>
        <time>2016-06-02T19:16:33Z</time>
      </trkpt>
      <trkpt lat="47.61423" lon="0.17044">
        <ele>74.897</ele>
        <time>2016-06-02T19:16:13Z</time>
      </trkpt>
      <trkpt lat="47.61518" lon="0.16884">
        <ele>66.061</ele>
        <time>2016-06-02T19:15:53Z</time>
      </trkpt>
      <trkpt lat="47.61578" lon="0.16922">
        <ele>64.092</ele>
        <time>2016-06-02T19:15:33Z</time>
      </trkpt>
      <trkpt lat="47.61654" lon="0.16909">
        <ele>54.176</ele>
        <time>2016-06-02T19:15:13Z</time>
      </trkpt>
      <trkpt lat="47.61707" lon="0.16853">
        <ele>46.044</ele>
        <time>2016-06-02T19:14:53Z</time>
      </trkpt>
      <trkpt lat="47.61781" lon="0.16896">
        <ele>44.648</ele>
        <time>2016-06-02T19:14:33Z</time>
      </trkpt>
      <trkpt lat="47.61854" lon="0.16764">
        <ele>41.115</ele>
        <time>2016-06-02T19:14:13Z</time>
      </trkpt>
      <trkpt lat="47.61876" lon="0.16658">
        <ele>45.29</ele>
        <time>2016-06-02T19:13:53Z</time>
      </trkpt>
      <trkpt lat="47.61864" lon="0.16646">
        <ele>45.684</ele>
        <time>2016-06-02T19:13:33Z</time>
      </trkpt>
      <trkpt lat="47.61919" lon="0.16509">
        <ele>55.808</ele>
        <time>2016-06-02T19:13:13Z</time>
      </trkpt>
      <trkpt lat="47.61967" lon="0.16409">
        <ele>63.617</ele>
        <time>2016-06-02T19:12:53Z</time>
      </trkpt>
      <trkpt lat="47.62005" lon="0.16323">
        <ele>66.161</ele>
        <time>2016-06-02T19:12:33Z</time>
      </trkpt>
      <trkpt lat="47.62059" lon="0.1627">
        <ele>63.081</ele>
        <time>2016-06-02T19:12:13Z</time>
      </trkpt>
      <trkpt lat="47.62073" lon="0.16237">
        <ele>63.251</ele>
        <time>2016-06-02T19:11:53Z</time>
      </trkpt>
      <trkpt lat="47.62101" lon="0.16093">
        <ele>60.352</ele>
        <time>2016-06-02T19:11:33Z</time>
      </trkpt>
      <trkpt lat="47.62122" lon="0.15923">
        <ele>61.816</ele>
        <time>2016-06-02T19:11:13Z</time>
      </trkpt>
      <trkpt lat="47.62169" lon="0.15931">
        <ele>60.644</ele>
        <time>2016-06-02T19:10:53Z</time>
      </trkpt>
      <trkpt lat="47.62282" lon="0.15975">
        <ele>66.368</ele>
        <time>2016-06-02T19:10:33Z</time>
      </trkpt>
      <trkpt lat="47.62349" lon="0.15978">
        <ele>69.455</ele>
        <time>2016-06-02T19:10:13Z</time>
      </trkpt>
      <trkpt lat="47.62392" lon="0.15965">
        <ele>71.05</ele>
        <time>2016-06-02T19:09:53Z</time>
      </trkpt>
      <trkpt lat="47.62707" lon="0.15841">
        <ele>69.734</ele>
        <time>2016-06-02T19:09:33Z</time>
      </trkpt>
      <trkpt lat="47.6283" lon="0.15787">
        <ele>65.008</ele>
        <time>2016-06-02T19:09:13Z</time>
      </trkpt>
      <trkpt lat="47.62912" lon="0.15747">
        <ele>62.117</ele>
        <time>2016-06-02T19:08:53Z</time>
      </trkpt>
      <trkpt lat="47.62997" lon="0.15742">
        <ele>62.261</ele>
        <time>2016-06-02T19:08:33Z</time>
      </trkpt>
      <trkpt lat="47.63126" lon="0.15721">
        <ele>58.581</ele>
        <time>2016-06-02T19:08:13Z</time>
      </trkpt>
      <trkpt lat="47.6321" lon="0.15692">
        <ele>55.999</ele>
        <time>2016-06-02T19:07:53Z</time>
      </trkpt>
      <trkpt lat="47.63617" lon="0.15604">
        <ele>50.49</ele>
        <time>2016-06-02T19:07:33Z</time>
      </trkpt>
      <trkpt lat="47.63791" lon="0.15653">
        <ele>54.364</ele>
        <time>2016-06-02T19:07:13Z</time>
      </trkpt>
      <trkpt lat="47.63954" lon="0.15714">
        <ele>50.042</ele>
        <time>2020-12-24T14:42:15Z</time>
      </trkpt>
      <trkpt lat="47.63973" lon="0.15735">
        <ele>51.036</ele>
        <time>2016-06-02T19:06:33Z</time>
      </trkpt>
      <trkpt lat="47.64036" lon="0.15716">
        <ele>47.953</ele>
        <time>2016-06-02T19:06:13Z</time>
      </trkpt>
      <trkpt lat="47.64103" lon="0.15782">
        <ele>46.938</ele>
        <time>2020-12-24T14:41:15Z</time>
      </trkpt>
      <trkpt lat="47.64204" lon="0.15528">
        <ele>48.352</ele>
        <time>2020-12-24T14:40:55Z</time>
      </trkpt>
      <trkpt lat="47.64303" lon="0.15613">
        <ele>47.008</ele>
        <time>2020-12-24T14:40:35Z</time>
      </trkpt>
      <trkpt lat="47.6444" lon="0.15763">
        <ele>44.211</ele>
        <time>2016-06-02T19:04:13Z</time>
      </trkpt>
      <trkpt lat="47.64513" lon="0.15704">
        <ele>44.383</ele>
        <time>2016-06-02T19:03:53Z</time>
      </trkpt>
      <trkpt lat="47.64581" lon="0.15747">
        <ele>49.762</ele>
        <time>2016-06-02T19:03:33Z</time>
      </trkpt>
      <trkpt lat="47.64726" lon="0.15783">
        <ele>51.09</ele>
        <time>2016-06-02T19:03:13Z</time>
      </trkpt>
      <trkpt lat="47.6481" lon="0.15879">
        <ele>44.971</ele>
        <time>2016-06-02T19:02:53Z</time>
      </trkpt>
      <trkpt lat="47.64811" lon="0.1597">
        <ele>43.475</ele>
        <time>2016-06-02T19:02:33Z</time>
      </trkpt>
      <trkpt lat="47.64934" lon="0.16453">
        <ele>37.123</ele>
        <time>2016-06-02T19:02:13Z</time>
      </trkpt>
      <trkpt lat="47.65028" lon="0.16597">
        <ele>36.057</ele>
        <time>2016-06-02T19:01:53Z</time>
      </trkpt>
      <trkpt lat="47.65101" lon="0.16823">
        <ele>37.594</ele>
        <time>2016-06-02T19:01:33Z</time>
      </trkpt>
      <trkpt lat="47.65226" lon="0.17121">
        <ele>37.049</ele>
        <time>2016-06-02T19:01:13Z</time>
      </trkpt>
      <trkpt lat="47.65264" lon="0.17362">
        <ele>35.033</ele>
        <time>2016-06-02T19:00:53Z</time>
      </trkpt>
      <trkpt lat="47.65294" lon="0.1748">
        <ele>35.708</ele>
        <time>2016-06-02T19:00:33Z</time>
      </trkpt>
      <trkpt lat="47.65472" lon="0.17863">
        <ele>37.126</ele>
        <time>2016-06-02T19:00:13Z</time>
      </trkpt>
      <trkpt lat="47.65541" lon="0.1803">
        <ele>38.633</ele>
        <time>2016-06-02T18:59:53Z</time>
      </trkpt>
      <trkpt lat="47.65641" lon="0.1822">
        <ele>37.078</ele>
        <time>2016-06-02T18:59:33Z</time>
      </trkpt>
      <trkpt lat="47.65668" lon="0.18303">
        <ele>35.11</ele>
        <time>2016-06-02T18:59:13Z</time>
      </trkpt>
      <trkpt lat="47.65694" lon="0.18485">
        <ele>38.031</ele>
        <time>2016-06-02T18:58:53Z</time>
      </trkpt>
      <trkpt lat="47.65698" lon="0.18575">
        <ele>36.435</ele>
        <time>2016-06-02T18:58:33Z</time>
      </trkpt>
      <trkpt lat="47.65726" lon="0.18718">
        <ele>37.023</ele>
        <time>2016-06-02T18:58:13Z</time>
      </trkpt>
      <trkpt lat="47.6574" lon="0.18848">
        <ele>37.687</ele>
        <time>2016-06-02T18:57:53Z</time>
      </trkpt>
      <trkpt lat="47.65847" lon="0.19089">
        <ele>42.214</ele>
        <time>2016-06-02T18:57:33Z</time>
      </trkpt>
      <trkpt lat="47.65872" lon="0.19137">
        <ele>45.339</ele>
        <time>2016-06-02T18:57:13Z</time>
      </trkpt>
      <trkpt lat="47.65928" lon="0.19246">
        <ele>58.173</ele>
        <time>2016-06-02T18:56:53Z</time>
      </trkpt>
      <trkpt lat="47.65907" lon="0.19291">
        <ele>58.708</ele>
        <time>2016-06-02T18:56:33Z</time>
      </trkpt>
      <trkpt lat="47.65902" lon="0.19376">
        <ele>65.827</ele>
        <time>2016-06-02T18:56:13Z</time>
      </trkpt>
      <trkpt lat="47.65887" lon="0.19472">
        <ele>72.961</ele>
        <time>2016-06-02T18:55:53Z</time>
      </trkpt>
      <trkpt lat="47.65923" lon="0.19588">
        <ele>74.077</ele>
        <time>2016-06-02T18:55:33Z</time>
      </trkpt>
      <trkpt lat="47.65959" lon="0.19652">
        <ele>76.04</ele>
        <time>2016-06-02T18:55:13Z</time>
      </trkpt>
      <trkpt lat="47.65999" lon="0.19735">
        <ele>80.441</ele>
        <time>2016-06-02T18:54:53Z</time>
      </trkpt>
      <trkpt lat="47.66031" lon="0.19853">
        <ele>85.545</ele>
        <time>2016-06-02T18:54:33Z</time>
      </trkpt>
      <trkpt lat="47.66064" lon="0.19931">
        <ele>83.893</ele>
        <time>2016-06-02T18:54:13Z</time>
      </trkpt>
      <trkpt lat="47.66115" lon="0.20073">
        <ele>80.547</ele>
        <time>2016-06-02T18:53:53Z</time>
      </trkpt>
      <trkpt lat="47.66146" lon="0.20228">
        <ele>85.764</ele>
        <time>2016-06-02T18:53:33Z</time>
      </trkpt>
      <trkpt lat="47.66229" lon="0.20308">
        <ele>86.139</ele>
        <time>2016-06-02T18:53:13Z</time>
      </trkpt>
      <trkpt lat="47.66306" lon="0.20447">
        <ele>90.773</ele>
        <time>2016-06-02T18:52:53Z</time>
      </trkpt>
      <trkpt lat="47.66327" lon="0.20498">
        <ele>85.408</ele>
        <time>2016-06-02T18:52:33Z</time>
      </trkpt>
      <trkpt lat="47.6641" lon="0.20537">
        <ele>79.026</ele>
        <time>2016-06-02T18:52:13Z</time>
      </trkpt>
      <trkpt lat="47.66477" lon="0.20555">
        <ele>75.733</ele>
        <time>2016-06-02T18:51:53Z</time>
      </trkpt>
      <trkpt lat="47.66574" lon="0.20621">
        <ele>70.578</ele>
        <time>2016-06-02T18:51:33Z</time>
      </trkpt>
      <trkpt lat="47.66613" lon="0.20649">
        <ele>68.511</ele>
        <time>2016-06-02T18:51:13Z</time>
      </trkpt>
      <trkpt lat="47.66665" lon="0.20707">
        <ele>67.592</ele>
        <time>2016-06-02T18:50:53Z</time>
      </trkpt>
      <trkpt lat="47.66775" lon="0.20752">
        <ele>67.216</ele>
        <time>2016-06-02T18:50:33Z</time>
      </trkpt>
      <trkpt lat="47.66844" lon="0.20772">
        <ele>75.734</ele>
        <time>2016-06-02T18:50:13Z</time>
      </trkpt>
      <trkpt lat="47.66887" lon="0.20741">
        <ele>79.578</ele>
        <time>2016-06-02T18:49:53Z</time>
      </trkpt>
      <trkpt lat="47.6693" lon="0.2073">
        <ele>81.345</ele>
        <time>2016-06-02T18:49:33Z</time>
      </trkpt>
      <trkpt lat="47.66967" lon="0.20699">
        <ele>78.55</ele>
        <time>2016-06-02T18:49:13Z</time>
      </trkpt>
      <trkpt lat="47.67072" lon="0.20898">
        <ele>87.424</ele>
        <time>2016-06-02T18:48:53Z</time>
      </trkpt>
      <trkpt lat="47.67092" lon="0.20962">
        <ele>94.408</ele>
        <time>2016-06-02T18:48:33Z</time>
      </trkpt>
      <trkpt lat="47.67172" lon="0.2071">
        <ele>88.417</ele>
        <time>2016-06-02T18:48:13Z</time>
      </trkpt>
      <trkpt lat="47.67215" lon="0.20665">
        <ele>86.089</ele>
        <time>2016-06-02T18:47:53Z</time>
      </trkpt>
      <trkpt lat="47.6756" lon="0.20184">
        <ele>80.885</ele>
        <time>2016-06-02T18:47:33Z</time>
      </trkpt>
      <trkpt lat="47.67641" lon="0.19997">
        <ele>80.885</ele>
        <time>2016-06-02T18:47:13Z</time>
      </trkpt>
      <trkpt lat="47.6767" lon="0.1997">
        <ele>79.656</ele>
        <time>2016-06-02T18:46:53Z</time>
      </trkpt>
      <trkpt lat="47.6773" lon="0.19933">
        <ele>76.46</ele>
        <time>2016-06-02T18:46:33Z</time>
      </trkpt>
      <trkpt lat="47.6777" lon="0.19869">
        <ele>78.058</ele>
        <time>2016-06-02T18:46:13Z</time>
      </trkpt>
      <trkpt lat="47.67777" lon="0.19702">
        <ele>84.782</ele>
        <time>2016-06-02T18:45:53Z</time>
      </trkpt>
      <trkpt lat="47.67782" lon="0.19604">
        <ele>80.169</ele>
        <time>2016-06-02T18:45:33Z</time>
      </trkpt>
      <trkpt lat="47.6778" lon="0.1955">
        <ele>77.854</ele>
        <time>2016-06-02T18:45:13Z</time>
      </trkpt>
      <trkpt lat="47.67797" lon="0.19544">
        <ele>77.628</ele>
        <time>2016-06-02T18:44:53Z</time>
      </trkpt>
      <trkpt lat="47.67899" lon="0.1973">
        <ele>79.708</ele>
        <time>2016-06-02T18:44:33Z</time>
      </trkpt>
      <trkpt lat="47.68027" lon="0.19923">
        <ele>79.805</ele>
        <time>2016-06-02T18:44:13Z</time>
      </trkpt>
      <trkpt lat="47.68069" lon="0.1997">
        <ele>82.141</ele>
        <time>2016-06-02T18:43:53Z</time>
      </trkpt>
      <trkpt lat="47.68069" lon="0.1997">
        <ele>82.121</ele>
        <time>2016-06-02T18:43:33Z</time>
      </trkpt>
      <trkpt lat="47.68069" lon="0.1997">
        <ele>82.184</ele>
        <time>2016-06-02T18:43:13Z</time>
      </trkpt>
      <trkpt lat="47.681" lon="0.19992">
        <ele>83.245</ele>
        <time>2016-06-02T18:42:53Z</time>
      </trkpt>
      <trkpt lat="47.68191" lon="0.20032">
        <ele>80.839</ele>
        <time>2016-06-02T18:42:33Z</time>
      </trkpt>
      <trkpt lat="47.68191" lon="0.20032">
        <ele>80.897</ele>
        <time>2016-06-02T18:42:13Z</time>
      </trkpt>
      <trkpt lat="47.68282" lon="0.20186">
        <ele>78.321</ele>
        <time>2016-06-02T18:41:53Z</time>
      </trkpt>
      <trkpt lat="47.68305" lon="0.20127">
        <ele>77.618</ele>
        <time>2016-06-02T18:41:33Z</time>
      </trkpt>
      <trkpt lat="47.68414" lon="0.20056">
        <ele>79.813</ele>
        <time>2016-06-02T18:41:13Z</time>
      </trkpt>
      <trkpt lat="47.68531" lon="0.19999">
        <ele>81.997</ele>
        <time>2016-06-02T18:40:53Z</time>
      </trkpt>
      <trkpt lat="47.68531" lon="0.20039">
        <ele>79.708</ele>
        <time>2016-06-02T18:40:33Z</time>
      </trkpt>
      <trkpt lat="47.68572" lon="0.20103">
        <ele>73.611</ele>
        <time>2016-06-02T18:40:13Z</time>
      </trkpt>
      <trkpt lat="47.68586" lon="0.20169">
        <ele>68.865</ele>
        <time>2016-06-02T18:39:53Z</time>
      </trkpt>
      <trkpt lat="47.68611" lon="0.20191">
        <ele>67.115</ele>
        <time>2016-06-02T18:39:33Z</time>
      </trkpt>
      <trkpt lat="47.68753" lon="0.20377">
        <ele>54.98</ele>
        <time>2016-06-02T18:39:13Z</time>
      </trkpt>
      <trkpt lat="47.68948" lon="0.20119">
        <ele>54.991</ele>
        <time>2016-06-02T18:38:53Z</time>
      </trkpt>
      <trkpt lat="47.69016" lon="0.20252">
        <ele>55.495</ele>
        <time>2016-06-02T18:38:33Z</time>
      </trkpt>
      <trkpt lat="47.69063" lon="0.20295">
        <ele>53.383</ele>
        <time>2016-06-02T18:38:13Z</time>
      </trkpt>
      <trkpt lat="47.69183" lon="0.20356">
        <ele>53.467</ele>
        <time>2016-06-02T18:37:53Z</time>
      </trkpt>
      <trkpt lat="47.69164" lon="0.20478">
        <ele>55.944</ele>
        <time>2016-06-02T18:37:33Z</time>
      </trkpt>
      <trkpt lat="47.69106" lon="0.20532">
        <ele>53.229</ele>
        <time>2016-06-02T18:37:13Z</time>
      </trkpt>
      <trkpt lat="47.69155" lon="0.20661">
        <ele>55.143</ele>
        <time>2016-06-02T18:36:53Z</time>
      </trkpt>
      <trkpt lat="47.69119" lon="0.20809">
        <ele>51.008</ele>
        <time>2016-06-02T18:36:33Z</time>
      </trkpt>
      <trkpt lat="47.69091" lon="0.20854">
        <ele>51.215</ele>
        <time>2016-06-02T18:36:13Z</time>
      </trkpt>
      <trkpt lat="47.69071" lon="0.20935">
        <ele>50.541</ele>
        <time>2016-06-02T18:35:53Z</time>
      </trkpt>
      <trkpt lat="47.69041" lon="0.21011">
        <ele>51.271</ele>
        <time>2016-06-02T18:35:33Z</time>
      </trkpt>
      <trkpt lat="47.69023" lon="0.21147">
        <ele>52.226</ele>
        <time>2016-06-02T18:35:13Z</time>
      </trkpt>
      <trkpt lat="47.69028" lon="0.21227">
        <ele>53.017</ele>
        <time>2016-06-02T18:34:53Z</time>
      </trkpt>
      <trkpt lat="47.69047" lon="0.21298">
        <ele>53.761</ele>
        <time>2016-06-02T18:34:33Z</time>
      </trkpt>
      <trkpt lat="47.69039" lon="0.21354">
        <ele>54.469</ele>
        <time>2016-06-02T18:34:13Z</time>
      </trkpt>
      <trkpt lat="47.69084" lon="0.21389">
        <ele>54.083</ele>
        <time>2016-06-02T18:33:53Z</time>
      </trkpt>
      <trkpt lat="47.69118" lon="0.21429">
        <ele>57.17</ele>
        <time>2016-06-02T18:33:33Z</time>
      </trkpt>
      <trkpt lat="47.69146" lon="0.2148">
        <ele>59.715</ele>
        <time>2016-06-02T18:33:13Z</time>
      </trkpt>
      <trkpt lat="47.6918" lon="0.21494">
        <ele>58.529</ele>
        <time>2016-06-02T18:32:53Z</time>
      </trkpt>
      <trkpt lat="47.69278" lon="0.21596">
        <ele>56.008</ele>
        <time>2016-06-02T18:32:33Z</time>
      </trkpt>
      <trkpt lat="47.69305" lon="0.21647">
        <ele>57.015</ele>
        <time>2016-06-02T18:32:13Z</time>
      </trkpt>
      <trkpt lat="47.69339" lon="0.21698">
        <ele>59.123</ele>
        <time>2016-06-02T18:31:53Z</time>
      </trkpt>
      <trkpt lat="47.69397" lon="0.21702">
        <ele>59.533</ele>
        <time>2016-06-02T18:31:33Z</time>
      </trkpt>
      <trkpt lat="47.69467" lon="0.2175">
        <ele>59.066</ele>
        <time>2016-06-02T18:31:13Z</time>
      </trkpt>
      <trkpt lat="47.69529" lon="0.21791">
        <ele>58.137</ele>
        <time>2016-06-02T18:30:53Z</time>
      </trkpt>
      <trkpt lat="47.69607" lon="0.21821">
        <ele>58.791</ele>
        <time>2016-06-02T18:30:33Z</time>
      </trkpt>
      <trkpt lat="47.69702" lon="0.21875">
        <ele>58.989</ele>
        <time>2016-06-02T18:30:13Z</time>
      </trkpt>
      <trkpt lat="47.69796" lon="0.21946">
        <ele>60.173</ele>
        <time>2016-06-02T18:29:53Z</time>
      </trkpt>
      <trkpt lat="47.69868" lon="0.21978">
        <ele>60.88</ele>
        <time>2016-06-02T18:29:33Z</time>
      </trkpt>
      <trkpt lat="47.69941" lon="0.21998">
        <ele>60.075</ele>
        <time>2016-06-02T18:29:13Z</time>
      </trkpt>
      <trkpt lat="47.70003" lon="0.21986">
        <ele>59.529</ele>
        <time>2016-06-02T18:28:53Z</time>
      </trkpt>
      <trkpt lat="47.70097" lon="0.21915">
        <ele>60.408</ele>
        <time>2016-06-02T18:28:33Z</time>
      </trkpt>
      <trkpt lat="47.70173" lon="0.21888">
        <ele>61.407</ele>
        <time>2016-06-02T18:28:13Z</time>
      </trkpt>
      <trkpt lat="47.702" lon="0.22078">
        <ele>61.661</ele>
        <time>2016-06-02T18:27:53Z</time>
      </trkpt>
      <trkpt lat="47.702" lon="0.22181">
        <ele>58.531</ele>
        <time>2016-06-02T18:27:33Z</time>
      </trkpt>
      <trkpt lat="47.70248" lon="0.22385">
        <ele>59.161</ele>
        <time>2016-06-02T18:27:13Z</time>
      </trkpt>
      <trkpt lat="47.70345" lon="0.22445">
        <ele>58.632</ele>
        <time>2016-06-02T18:26:53Z</time>
      </trkpt>
      <trkpt lat="47.70422" lon="0.22473">
        <ele>59.026</ele>
        <time>2016-06-02T18:26:33Z</time>
      </trkpt>
      <trkpt lat="47.70465" lon="0.22425">
        <ele>60.794</ele>
        <time>2016-06-02T18:26:13Z</time>
      </trkpt>
      <trkpt lat="47.70501" lon="0.22307">
        <ele>62.028</ele>
        <time>2016-06-02T18:25:53Z</time>
      </trkpt>
      <trkpt lat="47.70575" lon="0.22326">
        <ele>63.755</ele>
        <time>2016-06-02T18:25:33Z</time>
      </trkpt>
      <trkpt lat="47.70688" lon="0.22332">
        <ele>72.33</ele>
        <time>2016-06-02T18:25:13Z</time>
      </trkpt>
      <trkpt lat="47.70719" lon="0.22436">
        <ele>76.594</ele>
        <time>2016-06-02T18:24:53Z</time>
      </trkpt>
      <trkpt lat="47.70828" lon="0.22408">
        <ele>79.008</ele>
        <time>2016-06-02T18:24:33Z</time>
      </trkpt>
      <trkpt lat="47.70932" lon="0.22447">
        <ele>79.017</ele>
        <time>2016-06-02T18:24:13Z</time>
      </trkpt>
      <trkpt lat="47.71082" lon="0.22456">
        <ele>80.007</ele>
        <time>2016-06-02T18:23:53Z</time>
      </trkpt>
      <trkpt lat="47.71084" lon="0.22645">
        <ele>77.884</ele>
        <time>2016-06-02T18:23:33Z</time>
      </trkpt>
      <trkpt lat="47.71076" lon="0.22799">
        <ele>78.086</ele>
        <time>2016-06-02T18:23:13Z</time>
      </trkpt>
      <trkpt lat="47.71064" lon="0.22889">
        <ele>76.067</ele>
        <time>2016-06-02T18:22:53Z</time>
      </trkpt>
      <trkpt lat="47.71066" lon="0.22926">
        <ele>75.391</ele>
        <time>2016-06-02T18:22:33Z</time>
      </trkpt>
      <trkpt lat="47.70999" lon="0.22981">
        <ele>74.799</ele>
        <time>2016-06-02T18:22:13Z</time>
      </trkpt>
      <trkpt lat="47.70969" lon="0.23056">
        <ele>72.093</ele>
        <time>2016-06-02T18:21:53Z</time>
      </trkpt>
      <trkpt lat="47.70934" lon="0.23114">
        <ele>69.56</ele>
        <time>2016-06-02T18:21:33Z</time>
      </trkpt>
      <trkpt lat="47.70944" lon="0.2313">
        <ele>69.365</ele>
        <time>2016-06-02T18:20:53Z</time>
      </trkpt>
      <trkpt lat="47.70942" lon="0.2319">
        <ele>68.999</ele>
        <time>2016-06-02T18:20:33Z</time>
      </trkpt>
      <trkpt lat="47.70952" lon="0.23259">
        <ele>68.508</ele>
        <time>2016-06-02T18:20:13Z</time>
      </trkpt>
      <trkpt lat="47.70943" lon="0.23322">
        <ele>70.221</ele>
        <time>2016-06-02T18:19:53Z</time>
      </trkpt>
      <trkpt lat="47.70939" lon="0.23479">
        <ele>76.101</ele>
        <time>2016-06-02T18:19:33Z</time>
      </trkpt>
      <trkpt lat="47.70985" lon="0.23497">
        <ele>76.439</ele>
        <time>2016-06-02T18:19:13Z</time>
      </trkpt>
      <trkpt lat="47.71065" lon="0.2356">
        <ele>79.812</ele>
        <time>2016-06-02T18:18:53Z</time>
      </trkpt>
      <trkpt lat="47.71104" lon="0.2361">
        <ele>86.623</ele>
        <time>2016-06-02T18:18:33Z</time>
      </trkpt>
      <trkpt lat="47.7115" lon="0.23683">
        <ele>90.667</ele>
        <time>2016-06-02T18:18:13Z</time>
      </trkpt>
      <trkpt lat="47.71217" lon="0.23737">
        <ele>89.985</ele>
        <time>2016-06-02T18:17:53Z</time>
      </trkpt>
      <trkpt lat="47.71386" lon="0.23923">
        <ele>87.819</ele>
        <time>2016-06-02T18:17:33Z</time>
      </trkpt>
      <trkpt lat="47.7132" lon="0.24079">
        <ele>85.626</ele>
        <time>2016-06-02T18:17:13Z</time>
      </trkpt>
      <trkpt lat="47.71347" lon="0.24129">
        <ele>85.391</ele>
        <time>2016-06-02T18:16:53Z</time>
      </trkpt>
      <trkpt lat="47.71398" lon="0.24284">
        <ele>83.885</ele>
        <time>2016-06-02T18:16:33Z</time>
      </trkpt>
      <trkpt lat="47.71416" lon="0.24393">
        <ele>80.908</ele>
        <time>2016-06-02T18:16:13Z</time>
      </trkpt>
      <trkpt lat="47.7149" lon="0.24555">
        <ele>75.019</ele>
        <time>2016-06-02T18:15:53Z</time>
      </trkpt>
      <trkpt lat="47.715" lon="0.2466">
        <ele>69.281</ele>
        <time>2016-06-02T18:15:33Z</time>
      </trkpt>
      <trkpt lat="47.71466" lon="0.24774">
        <ele>65.991</ele>
        <time>2016-06-02T18:15:13Z</time>
      </trkpt>
      <trkpt lat="47.71463" lon="0.24832">
        <ele>65.748</ele>
        <time>2016-06-02T18:14:33Z</time>
      </trkpt>
      <trkpt lat="47.71458" lon="0.2495">
        <ele>65.459</ele>
        <time>2016-06-02T18:14:13Z</time>
      </trkpt>
      <trkpt lat="47.71509" lon="0.24937">
        <ele>65.063</ele>
        <time>2016-06-02T18:13:53Z</time>
      </trkpt>
      <trkpt lat="47.7155" lon="0.24965">
        <ele>67.311</ele>
        <time>2016-06-02T18:13:33Z</time>
      </trkpt>
      <trkpt lat="47.71579" lon="0.25014">
        <ele>72.395</ele>
        <time>2016-06-02T18:13:13Z</time>
      </trkpt>
      <trkpt lat="47.71638" lon="0.25052">
        <ele>76.832</ele>
        <time>2016-06-02T18:12:53Z</time>
      </trkpt>
      <trkpt lat="47.71707" lon="0.25131">
        <ele>80.857</ele>
        <time>2016-06-02T18:12:33Z</time>
      </trkpt>
      <trkpt lat="47.71735" lon="0.25245">
        <ele>83.041</ele>
        <time>2016-06-02T18:12:13Z</time>
      </trkpt>
      <trkpt lat="47.71704" lon="0.25318">
        <ele>87.508</ele>
        <time>2016-06-02T18:11:53Z</time>
      </trkpt>
      <trkpt lat="47.71726" lon="0.25404">
        <ele>83.217</ele>
        <time>2016-06-02T18:11:33Z</time>
      </trkpt>
      <trkpt lat="47.7172" lon="0.25485">
        <ele>79.752</ele>
        <time>2016-06-02T18:11:13Z</time>
      </trkpt>
      <trkpt lat="47.71892" lon="0.25827">
        <ele>66.058</ele>
        <time>2016-06-02T18:10:53Z</time>
      </trkpt>
      <trkpt lat="47.71924" lon="0.25908">
        <ele>65.381</ele>
        <time>2016-06-02T18:10:33Z</time>
      </trkpt>
      <trkpt lat="47.71996" lon="0.2592">
        <ele>64.142</ele>
        <time>2016-06-02T18:10:13Z</time>
      </trkpt>
      <trkpt lat="47.7198" lon="0.26015">
        <ele>66.966</ele>
        <time>2016-06-02T18:09:53Z</time>
      </trkpt>
      <trkpt lat="47.71988" lon="0.26145">
        <ele>63.984</ele>
        <time>2016-06-02T18:09:33Z</time>
      </trkpt>
      <trkpt lat="47.71999" lon="0.26431">
        <ele>67.078</ele>
        <time>2016-06-02T18:09:13Z</time>
      </trkpt>
      <trkpt lat="47.71966" lon="0.26546">
        <ele>65.185</ele>
        <time>2016-06-02T18:08:53Z</time>
      </trkpt>
      <trkpt lat="47.72066" lon="0.26639">
        <ele>65.85</ele>
        <time>2016-06-02T18:08:13Z</time>
      </trkpt>
      <trkpt lat="47.7208" lon="0.2668">
        <ele>66.954</ele>
        <time>2016-06-02T18:07:53Z</time>
      </trkpt>
      <trkpt lat="47.72146" lon="0.26719">
        <ele>70.408</ele>
        <time>2016-06-02T18:07:33Z</time>
      </trkpt>
      <trkpt lat="47.72169" lon="0.26792">
        <ele>69.026</ele>
        <time>2016-06-02T18:07:13Z</time>
      </trkpt>
      <trkpt lat="47.7225" lon="0.27017">
        <ele>69.024</ele>
        <time>2016-06-02T18:06:53Z</time>
      </trkpt>
      <trkpt lat="47.72281" lon="0.27203">
        <ele>78.188</ele>
        <time>2016-06-02T18:06:33Z</time>
      </trkpt>
      <trkpt lat="47.72298" lon="0.27409">
        <ele>75.468</ele>
        <time>2016-06-02T18:06:13Z</time>
      </trkpt>
      <trkpt lat="47.72331" lon="0.27554">
        <ele>77.139</ele>
        <time>2016-06-02T18:05:53Z</time>
      </trkpt>
      <trkpt lat="47.7241" lon="0.27739">
        <ele>71.183</ele>
        <time>2016-06-02T18:05:33Z</time>
      </trkpt>
      <trkpt lat="47.72468" lon="0.27844">
        <ele>75.091</ele>
        <time>2016-06-02T18:05:13Z</time>
      </trkpt>
      <trkpt lat="47.72501" lon="0.27925">
        <ele>79.145</ele>
        <time>2016-06-02T18:04:53Z</time>
      </trkpt>
      <trkpt lat="47.72563" lon="0.28108">
        <ele>82.652</ele>
        <time>2016-06-02T18:04:33Z</time>
      </trkpt>
      <trkpt lat="47.72668" lon="0.28326">
        <ele>79.047</ele>
        <time>2016-06-02T18:04:13Z</time>
      </trkpt>
      <trkpt lat="47.72702" lon="0.28383">
        <ele>77.751</ele>
        <time>2016-06-02T18:03:53Z</time>
      </trkpt>
      <trkpt lat="47.72726" lon="0.28433">
        <ele>78.608</ele>
        <time>2016-06-02T18:03:33Z</time>
      </trkpt>
      <trkpt lat="47.72712" lon="0.28493">
        <ele>81.814</ele>
        <time>2016-06-02T18:03:13Z</time>
      </trkpt>
      <trkpt lat="47.72766" lon="0.28588">
        <ele>80.604</ele>
        <time>2016-06-02T18:02:53Z</time>
      </trkpt>
      <trkpt lat="47.72914" lon="0.28389">
        <ele>84.053</ele>
        <time>2016-06-02T18:02:33Z</time>
      </trkpt>
      <trkpt lat="47.72986" lon="0.28335">
        <ele>81.016</ele>
        <time>2016-06-02T18:02:13Z</time>
      </trkpt>
      <trkpt lat="47.73045" lon="0.28341">
        <ele>85.947</ele>
        <time>2016-06-02T18:01:53Z</time>
      </trkpt>
      <trkpt lat="47.73031" lon="0.28294">
        <ele>84.351</ele>
        <time>2016-06-02T18:01:33Z</time>
      </trkpt>
      <trkpt lat="47.73067" lon="0.28263">
        <ele>86.589</ele>
        <time>2016-06-02T18:01:13Z</time>
      </trkpt>
      <trkpt lat="47.73089" lon="0.28314">
        <ele>89.583</ele>
        <time>2016-06-02T18:00:53Z</time>
      </trkpt>
      <trkpt lat="47.7314" lon="0.28299">
        <ele>94.92</ele>
        <time>2016-06-02T18:00:33Z</time>
      </trkpt>
      <trkpt lat="47.73196" lon="0.28251">
        <ele>96.035</ele>
        <time>2016-06-02T18:00:13Z</time>
      </trkpt>
      <trkpt lat="47.73222" lon="0.28256">
        <ele>95.289</ele>
        <time>2016-06-02T17:59:53Z</time>
      </trkpt>
      <trkpt lat="47.73385" lon="0.28036">
        <ele>85.508</ele>
        <time>2016-06-02T17:59:33Z</time>
      </trkpt>
      <trkpt lat="47.73599" lon="0.27839">
        <ele>77.014</ele>
        <time>2016-06-02T17:59:13Z</time>
      </trkpt>
      <trkpt lat="47.73599" lon="0.27839">
        <ele>77.086</ele>
        <time>2016-06-02T17:58:53Z</time>
      </trkpt>
      <trkpt lat="47.7382" lon="0.2776">
        <ele>82.035</ele>
        <time>2016-06-02T17:58:33Z</time>
      </trkpt>
      <trkpt lat="47.7391" lon="0.27712">
        <ele>91.325</ele>
        <time>2016-06-02T17:58:13Z</time>
      </trkpt>
      <trkpt lat="47.74006" lon="0.27727">
        <ele>99.396</ele>
        <time>2016-06-02T17:57:53Z</time>
      </trkpt>
      <trkpt lat="47.74053" lon="0.27715">
        <ele>101.91</ele>
        <time>2016-06-02T17:57:33Z</time>
      </trkpt>
      <trkpt lat="47.74114" lon="0.27669">
        <ele>103.018</ele>
        <time>2016-06-02T17:56:33Z</time>
      </trkpt>
      <trkpt lat="47.74247" lon="0.27527">
        <ele>102.282</ele>
        <time>2016-06-02T17:56:13Z</time>
      </trkpt>
      <trkpt lat="47.74278" lon="0.27517">
        <ele>98.089</ele>
        <time>2016-06-02T17:55:53Z</time>
      </trkpt>
      <trkpt lat="47.74313" lon="0.27588">
        <ele>96.564</ele>
        <time>2016-06-02T17:55:33Z</time>
      </trkpt>
      <trkpt lat="47.7435" lon="0.27689">
        <ele>94.478</ele>
        <time>2016-06-02T17:55:13Z</time>
      </trkpt>
      <trkpt lat="47.74431" lon="0.27677">
        <ele>90.508</ele>
        <time>2016-06-02T17:54:53Z</time>
      </trkpt>
      <trkpt lat="47.7444" lon="0.27658">
        <ele>89.805</ele>
        <time>2016-06-02T17:54:33Z</time>
      </trkpt>
      <trkpt lat="47.74471" lon="0.27642">
        <ele>88.241</ele>
        <time>2016-06-02T17:54:13Z</time>
      </trkpt>
      <trkpt lat="47.74623" lon="0.27593">
        <ele>82.021</ele>
        <time>2016-06-02T17:53:53Z</time>
      </trkpt>
      <trkpt lat="47.74801" lon="0.27518">
        <ele>82.499</ele>
        <time>2016-06-02T17:53:33Z</time>
      </trkpt>
      <trkpt lat="47.74896" lon="0.275">
        <ele>85.73</ele>
        <time>2016-06-02T17:53:13Z</time>
      </trkpt>
      <trkpt lat="47.7494" lon="0.27477">
        <ele>82.454</ele>
        <time>2016-06-02T17:52:53Z</time>
      </trkpt>
      <trkpt lat="47.75062" lon="0.27461">
        <ele>83.392</ele>
        <time>2016-06-02T17:52:33Z</time>
      </trkpt>
      <trkpt lat="47.75102" lon="0.27447">
        <ele>83.166</ele>
        <time>2016-06-02T17:52:13Z</time>
      </trkpt>
      <trkpt lat="47.75201" lon="0.27342">
        <ele>83.393</ele>
        <time>2016-06-02T17:51:53Z</time>
      </trkpt>
      <trkpt lat="47.75269" lon="0.27314">
        <ele>82.748</ele>
        <time>2016-06-02T17:51:33Z</time>
      </trkpt>
      <trkpt lat="47.75344" lon="0.27333">
        <ele>84.652</ele>
        <time>2016-06-02T17:51:13Z</time>
      </trkpt>
      <trkpt lat="47.75404" lon="0.27284">
        <ele>82.108</ele>
        <time>2016-06-02T17:50:53Z</time>
      </trkpt>
      <trkpt lat="47.75516" lon="0.27244">
        <ele>77.021</ele>
        <time>2016-06-02T17:50:33Z</time>
      </trkpt>
      <trkpt lat="47.75624" lon="0.27237">
        <ele>75.029</ele>
        <time>2020-12-24T13:27:55Z</time>
      </trkpt>
      <trkpt lat="47.75757" lon="0.27211">
        <ele>73.566</ele>
        <time>2020-12-24T13:27:35Z</time>
      </trkpt>
      <trkpt lat="47.75806" lon="0.27304">
        <ele>74.886</ele>
        <time>2020-12-24T13:27:15Z</time>
      </trkpt>
      <trkpt lat="47.7584" lon="0.27333">
        <ele>76.167</ele>
        <time>2020-12-24T13:26:55Z</time>
      </trkpt>
      <trkpt lat="47.75823" lon="0.27412">
        <ele>75.981</ele>
        <time>2020-12-24T13:26:35Z</time>
      </trkpt>
      <trkpt lat="47.75936" lon="0.27432">
        <ele>79.289</ele>
        <time>2020-12-24T13:26:15Z</time>
      </trkpt>
      <trkpt lat="47.7594" lon="0.27478">
        <ele>79.923</ele>
        <time>2020-12-24T13:25:55Z</time>
      </trkpt>
      <trkpt lat="47.75955" lon="0.27535">
        <ele>80.92</ele>
        <time>2020-12-24T13:25:35Z</time>
      </trkpt>
      <trkpt lat="47.75975" lon="0.27655">
        <ele>80.695</ele>
        <time>2020-12-24T13:25:15Z</time>
      </trkpt>
      <trkpt lat="47.75984" lon="0.27753">
        <ele>81.819</ele>
        <time>2020-12-24T13:24:55Z</time>
      </trkpt>
      <trkpt lat="47.76" lon="0.2795">
        <ele>83.608</ele>
        <time>2020-12-24T13:24:35Z</time>
      </trkpt>
      <trkpt lat="47.76008" lon="0.28123">
        <ele>84.021</ele>
        <time>2020-12-24T13:24:15Z</time>
      </trkpt>
      <trkpt lat="47.761" lon="0.28114">
        <ele>84.201</ele>
        <time>2020-12-24T13:23:55Z</time>
      </trkpt>
      <trkpt lat="47.76117" lon="0.2808">
        <ele>84.039</ele>
        <time>2020-12-24T13:23:35Z</time>
      </trkpt>
      <trkpt lat="47.76172" lon="0.28073">
        <ele>84.347</ele>
        <time>2020-12-24T13:23:15Z</time>
      </trkpt>
      <trkpt lat="47.76172" lon="0.28039">
        <ele>84.758</ele>
        <time>2020-12-24T13:22:55Z</time>
      </trkpt>
      <trkpt lat="47.76207" lon="0.28029">
        <ele>85.572</ele>
        <time>2020-12-24T13:22:35Z</time>
      </trkpt>
      <trkpt lat="47.76246" lon="0.2819">
        <ele>84.43</ele>
        <time>2020-12-24T13:22:15Z</time>
      </trkpt>
      <trkpt lat="47.76258" lon="0.28292">
        <ele>82.614</ele>
        <time>2020-12-24T13:21:55Z</time>
      </trkpt>
      <trkpt lat="47.76259" lon="0.28352">
        <ele>82.631</ele>
        <time>2020-12-24T13:21:35Z</time>
      </trkpt>
      <trkpt lat="47.76239" lon="0.28436">
        <ele>84.586</ele>
        <time>2020-12-24T13:21:15Z</time>
      </trkpt>
      <trkpt lat="47.76251" lon="0.2848">
        <ele>86.31</ele>
        <time>2020-12-24T13:20:55Z</time>
      </trkpt>
      <trkpt lat="47.76251" lon="0.28545">
        <ele>89.208</ele>
        <time>2020-12-24T13:20:35Z</time>
      </trkpt>
      <trkpt lat="47.76244" lon="0.28571">
        <ele>90.321</ele>
        <time>2020-12-24T13:20:15Z</time>
      </trkpt>
      <trkpt lat="47.76261" lon="0.28627">
        <ele>92.529</ele>
        <time>2020-12-24T13:19:55Z</time>
      </trkpt>
      <trkpt lat="47.76272" lon="0.28695">
        <ele>95.747</ele>
        <time>2020-12-24T13:19:35Z</time>
      </trkpt>
      <trkpt lat="47.76225" lon="0.28711">
        <ele>94.689</ele>
        <time>2020-12-24T13:19:15Z</time>
      </trkpt>
      <trkpt lat="47.76231" lon="0.2875">
        <ele>96.69</ele>
        <time>2020-12-24T13:18:55Z</time>
      </trkpt>
      <trkpt lat="47.7614" lon="0.28745">
        <ele>90.664</ele>
        <time>2020-12-24T13:18:35Z</time>
      </trkpt>
      <trkpt lat="47.76134" lon="0.2872">
        <ele>89.842</ele>
        <time>2016-06-02T17:47:13Z</time>
      </trkpt>
      <trkpt lat="47.76114" lon="0.28739">
        <ele>89.176</ele>
        <time>2016-06-02T17:46:53Z</time>
      </trkpt>
      <trkpt lat="47.76112" lon="0.28783">
        <ele>89.223</ele>
        <time>2016-06-02T17:46:33Z</time>
      </trkpt>
      <trkpt lat="47.76118" lon="0.28893">
        <ele>90.328</ele>
        <time>2016-06-02T17:46:13Z</time>
      </trkpt>
      <trkpt lat="47.76078" lon="0.28901">
        <ele>88.092</ele>
        <time>2016-06-02T17:45:53Z</time>
      </trkpt>
      <trkpt lat="47.75965" lon="0.28961">
        <ele>87.708</ele>
        <time>2016-06-02T17:45:33Z</time>
      </trkpt>
      <trkpt lat="47.75792" lon="0.29043">
        <ele>90.611</ele>
        <time>2016-06-02T17:42:53Z</time>
      </trkpt>
      <trkpt lat="47.75794" lon="0.29146">
        <ele>95.783</ele>
        <time>2016-06-02T17:42:33Z</time>
      </trkpt>
      <trkpt lat="47.75886" lon="0.29462">
        <ele>102.362</ele>
        <time>2016-06-02T17:42:13Z</time>
      </trkpt>
      <trkpt lat="47.75859" lon="0.29505">
        <ele>105.595</ele>
        <time>2016-06-02T17:41:53Z</time>
      </trkpt>
      <trkpt lat="47.75808" lon="0.29569">
        <ele>111.346</ele>
        <time>2016-06-02T17:41:33Z</time>
      </trkpt>
      <trkpt lat="47.75728" lon="0.29588">
        <ele>116.03</ele>
        <time>2016-06-02T17:41:13Z</time>
      </trkpt>
      <trkpt lat="47.75728" lon="0.29623">
        <ele>116.418</ele>
        <time>2016-06-02T17:40:53Z</time>
      </trkpt>
      <trkpt lat="47.75656" lon="0.29944">
        <ele>119.692</ele>
        <time>2016-06-02T17:40:33Z</time>
      </trkpt>
      <trkpt lat="47.75595" lon="0.30208">
        <ele>121.699</ele>
        <time>2016-06-02T17:40:13Z</time>
      </trkpt>
      <trkpt lat="47.75546" lon="0.30377">
        <ele>123.844</ele>
        <time>2016-06-02T17:39:53Z</time>
      </trkpt>
      <trkpt lat="47.75507" lon="0.30565">
        <ele>129.168</ele>
        <time>2016-06-02T17:39:33Z</time>
      </trkpt>
      <trkpt lat="47.75493" lon="0.3073">
        <ele>131.008</ele>
        <time>2016-06-02T17:39:13Z</time>
      </trkpt>
      <trkpt lat="47.75503" lon="0.30819">
        <ele>131.92</ele>
        <time>2016-06-02T17:38:53Z</time>
      </trkpt>
      <trkpt lat="47.75525" lon="0.30893">
        <ele>131.3</ele>
        <time>2016-06-02T17:38:33Z</time>
      </trkpt>
      <trkpt lat="47.75568" lon="0.31198">
        <ele>137.229</ele>
        <time>2016-06-02T17:38:13Z</time>
      </trkpt>
      <trkpt lat="47.75574" lon="0.31281">
        <ele>138.155</ele>
        <time>2016-06-02T17:37:53Z</time>
      </trkpt>
      <trkpt lat="47.75604" lon="0.31514">
        <ele>134.696</ele>
        <time>2016-06-02T17:37:33Z</time>
      </trkpt>
      <trkpt lat="47.75605" lon="0.31676">
        <ele>134.92</ele>
        <time>2016-06-02T17:37:13Z</time>
      </trkpt>
      <trkpt lat="47.75574" lon="0.3176">
        <ele>134.258</ele>
        <time>2016-06-02T17:36:53Z</time>
      </trkpt>
      <trkpt lat="47.75639" lon="0.31846">
        <ele>137.512</ele>
        <time>2016-06-02T17:36:33Z</time>
      </trkpt>
      <trkpt lat="47.7572" lon="0.31894">
        <ele>135.319</ele>
        <time>2016-06-02T17:36:13Z</time>
      </trkpt>
      <trkpt lat="47.75756" lon="0.31866">
        <ele>133.444</ele>
        <time>2016-06-02T17:35:53Z</time>
      </trkpt>
      <trkpt lat="47.75774" lon="0.31897">
        <ele>134.098</ele>
        <time>2016-06-02T17:35:33Z</time>
      </trkpt>
      <trkpt lat="47.75784" lon="0.31982">
        <ele>136.808</ele>
        <time>2016-06-02T17:35:13Z</time>
      </trkpt>
      <trkpt lat="47.75818" lon="0.32169">
        <ele>142.511</ele>
        <time>2016-06-02T17:34:53Z</time>
      </trkpt>
      <trkpt lat="47.75812" lon="0.3226">
        <ele>145.147</ele>
        <time>2016-06-02T17:34:33Z</time>
      </trkpt>
      <trkpt lat="47.75818" lon="0.32359">
        <ele>147.826</ele>
        <time>2016-06-02T17:34:13Z</time>
      </trkpt>
      <trkpt lat="47.75746" lon="0.32521">
        <ele>149.727</ele>
        <time>2016-06-02T17:33:53Z</time>
      </trkpt>
      <trkpt lat="47.75726" lon="0.32594">
        <ele>152.688</ele>
        <time>2016-06-02T17:33:33Z</time>
      </trkpt>
      <trkpt lat="47.75725" lon="0.32711">
        <ele>160.192</ele>
        <time>2016-06-02T17:33:13Z</time>
      </trkpt>
      <trkpt lat="47.76011" lon="0.33228">
        <ele>160.79</ele>
        <time>2016-06-02T17:32:53Z</time>
      </trkpt>
      <trkpt lat="47.75896" lon="0.33935">
        <ele>159.524</ele>
        <time>2016-06-02T17:32:33Z</time>
      </trkpt>
      <trkpt lat="47.75815" lon="0.33901">
        <ele>159.351</ele>
        <time>2016-06-02T17:32:13Z</time>
      </trkpt>
      <trkpt lat="47.75699" lon="0.34568">
        <ele>152.466</ele>
        <time>2016-06-02T17:31:53Z</time>
      </trkpt>
      <trkpt lat="47.75477" lon="0.34632">
        <ele>146.43</ele>
        <time>2016-06-02T17:31:33Z</time>
      </trkpt>
      <trkpt lat="47.75364" lon="0.34718">
        <ele>143.108</ele>
        <time>2016-06-02T17:31:13Z</time>
      </trkpt>
      <trkpt lat="47.75361" lon="0.34784">
        <ele>143.211</ele>
        <time>2016-06-02T17:30:53Z</time>
      </trkpt>
      <trkpt lat="47.7537" lon="0.34839">
        <ele>146.047</ele>
        <time>2016-06-02T17:30:33Z</time>
      </trkpt>
      <trkpt lat="47.75448" lon="0.34969">
        <ele>155.545</ele>
        <time>2016-06-02T17:30:13Z</time>
      </trkpt>
      <trkpt lat="47.7548" lon="0.35054">
        <ele>153.637</ele>
        <time>2016-06-02T17:29:53Z</time>
      </trkpt>
      <trkpt lat="47.75489" lon="0.35179">
        <ele>155.168</ele>
        <time>2016-06-02T17:29:33Z</time>
      </trkpt>
      <trkpt lat="47.75546" lon="0.35367">
        <ele>156.282</ele>
        <time>2016-06-02T17:29:13Z</time>
      </trkpt>
      <trkpt lat="47.75587" lon="0.35559">
        <ele>153.83</ele>
        <time>2016-06-02T17:28:53Z</time>
      </trkpt>
      <trkpt lat="47.75594" lon="0.35722">
        <ele>154.584</ele>
        <time>2016-06-02T17:28:33Z</time>
      </trkpt>
      <trkpt lat="47.75634" lon="0.35855">
        <ele>154.121</ele>
        <time>2016-06-02T17:28:13Z</time>
      </trkpt>
      <trkpt lat="47.7566" lon="0.35894">
        <ele>152.546</ele>
        <time>2016-06-02T17:27:53Z</time>
      </trkpt>
      <trkpt lat="47.75716" lon="0.36021">
        <ele>146.19</ele>
        <time>2016-06-02T17:27:33Z</time>
      </trkpt>
      <trkpt lat="47.75973" lon="0.35765">
        <ele>155.908</ele>
        <time>2016-06-02T17:27:13Z</time>
      </trkpt>
      <trkpt lat="47.7699" lon="0.35981">
        <ele>152.321</ele>
        <time>2016-06-02T17:26:53Z</time>
      </trkpt>
      <trkpt lat="47.77028" lon="0.35854">
        <ele>148.229</ele>
        <time>2016-06-02T17:26:33Z</time>
      </trkpt>
      <trkpt lat="47.77058" lon="0.35856">
        <ele>147.547</ele>
        <time>2016-06-02T17:26:13Z</time>
      </trkpt>
      <trkpt lat="47.7709" lon="0.36008">
        <ele>144.824</ele>
        <time>2016-06-02T17:25:53Z</time>
      </trkpt>
      <trkpt lat="47.77375" lon="0.36072">
        <ele>145.215</ele>
        <time>2016-06-02T17:25:33Z</time>
      </trkpt>
      <trkpt lat="47.77419" lon="0.35993">
        <ele>149.489</ele>
        <time>2016-06-02T17:25:13Z</time>
      </trkpt>
      <trkpt lat="47.77463" lon="0.36095">
        <ele>148.257</ele>
        <time>2016-06-02T17:24:53Z</time>
      </trkpt>
      <trkpt lat="47.77798" lon="0.36164">
        <ele>159.491</ele>
        <time>2016-06-02T17:24:33Z</time>
      </trkpt>
      <trkpt lat="47.77853" lon="0.36098">
        <ele>162.588</ele>
        <time>2016-06-02T17:24:13Z</time>
      </trkpt>
      <trkpt lat="47.77886" lon="0.36109">
        <ele>160.243</ele>
        <time>2016-06-02T17:23:53Z</time>
      </trkpt>
      <trkpt lat="47.77897" lon="0.36185">
        <ele>156.467</ele>
        <time>2016-06-02T17:23:33Z</time>
      </trkpt>
      <trkpt lat="47.77928" lon="0.36196">
        <ele>153.808</ele>
        <time>2016-06-02T17:23:13Z</time>
      </trkpt>
      <trkpt lat="47.78617" lon="0.36349">
        <ele>160.013</ele>
        <time>2016-06-02T17:22:53Z</time>
      </trkpt>
      <trkpt lat="47.78645" lon="0.36357">
        <ele>161.576</ele>
        <time>2020-12-24T12:55:55Z</time>
      </trkpt>
      <trkpt lat="47.7873" lon="0.3659">
        <ele>165.216</ele>
        <time>2020-12-24T12:55:35Z</time>
      </trkpt>
      <trkpt lat="47.78728" lon="0.36659">
        <ele>164.541</ele>
        <time>2020-12-24T12:55:15Z</time>
      </trkpt>
      <trkpt lat="47.78746" lon="0.36722">
        <ele>163.542</ele>
        <time>2020-12-24T12:54:55Z</time>
      </trkpt>
      <trkpt lat="47.78836" lon="0.3676">
        <ele>166.056</ele>
        <time>2020-12-24T12:54:35Z</time>
      </trkpt>
      <trkpt lat="47.78929" lon="0.36835">
        <ele>164.834</ele>
        <time>2020-12-24T12:54:15Z</time>
      </trkpt>
      <trkpt lat="47.78963" lon="0.3684">
        <ele>161.888</ele>
        <time>2020-12-24T12:53:55Z</time>
      </trkpt>
      <trkpt lat="47.79042" lon="0.36871">
        <ele>159.285</ele>
        <time>2020-12-24T12:53:35Z</time>
      </trkpt>
      <trkpt lat="47.79057" lon="0.37008">
        <ele>155.99</ele>
        <time>2020-12-24T12:53:15Z</time>
      </trkpt>
      <trkpt lat="47.79099" lon="0.37194">
        <ele>143.254</ele>
        <time>2020-12-24T12:52:55Z</time>
      </trkpt>
      <trkpt lat="47.79145" lon="0.37208">
        <ele>143.608</ele>
        <time>2020-12-24T12:52:35Z</time>
      </trkpt>
      <trkpt lat="47.7929" lon="0.37154">
        <ele>148.126</ele>
        <time>2020-12-24T12:52:15Z</time>
      </trkpt>
      <trkpt lat="47.7943" lon="0.37155">
        <ele>148.542</ele>
        <time>2020-12-24T12:51:55Z</time>
      </trkpt>
      <trkpt lat="47.79422" lon="0.37218">
        <ele>142.687</ele>
        <time>2020-12-24T12:51:35Z</time>
      </trkpt>
      <trkpt lat="47.79437" lon="0.37263">
        <ele>142.525</ele>
        <time>2020-12-24T12:51:15Z</time>
      </trkpt>
      <trkpt lat="47.79491" lon="0.37266">
        <ele>145.916</ele>
        <time>2020-12-24T12:50:55Z</time>
      </trkpt>
      <trkpt lat="47.79557" lon="0.37258">
        <ele>146.82</ele>
        <time>2016-06-02T17:13:33Z</time>
      </trkpt>
      <trkpt lat="47.79624" lon="0.37269">
        <ele>143.048</ele>
        <time>2016-06-02T17:13:13Z</time>
      </trkpt>
      <trkpt lat="47.79657" lon="0.37241">
        <ele>143.112</ele>
        <time>2016-06-02T17:12:53Z</time>
      </trkpt>
      <trkpt lat="47.79714" lon="0.37247">
        <ele>144.559</ele>
        <time>2016-06-02T17:12:33Z</time>
      </trkpt>
      <trkpt lat="47.79784" lon="0.37239">
        <ele>156.674</ele>
        <time>2016-06-02T17:12:13Z</time>
      </trkpt>
      <trkpt lat="47.7981" lon="0.37202">
        <ele>157.848</ele>
        <time>2016-06-02T17:11:53Z</time>
      </trkpt>
      <trkpt lat="47.79889" lon="0.37233">
        <ele>149.608</ele>
        <time>2016-06-02T17:11:33Z</time>
      </trkpt>
      <trkpt lat="47.79951" lon="0.37294">
        <ele>149.605</ele>
        <time>2016-06-02T17:11:13Z</time>
      </trkpt>
      <trkpt lat="47.80363" lon="0.37109">
        <ele>165.141</ele>
        <time>2016-06-02T17:10:53Z</time>
      </trkpt>
      <trkpt lat="47.80363" lon="0.37109">
        <ele>165.121</ele>
        <time>2016-06-02T17:10:33Z</time>
      </trkpt>
      <trkpt lat="47.80293" lon="0.36725">
        <ele>168.598</ele>
        <time>2016-06-02T17:10:13Z</time>
      </trkpt>
      <trkpt lat="47.80452" lon="0.36504">
        <ele>170.449</ele>
        <time>2016-06-02T17:09:53Z</time>
      </trkpt>
      <trkpt lat="47.80782" lon="0.36084">
        <ele>169.593</ele>
        <time>2016-06-02T17:09:33Z</time>
      </trkpt>
      <trkpt lat="47.80847" lon="0.35993">
        <ele>160.511</ele>
        <time>2016-06-02T17:09:13Z</time>
      </trkpt>
      <trkpt lat="47.80968" lon="0.35699">
        <ele>150.985</ele>
        <time>2016-06-02T17:08:53Z</time>
      </trkpt>
      <trkpt lat="47.80947" lon="0.35677">
        <ele>150.062</ele>
        <time>2016-06-02T17:08:33Z</time>
      </trkpt>
      <trkpt lat="47.80912" lon="0.35453">
        <ele>141.487</ele>
        <time>2016-06-02T17:08:13Z</time>
      </trkpt>
      <trkpt lat="47.80905" lon="0.35369">
        <ele>143.041</ele>
        <time>2016-06-02T17:07:53Z</time>
      </trkpt>
      <trkpt lat="47.80924" lon="0.35261">
        <ele>146.208</ele>
        <time>2016-06-02T17:07:33Z</time>
      </trkpt>
      <trkpt lat="47.80912" lon="0.35217">
        <ele>147.923</ele>
        <time>2016-06-02T17:07:13Z</time>
      </trkpt>
      <trkpt lat="47.80903" lon="0.35085">
        <ele>148.003</ele>
        <time>2016-06-02T17:06:53Z</time>
      </trkpt>
      <trkpt lat="47.80913" lon="0.35039">
        <ele>147.859</ele>
        <time>2016-06-02T17:06:33Z</time>
      </trkpt>
      <trkpt lat="47.80976" lon="0.34993">
        <ele>146.27</ele>
        <time>2016-06-02T17:06:13Z</time>
      </trkpt>
      <trkpt lat="47.80979" lon="0.34957">
        <ele>146.511</ele>
        <time>2016-06-02T17:05:53Z</time>
      </trkpt>
      <trkpt lat="47.80844" lon="0.34803">
        <ele>155.065</ele>
        <time>2016-06-02T17:05:33Z</time>
      </trkpt>
      <trkpt lat="47.80936" lon="0.34694">
        <ele>151.673</ele>
        <time>2016-06-02T17:05:13Z</time>
      </trkpt>
      <trkpt lat="47.81124" lon="0.34513">
        <ele>143.477</ele>
        <time>2016-06-02T17:04:53Z</time>
      </trkpt>
      <trkpt lat="47.81291" lon="0.34319">
        <ele>139.234</ele>
        <time>2016-06-02T17:04:33Z</time>
      </trkpt>
      <trkpt lat="47.81439" lon="0.34191">
        <ele>133.239</ele>
        <time>2016-06-02T17:04:13Z</time>
      </trkpt>
      <trkpt lat="47.81504" lon="0.34048">
        <ele>116.293</ele>
        <time>2016-06-02T17:03:53Z</time>
      </trkpt>
      <trkpt lat="47.81635" lon="0.33936">
        <ele>102.108</ele>
        <time>2016-06-02T17:03:33Z</time>
      </trkpt>
      <trkpt lat="47.8171" lon="0.33903">
        <ele>103.814</ele>
        <time>2016-06-02T17:03:13Z</time>
      </trkpt>
      <trkpt lat="47.81721" lon="0.33929">
        <ele>103.513</ele>
        <time>2016-06-02T17:02:53Z</time>
      </trkpt>
      <trkpt lat="47.81763" lon="0.33964">
        <ele>107.272</ele>
        <time>2016-06-02T17:02:33Z</time>
      </trkpt>
      <trkpt lat="47.81872" lon="0.34002">
        <ele>111.386</ele>
        <time>2016-06-02T17:02:13Z</time>
      </trkpt>
      <trkpt lat="47.81869" lon="0.33893">
        <ele>113.167</ele>
        <time>2016-06-02T17:01:53Z</time>
      </trkpt>
      <trkpt lat="47.81845" lon="0.33721">
        <ele>117.531</ele>
        <time>2016-06-02T17:01:33Z</time>
      </trkpt>
      <trkpt lat="47.81864" lon="0.33671">
        <ele>120.199</ele>
        <time>2016-06-02T17:01:13Z</time>
      </trkpt>
      <trkpt lat="47.81916" lon="0.33576">
        <ele>126.783</ele>
        <time>2016-06-02T17:00:53Z</time>
      </trkpt>
      <trkpt lat="47.81949" lon="0.33534">
        <ele>128.26</ele>
        <time>2016-06-02T17:00:33Z</time>
      </trkpt>
      <trkpt lat="47.82036" lon="0.33507">
        <ele>136.635</ele>
        <time>2016-06-02T17:00:13Z</time>
      </trkpt>
      <trkpt lat="47.8215" lon="0.3353">
        <ele>144.779</ele>
        <time>2016-06-02T16:59:53Z</time>
      </trkpt>
      <trkpt lat="47.82221" lon="0.33565">
        <ele>147.908</ele>
        <time>2016-06-02T16:59:33Z</time>
      </trkpt>
      <trkpt lat="47.82295" lon="0.33589">
        <ele>147.815</ele>
        <time>2016-06-02T16:59:13Z</time>
      </trkpt>
      <trkpt lat="47.82328" lon="0.3357">
        <ele>149.323</ele>
        <time>2016-06-02T16:58:53Z</time>
      </trkpt>
      <trkpt lat="47.82418" lon="0.33615">
        <ele>150.733</ele>
        <time>2016-06-02T16:58:33Z</time>
      </trkpt>
      <trkpt lat="47.82484" lon="0.33659">
        <ele>151.842</ele>
        <time>2016-06-02T16:58:13Z</time>
      </trkpt>
      <trkpt lat="47.82563" lon="0.33696">
        <ele>152.063</ele>
        <time>2016-06-02T16:57:53Z</time>
      </trkpt>
      <trkpt lat="47.82633" lon="0.33705">
        <ele>151.597</ele>
        <time>2016-06-02T16:57:33Z</time>
      </trkpt>
      <trkpt lat="47.8273" lon="0.33749">
        <ele>144.115</ele>
        <time>2016-06-02T16:57:13Z</time>
      </trkpt>
      <trkpt lat="47.8279" lon="0.33824">
        <ele>139.079</ele>
        <time>2016-06-02T16:56:53Z</time>
      </trkpt>
      <trkpt lat="47.82857" lon="0.33884">
        <ele>135.586</ele>
        <time>2016-06-02T16:56:33Z</time>
      </trkpt>
      <trkpt lat="47.82865" lon="0.33938">
        <ele>132.041</ele>
        <time>2016-06-02T16:56:13Z</time>
      </trkpt>
      <trkpt lat="47.82905" lon="0.33926">
        <ele>129.875</ele>
        <time>2016-06-02T16:55:53Z</time>
      </trkpt>
      <trkpt lat="47.82923" lon="0.33897">
        <ele>130.408</ele>
        <time>2016-06-02T16:55:33Z</time>
      </trkpt>
      <trkpt lat="47.82973" lon="0.3387">
        <ele>130.62</ele>
        <time>2016-06-02T16:55:13Z</time>
      </trkpt>
      <trkpt lat="47.82983" lon="0.33845">
        <ele>130.873</ele>
        <time>2016-06-02T16:54:53Z</time>
      </trkpt>
      <trkpt lat="47.82991" lon="0.33663">
        <ele>141.892</ele>
        <time>2016-06-02T16:54:33Z</time>
      </trkpt>
      <trkpt lat="47.83006" lon="0.33627">
        <ele>142.312</ele>
        <time>2016-06-02T16:54:13Z</time>
      </trkpt>
      <trkpt lat="47.83007" lon="0.33567">
        <ele>145.923</ele>
        <time>2016-06-02T16:53:53Z</time>
      </trkpt>
      <trkpt lat="47.8296" lon="0.33497">
        <ele>148.777</ele>
        <time>2016-06-02T16:53:33Z</time>
      </trkpt>
      <trkpt lat="47.82945" lon="0.33404">
        <ele>148.025</ele>
        <time>2016-06-02T16:53:13Z</time>
      </trkpt>
      <trkpt lat="47.82945" lon="0.33337">
        <ele>147.029</ele>
        <time>2016-06-02T16:52:53Z</time>
      </trkpt>
      <trkpt lat="47.82974" lon="0.33234">
        <ele>146.096</ele>
        <time>2016-06-02T16:52:33Z</time>
      </trkpt>
      <trkpt lat="47.82963" lon="0.33197">
        <ele>147.991</ele>
        <time>2016-06-02T16:52:13Z</time>
      </trkpt>
      <trkpt lat="47.82963" lon="0.33197">
        <ele>147.955</ele>
        <time>2016-06-02T16:51:53Z</time>
      </trkpt>
      <trkpt lat="47.83012" lon="0.33181">
        <ele>146.408</ele>
        <time>2016-06-02T16:51:33Z</time>
      </trkpt>
      <trkpt lat="47.83179" lon="0.3321">
        <ele>132.424</ele>
        <time>2016-06-02T16:51:13Z</time>
      </trkpt>
      <trkpt lat="47.83287" lon="0.33201">
        <ele>137.931</ele>
        <time>2016-06-02T16:50:53Z</time>
      </trkpt>
      <trkpt lat="47.83411" lon="0.33137">
        <ele>145.196</ele>
        <time>2016-06-02T16:50:33Z</time>
      </trkpt>
      <trkpt lat="47.83503" lon="0.33044">
        <ele>152.071</ele>
        <time>2016-06-02T16:50:13Z</time>
      </trkpt>
      <trkpt lat="47.83622" lon="0.3297">
        <ele>152.332</ele>
        <time>2016-06-02T16:49:53Z</time>
      </trkpt>
      <trkpt lat="47.83568" lon="0.3278">
        <ele>158.086</ele>
        <time>2016-06-02T16:49:33Z</time>
      </trkpt>
      <trkpt lat="47.83539" lon="0.32666">
        <ele>160.054</ele>
        <time>2016-06-02T16:49:13Z</time>
      </trkpt>
      <trkpt lat="47.83539" lon="0.32422">
        <ele>164.848</ele>
        <time>2016-06-02T16:48:53Z</time>
      </trkpt>
      <trkpt lat="47.83552" lon="0.32394">
        <ele>166.555</ele>
        <time>2016-06-02T16:48:33Z</time>
      </trkpt>
      <trkpt lat="47.8352" lon="0.32253">
        <ele>167.36</ele>
        <time>2016-06-02T16:48:13Z</time>
      </trkpt>
      <trkpt lat="47.83542" lon="0.32208">
        <ele>168.544</ele>
        <time>2016-06-02T16:47:53Z</time>
      </trkpt>
      <trkpt lat="47.83586" lon="0.32006">
        <ele>166.308</ele>
        <time>2016-06-02T16:47:33Z</time>
      </trkpt>
      <trkpt lat="47.83735" lon="0.32072">
        <ele>168.417</ele>
        <time>2016-06-02T16:47:13Z</time>
      </trkpt>
      <trkpt lat="47.83805" lon="0.32067">
        <ele>171.225</ele>
        <time>2016-06-02T16:46:53Z</time>
      </trkpt>
      <trkpt lat="47.83913" lon="0.3205">
        <ele>172.183</ele>
        <time>2016-06-02T16:46:33Z</time>
      </trkpt>
      <trkpt lat="47.84198" lon="0.31996">
        <ele>170.615</ele>
        <time>2016-06-02T16:46:13Z</time>
      </trkpt>
      <trkpt lat="47.84422" lon="0.3199">
        <ele>154.146</ele>
        <time>2016-06-02T16:45:53Z</time>
      </trkpt>
      <trkpt lat="47.8448" lon="0.31958">
        <ele>151.97</ele>
        <time>2016-06-02T16:45:33Z</time>
      </trkpt>
      <trkpt lat="47.84471" lon="0.3204">
        <ele>153.468</ele>
        <time>2016-06-02T16:45:13Z</time>
      </trkpt>
      <trkpt lat="47.84653" lon="0.32239">
        <ele>154.012</ele>
        <time>2016-06-02T16:44:53Z</time>
      </trkpt>
      <trkpt lat="47.84769" lon="0.32359">
        <ele>149.269</ele>
        <time>2016-06-02T16:44:33Z</time>
      </trkpt>
      <trkpt lat="47.84786" lon="0.32453">
        <ele>152.214</ele>
        <time>2016-06-02T16:44:13Z</time>
      </trkpt>
      <trkpt lat="47.84807" lon="0.32524">
        <ele>151.148</ele>
        <time>2016-06-02T16:43:53Z</time>
      </trkpt>
      <trkpt lat="47.85047" lon="0.33041">
        <ele>140.208</ele>
        <time>2016-06-02T16:43:33Z</time>
      </trkpt>
      <trkpt lat="47.85147" lon="0.32962">
        <ele>142.714</ele>
        <time>2016-06-02T16:43:13Z</time>
      </trkpt>
      <trkpt lat="47.85224" lon="0.32852">
        <ele>135.468</ele>
        <time>2016-06-02T16:42:53Z</time>
      </trkpt>
      <trkpt lat="47.85268" lon="0.32818">
        <ele>134.527</ele>
        <time>2016-06-02T16:42:33Z</time>
      </trkpt>
      <trkpt lat="47.85301" lon="0.32774">
        <ele>135.942</ele>
        <time>2016-06-02T16:42:13Z</time>
      </trkpt>
      <trkpt lat="47.85397" lon="0.3298">
        <ele>138.183</ele>
        <time>2016-06-02T16:41:53Z</time>
      </trkpt>
      <trkpt lat="47.85461" lon="0.33087">
        <ele>139.377</ele>
        <time>2016-06-02T16:41:33Z</time>
      </trkpt>
      <trkpt lat="47.85526" lon="0.3319">
        <ele>141.345</ele>
        <time>2016-06-02T16:41:13Z</time>
      </trkpt>
      <trkpt lat="47.85608" lon="0.33277">
        <ele>139.289</ele>
        <time>2016-06-02T16:40:53Z</time>
      </trkpt>
      <trkpt lat="47.85654" lon="0.33298">
        <ele>136.966</ele>
        <time>2016-06-02T16:40:33Z</time>
      </trkpt>
      <trkpt lat="47.8568" lon="0.3333">
        <ele>134.631</ele>
        <time>2016-06-02T16:40:13Z</time>
      </trkpt>
      <trkpt lat="47.85718" lon="0.33281">
        <ele>135.915</ele>
        <time>2016-06-02T16:39:53Z</time>
      </trkpt>
      <trkpt lat="47.85761" lon="0.33248">
        <ele>140.408</ele>
        <time>2016-06-02T16:39:33Z</time>
      </trkpt>
      <trkpt lat="47.85761" lon="0.33248">
        <ele>140.426</ele>
        <time>2016-06-02T16:39:13Z</time>
      </trkpt>
      <trkpt lat="47.85764" lon="0.33228">
        <ele>144.415</ele>
        <time>2016-06-02T16:38:53Z</time>
      </trkpt>
      <trkpt lat="47.85738" lon="0.33045">
        <ele>152.798</ele>
        <time>2016-06-02T16:38:33Z</time>
      </trkpt>
      <trkpt lat="47.85676" lon="0.3294">
        <ele>152.195</ele>
        <time>2016-06-02T16:38:13Z</time>
      </trkpt>
      <trkpt lat="47.85611" lon="0.32801">
        <ele>158.076</ele>
        <time>2016-06-02T16:37:53Z</time>
      </trkpt>
      <trkpt lat="47.85597" lon="0.32643">
        <ele>158.82</ele>
        <time>2016-06-02T16:37:33Z</time>
      </trkpt>
      <trkpt lat="47.85613" lon="0.32648">
        <ele>159.898</ele>
        <time>2016-06-02T16:37:13Z</time>
      </trkpt>
      <trkpt lat="47.85739" lon="0.32572">
        <ele>145.952</ele>
        <time>2016-06-02T16:36:53Z</time>
      </trkpt>
      <trkpt lat="47.85771" lon="0.32568">
        <ele>142.799</ele>
        <time>2016-06-02T16:36:33Z</time>
      </trkpt>
      <trkpt lat="47.85839" lon="0.32631">
        <ele>135.014</ele>
        <time>2016-06-02T16:36:13Z</time>
      </trkpt>
      <trkpt lat="47.85964" lon="0.32685">
        <ele>125.498</ele>
        <time>2016-06-02T16:35:53Z</time>
      </trkpt>
      <trkpt lat="47.8608" lon="0.32725">
        <ele>116.808</ele>
        <time>2016-06-02T16:35:33Z</time>
      </trkpt>
      <trkpt lat="47.86127" lon="0.32751">
        <ele>118.111</ele>
        <time>2016-06-02T16:35:13Z</time>
      </trkpt>
      <trkpt lat="47.86176" lon="0.32795">
        <ele>111.747</ele>
        <time>2016-06-02T16:34:53Z</time>
      </trkpt>
      <trkpt lat="47.86223" lon="0.32804">
        <ele>105.026</ele>
        <time>2016-06-02T16:34:33Z</time>
      </trkpt>
      <trkpt lat="47.86338" lon="0.32801">
        <ele>98.077</ele>
        <time>2016-06-02T16:34:13Z</time>
      </trkpt>
      <trkpt lat="47.8636" lon="0.32816">
        <ele>98.068</ele>
        <time>2016-06-02T16:33:53Z</time>
      </trkpt>
      <trkpt lat="47.86371" lon="0.33125">
        <ele>105.662</ele>
        <time>2016-06-02T16:33:33Z</time>
      </trkpt>
      <trkpt lat="47.86401" lon="0.33209">
        <ele>101.66</ele>
        <time>2016-06-02T16:33:13Z</time>
      </trkpt>
      <trkpt lat="47.86416" lon="0.33313">
        <ele>105.324</ele>
        <time>2016-06-02T16:32:53Z</time>
      </trkpt>
      <trkpt lat="47.86463" lon="0.33361">
        <ele>106.731</ele>
        <time>2016-06-02T16:32:33Z</time>
      </trkpt>
      <trkpt lat="47.86635" lon="0.33491">
        <ele>105.616</ele>
        <time>2016-06-02T16:32:13Z</time>
      </trkpt>
      <trkpt lat="47.86636" lon="0.33455">
        <ele>101.54</ele>
        <time>2016-06-02T16:31:53Z</time>
      </trkpt>
      <trkpt lat="47.86663" lon="0.33405">
        <ele>93.908</ele>
        <time>2016-06-02T16:31:33Z</time>
      </trkpt>
      <trkpt lat="47.86755" lon="0.33355">
        <ele>95.022</ele>
        <time>2016-06-02T16:31:13Z</time>
      </trkpt>
      <trkpt lat="47.86809" lon="0.33335">
        <ele>96.002</ele>
        <time>2016-06-02T16:30:53Z</time>
      </trkpt>
      <trkpt lat="47.86881" lon="0.33335">
        <ele>97.749</ele>
        <time>2016-06-02T16:30:33Z</time>
      </trkpt>
      <trkpt lat="47.86946" lon="0.33346">
        <ele>100.572</ele>
        <time>2016-06-02T16:30:13Z</time>
      </trkpt>
      <trkpt lat="47.87001" lon="0.33374">
        <ele>101.913</ele>
        <time>2016-06-02T16:29:53Z</time>
      </trkpt>
      <trkpt lat="47.87001" lon="0.33374">
        <ele>101.997</ele>
        <time>2016-06-02T16:29:53Z</time>
      </trkpt>
      <trkpt lat="47.87008" lon="0.33376">
        <ele>102.125</ele>
        <time>2019-10-26T18:56:16Z</time>
      </trkpt>
      <trkpt lat="47.87018" lon="0.33477">
        <ele>107.729</ele>
        <time>2019-10-26T18:55:56Z</time>
      </trkpt>
      <trkpt lat="47.87058" lon="0.33642">
        <ele>118.026</ele>
        <time>2019-10-26T18:55:36Z</time>
      </trkpt>
      <trkpt lat="47.87116" lon="0.33799">
        <ele>134.671</ele>
        <time>2019-10-26T18:55:16Z</time>
      </trkpt>
      <trkpt lat="47.87172" lon="0.33796">
        <ele>133.115</ele>
        <time>2019-10-26T18:54:56Z</time>
      </trkpt>
      <trkpt lat="47.87212" lon="0.33818">
        <ele>131.808</ele>
        <time>2019-10-26T18:54:36Z</time>
      </trkpt>
      <trkpt lat="47.8732" lon="0.33831">
        <ele>132.427</ele>
        <time>2019-10-26T18:54:16Z</time>
      </trkpt>
      <trkpt lat="47.87355" lon="0.33816">
        <ele>130.807</ele>
        <time>2019-10-26T18:53:56Z</time>
      </trkpt>
      <trkpt lat="47.87355" lon="0.33816">
        <ele>130.899</ele>
        <time>2019-10-26T18:53:36Z</time>
      </trkpt>
      <trkpt lat="47.87427" lon="0.33831">
        <ele>128.999</ele>
        <time>2019-10-26T18:53:16Z</time>
      </trkpt>
      <trkpt lat="47.87419" lon="0.3429">
        <ele>128.95</ele>
        <time>2019-10-26T18:52:56Z</time>
      </trkpt>
      <trkpt lat="47.87428" lon="0.34369">
        <ele>129.364</ele>
        <time>2019-10-26T18:52:36Z</time>
      </trkpt>
      <trkpt lat="47.87386" lon="0.34558">
        <ele>131.762</ele>
        <time>2019-10-26T18:52:16Z</time>
      </trkpt>
      <trkpt lat="47.87355" lon="0.34848">
        <ele>120.956</ele>
        <time>2016-06-02T01:38:06Z</time>
      </trkpt>
      <trkpt lat="47.87355" lon="0.34848">
        <ele>120.963</ele>
        <time>2016-06-02T01:37:46Z</time>
      </trkpt>
      <trkpt lat="47.87464" lon="0.34906">
        <ele>122.818</ele>
        <time>2016-06-02T01:37:26Z</time>
      </trkpt>
      <trkpt lat="47.87496" lon="0.34996">
        <ele>120.032</ele>
        <time>2016-06-02T01:37:06Z</time>
      </trkpt>
      <trkpt lat="47.875" lon="0.35101">
        <ele>122.008</ele>
        <time>2016-06-02T01:36:46Z</time>
      </trkpt>
      <trkpt lat="47.87483" lon="0.35148">
        <ele>121.413</ele>
        <time>2016-06-02T01:36:26Z</time>
      </trkpt>
      <trkpt lat="47.87533" lon="0.35279">
        <ele>117.821</ele>
        <time>2016-06-02T01:36:06Z</time>
      </trkpt>
      <trkpt lat="47.87706" lon="0.35116">
        <ele>123.561</ele>
        <time>2016-06-02T01:35:46Z</time>
      </trkpt>
      <trkpt lat="47.87794" lon="0.35335">
        <ele>122.979</ele>
        <time>2016-06-02T01:35:26Z</time>
      </trkpt>
      <trkpt lat="47.87965" lon="0.35178">
        <ele>124.91</ele>
        <time>2016-06-02T01:35:06Z</time>
      </trkpt>
      <trkpt lat="47.88001" lon="0.35517">
        <ele>123.414</ele>
        <time>2016-06-02T01:34:46Z</time>
      </trkpt>
      <trkpt lat="47.88001" lon="0.35517">
        <ele>123.492</ele>
        <time>2016-06-02T01:34:26Z</time>
      </trkpt>
      <trkpt lat="47.88155" lon="0.35755">
        <ele>116.176</ele>
        <time>2016-06-02T01:34:06Z</time>
      </trkpt>
      <trkpt lat="47.88372" lon="0.36045">
        <ele>118.033</ele>
        <time>2016-06-02T01:33:46Z</time>
      </trkpt>
      <trkpt lat="47.88372" lon="0.36045">
        <ele>118.048</ele>
        <time>2016-06-02T01:33:26Z</time>
      </trkpt>
      <trkpt lat="47.88424" lon="0.36131">
        <ele>115.072</ele>
        <time>2016-06-02T01:33:06Z</time>
      </trkpt>
      <trkpt lat="47.88464" lon="0.36088">
        <ele>112.808</ele>
        <time>2016-06-02T01:32:46Z</time>
      </trkpt>
      <trkpt lat="47.88753" lon="0.36577">
        <ele>119.113</ele>
        <time>2016-06-02T01:32:26Z</time>
      </trkpt>
      <trkpt lat="47.8893" lon="0.36736">
        <ele>118.721</ele>
        <time>2016-06-02T01:32:06Z</time>
      </trkpt>
      <trkpt lat="47.89046" lon="0.36878">
        <ele>113.461</ele>
        <time>2016-06-02T01:31:46Z</time>
      </trkpt>
      <trkpt lat="47.89115" lon="0.36989">
        <ele>112.069</ele>
        <time>2016-06-02T01:31:26Z</time>
      </trkpt>
      <trkpt lat="47.89041" lon="0.37075">
        <ele>109.39</ele>
        <time>2016-06-02T01:31:06Z</time>
      </trkpt>
      <trkpt lat="47.89086" lon="0.3709">
        <ele>107.944</ele>
        <time>2016-06-02T01:30:46Z</time>
      </trkpt>
      <trkpt lat="47.89187" lon="0.37215">
        <ele>108.362</ele>
        <time>2016-06-02T01:30:26Z</time>
      </trkpt>
      <trkpt lat="47.89282" lon="0.37395">
        <ele>117.176</ele>
        <time>2016-06-02T01:30:06Z</time>
      </trkpt>
      <trkpt lat="47.89282" lon="0.37395">
        <ele>117.183</ele>
        <time>2016-06-02T01:29:46Z</time>
      </trkpt>
      <trkpt lat="47.89313" lon="0.37506">
        <ele>116.658</ele>
        <time>2016-06-02T01:29:26Z</time>
      </trkpt>
      <trkpt lat="47.89387" lon="0.37674">
        <ele>111.812</ele>
        <time>2016-06-02T01:29:06Z</time>
      </trkpt>
      <trkpt lat="47.89437" lon="0.37708">
        <ele>111.308</ele>
        <time>2016-06-02T01:28:46Z</time>
      </trkpt>
      <trkpt lat="47.89466" lon="0.3777">
        <ele>110.124</ele>
        <time>2016-06-02T01:28:26Z</time>
      </trkpt>
      <trkpt lat="47.89477" lon="0.37888">
        <ele>108.504</ele>
        <time>2016-06-02T01:28:06Z</time>
      </trkpt>
      <trkpt lat="47.8951" lon="0.37946">
        <ele>112.869</ele>
        <time>2016-06-02T01:27:46Z</time>
      </trkpt>
      <trkpt lat="47.89566" lon="0.38133">
        <ele>117.214</ele>
        <time>2016-06-02T01:27:26Z</time>
      </trkpt>
      <trkpt lat="47.89674" lon="0.38058">
        <ele>123.795</ele>
        <time>2016-06-02T01:27:06Z</time>
      </trkpt>
      <trkpt lat="47.89772" lon="0.37953">
        <ele>117.299</ele>
        <time>2016-06-02T01:26:46Z</time>
      </trkpt>
      <trkpt lat="47.89838" lon="0.37963">
        <ele>113.497</ele>
        <time>2016-06-02T01:26:26Z</time>
      </trkpt>
      <trkpt lat="47.89955" lon="0.38094">
        <ele>112.761</ele>
        <time>2016-06-02T01:26:06Z</time>
      </trkpt>
      <trkpt lat="47.89974" lon="0.38223">
        <ele>114.078</ele>
        <time>2016-06-02T01:25:46Z</time>
      </trkpt>
      <trkpt lat="47.90012" lon="0.38453">
        <ele>109.153</ele>
        <time>2016-06-02T01:25:26Z</time>
      </trkpt>
      <trkpt lat="47.89969" lon="0.38466">
        <ele>108.087</ele>
        <time>2016-06-02T01:25:06Z</time>
      </trkpt>
      <trkpt lat="47.8982" lon="0.38547">
        <ele>109.408</ele>
        <time>2016-06-02T01:24:46Z</time>
      </trkpt>
      <trkpt lat="47.8963" lon="0.38609">
        <ele>110.317</ele>
        <time>2016-06-02T01:24:26Z</time>
      </trkpt>
      <trkpt lat="47.8963" lon="0.38609">
        <ele>110.398</ele>
        <time>2016-06-02T01:24:06Z</time>
      </trkpt>
      <trkpt lat="47.8963" lon="0.38697">
        <ele>110.018</ele>
        <time>2016-06-02T01:23:46Z</time>
      </trkpt>
      <trkpt lat="47.89591" lon="0.38796">
        <ele>111.278</ele>
        <time>2016-06-02T01:23:26Z</time>
      </trkpt>
      <trkpt lat="47.8966" lon="0.38895">
        <ele>109.299</ele>
        <time>2016-06-02T01:23:06Z</time>
      </trkpt>
      <trkpt lat="47.89728" lon="0.38918">
        <ele>113.453</ele>
        <time>2016-06-02T01:22:46Z</time>
      </trkpt>
      <trkpt lat="47.89761" lon="0.38981">
        <ele>117.471</ele>
        <time>2016-06-02T01:22:26Z</time>
      </trkpt>
      <trkpt lat="47.89788" lon="0.38993">
        <ele>117.995</ele>
        <time>2016-06-02T01:22:06Z</time>
      </trkpt>
      <trkpt lat="47.89784" lon="0.39075">
        <ele>121.262</ele>
        <time>2016-06-02T01:21:46Z</time>
      </trkpt>
      <trkpt lat="47.89899" lon="0.39339">
        <ele>127.867</ele>
        <time>2016-06-02T01:21:26Z</time>
      </trkpt>
      <trkpt lat="47.89899" lon="0.39339">
        <ele>127.861</ele>
        <time>2016-06-02T01:21:06Z</time>
      </trkpt>
      <trkpt lat="47.89817" lon="0.39384">
        <ele>122.108</ele>
        <time>2016-06-02T01:20:46Z</time>
      </trkpt>
      <trkpt lat="47.89765" lon="0.39448">
        <ele>121.317</ele>
        <time>2016-06-02T01:20:26Z</time>
      </trkpt>
      <trkpt lat="47.89587" lon="0.39496">
        <ele>122.052</ele>
        <time>2016-06-02T01:20:06Z</time>
      </trkpt>
      <trkpt lat="47.89587" lon="0.39496">
        <ele>122.058</ele>
        <time>2016-06-02T01:19:46Z</time>
      </trkpt>
      <trkpt lat="47.89385" lon="0.39671">
        <ele>122.174</ele>
        <time>2016-06-02T01:19:26Z</time>
      </trkpt>
      <trkpt lat="47.89294" lon="0.39742">
        <ele>121.295</ele>
        <time>2016-06-02T01:19:06Z</time>
      </trkpt>
      <trkpt lat="47.89251" lon="0.39809">
        <ele>118.149</ele>
        <time>2016-06-02T01:18:46Z</time>
      </trkpt>
      <trkpt lat="47.89228" lon="0.39907">
        <ele>119.097</ele>
        <time>2016-06-02T01:18:26Z</time>
      </trkpt>
      <trkpt lat="47.89201" lon="0.39953">
        <ele>119.521</ele>
        <time>2016-06-02T01:18:06Z</time>
      </trkpt>
      <trkpt lat="47.89107" lon="0.39985">
        <ele>123.198</ele>
        <time>2016-06-02T01:17:46Z</time>
      </trkpt>
      <trkpt lat="47.89086" lon="0.40028">
        <ele>123.963</ele>
        <time>2016-06-02T01:17:26Z</time>
      </trkpt>
      <trkpt lat="47.89044" lon="0.40045">
        <ele>125.097</ele>
        <time>2016-06-02T01:17:06Z</time>
      </trkpt>
      <trkpt lat="47.89015" lon="0.40006">
        <ele>123.808</ele>
        <time>2016-06-02T01:16:46Z</time>
      </trkpt>
      <trkpt lat="47.88949" lon="0.40036">
        <ele>128.613</ele>
        <time>2016-06-02T01:16:26Z</time>
      </trkpt>
      <trkpt lat="47.88913" lon="0.40693">
        <ele>144.176</ele>
        <time>2016-06-02T01:16:06Z</time>
      </trkpt>
      <trkpt lat="47.88815" lon="0.40753">
        <ele>145.316</ele>
        <time>2016-06-02T01:15:46Z</time>
      </trkpt>
      <trkpt lat="47.88715" lon="0.40854">
        <ele>145.027</ele>
        <time>2016-06-02T01:15:26Z</time>
      </trkpt>
      <trkpt lat="47.8862" lon="0.40948">
        <ele>143.938</ele>
        <time>2016-06-02T01:15:06Z</time>
      </trkpt>
      <trkpt lat="47.88814" lon="0.40985">
        <ele>143.292</ele>
        <time>2016-06-02T01:14:46Z</time>
      </trkpt>
      <trkpt lat="47.88814" lon="0.40985">
        <ele>143.22</ele>
        <time>2016-06-02T01:14:26Z</time>
      </trkpt>
      <trkpt lat="47.89098" lon="0.41013">
        <ele>144.614</ele>
        <time>2016-06-02T01:14:06Z</time>
      </trkpt>
      <trkpt lat="47.89768" lon="0.4112">
        <ele>146.311</ele>
        <time>2016-06-02T01:13:46Z</time>
      </trkpt>
      <trkpt lat="47.9003" lon="0.41279">
        <ele>143.066</ele>
        <time>2016-06-02T01:13:26Z</time>
      </trkpt>
      <trkpt lat="47.90113" lon="0.41307">
        <ele>140.86</ele>
        <time>2016-06-02T01:13:06Z</time>
      </trkpt>
      <trkpt lat="47.9024" lon="0.41322">
        <ele>134.908</ele>
        <time>2016-06-02T01:12:46Z</time>
      </trkpt>
      <trkpt lat="47.90367" lon="0.41384">
        <ele>133.914</ele>
        <time>2016-06-02T01:12:26Z</time>
      </trkpt>
      <trkpt lat="47.9043" lon="0.41167">
        <ele>127.122</ele>
        <time>2016-06-02T01:12:06Z</time>
      </trkpt>
      <trkpt lat="47.9043" lon="0.41167">
        <ele>127.142</ele>
        <time>2016-06-02T01:11:46Z</time>
      </trkpt>
      <trkpt lat="47.9061" lon="0.40747">
        <ele>128.951</ele>
        <time>2016-06-02T01:11:26Z</time>
      </trkpt>
      <trkpt lat="47.90771" lon="0.40697">
        <ele>133.772</ele>
        <time>2016-06-02T01:11:06Z</time>
      </trkpt>
      <trkpt lat="47.90869" lon="0.40626">
        <ele>135.966</ele>
        <time>2016-06-02T01:10:46Z</time>
      </trkpt>
      <trkpt lat="47.90905" lon="0.40624">
        <ele>134.774</ele>
        <time>2016-06-02T01:10:26Z</time>
      </trkpt>
      <trkpt lat="47.90919" lon="0.40598">
        <ele>134.738</ele>
        <time>2016-06-02T01:10:06Z</time>
      </trkpt>
      <trkpt lat="47.91002" lon="0.40598">
        <ele>124.415</ele>
        <time>2016-06-02T01:09:46Z</time>
      </trkpt>
      <trkpt lat="47.91057" lon="0.40553">
        <ele>120.87</ele>
        <time>2016-06-02T01:09:26Z</time>
      </trkpt>
      <trkpt lat="47.91204" lon="0.40611">
        <ele>114.314</ele>
        <time>2016-06-02T01:09:06Z</time>
      </trkpt>
      <trkpt lat="47.91414" lon="0.40663">
        <ele>107.108</ele>
        <time>2016-06-02T01:08:46Z</time>
      </trkpt>
      <trkpt lat="47.91408" lon="0.40719">
        <ele>108.017</ele>
        <time>2016-06-02T01:08:26Z</time>
      </trkpt>
      <trkpt lat="47.91706" lon="0.40965">
        <ele>114.861</ele>
        <time>2016-06-02T01:08:06Z</time>
      </trkpt>
      <trkpt lat="47.9174" lon="0.40899">
        <ele>111.481</ele>
        <time>2016-06-02T01:07:46Z</time>
      </trkpt>
      <trkpt lat="47.9174" lon="0.40899">
        <ele>111.497</ele>
        <time>2016-06-02T01:07:26Z</time>
      </trkpt>
      <trkpt lat="47.91698" lon="0.40764">
        <ele>113.178</ele>
        <time>2016-06-02T01:07:06Z</time>
      </trkpt>
      <trkpt lat="47.91707" lon="0.40598">
        <ele>112.172</ele>
        <time>2016-06-02T01:06:46Z</time>
      </trkpt>
      <trkpt lat="47.91756" lon="0.40414">
        <ele>105.61</ele>
        <time>2016-06-02T01:06:26Z</time>
      </trkpt>
      <trkpt lat="47.91792" lon="0.40354">
        <ele>103.614</ele>
        <time>2016-06-02T01:06:06Z</time>
      </trkpt>
      <trkpt lat="47.91854" lon="0.40214">
        <ele>102.851</ele>
        <time>2016-06-02T01:05:46Z</time>
      </trkpt>
      <trkpt lat="47.91799" lon="0.4012">
        <ele>102.076</ele>
        <time>2016-06-02T01:05:26Z</time>
      </trkpt>
      <trkpt lat="47.91809" lon="0.40058">
        <ele>101.88</ele>
        <time>2016-06-02T01:05:06Z</time>
      </trkpt>
      <trkpt lat="47.91798" lon="0.40008">
        <ele>102.108</ele>
        <time>2016-06-02T01:04:46Z</time>
      </trkpt>
      <trkpt lat="47.91959" lon="0.39856">
        <ele>102.717</ele>
        <time>2016-06-02T01:04:26Z</time>
      </trkpt>
      <trkpt lat="47.9215" lon="0.40161">
        <ele>99.061</ele>
        <time>2016-06-02T01:04:06Z</time>
      </trkpt>
      <trkpt lat="47.92423" lon="0.40699">
        <ele>95.348</ele>
        <time>2016-06-02T01:03:46Z</time>
      </trkpt>
      <trkpt lat="47.92606" lon="0.40925">
        <ele>95.239</ele>
        <time>2016-06-02T01:03:26Z</time>
      </trkpt>
      <trkpt lat="47.92796" lon="0.4118">
        <ele>91.68</ele>
        <time>2016-06-02T01:03:06Z</time>
      </trkpt>
      <trkpt lat="47.92871" lon="0.41312">
        <ele>93.254</ele>
        <time>2020-12-24T11:26:35Z</time>
      </trkpt>
      <trkpt lat="47.9292" lon="0.41428">
        <ele>93.852</ele>
        <time>2020-12-24T11:26:15Z</time>
      </trkpt>
      <trkpt lat="47.92998" lon="0.41375">
        <ele>92.166</ele>
        <time>2020-12-24T11:25:55Z</time>
      </trkpt>
      <trkpt lat="47.93007" lon="0.41297">
        <ele>90.983</ele>
        <time>2020-12-24T11:25:35Z</time>
      </trkpt>
      <trkpt lat="47.93028" lon="0.41218">
        <ele>88.488</ele>
        <time>2020-12-24T11:25:15Z</time>
      </trkpt>
      <trkpt lat="47.93073" lon="0.41255">
        <ele>87.612</ele>
        <time>2016-06-02T01:01:46Z</time>
      </trkpt>
      <trkpt lat="47.93087" lon="0.41345">
        <ele>89.808</ele>
        <time>2016-06-02T01:01:26Z</time>
      </trkpt>
      <trkpt lat="47.93045" lon="0.41505">
        <ele>93.426</ele>
        <time>2020-12-24T11:24:15Z</time>
      </trkpt>
      <trkpt lat="47.93129" lon="0.41564">
        <ele>92.542</ele>
        <time>2020-12-24T11:23:55Z</time>
      </trkpt>
      <trkpt lat="47.93181" lon="0.41454">
        <ele>90.668</ele>
        <time>2020-12-24T11:23:35Z</time>
      </trkpt>
      <trkpt lat="47.93355" lon="0.41624">
        <ele>88.216</ele>
        <time>2016-06-02T01:01:06Z</time>
      </trkpt>
      <trkpt lat="47.93417" lon="0.41648">
        <ele>87.347</ele>
        <time>2016-06-02T01:00:46Z</time>
      </trkpt>
      <trkpt lat="47.93424" lon="0.41594">
        <ele>86.511</ele>
        <time>2016-06-02T01:00:26Z</time>
      </trkpt>
      <trkpt lat="47.93478" lon="0.41517">
        <ele>88.039</ele>
        <time>2016-06-02T01:00:06Z</time>
      </trkpt>
      <trkpt lat="47.93546" lon="0.41502">
        <ele>91.393</ele>
        <time>2016-06-02T00:59:46Z</time>
      </trkpt>
      <trkpt lat="47.93595" lon="0.41302">
        <ele>90.08</ele>
        <time>2016-06-02T00:59:26Z</time>
      </trkpt>
      <trkpt lat="47.93595" lon="0.41302">
        <ele>90.045</ele>
        <time>2016-06-02T00:59:06Z</time>
      </trkpt>
      <trkpt lat="47.93632" lon="0.41285">
        <ele>91.369</ele>
        <time>2016-06-02T00:58:46Z</time>
      </trkpt>
      <trkpt lat="47.93815" lon="0.41358">
        <ele>92.708</ele>
        <time>2016-06-02T00:58:26Z</time>
      </trkpt>
      <trkpt lat="47.93987" lon="0.41341">
        <ele>93.318</ele>
        <time>2016-06-02T00:58:06Z</time>
      </trkpt>
      <trkpt lat="47.94092" lon="0.4136">
        <ele>94.717</ele>
        <time>2016-06-02T00:57:46Z</time>
      </trkpt>
      <trkpt lat="47.94166" lon="0.41347">
        <ele>97.036</ele>
        <time>2016-06-02T00:57:26Z</time>
      </trkpt>
      <trkpt lat="47.94242" lon="0.41356">
        <ele>94.461</ele>
        <time>2016-06-02T00:57:06Z</time>
      </trkpt>
      <trkpt lat="47.94529" lon="0.41315">
        <ele>93.052</ele>
        <time>2016-06-02T00:56:46Z</time>
      </trkpt>
      <trkpt lat="47.94692" lon="0.41251">
        <ele>95.136</ele>
        <time>2016-06-02T00:56:26Z</time>
      </trkpt>
      <trkpt lat="47.94877" lon="0.4103">
        <ele>96.594</ele>
        <time>2016-06-02T00:56:06Z</time>
      </trkpt>
      <trkpt lat="47.95081" lon="0.40731">
        <ele>92.898</ele>
        <time>2016-06-02T00:55:46Z</time>
      </trkpt>
      <trkpt lat="47.95209" lon="0.40508">
        <ele>88.895</ele>
        <time>2016-06-02T00:55:26Z</time>
      </trkpt>
      <trkpt lat="47.95261" lon="0.40566">
        <ele>89.02</ele>
        <time>2016-06-02T00:55:06Z</time>
      </trkpt>
      <trkpt lat="47.95337" lon="0.40541">
        <ele>88.954</ele>
        <time>2016-06-02T00:54:46Z</time>
      </trkpt>
      <trkpt lat="47.95488" lon="0.4039">
        <ele>95.008</ele>
        <time>2016-06-02T00:54:26Z</time>
      </trkpt>
      <trkpt lat="47.96101" lon="0.40538">
        <ele>89.517</ele>
        <time>2016-06-02T00:54:06Z</time>
      </trkpt>
      <trkpt lat="47.96146" lon="0.4039">
        <ele>87.525</ele>
        <time>2016-06-02T00:53:46Z</time>
      </trkpt>
      <trkpt lat="47.96147" lon="0.40322">
        <ele>86.483</ele>
        <time>2016-06-02T00:53:26Z</time>
      </trkpt>
      <trkpt lat="47.96134" lon="0.39929">
        <ele>85.715</ele>
        <time>2016-06-02T00:53:06Z</time>
      </trkpt>
      <trkpt lat="47.96175" lon="0.38899">
        <ele>102.356</ele>
        <time>2016-06-02T00:52:46Z</time>
      </trkpt>
      <trkpt lat="47.96169" lon="0.38545">
        <ele>93.69</ele>
        <time>2016-06-02T00:52:26Z</time>
      </trkpt>
      <trkpt lat="47.96268" lon="0.38609">
        <ele>86.318</ele>
        <time>2016-06-02T00:52:06Z</time>
      </trkpt>
      <trkpt lat="47.96419" lon="0.38684">
        <ele>86.362</ele>
        <time>2016-06-02T00:51:46Z</time>
      </trkpt>
      <trkpt lat="47.96589" lon="0.38805">
        <ele>88.099</ele>
        <time>2016-06-02T00:51:26Z</time>
      </trkpt>
      <trkpt lat="47.96626" lon="0.38815">
        <ele>86.974</ele>
        <time>2016-06-02T00:51:06Z</time>
      </trkpt>
      <trkpt lat="47.96837" lon="0.38972">
        <ele>84.078</ele>
        <time>2016-06-02T00:50:46Z</time>
      </trkpt>
      <trkpt lat="47.96897" lon="0.39066">
        <ele>84.608</ele>
        <time>2016-06-02T00:50:26Z</time>
      </trkpt>
      <trkpt lat="47.97031" lon="0.39174">
        <ele>89.214</ele>
        <time>2016-06-02T00:50:06Z</time>
      </trkpt>
      <trkpt lat="47.97116" lon="0.39133">
        <ele>87.104</ele>
        <time>2016-06-02T00:49:46Z</time>
      </trkpt>
      <trkpt lat="47.97397" lon="0.38822">
        <ele>83.924</ele>
        <time>2016-06-02T00:49:26Z</time>
      </trkpt>
      <trkpt lat="47.97726" lon="0.38672">
        <ele>88.075</ele>
        <time>2016-06-02T00:49:06Z</time>
      </trkpt>
      <trkpt lat="47.97759" lon="0.38682">
        <ele>88.396</ele>
        <time>2016-06-02T00:48:46Z</time>
      </trkpt>
      <trkpt lat="47.97695" lon="0.38275">
        <ele>88.36</ele>
        <time>2016-06-02T00:48:26Z</time>
      </trkpt>
      <trkpt lat="47.97646" lon="0.37839">
        <ele>91.068</ele>
        <time>2016-06-02T00:48:06Z</time>
      </trkpt>
      <trkpt lat="47.9765" lon="0.36204">
        <ele>88.692</ele>
        <time>2016-06-02T00:47:46Z</time>
      </trkpt>
      <trkpt lat="47.9765" lon="0.36204">
        <ele>88.669</ele>
        <time>2016-06-02T00:47:26Z</time>
      </trkpt>
      <trkpt lat="47.9765" lon="0.36204">
        <ele>88.654</ele>
        <time>2016-06-02T00:47:06Z</time>
      </trkpt>
      <trkpt lat="47.97718" lon="0.35848">
        <ele>93.178</ele>
        <time>2016-06-02T00:46:46Z</time>
      </trkpt>
      <trkpt lat="47.979" lon="0.35331">
        <ele>84.708</ele>
        <time>2016-06-02T00:46:26Z</time>
      </trkpt>
      <trkpt lat="47.98029" lon="0.34796">
        <ele>78.711</ele>
        <time>2016-06-02T00:46:06Z</time>
      </trkpt>
      <trkpt lat="47.98072" lon="0.34944">
        <ele>80.083</ele>
        <time>2016-06-02T00:45:46Z</time>
      </trkpt>
      <trkpt lat="47.98164" lon="0.35103">
        <ele>83.623</ele>
        <time>2016-06-02T00:45:26Z</time>
      </trkpt>
      <trkpt lat="47.98436" lon="0.35378">
        <ele>92.268</ele>
        <time>2016-06-02T00:45:06Z</time>
      </trkpt>
      <trkpt lat="47.98561" lon="0.35414">
        <ele>95.329</ele>
        <time>2016-06-02T00:44:46Z</time>
      </trkpt>
      <trkpt lat="47.98644" lon="0.35474">
        <ele>91.393</ele>
        <time>2016-06-02T00:44:26Z</time>
      </trkpt>
      <trkpt lat="47.98739" lon="0.35494">
        <ele>90.981</ele>
        <time>2016-06-02T00:44:06Z</time>
      </trkpt>
      <trkpt lat="47.98864" lon="0.35494">
        <ele>88.045</ele>
        <time>2016-06-02T00:43:46Z</time>
      </trkpt>
      <trkpt lat="47.98883" lon="0.35202">
        <ele>96.252</ele>
        <time>2016-06-02T00:43:26Z</time>
      </trkpt>
      <trkpt lat="47.98898" lon="0.35092">
        <ele>100.077</ele>
        <time>2016-06-02T00:43:06Z</time>
      </trkpt>
      <trkpt lat="47.98973" lon="0.35039">
        <ele>96.621</ele>
        <time>2016-06-02T00:42:46Z</time>
      </trkpt>
      <trkpt lat="47.99112" lon="0.34996">
        <ele>93.208</ele>
        <time>2016-06-02T00:42:26Z</time>
      </trkpt>
      <trkpt lat="47.99109" lon="0.34811">
        <ele>103.82</ele>
        <time>2016-06-02T00:42:06Z</time>
      </trkpt>
      <trkpt lat="47.99148" lon="0.34822">
        <ele>104.9</ele>
        <time>2016-06-02T00:41:46Z</time>
      </trkpt>
      <trkpt lat="47.99144" lon="0.34674">
        <ele>112.757</ele>
        <time>2016-06-02T00:41:26Z</time>
      </trkpt>
      <trkpt lat="47.99177" lon="0.34524">
        <ele>121.049</ele>
        <time>2016-06-02T00:41:06Z</time>
      </trkpt>
      <trkpt lat="47.99233" lon="0.34519">
        <ele>123.49</ele>
        <time>2016-06-02T00:40:46Z</time>
      </trkpt>
      <trkpt lat="47.99246" lon="0.34386">
        <ele>123.944</ele>
        <time>2016-06-02T00:40:26Z</time>
      </trkpt>
      <trkpt lat="47.99219" lon="0.3423">
        <ele>123.842</ele>
        <time>2016-06-02T00:40:06Z</time>
      </trkpt>
      <trkpt lat="47.99186" lon="0.3415">
        <ele>117.886</ele>
        <time>2016-06-02T00:39:46Z</time>
      </trkpt>
      <trkpt lat="47.9899" lon="0.33959">
        <ele>98.533</ele>
        <time>2016-06-02T00:39:26Z</time>
      </trkpt>
      <trkpt lat="47.9899" lon="0.33959">
        <ele>98.568</ele>
        <time>2016-06-02T00:39:06Z</time>
      </trkpt>
      <trkpt lat="47.9896" lon="0.33891">
        <ele>93.722</ele>
        <time>2016-06-02T00:38:46Z</time>
      </trkpt>
      <trkpt lat="47.98953" lon="0.33807">
        <ele>94.008</ele>
        <time>2016-06-02T00:38:26Z</time>
      </trkpt>
      <trkpt lat="47.98918" lon="0.33599">
        <ele>91.114</ele>
        <time>2016-06-02T00:38:06Z</time>
      </trkpt>
      <trkpt lat="47.99007" lon="0.33612">
        <ele>97.368</ele>
        <time>2016-06-02T00:37:46Z</time>
      </trkpt>
      <trkpt lat="47.99184" lon="0.33595">
        <ele>107.965</ele>
        <time>2016-06-02T00:37:26Z</time>
      </trkpt>
      <trkpt lat="47.99332" lon="0.3355">
        <ele>99.947</ele>
        <time>2016-06-02T00:37:06Z</time>
      </trkpt>
      <trkpt lat="47.99437" lon="0.33459">
        <ele>91.668</ele>
        <time>2016-06-02T00:36:46Z</time>
      </trkpt>
      <trkpt lat="47.99448" lon="0.33374">
        <ele>89.982</ele>
        <time>2016-06-02T00:36:26Z</time>
      </trkpt>
      <trkpt lat="47.99434" lon="0.33245">
        <ele>89.66</ele>
        <time>2016-06-02T00:36:06Z</time>
      </trkpt>
      <trkpt lat="47.99374" lon="0.33105">
        <ele>84.574</ele>
        <time>2016-06-02T00:35:46Z</time>
      </trkpt>
      <trkpt lat="47.99355" lon="0.33022">
        <ele>79.671</ele>
        <time>2016-06-02T00:35:26Z</time>
      </trkpt>
      <trkpt lat="47.99358" lon="0.32897">
        <ele>77.346</ele>
        <time>2016-06-02T00:35:06Z</time>
      </trkpt>
      <trkpt lat="47.99435" lon="0.32925">
        <ele>77.84</ele>
        <time>2016-06-02T00:34:46Z</time>
      </trkpt>
      <trkpt lat="47.99507" lon="0.32912">
        <ele>74.608</ele>
        <time>2016-06-02T00:34:26Z</time>
      </trkpt>
      <trkpt lat="47.99835" lon="0.3306">
        <ele>73.221</ele>
        <time>2016-06-02T00:34:06Z</time>
      </trkpt>
      <trkpt lat="48.00003" lon="0.32899">
        <ele>69.629</ele>
        <time>2016-06-02T00:33:46Z</time>
      </trkpt>
      <trkpt lat="48.00116" lon="0.32917">
        <ele>72.347</ele>
        <time>2016-06-02T00:33:26Z</time>
      </trkpt>
      <trkpt lat="48.00014" lon="0.32771">
        <ele>69.546</ele>
        <time>2016-06-02T00:33:06Z</time>
      </trkpt>
      <trkpt lat="48.00014" lon="0.32771">
        <ele>69.597</ele>
        <time>2016-06-02T00:32:46Z</time>
      </trkpt>
      <trkpt lat="48.00027" lon="0.32481">
        <ele>81.681</ele>
        <time>2016-06-02T00:32:26Z</time>
      </trkpt>
      <trkpt lat="48.0001" lon="0.32357">
        <ele>78.349</ele>
        <time>2016-06-02T00:32:06Z</time>
      </trkpt>
      <trkpt lat="48.00011" lon="0.32224">
        <ele>81.513</ele>
        <time>2016-06-02T00:31:46Z</time>
      </trkpt>
      <trkpt lat="48.00005" lon="0.32063">
        <ele>81.22</ele>
        <time>2016-06-02T00:31:26Z</time>
      </trkpt>
      <trkpt lat="48.00005" lon="0.31854">
        <ele>80.015</ele>
        <time>2016-06-02T00:31:06Z</time>
      </trkpt>
      <trkpt lat="47.99967" lon="0.31719">
        <ele>74.419</ele>
        <time>2016-06-02T00:30:46Z</time>
      </trkpt>
      <trkpt lat="47.9986" lon="0.31809">
        <ele>67.008</ele>
        <time>2016-06-02T00:30:26Z</time>
      </trkpt>
      <trkpt lat="47.99817" lon="0.31565">
        <ele>66.815</ele>
        <time>2016-06-02T00:30:06Z</time>
      </trkpt>
      <trkpt lat="47.99817" lon="0.315">
        <ele>63.423</ele>
        <time>2016-06-02T00:29:46Z</time>
      </trkpt>
      <trkpt lat="47.99922" lon="0.31558">
        <ele>72.033</ele>
        <time>2016-06-02T00:29:26Z</time>
      </trkpt>
      <trkpt lat="47.99962" lon="0.31533">
        <ele>74.858</ele>
        <time>2016-06-02T00:29:06Z</time>
      </trkpt>
      <trkpt lat="47.99982" lon="0.31121">
        <ele>77.629</ele>
        <time>2016-06-02T00:28:46Z</time>
      </trkpt>
      <trkpt lat="48" lon="0.3097">
        <ele>82.023</ele>
        <time>2016-06-02T00:28:26Z</time>
      </trkpt>
      <trkpt lat="48" lon="0.30833">
        <ele>80.051</ele>
        <time>2016-06-02T00:28:06Z</time>
      </trkpt>
      <trkpt lat="48.00017" lon="0.30681">
        <ele>68.365</ele>
        <time>2016-06-02T00:27:46Z</time>
      </trkpt>
      <trkpt lat="48.00011" lon="0.30483">
        <ele>66.692</ele>
        <time>2016-06-02T00:27:26Z</time>
      </trkpt>
      <trkpt lat="48.00046" lon="0.30325">
        <ele>72.777</ele>
        <time>2016-06-02T00:27:06Z</time>
      </trkpt>
      <trkpt lat="48.00031" lon="0.30191">
        <ele>73.011</ele>
        <time>2016-06-02T00:26:46Z</time>
      </trkpt>
      <trkpt lat="47.99896" lon="0.29715">
        <ele>70.208</ele>
        <time>2016-06-02T00:26:26Z</time>
      </trkpt>
      <trkpt lat="47.99878" lon="0.29614">
        <ele>70.611</ele>
        <time>2016-06-02T00:26:06Z</time>
      </trkpt>
      <trkpt lat="47.99836" lon="0.29496">
        <ele>76.556</ele>
        <time>2016-06-02T00:25:46Z</time>
      </trkpt>
      <trkpt lat="47.99833" lon="0.29344">
        <ele>68.454</ele>
        <time>2016-06-02T00:25:26Z</time>
      </trkpt>
      <trkpt lat="47.99816" lon="0.29071">
        <ele>71.341</ele>
        <time>2016-06-02T00:25:06Z</time>
      </trkpt>
      <trkpt lat="47.99825" lon="0.28996">
        <ele>64.762</ele>
        <time>2016-06-02T00:24:46Z</time>
      </trkpt>
      <trkpt lat="47.99784" lon="0.28971">
        <ele>67.126</ele>
        <time>2016-06-02T00:24:26Z</time>
      </trkpt>
      <trkpt lat="47.99682" lon="0.28953">
        <ele>72.644</ele>
        <time>2016-06-02T00:24:06Z</time>
      </trkpt>
      <trkpt lat="47.99642" lon="0.28915">
        <ele>69.718</ele>
        <time>2016-06-02T00:23:46Z</time>
      </trkpt>
      <trkpt lat="47.99566" lon="0.28741">
        <ele>62.725</ele>
        <time>2016-06-02T00:23:26Z</time>
      </trkpt>
      <trkpt lat="47.99468" lon="0.28659">
        <ele>58.03</ele>
        <time>2016-06-02T00:23:06Z</time>
      </trkpt>
      <trkpt lat="47.99517" lon="0.28606">
        <ele>58.434</ele>
        <time>2016-06-02T00:22:46Z</time>
      </trkpt>
      <trkpt lat="47.99466" lon="0.28565">
        <ele>60.408</ele>
        <time>2016-06-02T00:22:26Z</time>
      </trkpt>
      <trkpt lat="47.99444" lon="0.28295">
        <ele>75.226</ele>
        <time>2016-06-02T00:22:06Z</time>
      </trkpt>
      <trkpt lat="47.99421" lon="0.279">
        <ele>78.606</ele>
        <time>2016-06-02T00:21:46Z</time>
      </trkpt>
      <trkpt lat="47.99744" lon="0.27786">
        <ele>64.889</ele>
        <time>2016-06-02T00:21:26Z</time>
      </trkpt>
      <trkpt lat="48.00067" lon="0.27844">
        <ele>58.617</ele>
        <time>2016-06-02T00:21:06Z</time>
      </trkpt>
      <trkpt lat="48.00169" lon="0.27889">
        <ele>60.148</ele>
        <time>2016-06-02T00:20:46Z</time>
      </trkpt>
      <trkpt lat="48.00165" lon="0.27913">
        <ele>58.952</ele>
        <time>2016-06-02T00:20:26Z</time>
      </trkpt>
      <trkpt lat="48.00234" lon="0.28076">
        <ele>61.27</ele>
        <time>2016-06-02T00:20:06Z</time>
      </trkpt>
      <trkpt lat="48.00346" lon="0.28378">
        <ele>62.044</ele>
        <time>2016-06-02T00:19:46Z</time>
      </trkpt>
      <trkpt lat="48.00346" lon="0.28378">
        <ele>62.061</ele>
        <time>2016-06-02T00:19:26Z</time>
      </trkpt>
      <trkpt lat="48.00435" lon="0.2858">
        <ele>61.636</ele>
        <time>2016-06-02T00:19:06Z</time>
      </trkpt>
      <trkpt lat="48.00531" lon="0.28563">
        <ele>61.36</ele>
        <time>2016-06-02T00:18:46Z</time>
      </trkpt>
      <trkpt lat="48.00551" lon="0.28578">
        <ele>61.808</ele>
        <time>2016-06-02T00:18:26Z</time>
      </trkpt>
      <trkpt lat="48.00565" lon="0.28664">
        <ele>63.015</ele>
        <time>2016-06-02T00:18:06Z</time>
      </trkpt>
      <trkpt lat="48.00635" lon="0.28637">
        <ele>62.305</ele>
        <time>2020-12-24T10:39:55Z</time>
      </trkpt>
      <trkpt lat="48.00727" lon="0.28659">
        <ele>61.444</ele>
        <time>2020-12-24T10:39:35Z</time>
      </trkpt>
      <trkpt lat="48.00987" lon="0.28666">
        <ele>61.029</ele>
        <time>2020-12-24T10:39:15Z</time>
      </trkpt>
      <trkpt lat="48.01119" lon="0.28639">
        <ele>64.32</ele>
        <time>2020-12-24T10:38:55Z</time>
      </trkpt>
      <trkpt lat="48.01165" lon="0.28688">
        <ele>65.944</ele>
        <time>2020-12-24T10:38:35Z</time>
      </trkpt>
      <trkpt lat="48.01209" lon="0.28667">
        <ele>67.042</ele>
        <time>2020-12-24T10:38:15Z</time>
      </trkpt>
      <trkpt lat="48.01219" lon="0.28716">
        <ele>66.976</ele>
        <time>2020-12-24T10:37:55Z</time>
      </trkpt>
      <trkpt lat="48.01287" lon="0.28834">
        <ele>70.113</ele>
        <time>2020-12-24T10:37:35Z</time>
      </trkpt>
      <trkpt lat="48.0133" lon="0.28773">
        <ele>73.688</ele>
        <time>2016-06-02T00:14:26Z</time>
      </trkpt>
      <trkpt lat="48.01352" lon="0.28651">
        <ele>74.732</ele>
        <time>2016-06-02T00:14:06Z</time>
      </trkpt>
      <trkpt lat="48.01441" lon="0.28608">
        <ele>77.508</ele>
        <time>2016-06-02T00:13:46Z</time>
      </trkpt>
      <trkpt lat="48.01474" lon="0.2861">
        <ele>77.024</ele>
        <time>2016-06-02T00:13:26Z</time>
      </trkpt>
      <trkpt lat="48.0157" lon="0.28501">
        <ele>65.604</ele>
        <time>2016-06-02T00:13:06Z</time>
      </trkpt>
      <trkpt lat="48.01629" lon="0.28473">
        <ele>63.469</ele>
        <time>2016-06-02T00:12:46Z</time>
      </trkpt>
      <trkpt lat="48.01628" lon="0.28466">
        <ele>62.578</ele>
        <time>2016-06-02T00:12:26Z</time>
      </trkpt>
      <trkpt lat="48.01628" lon="0.28466">
        <ele>62.579</ele>
        <time>2016-06-02T00:12:06Z</time>
      </trkpt>
      <trkpt lat="48.01628" lon="0.28466">
        <ele>62.573</ele>
        <time>2016-06-02T00:11:46Z</time>
      </trkpt>
      <trkpt lat="48.01629" lon="0.28473">
        <ele>63.451</ele>
        <time>2016-06-02T00:11:26Z</time>
      </trkpt>
      <trkpt lat="48.01629" lon="0.28473">
        <ele>63.485</ele>
        <time>2016-06-02T00:11:06Z</time>
      </trkpt>
      <trkpt lat="48.01625" lon="0.28389">
        <ele>54.532</ele>
        <time>2016-06-02T00:10:46Z</time>
      </trkpt>
      <trkpt lat="48.01662" lon="0.28277">
        <ele>52.097</ele>
        <time>2016-06-02T00:10:26Z</time>
      </trkpt>
      <trkpt lat="48.01689" lon="0.27973">
        <ele>53.061</ele>
        <time>2016-06-02T00:10:06Z</time>
      </trkpt>
      <trkpt lat="48.01735" lon="0.27915">
        <ele>51.908</ele>
        <time>2016-06-02T00:09:46Z</time>
      </trkpt>
      <trkpt lat="48.01783" lon="0.27801">
        <ele>52.014</ele>
        <time>2016-06-02T00:09:26Z</time>
      </trkpt>
      <trkpt lat="48.01806" lon="0.27692">
        <ele>57.004</ele>
        <time>2016-06-02T00:09:06Z</time>
      </trkpt>
      <trkpt lat="48.0181" lon="0.27499">
        <ele>51.953</ele>
        <time>2016-06-02T00:08:46Z</time>
      </trkpt>
      <trkpt lat="48.01791" lon="0.27475">
        <ele>53.031</ele>
        <time>2016-06-02T00:08:26Z</time>
      </trkpt>
      <trkpt lat="48.01804" lon="0.27423">
        <ele>54.822</ele>
        <time>2020-12-24T10:30:55Z</time>
      </trkpt>
      <trkpt lat="48.01864" lon="0.27344">
        <ele>61.866</ele>
        <time>2020-12-24T10:30:35Z</time>
      </trkpt>
      <trkpt lat="48.01933" lon="0.27398">
        <ele>66.974</ele>
        <time>2016-06-02T00:07:06Z</time>
      </trkpt>
      <trkpt lat="48.01995" lon="0.27462">
        <ele>66.038</ele>
        <time>2016-06-02T00:06:46Z</time>
      </trkpt>
      <trkpt lat="48.02038" lon="0.27458">
        <ele>65.095</ele>
        <time>2016-06-02T00:06:26Z</time>
      </trkpt>
      <trkpt lat="48.02124" lon="0.27501">
        <ele>54.53</ele>
        <time>2016-06-02T00:06:06Z</time>
      </trkpt>
      <trkpt lat="48.02104" lon="0.27567">
        <ele>52.884</ele>
        <time>2016-06-02T00:05:46Z</time>
      </trkpt>
      <trkpt lat="48.02104" lon="0.27567">
        <ele>52.808</ele>
        <time>2016-06-02T00:05:26Z</time>
      </trkpt>
      <trkpt lat="48.02197" lon="0.27655">
        <ele>56.617</ele>
        <time>2016-06-02T00:05:06Z</time>
      </trkpt>
      <trkpt lat="48.02331" lon="0.27739">
        <ele>59.289</ele>
        <time>2016-06-02T00:04:46Z</time>
      </trkpt>
      <trkpt lat="48.02449" lon="0.2776">
        <ele>69.085</ele>
        <time>2016-06-02T00:04:26Z</time>
      </trkpt>
      <trkpt lat="48.02525" lon="0.27728">
        <ele>65.817</ele>
        <time>2016-06-02T00:04:06Z</time>
      </trkpt>
      <trkpt lat="48.02592" lon="0.2775">
        <ele>68.038</ele>
        <time>2016-06-02T00:03:46Z</time>
      </trkpt>
      <trkpt lat="48.02608" lon="0.27666">
        <ele>66.112</ele>
        <time>2016-06-02T00:03:26Z</time>
      </trkpt>
      <trkpt lat="48.02576" lon="0.27556">
        <ele>77.13</ele>
        <time>2016-06-02T00:03:06Z</time>
      </trkpt>
      <trkpt lat="48.02579" lon="0.27413">
        <ele>90.174</ele>
        <time>2016-06-02T00:02:46Z</time>
      </trkpt>
      <trkpt lat="48.02604" lon="0.27325">
        <ele>86.281</ele>
        <time>2016-06-02T00:02:26Z</time>
      </trkpt>
      <trkpt lat="48.02733" lon="0.27211">
        <ele>81.486</ele>
        <time>2016-06-02T00:02:06Z</time>
      </trkpt>
      <trkpt lat="48.02842" lon="0.27232">
        <ele>81.68</ele>
        <time>2016-06-02T00:01:46Z</time>
      </trkpt>
      <trkpt lat="48.02855" lon="0.27312">
        <ele>77.808</ele>
        <time>2016-06-02T00:01:26Z</time>
      </trkpt>
      <trkpt lat="48.02903" lon="0.2752">
        <ele>71.31</ele>
        <time>2016-06-02T00:01:06Z</time>
      </trkpt>
      <trkpt lat="48.02924" lon="0.2773">
        <ele>69.064</ele>
        <time>2016-06-02T00:00:46Z</time>
      </trkpt>
      <trkpt lat="48.02947" lon="0.27838">
        <ele>69.043</ele>
        <time>2016-06-02T00:00:26Z</time>
      </trkpt>
      <trkpt lat="48.02999" lon="0.27972">
        <ele>68.052</ele>
        <time>2016-06-02T00:00:06Z</time>
      </trkpt>
      <trkpt lat="48.02999" lon="0.27972">
        <ele>68.033</ele>
        <time>2016-06-01T23:59:46Z</time>
      </trkpt>
      <trkpt lat="48.03035" lon="0.28015">
        <ele>65.237</ele>
        <time>2016-06-01T23:59:26Z</time>
      </trkpt>
      <trkpt lat="48.03019" lon="0.28042">
        <ele>65.715</ele>
        <time>2016-06-01T23:59:06Z</time>
      </trkpt>
      <trkpt lat="48.03059" lon="0.2807">
        <ele>65.529</ele>
        <time>2016-06-01T23:58:46Z</time>
      </trkpt>
      <trkpt lat="48.0313" lon="0.28148">
        <ele>65.776</ele>
        <time>2016-06-01T23:58:26Z</time>
      </trkpt>
      <trkpt lat="48.03158" lon="0.28195">
        <ele>64.011</ele>
        <time>2016-06-01T23:58:06Z</time>
      </trkpt>
      <trkpt lat="48.03239" lon="0.28195">
        <ele>69.245</ele>
        <time>2016-06-01T23:57:46Z</time>
      </trkpt>
      <trkpt lat="48.03318" lon="0.28206">
        <ele>67.608</ele>
        <time>2016-06-01T23:57:26Z</time>
      </trkpt>
      <trkpt lat="48.03384" lon="0.28203">
        <ele>65.427</ele>
        <time>2016-06-01T23:57:06Z</time>
      </trkpt>
      <trkpt lat="48.03432" lon="0.28199">
        <ele>65.307</ele>
        <time>2016-06-01T23:56:46Z</time>
      </trkpt>
      <trkpt lat="48.03471" lon="0.2821">
        <ele>64.099</ele>
        <time>2016-06-01T23:56:26Z</time>
      </trkpt>
      <trkpt lat="48.03496" lon="0.28212">
        <ele>62.951</ele>
        <time>2016-06-01T23:56:06Z</time>
      </trkpt>
      <trkpt lat="48.0352" lon="0.28248">
        <ele>62.012</ele>
        <time>2016-06-01T23:55:46Z</time>
      </trkpt>
      <trkpt lat="48.03536" lon="0.28276">
        <ele>61.326</ele>
        <time>2016-06-01T23:55:26Z</time>
      </trkpt>
      <trkpt lat="48.03605" lon="0.28294">
        <ele>67.584</ele>
        <time>2016-06-01T23:55:06Z</time>
      </trkpt>
      <trkpt lat="48.03658" lon="0.28287">
        <ele>73.058</ele>
        <time>2016-06-01T23:54:46Z</time>
      </trkpt>
      <trkpt lat="48.03706" lon="0.28298">
        <ele>77.535</ele>
        <time>2016-06-01T23:54:26Z</time>
      </trkpt>
      <trkpt lat="48.04025" lon="0.28493">
        <ele>87.54</ele>
        <time>2016-06-01T23:54:06Z</time>
      </trkpt>
      <trkpt lat="48.04111" lon="0.28485">
        <ele>83.744</ele>
        <time>2016-06-01T23:53:46Z</time>
      </trkpt>
      <trkpt lat="48.04131" lon="0.28467">
        <ele>81.108</ele>
        <time>2016-06-01T23:53:26Z</time>
      </trkpt>
      <trkpt lat="48.04216" lon="0.28457">
        <ele>72.726</ele>
        <time>2016-06-01T23:53:06Z</time>
      </trkpt>
      <trkpt lat="48.04326" lon="0.28429">
        <ele>72.542</ele>
        <time>2016-06-01T23:52:46Z</time>
      </trkpt>
      <trkpt lat="48.04342" lon="0.28433">
        <ele>72.787</ele>
        <time>2016-06-01T23:52:26Z</time>
      </trkpt>
      <trkpt lat="48.04342" lon="0.28465">
        <ele>71.656</ele>
        <time>2016-06-01T23:52:06Z</time>
      </trkpt>
      <trkpt lat="48.04353" lon="0.28495">
        <ele>70.197</ele>
        <time>2016-06-01T23:51:46Z</time>
      </trkpt>
      <trkpt lat="48.04407" lon="0.28512">
        <ele>69.641</ele>
        <time>2016-06-01T23:51:26Z</time>
      </trkpt>
      <trkpt lat="48.04432" lon="0.28506">
        <ele>70.279</ele>
        <time>2016-06-01T23:51:06Z</time>
      </trkpt>
      <trkpt lat="48.0445" lon="0.28523">
        <ele>69.573</ele>
        <time>2016-06-01T23:50:46Z</time>
      </trkpt>
      <trkpt lat="48.04495" lon="0.28603">
        <ele>68.16</ele>
        <time>2016-06-01T23:50:26Z</time>
      </trkpt>
      <trkpt lat="48.04603" lon="0.28723">
        <ele>65.355</ele>
        <time>2016-06-01T23:50:06Z</time>
      </trkpt>
      <trkpt lat="48.04613" lon="0.28751">
        <ele>64.159</ele>
        <time>2016-06-01T23:49:46Z</time>
      </trkpt>
      <trkpt lat="48.0463" lon="0.28716">
        <ele>66.108</ele>
        <time>2016-06-01T23:49:26Z</time>
      </trkpt>
      <trkpt lat="48.04663" lon="0.2853">
        <ele>70.921</ele>
        <time>2016-06-01T23:49:06Z</time>
      </trkpt>
      <trkpt lat="48.04669" lon="0.2847">
        <ele>73.301</ele>
        <time>2016-06-01T23:48:46Z</time>
      </trkpt>
      <trkpt lat="48.04679" lon="0.28261">
        <ele>79.339</ele>
        <time>2016-06-01T23:48:26Z</time>
      </trkpt>
      <trkpt lat="48.04698" lon="0.28083">
        <ele>96.34</ele>
        <time>2016-06-01T23:48:06Z</time>
      </trkpt>
      <trkpt lat="48.04653" lon="0.28008">
        <ele>111.351</ele>
        <time>2016-06-01T23:47:46Z</time>
      </trkpt>
      <trkpt lat="48.04616" lon="0.27888">
        <ele>111.095</ele>
        <time>2016-06-01T23:47:26Z</time>
      </trkpt>
      <trkpt lat="48.0465" lon="0.27847">
        <ele>112.713</ele>
        <time>2016-06-01T23:47:06Z</time>
      </trkpt>
      <trkpt lat="48.04736" lon="0.27815">
        <ele>111.117</ele>
        <time>2016-06-01T23:46:46Z</time>
      </trkpt>
      <trkpt lat="48.04825" lon="0.27721">
        <ele>113.134</ele>
        <time>2016-06-01T23:46:26Z</time>
      </trkpt>
      <trkpt lat="48.04863" lon="0.27605">
        <ele>113.839</ele>
        <time>2016-06-01T23:46:06Z</time>
      </trkpt>
      <trkpt lat="48.04886" lon="0.2742">
        <ele>112.323</ele>
        <time>2016-06-01T23:45:46Z</time>
      </trkpt>
      <trkpt lat="48.0492" lon="0.27442">
        <ele>111.208</ele>
        <time>2016-06-01T23:45:26Z</time>
      </trkpt>
      <trkpt lat="48.05075" lon="0.276">
        <ele>103.319</ele>
        <time>2016-06-01T23:45:06Z</time>
      </trkpt>
      <trkpt lat="48.05155" lon="0.27729">
        <ele>96.99</ele>
        <time>2016-06-01T23:44:46Z</time>
      </trkpt>
      <trkpt lat="48.052" lon="0.27787">
        <ele>93.176</ele>
        <time>2016-06-01T23:44:26Z</time>
      </trkpt>
      <trkpt lat="48.05251" lon="0.27826">
        <ele>87.688</ele>
        <time>2016-06-01T23:44:06Z</time>
      </trkpt>
      <trkpt lat="48.05303" lon="0.27907">
        <ele>82.279</ele>
        <time>2016-06-01T23:43:46Z</time>
      </trkpt>
      <trkpt lat="48.05362" lon="0.27955">
        <ele>80.063</ele>
        <time>2016-06-01T23:43:26Z</time>
      </trkpt>
      <trkpt lat="48.05375" lon="0.27989">
        <ele>79.291</ele>
        <time>2016-06-01T23:43:06Z</time>
      </trkpt>
      <trkpt lat="48.05479" lon="0.28081">
        <ele>74.315</ele>
        <time>2016-06-01T23:42:46Z</time>
      </trkpt>
      <trkpt lat="48.05537" lon="0.28107">
        <ele>76.012</ele>
        <time>2016-06-01T23:42:26Z</time>
      </trkpt>
      <trkpt lat="48.05573" lon="0.28105">
        <ele>75.317</ele>
        <time>2016-06-01T23:42:06Z</time>
      </trkpt>
      <trkpt lat="48.0567" lon="0.2807">
        <ele>75.011</ele>
        <time>2016-06-01T23:41:46Z</time>
      </trkpt>
      <trkpt lat="48.05708" lon="0.28066">
        <ele>76.908</ele>
        <time>2016-06-01T23:41:26Z</time>
      </trkpt>
      <trkpt lat="48.05829" lon="0.28126">
        <ele>83.014</ele>
        <time>2016-06-01T23:41:06Z</time>
      </trkpt>
      <trkpt lat="48.059" lon="0.28152">
        <ele>82.404</ele>
        <time>2016-06-01T23:40:46Z</time>
      </trkpt>
      <trkpt lat="48.05969" lon="0.28191">
        <ele>77.453</ele>
        <time>2016-06-01T23:40:26Z</time>
      </trkpt>
      <trkpt lat="48.06099" lon="0.28242">
        <ele>70.411</ele>
        <time>2016-06-01T23:40:06Z</time>
      </trkpt>
      <trkpt lat="48.06154" lon="0.28038">
        <ele>73.862</ele>
        <time>2016-06-01T23:39:46Z</time>
      </trkpt>
      <trkpt lat="48.06174" lon="0.28002">
        <ele>74.266</ele>
        <time>2016-06-01T23:39:26Z</time>
      </trkpt>
      <trkpt lat="48.06185" lon="0.27892">
        <ele>78.254</ele>
        <time>2016-06-01T23:39:06Z</time>
      </trkpt>
      <trkpt lat="48.06201" lon="0.27847">
        <ele>80.458</ele>
        <time>2016-06-01T23:38:46Z</time>
      </trkpt>
      <trkpt lat="48.06242" lon="0.27806">
        <ele>76.835</ele>
        <time>2016-06-01T23:38:26Z</time>
      </trkpt>
      <trkpt lat="48.06285" lon="0.27776">
        <ele>72.12</ele>
        <time>2016-06-01T23:38:06Z</time>
      </trkpt>
      <trkpt lat="48.06351" lon="0.27697">
        <ele>68.614</ele>
        <time>2016-06-01T23:37:46Z</time>
      </trkpt>
      <trkpt lat="48.06362" lon="0.27667">
        <ele>69.008</ele>
        <time>2016-06-01T23:37:26Z</time>
      </trkpt>
      <trkpt lat="48.06314" lon="0.27605">
        <ele>68.717</ele>
        <time>2016-06-01T23:37:06Z</time>
      </trkpt>
      <trkpt lat="48.06222" lon="0.27399">
        <ele>72.661</ele>
        <time>2016-06-01T23:36:46Z</time>
      </trkpt>
      <trkpt lat="48.06222" lon="0.27322">
        <ele>75.481</ele>
        <time>2016-06-01T23:36:26Z</time>
      </trkpt>
      <trkpt lat="48.06232" lon="0.27238">
        <ele>78.816</ele>
        <time>2016-06-01T23:36:06Z</time>
      </trkpt>
      <trkpt lat="48.0625" lon="0.27128">
        <ele>77.047</ele>
        <time>2016-06-01T23:35:46Z</time>
      </trkpt>
      <trkpt lat="48.06268" lon="0.27092">
        <ele>77.011</ele>
        <time>2016-06-01T23:35:26Z</time>
      </trkpt>
      <trkpt lat="48.06274" lon="0.27053">
        <ele>77.079</ele>
        <time>2016-06-01T23:35:06Z</time>
      </trkpt>
      <trkpt lat="48.06209" lon="0.26643">
        <ele>86.923</ele>
        <time>2016-06-01T23:34:46Z</time>
      </trkpt>
      <trkpt lat="48.06211" lon="0.26581">
        <ele>85.43</ele>
        <time>2016-06-01T23:34:26Z</time>
      </trkpt>
      <trkpt lat="48.06194" lon="0.2651">
        <ele>87.835</ele>
        <time>2016-06-01T23:34:06Z</time>
      </trkpt>
      <trkpt lat="48.06189" lon="0.26421">
        <ele>88.489</ele>
        <time>2016-06-01T23:33:46Z</time>
      </trkpt>
      <trkpt lat="48.06207" lon="0.26412">
        <ele>86.608</ele>
        <time>2016-06-01T23:33:26Z</time>
      </trkpt>
      <trkpt lat="48.06206" lon="0.26348">
        <ele>87.221</ele>
        <time>2016-06-01T23:33:06Z</time>
      </trkpt>
      <trkpt lat="48.06189" lon="0.2629">
        <ele>94.001</ele>
        <time>2016-06-01T23:32:46Z</time>
      </trkpt>
      <trkpt lat="48.06195" lon="0.26212">
        <ele>96.639</ele>
        <time>2016-06-01T23:32:26Z</time>
      </trkpt>
      <trkpt lat="48.06215" lon="0.26109">
        <ele>95.725</ele>
        <time>2016-06-01T23:32:06Z</time>
      </trkpt>
      <trkpt lat="48.06232" lon="0.26019">
        <ele>99.816</ele>
        <time>2016-06-01T23:31:46Z</time>
      </trkpt>
      <trkpt lat="48.06254" lon="0.25577">
        <ele>108.29</ele>
        <time>2016-06-01T23:31:26Z</time>
      </trkpt>
      <trkpt lat="48.06321" lon="0.25616">
        <ele>105.368</ele>
        <time>2016-06-01T23:31:06Z</time>
      </trkpt>
      <trkpt lat="48.06377" lon="0.25656">
        <ele>101.942</ele>
        <time>2016-06-01T23:30:46Z</time>
      </trkpt>
      <trkpt lat="48.06425" lon="0.25714">
        <ele>108.299</ele>
        <time>2016-06-01T23:30:26Z</time>
      </trkpt>
      <trkpt lat="48.06458" lon="0.25716">
        <ele>110.844</ele>
        <time>2016-06-01T23:30:06Z</time>
      </trkpt>
      <trkpt lat="48.06568" lon="0.25671">
        <ele>108.788</ele>
        <time>2016-06-01T23:29:26Z</time>
      </trkpt>
      <trkpt lat="48.06698" lon="0.25738">
        <ele>110.808</ele>
        <time>2016-06-01T23:29:06Z</time>
      </trkpt>
      <trkpt lat="48.06714" lon="0.25766">
        <ele>113.014</ele>
        <time>2016-06-01T23:28:46Z</time>
      </trkpt>
      <trkpt lat="48.06762" lon="0.25783">
        <ele>114.904</ele>
        <time>2016-06-01T23:28:26Z</time>
      </trkpt>
      <trkpt lat="48.06825" lon="0.25832">
        <ele>115.224</ele>
        <time>2016-06-01T23:28:06Z</time>
      </trkpt>
      <trkpt lat="48.06911" lon="0.25839">
        <ele>118.844</ele>
        <time>2016-06-01T23:27:46Z</time>
      </trkpt>
      <trkpt lat="48.07081" lon="0.26068">
        <ele>116.255</ele>
        <time>2016-06-01T23:27:26Z</time>
      </trkpt>
      <trkpt lat="48.0719" lon="0.26056">
        <ele>111.399</ele>
        <time>2016-06-01T23:27:06Z</time>
      </trkpt>
      <trkpt lat="48.07374" lon="0.26154">
        <ele>89.487</ele>
        <time>2016-06-01T23:26:46Z</time>
      </trkpt>
      <trkpt lat="48.07487" lon="0.26118">
        <ele>86.321</ele>
        <time>2016-06-01T23:26:26Z</time>
      </trkpt>
      <trkpt lat="48.07544" lon="0.26131">
        <ele>86.528</ele>
        <time>2016-06-01T23:26:06Z</time>
      </trkpt>
      <trkpt lat="48.07576" lon="0.26101">
        <ele>87.513</ele>
        <time>2016-06-01T23:25:46Z</time>
      </trkpt>
      <trkpt lat="48.07777" lon="0.26165">
        <ele>76.067</ele>
        <time>2016-06-01T23:25:26Z</time>
      </trkpt>
      <trkpt lat="48.07808" lon="0.26161">
        <ele>76.108</ele>
        <time>2016-06-01T23:25:06Z</time>
      </trkpt>
      <trkpt lat="48.07738" lon="0.25957">
        <ele>78.211</ele>
        <time>2016-06-01T23:24:46Z</time>
      </trkpt>
      <trkpt lat="48.0786" lon="0.25843">
        <ele>89.565</ele>
        <time>2016-06-01T23:24:26Z</time>
      </trkpt>
      <trkpt lat="48.07906" lon="0.25742">
        <ele>95.915</ele>
        <time>2016-06-01T23:24:06Z</time>
      </trkpt>
      <trkpt lat="48.07921" lon="0.25676">
        <ele>98.748</ele>
        <time>2016-06-01T23:23:46Z</time>
      </trkpt>
      <trkpt lat="48.0795" lon="0.25624">
        <ele>100.239</ele>
        <time>2016-06-01T23:23:26Z</time>
      </trkpt>
      <trkpt lat="48.08033" lon="0.25528">
        <ele>108.433</ele>
        <time>2016-06-01T23:23:06Z</time>
      </trkpt>
      <trkpt lat="48.08073" lon="0.2551">
        <ele>109.871</ele>
        <time>2016-06-01T23:22:46Z</time>
      </trkpt>
      <trkpt lat="48.08114" lon="0.25474">
        <ele>110.765</ele>
        <time>2016-06-01T23:22:26Z</time>
      </trkpt>
      <trkpt lat="48.08121" lon="0.2542">
        <ele>117.792</ele>
        <time>2016-06-01T23:22:06Z</time>
      </trkpt>
      <trkpt lat="48.08104" lon="0.25395">
        <ele>117.887</ele>
        <time>2016-06-01T23:21:46Z</time>
      </trkpt>
      <trkpt lat="48.08046" lon="0.25274">
        <ele>121.161</ele>
        <time>2016-06-01T23:21:26Z</time>
      </trkpt>
      <trkpt lat="48.07794" lon="0.24963">
        <ele>129.408</ele>
        <time>2016-06-01T23:21:06Z</time>
      </trkpt>
      <trkpt lat="48.07741" lon="0.24835">
        <ele>125.708</ele>
        <time>2016-06-01T23:20:46Z</time>
      </trkpt>
      <trkpt lat="48.07639" lon="0.24573">
        <ele>117.653</ele>
        <time>2016-06-01T23:20:26Z</time>
      </trkpt>
      <trkpt lat="48.07616" lon="0.24455">
        <ele>115.052</ele>
        <time>2016-06-01T23:20:06Z</time>
      </trkpt>
      <trkpt lat="48.0761" lon="0.24369">
        <ele>113.431</ele>
        <time>2016-06-01T23:19:46Z</time>
      </trkpt>
      <trkpt lat="48.07622" lon="0.24307">
        <ele>112.472</ele>
        <time>2016-06-01T23:19:26Z</time>
      </trkpt>
      <trkpt lat="48.07643" lon="0.24234">
        <ele>115.286</ele>
        <time>2016-06-01T23:19:06Z</time>
      </trkpt>
      <trkpt lat="48.07701" lon="0.24111">
        <ele>120.834</ele>
        <time>2016-06-01T23:18:46Z</time>
      </trkpt>
      <trkpt lat="48.07709" lon="0.24086">
        <ele>121.048</ele>
        <time>2016-06-01T23:18:26Z</time>
      </trkpt>
      <trkpt lat="48.07751" lon="0.24058">
        <ele>121.045</ele>
        <time>2016-06-01T23:18:06Z</time>
      </trkpt>
      <trkpt lat="48.07787" lon="0.23985">
        <ele>116.83</ele>
        <time>2016-06-01T23:17:46Z</time>
      </trkpt>
      <trkpt lat="48.07814" lon="0.23903">
        <ele>112.124</ele>
        <time>2016-06-01T23:17:26Z</time>
      </trkpt>
      <trkpt lat="48.07824" lon="0.23796">
        <ele>110.208</ele>
        <time>2016-06-01T23:17:06Z</time>
      </trkpt>
      <trkpt lat="48.07856" lon="0.23779">
        <ele>108.326</ele>
        <time>2016-06-01T23:16:46Z</time>
      </trkpt>
      <trkpt lat="48.08042" lon="0.23766">
        <ele>99.76</ele>
        <time>2016-06-01T23:16:26Z</time>
      </trkpt>
      <trkpt lat="48.08078" lon="0.23779">
        <ele>92.286</ele>
        <time>2016-06-01T23:16:06Z</time>
      </trkpt>
      <trkpt lat="48.08131" lon="0.23719">
        <ele>90.399</ele>
        <time>2016-06-01T23:15:46Z</time>
      </trkpt>
      <trkpt lat="48.08137" lon="0.23642">
        <ele>88.45</ele>
        <time>2016-06-01T23:15:26Z</time>
      </trkpt>
      <trkpt lat="48.08231" lon="0.23599">
        <ele>90.794</ele>
        <time>2016-06-01T23:15:06Z</time>
      </trkpt>
      <trkpt lat="48.08263" lon="0.23461">
        <ele>90.742</ele>
        <time>2016-06-01T23:14:46Z</time>
      </trkpt>
      <trkpt lat="48.0836" lon="0.23386">
        <ele>88.926</ele>
        <time>2016-06-01T23:14:26Z</time>
      </trkpt>
      <trkpt lat="48.08316" lon="0.23178">
        <ele>84.793</ele>
        <time>2016-06-01T23:14:06Z</time>
      </trkpt>
      <trkpt lat="48.0831" lon="0.23109">
        <ele>82.718</ele>
        <time>2016-06-01T23:13:46Z</time>
      </trkpt>
      <trkpt lat="48.08405" lon="0.22867">
        <ele>77.062</ele>
        <time>2016-06-01T23:13:26Z</time>
      </trkpt>
      <trkpt lat="48.08428" lon="0.22594">
        <ele>77.408</ele>
        <time>2016-06-01T23:13:06Z</time>
      </trkpt>
      <trkpt lat="48.0837" lon="0.22541">
        <ele>73.216</ele>
        <time>2016-06-01T23:12:46Z</time>
      </trkpt>
      <trkpt lat="48.08284" lon="0.22464">
        <ele>74.006</ele>
        <time>2016-06-01T23:12:26Z</time>
      </trkpt>
      <trkpt lat="48.08214" lon="0.22429">
        <ele>72.664</ele>
        <time>2016-06-01T23:12:06Z</time>
      </trkpt>
      <trkpt lat="48.08111" lon="0.22461">
        <ele>70.046</ele>
        <time>2016-06-01T23:11:46Z</time>
      </trkpt>
      <trkpt lat="48.08082" lon="0.22453">
        <ele>69.027</ele>
        <time>2016-06-01T23:11:26Z</time>
      </trkpt>
      <trkpt lat="48.08008" lon="0.22416">
        <ele>70.631</ele>
        <time>2016-06-01T23:11:06Z</time>
      </trkpt>
      <trkpt lat="48.07947" lon="0.22416">
        <ele>68.139</ele>
        <time>2016-06-01T23:10:46Z</time>
      </trkpt>
      <trkpt lat="48.07907" lon="0.22399">
        <ele>67.073</ele>
        <time>2016-06-01T23:10:26Z</time>
      </trkpt>
      <trkpt lat="48.07813" lon="0.22365">
        <ele>68.17</ele>
        <time>2016-06-01T23:10:06Z</time>
      </trkpt>
      <trkpt lat="48.07808" lon="0.22313">
        <ele>68.045</ele>
        <time>2016-06-01T23:09:46Z</time>
      </trkpt>
      <trkpt lat="48.07814" lon="0.22253">
        <ele>67.189</ele>
        <time>2016-06-01T23:09:26Z</time>
      </trkpt>
      <trkpt lat="48.07851" lon="0.2221">
        <ele>67.608</ele>
        <time>2016-06-01T23:09:06Z</time>
      </trkpt>
      <trkpt lat="48.0787" lon="0.22157">
        <ele>69.91</ele>
        <time>2016-06-01T23:08:46Z</time>
      </trkpt>
      <trkpt lat="48.07983" lon="0.21955">
        <ele>82.455</ele>
        <time>2016-06-01T23:08:26Z</time>
      </trkpt>
      <trkpt lat="48.07942" lon="0.21882">
        <ele>81.034</ele>
        <time>2016-06-01T23:08:06Z</time>
      </trkpt>
      <trkpt lat="48.07886" lon="0.21751">
        <ele>80.948</ele>
        <time>2016-06-01T23:07:46Z</time>
      </trkpt>
      <trkpt lat="48.07729" lon="0.21691">
        <ele>78.329</ele>
        <time>2016-06-01T23:07:26Z</time>
      </trkpt>
      <trkpt lat="48.07751" lon="0.21607">
        <ele>75.013</ele>
        <time>2016-06-01T23:07:06Z</time>
      </trkpt>
      <trkpt lat="48.07791" lon="0.21515">
        <ele>73.091</ele>
        <time>2016-06-01T23:06:46Z</time>
      </trkpt>
      <trkpt lat="48.07823" lon="0.21498">
        <ele>72.435</ele>
        <time>2016-06-01T23:06:26Z</time>
      </trkpt>
      <trkpt lat="48.07986" lon="0.21511">
        <ele>75.122</ele>
        <time>2016-06-01T23:06:06Z</time>
      </trkpt>
      <trkpt lat="48.08068" lon="0.21586">
        <ele>82.547</ele>
        <time>2016-06-01T23:05:46Z</time>
      </trkpt>
      <trkpt lat="48.08109" lon="0.21594">
        <ele>85.351</ele>
        <time>2016-06-01T23:05:26Z</time>
      </trkpt>
      <trkpt lat="48.08115" lon="0.21571">
        <ele>84.408</ele>
        <time>2016-06-01T23:05:06Z</time>
      </trkpt>
      <trkpt lat="48.08212" lon="0.21502">
        <ele>89.717</ele>
        <time>2016-06-01T23:04:46Z</time>
      </trkpt>
      <trkpt lat="48.08181" lon="0.21255">
        <ele>76.007</ele>
        <time>2016-06-01T23:04:26Z</time>
      </trkpt>
      <trkpt lat="48.08169" lon="0.21135">
        <ele>71.555</ele>
        <time>2016-06-01T23:04:06Z</time>
      </trkpt>
      <trkpt lat="48.08294" lon="0.21079">
        <ele>68.45</ele>
        <time>2016-06-01T23:03:46Z</time>
      </trkpt>
      <trkpt lat="48.08266" lon="0.20863">
        <ele>59.191</ele>
        <time>2016-06-01T23:03:26Z</time>
      </trkpt>
      <trkpt lat="48.08309" lon="0.20852">
        <ele>59.065</ele>
        <time>2016-06-01T23:03:06Z</time>
      </trkpt>
      <trkpt lat="48.08281" lon="0.20592">
        <ele>56.093</ele>
        <time>2016-06-01T23:02:46Z</time>
      </trkpt>
      <trkpt lat="48.08247" lon="0.20547">
        <ele>57.047</ele>
        <time>2016-06-01T23:02:26Z</time>
      </trkpt>
      <trkpt lat="48.08261" lon="0.20494">
        <ele>56.624</ele>
        <time>2016-06-01T23:02:06Z</time>
      </trkpt>
      <trkpt lat="48.08291" lon="0.20507">
        <ele>56.069</ele>
        <time>2016-06-01T23:01:46Z</time>
      </trkpt>
      <trkpt lat="48.08357" lon="0.205">
        <ele>57.953</ele>
        <time>2016-06-01T23:01:26Z</time>
      </trkpt>
      <trkpt lat="48.08465" lon="0.20526">
        <ele>54.308</ele>
        <time>2016-06-01T23:01:06Z</time>
      </trkpt>
      <trkpt lat="48.08546" lon="0.20567">
        <ele>51.021</ele>
        <time>2016-06-01T23:00:46Z</time>
      </trkpt>
      <trkpt lat="48.08611" lon="0.20618">
        <ele>52.056</ele>
        <time>2016-06-01T23:00:26Z</time>
      </trkpt>
      <trkpt lat="48.08632" lon="0.20663">
        <ele>51.074</ele>
        <time>2016-06-01T23:00:06Z</time>
      </trkpt>
      <trkpt lat="48.08832" lon="0.20751">
        <ele>51.987</ele>
        <time>2016-06-01T22:59:46Z</time>
      </trkpt>
      <trkpt lat="48.08879" lon="0.20762">
        <ele>52.448</ele>
        <time>2016-06-01T22:59:26Z</time>
      </trkpt>
      <trkpt lat="48.08981" lon="0.20749">
        <ele>51.772</ele>
        <time>2016-06-01T22:59:06Z</time>
      </trkpt>
      <trkpt lat="48.09011" lon="0.20749">
        <ele>51.02</ele>
        <time>2016-06-01T22:58:46Z</time>
      </trkpt>
      <trkpt lat="48.09052" lon="0.20781">
        <ele>52.974</ele>
        <time>2016-06-01T22:58:26Z</time>
      </trkpt>
      <trkpt lat="48.0906" lon="0.20968">
        <ele>51.031</ele>
        <time>2016-06-01T22:58:06Z</time>
      </trkpt>
      <trkpt lat="48.09051" lon="0.21067">
        <ele>50.876</ele>
        <time>2016-06-01T22:57:46Z</time>
      </trkpt>
      <trkpt lat="48.09295" lon="0.21032">
        <ele>50.48</ele>
        <time>2016-06-01T22:57:26Z</time>
      </trkpt>
      <trkpt lat="48.09452" lon="0.21092">
        <ele>51.008</ele>
        <time>2016-06-01T22:57:06Z</time>
      </trkpt>
      <trkpt lat="48.09537" lon="0.21191">
        <ele>51.314</ele>
        <time>2016-06-01T22:56:46Z</time>
      </trkpt>
      <trkpt lat="48.09584" lon="0.21219">
        <ele>51.122</ele>
        <time>2016-06-01T22:56:26Z</time>
      </trkpt>
      <trkpt lat="48.09636" lon="0.21228">
        <ele>50.542</ele>
        <time>2016-06-01T22:56:06Z</time>
      </trkpt>
      <trkpt lat="48.09713" lon="0.21178">
        <ele>49.699</ele>
        <time>2016-06-01T22:55:46Z</time>
      </trkpt>
      <trkpt lat="48.09796" lon="0.2115">
        <ele>51.01</ele>
        <time>2016-06-01T22:55:26Z</time>
      </trkpt>
      <trkpt lat="48.09912" lon="0.21088">
        <ele>53.844</ele>
        <time>2016-06-01T22:55:06Z</time>
      </trkpt>
      <trkpt lat="48.09965" lon="0.21073">
        <ele>55.472</ele>
        <time>2016-06-01T22:54:46Z</time>
      </trkpt>
      <trkpt lat="48.10023" lon="0.21071">
        <ele>57.776</ele>
        <time>2016-06-01T22:54:26Z</time>
      </trkpt>
      <trkpt lat="48.1011" lon="0.21011">
        <ele>58.623</ele>
        <time>2016-06-01T22:54:06Z</time>
      </trkpt>
      <trkpt lat="48.1012" lon="0.20942">
        <ele>58.498</ele>
        <time>2016-06-01T22:53:46Z</time>
      </trkpt>
      <trkpt lat="48.10159" lon="0.20923">
        <ele>56.372</ele>
        <time>2016-06-01T22:53:26Z</time>
      </trkpt>
      <trkpt lat="48.10256" lon="0.20908">
        <ele>54.908</ele>
        <time>2016-06-01T22:53:06Z</time>
      </trkpt>
      <trkpt lat="48.10285" lon="0.20934">
        <ele>56.319</ele>
        <time>2016-06-01T22:52:46Z</time>
      </trkpt>
      <trkpt lat="48.10308" lon="0.20981">
        <ele>57.781</ele>
        <time>2016-06-01T22:52:26Z</time>
      </trkpt>
      <trkpt lat="48.10348" lon="0.20961">
        <ele>58.067</ele>
        <time>2016-06-01T22:52:06Z</time>
      </trkpt>
      <trkpt lat="48.10435" lon="0.20876">
        <ele>57.068</ele>
        <time>2016-06-01T22:51:46Z</time>
      </trkpt>
      <trkpt lat="48.10582" lon="0.20818">
        <ele>60.069</ele>
        <time>2016-06-01T22:51:26Z</time>
      </trkpt>
      <trkpt lat="48.10619" lon="0.20777">
        <ele>59.273</ele>
        <time>2016-06-01T22:51:06Z</time>
      </trkpt>
      <trkpt lat="48.10748" lon="0.20601">
        <ele>60.051</ele>
        <time>2016-06-01T22:50:46Z</time>
      </trkpt>
      <trkpt lat="48.10808" lon="0.20492">
        <ele>59.665</ele>
        <time>2016-06-01T22:50:26Z</time>
      </trkpt>
      <trkpt lat="48.10849" lon="0.20356">
        <ele>59.092</ele>
        <time>2016-06-01T22:50:06Z</time>
      </trkpt>
      <trkpt lat="48.10971" lon="0.20148">
        <ele>58.077</ele>
        <time>2016-06-01T22:49:46Z</time>
      </trkpt>
      <trkpt lat="48.1104" lon="0.20077">
        <ele>58.951</ele>
        <time>2016-06-01T22:49:26Z</time>
      </trkpt>
      <trkpt lat="48.11106" lon="0.20022">
        <ele>62.008</ele>
        <time>2016-06-01T22:49:06Z</time>
      </trkpt>
      <trkpt lat="48.11215" lon="0.19957">
        <ele>63.017</ele>
        <time>2016-06-01T22:48:46Z</time>
      </trkpt>
      <trkpt lat="48.11248" lon="0.1976">
        <ele>60.107</ele>
        <time>2016-06-01T22:48:26Z</time>
      </trkpt>
      <trkpt lat="48.11327" lon="0.19462">
        <ele>54.055</ele>
        <time>2016-06-01T22:48:06Z</time>
      </trkpt>
      <trkpt lat="48.11329" lon="0.19417">
        <ele>53.18</ele>
        <time>2016-06-01T22:47:46Z</time>
      </trkpt>
      <trkpt lat="48.11352" lon="0.1941">
        <ele>52.891</ele>
        <time>2016-06-01T22:47:26Z</time>
      </trkpt>
      <trkpt lat="48.11386" lon="0.19295">
        <ele>52.455</ele>
        <time>2020-12-24T09:10:35Z</time>
      </trkpt>
      <trkpt lat="48.11434" lon="0.19287">
        <ele>52.223</ele>
        <time>2020-12-24T09:10:15Z</time>
      </trkpt>
      <trkpt lat="48.11485" lon="0.19297">
        <ele>53.447</ele>
        <time>2020-12-24T09:09:55Z</time>
      </trkpt>
      <trkpt lat="48.11584" lon="0.193">
        <ele>53.644</ele>
        <time>2020-12-24T09:09:35Z</time>
      </trkpt>
      <trkpt lat="48.1152" lon="0.19133">
        <ele>49.729</ele>
        <time>2020-12-24T09:09:15Z</time>
      </trkpt>
      <trkpt lat="48.11457" lon="0.19103">
        <ele>50.383</ele>
        <time>2020-12-24T09:08:55Z</time>
      </trkpt>
      <trkpt lat="48.11616" lon="0.18625">
        <ele>50.408</ele>
        <time>2016-06-01T22:45:46Z</time>
      </trkpt>
      <trkpt lat="48.11636" lon="0.1859">
        <ele>50.821</ele>
        <time>2016-06-01T22:45:26Z</time>
      </trkpt>
      <trkpt lat="48.11761" lon="0.18432">
        <ele>53.356</ele>
        <time>2016-06-01T22:45:06Z</time>
      </trkpt>
      <trkpt lat="48.11788" lon="0.18417">
        <ele>53.074</ele>
        <time>2016-06-01T22:44:46Z</time>
      </trkpt>
      <trkpt lat="48.11813" lon="0.18396">
        <ele>53.25</ele>
        <time>2020-12-24T09:07:15Z</time>
      </trkpt>
      <trkpt lat="48.11822" lon="0.18422">
        <ele>52.971</ele>
        <time>2020-12-24T09:06:55Z</time>
      </trkpt>
      <trkpt lat="48.11952" lon="0.1849">
        <ele>53.685</ele>
        <time>2020-12-24T09:06:35Z</time>
      </trkpt>
      <trkpt lat="48.12015" lon="0.18491">
        <ele>53.223</ele>
        <time>2020-12-24T09:06:15Z</time>
      </trkpt>
      <trkpt lat="48.12159" lon="0.18505">
        <ele>55.747</ele>
        <time>2020-12-24T09:05:55Z</time>
      </trkpt>
      <trkpt lat="48.123" lon="0.18552">
        <ele>52.824</ele>
        <time>2020-12-24T09:05:35Z</time>
      </trkpt>
      <trkpt lat="48.12378" lon="0.18493">
        <ele>53.589</ele>
        <time>2020-12-24T09:05:15Z</time>
      </trkpt>
      <trkpt lat="48.12398" lon="0.18097">
        <ele>55.523</ele>
        <time>2016-06-01T22:41:26Z</time>
      </trkpt>
      <trkpt lat="48.12494" lon="0.18045">
        <ele>56.008</ele>
        <time>2016-06-01T22:41:06Z</time>
      </trkpt>
      <trkpt lat="48.1263" lon="0.17932">
        <ele>56.82</ele>
        <time>2016-06-01T22:40:46Z</time>
      </trkpt>
      <trkpt lat="48.1265" lon="0.17788">
        <ele>59.828</ele>
        <time>2016-06-01T22:40:26Z</time>
      </trkpt>
      <trkpt lat="48.12666" lon="0.17655">
        <ele>58.075</ele>
        <time>2016-06-01T22:40:06Z</time>
      </trkpt>
      <trkpt lat="48.12663" lon="0.17533">
        <ele>59.845</ele>
        <time>2016-06-01T22:39:46Z</time>
      </trkpt>
      <trkpt lat="48.12613" lon="0.17483">
        <ele>61.926</ele>
        <time>2016-06-01T22:39:26Z</time>
      </trkpt>
      <trkpt lat="48.12695" lon="0.17187">
        <ele>70.32</ele>
        <time>2016-06-01T22:39:06Z</time>
      </trkpt>
      <trkpt lat="48.12769" lon="0.17166">
        <ele>71.358</ele>
        <time>2016-06-01T22:38:46Z</time>
      </trkpt>
      <trkpt lat="48.12816" lon="0.17129">
        <ele>68.142</ele>
        <time>2016-06-01T22:38:26Z</time>
      </trkpt>
      <trkpt lat="48.12881" lon="0.17215">
        <ele>62.669</ele>
        <time>2016-06-01T22:38:06Z</time>
      </trkpt>
      <trkpt lat="48.12933" lon="0.173">
        <ele>62.564</ele>
        <time>2020-12-24T09:01:15Z</time>
      </trkpt>
      <trkpt lat="48.12975" lon="0.17284">
        <ele>61.358</ele>
        <time>2020-12-24T09:00:55Z</time>
      </trkpt>
      <trkpt lat="48.12998" lon="0.17232">
        <ele>61.708</ele>
        <time>2020-12-24T09:00:35Z</time>
      </trkpt>
      <trkpt lat="48.13042" lon="0.17268">
        <ele>61.214</ele>
        <time>2020-12-24T09:00:15Z</time>
      </trkpt>
      <trkpt lat="48.1309" lon="0.1721">
        <ele>61.804</ele>
        <time>2020-12-24T08:59:55Z</time>
      </trkpt>
      <trkpt lat="48.1314" lon="0.17317">
        <ele>59.024</ele>
        <time>2020-12-24T08:59:35Z</time>
      </trkpt>
      <trkpt lat="48.13243" lon="0.17118">
        <ele>58.424</ele>
        <time>2016-06-01T22:35:46Z</time>
      </trkpt>
      <trkpt lat="48.13283" lon="0.1703">
        <ele>56.985</ele>
        <time>2016-06-01T22:35:26Z</time>
      </trkpt>
      <trkpt lat="48.13285" lon="0.16955">
        <ele>57.089</ele>
        <time>2016-06-01T22:35:06Z</time>
      </trkpt>
      <trkpt lat="48.13266" lon="0.16885">
        <ele>59.667</ele>
        <time>2016-06-01T22:34:46Z</time>
      </trkpt>
      <trkpt lat="48.13269" lon="0.167">
        <ele>57.351</ele>
        <time>2016-06-01T22:34:26Z</time>
      </trkpt>
      <trkpt lat="48.13282" lon="0.16651">
        <ele>59.178</ele>
        <time>2016-06-01T22:34:06Z</time>
      </trkpt>
      <trkpt lat="48.13289" lon="0.16488">
        <ele>62.253</ele>
        <time>2016-06-01T22:33:46Z</time>
      </trkpt>
      <trkpt lat="48.13313" lon="0.16417">
        <ele>61.517</ele>
        <time>2016-06-01T22:33:26Z</time>
      </trkpt>
      <trkpt lat="48.13342" lon="0.1637">
        <ele>61.208</ele>
        <time>2016-06-01T22:33:06Z</time>
      </trkpt>
      <trkpt lat="48.13432" lon="0.16198">
        <ele>62.017</ele>
        <time>2016-06-01T22:32:46Z</time>
      </trkpt>
      <trkpt lat="48.13445" lon="0.16146">
        <ele>61.798</ele>
        <time>2020-12-24T08:55:55Z</time>
      </trkpt>
      <trkpt lat="48.1331" lon="0.15666">
        <ele>70.818</ele>
        <time>2020-12-24T08:55:35Z</time>
      </trkpt>
      <trkpt lat="48.13438" lon="0.15574">
        <ele>74.22</ele>
        <time>2020-12-24T08:55:15Z</time>
      </trkpt>
      <trkpt lat="48.13405" lon="0.15485">
        <ele>74.681</ele>
        <time>2016-06-01T22:29:06Z</time>
      </trkpt>
      <trkpt lat="48.13326" lon="0.15348">
        <ele>77.525</ele>
        <time>2016-06-01T22:28:46Z</time>
      </trkpt>
      <trkpt lat="48.13299" lon="0.15297">
        <ele>77.993</ele>
        <time>2016-06-01T22:28:26Z</time>
      </trkpt>
      <trkpt lat="48.13257" lon="0.15267">
        <ele>78.777</ele>
        <time>2016-06-01T22:28:06Z</time>
      </trkpt>
      <trkpt lat="48.13233" lon="0.15215">
        <ele>79.054</ele>
        <time>2016-06-01T22:27:46Z</time>
      </trkpt>
      <trkpt lat="48.13159" lon="0.15121">
        <ele>78.079</ele>
        <time>2016-06-01T22:27:26Z</time>
      </trkpt>
      <trkpt lat="48.1318" lon="0.15028">
        <ele>81.583</ele>
        <time>2016-06-01T22:27:06Z</time>
      </trkpt>
      <trkpt lat="48.13308" lon="0.14795">
        <ele>87.108</ele>
        <time>2016-06-01T22:26:46Z</time>
      </trkpt>
      <trkpt lat="48.1332" lon="0.14726">
        <ele>88.52</ele>
        <time>2016-06-01T22:26:26Z</time>
      </trkpt>
      <trkpt lat="48.1332" lon="0.14677">
        <ele>88.228</ele>
        <time>2016-06-01T22:26:06Z</time>
      </trkpt>
      <trkpt lat="48.13299" lon="0.14627">
        <ele>88.175</ele>
        <time>2016-06-01T22:25:46Z</time>
      </trkpt>
      <trkpt lat="48.13289" lon="0.14576">
        <ele>89.09</ele>
        <time>2016-06-01T22:25:26Z</time>
      </trkpt>
      <trkpt lat="48.13287" lon="0.14477">
        <ele>92.181</ele>
        <time>2016-06-01T22:25:06Z</time>
      </trkpt>
      <trkpt lat="48.13253" lon="0.14415">
        <ele>87.075</ele>
        <time>2016-06-01T22:24:46Z</time>
      </trkpt>
      <trkpt lat="48.1364" lon="0.14419">
        <ele>87.133</ele>
        <time>2016-06-01T22:24:26Z</time>
      </trkpt>
      <trkpt lat="48.13688" lon="0.14425">
        <ele>88.217</ele>
        <time>2016-06-01T22:24:06Z</time>
      </trkpt>
      <trkpt lat="48.13723" lon="0.14464">
        <ele>88.794</ele>
        <time>2016-06-01T22:23:46Z</time>
      </trkpt>
      <trkpt lat="48.13747" lon="0.14449">
        <ele>88.259</ele>
        <time>2016-06-01T22:23:26Z</time>
      </trkpt>
      <trkpt lat="48.1381" lon="0.14473">
        <ele>85.753</ele>
        <time>2016-06-01T22:23:06Z</time>
      </trkpt>
      <trkpt lat="48.13836" lon="0.14473">
        <ele>83.908</ele>
        <time>2016-06-01T22:22:46Z</time>
      </trkpt>
      <trkpt lat="48.13852" lon="0.14436">
        <ele>82.027</ele>
        <time>2016-06-01T22:22:26Z</time>
      </trkpt>
      <trkpt lat="48.13849" lon="0.14398">
        <ele>81.161</ele>
        <time>2016-06-01T22:22:06Z</time>
      </trkpt>
      <trkpt lat="48.13814" lon="0.14286">
        <ele>79.777</ele>
        <time>2016-06-01T22:21:46Z</time>
      </trkpt>
      <trkpt lat="48.1376" lon="0.1417">
        <ele>82.265</ele>
        <time>2016-06-01T22:21:26Z</time>
      </trkpt>
      <trkpt lat="48.1372" lon="0.13998">
        <ele>82.216</ele>
        <time>2016-06-01T22:21:06Z</time>
      </trkpt>
      <trkpt lat="48.13767" lon="0.13975">
        <ele>78.49</ele>
        <time>2016-06-01T22:20:46Z</time>
      </trkpt>
      <trkpt lat="48.1381" lon="0.13971">
        <ele>75.568</ele>
        <time>2016-06-01T22:20:26Z</time>
      </trkpt>
      <trkpt lat="48.13857" lon="0.13932">
        <ele>71.332</ele>
        <time>2016-06-01T22:20:06Z</time>
      </trkpt>
      <trkpt lat="48.13952" lon="0.13891">
        <ele>68.779</ele>
        <time>2016-06-01T22:19:46Z</time>
      </trkpt>
      <trkpt lat="48.14051" lon="0.13863">
        <ele>70.874</ele>
        <time>2016-06-01T22:19:26Z</time>
      </trkpt>
      <trkpt lat="48.14128" lon="0.13891">
        <ele>77.048</ele>
        <time>2016-06-01T22:19:06Z</time>
      </trkpt>
      <trkpt lat="48.14211" lon="0.13889">
        <ele>75.008</ele>
        <time>2016-06-01T22:18:46Z</time>
      </trkpt>
      <trkpt lat="48.14278" lon="0.13874">
        <ele>74.505</ele>
        <time>2016-06-01T22:18:26Z</time>
      </trkpt>
      <trkpt lat="48.14519" lon="0.1378">
        <ele>74.341</ele>
        <time>2016-06-01T22:18:06Z</time>
      </trkpt>
      <trkpt lat="48.14579" lon="0.13769">
        <ele>75.221</ele>
        <time>2016-06-01T22:17:46Z</time>
      </trkpt>
      <trkpt lat="48.14699" lon="0.13773">
        <ele>71.079</ele>
        <time>2016-06-01T22:17:26Z</time>
      </trkpt>
      <trkpt lat="48.14792" lon="0.13765">
        <ele>66.22</ele>
        <time>2016-06-01T22:17:06Z</time>
      </trkpt>
      <trkpt lat="48.1485" lon="0.13754">
        <ele>65.484</ele>
        <time>2016-06-01T22:16:46Z</time>
      </trkpt>
      <trkpt lat="48.14894" lon="0.13726">
        <ele>61.982</ele>
        <time>2016-06-01T22:16:26Z</time>
      </trkpt>
      <trkpt lat="48.14911" lon="0.13724">
        <ele>61.266</ele>
        <time>2016-06-01T22:16:06Z</time>
      </trkpt>
      <trkpt lat="48.14927" lon="0.13752">
        <ele>62.433</ele>
        <time>2016-06-01T22:15:46Z</time>
      </trkpt>
      <trkpt lat="48.14953" lon="0.13777">
        <ele>64.658</ele>
        <time>2016-06-01T22:15:26Z</time>
      </trkpt>
      <trkpt lat="48.14989" lon="0.13777">
        <ele>67.862</ele>
        <time>2016-06-01T22:15:06Z</time>
      </trkpt>
      <trkpt lat="48.15046" lon="0.13747">
        <ele>71.008</ele>
        <time>2016-06-01T22:14:46Z</time>
      </trkpt>
      <trkpt lat="48.15325" lon="0.13674">
        <ele>75.421</ele>
        <time>2016-06-01T22:14:26Z</time>
      </trkpt>
      <trkpt lat="48.15362" lon="0.13689">
        <ele>74.229</ele>
        <time>2016-06-01T22:14:06Z</time>
      </trkpt>
      <trkpt lat="48.15391" lon="0.13696">
        <ele>74.366</ele>
        <time>2016-06-01T22:13:46Z</time>
      </trkpt>
      <trkpt lat="48.155" lon="0.13674">
        <ele>84.725</ele>
        <time>2016-06-01T22:13:26Z</time>
      </trkpt>
      <trkpt lat="48.15557" lon="0.13649">
        <ele>86.436</ele>
        <time>2016-06-01T22:13:06Z</time>
      </trkpt>
      <trkpt lat="48.15719" lon="0.13533">
        <ele>89.75</ele>
        <time>2016-06-01T22:12:46Z</time>
      </trkpt>
      <trkpt lat="48.15792" lon="0.13471">
        <ele>89.028</ele>
        <time>2016-06-01T22:12:26Z</time>
      </trkpt>
      <trkpt lat="48.15817" lon="0.13411">
        <ele>88.762</ele>
        <time>2016-06-01T22:12:06Z</time>
      </trkpt>
      <trkpt lat="48.1584" lon="0.13357">
        <ele>88.849</ele>
        <time>2016-06-01T22:11:46Z</time>
      </trkpt>
      <trkpt lat="48.15869" lon="0.13335">
        <ele>89.274</ele>
        <time>2016-06-01T22:11:26Z</time>
      </trkpt>
      <trkpt lat="48.15893" lon="0.13301">
        <ele>90.058</ele>
        <time>2016-06-01T22:11:06Z</time>
      </trkpt>
      <trkpt lat="48.15915" lon="0.13292">
        <ele>90.508</ele>
        <time>2016-06-01T22:10:46Z</time>
      </trkpt>
      <trkpt lat="48.15952" lon="0.13284">
        <ele>91.105</ele>
        <time>2016-06-01T22:10:26Z</time>
      </trkpt>
      <trkpt lat="48.16044" lon="0.13217">
        <ele>91.441</ele>
        <time>2016-06-01T22:10:06Z</time>
      </trkpt>
      <trkpt lat="48.16082" lon="0.13177">
        <ele>90.021</ele>
        <time>2016-06-01T22:09:46Z</time>
      </trkpt>
      <trkpt lat="48.16131" lon="0.13174">
        <ele>88.394</ele>
        <time>2016-06-01T22:09:26Z</time>
      </trkpt>
      <trkpt lat="48.16207" lon="0.13155">
        <ele>86.615</ele>
        <time>2016-06-01T22:09:06Z</time>
      </trkpt>
      <trkpt lat="48.1623" lon="0.13127">
        <ele>86.029</ele>
        <time>2016-06-01T22:08:46Z</time>
      </trkpt>
      <trkpt lat="48.1636" lon="0.13086">
        <ele>84.087</ele>
        <time>2016-06-01T22:08:26Z</time>
      </trkpt>
      <trkpt lat="48.16542" lon="0.12968">
        <ele>82.641</ele>
        <time>2016-06-01T22:08:06Z</time>
      </trkpt>
      <trkpt lat="48.16746" lon="0.12833">
        <ele>81.158</ele>
        <time>2016-06-01T22:07:46Z</time>
      </trkpt>
      <trkpt lat="48.16778" lon="0.1279">
        <ele>81.573</ele>
        <time>2016-06-01T22:07:26Z</time>
      </trkpt>
      <trkpt lat="48.16849" lon="0.12745">
        <ele>82.437</ele>
        <time>2016-06-01T22:07:06Z</time>
      </trkpt>
      <trkpt lat="48.16888" lon="0.12745">
        <ele>83.908</ele>
        <time>2016-06-01T22:06:46Z</time>
      </trkpt>
      <trkpt lat="48.16938" lon="0.12756">
        <ele>83.413</ele>
        <time>2016-06-01T22:06:26Z</time>
      </trkpt>
      <trkpt lat="48.16997" lon="0.12595">
        <ele>63.076</ele>
        <time>2016-06-01T22:06:06Z</time>
      </trkpt>
      <trkpt lat="48.1705" lon="0.12589">
        <ele>56.416</ele>
        <time>2016-06-01T22:05:46Z</time>
      </trkpt>
      <trkpt lat="48.17088" lon="0.12612">
        <ele>56.061</ele>
        <time>2016-06-01T22:05:26Z</time>
      </trkpt>
      <trkpt lat="48.1713" lon="0.12612">
        <ele>56.722</ele>
        <time>2016-06-01T22:05:06Z</time>
      </trkpt>
      <trkpt lat="48.17207" lon="0.12539">
        <ele>54.456</ele>
        <time>2016-06-01T22:04:46Z</time>
      </trkpt>
      <trkpt lat="48.17292" lon="0.12475">
        <ele>56.644</ele>
        <time>2016-06-01T22:04:26Z</time>
      </trkpt>
      <trkpt lat="48.17406" lon="0.12456">
        <ele>57.638</ele>
        <time>2016-06-01T22:04:06Z</time>
      </trkpt>
      <trkpt lat="48.17409" lon="0.12432">
        <ele>58.055</ele>
        <time>2016-06-01T22:03:46Z</time>
      </trkpt>
      <trkpt lat="48.17396" lon="0.12366">
        <ele>57.41</ele>
        <time>2016-06-01T22:03:26Z</time>
      </trkpt>
      <trkpt lat="48.17319" lon="0.12215">
        <ele>57.414</ele>
        <time>2016-06-01T22:03:06Z</time>
      </trkpt>
      <trkpt lat="48.17292" lon="0.12136">
        <ele>58.608</ele>
        <time>2016-06-01T22:02:46Z</time>
      </trkpt>
      <trkpt lat="48.17254" lon="0.12052">
        <ele>58.017</ele>
        <time>2016-06-01T22:02:26Z</time>
      </trkpt>
      <trkpt lat="48.17243" lon="0.12007">
        <ele>57.443</ele>
        <time>2016-06-01T22:02:06Z</time>
      </trkpt>
      <trkpt lat="48.17645" lon="0.12087">
        <ele>58.082</ele>
        <time>2016-06-01T22:01:46Z</time>
      </trkpt>
      <trkpt lat="48.17758" lon="0.12114">
        <ele>58.435</ele>
        <time>2016-06-01T22:01:26Z</time>
      </trkpt>
      <trkpt lat="48.17802" lon="0.12168">
        <ele>60.096</ele>
        <time>2016-06-01T22:01:06Z</time>
      </trkpt>
      <trkpt lat="48.17851" lon="0.12303">
        <ele>58.53</ele>
        <time>2016-06-01T22:00:46Z</time>
      </trkpt>
      <trkpt lat="48.17891" lon="0.12406">
        <ele>57.618</ele>
        <time>2016-06-01T22:00:26Z</time>
      </trkpt>
      <trkpt lat="48.17917" lon="0.12565">
        <ele>64.712</ele>
        <time>2016-06-01T22:00:06Z</time>
      </trkpt>
      <trkpt lat="48.17955" lon="0.12679">
        <ele>67.229</ele>
        <time>2016-06-01T21:59:46Z</time>
      </trkpt>
      <trkpt lat="48.17975" lon="0.1279">
        <ele>68.114</ele>
        <time>2016-06-01T21:59:26Z</time>
      </trkpt>
      <trkpt lat="48.17963" lon="0.12835">
        <ele>67.058</ele>
        <time>2016-06-01T21:59:06Z</time>
      </trkpt>
      <trkpt lat="48.17967" lon="0.13005">
        <ele>65.008</ele>
        <time>2016-06-01T21:58:46Z</time>
      </trkpt>
      <trkpt lat="48.18024" lon="0.13029">
        <ele>67.614</ele>
        <time>2016-06-01T21:58:26Z</time>
      </trkpt>
      <trkpt lat="48.18073" lon="0.13031">
        <ele>72.868</ele>
        <time>2016-06-01T21:58:06Z</time>
      </trkpt>
      <trkpt lat="48.18096" lon="0.13048">
        <ele>74.027</ele>
        <time>2016-06-01T21:57:46Z</time>
      </trkpt>
      <trkpt lat="48.18133" lon="0.13138">
        <ele>75.72</ele>
        <time>2016-06-01T21:57:26Z</time>
      </trkpt>
      <trkpt lat="48.18134" lon="0.13189">
        <ele>75.311</ele>
        <time>2016-06-01T21:57:06Z</time>
      </trkpt>
      <trkpt lat="48.18154" lon="0.13205">
        <ele>75.495</ele>
        <time>2016-06-01T21:56:46Z</time>
      </trkpt>
      <trkpt lat="48.18202" lon="0.13222">
        <ele>76.083</ele>
        <time>2016-06-01T21:56:26Z</time>
      </trkpt>
      <trkpt lat="48.18214" lon="0.13235">
        <ele>76.047</ele>
        <time>2016-06-01T21:56:06Z</time>
      </trkpt>
      <trkpt lat="48.18272" lon="0.13305">
        <ele>75.074</ele>
        <time>2016-06-01T21:55:46Z</time>
      </trkpt>
      <trkpt lat="48.18312" lon="0.13335">
        <ele>74.959</ele>
        <time>2016-06-01T21:55:26Z</time>
      </trkpt>
      <trkpt lat="48.1833" lon="0.13402">
        <ele>73.393</ele>
        <time>2016-06-01T21:55:06Z</time>
      </trkpt>
      <trkpt lat="48.18362" lon="0.13451">
        <ele>75.808</ele>
        <time>2016-06-01T21:54:46Z</time>
      </trkpt>
      <trkpt lat="48.18408" lon="0.13488">
        <ele>77.019</ele>
        <time>2016-06-01T21:54:26Z</time>
      </trkpt>
      <trkpt lat="48.18456" lon="0.13535">
        <ele>79.49</ele>
        <time>2016-06-01T21:54:06Z</time>
      </trkpt>
      <trkpt lat="48.18486" lon="0.13593">
        <ele>79.576</ele>
        <time>2016-06-01T21:53:46Z</time>
      </trkpt>
      <trkpt lat="48.18543" lon="0.13698">
        <ele>83.658</ele>
        <time>2016-06-01T21:53:26Z</time>
      </trkpt>
      <trkpt lat="48.18552" lon="0.13745">
        <ele>82.859</ele>
        <time>2016-06-01T21:53:06Z</time>
      </trkpt>
      <trkpt lat="48.18552" lon="0.13838">
        <ele>79.793</ele>
        <time>2016-06-01T21:52:46Z</time>
      </trkpt>
      <trkpt lat="48.18566" lon="0.13943">
        <ele>78.451</ele>
        <time>2016-06-01T21:52:26Z</time>
      </trkpt>
      <trkpt lat="48.18588" lon="0.14016">
        <ele>81.385</ele>
        <time>2016-06-01T21:52:06Z</time>
      </trkpt>
      <trkpt lat="48.18664" lon="0.14166">
        <ele>94.952</ele>
        <time>2016-06-01T21:51:46Z</time>
      </trkpt>
      <trkpt lat="48.18674" lon="0.14198">
        <ele>97.657</ele>
        <time>2016-06-01T21:51:26Z</time>
      </trkpt>
      <trkpt lat="48.18671" lon="0.14277">
        <ele>98.271</ele>
        <time>2016-06-01T21:51:06Z</time>
      </trkpt>
      <trkpt lat="48.18651" lon="0.14342">
        <ele>96.708</ele>
        <time>2016-06-01T21:50:46Z</time>
      </trkpt>
      <trkpt lat="48.18635" lon="0.14483">
        <ele>89.808</ele>
        <time>2016-06-01T21:50:26Z</time>
      </trkpt>
      <trkpt lat="48.18636" lon="0.14576">
        <ele>89.653</ele>
        <time>2016-06-01T21:50:06Z</time>
      </trkpt>
      <trkpt lat="48.18651" lon="0.14597">
        <ele>90.752</ele>
        <time>2016-06-01T21:49:46Z</time>
      </trkpt>
      <trkpt lat="48.18675" lon="0.14595">
        <ele>91.386</ele>
        <time>2016-06-01T21:49:26Z</time>
      </trkpt>
      <trkpt lat="48.18709" lon="0.14599">
        <ele>93.217</ele>
        <time>2016-06-01T21:49:06Z</time>
      </trkpt>
      <trkpt lat="48.18795" lon="0.14636">
        <ele>99.611</ele>
        <time>2016-06-01T21:48:46Z</time>
      </trkpt>
      <trkpt lat="48.18841" lon="0.14621">
        <ele>100.069</ele>
        <time>2016-06-01T21:48:26Z</time>
      </trkpt>
      <trkpt lat="48.18895" lon="0.14595">
        <ele>101.583</ele>
        <time>2016-06-01T21:48:06Z</time>
      </trkpt>
      <trkpt lat="48.18997" lon="0.14563">
        <ele>103.23</ele>
        <time>2016-06-01T21:47:46Z</time>
      </trkpt>
      <trkpt lat="48.19036" lon="0.1458">
        <ele>103.935</ele>
        <time>2016-06-01T21:47:26Z</time>
      </trkpt>
      <trkpt lat="48.19187" lon="0.14458">
        <ele>106.099</ele>
        <time>2016-06-01T21:47:06Z</time>
      </trkpt>
      <trkpt lat="48.19226" lon="0.14438">
        <ele>106.108</ele>
        <time>2016-06-01T21:46:46Z</time>
      </trkpt>
      <trkpt lat="48.19277" lon="0.14419">
        <ele>109.01</ele>
        <time>2016-06-01T21:46:26Z</time>
      </trkpt>
      <trkpt lat="48.19322" lon="0.1441">
        <ele>112.255</ele>
        <time>2016-06-01T21:46:06Z</time>
      </trkpt>
      <trkpt lat="48.19322" lon="0.14393">
        <ele>112.234</ele>
        <time>2016-06-01T21:45:46Z</time>
      </trkpt>
      <trkpt lat="48.19304" lon="0.14265">
        <ele>115.559</ele>
        <time>2016-06-01T21:45:26Z</time>
      </trkpt>
      <trkpt lat="48.19303" lon="0.14174">
        <ele>115.73</ele>
        <time>2020-12-24T08:10:55Z</time>
      </trkpt>
      <trkpt lat="48.19473" lon="0.14399">
        <ele>112.934</ele>
        <time>2020-12-24T08:10:35Z</time>
      </trkpt>
      <trkpt lat="48.19667" lon="0.14456">
        <ele>110.562</ele>
        <time>2020-12-24T08:10:15Z</time>
      </trkpt>
      <trkpt lat="48.20021" lon="0.14679">
        <ele>109.296</ele>
        <time>2020-12-24T08:09:55Z</time>
      </trkpt>
      <trkpt lat="48.20153" lon="0.14707">
        <ele>102.443</ele>
        <time>2020-12-24T08:09:35Z</time>
      </trkpt>
      <trkpt lat="48.20232" lon="0.14659">
        <ele>95.788</ele>
        <time>2020-12-24T08:09:15Z</time>
      </trkpt>
      <trkpt lat="48.20271" lon="0.14656">
        <ele>94.772</ele>
        <time>2020-12-24T08:08:55Z</time>
      </trkpt>
      <trkpt lat="48.20405" lon="0.14473">
        <ele>90.208</ele>
        <time>2020-12-24T08:08:35Z</time>
      </trkpt>
      <trkpt lat="48.20776" lon="0.14088">
        <ele>78.124</ele>
        <time>2020-12-24T08:08:15Z</time>
      </trkpt>
      <trkpt lat="48.20894" lon="0.1384">
        <ele>73.304</ele>
        <time>2020-12-24T08:07:55Z</time>
      </trkpt>
      <trkpt lat="48.20927" lon="0.13571">
        <ele>73.869</ele>
        <time>2020-12-24T08:07:35Z</time>
      </trkpt>
      <trkpt lat="48.20899" lon="0.13323">
        <ele>73.264</ele>
        <time>2020-12-24T08:07:15Z</time>
      </trkpt>
      <trkpt lat="48.20844" lon="0.13026">
        <ele>74.655</ele>
        <time>2020-12-24T08:06:55Z</time>
      </trkpt>
      <trkpt lat="48.20747" lon="0.13019">
        <ele>73.749</ele>
        <time>2020-12-24T08:06:35Z</time>
      </trkpt>
      <trkpt lat="48.20726" lon="0.12964">
        <ele>74.547</ele>
        <time>2020-12-24T08:06:15Z</time>
      </trkpt>
      <trkpt lat="48.20663" lon="0.12888">
        <ele>73.671</ele>
        <time>2020-12-24T08:05:55Z</time>
      </trkpt>
      <trkpt lat="48.20635" lon="0.12803">
        <ele>72.518</ele>
        <time>2020-12-24T08:05:35Z</time>
      </trkpt>
      <trkpt lat="48.20484" lon="0.12705">
        <ele>74.343</ele>
        <time>2016-06-01T21:36:06Z</time>
      </trkpt>
      <trkpt lat="48.2039" lon="0.12263">
        <ele>69.557</ele>
        <time>2016-06-01T21:35:46Z</time>
      </trkpt>
      <trkpt lat="48.20473" lon="0.12288">
        <ele>69.408</ele>
        <time>2016-06-01T21:35:26Z</time>
      </trkpt>
      <trkpt lat="48.20523" lon="0.12295">
        <ele>70.115</ele>
        <time>2016-06-01T21:35:06Z</time>
      </trkpt>
      <trkpt lat="48.20629" lon="0.1229">
        <ele>70.587</ele>
        <time>2016-06-01T21:34:46Z</time>
      </trkpt>
      <trkpt lat="48.20718" lon="0.12299">
        <ele>69.617</ele>
        <time>2016-06-01T21:34:26Z</time>
      </trkpt>
      <trkpt lat="48.2076" lon="0.12316">
        <ele>68.579</ele>
        <time>2016-06-01T21:34:06Z</time>
      </trkpt>
      <trkpt lat="48.20821" lon="0.12376">
        <ele>72.84</ele>
        <time>2016-06-01T21:33:46Z</time>
      </trkpt>
      <trkpt lat="48.20846" lon="0.12402">
        <ele>73.024</ele>
        <time>2016-06-01T21:33:26Z</time>
      </trkpt>
      <trkpt lat="48.20971" lon="0.12417">
        <ele>72.032</ele>
        <time>2016-06-01T21:33:06Z</time>
      </trkpt>
      <trkpt lat="48.21071" lon="0.124">
        <ele>64.496</ele>
        <time>2016-06-01T21:32:46Z</time>
      </trkpt>
      <trkpt lat="48.21161" lon="0.12398">
        <ele>62.973</ele>
        <time>2016-06-01T21:32:26Z</time>
      </trkpt>
      <trkpt lat="48.21264" lon="0.12462">
        <ele>63.198</ele>
        <time>2016-06-01T21:32:06Z</time>
      </trkpt>
      <trkpt lat="48.21382" lon="0.12526">
        <ele>60.722</ele>
        <time>2016-06-01T21:31:46Z</time>
      </trkpt>
      <trkpt lat="48.2156" lon="0.1261">
        <ele>62.008</ele>
        <time>2016-06-01T21:31:26Z</time>
      </trkpt>
      <trkpt lat="48.21594" lon="0.12662">
        <ele>61.124</ele>
        <time>2016-06-01T21:31:06Z</time>
      </trkpt>
      <trkpt lat="48.21604" lon="0.127">
        <ele>60.904</ele>
        <time>2016-06-01T21:30:46Z</time>
      </trkpt>
      <trkpt lat="48.21648" lon="0.12717">
        <ele>61.569</ele>
        <time>2016-06-01T21:30:26Z</time>
      </trkpt>
      <trkpt lat="48.21711" lon="0.1273">
        <ele>60.127</ele>
        <time>2016-06-01T21:30:06Z</time>
      </trkpt>
      <trkpt lat="48.21748" lon="0.12769">
        <ele>59.788</ele>
        <time>2016-06-01T21:29:46Z</time>
      </trkpt>
      <trkpt lat="48.21954" lon="0.12876">
        <ele>60.542</ele>
        <time>2016-06-01T21:29:26Z</time>
      </trkpt>
      <trkpt lat="48.21986" lon="0.12885">
        <ele>60.87</ele>
        <time>2016-06-01T21:29:06Z</time>
      </trkpt>
      <trkpt lat="48.2199" lon="0.12934">
        <ele>60.664</ele>
        <time>2016-06-01T21:28:46Z</time>
      </trkpt>
      <trkpt lat="48.22022" lon="0.13037">
        <ele>62.311</ele>
        <time>2016-06-01T21:28:26Z</time>
      </trkpt>
      <trkpt lat="48.22062" lon="0.13056">
        <ele>63.056</ele>
        <time>2016-06-01T21:28:06Z</time>
      </trkpt>
      <trkpt lat="48.22143" lon="0.13063">
        <ele>61.35</ele>
        <time>2016-06-01T21:27:46Z</time>
      </trkpt>
      <trkpt lat="48.22157" lon="0.13089">
        <ele>62.108</ele>
        <time>2016-06-01T21:27:26Z</time>
      </trkpt>
      <trkpt lat="48.22325" lon="0.13059">
        <ele>61.016</ele>
        <time>2016-06-01T21:27:06Z</time>
      </trkpt>
      <trkpt lat="48.22429" lon="0.12996">
        <ele>66.888</ele>
        <time>2016-06-01T21:26:46Z</time>
      </trkpt>
      <trkpt lat="48.22388" lon="0.12928">
        <ele>64.546</ele>
        <time>2016-06-01T21:26:26Z</time>
      </trkpt>
      <trkpt lat="48.22378" lon="0.12881">
        <ele>63.384</ele>
        <time>2016-06-01T21:26:06Z</time>
      </trkpt>
      <trkpt lat="48.22396" lon="0.12818">
        <ele>62.495</ele>
        <time>2016-06-01T21:25:46Z</time>
      </trkpt>
      <trkpt lat="48.22409" lon="0.12752">
        <ele>68.059</ele>
        <time>2016-06-01T21:25:26Z</time>
      </trkpt>
      <trkpt lat="48.22409" lon="0.12587">
        <ele>77.947</ele>
        <time>2016-06-01T21:25:06Z</time>
      </trkpt>
      <trkpt lat="48.22365" lon="0.12524">
        <ele>78.021</ele>
        <time>2016-06-01T21:24:46Z</time>
      </trkpt>
      <trkpt lat="48.22335" lon="0.12453">
        <ele>79.768</ele>
        <time>2016-06-01T21:24:26Z</time>
      </trkpt>
      <trkpt lat="48.22292" lon="0.12413">
        <ele>81.053</ele>
        <time>2016-06-01T21:24:06Z</time>
      </trkpt>
      <trkpt lat="48.22373" lon="0.12342">
        <ele>79.017</ele>
        <time>2016-06-01T21:23:46Z</time>
      </trkpt>
      <trkpt lat="48.22355" lon="0.12108">
        <ele>82.208</ele>
        <time>2016-06-01T21:23:26Z</time>
      </trkpt>
      <trkpt lat="48.22329" lon="0.12059">
        <ele>84.015</ele>
        <time>2016-06-01T21:23:06Z</time>
      </trkpt>
      <trkpt lat="48.22313" lon="0.11992">
        <ele>86.087</ele>
        <time>2016-06-01T21:22:46Z</time>
      </trkpt>
      <trkpt lat="48.22272" lon="0.11893">
        <ele>86.017</ele>
        <time>2016-06-01T21:22:26Z</time>
      </trkpt>
      <trkpt lat="48.22167" lon="0.1176">
        <ele>86.459</ele>
        <time>2016-06-01T21:22:06Z</time>
      </trkpt>
      <trkpt lat="48.22119" lon="0.11694">
        <ele>86.05</ele>
        <time>2016-06-01T21:21:46Z</time>
      </trkpt>
      <trkpt lat="48.22036" lon="0.11518">
        <ele>85.434</ele>
        <time>2016-06-01T21:21:26Z</time>
      </trkpt>
      <trkpt lat="48.22027" lon="0.11419">
        <ele>87.972</ele>
        <time>2016-06-01T21:21:06Z</time>
      </trkpt>
      <trkpt lat="48.21982" lon="0.11288">
        <ele>86.216</ele>
        <time>2016-06-01T21:20:46Z</time>
      </trkpt>
      <trkpt lat="48.21953" lon="0.11258">
        <ele>86.543</ele>
        <time>2016-06-01T21:20:26Z</time>
      </trkpt>
      <trkpt lat="48.21921" lon="0.11239">
        <ele>87.058</ele>
        <time>2016-06-01T21:20:06Z</time>
      </trkpt>
      <trkpt lat="48.21894" lon="0.1122">
        <ele>87.052</ele>
        <time>2016-06-01T21:19:46Z</time>
      </trkpt>
      <trkpt lat="48.2175" lon="0.10966">
        <ele>91.008</ele>
        <time>2016-06-01T21:19:26Z</time>
      </trkpt>
      <trkpt lat="48.21738" lon="0.10971">
        <ele>91.424</ele>
        <time>2016-06-01T21:19:06Z</time>
      </trkpt>
      <trkpt lat="48.21716" lon="0.10962">
        <ele>91.904</ele>
        <time>2016-06-01T21:18:46Z</time>
      </trkpt>
      <trkpt lat="48.21688" lon="0.10939">
        <ele>92.269</ele>
        <time>2016-06-01T21:18:26Z</time>
      </trkpt>
      <trkpt lat="48.21633" lon="0.10945">
        <ele>91.559</ele>
        <time>2016-06-01T21:18:06Z</time>
      </trkpt>
      <trkpt lat="48.21621" lon="0.10913">
        <ele>91.02</ele>
        <time>2016-06-01T21:17:46Z</time>
      </trkpt>
      <trkpt lat="48.21603" lon="0.10765">
        <ele>92.684</ele>
        <time>2016-06-01T21:17:26Z</time>
      </trkpt>
      <trkpt lat="48.21601" lon="0.10645">
        <ele>92.332</ele>
        <time>2016-06-01T21:17:06Z</time>
      </trkpt>
      <trkpt lat="48.21583" lon="0.10612">
        <ele>90.126</ele>
        <time>2016-06-01T21:16:46Z</time>
      </trkpt>
      <trkpt lat="48.21567" lon="0.10591">
        <ele>89.113</ele>
        <time>2016-06-01T21:16:26Z</time>
      </trkpt>
      <trkpt lat="48.21567" lon="0.10518">
        <ele>85.128</ele>
        <time>2016-06-01T21:16:06Z</time>
      </trkpt>
      <trkpt lat="48.21535" lon="0.10447">
        <ele>87.532</ele>
        <time>2016-06-01T21:15:46Z</time>
      </trkpt>
      <trkpt lat="48.21523" lon="0.10381">
        <ele>90.308</ele>
        <time>2016-06-01T21:15:26Z</time>
      </trkpt>
      <trkpt lat="48.21525" lon="0.1031">
        <ele>90.321</ele>
        <time>2016-06-01T21:15:06Z</time>
      </trkpt>
      <trkpt lat="48.21513" lon="0.10267">
        <ele>90.229</ele>
        <time>2016-06-01T21:14:46Z</time>
      </trkpt>
      <trkpt lat="48.21316" lon="0.10332">
        <ele>87.066</ele>
        <time>2016-06-01T21:14:26Z</time>
      </trkpt>
      <trkpt lat="48.21275" lon="0.10242">
        <ele>87.448</ele>
        <time>2016-06-01T21:14:06Z</time>
      </trkpt>
      <trkpt lat="48.21262" lon="0.10158">
        <ele>90.769</ele>
        <time>2016-06-01T21:13:46Z</time>
      </trkpt>
      <trkpt lat="48.21268" lon="0.10085">
        <ele>92.023</ele>
        <time>2016-06-01T21:13:26Z</time>
      </trkpt>
      <trkpt lat="48.21235" lon="0.09708">
        <ele>94.161</ele>
        <time>2016-06-01T21:13:06Z</time>
      </trkpt>
      <trkpt lat="48.21211" lon="0.09534">
        <ele>96.425</ele>
        <time>2016-06-01T21:12:46Z</time>
      </trkpt>
      <trkpt lat="48.21221" lon="0.09454">
        <ele>98.392</ele>
        <time>2016-06-01T21:12:26Z</time>
      </trkpt>
      <trkpt lat="48.21455" lon="0.09708">
        <ele>100.477</ele>
        <time>2016-06-01T21:12:06Z</time>
      </trkpt>
      <trkpt lat="48.2154" lon="0.09776">
        <ele>97.231</ele>
        <time>2016-06-01T21:10:26Z</time>
      </trkpt>
      <trkpt lat="48.21596" lon="0.09737">
        <ele>96.308</ele>
        <time>2016-06-01T21:10:06Z</time>
      </trkpt>
      <trkpt lat="48.21628" lon="0.09705">
        <ele>96.611</ele>
        <time>2016-06-01T21:09:46Z</time>
      </trkpt>
      <trkpt lat="48.21651" lon="0.09658">
        <ele>97.056</ele>
        <time>2016-06-01T21:09:26Z</time>
      </trkpt>
      <trkpt lat="48.21666" lon="0.09606">
        <ele>97.254</ele>
        <time>2016-06-01T21:09:06Z</time>
      </trkpt>
      <trkpt lat="48.21684" lon="0.09563">
        <ele>98.122</ele>
        <time>2016-06-01T21:08:46Z</time>
      </trkpt>
      <trkpt lat="48.21723" lon="0.0954">
        <ele>98.093</ele>
        <time>2016-06-01T21:08:26Z</time>
      </trkpt>
      <trkpt lat="48.21644" lon="0.09301">
        <ele>98.857</ele>
        <time>2016-06-01T21:08:06Z</time>
      </trkpt>
      <trkpt lat="48.21584" lon="0.09078">
        <ele>99.015</ele>
        <time>2016-06-01T21:07:46Z</time>
      </trkpt>
      <trkpt lat="48.21924" lon="0.08831">
        <ele>103.599</ele>
        <time>2016-06-01T21:07:26Z</time>
      </trkpt>
      <trkpt lat="48.21943" lon="0.0881">
        <ele>104.056</ele>
        <time>2016-06-01T21:07:06Z</time>
      </trkpt>
      <trkpt lat="48.2194" lon="0.08739">
        <ele>102.871</ele>
        <time>2016-06-01T21:06:46Z</time>
      </trkpt>
      <trkpt lat="48.21923" lon="0.08677">
        <ele>101.635</ele>
        <time>2016-06-01T21:06:26Z</time>
      </trkpt>
      <trkpt lat="48.21927" lon="0.08617">
        <ele>100.508</ele>
        <time>2016-06-01T21:06:06Z</time>
      </trkpt>
      <trkpt lat="48.21959" lon="0.0858">
        <ele>100.419</ele>
        <time>2016-06-01T21:05:46Z</time>
      </trkpt>
      <trkpt lat="48.2198" lon="0.08544">
        <ele>100.481</ele>
        <time>2016-06-01T21:05:26Z</time>
      </trkpt>
      <trkpt lat="48.22034" lon="0.08377">
        <ele>96.991</ele>
        <time>2016-06-01T21:05:06Z</time>
      </trkpt>
      <trkpt lat="48.22099" lon="0.08188">
        <ele>88.818</ele>
        <time>2016-06-01T21:04:46Z</time>
      </trkpt>
      <trkpt lat="48.22129" lon="0.08078">
        <ele>82.429</ele>
        <time>2016-06-01T21:04:26Z</time>
      </trkpt>
      <trkpt lat="48.22129" lon="0.0807">
        <ele>81.733</ele>
        <time>2016-06-01T21:04:06Z</time>
      </trkpt>
      <trkpt lat="48.2215" lon="0.08042">
        <ele>78.941</ele>
        <time>2016-06-01T21:03:46Z</time>
      </trkpt>
      <trkpt lat="48.22169" lon="0.0799">
        <ele>77.335</ele>
        <time>2016-06-01T21:03:26Z</time>
      </trkpt>
      <trkpt lat="48.22196" lon="0.07941">
        <ele>77.192</ele>
        <time>2016-06-01T21:03:06Z</time>
      </trkpt>
      <trkpt lat="48.22242" lon="0.07881">
        <ele>74.317</ele>
        <time>2016-06-01T21:02:46Z</time>
      </trkpt>
      <trkpt lat="48.22336" lon="0.07821">
        <ele>73.081</ele>
        <time>2016-06-01T21:02:26Z</time>
      </trkpt>
      <trkpt lat="48.2237" lon="0.07776">
        <ele>74.408</ele>
        <time>2016-06-01T21:02:06Z</time>
      </trkpt>
      <trkpt lat="48.22389" lon="0.07729">
        <ele>75.223</ele>
        <time>2016-06-01T21:01:46Z</time>
      </trkpt>
      <trkpt lat="48.22426" lon="0.07662">
        <ele>77.703</ele>
        <time>2016-06-01T21:01:26Z</time>
      </trkpt>
      <trkpt lat="48.22463" lon="0.07628">
        <ele>79.459</ele>
        <time>2016-06-01T21:01:06Z</time>
      </trkpt>
      <trkpt lat="48.22312" lon="0.07553">
        <ele>73.264</ele>
        <time>2016-06-01T21:00:46Z</time>
      </trkpt>
      <trkpt lat="48.22279" lon="0.0755">
        <ele>72.065</ele>
        <time>2016-06-01T21:00:26Z</time>
      </trkpt>
      <trkpt lat="48.22243" lon="0.07568">
        <ele>72.259</ele>
        <time>2016-06-01T21:00:06Z</time>
      </trkpt>
      <trkpt lat="48.22196" lon="0.07583">
        <ele>73.097</ele>
        <time>2016-06-01T20:59:46Z</time>
      </trkpt>
      <trkpt lat="48.22069" lon="0.07548">
        <ele>80.711</ele>
        <time>2016-06-01T20:59:26Z</time>
      </trkpt>
      <trkpt lat="48.22037" lon="0.0751">
        <ele>83.388</ele>
        <time>2016-06-01T20:59:06Z</time>
      </trkpt>
      <trkpt lat="48.22024" lon="0.07454">
        <ele>84.223</ele>
        <time>2016-06-01T20:58:46Z</time>
      </trkpt>
      <trkpt lat="48.22004" lon="0.07402">
        <ele>86.257</ele>
        <time>2016-06-01T20:58:26Z</time>
      </trkpt>
      <trkpt lat="48.21963" lon="0.07374">
        <ele>88.908</ele>
        <time>2016-06-01T20:58:06Z</time>
      </trkpt>
      <trkpt lat="48.21773" lon="0.07377">
        <ele>100.615</ele>
        <time>2016-06-01T20:57:46Z</time>
      </trkpt>
      <trkpt lat="48.21681" lon="0.07398">
        <ele>103.587</ele>
        <time>2016-06-01T20:57:26Z</time>
      </trkpt>
      <trkpt lat="48.21633" lon="0.074">
        <ele>105.217</ele>
        <time>2016-06-01T20:57:06Z</time>
      </trkpt>
      <trkpt lat="48.2165" lon="0.07338">
        <ele>104.685</ele>
        <time>2016-06-01T20:56:46Z</time>
      </trkpt>
      <trkpt lat="48.21706" lon="0.07261">
        <ele>100.036</ele>
        <time>2016-06-01T20:56:26Z</time>
      </trkpt>
      <trkpt lat="48.21718" lon="0.07145">
        <ele>94.77</ele>
        <time>2016-06-01T20:56:06Z</time>
      </trkpt>
      <trkpt lat="48.21748" lon="0.0704">
        <ele>91.148</ele>
        <time>2016-06-01T20:55:46Z</time>
      </trkpt>
      <trkpt lat="48.21803" lon="0.06879">
        <ele>87.092</ele>
        <time>2016-06-01T20:55:26Z</time>
      </trkpt>
      <trkpt lat="48.21839" lon="0.06748">
        <ele>81.859</ele>
        <time>2016-06-01T20:55:06Z</time>
      </trkpt>
      <trkpt lat="48.21834" lon="0.0669">
        <ele>81.064</ele>
        <time>2016-06-01T20:54:46Z</time>
      </trkpt>
      <trkpt lat="48.21804" lon="0.0652">
        <ele>81.098</ele>
        <time>2016-06-01T20:54:26Z</time>
      </trkpt>
      <trkpt lat="48.21801" lon="0.06409">
        <ele>81.108</ele>
        <time>2016-06-01T20:54:06Z</time>
      </trkpt>
      <trkpt lat="48.21777" lon="0.06289">
        <ele>78.017</ele>
        <time>2016-06-01T20:53:46Z</time>
      </trkpt>
      <trkpt lat="48.21718" lon="0.06102">
        <ele>77.989</ele>
        <time>2016-06-01T20:53:26Z</time>
      </trkpt>
      <trkpt lat="48.21693" lon="0.06048">
        <ele>78.228</ele>
        <time>2016-06-01T20:53:06Z</time>
      </trkpt>
      <trkpt lat="48.21626" lon="0.05943">
        <ele>78.086</ele>
        <time>2016-06-01T20:52:46Z</time>
      </trkpt>
      <trkpt lat="48.21598" lon="0.05915">
        <ele>79.447</ele>
        <time>2016-06-01T20:52:26Z</time>
      </trkpt>
      <trkpt lat="48.21553" lon="0.05881">
        <ele>81.961</ele>
        <time>2016-06-01T20:52:06Z</time>
      </trkpt>
      <trkpt lat="48.21535" lon="0.05853">
        <ele>82.449</ele>
        <time>2016-06-01T20:51:46Z</time>
      </trkpt>
      <trkpt lat="48.21501" lon="0.05679">
        <ele>81.963</ele>
        <time>2016-06-01T20:51:26Z</time>
      </trkpt>
      <trkpt lat="48.2147" lon="0.05602">
        <ele>81.29</ele>
        <time>2016-06-01T20:51:06Z</time>
      </trkpt>
      <trkpt lat="48.2139" lon="0.05443">
        <ele>80.955</ele>
        <time>2016-06-01T20:50:46Z</time>
      </trkpt>
      <trkpt lat="48.21351" lon="0.05327">
        <ele>79.219</ele>
        <time>2016-06-01T20:50:26Z</time>
      </trkpt>
      <trkpt lat="48.2132" lon="0.05239">
        <ele>78.108</ele>
        <time>2016-06-01T20:50:06Z</time>
      </trkpt>
      <trkpt lat="48.21277" lon="0.05188">
        <ele>77.714</ele>
        <time>2016-06-01T20:49:46Z</time>
      </trkpt>
      <trkpt lat="48.21195" lon="0.0507">
        <ele>78.086</ele>
        <time>2016-06-01T20:49:26Z</time>
      </trkpt>
      <trkpt lat="48.21141" lon="0.05014">
        <ele>77.635</ele>
        <time>2016-06-01T20:49:06Z</time>
      </trkpt>
      <trkpt lat="48.21085" lon="0.05033">
        <ele>78.499</ele>
        <time>2016-06-01T20:48:46Z</time>
      </trkpt>
      <trkpt lat="48.21051" lon="0.05029">
        <ele>79.42</ele>
        <time>2016-06-01T20:48:26Z</time>
      </trkpt>
      <trkpt lat="48.20984" lon="0.04971">
        <ele>79.214</ele>
        <time>2016-06-01T20:48:06Z</time>
      </trkpt>
      <trkpt lat="48.20876" lon="0.04823">
        <ele>79.312</ele>
        <time>2016-06-01T20:47:46Z</time>
      </trkpt>
      <trkpt lat="48.20868" lon="0.04787">
        <ele>78.816</ele>
        <time>2016-06-01T20:47:26Z</time>
      </trkpt>
      <trkpt lat="48.20852" lon="0.04675">
        <ele>77.323</ele>
        <time>2016-06-01T20:47:06Z</time>
      </trkpt>
      <trkpt lat="48.20861" lon="0.04643">
        <ele>77.998</ele>
        <time>2016-06-01T20:46:46Z</time>
      </trkpt>
      <trkpt lat="48.20883" lon="0.046">
        <ele>79.342</ele>
        <time>2016-06-01T20:46:26Z</time>
      </trkpt>
      <trkpt lat="48.20889" lon="0.04546">
        <ele>77.708</ele>
        <time>2016-06-01T20:46:06Z</time>
      </trkpt>
      <trkpt lat="48.20913" lon="0.04548">
        <ele>77.716</ele>
        <time>2016-06-01T20:45:46Z</time>
      </trkpt>
      <trkpt lat="48.20968" lon="0.04512">
        <ele>77.206</ele>
        <time>2016-06-01T20:45:26Z</time>
      </trkpt>
      <trkpt lat="48.20991" lon="0.04512">
        <ele>76.864</ele>
        <time>2016-06-01T20:45:06Z</time>
      </trkpt>
      <trkpt lat="48.21018" lon="0.04529">
        <ele>76.684</ele>
        <time>2016-06-01T20:44:46Z</time>
      </trkpt>
      <trkpt lat="48.21052" lon="0.04533">
        <ele>77.075</ele>
        <time>2016-06-01T20:44:26Z</time>
      </trkpt>
      <trkpt lat="48.21086" lon="0.04495">
        <ele>79.199</ele>
        <time>2016-06-01T20:44:06Z</time>
      </trkpt>
      <trkpt lat="48.21138" lon="0.04407">
        <ele>81.087</ele>
        <time>2016-06-01T20:43:46Z</time>
      </trkpt>
      <trkpt lat="48.21187" lon="0.0436">
        <ele>83.491</ele>
        <time>2016-06-01T20:43:26Z</time>
      </trkpt>
      <trkpt lat="48.21267" lon="0.04338">
        <ele>83.588</ele>
        <time>2016-06-01T20:43:06Z</time>
      </trkpt>
      <trkpt lat="48.21312" lon="0.04304">
        <ele>84.513</ele>
        <time>2016-06-01T20:42:46Z</time>
      </trkpt>
      <trkpt lat="48.21395" lon="0.04201">
        <ele>86.857</ele>
        <time>2016-06-01T20:42:26Z</time>
      </trkpt>
      <trkpt lat="48.21448" lon="0.04111">
        <ele>86.008</ele>
        <time>2016-06-01T20:42:06Z</time>
      </trkpt>
      <trkpt lat="48.21468" lon="0.041">
        <ele>86.413</ele>
        <time>2016-06-01T20:41:46Z</time>
      </trkpt>
      <trkpt lat="48.21474" lon="0.04044">
        <ele>86.976</ele>
        <time>2016-06-01T20:41:26Z</time>
      </trkpt>
      <trkpt lat="48.21531" lon="0.03963">
        <ele>88.116</ele>
        <time>2016-06-01T20:41:06Z</time>
      </trkpt>
      <trkpt lat="48.21597" lon="0.03922">
        <ele>87.298</ele>
        <time>2016-06-01T20:40:46Z</time>
      </trkpt>
      <trkpt lat="48.21671" lon="0.0381">
        <ele>87.389</ele>
        <time>2016-06-01T20:40:26Z</time>
      </trkpt>
      <trkpt lat="48.21707" lon="0.03759">
        <ele>89.023</ele>
        <time>2016-06-01T20:40:06Z</time>
      </trkpt>
      <trkpt lat="48.21839" lon="0.03639">
        <ele>96.421</ele>
        <time>2016-06-01T20:39:46Z</time>
      </trkpt>
      <trkpt lat="48.21969" lon="0.03452">
        <ele>109.665</ele>
        <time>2016-06-01T20:39:26Z</time>
      </trkpt>
      <trkpt lat="48.21989" lon="0.03454">
        <ele>110.482</ele>
        <time>2016-06-01T20:39:06Z</time>
      </trkpt>
      <trkpt lat="48.22029" lon="0.03463">
        <ele>113.487</ele>
        <time>2016-06-01T20:38:46Z</time>
      </trkpt>
      <trkpt lat="48.22063" lon="0.0348">
        <ele>114.571</ele>
        <time>2016-06-01T20:38:26Z</time>
      </trkpt>
      <trkpt lat="48.22147" lon="0.03358">
        <ele>126.008</ele>
        <time>2016-06-01T20:38:06Z</time>
      </trkpt>
      <trkpt lat="48.22156" lon="0.03328">
        <ele>127.611</ele>
        <time>2016-06-01T20:37:46Z</time>
      </trkpt>
      <trkpt lat="48.2213" lon="0.03212">
        <ele>133.156</ele>
        <time>2016-06-01T20:37:26Z</time>
      </trkpt>
      <trkpt lat="48.22093" lon="0.03162">
        <ele>136.654</ele>
        <time>2016-06-01T20:37:06Z</time>
      </trkpt>
      <trkpt lat="48.22047" lon="0.03064">
        <ele>144.181</ele>
        <time>2016-06-01T20:36:46Z</time>
      </trkpt>
      <trkpt lat="48.21952" lon="0.02969">
        <ele>152.782</ele>
        <time>2016-06-01T20:36:26Z</time>
      </trkpt>
      <trkpt lat="48.21921" lon="0.02907">
        <ele>151.436</ele>
        <time>2016-06-01T20:36:06Z</time>
      </trkpt>
      <trkpt lat="48.21913" lon="0.0286">
        <ele>154.754</ele>
        <time>2016-06-01T20:35:46Z</time>
      </trkpt>
      <trkpt lat="48.21836" lon="0.02673">
        <ele>159.928</ele>
        <time>2016-06-01T20:35:26Z</time>
      </trkpt>
      <trkpt lat="48.21773" lon="0.02546">
        <ele>161.975</ele>
        <time>2016-06-01T20:35:06Z</time>
      </trkpt>
      <trkpt lat="48.21731" lon="0.02433">
        <ele>158.23</ele>
        <time>2016-06-01T20:34:46Z</time>
      </trkpt>
      <trkpt lat="48.21718" lon="0.0234">
        <ele>157.074</ele>
        <time>2016-06-01T20:34:26Z</time>
      </trkpt>
      <trkpt lat="48.21686" lon="0.02229">
        <ele>156.008</ele>
        <time>2016-06-01T20:34:06Z</time>
      </trkpt>
      <trkpt lat="48.21678" lon="0.02008">
        <ele>156.917</ele>
        <time>2016-06-01T20:33:46Z</time>
      </trkpt>
      <trkpt lat="48.21643" lon="0.018">
        <ele>158.943</ele>
        <time>2016-06-01T20:33:26Z</time>
      </trkpt>
      <trkpt lat="48.21618" lon="0.01701">
        <ele>159.282</ele>
        <time>2016-06-01T20:33:06Z</time>
      </trkpt>
      <trkpt lat="48.21616" lon="0.01617">
        <ele>160.93</ele>
        <time>2016-06-01T20:32:46Z</time>
      </trkpt>
      <trkpt lat="48.21597" lon="0.01486">
        <ele>157.221</ele>
        <time>2016-06-01T20:32:26Z</time>
      </trkpt>
      <trkpt lat="48.21594" lon="0.01356">
        <ele>159.195</ele>
        <time>2016-06-01T20:32:06Z</time>
      </trkpt>
      <trkpt lat="48.21637" lon="0.01383">
        <ele>161.123</ele>
        <time>2016-06-01T20:31:46Z</time>
      </trkpt>
      <trkpt lat="48.21683" lon="0.01388">
        <ele>162.637</ele>
        <time>2016-06-01T20:31:26Z</time>
      </trkpt>
      <trkpt lat="48.21781" lon="0.01381">
        <ele>165.024</ele>
        <time>2016-06-01T20:31:06Z</time>
      </trkpt>
      <trkpt lat="48.21819" lon="0.01403">
        <ele>165.779</ele>
        <time>2016-06-01T20:30:46Z</time>
      </trkpt>
      <trkpt lat="48.21877" lon="0.01315">
        <ele>166.133</ele>
        <time>2016-06-01T20:30:26Z</time>
      </trkpt>
      <trkpt lat="48.21927" lon="0.01259">
        <ele>168.808</ele>
        <time>2016-06-01T20:30:06Z</time>
      </trkpt>
      <trkpt lat="48.21936" lon="0.01229">
        <ele>170.121</ele>
        <time>2016-06-01T20:29:46Z</time>
      </trkpt>
      <trkpt lat="48.21992" lon="0.01135">
        <ele>167.556</ele>
        <time>2016-06-01T20:29:26Z</time>
      </trkpt>
      <trkpt lat="48.21996" lon="0.01077">
        <ele>168.474</ele>
        <time>2016-06-01T20:29:06Z</time>
      </trkpt>
      <trkpt lat="48.2202" lon="0.01038">
        <ele>168.36</ele>
        <time>2016-06-01T20:28:46Z</time>
      </trkpt>
      <trkpt lat="48.22023" lon="0.00987">
        <ele>170.521</ele>
        <time>2016-06-01T20:28:26Z</time>
      </trkpt>
      <trkpt lat="48.22034" lon="0.00918">
        <ele>171.735</ele>
        <time>2016-06-01T20:28:06Z</time>
      </trkpt>
      <trkpt lat="48.22072" lon="0.00811">
        <ele>172.473</ele>
        <time>2016-06-01T20:27:46Z</time>
      </trkpt>
      <trkpt lat="48.22082" lon="0.00703">
        <ele>173.037</ele>
        <time>2016-06-01T20:27:26Z</time>
      </trkpt>
      <trkpt lat="48.22275" lon="0.00444">
        <ele>175.034</ele>
        <time>2016-06-01T20:27:06Z</time>
      </trkpt>
      <trkpt lat="48.22182" lon="0.00128">
        <ele>176.379</ele>
        <time>2016-06-01T20:26:46Z</time>
      </trkpt>
      <trkpt lat="48.22203" lon="0.0009">
        <ele>178.723</ele>
        <time>2016-06-01T20:26:26Z</time>
      </trkpt>
      <trkpt lat="48.22265" lon="0.00042">
        <ele>175.808</ele>
        <time>2016-06-01T20:26:06Z</time>
      </trkpt>
      <trkpt lat="48.22317" lon="-0.00014">
        <ele>173.415</ele>
        <time>2016-06-01T20:25:46Z</time>
      </trkpt>
      <trkpt lat="48.22375" lon="-0.00125">
        <ele>176.241</ele>
        <time>2016-06-01T20:25:26Z</time>
      </trkpt>
      <trkpt lat="48.22439" lon="-0.00166">
        <ele>180.671</ele>
        <time>2016-06-01T20:25:06Z</time>
      </trkpt>
      <trkpt lat="48.22535" lon="-0.00301">
        <ele>184.244</ele>
        <time>2016-06-01T20:24:46Z</time>
      </trkpt>
      <trkpt lat="48.22578" lon="-0.00344">
        <ele>186.745</ele>
        <time>2016-06-01T20:24:26Z</time>
      </trkpt>
      <trkpt lat="48.22608" lon="-0.00402">
        <ele>186.859</ele>
        <time>2016-06-01T20:24:06Z</time>
      </trkpt>
      <trkpt lat="48.22631" lon="-0.00436">
        <ele>186.037</ele>
        <time>2016-06-01T20:23:46Z</time>
      </trkpt>
      <trkpt lat="48.22688" lon="-0.00516">
        <ele>186.691</ele>
        <time>2016-06-01T20:23:26Z</time>
      </trkpt>
      <trkpt lat="48.22688" lon="-0.00563">
        <ele>186.358</ele>
        <time>2016-06-01T20:23:06Z</time>
      </trkpt>
      <trkpt lat="48.22711" lon="-0.0064">
        <ele>187.063</ele>
        <time>2016-06-01T20:22:46Z</time>
      </trkpt>
      <trkpt lat="48.22728" lon="-0.00621">
        <ele>186.837</ele>
        <time>2016-06-01T20:22:26Z</time>
      </trkpt>
      <trkpt lat="48.22748" lon="-0.00623">
        <ele>186.108</ele>
        <time>2016-06-01T20:22:06Z</time>
      </trkpt>
      <trkpt lat="48.22771" lon="-0.00634">
        <ele>185.315</ele>
        <time>2016-06-01T20:21:46Z</time>
      </trkpt>
      <trkpt lat="48.22981" lon="-0.00758">
        <ele>165.487</ele>
        <time>2016-06-01T20:21:26Z</time>
      </trkpt>
      <trkpt lat="48.23005" lon="-0.00769">
        <ele>164.117</ele>
        <time>2016-06-01T20:21:06Z</time>
      </trkpt>
      <trkpt lat="48.23025" lon="-0.00857">
        <ele>163.189</ele>
        <time>2016-06-01T20:20:46Z</time>
      </trkpt>
      <trkpt lat="48.23038" lon="-0.00968">
        <ele>159.98</ele>
        <time>2016-06-01T20:20:26Z</time>
      </trkpt>
      <trkpt lat="48.23054" lon="-0.01016">
        <ele>158.714</ele>
        <time>2016-06-01T20:20:06Z</time>
      </trkpt>
      <trkpt lat="48.23067" lon="-0.01134">
        <ele>155.562</ele>
        <time>2016-06-01T20:19:46Z</time>
      </trkpt>
      <trkpt lat="48.23058" lon="-0.01269">
        <ele>152.116</ele>
        <time>2016-06-01T20:19:26Z</time>
      </trkpt>
      <trkpt lat="48.23059" lon="-0.0137">
        <ele>146.223</ele>
        <time>2016-06-01T20:19:06Z</time>
      </trkpt>
      <trkpt lat="48.23071" lon="-0.01428">
        <ele>142.848</ele>
        <time>2016-06-01T20:18:46Z</time>
      </trkpt>
      <trkpt lat="48.23068" lon="-0.01509">
        <ele>138.092</ele>
        <time>2016-06-01T20:18:26Z</time>
      </trkpt>
      <trkpt lat="48.23064" lon="-0.01543">
        <ele>139.008</ele>
        <time>2016-06-01T20:18:06Z</time>
      </trkpt>
      <trkpt lat="48.23035" lon="-0.01576">
        <ele>140.718</ele>
        <time>2016-06-01T20:17:46Z</time>
      </trkpt>
      <trkpt lat="48.22935" lon="-0.01636">
        <ele>140.844</ele>
        <time>2016-06-01T20:17:26Z</time>
      </trkpt>
      <trkpt lat="48.22871" lon="-0.01728">
        <ele>139.863</ele>
        <time>2016-06-01T20:17:06Z</time>
      </trkpt>
      <trkpt lat="48.22814" lon="-0.01812">
        <ele>139.366</ele>
        <time>2016-06-01T20:16:46Z</time>
      </trkpt>
      <trkpt lat="48.22769" lon="-0.01848">
        <ele>137.527</ele>
        <time>2016-06-01T20:16:26Z</time>
      </trkpt>
      <trkpt lat="48.22733" lon="-0.01893">
        <ele>135.271</ele>
        <time>2016-06-01T20:16:06Z</time>
      </trkpt>
      <trkpt lat="48.22698" lon="-0.01996">
        <ele>132.239</ele>
        <time>2016-06-01T20:15:46Z</time>
      </trkpt>
      <trkpt lat="48.22643" lon="-0.02033">
        <ele>133.083</ele>
        <time>2016-06-01T20:15:26Z</time>
      </trkpt>
      <trkpt lat="48.22468" lon="-0.02395">
        <ele>152.81</ele>
        <time>2016-06-01T20:15:06Z</time>
      </trkpt>
      <trkpt lat="48.2246" lon="-0.02434">
        <ele>155.625</ele>
        <time>2016-06-01T20:14:46Z</time>
      </trkpt>
      <trkpt lat="48.22446" lon="-0.02533">
        <ele>156.629</ele>
        <time>2016-06-01T20:14:26Z</time>
      </trkpt>
      <trkpt lat="48.22423" lon="-0.02543">
        <ele>155.808</ele>
        <time>2016-06-01T20:14:06Z</time>
      </trkpt>
      <trkpt lat="48.22422" lon="-0.02563">
        <ele>156.413</ele>
        <time>2016-06-01T20:13:46Z</time>
      </trkpt>
      <trkpt lat="48.224" lon="-0.02636">
        <ele>160.649</ele>
        <time>2016-06-01T20:13:26Z</time>
      </trkpt>
      <trkpt lat="48.22393" lon="-0.02685">
        <ele>161.537</ele>
        <time>2020-12-24T06:43:35Z</time>
      </trkpt>
      <trkpt lat="48.22412" lon="-0.0269">
        <ele>162.61</ele>
        <time>2020-12-24T06:43:15Z</time>
      </trkpt>
      <trkpt lat="48.22492" lon="-0.02647">
        <ele>160.941</ele>
        <time>2020-12-24T06:42:55Z</time>
      </trkpt>
      <trkpt lat="48.22524" lon="-0.02858">
        <ele>162.245</ele>
        <time>2020-12-24T06:42:35Z</time>
      </trkpt>
      <trkpt lat="48.22511" lon="-0.02961">
        <ele>164.813</ele>
        <time>2020-12-24T06:42:15Z</time>
      </trkpt>
      <trkpt lat="48.22454" lon="-0.03247">
        <ele>180.177</ele>
        <time>2020-12-24T06:41:55Z</time>
      </trkpt>
      <trkpt lat="48.22718" lon="-0.03388">
        <ele>166.594</ele>
        <time>2020-12-24T06:41:35Z</time>
      </trkpt>
      <trkpt lat="48.2271" lon="-0.03441">
        <ele>168.259</ele>
        <time>2020-12-24T06:41:15Z</time>
      </trkpt>
      <trkpt lat="48.2269" lon="-0.03512">
        <ele>170.453</ele>
        <time>2020-12-24T06:40:55Z</time>
      </trkpt>
      <trkpt lat="48.22691" lon="-0.03573">
        <ele>170.508</ele>
        <time>2020-12-24T06:40:35Z</time>
      </trkpt>
      <trkpt lat="48.22685" lon="-0.03622">
        <ele>170.625</ele>
        <time>2020-12-24T06:40:15Z</time>
      </trkpt>
      <trkpt lat="48.2266" lon="-0.03684">
        <ele>171.605</ele>
        <time>2020-12-24T06:39:55Z</time>
      </trkpt>
      <trkpt lat="48.2261" lon="-0.03742">
        <ele>175.279</ele>
        <time>2020-12-24T06:39:35Z</time>
      </trkpt>
      <trkpt lat="48.22563" lon="-0.03815">
        <ele>177.076</ele>
        <time>2020-12-24T06:39:15Z</time>
      </trkpt>
      <trkpt lat="48.22458" lon="-0.042">
        <ele>178.657</ele>
        <time>2020-12-24T06:38:55Z</time>
      </trkpt>
      <trkpt lat="48.22363" lon="-0.04162">
        <ele>184.441</ele>
        <time>2020-12-24T06:38:35Z</time>
      </trkpt>
      <trkpt lat="48.22299" lon="-0.04214">
        <ele>182.359</ele>
        <time>2020-12-24T06:38:15Z</time>
      </trkpt>
      <trkpt lat="48.2227" lon="-0.04264">
        <ele>180.013</ele>
        <time>2020-12-24T06:37:55Z</time>
      </trkpt>
      <trkpt lat="48.22252" lon="-0.04333">
        <ele>177.14</ele>
        <time>2020-12-24T06:37:35Z</time>
      </trkpt>
      <trkpt lat="48.2218" lon="-0.04455">
        <ele>166.555</ele>
        <time>2020-12-24T06:37:15Z</time>
      </trkpt>
      <trkpt lat="48.22177" lon="-0.04498">
        <ele>164.999</ele>
        <time>2020-12-24T06:36:55Z</time>
      </trkpt>
      <trkpt lat="48.2211" lon="-0.04498">
        <ele>170.108</ele>
        <time>2020-12-24T06:36:35Z</time>
      </trkpt>
      <trkpt lat="48.22084" lon="-0.04567">
        <ele>174.51</ele>
        <time>2020-12-24T06:36:15Z</time>
      </trkpt>
      <trkpt lat="48.22076" lon="-0.04734">
        <ele>179.555</ele>
        <time>2020-12-24T06:35:55Z</time>
      </trkpt>
      <trkpt lat="48.22097" lon="-0.04788">
        <ele>178.034</ele>
        <time>2020-12-24T06:35:35Z</time>
      </trkpt>
      <trkpt lat="48.22109" lon="-0.04854">
        <ele>179.375</ele>
        <time>2020-12-24T06:35:15Z</time>
      </trkpt>
      <trkpt lat="48.22097" lon="-0.0502">
        <ele>182.926</ele>
        <time>2020-12-24T06:34:55Z</time>
      </trkpt>
      <trkpt lat="48.22071" lon="-0.05153">
        <ele>183.62</ele>
        <time>2020-12-24T06:34:35Z</time>
      </trkpt>
      <trkpt lat="48.22037" lon="-0.05201">
        <ele>184.998</ele>
        <time>2020-12-24T06:34:15Z</time>
      </trkpt>
      <trkpt lat="48.22014" lon="-0.05257">
        <ele>186.422</ele>
        <time>2020-12-24T06:33:55Z</time>
      </trkpt>
      <trkpt lat="48.21987" lon="-0.05301">
        <ele>187.739</ele>
        <time>2020-12-24T06:33:35Z</time>
      </trkpt>
      <trkpt lat="48.21951" lon="-0.0541">
        <ele>191.494</ele>
        <time>2020-12-24T06:33:15Z</time>
      </trkpt>
      <trkpt lat="48.21913" lon="-0.05469">
        <ele>189.468</ele>
        <time>2020-12-24T06:32:55Z</time>
      </trkpt>
      <trkpt lat="48.21876" lon="-0.05599">
        <ele>193.608</ele>
        <time>2020-12-24T06:32:35Z</time>
      </trkpt>
      <trkpt lat="48.21823" lon="-0.05757">
        <ele>196.211</ele>
        <time>2020-12-24T06:32:15Z</time>
      </trkpt>
      <trkpt lat="48.21796" lon="-0.05972">
        <ele>199.547</ele>
        <time>2020-12-24T06:31:55Z</time>
      </trkpt>
      <trkpt lat="48.21775" lon="-0.06015">
        <ele>199.326</ele>
        <time>2020-12-24T06:31:35Z</time>
      </trkpt>
      <trkpt lat="48.21742" lon="-0.06118">
        <ele>201.26</ele>
        <time>2020-12-24T06:31:15Z</time>
      </trkpt>
      <trkpt lat="48.21722" lon="-0.06126">
        <ele>202.711</ele>
        <time>2020-12-24T06:30:55Z</time>
      </trkpt>
      <trkpt lat="48.21704" lon="-0.06161">
        <ele>204.515</ele>
        <time>2020-12-24T06:30:35Z</time>
      </trkpt>
      <trkpt lat="48.2157" lon="-0.06249">
        <ele>219.573</ele>
        <time>2020-12-24T06:30:15Z</time>
      </trkpt>
      <trkpt lat="48.21527" lon="-0.06226">
        <ele>223.987</ele>
        <time>2020-12-24T06:29:55Z</time>
      </trkpt>
      <trkpt lat="48.21515" lon="-0.06188">
        <ele>225.194</ele>
        <time>2020-12-24T06:29:35Z</time>
      </trkpt>
      <trkpt lat="48.21481" lon="-0.06191">
        <ele>229.559</ele>
        <time>2020-12-24T06:29:15Z</time>
      </trkpt>
      <trkpt lat="48.2146" lon="-0.06232">
        <ele>231.923</ele>
        <time>2020-12-24T06:28:55Z</time>
      </trkpt>
      <trkpt lat="48.21326" lon="-0.06364">
        <ele>249.308</ele>
        <time>2020-12-24T06:28:35Z</time>
      </trkpt>
      <trkpt lat="48.21024" lon="-0.06211">
        <ele>262.413</ele>
        <time>2020-12-24T06:28:15Z</time>
      </trkpt>
      <trkpt lat="48.20789" lon="-0.07238">
        <ele>267.485</ele>
        <time>2016-06-01T20:07:06Z</time>
      </trkpt>
      <trkpt lat="48.20576" lon="-0.07084">
        <ele>241.273</ele>
        <time>2016-06-01T20:06:46Z</time>
      </trkpt>
      <trkpt lat="48.20545" lon="-0.07112">
        <ele>240.61</ele>
        <time>2016-06-01T20:06:26Z</time>
      </trkpt>
      <trkpt lat="48.20504" lon="-0.07193">
        <ele>245.811</ele>
        <time>2016-06-01T20:06:06Z</time>
      </trkpt>
      <trkpt lat="48.20439" lon="-0.07492">
        <ele>240.695</ele>
        <time>2016-06-01T20:05:46Z</time>
      </trkpt>
      <trkpt lat="48.20506" lon="-0.07519">
        <ele>243.353</ele>
        <time>2016-06-01T20:05:26Z</time>
      </trkpt>
      <trkpt lat="48.20273" lon="-0.07622">
        <ele>223.857</ele>
        <time>2016-06-01T20:05:06Z</time>
      </trkpt>
      <trkpt lat="48.20206" lon="-0.07655">
        <ele>222.544</ele>
        <time>2016-06-01T20:04:46Z</time>
      </trkpt>
      <trkpt lat="48.20134" lon="-0.07629">
        <ele>214.369</ele>
        <time>2016-06-01T20:04:26Z</time>
      </trkpt>
      <trkpt lat="48.20004" lon="-0.07543">
        <ele>193.023</ele>
        <time>2016-06-01T20:04:06Z</time>
      </trkpt>
      <trkpt lat="48.19988" lon="-0.07567">
        <ele>192.508</ele>
        <time>2016-06-01T20:03:46Z</time>
      </trkpt>
      <trkpt lat="48.19937" lon="-0.07698">
        <ele>196.426</ele>
        <time>2016-06-01T20:03:26Z</time>
      </trkpt>
      <trkpt lat="48.19914" lon="-0.07788">
        <ele>197.533</ele>
        <time>2016-06-01T20:03:06Z</time>
      </trkpt>
      <trkpt lat="48.19912" lon="-0.07839">
        <ele>197.678</ele>
        <time>2016-06-01T20:02:46Z</time>
      </trkpt>
      <trkpt lat="48.19898" lon="-0.07959">
        <ele>196.542</ele>
        <time>2016-06-01T20:02:26Z</time>
      </trkpt>
      <trkpt lat="48.19858" lon="-0.0809">
        <ele>186.113</ele>
        <time>2016-06-01T20:02:06Z</time>
      </trkpt>
      <trkpt lat="48.19834" lon="-0.08105">
        <ele>183.837</ele>
        <time>2016-06-01T20:01:46Z</time>
      </trkpt>
      <trkpt lat="48.19778" lon="-0.08219">
        <ele>188.025</ele>
        <time>2016-06-01T20:01:26Z</time>
      </trkpt>
      <trkpt lat="48.19721" lon="-0.08339">
        <ele>194.339</ele>
        <time>2016-06-01T20:01:06Z</time>
      </trkpt>
      <trkpt lat="48.19685" lon="-0.08403">
        <ele>189.786</ele>
        <time>2016-06-01T20:00:46Z</time>
      </trkpt>
      <trkpt lat="48.19651" lon="-0.08436">
        <ele>187.981</ele>
        <time>2016-06-01T20:00:26Z</time>
      </trkpt>
      <trkpt lat="48.19535" lon="-0.08474">
        <ele>180.115</ele>
        <time>2016-06-01T20:00:06Z</time>
      </trkpt>
      <trkpt lat="48.19489" lon="-0.08567">
        <ele>179.208</ele>
        <time>2016-06-01T19:59:46Z</time>
      </trkpt>
      <trkpt lat="48.19455" lon="-0.08601">
        <ele>177.424</ele>
        <time>2016-06-01T19:59:26Z</time>
      </trkpt>
      <trkpt lat="48.19445" lon="-0.08633">
        <ele>177.831</ele>
        <time>2016-06-01T19:59:06Z</time>
      </trkpt>
      <trkpt lat="48.19465" lon="-0.08685">
        <ele>180.896</ele>
        <time>2016-06-01T19:58:46Z</time>
      </trkpt>
      <trkpt lat="48.19455" lon="-0.08852">
        <ele>185.068</ele>
        <time>2016-06-01T19:58:26Z</time>
      </trkpt>
      <trkpt lat="48.19417" lon="-0.08901">
        <ele>184.569</ele>
        <time>2016-06-01T19:58:06Z</time>
      </trkpt>
      <trkpt lat="48.19395" lon="-0.08972">
        <ele>184.223</ele>
        <time>2016-06-01T19:57:46Z</time>
      </trkpt>
      <trkpt lat="48.19389" lon="-0.09013">
        <ele>184.541</ele>
        <time>2016-06-01T19:57:26Z</time>
      </trkpt>
      <trkpt lat="48.19377" lon="-0.09071">
        <ele>186.945</ele>
        <time>2016-06-01T19:57:06Z</time>
      </trkpt>
      <trkpt lat="48.19332" lon="-0.09137">
        <ele>187.992</ele>
        <time>2016-06-01T19:56:46Z</time>
      </trkpt>
      <trkpt lat="48.19406" lon="-0.09208">
        <ele>196.587</ele>
        <time>2016-06-01T19:56:26Z</time>
      </trkpt>
      <trkpt lat="48.19468" lon="-0.09225">
        <ele>206.351</ele>
        <time>2016-06-01T19:56:06Z</time>
      </trkpt>
      <trkpt lat="48.1951" lon="-0.09174">
        <ele>209.008</ele>
        <time>2016-06-01T19:55:46Z</time>
      </trkpt>
      <trkpt lat="48.19582" lon="-0.09124">
        <ele>219.211</ele>
        <time>2016-06-01T19:55:26Z</time>
      </trkpt>
      <trkpt lat="48.19641" lon="-0.09112">
        <ele>228.301</ele>
        <time>2016-06-01T19:55:06Z</time>
      </trkpt>
      <trkpt lat="48.19689" lon="-0.09146">
        <ele>236.951</ele>
        <time>2016-06-01T19:54:46Z</time>
      </trkpt>
      <trkpt lat="48.19685" lon="-0.09212">
        <ele>241.174</ele>
        <time>2016-06-01T19:54:26Z</time>
      </trkpt>
      <trkpt lat="48.19689" lon="-0.0927">
        <ele>246.665</ele>
        <time>2016-06-01T19:54:06Z</time>
      </trkpt>
      <trkpt lat="48.19744" lon="-0.09382">
        <ele>262.779</ele>
        <time>2016-06-01T19:53:46Z</time>
      </trkpt>
      <trkpt lat="48.19761" lon="-0.09433">
        <ele>264.917</ele>
        <time>2016-06-01T19:53:26Z</time>
      </trkpt>
      <trkpt lat="48.19754" lon="-0.09429">
        <ele>265.081</ele>
        <time>2016-06-01T19:53:06Z</time>
      </trkpt>
      <trkpt lat="48.19711" lon="-0.09421">
        <ele>262.318</ele>
        <time>2016-06-01T19:52:46Z</time>
      </trkpt>
      <trkpt lat="48.19654" lon="-0.09436">
        <ele>254.843</ele>
        <time>2016-06-01T19:52:26Z</time>
      </trkpt>
      <trkpt lat="48.19515" lon="-0.09442">
        <ele>236.477</ele>
        <time>2016-06-01T19:52:06Z</time>
      </trkpt>
      <trkpt lat="48.19466" lon="-0.09418">
        <ele>227.208</ele>
        <time>2016-06-01T19:51:46Z</time>
      </trkpt>
      <trkpt lat="48.19416" lon="-0.09401">
        <ele>214.607</ele>
        <time>2016-06-01T19:51:26Z</time>
      </trkpt>
      <trkpt lat="48.1937" lon="-0.09444">
        <ele>206.943</ele>
        <time>2016-06-01T19:51:06Z</time>
      </trkpt>
      <trkpt lat="48.19292" lon="-0.09588">
        <ele>202.313</ele>
        <time>2016-06-01T19:50:46Z</time>
      </trkpt>
      <trkpt lat="48.19247" lon="-0.0976">
        <ele>202.947</ele>
        <time>2020-12-24T06:11:15Z</time>
      </trkpt>
      <trkpt lat="48.19233" lon="-0.09775">
        <ele>200.818</ele>
        <time>2020-12-24T06:10:55Z</time>
      </trkpt>
      <trkpt lat="48.19236" lon="-0.09897">
        <ele>203.522</ele>
        <time>2020-12-24T06:10:35Z</time>
      </trkpt>
      <trkpt lat="48.19256" lon="-0.09929">
        <ele>207.28</ele>
        <time>2020-12-24T06:10:15Z</time>
      </trkpt>
      <trkpt lat="48.19269" lon="-0.09977">
        <ele>207.994</ele>
        <time>2020-12-24T06:09:55Z</time>
      </trkpt>
      <trkpt lat="48.19344" lon="-0.10122">
        <ele>215.151</ele>
        <time>2020-12-24T06:09:35Z</time>
      </trkpt>
      <trkpt lat="48.1938" lon="-0.10178">
        <ele>215.826</ele>
        <time>2020-12-24T06:09:15Z</time>
      </trkpt>
      <trkpt lat="48.19392" lon="-0.10232">
        <ele>214.95</ele>
        <time>2020-12-24T06:08:55Z</time>
      </trkpt>
      <trkpt lat="48.19323" lon="-0.10225">
        <ele>222.008</ele>
        <time>2020-12-24T06:08:35Z</time>
      </trkpt>
      <trkpt lat="48.19316" lon="-0.10401">
        <ele>240.016</ele>
        <time>2016-06-01T19:46:46Z</time>
      </trkpt>
      <trkpt lat="48.19332" lon="-0.10485">
        <ele>247.888</ele>
        <time>2016-06-01T19:46:26Z</time>
      </trkpt>
      <trkpt lat="48.19337" lon="-0.10556">
        <ele>251.446</ele>
        <time>2016-06-01T19:46:06Z</time>
      </trkpt>
      <trkpt lat="48.19307" lon="-0.10629">
        <ele>253.96</ele>
        <time>2016-06-01T19:45:46Z</time>
      </trkpt>
      <trkpt lat="48.19286" lon="-0.10706">
        <ele>253.781</ele>
        <time>2016-06-01T19:45:26Z</time>
      </trkpt>
      <trkpt lat="48.1923" lon="-0.10794">
        <ele>253.345</ele>
        <time>2016-06-01T19:45:06Z</time>
      </trkpt>
      <trkpt lat="48.19264" lon="-0.108">
        <ele>250.373</ele>
        <time>2016-06-01T19:44:46Z</time>
      </trkpt>
      <trkpt lat="48.19326" lon="-0.10837">
        <ele>244.687</ele>
        <time>2016-06-01T19:44:26Z</time>
      </trkpt>
      <trkpt lat="48.19407" lon="-0.10869">
        <ele>246.734</ele>
        <time>2016-06-01T19:44:06Z</time>
      </trkpt>
      <trkpt lat="48.19468" lon="-0.10938">
        <ele>250.559</ele>
        <time>2016-06-01T19:43:46Z</time>
      </trkpt>
      <trkpt lat="48.19498" lon="-0.10955">
        <ele>252.893</ele>
        <time>2016-06-01T19:43:26Z</time>
      </trkpt>
      <trkpt lat="48.19541" lon="-0.10987">
        <ele>254.708</ele>
        <time>2016-06-01T19:43:06Z</time>
      </trkpt>
      <trkpt lat="48.19592" lon="-0.11019">
        <ele>255.82</ele>
        <time>2016-06-01T19:42:46Z</time>
      </trkpt>
      <trkpt lat="48.19645" lon="-0.11038">
        <ele>257.028</ele>
        <time>2016-06-01T19:42:26Z</time>
      </trkpt>
      <trkpt lat="48.19666" lon="-0.11051">
        <ele>257.075</ele>
        <time>2016-06-01T19:42:06Z</time>
      </trkpt>
      <trkpt lat="48.19679" lon="-0.11077">
        <ele>257.052</ele>
        <time>2016-06-01T19:41:46Z</time>
      </trkpt>
      <trkpt lat="48.19791" lon="-0.10981">
        <ele>261.653</ele>
        <time>2016-06-01T19:41:26Z</time>
      </trkpt>
      <trkpt lat="48.19864" lon="-0.11051">
        <ele>263.297</ele>
        <time>2016-06-01T19:41:06Z</time>
      </trkpt>
      <trkpt lat="48.19954" lon="-0.1112">
        <ele>264.855</ele>
        <time>2016-06-01T19:40:46Z</time>
      </trkpt>
      <trkpt lat="48.2" lon="-0.11146">
        <ele>267.099</ele>
        <time>2016-06-01T19:40:26Z</time>
      </trkpt>
      <trkpt lat="48.2003" lon="-0.11163">
        <ele>268.236</ele>
        <time>2016-06-01T19:40:06Z</time>
      </trkpt>
      <trkpt lat="48.20043" lon="-0.11217">
        <ele>270.011</ele>
        <time>2016-06-01T19:39:46Z</time>
      </trkpt>
      <trkpt lat="48.20133" lon="-0.11277">
        <ele>274.095</ele>
        <time>2016-06-01T19:39:26Z</time>
      </trkpt>
      <trkpt lat="48.20181" lon="-0.11352">
        <ele>275.708</ele>
        <time>2016-06-01T19:39:06Z</time>
      </trkpt>
      <trkpt lat="48.20218" lon="-0.1138">
        <ele>280.421</ele>
        <time>2016-06-01T19:38:46Z</time>
      </trkpt>
      <trkpt lat="48.20364" lon="-0.11515">
        <ele>263.165</ele>
        <time>2016-06-01T19:38:26Z</time>
      </trkpt>
      <trkpt lat="48.20264" lon="-0.11757">
        <ele>261.693</ele>
        <time>2016-06-01T19:38:06Z</time>
      </trkpt>
      <trkpt lat="48.20228" lon="-0.11837">
        <ele>257.619</ele>
        <time>2016-06-01T19:37:46Z</time>
      </trkpt>
      <trkpt lat="48.20178" lon="-0.1188">
        <ele>261.98</ele>
        <time>2016-06-01T19:37:26Z</time>
      </trkpt>
      <trkpt lat="48.20118" lon="-0.11946">
        <ele>265.614</ele>
        <time>2016-06-01T19:37:06Z</time>
      </trkpt>
      <trkpt lat="48.20138" lon="-0.11961">
        <ele>263.272</ele>
        <time>2016-06-01T19:36:46Z</time>
      </trkpt>
      <trkpt lat="48.20154" lon="-0.12032">
        <ele>256.876</ele>
        <time>2016-06-01T19:36:26Z</time>
      </trkpt>
      <trkpt lat="48.20193" lon="-0.12071">
        <ele>258.263</ele>
        <time>2016-06-01T19:36:06Z</time>
      </trkpt>
      <trkpt lat="48.20218" lon="-0.12154">
        <ele>255.648</ele>
        <time>2016-06-01T19:35:46Z</time>
      </trkpt>
      <trkpt lat="48.20213" lon="-0.12201">
        <ele>252.472</ele>
        <time>2016-06-01T19:35:26Z</time>
      </trkpt>
      <trkpt lat="48.2018" lon="-0.12212">
        <ele>250.608</ele>
        <time>2016-06-01T19:35:06Z</time>
      </trkpt>
      <trkpt lat="48.20148" lon="-0.1224">
        <ele>248.711</ele>
        <time>2016-06-01T19:34:46Z</time>
      </trkpt>
      <trkpt lat="48.20166" lon="-0.12646">
        <ele>249.183</ele>
        <time>2016-06-01T19:34:26Z</time>
      </trkpt>
      <trkpt lat="48.20326" lon="-0.1274">
        <ele>240.062</ele>
        <time>2016-06-01T19:34:06Z</time>
      </trkpt>
      <trkpt lat="48.20357" lon="-0.12753">
        <ele>237.39</ele>
        <time>2016-06-01T19:33:46Z</time>
      </trkpt>
      <trkpt lat="48.20337" lon="-0.12875">
        <ele>240.131</ele>
        <time>2016-06-01T19:33:26Z</time>
      </trkpt>
      <trkpt lat="48.20347" lon="-0.12918">
        <ele>238.045</ele>
        <time>2016-06-01T19:33:06Z</time>
      </trkpt>
      <trkpt lat="48.2034" lon="-0.12946">
        <ele>237.943</ele>
        <time>2016-06-01T19:32:46Z</time>
      </trkpt>
      <trkpt lat="48.20196" lon="-0.13116">
        <ele>239.667</ele>
        <time>2016-06-01T19:32:26Z</time>
      </trkpt>
      <trkpt lat="48.20163" lon="-0.13191">
        <ele>235.984</ele>
        <time>2016-06-01T19:32:06Z</time>
      </trkpt>
      <trkpt lat="48.20163" lon="-0.13201">
        <ele>235.259</ele>
        <time>2016-06-01T19:31:46Z</time>
      </trkpt>
      <trkpt lat="48.20186" lon="-0.13257">
        <ele>234.083</ele>
        <time>2016-06-01T19:31:26Z</time>
      </trkpt>
      <trkpt lat="48.20223" lon="-0.13317">
        <ele>233.008</ele>
        <time>2016-06-01T19:31:06Z</time>
      </trkpt>
      <trkpt lat="48.20296" lon="-0.13369">
        <ele>235.925</ele>
        <time>2016-06-01T19:30:46Z</time>
      </trkpt>
      <trkpt lat="48.2032" lon="-0.13371">
        <ele>239.905</ele>
        <time>2016-06-01T19:30:26Z</time>
      </trkpt>
      <trkpt lat="48.2032" lon="-0.13371">
        <ele>239.979</ele>
        <time>2016-06-01T19:30:06Z</time>
      </trkpt>
      <trkpt lat="48.2032" lon="-0.13362">
        <ele>239.635</ele>
        <time>2016-06-01T19:29:46Z</time>
      </trkpt>
      <trkpt lat="48.2037" lon="-0.13208">
        <ele>237.616</ele>
        <time>2016-06-01T19:29:26Z</time>
      </trkpt>
      <trkpt lat="48.20429" lon="-0.13137">
        <ele>237.43</ele>
        <time>2016-06-01T19:29:06Z</time>
      </trkpt>
      <trkpt lat="48.20452" lon="-0.1309">
        <ele>232.748</ele>
        <time>2016-06-01T19:28:46Z</time>
      </trkpt>
      <trkpt lat="48.20503" lon="-0.13049">
        <ele>234.072</ele>
        <time>2016-06-01T19:28:26Z</time>
      </trkpt>
      <trkpt lat="48.20536" lon="-0.13051">
        <ele>236.329</ele>
        <time>2016-06-01T19:28:06Z</time>
      </trkpt>
      <trkpt lat="48.2058" lon="-0.13051">
        <ele>237.744</ele>
        <time>2016-06-01T19:27:46Z</time>
      </trkpt>
      <trkpt lat="48.20637" lon="-0.13047">
        <ele>234.968</ele>
        <time>2016-06-01T19:27:26Z</time>
      </trkpt>
      <trkpt lat="48.2069" lon="-0.13086">
        <ele>242.108</ele>
        <time>2016-06-01T19:27:06Z</time>
      </trkpt>
      <trkpt lat="48.20715" lon="-0.13133">
        <ele>242.914</ele>
        <time>2016-06-01T19:26:46Z</time>
      </trkpt>
      <trkpt lat="48.20746" lon="-0.13152">
        <ele>244.804</ele>
        <time>2016-06-01T19:26:26Z</time>
      </trkpt>
      <trkpt lat="48.20786" lon="-0.13197">
        <ele>245.324</ele>
        <time>2016-06-01T19:26:06Z</time>
      </trkpt>
      <trkpt lat="48.20853" lon="-0.13292">
        <ele>245.685</ele>
        <time>2016-06-01T19:25:46Z</time>
      </trkpt>
      <trkpt lat="48.20896" lon="-0.13354">
        <ele>242.516</ele>
        <time>2016-06-01T19:25:26Z</time>
      </trkpt>
      <trkpt lat="48.20895" lon="-0.13382">
        <ele>242.23</ele>
        <time>2016-06-01T19:25:06Z</time>
      </trkpt>
      <trkpt lat="48.20995" lon="-0.13403">
        <ele>231.628</ele>
        <time>2016-06-01T19:24:46Z</time>
      </trkpt>
      <trkpt lat="48.21041" lon="-0.13371">
        <ele>229.042</ele>
        <time>2016-06-01T19:24:26Z</time>
      </trkpt>
      <trkpt lat="48.21115" lon="-0.1333">
        <ele>229.129</ele>
        <time>2016-06-01T19:24:06Z</time>
      </trkpt>
      <trkpt lat="48.21222" lon="-0.1327">
        <ele>234.714</ele>
        <time>2016-06-01T19:23:46Z</time>
      </trkpt>
      <trkpt lat="48.21277" lon="-0.13223">
        <ele>237.058</ele>
        <time>2016-06-01T19:23:26Z</time>
      </trkpt>
      <trkpt lat="48.2129" lon="-0.13214">
        <ele>238.608</ele>
        <time>2016-06-01T19:23:06Z</time>
      </trkpt>
      <trkpt lat="48.213" lon="-0.1312">
        <ele>236.014</ele>
        <time>2016-06-01T19:22:46Z</time>
      </trkpt>
      <trkpt lat="48.21414" lon="-0.13201">
        <ele>244.704</ele>
        <time>2016-06-01T19:22:26Z</time>
      </trkpt>
      <trkpt lat="48.21676" lon="-0.12317">
        <ele>244.324</ele>
        <time>2016-06-01T19:22:06Z</time>
      </trkpt>
      <trkpt lat="48.21601" lon="-0.12277">
        <ele>244.219</ele>
        <time>2016-06-01T19:21:46Z</time>
      </trkpt>
      <trkpt lat="48.21608" lon="-0.1227">
        <ele>244.27</ele>
        <time>2016-06-01T19:21:26Z</time>
      </trkpt>
      <trkpt lat="48.21876" lon="-0.11867">
        <ele>241.664</ele>
        <time>2016-06-01T19:21:06Z</time>
      </trkpt>
      <trkpt lat="48.21889" lon="-0.11867">
        <ele>242.082</ele>
        <time>2016-06-01T19:20:46Z</time>
      </trkpt>
      <trkpt lat="48.21903" lon="-0.11847">
        <ele>242.366</ele>
        <time>2016-06-01T19:20:26Z</time>
      </trkpt>
      <trkpt lat="48.22007" lon="-0.11774">
        <ele>245.873</ele>
        <time>2016-06-01T19:20:06Z</time>
      </trkpt>
      <trkpt lat="48.2203" lon="-0.11744">
        <ele>244.968</ele>
        <time>2016-06-01T19:19:46Z</time>
      </trkpt>
      <trkpt lat="48.22063" lon="-0.11725">
        <ele>244.022</ele>
        <time>2016-06-01T19:19:26Z</time>
      </trkpt>
      <trkpt lat="48.221" lon="-0.11669">
        <ele>242.108</ele>
        <time>2016-06-01T19:19:06Z</time>
      </trkpt>
      <trkpt lat="48.22146" lon="-0.11599">
        <ele>241.313</ele>
        <time>2016-06-01T19:18:46Z</time>
      </trkpt>
      <trkpt lat="48.22166" lon="-0.11564">
        <ele>239.321</ele>
        <time>2016-06-01T19:18:26Z</time>
      </trkpt>
      <trkpt lat="48.22172" lon="-0.11493">
        <ele>234.361</ele>
        <time>2016-06-01T19:18:06Z</time>
      </trkpt>
      <trkpt lat="48.22187" lon="-0.11472">
        <ele>231.599</ele>
        <time>2016-06-01T19:17:46Z</time>
      </trkpt>
      <trkpt lat="48.22196" lon="-0.11427">
        <ele>228.16</ele>
        <time>2016-06-01T19:17:26Z</time>
      </trkpt>
      <trkpt lat="48.22237" lon="-0.11317">
        <ele>220.474</ele>
        <time>2016-06-01T19:17:06Z</time>
      </trkpt>
      <trkpt lat="48.22205" lon="-0.11277">
        <ele>223.292</ele>
        <time>2016-06-01T19:16:46Z</time>
      </trkpt>
      <trkpt lat="48.22072" lon="-0.11159">
        <ele>222.466</ele>
        <time>2016-06-01T19:16:26Z</time>
      </trkpt>
      <trkpt lat="48.22013" lon="-0.11099">
        <ele>213.943</ele>
        <time>2016-06-01T19:16:06Z</time>
      </trkpt>
      <trkpt lat="48.21986" lon="-0.11056">
        <ele>212.568</ele>
        <time>2016-06-01T19:15:46Z</time>
      </trkpt>
      <trkpt lat="48.2193" lon="-0.1103">
        <ele>213.972</ele>
        <time>2016-06-01T19:15:26Z</time>
      </trkpt>
      <trkpt lat="48.21984" lon="-0.10948">
        <ele>213.708</ele>
        <time>2016-06-01T19:15:06Z</time>
      </trkpt>
      <trkpt lat="48.22053" lon="-0.10847">
        <ele>209.321</ele>
        <time>2016-06-01T19:14:46Z</time>
      </trkpt>
      <trkpt lat="48.22094" lon="-0.10826">
        <ele>206.929</ele>
        <time>2016-06-01T19:14:26Z</time>
      </trkpt>
      <trkpt lat="48.22116" lon="-0.10822">
        <ele>205.966</ele>
        <time>2016-06-01T19:14:06Z</time>
      </trkpt>
      <trkpt lat="48.22207" lon="-0.1082">
        <ele>201.364</ele>
        <time>2016-06-01T19:13:46Z</time>
      </trkpt>
      <trkpt lat="48.22376" lon="-0.10931">
        <ele>209.935</ele>
        <time>2016-06-01T19:13:26Z</time>
      </trkpt>
      <trkpt lat="48.22386" lon="-0.10908">
        <ele>215.819</ele>
        <time>2016-06-01T19:13:06Z</time>
      </trkpt>
      <trkpt lat="48.2245" lon="-0.10665">
        <ele>237.537</ele>
        <time>2016-06-01T19:12:46Z</time>
      </trkpt>
      <trkpt lat="48.22668" lon="-0.10807">
        <ele>230.091</ele>
        <time>2016-06-01T19:12:26Z</time>
      </trkpt>
      <trkpt lat="48.22693" lon="-0.10817">
        <ele>229.658</ele>
        <time>2016-06-01T19:12:06Z</time>
      </trkpt>
      <trkpt lat="48.22989" lon="-0.11006">
        <ele>194.473</ele>
        <time>2016-06-01T19:11:46Z</time>
      </trkpt>
      <trkpt lat="48.23034" lon="-0.10858">
        <ele>190.637</ele>
        <time>2016-06-01T19:11:26Z</time>
      </trkpt>
      <trkpt lat="48.23179" lon="-0.10865">
        <ele>171.408</ele>
        <time>2016-06-01T19:11:06Z</time>
      </trkpt>
      <trkpt lat="48.23254" lon="-0.10912">
        <ele>165.211</ele>
        <time>2016-06-01T19:10:46Z</time>
      </trkpt>
      <trkpt lat="48.23285" lon="-0.10961">
        <ele>161.065</ele>
        <time>2016-06-01T19:10:26Z</time>
      </trkpt>
      <trkpt lat="48.23321" lon="-0.11013">
        <ele>153.115</ele>
        <time>2016-06-01T19:10:06Z</time>
      </trkpt>
      <trkpt lat="48.23352" lon="-0.11034">
        <ele>149.694</ele>
        <time>2016-06-01T19:09:46Z</time>
      </trkpt>
      <trkpt lat="48.23397" lon="-0.11075">
        <ele>149.595</ele>
        <time>2016-06-01T19:09:26Z</time>
      </trkpt>
      <trkpt lat="48.23454" lon="-0.11135">
        <ele>151.239</ele>
        <time>2016-06-01T19:09:06Z</time>
      </trkpt>
      <trkpt lat="48.2343" lon="-0.11195">
        <ele>153.047</ele>
        <time>2016-06-01T19:08:46Z</time>
      </trkpt>
      <trkpt lat="48.23468" lon="-0.11195">
        <ele>153.011</ele>
        <time>2016-06-01T19:08:26Z</time>
      </trkpt>
      <trkpt lat="48.23517" lon="-0.11232">
        <ele>156.338</ele>
        <time>2016-06-01T19:08:06Z</time>
      </trkpt>
      <trkpt lat="48.23547" lon="-0.11223">
        <ele>158.473</ele>
        <time>2016-06-01T19:07:46Z</time>
      </trkpt>
      <trkpt lat="48.23564" lon="-0.11206">
        <ele>158.977</ele>
        <time>2016-06-01T19:07:26Z</time>
      </trkpt>
      <trkpt lat="48.23593" lon="-0.11253">
        <ele>162.208</ele>
        <time>2016-06-01T19:07:06Z</time>
      </trkpt>
      <trkpt lat="48.23644" lon="-0.11315">
        <ele>168.203</ele>
        <time>2016-06-01T19:06:46Z</time>
      </trkpt>
      <trkpt lat="48.23654" lon="-0.11345">
        <ele>168.821</ele>
        <time>2016-06-01T19:06:26Z</time>
      </trkpt>
      <trkpt lat="48.23717" lon="-0.11438">
        <ele>177.911</ele>
        <time>2016-06-01T19:06:06Z</time>
      </trkpt>
      <trkpt lat="48.23765" lon="-0.11472">
        <ele>182.134</ele>
        <time>2016-06-01T19:05:46Z</time>
      </trkpt>
      <trkpt lat="48.23815" lon="-0.11493">
        <ele>186.885</ele>
        <time>2016-06-01T19:05:26Z</time>
      </trkpt>
      <trkpt lat="48.23853" lon="-0.11528">
        <ele>187.739</ele>
        <time>2016-06-01T19:05:06Z</time>
      </trkpt>
      <trkpt lat="48.2391" lon="-0.11586">
        <ele>194.477</ele>
        <time>2016-06-01T19:04:46Z</time>
      </trkpt>
      <trkpt lat="48.2397" lon="-0.11622">
        <ele>201.641</ele>
        <time>2016-06-01T19:04:26Z</time>
      </trkpt>
      <trkpt lat="48.23993" lon="-0.11592">
        <ele>204.538</ele>
        <time>2016-06-01T19:04:06Z</time>
      </trkpt>
      <trkpt lat="48.24041" lon="-0.11549">
        <ele>213.433</ele>
        <time>2016-06-01T19:03:46Z</time>
      </trkpt>
      <trkpt lat="48.24086" lon="-0.11476">
        <ele>218.427</ele>
        <time>2016-06-01T19:03:26Z</time>
      </trkpt>
      <trkpt lat="48.24124" lon="-0.11354">
        <ele>223.708</ele>
        <time>2016-06-01T19:03:06Z</time>
      </trkpt>
      <trkpt lat="48.24144" lon="-0.11292">
        <ele>221.203</ele>
        <time>2016-06-01T19:02:46Z</time>
      </trkpt>
      <trkpt lat="48.24178" lon="-0.11197">
        <ele>218.521</ele>
        <time>2016-06-01T19:02:26Z</time>
      </trkpt>
      <trkpt lat="48.24207" lon="-0.11105">
        <ele>218.811</ele>
        <time>2016-06-01T19:02:06Z</time>
      </trkpt>
      <trkpt lat="48.24224" lon="-0.11066">
        <ele>217.588</ele>
        <time>2016-06-01T19:01:46Z</time>
      </trkpt>
      <trkpt lat="48.24257" lon="-0.11032">
        <ele>217.429</ele>
        <time>2016-06-01T19:01:26Z</time>
      </trkpt>
      <trkpt lat="48.2426" lon="-0.11019">
        <ele>217.033</ele>
        <time>2016-06-01T19:01:06Z</time>
      </trkpt>
      <trkpt lat="48.2426" lon="-0.10955">
        <ele>214.821</ele>
        <time>2016-06-01T19:00:46Z</time>
      </trkpt>
      <trkpt lat="48.24268" lon="-0.10905">
        <ele>215.275</ele>
        <time>2016-06-01T19:00:26Z</time>
      </trkpt>
      <trkpt lat="48.24286" lon="-0.10867">
        <ele>214.262</ele>
        <time>2016-06-01T19:00:06Z</time>
      </trkpt>
      <trkpt lat="48.24317" lon="-0.10817">
        <ele>212.797</ele>
        <time>2016-06-01T18:59:46Z</time>
      </trkpt>
      <trkpt lat="48.2434" lon="-0.10772">
        <ele>212.061</ele>
        <time>2016-06-01T18:59:26Z</time>
      </trkpt>
      <trkpt lat="48.24359" lon="-0.10762">
        <ele>211.808</ele>
        <time>2016-06-01T18:59:06Z</time>
      </trkpt>
      <trkpt lat="48.24389" lon="-0.10802">
        <ele>212.92</ele>
        <time>2016-06-01T18:58:46Z</time>
      </trkpt>
      <trkpt lat="48.24411" lon="-0.10805">
        <ele>212.2</ele>
        <time>2016-06-01T18:58:26Z</time>
      </trkpt>
      <trkpt lat="48.24427" lon="-0.10828">
        <ele>211.257</ele>
        <time>2016-06-01T18:58:06Z</time>
      </trkpt>
      <trkpt lat="48.24444" lon="-0.10861">
        <ele>208.928</ele>
        <time>2020-12-24T05:19:15Z</time>
      </trkpt>
      <trkpt lat="48.24474" lon="-0.10898">
        <ele>206.139</ele>
        <time>2020-12-24T05:18:55Z</time>
      </trkpt>
      <trkpt lat="48.24515" lon="-0.10756">
        <ele>201.593</ele>
        <time>2020-12-24T05:18:35Z</time>
      </trkpt>
      <trkpt lat="48.24532" lon="-0.10746">
        <ele>200.781</ele>
        <time>2020-12-24T05:18:15Z</time>
      </trkpt>
      <trkpt lat="48.24557" lon="-0.10639">
        <ele>196.625</ele>
        <time>2020-12-24T05:17:55Z</time>
      </trkpt>
      <trkpt lat="48.24642" lon="-0.10671">
        <ele>197.452</ele>
        <time>2020-12-24T05:17:35Z</time>
      </trkpt>
      <trkpt lat="48.2467" lon="-0.10713">
        <ele>197.927</ele>
        <time>2020-12-24T05:17:15Z</time>
      </trkpt>
      <trkpt lat="48.24665" lon="-0.10802">
        <ele>200.351</ele>
        <time>2020-12-24T05:16:55Z</time>
      </trkpt>
      <trkpt lat="48.24641" lon="-0.10832">
        <ele>201.308</ele>
        <time>2020-12-24T05:16:35Z</time>
      </trkpt>
      <trkpt lat="48.24613" lon="-0.10935">
        <ele>202.617</ele>
        <time>2020-12-24T05:16:15Z</time>
      </trkpt>
      <trkpt lat="48.24558" lon="-0.11167">
        <ele>201.607</ele>
        <time>2020-12-24T05:15:55Z</time>
      </trkpt>
      <trkpt lat="48.24575" lon="-0.11307">
        <ele>195.655</ele>
        <time>2020-12-24T05:15:35Z</time>
      </trkpt>
      <trkpt lat="48.24752" lon="-0.11312">
        <ele>189.32</ele>
        <time>2020-12-24T05:15:15Z</time>
      </trkpt>
      <trkpt lat="48.24883" lon="-0.11305">
        <ele>190.071</ele>
        <time>2020-12-24T05:14:55Z</time>
      </trkpt>
      <trkpt lat="48.25036" lon="-0.1128">
        <ele>186.365</ele>
        <time>2020-12-24T05:14:35Z</time>
      </trkpt>
      <trkpt lat="48.25065" lon="-0.11221">
        <ele>184.013</ele>
        <time>2016-06-01T23:10:35Z</time>
      </trkpt>
      <trkpt lat="48.25132" lon="-0.11277">
        <ele>183.017</ele>
        <time>2016-06-01T23:10:15Z</time>
      </trkpt>
      <trkpt lat="48.25198" lon="-0.11386">
        <ele>178.734</ele>
        <time>2016-06-01T23:09:55Z</time>
      </trkpt>
      <trkpt lat="48.25233" lon="-0.11384">
        <ele>176.149</ele>
        <time>2016-06-01T23:09:35Z</time>
      </trkpt>
      <trkpt lat="48.25259" lon="-0.11399">
        <ele>174.153</ele>
        <time>2016-06-01T23:09:15Z</time>
      </trkpt>
      <trkpt lat="48.25358" lon="-0.1147">
        <ele>166.008</ele>
        <time>2016-06-01T23:08:55Z</time>
      </trkpt>
      <trkpt lat="48.254" lon="-0.11464">
        <ele>164.619</ele>
        <time>2016-06-01T23:08:35Z</time>
      </trkpt>
      <trkpt lat="48.2543" lon="-0.11472">
        <ele>163.09</ele>
        <time>2016-06-01T23:08:15Z</time>
      </trkpt>
      <trkpt lat="48.25476" lon="-0.11483">
        <ele>162.876</ele>
        <time>2016-06-01T23:07:55Z</time>
      </trkpt>
      <trkpt lat="48.25509" lon="-0.11498">
        <ele>162.185</ele>
        <time>2016-06-01T23:07:35Z</time>
      </trkpt>
      <trkpt lat="48.2561" lon="-0.11588">
        <ele>157.796</ele>
        <time>2016-06-01T23:07:15Z</time>
      </trkpt>
      <trkpt lat="48.25775" lon="-0.11783">
        <ele>141.77</ele>
        <time>2016-06-01T23:06:55Z</time>
      </trkpt>
      <trkpt lat="48.25819" lon="-0.11807">
        <ele>133.098</ele>
        <time>2016-06-01T23:06:35Z</time>
      </trkpt>
      <trkpt lat="48.25848" lon="-0.11775">
        <ele>127.842</ele>
        <time>2016-06-01T23:06:15Z</time>
      </trkpt>
      <trkpt lat="48.25852" lon="-0.11736">
        <ele>126.389</ele>
        <time>2016-06-01T23:05:55Z</time>
      </trkpt>
      <trkpt lat="48.25902" lon="-0.11652">
        <ele>118.414</ele>
        <time>2016-06-01T23:05:35Z</time>
      </trkpt>
      <trkpt lat="48.25925" lon="-0.11646">
        <ele>112.758</ele>
        <time>2016-06-01T23:05:15Z</time>
      </trkpt>
      <trkpt lat="48.2594" lon="-0.11687">
        <ele>110.408</ele>
        <time>2016-06-01T23:04:55Z</time>
      </trkpt>
      <trkpt lat="48.25985" lon="-0.11708">
        <ele>112.808</ele>
        <time>2016-06-01T23:04:35Z</time>
      </trkpt>
      <trkpt lat="48.25978" lon="-0.11755">
        <ele>112.362</ele>
        <time>2016-06-01T23:04:15Z</time>
      </trkpt>
      <trkpt lat="48.25992" lon="-0.11841">
        <ele>117.622</ele>
        <time>2016-06-01T23:03:55Z</time>
      </trkpt>
      <trkpt lat="48.26005" lon="-0.11931">
        <ele>119.881</ele>
        <time>2016-06-01T23:03:35Z</time>
      </trkpt>
      <trkpt lat="48.25996" lon="-0.12004">
        <ele>121.022</ele>
        <time>2016-06-01T23:03:15Z</time>
      </trkpt>
      <trkpt lat="48.26" lon="-0.12116">
        <ele>119.166</ele>
        <time>2016-06-01T23:02:55Z</time>
      </trkpt>
      <trkpt lat="48.26015" lon="-0.1215">
        <ele>120.884</ele>
        <time>2016-06-01T23:02:35Z</time>
      </trkpt>
      <trkpt lat="48.26055" lon="-0.1217">
        <ele>123.998</ele>
        <time>2016-06-01T23:02:15Z</time>
      </trkpt>
      <trkpt lat="48.26108" lon="-0.1221">
        <ele>128.185</ele>
        <time>2016-06-01T23:01:55Z</time>
      </trkpt>
      <trkpt lat="48.26183" lon="-0.1227">
        <ele>139.18</ele>
        <time>2016-06-01T23:01:35Z</time>
      </trkpt>
      <trkpt lat="48.26216" lon="-0.12281">
        <ele>141.674</ele>
        <time>2016-06-01T23:01:15Z</time>
      </trkpt>
      <trkpt lat="48.26259" lon="-0.12266">
        <ele>145.008</ele>
        <time>2016-06-01T23:00:55Z</time>
      </trkpt>
      <trkpt lat="48.26336" lon="-0.12277">
        <ele>150.226</ele>
        <time>2016-06-01T23:00:35Z</time>
      </trkpt>
      <trkpt lat="48.26389" lon="-0.12322">
        <ele>150.842</ele>
        <time>2016-06-01T23:00:15Z</time>
      </trkpt>
      <trkpt lat="48.26436" lon="-0.12339">
        <ele>147.887</ele>
        <time>2016-06-01T22:59:55Z</time>
      </trkpt>
      <trkpt lat="48.26533" lon="-0.12279">
        <ele>148.77</ele>
        <time>2016-06-01T22:59:35Z</time>
      </trkpt>
      <trkpt lat="48.26553" lon="-0.12247">
        <ele>150.741</ele>
        <time>2016-06-01T22:59:15Z</time>
      </trkpt>
      <trkpt lat="48.26673" lon="-0.12009">
        <ele>155.565</ele>
        <time>2016-06-01T22:58:55Z</time>
      </trkpt>
      <trkpt lat="48.26887" lon="-0.11395">
        <ele>147.923</ele>
        <time>2016-06-01T22:58:35Z</time>
      </trkpt>
      <trkpt lat="48.26892" lon="-0.11403">
        <ele>148.177</ele>
        <time>2016-06-01T22:58:15Z</time>
      </trkpt>
      <trkpt lat="48.26903" lon="-0.11592">
        <ele>149.524</ele>
        <time>2016-06-01T22:57:55Z</time>
      </trkpt>
      <trkpt lat="48.2693" lon="-0.11631">
        <ele>153.879</ele>
        <time>2016-06-01T22:57:35Z</time>
      </trkpt>
      <trkpt lat="48.26955" lon="-0.11648">
        <ele>154.873</ele>
        <time>2016-06-01T22:57:15Z</time>
      </trkpt>
      <trkpt lat="48.27015" lon="-0.11633">
        <ele>158.008</ele>
        <time>2016-06-01T22:56:55Z</time>
      </trkpt>
      <trkpt lat="48.27235" lon="-0.11577">
        <ele>176.413</ele>
        <time>2016-06-01T22:56:35Z</time>
      </trkpt>
      <trkpt lat="48.2725" lon="-0.11556">
        <ele>177.085</ele>
        <time>2016-06-01T22:56:15Z</time>
      </trkpt>
      <trkpt lat="48.2726" lon="-0.11474">
        <ele>177.473</ele>
        <time>2016-06-01T22:55:55Z</time>
      </trkpt>
      <trkpt lat="48.27289" lon="-0.1135">
        <ele>175.042</ele>
        <time>2016-06-01T22:55:35Z</time>
      </trkpt>
      <trkpt lat="48.27309" lon="-0.11341">
        <ele>175.063</ele>
        <time>2016-06-01T22:55:15Z</time>
      </trkpt>
      <trkpt lat="48.27373" lon="-0.1135">
        <ele>176.277</ele>
        <time>2016-06-01T22:54:55Z</time>
      </trkpt>
      <trkpt lat="48.27404" lon="-0.11346">
        <ele>174.685</ele>
        <time>2016-06-01T22:54:35Z</time>
      </trkpt>
      <trkpt lat="48.27552" lon="-0.11266">
        <ele>170.749</ele>
        <time>2016-06-01T22:54:15Z</time>
      </trkpt>
      <trkpt lat="48.27576" lon="-0.1126">
        <ele>169.986</ele>
        <time>2016-06-01T22:53:55Z</time>
      </trkpt>
      <trkpt lat="48.27684" lon="-0.11208">
        <ele>168.081</ele>
        <time>2016-06-01T22:53:35Z</time>
      </trkpt>
      <trkpt lat="48.27694" lon="-0.11182">
        <ele>168.495</ele>
        <time>2016-06-01T22:53:15Z</time>
      </trkpt>
      <trkpt lat="48.27703" lon="-0.11131">
        <ele>169.208</ele>
        <time>2016-06-01T22:52:55Z</time>
      </trkpt>
      <trkpt lat="48.2769" lon="-0.11122">
        <ele>169.726</ele>
        <time>2016-06-01T22:52:35Z</time>
      </trkpt>
      <trkpt lat="48.27724" lon="-0.10979">
        <ele>169.815</ele>
        <time>2016-06-01T22:52:15Z</time>
      </trkpt>
      <trkpt lat="48.27827" lon="-0.1068">
        <ele>168.698</ele>
        <time>2016-06-01T22:51:55Z</time>
      </trkpt>
      <trkpt lat="48.2785" lon="-0.10648">
        <ele>167.671</ele>
        <time>2016-06-01T22:51:35Z</time>
      </trkpt>
      <trkpt lat="48.27864" lon="-0.10652">
        <ele>167.332</ele>
        <time>2016-06-01T22:51:15Z</time>
      </trkpt>
      <trkpt lat="48.27904" lon="-0.10745">
        <ele>167.136</ele>
        <time>2016-06-01T22:50:55Z</time>
      </trkpt>
      <trkpt lat="48.27919" lon="-0.10762">
        <ele>167.354</ele>
        <time>2016-06-01T22:50:35Z</time>
      </trkpt>
      <trkpt lat="48.2796" lon="-0.10803">
        <ele>165.838</ele>
        <time>2016-06-01T22:50:15Z</time>
      </trkpt>
      <trkpt lat="48.28086" lon="-0.10916">
        <ele>164.095</ele>
        <time>2016-06-01T22:49:55Z</time>
      </trkpt>
      <trkpt lat="48.28137" lon="-0.11">
        <ele>163.11</ele>
        <time>2016-06-01T22:49:35Z</time>
      </trkpt>
      <trkpt lat="48.28228" lon="-0.11341">
        <ele>141.894</ele>
        <time>2016-06-01T22:49:15Z</time>
      </trkpt>
      <trkpt lat="48.28268" lon="-0.11341">
        <ele>138.608</ele>
        <time>2016-06-01T22:48:55Z</time>
      </trkpt>
      <trkpt lat="48.28364" lon="-0.11339">
        <ele>137.017</ele>
        <time>2016-06-01T22:48:35Z</time>
      </trkpt>
      <trkpt lat="48.28513" lon="-0.11419">
        <ele>136.007</ele>
        <time>2016-06-01T22:48:15Z</time>
      </trkpt>
      <trkpt lat="48.28735" lon="-0.11386">
        <ele>130.184</ele>
        <time>2016-06-01T22:47:55Z</time>
      </trkpt>
      <trkpt lat="48.288" lon="-0.11399">
        <ele>122.919</ele>
        <time>2016-06-01T22:47:35Z</time>
      </trkpt>
      <trkpt lat="48.28901" lon="-0.11352">
        <ele>106.67</ele>
        <time>2016-06-01T22:47:15Z</time>
      </trkpt>
      <trkpt lat="48.28932" lon="-0.11361">
        <ele>101.844</ele>
        <time>2016-06-01T22:46:55Z</time>
      </trkpt>
      <trkpt lat="48.28955" lon="-0.11313">
        <ele>99.412</ele>
        <time>2016-06-01T22:46:35Z</time>
      </trkpt>
      <trkpt lat="48.28998" lon="-0.11268">
        <ele>99.376</ele>
        <time>2016-06-01T22:46:15Z</time>
      </trkpt>
      <trkpt lat="48.29049" lon="-0.11223">
        <ele>106.923</ele>
        <time>2016-06-01T22:45:55Z</time>
      </trkpt>
      <trkpt lat="48.29038" lon="-0.11131">
        <ele>104.258</ele>
        <time>2016-06-01T22:45:35Z</time>
      </trkpt>
      <trkpt lat="48.29032" lon="-0.11007">
        <ele>105.562</ele>
        <time>2016-06-01T22:45:15Z</time>
      </trkpt>
      <trkpt lat="48.28999" lon="-0.1091">
        <ele>104.108</ele>
        <time>2016-06-01T22:44:55Z</time>
      </trkpt>
      <trkpt lat="48.29001" lon="-0.10816">
        <ele>102.514</ele>
        <time>2016-06-01T22:44:35Z</time>
      </trkpt>
      <trkpt lat="48.29009" lon="-0.1073">
        <ele>103.468</ele>
        <time>2016-06-01T22:44:15Z</time>
      </trkpt>
      <trkpt lat="48.29047" lon="-0.10652">
        <ele>103.065</ele>
        <time>2016-06-01T22:43:55Z</time>
      </trkpt>
      <trkpt lat="48.29094" lon="-0.10595">
        <ele>106.019</ele>
        <time>2016-06-01T22:43:35Z</time>
      </trkpt>
      <trkpt lat="48.29117" lon="-0.10526">
        <ele>103.94</ele>
        <time>2016-06-01T22:43:15Z</time>
      </trkpt>
      <trkpt lat="48.29145" lon="-0.10483">
        <ele>104.844</ele>
        <time>2016-06-01T22:42:55Z</time>
      </trkpt>
      <trkpt lat="48.29162" lon="-0.1041">
        <ele>104.142</ele>
        <time>2016-06-01T22:42:35Z</time>
      </trkpt>
      <trkpt lat="48.29209" lon="-0.10328">
        <ele>105.096</ele>
        <time>2016-06-01T22:42:15Z</time>
      </trkpt>
      <trkpt lat="48.29226" lon="-0.10296">
        <ele>107.833</ele>
        <time>2016-06-01T22:41:55Z</time>
      </trkpt>
      <trkpt lat="48.29236" lon="-0.10204">
        <ele>107.188</ele>
        <time>2016-06-01T22:41:35Z</time>
      </trkpt>
      <trkpt lat="48.29236" lon="-0.10114">
        <ele>102.342</ele>
        <time>2016-06-01T22:41:15Z</time>
      </trkpt>
      <trkpt lat="48.29276" lon="-0.10047">
        <ele>102.908</ele>
        <time>2016-06-01T22:40:55Z</time>
      </trkpt>
      <trkpt lat="48.29321" lon="-0.09985">
        <ele>104.111</ele>
        <time>2016-06-01T22:40:35Z</time>
      </trkpt>
      <trkpt lat="48.29348" lon="-0.09972">
        <ele>105.683</ele>
        <time>2016-06-01T22:40:15Z</time>
      </trkpt>
      <trkpt lat="48.29448" lon="-0.09749">
        <ele>104.762</ele>
        <time>2016-06-01T22:39:55Z</time>
      </trkpt>
      <trkpt lat="48.29478" lon="-0.09771">
        <ele>115.044</ele>
        <time>2016-06-01T22:39:35Z</time>
      </trkpt>
      <trkpt lat="48.29495" lon="-0.09777">
        <ele>119.015</ele>
        <time>2016-06-01T22:39:15Z</time>
      </trkpt>
      <trkpt lat="48.29509" lon="-0.09771">
        <ele>120.169</ele>
        <time>2016-06-01T22:38:55Z</time>
      </trkpt>
      <trkpt lat="48.29749" lon="-0.09985">
        <ele>138.467</ele>
        <time>2016-06-01T22:38:35Z</time>
      </trkpt>
      <trkpt lat="48.29753" lon="-0.1005">
        <ele>141.031</ele>
        <time>2016-06-01T22:38:15Z</time>
      </trkpt>
      <trkpt lat="48.2975" lon="-0.10101">
        <ele>143.778</ele>
        <time>2016-06-01T22:37:55Z</time>
      </trkpt>
      <trkpt lat="48.29762" lon="-0.10114">
        <ele>144.563</ele>
        <time>2016-06-01T22:37:35Z</time>
      </trkpt>
      <trkpt lat="48.29792" lon="-0.10283">
        <ele>148.677</ele>
        <time>2016-06-01T22:37:15Z</time>
      </trkpt>
      <trkpt lat="48.29809" lon="-0.10453">
        <ele>152.508</ele>
        <time>2016-06-01T22:36:55Z</time>
      </trkpt>
      <trkpt lat="48.29738" lon="-0.1059">
        <ele>149.311</ele>
        <time>2016-06-01T22:36:35Z</time>
      </trkpt>
      <trkpt lat="48.29716" lon="-0.10601">
        <ele>147.865</ele>
        <time>2016-06-01T22:36:15Z</time>
      </trkpt>
      <trkpt lat="48.29678" lon="-0.10648">
        <ele>145.415</ele>
        <time>2016-06-01T22:35:55Z</time>
      </trkpt>
      <trkpt lat="48.29832" lon="-0.1106">
        <ele>142.958</ele>
        <time>2016-06-01T22:35:35Z</time>
      </trkpt>
      <trkpt lat="48.29839" lon="-0.11131">
        <ele>144.289</ele>
        <time>2016-06-01T22:35:15Z</time>
      </trkpt>
      <trkpt lat="48.29863" lon="-0.11384">
        <ele>147.263</ele>
        <time>2016-06-01T22:34:55Z</time>
      </trkpt>
      <trkpt lat="48.29853" lon="-0.1147">
        <ele>147.371</ele>
        <time>2016-06-01T22:34:35Z</time>
      </trkpt>
      <trkpt lat="48.29937" lon="-0.11504">
        <ele>146.625</ele>
        <time>2016-06-01T22:34:15Z</time>
      </trkpt>
      <trkpt lat="48.30034" lon="-0.11586">
        <ele>138.662</ele>
        <time>2016-06-01T22:33:55Z</time>
      </trkpt>
      <trkpt lat="48.30063" lon="-0.11655">
        <ele>136.987</ele>
        <time>2016-06-01T22:33:35Z</time>
      </trkpt>
      <trkpt lat="48.3012" lon="-0.11558">
        <ele>138.161</ele>
        <time>2016-06-01T22:33:15Z</time>
      </trkpt>
      <trkpt lat="48.30122" lon="-0.11567">
        <ele>138.208</ele>
        <time>2016-06-01T22:32:55Z</time>
      </trkpt>
      <trkpt lat="48.30179" lon="-0.1165">
        <ele>139.408</ele>
        <time>2016-06-01T22:32:35Z</time>
      </trkpt>
      <trkpt lat="48.30233" lon="-0.11567">
        <ele>140.453</ele>
        <time>2016-06-01T22:32:15Z</time>
      </trkpt>
      <trkpt lat="48.30266" lon="-0.11464">
        <ele>141.752</ele>
        <time>2016-06-01T22:31:55Z</time>
      </trkpt>
      <trkpt lat="48.30287" lon="-0.11414">
        <ele>143.095</ele>
        <time>2016-06-01T22:31:35Z</time>
      </trkpt>
      <trkpt lat="48.30326" lon="-0.1138">
        <ele>141.556</ele>
        <time>2016-06-01T22:31:15Z</time>
      </trkpt>
      <trkpt lat="48.30343" lon="-0.11421">
        <ele>142.03</ele>
        <time>2016-06-01T22:30:55Z</time>
      </trkpt>
      <trkpt lat="48.30387" lon="-0.11348">
        <ele>140.548</ele>
        <time>2016-06-01T22:30:35Z</time>
      </trkpt>
      <trkpt lat="48.30378" lon="-0.11258">
        <ele>139.442</ele>
        <time>2016-06-01T22:30:15Z</time>
      </trkpt>
      <trkpt lat="48.30386" lon="-0.11238">
        <ele>138.779</ele>
        <time>2016-06-01T22:29:55Z</time>
      </trkpt>
      <trkpt lat="48.30871" lon="-0.11337">
        <ele>123.114</ele>
        <time>2016-06-01T22:29:35Z</time>
      </trkpt>
      <trkpt lat="48.30878" lon="-0.11258">
        <ele>123.318</ele>
        <time>2016-06-01T22:29:15Z</time>
      </trkpt>
      <trkpt lat="48.30909" lon="-0.11167">
        <ele>121.508</ele>
        <time>2016-06-01T22:28:55Z</time>
      </trkpt>
      <trkpt lat="48.30929" lon="-0.11152">
        <ele>121.105</ele>
        <time>2016-06-01T22:28:35Z</time>
      </trkpt>
      <trkpt lat="48.30945" lon="-0.11097">
        <ele>121.041</ele>
        <time>2016-06-01T22:28:15Z</time>
      </trkpt>
      <trkpt lat="48.30952" lon="-0.1109">
        <ele>120.421</ele>
        <time>2016-06-01T22:27:55Z</time>
      </trkpt>
      <trkpt lat="48.31074" lon="-0.11223">
        <ele>121.687</ele>
        <time>2016-06-01T22:27:35Z</time>
      </trkpt>
      <trkpt lat="48.31146" lon="-0.11206">
        <ele>121.328</ele>
        <time>2016-06-01T22:27:15Z</time>
      </trkpt>
      <trkpt lat="48.31135" lon="-0.11152">
        <ele>120.382</ele>
        <time>2016-06-01T22:26:55Z</time>
      </trkpt>
      <trkpt lat="48.31166" lon="-0.11142">
        <ele>121.03</ele>
        <time>2016-06-01T22:26:35Z</time>
      </trkpt>
      <trkpt lat="48.31245" lon="-0.11084">
        <ele>118.214</ele>
        <time>2016-06-01T22:26:15Z</time>
      </trkpt>
      <trkpt lat="48.31298" lon="-0.11071">
        <ele>117.031</ele>
        <time>2016-06-01T22:25:55Z</time>
      </trkpt>
      <trkpt lat="48.31319" lon="-0.11026">
        <ele>117.036</ele>
        <time>2016-06-01T22:25:35Z</time>
      </trkpt>
      <trkpt lat="48.3139" lon="-0.10974">
        <ele>112.01</ele>
        <time>2016-06-01T22:25:15Z</time>
      </trkpt>
      <trkpt lat="48.3141" lon="-0.10927">
        <ele>111.108</ele>
        <time>2016-06-01T22:24:55Z</time>
      </trkpt>
      <trkpt lat="48.31443" lon="-0.10891">
        <ele>111.022</ele>
        <time>2016-06-01T22:24:35Z</time>
      </trkpt>
      <trkpt lat="48.31456" lon="-0.10861">
        <ele>111.602</ele>
        <time>2016-06-01T22:24:15Z</time>
      </trkpt>
      <trkpt lat="48.31496" lon="-0.10867">
        <ele>110.549</ele>
        <time>2016-06-01T22:23:55Z</time>
      </trkpt>
      <trkpt lat="48.31776" lon="-0.10809">
        <ele>109.126</ele>
        <time>2016-06-01T22:23:35Z</time>
      </trkpt>
      <trkpt lat="48.31818" lon="-0.10762">
        <ele>106.047</ele>
        <time>2016-06-01T22:23:15Z</time>
      </trkpt>
      <trkpt lat="48.31867" lon="-0.10723">
        <ele>101.061</ele>
        <time>2016-06-01T22:22:55Z</time>
      </trkpt>
      <trkpt lat="48.31968" lon="-0.10713">
        <ele>100.129</ele>
        <time>2016-06-01T22:22:35Z</time>
      </trkpt>
      <trkpt lat="48.31991" lon="-0.10736">
        <ele>99.773</ele>
        <time>2016-06-01T22:22:15Z</time>
      </trkpt>
      <trkpt lat="48.3202" lon="-0.1071">
        <ele>103.77</ele>
        <time>2016-06-01T22:21:55Z</time>
      </trkpt>
      <trkpt lat="48.32071" lon="-0.10749">
        <ele>110.445</ele>
        <time>2016-06-01T22:21:35Z</time>
      </trkpt>
      <trkpt lat="48.32101" lon="-0.10743">
        <ele>114.759</ele>
        <time>2016-06-01T22:21:15Z</time>
      </trkpt>
      <trkpt lat="48.32088" lon="-0.10691">
        <ele>112.208</ele>
        <time>2016-06-01T22:20:55Z</time>
      </trkpt>
      <trkpt lat="48.32172" lon="-0.10706">
        <ele>116.421</ele>
        <time>2016-06-01T22:20:35Z</time>
      </trkpt>
      <trkpt lat="48.32174" lon="-0.1062">
        <ele>111.201</ele>
        <time>2016-06-01T22:20:15Z</time>
      </trkpt>
      <trkpt lat="48.32188" lon="-0.10571">
        <ele>110.739</ele>
        <time>2016-06-01T22:19:55Z</time>
      </trkpt>
      <trkpt lat="48.32217" lon="-0.10564">
        <ele>111.396</ele>
        <time>2016-06-01T22:19:35Z</time>
      </trkpt>
      <trkpt lat="48.32288" lon="-0.10526">
        <ele>117.767</ele>
        <time>2016-06-01T22:19:15Z</time>
      </trkpt>
      <trkpt lat="48.32388" lon="-0.10522">
        <ele>125.231</ele>
        <time>2016-06-01T22:18:55Z</time>
      </trkpt>
      <trkpt lat="48.32471" lon="-0.10532">
        <ele>130.969</ele>
        <time>2016-06-01T22:18:35Z</time>
      </trkpt>
      <trkpt lat="48.32538" lon="-0.1053">
        <ele>135.833</ele>
        <time>2016-06-01T22:18:15Z</time>
      </trkpt>
      <trkpt lat="48.32536" lon="-0.10537">
        <ele>135.81</ele>
        <time>2016-06-01T22:17:55Z</time>
      </trkpt>
      <trkpt lat="48.32525" lon="-0.10655">
        <ele>131.915</ele>
        <time>2016-06-01T22:17:35Z</time>
      </trkpt>
      <trkpt lat="48.32486" lon="-0.10773">
        <ele>125.659</ele>
        <time>2016-06-01T22:17:15Z</time>
      </trkpt>
      <trkpt lat="48.32538" lon="-0.10792">
        <ele>127.908</ele>
        <time>2016-06-01T22:16:55Z</time>
      </trkpt>
      <trkpt lat="48.32573" lon="-0.10788">
        <ele>131.421</ele>
        <time>2016-06-01T22:16:35Z</time>
      </trkpt>
      <trkpt lat="48.32655" lon="-0.1077">
        <ele>137.701</ele>
        <time>2016-06-01T22:16:15Z</time>
      </trkpt>
      <trkpt lat="48.32764" lon="-0.10723">
        <ele>142.039</ele>
        <time>2016-06-01T22:15:55Z</time>
      </trkpt>
      <trkpt lat="48.32814" lon="-0.10667">
        <ele>145.731</ele>
        <time>2016-06-01T22:15:35Z</time>
      </trkpt>
      <trkpt lat="48.32844" lon="-0.10661">
        <ele>145.752</ele>
        <time>2016-06-01T22:15:15Z</time>
      </trkpt>
      <trkpt lat="48.32904" lon="-0.10633">
        <ele>151.326</ele>
        <time>2016-06-01T22:14:55Z</time>
      </trkpt>
      <trkpt lat="48.32936" lon="-0.10633">
        <ele>153.444</ele>
        <time>2016-06-01T22:14:35Z</time>
      </trkpt>
      <trkpt lat="48.32997" lon="-0.10648">
        <ele>158.028</ele>
        <time>2016-06-01T22:14:15Z</time>
      </trkpt>
      <trkpt lat="48.3309" lon="-0.10663">
        <ele>171.645</ele>
        <time>2016-06-01T22:13:55Z</time>
      </trkpt>
      <trkpt lat="48.33128" lon="-0.10687">
        <ele>176.07</ele>
        <time>2016-06-01T22:13:35Z</time>
      </trkpt>
      <trkpt lat="48.33144" lon="-0.10706">
        <ele>177.654</ele>
        <time>2016-06-01T22:13:15Z</time>
      </trkpt>
      <trkpt lat="48.33281" lon="-0.10655">
        <ele>188.508</ele>
        <time>2016-06-01T22:12:55Z</time>
      </trkpt>
      <trkpt lat="48.33366" lon="-0.10691">
        <ele>188.217</ele>
        <time>2016-06-01T22:12:35Z</time>
      </trkpt>
      <trkpt lat="48.33392" lon="-0.10736">
        <ele>191.207</ele>
        <time>2016-06-01T22:12:15Z</time>
      </trkpt>
      <trkpt lat="48.33432" lon="-0.10858">
        <ele>195.284</ele>
        <time>2016-06-01T22:11:55Z</time>
      </trkpt>
      <trkpt lat="48.33465" lon="-0.11019">
        <ele>201.092</ele>
        <time>2016-06-01T22:11:35Z</time>
      </trkpt>
      <trkpt lat="48.33488" lon="-0.11028">
        <ele>199.393</ele>
        <time>2016-06-01T22:11:15Z</time>
      </trkpt>
      <trkpt lat="48.33523" lon="-0.11071">
        <ele>201.277</ele>
        <time>2016-06-01T22:10:55Z</time>
      </trkpt>
      <trkpt lat="48.33546" lon="-0.11086">
        <ele>201.535</ele>
        <time>2016-06-01T22:10:35Z</time>
      </trkpt>
      <trkpt lat="48.33576" lon="-0.11077">
        <ele>201.539</ele>
        <time>2016-06-01T22:10:15Z</time>
      </trkpt>
      <trkpt lat="48.33612" lon="-0.1106">
        <ele>203.236</ele>
        <time>2016-06-01T22:09:55Z</time>
      </trkpt>
      <trkpt lat="48.33603" lon="-0.11007">
        <ele>202.551</ele>
        <time>2016-06-01T22:09:35Z</time>
      </trkpt>
      <trkpt lat="48.33585" lon="-0.10665">
        <ele>195.045</ele>
        <time>2016-06-01T22:09:15Z</time>
      </trkpt>
      <trkpt lat="48.33679" lon="-0.10667">
        <ele>198.908</ele>
        <time>2016-06-01T22:08:55Z</time>
      </trkpt>
      <trkpt lat="48.33722" lon="-0.107">
        <ele>202.126</ele>
        <time>2016-06-01T22:08:35Z</time>
      </trkpt>
      <trkpt lat="48.33789" lon="-0.1074">
        <ele>209.415</ele>
        <time>2016-06-01T22:08:15Z</time>
      </trkpt>
      <trkpt lat="48.33881" lon="-0.10764">
        <ele>217.698</ele>
        <time>2016-06-01T22:07:55Z</time>
      </trkpt>
      <trkpt lat="48.33973" lon="-0.10775">
        <ele>221.258</ele>
        <time>2016-06-01T22:07:35Z</time>
      </trkpt>
      <trkpt lat="48.34082" lon="-0.10762">
        <ele>227.139</ele>
        <time>2016-06-01T22:07:15Z</time>
      </trkpt>
      <trkpt lat="48.34152" lon="-0.10775">
        <ele>225.113</ele>
        <time>2016-06-01T22:06:55Z</time>
      </trkpt>
      <trkpt lat="48.34162" lon="-0.10755">
        <ele>225.151</ele>
        <time>2016-06-01T22:06:35Z</time>
      </trkpt>
      <trkpt lat="48.34199" lon="-0.1067">
        <ele>225.255</ele>
        <time>2016-06-01T22:06:15Z</time>
      </trkpt>
      <trkpt lat="48.34256" lon="-0.10601">
        <ele>227.932</ele>
        <time>2016-06-01T22:05:55Z</time>
      </trkpt>
      <trkpt lat="48.34311" lon="-0.10573">
        <ele>227.557</ele>
        <time>2016-06-01T22:05:35Z</time>
      </trkpt>
      <trkpt lat="48.34381" lon="-0.10543">
        <ele>225.191</ele>
        <time>2016-06-01T22:05:15Z</time>
      </trkpt>
      <trkpt lat="48.345" lon="-0.10504">
        <ele>220.008</ele>
        <time>2016-06-01T22:04:55Z</time>
      </trkpt>
      <trkpt lat="48.34381" lon="-0.10245">
        <ele>213.817</ele>
        <time>2016-06-01T22:04:35Z</time>
      </trkpt>
      <trkpt lat="48.34606" lon="-0.10067">
        <ele>209.152</ele>
        <time>2016-06-01T22:04:15Z</time>
      </trkpt>
      <trkpt lat="48.34647" lon="-0.09994">
        <ele>205.558</ele>
        <time>2016-06-01T22:03:55Z</time>
      </trkpt>
      <trkpt lat="48.34697" lon="-0.09944">
        <ele>199.914</ele>
        <time>2016-06-01T22:03:35Z</time>
      </trkpt>
      <trkpt lat="48.34743" lon="-0.09927">
        <ele>193.795</ele>
        <time>2016-06-01T22:03:15Z</time>
      </trkpt>
      <trkpt lat="48.34794" lon="-0.09936">
        <ele>188.389</ele>
        <time>2016-06-01T22:02:55Z</time>
      </trkpt>
      <trkpt lat="48.34843" lon="-0.09929">
        <ele>180.397</ele>
        <time>2016-06-01T22:02:35Z</time>
      </trkpt>
      <trkpt lat="48.34884" lon="-0.09947">
        <ele>174.221</ele>
        <time>2016-06-01T22:02:15Z</time>
      </trkpt>
      <trkpt lat="48.3492" lon="-0.09927">
        <ele>166.478</ele>
        <time>2016-06-01T22:01:55Z</time>
      </trkpt>
      <trkpt lat="48.34961" lon="-0.09912">
        <ele>163.023</ele>
        <time>2016-06-01T22:01:35Z</time>
      </trkpt>
      <trkpt lat="48.34994" lon="-0.09921">
        <ele>163.347</ele>
        <time>2016-06-01T22:01:15Z</time>
      </trkpt>
      <trkpt lat="48.35019" lon="-0.09908">
        <ele>166.408</ele>
        <time>2016-06-01T22:00:55Z</time>
      </trkpt>
      <trkpt lat="48.35032" lon="-0.09886">
        <ele>169.317</ele>
        <time>2016-06-01T22:00:35Z</time>
      </trkpt>
      <trkpt lat="48.35054" lon="-0.09897">
        <ele>175.498</ele>
        <time>2016-06-01T22:00:15Z</time>
      </trkpt>
      <trkpt lat="48.35098" lon="-0.1">
        <ele>187.618</ele>
        <time>2016-06-01T21:59:55Z</time>
      </trkpt>
      <trkpt lat="48.35129" lon="-0.10133">
        <ele>196.714</ele>
        <time>2016-06-01T21:59:35Z</time>
      </trkpt>
      <trkpt lat="48.35145" lon="-0.10163">
        <ele>202.545</ele>
        <time>2016-06-01T21:59:15Z</time>
      </trkpt>
      <trkpt lat="48.35198" lon="-0.10204">
        <ele>208.889</ele>
        <time>2016-06-01T21:58:55Z</time>
      </trkpt>
      <trkpt lat="48.35242" lon="-0.1003">
        <ele>209.927</ele>
        <time>2016-06-01T21:58:35Z</time>
      </trkpt>
      <trkpt lat="48.35282" lon="-0.09904">
        <ele>207.881</ele>
        <time>2016-06-01T21:58:15Z</time>
      </trkpt>
      <trkpt lat="48.35298" lon="-0.09841">
        <ele>206.758</ele>
        <time>2016-06-01T21:57:55Z</time>
      </trkpt>
      <trkpt lat="48.35289" lon="-0.09764">
        <ele>212.313</ele>
        <time>2016-06-01T21:57:35Z</time>
      </trkpt>
      <trkpt lat="48.35266" lon="-0.09599">
        <ele>203.997</ele>
        <time>2016-06-01T21:57:15Z</time>
      </trkpt>
      <trkpt lat="48.3527" lon="-0.09517">
        <ele>202.708</ele>
        <time>2016-06-01T21:56:55Z</time>
      </trkpt>
      <trkpt lat="48.35288" lon="-0.09359">
        <ele>196.517</ele>
        <time>2016-06-01T21:56:35Z</time>
      </trkpt>
      <trkpt lat="48.35258" lon="-0.09307">
        <ele>192.498</ele>
        <time>2016-06-01T21:56:15Z</time>
      </trkpt>
      <trkpt lat="48.35243" lon="-0.09243">
        <ele>187.118</ele>
        <time>2016-06-01T21:55:55Z</time>
      </trkpt>
      <trkpt lat="48.35165" lon="-0.09191">
        <ele>179.556</ele>
        <time>2016-06-01T21:55:35Z</time>
      </trkpt>
      <trkpt lat="48.35158" lon="-0.09135">
        <ele>178.577</ele>
        <time>2016-06-01T21:55:15Z</time>
      </trkpt>
      <trkpt lat="48.35159" lon="-0.09043">
        <ele>181.031</ele>
        <time>2016-06-01T21:54:55Z</time>
      </trkpt>
      <trkpt lat="48.35114" lon="-0.08814">
        <ele>172.659</ele>
        <time>2016-06-01T21:54:35Z</time>
      </trkpt>
      <trkpt lat="48.35085" lon="-0.08721">
        <ele>178.343</ele>
        <time>2016-06-01T21:54:15Z</time>
      </trkpt>
      <trkpt lat="48.35042" lon="-0.08689">
        <ele>179.63</ele>
        <time>2016-06-01T21:53:55Z</time>
      </trkpt>
      <trkpt lat="48.34998" lon="-0.08648">
        <ele>183.195</ele>
        <time>2016-06-01T21:53:35Z</time>
      </trkpt>
      <trkpt lat="48.3488" lon="-0.0858">
        <ele>184.439</ele>
        <time>2016-06-01T21:53:15Z</time>
      </trkpt>
      <trkpt lat="48.34844" lon="-0.08547">
        <ele>185.408</ele>
        <time>2016-06-01T21:52:55Z</time>
      </trkpt>
      <trkpt lat="48.34797" lon="-0.08528">
        <ele>182.414</ele>
        <time>2016-06-01T21:52:35Z</time>
      </trkpt>
      <trkpt lat="48.34787" lon="-0.08515">
        <ele>181.686</ele>
        <time>2016-06-01T21:52:15Z</time>
      </trkpt>
      <trkpt lat="48.34764" lon="-0.085">
        <ele>177.035</ele>
        <time>2016-06-01T21:51:55Z</time>
      </trkpt>
      <trkpt lat="48.34746" lon="-0.08451">
        <ele>172.449</ele>
        <time>2016-06-01T21:51:35Z</time>
      </trkpt>
      <trkpt lat="48.34763" lon="-0.08329">
        <ele>172.95</ele>
        <time>2016-06-01T21:51:15Z</time>
      </trkpt>
      <trkpt lat="48.3478" lon="-0.08307">
        <ele>177.654</ele>
        <time>2016-06-01T21:50:55Z</time>
      </trkpt>
      <trkpt lat="48.34787" lon="-0.08266">
        <ele>176.892</ele>
        <time>2016-06-01T21:50:35Z</time>
      </trkpt>
      <trkpt lat="48.34797" lon="-0.08243">
        <ele>175.836</ele>
        <time>2016-06-01T21:50:15Z</time>
      </trkpt>
      <trkpt lat="48.34821" lon="-0.08236">
        <ele>178.883</ele>
        <time>2016-06-01T21:49:55Z</time>
      </trkpt>
      <trkpt lat="48.34851" lon="-0.08266">
        <ele>188.038</ele>
        <time>2016-06-01T21:49:35Z</time>
      </trkpt>
      <trkpt lat="48.34894" lon="-0.08279">
        <ele>189.972</ele>
        <time>2016-06-01T21:49:15Z</time>
      </trkpt>
      <trkpt lat="48.34942" lon="-0.08264">
        <ele>187.008</ele>
        <time>2016-06-01T21:48:55Z</time>
      </trkpt>
      <trkpt lat="48.34971" lon="-0.08299">
        <ele>192.211</ele>
        <time>2016-06-01T21:48:35Z</time>
      </trkpt>
      <trkpt lat="48.34971" lon="-0.08356">
        <ele>195.883</ele>
        <time>2016-06-01T21:48:15Z</time>
      </trkpt>
      <trkpt lat="48.35024" lon="-0.08402">
        <ele>194.162</ele>
        <time>2016-06-01T21:47:55Z</time>
      </trkpt>
      <trkpt lat="48.35058" lon="-0.08399">
        <ele>192.538</ele>
        <time>2016-06-01T21:47:35Z</time>
      </trkpt>
      <trkpt lat="48.35084" lon="-0.08427">
        <ele>190.089</ele>
        <time>2016-06-01T21:47:15Z</time>
      </trkpt>
      <trkpt lat="48.35101" lon="-0.08378">
        <ele>189.133</ele>
        <time>2016-06-01T21:46:55Z</time>
      </trkpt>
      <trkpt lat="48.35119" lon="-0.08374">
        <ele>186.811</ele>
        <time>2016-06-01T21:46:35Z</time>
      </trkpt>
      <trkpt lat="48.35142" lon="-0.0829">
        <ele>185.745</ele>
        <time>2016-06-01T21:46:15Z</time>
      </trkpt>
      <trkpt lat="48.35163" lon="-0.08249">
        <ele>184.822</ele>
        <time>2016-06-01T21:45:55Z</time>
      </trkpt>
      <trkpt lat="48.35189" lon="-0.08211">
        <ele>183.057</ele>
        <time>2016-06-01T21:45:35Z</time>
      </trkpt>
      <trkpt lat="48.35191" lon="-0.08163">
        <ele>177.461</ele>
        <time>2016-06-01T21:45:15Z</time>
      </trkpt>
      <trkpt lat="48.35181" lon="-0.08118">
        <ele>169.108</ele>
        <time>2016-06-01T21:44:55Z</time>
      </trkpt>
      <trkpt lat="48.35142" lon="-0.08093">
        <ele>159.311</ele>
        <time>2016-06-01T21:44:35Z</time>
      </trkpt>
      <trkpt lat="48.35203" lon="-0.08078">
        <ele>157.901</ele>
        <time>2016-06-01T21:44:15Z</time>
      </trkpt>
      <trkpt lat="48.35216" lon="-0.08054">
        <ele>151.451</ele>
        <time>2016-06-01T21:43:55Z</time>
      </trkpt>
      <trkpt lat="48.35248" lon="-0.0805">
        <ele>150.034</ele>
        <time>2016-06-01T21:43:35Z</time>
      </trkpt>
      <trkpt lat="48.35223" lon="-0.07998">
        <ele>137.815</ele>
        <time>2016-06-01T21:43:15Z</time>
      </trkpt>
      <trkpt lat="48.35199" lon="-0.0797">
        <ele>133.759</ele>
        <time>2016-06-01T21:42:55Z</time>
      </trkpt>
      <trkpt lat="48.35192" lon="-0.0794">
        <ele>128.967</ele>
        <time>2016-06-01T21:42:35Z</time>
      </trkpt>
      <trkpt lat="48.35181" lon="-0.07814">
        <ele>115.141</ele>
        <time>2016-06-01T21:42:15Z</time>
      </trkpt>
      <trkpt lat="48.35165" lon="-0.07754">
        <ele>110.998</ele>
        <time>2016-06-01T21:41:55Z</time>
      </trkpt>
      <trkpt lat="48.35221" lon="-0.07698">
        <ele>110.193</ele>
        <time>2016-06-01T21:41:35Z</time>
      </trkpt>
      <trkpt lat="48.3545" lon="-0.07754">
        <ele>104.717</ele>
        <time>2016-06-01T21:41:15Z</time>
      </trkpt>
      <trkpt lat="48.35467" lon="-0.07769">
        <ele>106.808</ele>
        <time>2016-06-01T21:40:55Z</time>
      </trkpt>
      <trkpt lat="48.35499" lon="-0.07854">
        <ele>110.909</ele>
        <time>2016-06-01T21:40:35Z</time>
      </trkpt>
      <trkpt lat="48.35551" lon="-0.07882">
        <ele>121.654</ele>
        <time>2016-06-01T21:40:15Z</time>
      </trkpt>
      <trkpt lat="48.3559" lon="-0.0791">
        <ele>127.114</ele>
        <time>2016-06-01T21:39:55Z</time>
      </trkpt>
      <trkpt lat="48.3564" lon="-0.07951">
        <ele>131.527</ele>
        <time>2016-06-01T21:39:35Z</time>
      </trkpt>
      <trkpt lat="48.35638" lon="-0.07906">
        <ele>136.928</ele>
        <time>2016-06-01T21:39:15Z</time>
      </trkpt>
      <trkpt lat="48.35663" lon="-0.0788">
        <ele>146.432</ele>
        <time>2016-06-01T21:38:55Z</time>
      </trkpt>
      <trkpt lat="48.35702" lon="-0.07863">
        <ele>155.71</ele>
        <time>2016-06-01T21:38:35Z</time>
      </trkpt>
      <trkpt lat="48.35805" lon="-0.07865">
        <ele>153.384</ele>
        <time>2016-06-01T21:38:15Z</time>
      </trkpt>
      <trkpt lat="48.35815" lon="-0.07927">
        <ele>141.851</ele>
        <time>2016-06-01T21:37:55Z</time>
      </trkpt>
      <trkpt lat="48.35993" lon="-0.07773">
        <ele>131.696</ele>
        <time>2016-06-01T21:37:35Z</time>
      </trkpt>
      <trkpt lat="48.36008" lon="-0.07781">
        <ele>131.69</ele>
        <time>2016-06-01T21:37:15Z</time>
      </trkpt>
      <trkpt lat="48.36013" lon="-0.07839">
        <ele>128.808</ele>
        <time>2016-06-01T21:36:55Z</time>
      </trkpt>
      <trkpt lat="48.36025" lon="-0.07846">
        <ele>128.615</ele>
        <time>2016-06-01T21:36:35Z</time>
      </trkpt>
      <trkpt lat="48.36063" lon="-0.07779">
        <ele>129.205</ele>
        <time>2016-06-01T21:36:15Z</time>
      </trkpt>
      <trkpt lat="48.361" lon="-0.0767">
        <ele>131.244</ele>
        <time>2016-06-01T21:35:55Z</time>
      </trkpt>
      <trkpt lat="48.36152" lon="-0.0758">
        <ele>129.819</ele>
        <time>2020-12-24T03:39:15Z</time>
      </trkpt>
      <trkpt lat="48.36217" lon="-0.07552">
        <ele>121.43</ele>
        <time>2016-06-01T21:34:55Z</time>
      </trkpt>
      <trkpt lat="48.36281" lon="-0.07546">
        <ele>119.934</ele>
        <time>2020-12-24T03:38:35Z</time>
      </trkpt>
      <trkpt lat="48.36432" lon="-0.07674">
        <ele>112.512</ele>
        <time>2020-12-24T03:38:15Z</time>
      </trkpt>
      <trkpt lat="48.36568" lon="-0.07741">
        <ele>117.076</ele>
        <time>2020-12-24T03:37:55Z</time>
      </trkpt>
      <trkpt lat="48.36661" lon="-0.07763">
        <ele>119.063</ele>
        <time>2020-12-24T03:37:35Z</time>
      </trkpt>
      <trkpt lat="48.36665" lon="-0.07657">
        <ele>115.638</ele>
        <time>2016-06-01T21:32:35Z</time>
      </trkpt>
      <trkpt lat="48.36709" lon="-0.07672">
        <ele>115.782</ele>
        <time>2016-06-01T21:32:15Z</time>
      </trkpt>
      <trkpt lat="48.36733" lon="-0.0767">
        <ele>115.808</ele>
        <time>2016-06-01T21:31:55Z</time>
      </trkpt>
      <trkpt lat="48.36752" lon="-0.07704">
        <ele>113.418</ele>
        <time>2016-06-01T21:31:35Z</time>
      </trkpt>
      <trkpt lat="48.36765" lon="-0.07711">
        <ele>114.244</ele>
        <time>2016-06-01T21:31:15Z</time>
      </trkpt>
      <trkpt lat="48.36785" lon="-0.07749">
        <ele>113.563</ele>
        <time>2016-06-01T21:30:55Z</time>
      </trkpt>
      <trkpt lat="48.3693" lon="-0.07747">
        <ele>116.576</ele>
        <time>2016-06-01T21:30:35Z</time>
      </trkpt>
      <trkpt lat="48.36937" lon="-0.07728">
        <ele>118.727</ele>
        <time>2016-06-01T21:30:15Z</time>
      </trkpt>
      <trkpt lat="48.36961" lon="-0.07685">
        <ele>121.681</ele>
        <time>2016-06-01T21:29:55Z</time>
      </trkpt>
      <trkpt lat="48.3699" lon="-0.0764">
        <ele>120.549</ele>
        <time>2016-06-01T21:29:35Z</time>
      </trkpt>
      <trkpt lat="48.36973" lon="-0.07554">
        <ele>134.293</ele>
        <time>2016-06-01T21:29:15Z</time>
      </trkpt>
      <trkpt lat="48.36996" lon="-0.07494">
        <ele>143.79</ele>
        <time>2016-06-01T21:28:55Z</time>
      </trkpt>
      <trkpt lat="48.3706" lon="-0.07445">
        <ele>152.675</ele>
        <time>2016-06-01T21:28:35Z</time>
      </trkpt>
      <trkpt lat="48.37115" lon="-0.07393">
        <ele>154.229</ele>
        <time>2016-06-01T21:28:15Z</time>
      </trkpt>
      <trkpt lat="48.37127" lon="-0.07352">
        <ele>156.708</ele>
        <time>2016-06-01T21:27:55Z</time>
      </trkpt>
      <trkpt lat="48.37124" lon="-0.07322">
        <ele>158.407</ele>
        <time>2016-06-01T21:27:35Z</time>
      </trkpt>
      <trkpt lat="48.37087" lon="-0.07251">
        <ele>165.661</ele>
        <time>2016-06-01T21:27:15Z</time>
      </trkpt>
      <trkpt lat="48.37092" lon="-0.07215">
        <ele>164.931</ele>
        <time>2016-06-01T21:26:55Z</time>
      </trkpt>
      <trkpt lat="48.37118" lon="-0.07189">
        <ele>161.515</ele>
        <time>2016-06-01T21:26:35Z</time>
      </trkpt>
      <trkpt lat="48.37152" lon="-0.07198">
        <ele>159.876</ele>
        <time>2016-06-01T21:26:15Z</time>
      </trkpt>
      <trkpt lat="48.37178" lon="-0.07228">
        <ele>155.54</ele>
        <time>2016-06-01T21:25:55Z</time>
      </trkpt>
      <trkpt lat="48.37254" lon="-0.07209">
        <ele>154.378</ele>
        <time>2016-06-01T21:25:35Z</time>
      </trkpt>
      <trkpt lat="48.37285" lon="-0.07181">
        <ele>158.022</ele>
        <time>2016-06-01T21:25:15Z</time>
      </trkpt>
      <trkpt lat="48.37316" lon="-0.07112">
        <ele>167.789</ele>
        <time>2016-06-01T21:24:55Z</time>
      </trkpt>
      <trkpt lat="48.37375" lon="-0.07056">
        <ele>168.514</ele>
        <time>2016-06-01T21:24:35Z</time>
      </trkpt>
      <trkpt lat="48.37392" lon="-0.07018">
        <ele>169.838</ele>
        <time>2016-06-01T21:24:15Z</time>
      </trkpt>
      <trkpt lat="48.37435" lon="-0.06977">
        <ele>170.808</ele>
        <time>2016-06-01T21:23:55Z</time>
      </trkpt>
      <trkpt lat="48.37453" lon="-0.06942">
        <ele>174.005</ele>
        <time>2016-06-01T21:23:35Z</time>
      </trkpt>
      <trkpt lat="48.37497" lon="-0.06736">
        <ele>182.241</ele>
        <time>2016-06-01T21:23:15Z</time>
      </trkpt>
      <trkpt lat="48.37536" lon="-0.06736">
        <ele>176.521</ele>
        <time>2016-06-01T21:22:55Z</time>
      </trkpt>
      <trkpt lat="48.37571" lon="-0.06724">
        <ele>172.064</ele>
        <time>2016-06-01T21:22:35Z</time>
      </trkpt>
      <trkpt lat="48.37523" lon="-0.06629">
        <ele>178.985</ele>
        <time>2016-06-01T21:22:15Z</time>
      </trkpt>
      <trkpt lat="48.37512" lon="-0.06595">
        <ele>179.959</ele>
        <time>2016-06-01T21:21:55Z</time>
      </trkpt>
      <trkpt lat="48.37483" lon="-0.06548">
        <ele>185.047</ele>
        <time>2016-06-01T21:21:35Z</time>
      </trkpt>
      <trkpt lat="48.37469" lon="-0.06518">
        <ele>187.381</ele>
        <time>2016-06-01T21:21:15Z</time>
      </trkpt>
      <trkpt lat="48.37456" lon="-0.06425">
        <ele>188.968</ele>
        <time>2016-06-01T21:20:55Z</time>
      </trkpt>
      <trkpt lat="48.37453" lon="-0.06391">
        <ele>191.043</ele>
        <time>2016-06-01T21:20:35Z</time>
      </trkpt>
      <trkpt lat="48.37453" lon="-0.06339">
        <ele>193.537</ele>
        <time>2016-06-01T21:20:15Z</time>
      </trkpt>
      <trkpt lat="48.37449" lon="-0.0626">
        <ele>200.408</ele>
        <time>2016-06-01T21:19:55Z</time>
      </trkpt>
      <trkpt lat="48.3745" lon="-0.06217">
        <ele>201.209</ele>
        <time>2016-06-01T21:19:35Z</time>
      </trkpt>
      <trkpt lat="48.37483" lon="-0.06138">
        <ele>194.754</ele>
        <time>2016-06-01T21:19:15Z</time>
      </trkpt>
      <trkpt lat="48.3749" lon="-0.06065">
        <ele>193.814</ele>
        <time>2016-06-01T21:18:55Z</time>
      </trkpt>
      <trkpt lat="48.37517" lon="-0.06046">
        <ele>189.759</ele>
        <time>2016-06-01T21:18:35Z</time>
      </trkpt>
      <trkpt lat="48.37531" lon="-0.0597">
        <ele>189.22</ele>
        <time>2016-06-01T21:18:15Z</time>
      </trkpt>
      <trkpt lat="48.37586" lon="-0.0591">
        <ele>183.954</ele>
        <time>2016-06-01T21:17:55Z</time>
      </trkpt>
      <trkpt lat="48.37594" lon="-0.05872">
        <ele>182.532</ele>
        <time>2016-06-01T21:17:35Z</time>
      </trkpt>
      <trkpt lat="48.3763" lon="-0.05833">
        <ele>173.086</ele>
        <time>2016-06-01T21:17:15Z</time>
      </trkpt>
      <trkpt lat="48.37704" lon="-0.05805">
        <ele>167.723</ele>
        <time>2016-06-01T21:16:55Z</time>
      </trkpt>
      <trkpt lat="48.3774" lon="-0.05743">
        <ele>160.748</ele>
        <time>2016-06-01T21:16:35Z</time>
      </trkpt>
      <trkpt lat="48.37752" lon="-0.05664">
        <ele>157.562</ele>
        <time>2016-06-01T21:16:15Z</time>
      </trkpt>
      <trkpt lat="48.37703" lon="-0.05634">
        <ele>163.708</ele>
        <time>2016-06-01T21:15:55Z</time>
      </trkpt>
      <trkpt lat="48.37688" lon="-0.05631">
        <ele>166.126</ele>
        <time>2016-06-01T21:15:35Z</time>
      </trkpt>
      <trkpt lat="48.3766" lon="-0.0564">
        <ele>170.842</ele>
        <time>2016-06-01T21:15:15Z</time>
      </trkpt>
      <trkpt lat="48.37516" lon="-0.05661">
        <ele>183.268</ele>
        <time>2016-06-01T21:14:55Z</time>
      </trkpt>
      <trkpt lat="48.37446" lon="-0.05704">
        <ele>192.322</ele>
        <time>2016-06-01T21:14:35Z</time>
      </trkpt>
      <trkpt lat="48.37399" lon="-0.05719">
        <ele>197.763</ele>
        <time>2016-06-01T21:14:15Z</time>
      </trkpt>
      <trkpt lat="48.37376" lon="-0.05704">
        <ele>197.767</ele>
        <time>2016-06-01T21:13:55Z</time>
      </trkpt>
      <trkpt lat="48.37363" lon="-0.05668">
        <ele>195.125</ele>
        <time>2016-06-01T21:13:35Z</time>
      </trkpt>
      <trkpt lat="48.37312" lon="-0.05676">
        <ele>197.289</ele>
        <time>2016-06-01T21:13:15Z</time>
      </trkpt>
      <trkpt lat="48.37235" lon="-0.05651">
        <ele>198.056</ele>
        <time>2016-06-01T21:12:55Z</time>
      </trkpt>
      <trkpt lat="48.37256" lon="-0.05314">
        <ele>196.571</ele>
        <time>2016-06-01T21:12:35Z</time>
      </trkpt>
      <trkpt lat="48.37358" lon="-0.05207">
        <ele>193.195</ele>
        <time>2016-06-01T21:12:15Z</time>
      </trkpt>
      <trkpt lat="48.3739" lon="-0.05121">
        <ele>187.708</ele>
        <time>2016-06-01T21:11:55Z</time>
      </trkpt>
      <trkpt lat="48.37403" lon="-0.05039">
        <ele>186.223</ele>
        <time>2016-06-01T21:11:35Z</time>
      </trkpt>
      <trkpt lat="48.37416" lon="-0.04962">
        <ele>180.949</ele>
        <time>2016-06-01T21:11:15Z</time>
      </trkpt>
      <trkpt lat="48.3747" lon="-0.04902">
        <ele>166.195</ele>
        <time>2016-06-01T21:10:55Z</time>
      </trkpt>
      <trkpt lat="48.37516" lon="-0.04857">
        <ele>158.118</ele>
        <time>2016-06-01T21:10:35Z</time>
      </trkpt>
      <trkpt lat="48.3757" lon="-0.04867">
        <ele>134.169</ele>
        <time>2016-06-01T21:10:15Z</time>
      </trkpt>
      <trkpt lat="48.37631" lon="-0.04921">
        <ele>122.063</ele>
        <time>2016-06-01T21:09:55Z</time>
      </trkpt>
      <trkpt lat="48.37851" lon="-0.05095">
        <ele>121.551</ele>
        <time>2016-06-01T21:09:35Z</time>
      </trkpt>
      <trkpt lat="48.37889" lon="-0.05119">
        <ele>121.045</ele>
        <time>2016-06-01T21:09:15Z</time>
      </trkpt>
      <trkpt lat="48.37906" lon="-0.05211">
        <ele>127.832</ele>
        <time>2016-06-01T21:08:55Z</time>
      </trkpt>
      <trkpt lat="48.37933" lon="-0.05252">
        <ele>131.637</ele>
        <time>2016-06-01T21:08:35Z</time>
      </trkpt>
      <trkpt lat="48.37936" lon="-0.05275">
        <ele>131.761</ele>
        <time>2016-06-01T21:08:15Z</time>
      </trkpt>
      <trkpt lat="48.37945" lon="-0.05286">
        <ele>131.108</ele>
        <time>2016-06-01T21:07:55Z</time>
      </trkpt>
      <trkpt lat="48.38066" lon="-0.05258">
        <ele>133.911</ele>
        <time>2016-06-01T21:07:35Z</time>
      </trkpt>
      <trkpt lat="48.3809" lon="-0.05241">
        <ele>136.501</ele>
        <time>2016-06-01T21:07:15Z</time>
      </trkpt>
      <trkpt lat="48.38126" lon="-0.05189">
        <ele>145.351</ele>
        <time>2016-06-01T21:06:55Z</time>
      </trkpt>
      <trkpt lat="48.3816" lon="-0.05157">
        <ele>149.014</ele>
        <time>2016-06-01T21:06:35Z</time>
      </trkpt>
      <trkpt lat="48.38164" lon="-0.05131">
        <ele>150.435</ele>
        <time>2016-06-01T21:06:15Z</time>
      </trkpt>
      <trkpt lat="48.38294" lon="-0.05099">
        <ele>162.699</ele>
        <time>2016-06-01T21:05:55Z</time>
      </trkpt>
      <trkpt lat="48.38318" lon="-0.05082">
        <ele>163.987</ele>
        <time>2016-06-01T21:05:35Z</time>
      </trkpt>
      <trkpt lat="48.38391" lon="-0.05041">
        <ele>168.761</ele>
        <time>2016-06-01T21:05:15Z</time>
      </trkpt>
      <trkpt lat="48.38448" lon="-0.05041">
        <ele>173.528</ele>
        <time>2016-06-01T21:04:55Z</time>
      </trkpt>
      <trkpt lat="48.38486" lon="-0.05033">
        <ele>173.273</ele>
        <time>2016-06-01T21:04:35Z</time>
      </trkpt>
      <trkpt lat="48.38563" lon="-0.04964">
        <ele>174.657</ele>
        <time>2016-06-01T21:04:15Z</time>
      </trkpt>
      <trkpt lat="48.38616" lon="-0.04934">
        <ele>179.808</ele>
        <time>2016-06-01T21:03:55Z</time>
      </trkpt>
      <trkpt lat="48.38682" lon="-0.04915">
        <ele>185.503</ele>
        <time>2016-06-01T21:03:35Z</time>
      </trkpt>
      <trkpt lat="48.38841" lon="-0.04932">
        <ele>187.721</ele>
        <time>2016-06-01T21:03:15Z</time>
      </trkpt>
      <trkpt lat="48.38997" lon="-0.04805">
        <ele>182.111</ele>
        <time>2016-06-01T21:02:55Z</time>
      </trkpt>
      <trkpt lat="48.39049" lon="-0.0497">
        <ele>176.398</ele>
        <time>2016-06-01T21:02:35Z</time>
      </trkpt>
      <trkpt lat="48.39059" lon="-0.0496">
        <ele>176.429</ele>
        <time>2016-06-01T21:02:15Z</time>
      </trkpt>
      <trkpt lat="48.3914" lon="-0.04981">
        <ele>176.473</ele>
        <time>2016-06-01T21:01:55Z</time>
      </trkpt>
      <trkpt lat="48.39182" lon="-0.05056">
        <ele>170.951</ele>
        <time>2016-06-01T21:01:35Z</time>
      </trkpt>
      <trkpt lat="48.39216" lon="-0.05084">
        <ele>170.575</ele>
        <time>2016-06-01T21:01:15Z</time>
      </trkpt>
      <trkpt lat="48.39239" lon="-0.05088">
        <ele>170.252</ele>
        <time>2016-06-01T21:00:55Z</time>
      </trkpt>
      <trkpt lat="48.3942" lon="-0.05114">
        <ele>158.027</ele>
        <time>2016-06-01T21:00:35Z</time>
      </trkpt>
      <trkpt lat="48.3949" lon="-0.05127">
        <ele>157.651</ele>
        <time>2016-06-01T21:00:15Z</time>
      </trkpt>
      <trkpt lat="48.39528" lon="-0.05123">
        <ele>157.608</ele>
        <time>2016-06-01T20:59:55Z</time>
      </trkpt>
      <trkpt lat="48.39636" lon="-0.05153">
        <ele>163.417</ele>
        <time>2016-06-01T20:59:35Z</time>
      </trkpt>
      <trkpt lat="48.39672" lon="-0.05146">
        <ele>167.707</ele>
        <time>2016-06-01T20:59:15Z</time>
      </trkpt>
      <trkpt lat="48.39716" lon="-0.05121">
        <ele>173.355</ele>
        <time>2016-06-01T20:58:55Z</time>
      </trkpt>
      <trkpt lat="48.39745" lon="-0.05123">
        <ele>175.967</ele>
        <time>2016-06-01T20:58:35Z</time>
      </trkpt>
      <trkpt lat="48.39752" lon="-0.05148">
        <ele>177.538</ele>
        <time>2016-06-01T20:58:15Z</time>
      </trkpt>
      <trkpt lat="48.39752" lon="-0.05148">
        <ele>177.532</ele>
        <time>2016-06-01T20:57:55Z</time>
      </trkpt>
      <trkpt lat="48.39753" lon="-0.05143">
        <ele>177.53</ele>
        <time>2016-06-01T20:57:35Z</time>
      </trkpt>
      <trkpt lat="48.39756" lon="-0.05203">
        <ele>178.444</ele>
        <time>2016-06-01T20:57:15Z</time>
      </trkpt>
      <trkpt lat="48.39861" lon="-0.05182">
        <ele>183.011</ele>
        <time>2016-06-01T20:56:55Z</time>
      </trkpt>
      <trkpt lat="48.40199" lon="-0.05308">
        <ele>171.236</ele>
        <time>2016-06-01T20:56:35Z</time>
      </trkpt>
      <trkpt lat="48.4043" lon="-0.05433">
        <ele>163.67</ele>
        <time>2016-06-01T20:56:15Z</time>
      </trkpt>
      <trkpt lat="48.40435" lon="-0.05435">
        <ele>163.208</ele>
        <time>2016-06-01T20:55:55Z</time>
      </trkpt>
      <trkpt lat="48.40463" lon="-0.05439">
        <ele>161.909</ele>
        <time>2016-06-01T20:55:35Z</time>
      </trkpt>
      <trkpt lat="48.40645" lon="-0.05353">
        <ele>170.181</ele>
        <time>2016-06-01T20:55:15Z</time>
      </trkpt>
      <trkpt lat="48.40696" lon="-0.05319">
        <ele>171.141</ele>
        <time>2016-06-01T20:54:55Z</time>
      </trkpt>
      <trkpt lat="48.40726" lon="-0.05317">
        <ele>171.647</ele>
        <time>2016-06-01T20:54:35Z</time>
      </trkpt>
      <trkpt lat="48.40783" lon="-0.05369">
        <ele>169.048</ele>
        <time>2016-06-01T20:54:15Z</time>
      </trkpt>
      <trkpt lat="48.40883" lon="-0.0539">
        <ele>166.232</ele>
        <time>2016-06-01T20:53:55Z</time>
      </trkpt>
      <trkpt lat="48.40945" lon="-0.0539">
        <ele>166.06</ele>
        <time>2016-06-01T20:53:35Z</time>
      </trkpt>
      <trkpt lat="48.41089" lon="-0.05403">
        <ele>163.614</ele>
        <time>2016-06-01T20:53:15Z</time>
      </trkpt>
      <trkpt lat="48.41076" lon="-0.0575">
        <ele>172.081</ele>
        <time>2016-06-01T20:52:55Z</time>
      </trkpt>
      <trkpt lat="48.41101" lon="-0.05738">
        <ele>172.086</ele>
        <time>2016-06-01T20:52:35Z</time>
      </trkpt>
      <trkpt lat="48.41169" lon="-0.05624">
        <ele>169.45</ele>
        <time>2016-06-01T20:52:15Z</time>
      </trkpt>
      <trkpt lat="48.41219" lon="-0.0563">
        <ele>169.608</ele>
        <time>2016-06-01T20:51:55Z</time>
      </trkpt>
      <trkpt lat="48.41246" lon="-0.05652">
        <ele>170.317</ele>
        <time>2016-06-01T20:51:35Z</time>
      </trkpt>
      <trkpt lat="48.4127" lon="-0.05695">
        <ele>171.761</ele>
        <time>2016-06-01T20:51:15Z</time>
      </trkpt>
      <trkpt lat="48.41274" lon="-0.05723">
        <ele>172.848</ele>
        <time>2016-06-01T20:50:55Z</time>
      </trkpt>
      <trkpt lat="48.4131" lon="-0.05748">
        <ele>175.18</ele>
        <time>2016-06-01T20:50:35Z</time>
      </trkpt>
      <trkpt lat="48.41397" lon="-0.05815">
        <ele>179.791</ele>
        <time>2016-06-01T20:50:15Z</time>
      </trkpt>
      <trkpt lat="48.41507" lon="-0.05914">
        <ele>182.315</ele>
        <time>2016-06-01T20:49:55Z</time>
      </trkpt>
      <trkpt lat="48.41673" lon="-0.06087">
        <ele>181.393</ele>
        <time>2016-06-01T20:49:35Z</time>
      </trkpt>
      <trkpt lat="48.41705" lon="-0.06102">
        <ele>181.067</ele>
        <time>2016-06-01T20:49:15Z</time>
      </trkpt>
      <trkpt lat="48.41743" lon="-0.06087">
        <ele>178.374</ele>
        <time>2016-06-01T20:48:55Z</time>
      </trkpt>
      <trkpt lat="48.41867" lon="-0.0601">
        <ele>177.339</ele>
        <time>2016-06-01T20:48:35Z</time>
      </trkpt>
      <trkpt lat="48.41905" lon="-0.05997">
        <ele>176.013</ele>
        <time>2016-06-01T20:48:15Z</time>
      </trkpt>
      <trkpt lat="48.41914" lon="-0.0604">
        <ele>178.508</ele>
        <time>2016-06-01T20:47:55Z</time>
      </trkpt>
      <trkpt lat="48.41954" lon="-0.06308">
        <ele>187.719</ele>
        <time>2016-06-01T20:47:35Z</time>
      </trkpt>
      <trkpt lat="48.41961" lon="-0.06364">
        <ele>189.09</ele>
        <time>2016-06-01T20:47:15Z</time>
      </trkpt>
      <trkpt lat="48.41982" lon="-0.06371">
        <ele>189.076</ele>
        <time>2016-06-01T20:46:55Z</time>
      </trkpt>
      <trkpt lat="48.42028" lon="-0.06353">
        <ele>189.01</ele>
        <time>2016-06-01T20:46:35Z</time>
      </trkpt>
      <trkpt lat="48.42072" lon="-0.06377">
        <ele>189.861</ele>
        <time>2016-06-01T20:46:15Z</time>
      </trkpt>
      <trkpt lat="48.42115" lon="-0.06398">
        <ele>189.325</ele>
        <time>2016-06-01T20:45:55Z</time>
      </trkpt>
      <trkpt lat="48.42159" lon="-0.0642">
        <ele>191.043</ele>
        <time>2016-06-01T20:45:35Z</time>
      </trkpt>
      <trkpt lat="48.42183" lon="-0.06469">
        <ele>190.617</ele>
        <time>2016-06-01T20:45:15Z</time>
      </trkpt>
      <trkpt lat="48.42196" lon="-0.06512">
        <ele>191.194</ele>
        <time>2016-06-01T20:44:55Z</time>
      </trkpt>
      <trkpt lat="48.42217" lon="-0.06555">
        <ele>192.649</ele>
        <time>2016-06-01T20:44:35Z</time>
      </trkpt>
      <trkpt lat="48.42274" lon="-0.066">
        <ele>196.523</ele>
        <time>2016-06-01T20:44:15Z</time>
      </trkpt>
      <trkpt lat="48.42276" lon="-0.06654">
        <ele>197.008</ele>
        <time>2016-06-01T20:43:55Z</time>
      </trkpt>
      <trkpt lat="48.42268" lon="-0.06722">
        <ele>197.027</ele>
        <time>2016-06-01T20:43:35Z</time>
      </trkpt>
      <trkpt lat="48.42236" lon="-0.06772">
        <ele>196.661</ele>
        <time>2016-06-01T20:43:15Z</time>
      </trkpt>
      <trkpt lat="48.42231" lon="-0.0681">
        <ele>196.377</ele>
        <time>2016-06-01T20:42:55Z</time>
      </trkpt>
      <trkpt lat="48.42243" lon="-0.06928">
        <ele>198.841</ele>
        <time>2016-06-01T20:42:35Z</time>
      </trkpt>
      <trkpt lat="48.42293" lon="-0.06935">
        <ele>198.552</ele>
        <time>2016-06-01T20:42:15Z</time>
      </trkpt>
      <trkpt lat="48.42358" lon="-0.06946">
        <ele>199.086</ele>
        <time>2016-06-01T20:41:55Z</time>
      </trkpt>
      <trkpt lat="48.42358" lon="-0.06946">
        <ele>199.024</ele>
        <time>2016-06-01T20:41:35Z</time>
      </trkpt>
      <trkpt lat="48.42384" lon="-0.06939">
        <ele>199.858</ele>
        <time>2016-06-01T20:41:15Z</time>
      </trkpt>
      <trkpt lat="48.42493" lon="-0.06858">
        <ele>199.855</ele>
        <time>2016-06-01T20:40:55Z</time>
      </trkpt>
      <trkpt lat="48.42624" lon="-0.06707">
        <ele>199.88</ele>
        <time>2016-06-01T20:40:35Z</time>
      </trkpt>
      <trkpt lat="48.42671" lon="-0.0666">
        <ele>201.074</ele>
        <time>2016-06-01T20:40:15Z</time>
      </trkpt>
      <trkpt lat="48.42723" lon="-0.06622">
        <ele>202.608</ele>
        <time>2016-06-01T20:39:55Z</time>
      </trkpt>
      <trkpt lat="48.4278" lon="-0.06574">
        <ele>203.126</ele>
        <time>2016-06-01T20:39:35Z</time>
      </trkpt>
      <trkpt lat="48.42896" lon="-0.0645">
        <ele>208.142</ele>
        <time>2016-06-01T20:39:15Z</time>
      </trkpt>
      <trkpt lat="48.42933" lon="-0.06358">
        <ele>206.887</ele>
        <time>2016-06-01T20:38:55Z</time>
      </trkpt>
      <trkpt lat="48.42972" lon="-0.0628">
        <ele>203.14</ele>
        <time>2016-06-01T20:38:35Z</time>
      </trkpt>
      <trkpt lat="48.43002" lon="-0.06225">
        <ele>203.121</ele>
        <time>2016-06-01T20:38:15Z</time>
      </trkpt>
      <trkpt lat="48.43053" lon="-0.06171">
        <ele>202.185</ele>
        <time>2016-06-01T20:37:55Z</time>
      </trkpt>
      <trkpt lat="48.43146" lon="-0.06124">
        <ele>199.863</ele>
        <time>2016-06-01T20:37:35Z</time>
      </trkpt>
      <trkpt lat="48.43305" lon="-0.06098">
        <ele>194.027</ele>
        <time>2016-06-01T20:37:15Z</time>
      </trkpt>
      <trkpt lat="48.43392" lon="-0.06066">
        <ele>188.024</ele>
        <time>2016-06-01T20:36:55Z</time>
      </trkpt>
      <trkpt lat="48.43453" lon="-0.0607">
        <ele>185.399</ele>
        <time>2016-06-01T20:36:35Z</time>
      </trkpt>
      <trkpt lat="48.43605" lon="-0.06126">
        <ele>189.843</ele>
        <time>2016-06-01T20:36:15Z</time>
      </trkpt>
      <trkpt lat="48.43833" lon="-0.06227">
        <ele>189.008</ele>
        <time>2016-06-01T20:35:55Z</time>
      </trkpt>
      <trkpt lat="48.43954" lon="-0.06259">
        <ele>189.115</ele>
        <time>2016-06-01T20:35:35Z</time>
      </trkpt>
      <trkpt lat="48.4402" lon="-0.06263">
        <ele>187.941</ele>
        <time>2016-06-01T20:35:15Z</time>
      </trkpt>
      <trkpt lat="48.44142" lon="-0.06238">
        <ele>184.671</ele>
        <time>2016-06-01T20:34:55Z</time>
      </trkpt>
      <trkpt lat="48.44222" lon="-0.06263">
        <ele>189.549</ele>
        <time>2016-06-01T20:34:35Z</time>
      </trkpt>
      <trkpt lat="48.44299" lon="-0.0628">
        <ele>191.01</ele>
        <time>2016-06-01T20:34:15Z</time>
      </trkpt>
      <trkpt lat="48.44367" lon="-0.06321">
        <ele>193.874</ele>
        <time>2016-06-01T20:33:55Z</time>
      </trkpt>
      <trkpt lat="48.44444" lon="-0.06375">
        <ele>198.582</ele>
        <time>2016-06-01T20:33:35Z</time>
      </trkpt>
      <trkpt lat="48.44497" lon="-0.06364">
        <ele>199.066</ele>
        <time>2016-06-01T20:33:15Z</time>
      </trkpt>
      <trkpt lat="48.44548" lon="-0.06388">
        <ele>200.053</ele>
        <time>2016-06-01T20:32:55Z</time>
      </trkpt>
      <trkpt lat="48.44595" lon="-0.06386">
        <ele>201.528</ele>
        <time>2016-06-01T20:32:35Z</time>
      </trkpt>
      <trkpt lat="48.4464" lon="-0.06409">
        <ele>202.872</ele>
        <time>2016-06-01T20:32:15Z</time>
      </trkpt>
      <trkpt lat="48.44666" lon="-0.06405">
        <ele>204.508</ele>
        <time>2016-06-01T20:31:55Z</time>
      </trkpt>
      <trkpt lat="48.44743" lon="-0.06259">
        <ele>204.218</ele>
        <time>2016-06-01T20:31:35Z</time>
      </trkpt>
      <trkpt lat="48.44777" lon="-0.06158">
        <ele>202.744</ele>
        <time>2016-06-01T20:31:15Z</time>
      </trkpt>
      <trkpt lat="48.44813" lon="-0.06107">
        <ele>203.063</ele>
        <time>2016-06-01T20:30:55Z</time>
      </trkpt>
      <trkpt lat="48.44837" lon="-0.06105">
        <ele>202.852</ele>
        <time>2016-06-01T20:30:35Z</time>
      </trkpt>
      <trkpt lat="48.44921" lon="-0.06083">
        <ele>204.093</ele>
        <time>2016-06-01T20:30:15Z</time>
      </trkpt>
      <trkpt lat="48.44975" lon="-0.06032">
        <ele>202.037</ele>
        <time>2016-06-01T20:29:55Z</time>
      </trkpt>
      <trkpt lat="48.45042" lon="-0.05991">
        <ele>198.885</ele>
        <time>2016-06-01T20:29:35Z</time>
      </trkpt>
      <trkpt lat="48.4513" lon="-0.05959">
        <ele>204.029</ele>
        <time>2016-06-01T20:29:15Z</time>
      </trkpt>
      <trkpt lat="48.45187" lon="-0.05956">
        <ele>206.976</ele>
        <time>2016-06-01T20:28:55Z</time>
      </trkpt>
      <trkpt lat="48.45487" lon="-0.05886">
        <ele>194.351</ele>
        <time>2016-06-01T20:28:35Z</time>
      </trkpt>
      <trkpt lat="48.45565" lon="-0.05768">
        <ele>189.275</ele>
        <time>2016-06-01T20:28:15Z</time>
      </trkpt>
      <trkpt lat="48.45588" lon="-0.05688">
        <ele>191.408</ele>
        <time>2016-06-01T20:27:55Z</time>
      </trkpt>
      <trkpt lat="48.45646" lon="-0.0565">
        <ele>194.019</ele>
        <time>2016-06-01T20:27:35Z</time>
      </trkpt>
      <trkpt lat="48.45701" lon="-0.05658">
        <ele>193.981</ele>
        <time>2016-06-01T20:27:15Z</time>
      </trkpt>
      <trkpt lat="48.45691" lon="-0.05635">
        <ele>193.191</ele>
        <time>2016-06-01T20:26:55Z</time>
      </trkpt>
      <trkpt lat="48.45691" lon="-0.05568">
        <ele>192.431</ele>
        <time>2016-06-01T20:26:35Z</time>
      </trkpt>
      <trkpt lat="48.45894" lon="-0.05624">
        <ele>195.812</ele>
        <time>2016-06-01T20:26:15Z</time>
      </trkpt>
      <trkpt lat="48.45933" lon="-0.05656">
        <ele>199.956</ele>
        <time>2016-06-01T20:25:55Z</time>
      </trkpt>
      <trkpt lat="48.46129" lon="-0.058">
        <ele>199.984</ele>
        <time>2016-06-01T20:25:35Z</time>
      </trkpt>
      <trkpt lat="48.46157" lon="-0.05838">
        <ele>198.538</ele>
        <time>2016-06-01T20:25:15Z</time>
      </trkpt>
      <trkpt lat="48.4619" lon="-0.05864">
        <ele>199.165</ele>
        <time>2016-06-01T20:24:55Z</time>
      </trkpt>
      <trkpt lat="48.46265" lon="-0.05883">
        <ele>199.51</ele>
        <time>2016-06-01T20:24:35Z</time>
      </trkpt>
      <trkpt lat="48.46349" lon="-0.05911">
        <ele>201.564</ele>
        <time>2016-06-01T20:24:15Z</time>
      </trkpt>
      <trkpt lat="48.46512" lon="-0.05944">
        <ele>199.508</ele>
        <time>2016-06-01T20:23:55Z</time>
      </trkpt>
      <trkpt lat="48.46559" lon="-0.05956">
        <ele>200.517</ele>
        <time>2016-06-01T20:23:35Z</time>
      </trkpt>
      <trkpt lat="48.46725" lon="-0.06021">
        <ele>206.061</ele>
        <time>2016-06-01T20:23:15Z</time>
      </trkpt>
      <trkpt lat="48.46805" lon="-0.06062">
        <ele>216.581</ele>
        <time>2016-06-01T20:22:55Z</time>
      </trkpt>
      <trkpt lat="48.46826" lon="-0.06094">
        <ele>224.681</ele>
        <time>2016-06-01T20:22:35Z</time>
      </trkpt>
      <trkpt lat="48.46863" lon="-0.0619">
        <ele>237.382</ele>
        <time>2016-06-01T20:22:15Z</time>
      </trkpt>
      <trkpt lat="48.46893" lon="-0.0628">
        <ele>245.946</ele>
        <time>2016-06-01T20:21:55Z</time>
      </trkpt>
      <trkpt lat="48.46899" lon="-0.06422">
        <ele>251.684</ele>
        <time>2016-06-01T20:21:35Z</time>
      </trkpt>
      <trkpt lat="48.46909" lon="-0.06482">
        <ele>256.518</ele>
        <time>2016-06-01T20:21:15Z</time>
      </trkpt>
      <trkpt lat="48.4694" lon="-0.06692">
        <ele>263.325</ele>
        <time>2016-06-01T20:20:55Z</time>
      </trkpt>
      <trkpt lat="48.46984" lon="-0.06748">
        <ele>265.06</ele>
        <time>2016-06-01T20:20:35Z</time>
      </trkpt>
      <trkpt lat="48.47025" lon="-0.06744">
        <ele>266.094</ele>
        <time>2016-06-01T20:20:15Z</time>
      </trkpt>
      <trkpt lat="48.47054" lon="-0.06716">
        <ele>268.008</ele>
        <time>2016-06-01T20:19:55Z</time>
      </trkpt>
      <trkpt lat="48.47105" lon="-0.0668">
        <ele>268.926</ele>
        <time>2016-06-01T20:19:35Z</time>
      </trkpt>
      <trkpt lat="48.47155" lon="-0.06658">
        <ele>267.624</ele>
        <time>2016-06-01T20:19:15Z</time>
      </trkpt>
      <trkpt lat="48.47206" lon="-0.06658">
        <ele>263.788</ele>
        <time>2016-06-01T20:18:55Z</time>
      </trkpt>
      <trkpt lat="48.47243" lon="-0.06639">
        <ele>261.018</ele>
        <time>2016-06-01T20:18:35Z</time>
      </trkpt>
      <trkpt lat="48.47311" lon="-0.06574">
        <ele>253.119</ele>
        <time>2016-06-01T20:18:15Z</time>
      </trkpt>
      <trkpt lat="48.47328" lon="-0.06577">
        <ele>250.373</ele>
        <time>2016-06-01T20:17:55Z</time>
      </trkpt>
      <trkpt lat="48.47355" lon="-0.06574">
        <ele>246.081</ele>
        <time>2016-06-01T20:17:35Z</time>
      </trkpt>
      <trkpt lat="48.47496" lon="-0.0669">
        <ele>229.625</ele>
        <time>2016-06-01T20:17:15Z</time>
      </trkpt>
      <trkpt lat="48.47596" lon="-0.06733">
        <ele>223.672</ele>
        <time>2016-06-01T20:16:55Z</time>
      </trkpt>
      <trkpt lat="48.47633" lon="-0.06735">
        <ele>226.327</ele>
        <time>2016-06-01T20:16:35Z</time>
      </trkpt>
      <trkpt lat="48.4766" lon="-0.06714">
        <ele>227.791</ele>
        <time>2016-06-01T20:16:15Z</time>
      </trkpt>
      <trkpt lat="48.47691" lon="-0.06645">
        <ele>226.108</ele>
        <time>2016-06-01T20:15:55Z</time>
      </trkpt>
      <trkpt lat="48.47708" lon="-0.06626">
        <ele>225.311</ele>
        <time>2016-06-01T20:15:35Z</time>
      </trkpt>
      <trkpt lat="48.47724" lon="-0.06602">
        <ele>224.701</ele>
        <time>2016-06-01T20:15:15Z</time>
      </trkpt>
      <trkpt lat="48.47737" lon="-0.06583">
        <ele>224.051</ele>
        <time>2016-06-01T20:14:55Z</time>
      </trkpt>
      <trkpt lat="48.47766" lon="-0.06684">
        <ele>233.296</ele>
        <time>2016-06-01T20:14:35Z</time>
      </trkpt>
      <trkpt lat="48.47785" lon="-0.06722">
        <ele>236.597</ele>
        <time>2016-06-01T20:14:15Z</time>
      </trkpt>
      <trkpt lat="48.47917" lon="-0.07074">
        <ele>270.071</ele>
        <time>2016-06-01T20:13:55Z</time>
      </trkpt>
      <trkpt lat="48.48008" lon="-0.0698">
        <ele>273.029</ele>
        <time>2016-06-01T20:13:35Z</time>
      </trkpt>
      <trkpt lat="48.48042" lon="-0.06918">
        <ele>266.633</ele>
        <time>2016-06-01T20:13:15Z</time>
      </trkpt>
      <trkpt lat="48.48057" lon="-0.06845">
        <ele>264.21</ele>
        <time>2016-06-01T20:12:55Z</time>
      </trkpt>
      <trkpt lat="48.48072" lon="-0.06643">
        <ele>265.895</ele>
        <time>2016-06-01T20:12:35Z</time>
      </trkpt>
      <trkpt lat="48.48158" lon="-0.06448">
        <ele>263.649</ele>
        <time>2016-06-01T20:12:15Z</time>
      </trkpt>
      <trkpt lat="48.4818" lon="-0.06414">
        <ele>266.308</ele>
        <time>2016-06-01T20:11:55Z</time>
      </trkpt>
      <trkpt lat="48.48323" lon="-0.06255">
        <ele>273.311</ele>
        <time>2016-06-01T20:11:35Z</time>
      </trkpt>
      <trkpt lat="48.48469" lon="-0.06077">
        <ele>256.092</ele>
        <time>2016-06-01T20:11:15Z</time>
      </trkpt>
      <trkpt lat="48.48579" lon="-0.05933">
        <ele>245.432</ele>
        <time>2016-06-01T20:10:55Z</time>
      </trkpt>
      <trkpt lat="48.48662" lon="-0.05849">
        <ele>230.067</ele>
        <time>2016-06-01T20:10:35Z</time>
      </trkpt>
      <trkpt lat="48.4882" lon="-0.05695">
        <ele>217.098</ele>
        <time>2016-06-01T20:10:15Z</time>
      </trkpt>
      <trkpt lat="48.48987" lon="-0.05544">
        <ele>214.042</ele>
        <time>2016-06-01T20:09:55Z</time>
      </trkpt>
      <trkpt lat="48.48984" lon="-0.05523">
        <ele>214.21</ele>
        <time>2016-06-01T20:09:35Z</time>
      </trkpt>
      <trkpt lat="48.48961" lon="-0.05416">
        <ele>216.194</ele>
        <time>2016-06-01T20:09:15Z</time>
      </trkpt>
      <trkpt lat="48.48928" lon="-0.05323">
        <ele>219.021</ele>
        <time>2016-06-01T20:08:55Z</time>
      </trkpt>
      <trkpt lat="48.48945" lon="-0.05306">
        <ele>219.076</ele>
        <time>2016-06-01T20:08:35Z</time>
      </trkpt>
      <trkpt lat="48.49086" lon="-0.0525">
        <ele>229.35</ele>
        <time>2016-06-01T20:08:15Z</time>
      </trkpt>
      <trkpt lat="48.49105" lon="-0.05253">
        <ele>231.308</ele>
        <time>2016-06-01T20:07:55Z</time>
      </trkpt>
      <trkpt lat="48.4914" lon="-0.05283">
        <ele>231.809</ele>
        <time>2016-06-01T20:07:35Z</time>
      </trkpt>
      <trkpt lat="48.49166" lon="-0.05296">
        <ele>230.481</ele>
        <time>2016-06-01T20:07:15Z</time>
      </trkpt>
      <trkpt lat="48.49172" lon="-0.05315">
        <ele>229.441</ele>
        <time>2016-06-01T20:06:55Z</time>
      </trkpt>
      <trkpt lat="48.49186" lon="-0.05315">
        <ele>228.748</ele>
        <time>2016-06-01T20:06:35Z</time>
      </trkpt>
      <trkpt lat="48.49214" lon="-0.053">
        <ele>226.929</ele>
        <time>2016-06-01T20:06:15Z</time>
      </trkpt>
      <trkpt lat="48.4923" lon="-0.05319">
        <ele>224.523</ele>
        <time>2016-06-01T20:05:55Z</time>
      </trkpt>
      <trkpt lat="48.49251" lon="-0.05283">
        <ele>224.621</ele>
        <time>2016-06-01T20:05:35Z</time>
      </trkpt>
      <trkpt lat="48.49267" lon="-0.05242">
        <ele>222.595</ele>
        <time>2016-06-01T20:05:15Z</time>
      </trkpt>
      <trkpt lat="48.4929" lon="-0.05229">
        <ele>219.162</ele>
        <time>2016-06-01T20:04:55Z</time>
      </trkpt>
      <trkpt lat="48.49311" lon="-0.05178">
        <ele>216.587</ele>
        <time>2016-06-01T20:04:35Z</time>
      </trkpt>
      <trkpt lat="48.49317" lon="-0.05137">
        <ele>216.791</ele>
        <time>2016-06-01T20:04:15Z</time>
      </trkpt>
      <trkpt lat="48.49304" lon="-0.05018">
        <ele>218.008</ele>
        <time>2020-12-24T02:08:35Z</time>
      </trkpt>
      <trkpt lat="48.49313" lon="-0.04993">
        <ele>216.011</ele>
        <time>2020-12-24T02:08:15Z</time>
      </trkpt>
      <trkpt lat="48.49253" lon="-0.04951">
        <ele>218.256</ele>
        <time>2020-12-24T02:07:55Z</time>
      </trkpt>
      <trkpt lat="48.4922" lon="-0.04951">
        <ele>218.954</ele>
        <time>2020-12-24T02:07:35Z</time>
      </trkpt>
      <trkpt lat="48.49111" lon="-0.05004">
        <ele>223.03</ele>
        <time>2020-12-24T02:07:15Z</time>
      </trkpt>
      <trkpt lat="48.49071" lon="-0.05054">
        <ele>224.341</ele>
        <time>2020-12-24T02:06:55Z</time>
      </trkpt>
      <trkpt lat="48.4903" lon="-0.05074">
        <ele>223.175</ele>
        <time>2020-12-24T02:06:35Z</time>
      </trkpt>
      <trkpt lat="48.49027" lon="-0.0503">
        <ele>218.453</ele>
        <time>2020-12-24T02:06:15Z</time>
      </trkpt>
      <trkpt lat="48.48986" lon="-0.04929">
        <ele>208.897</ele>
        <time>2020-12-24T02:05:55Z</time>
      </trkpt>
      <trkpt lat="48.48924" lon="-0.0465">
        <ele>208.314</ele>
        <time>2020-12-24T02:05:35Z</time>
      </trkpt>
      <trkpt lat="48.48794" lon="-0.04176">
        <ele>232.839</ele>
        <time>2020-12-24T02:05:15Z</time>
      </trkpt>
      <trkpt lat="48.48821" lon="-0.04153">
        <ele>232.543</ele>
        <time>2020-12-24T02:04:55Z</time>
      </trkpt>
      <trkpt lat="48.48836" lon="-0.04113">
        <ele>234.908</ele>
        <time>2020-12-24T02:04:35Z</time>
      </trkpt>
      <trkpt lat="48.48868" lon="-0.03872">
        <ele>243.026</ele>
        <time>2020-12-24T02:04:15Z</time>
      </trkpt>
      <trkpt lat="48.48876" lon="-0.03675">
        <ele>247.433</ele>
        <time>2020-12-24T02:03:55Z</time>
      </trkpt>
      <trkpt lat="48.489" lon="-0.03655">
        <ele>244.678</ele>
        <time>2020-12-24T02:03:35Z</time>
      </trkpt>
      <trkpt lat="48.49098" lon="-0.03691">
        <ele>229.154</ele>
        <time>2020-12-24T02:03:15Z</time>
      </trkpt>
      <trkpt lat="48.49122" lon="-0.03685">
        <ele>226.985</ele>
        <time>2020-12-24T02:02:55Z</time>
      </trkpt>
      <trkpt lat="48.49117" lon="-0.03649">
        <ele>228.779</ele>
        <time>2020-12-24T02:02:35Z</time>
      </trkpt>
      <trkpt lat="48.49099" lon="-0.03611">
        <ele>231.847</ele>
        <time>2020-12-24T02:02:15Z</time>
      </trkpt>
      <trkpt lat="48.49099" lon="-0.03581">
        <ele>232.691</ele>
        <time>2020-12-24T02:01:55Z</time>
      </trkpt>
      <trkpt lat="48.49138" lon="-0.03546">
        <ele>227.918</ele>
        <time>2020-12-24T02:01:35Z</time>
      </trkpt>
      <trkpt lat="48.49164" lon="-0.03446">
        <ele>228.933</ele>
        <time>2020-12-24T02:01:15Z</time>
      </trkpt>
      <trkpt lat="48.49165" lon="-0.03385">
        <ele>232.027</ele>
        <time>2020-12-24T02:00:55Z</time>
      </trkpt>
      <trkpt lat="48.4919" lon="-0.03317">
        <ele>232.508</ele>
        <time>2020-12-24T02:00:35Z</time>
      </trkpt>
      <trkpt lat="48.49239" lon="-0.0325">
        <ele>231.319</ele>
        <time>2020-12-24T02:00:15Z</time>
      </trkpt>
      <trkpt lat="48.49307" lon="-0.03199">
        <ele>231.009</ele>
        <time>2020-12-24T01:59:55Z</time>
      </trkpt>
      <trkpt lat="48.49337" lon="-0.03204">
        <ele>229.019</ele>
        <time>2020-12-24T01:59:35Z</time>
      </trkpt>
      <trkpt lat="48.49336" lon="-0.03168">
        <ele>232.052</ele>
        <time>2020-12-24T01:59:15Z</time>
      </trkpt>
      <trkpt lat="48.49348" lon="-0.0313">
        <ele>233.873</ele>
        <time>2016-06-01T19:57:35Z</time>
      </trkpt>
      <trkpt lat="48.49442" lon="-0.02997">
        <ele>244.037</ele>
        <time>2016-06-01T19:57:15Z</time>
      </trkpt>
      <trkpt lat="48.49753" lon="-0.0256">
        <ele>257.895</ele>
        <time>2016-06-01T19:56:55Z</time>
      </trkpt>
      <trkpt lat="48.50111" lon="-0.02064">
        <ele>298.769</ele>
        <time>2016-06-01T19:56:35Z</time>
      </trkpt>
      <trkpt lat="48.50261" lon="-0.02296">
        <ele>299.276</ele>
        <time>2016-06-01T19:56:15Z</time>
      </trkpt>
      <trkpt lat="48.50288" lon="-0.02354">
        <ele>297.811</ele>
        <time>2016-06-01T19:55:55Z</time>
      </trkpt>
      <trkpt lat="48.50311" lon="-0.02497">
        <ele>293.185</ele>
        <time>2016-06-01T19:55:35Z</time>
      </trkpt>
      <trkpt lat="48.50346" lon="-0.02536">
        <ele>290.908</ele>
        <time>2016-06-01T19:55:15Z</time>
      </trkpt>
      <trkpt lat="48.50566" lon="-0.02729">
        <ele>298.72</ele>
        <time>2016-06-01T19:54:55Z</time>
      </trkpt>
      <trkpt lat="48.50613" lon="-0.0274">
        <ele>299.373</ele>
        <time>2016-06-01T19:54:35Z</time>
      </trkpt>
      <trkpt lat="48.50662" lon="-0.02723">
        <ele>299.092</ele>
        <time>2016-06-01T19:54:15Z</time>
      </trkpt>
      <trkpt lat="48.50731" lon="-0.02682">
        <ele>296.45</ele>
        <time>2016-06-01T19:53:55Z</time>
      </trkpt>
      <trkpt lat="48.50788" lon="-0.02661">
        <ele>292.611</ele>
        <time>2016-06-01T19:53:35Z</time>
      </trkpt>
      <trkpt lat="48.50847" lon="-0.02656">
        <ele>290.125</ele>
        <time>2016-06-01T19:53:15Z</time>
      </trkpt>
      <trkpt lat="48.50905" lon="-0.02673">
        <ele>285.443</ele>
        <time>2016-06-01T19:52:55Z</time>
      </trkpt>
      <trkpt lat="48.50937" lon="-0.02667">
        <ele>286.227</ele>
        <time>2016-06-01T19:52:35Z</time>
      </trkpt>
      <trkpt lat="48.5095" lon="-0.02676">
        <ele>284.494</ele>
        <time>2016-06-01T19:52:15Z</time>
      </trkpt>
      <trkpt lat="48.51044" lon="-0.02633">
        <ele>285.819</ele>
        <time>2016-06-01T19:51:55Z</time>
      </trkpt>
      <trkpt lat="48.51048" lon="-0.02611">
        <ele>286.783</ele>
        <time>2016-06-01T19:51:35Z</time>
      </trkpt>
      <trkpt lat="48.51048" lon="-0.02611">
        <ele>286.708</ele>
        <time>2016-06-01T19:51:15Z</time>
      </trkpt>
      <trkpt lat="48.51058" lon="-0.02588">
        <ele>288.526</ele>
        <time>2016-06-01T19:50:55Z</time>
      </trkpt>
      <trkpt lat="48.511" lon="-0.0257">
        <ele>287.733</ele>
        <time>2016-06-01T19:50:35Z</time>
      </trkpt>
      <trkpt lat="48.51115" lon="-0.02558">
        <ele>287.878</ele>
        <time>2016-06-01T19:50:15Z</time>
      </trkpt>
      <trkpt lat="48.51142" lon="-0.025">
        <ele>295.26</ele>
        <time>2016-06-01T19:49:55Z</time>
      </trkpt>
      <trkpt lat="48.51139" lon="-0.02422">
        <ele>303.491</ele>
        <time>2016-06-01T19:49:35Z</time>
      </trkpt>
      <trkpt lat="48.51148" lon="-0.02388">
        <ele>305.765</ele>
        <time>2016-06-01T19:49:15Z</time>
      </trkpt>
      <trkpt lat="48.51175" lon="-0.02358">
        <ele>306.873</ele>
        <time>2016-06-01T19:48:55Z</time>
      </trkpt>
      <trkpt lat="48.512" lon="-0.02313">
        <ele>306.987</ele>
        <time>2016-06-01T19:48:35Z</time>
      </trkpt>
      <trkpt lat="48.51215" lon="-0.02246">
        <ele>308.114</ele>
        <time>2016-06-01T19:48:15Z</time>
      </trkpt>
      <trkpt lat="48.5122" lon="-0.02184">
        <ele>310.359</ele>
        <time>2016-06-01T19:47:55Z</time>
      </trkpt>
      <trkpt lat="48.5122" lon="-0.02111">
        <ele>313.983</ele>
        <time>2016-06-01T19:47:35Z</time>
      </trkpt>
      <trkpt lat="48.51215" lon="-0.02047">
        <ele>317.008</ele>
        <time>2016-06-01T19:47:15Z</time>
      </trkpt>
      <trkpt lat="48.51199" lon="-0.02013">
        <ele>317.225</ele>
        <time>2016-06-01T19:46:55Z</time>
      </trkpt>
      <trkpt lat="48.51188" lon="-0.0197">
        <ele>317.505</ele>
        <time>2016-06-01T19:46:35Z</time>
      </trkpt>
      <trkpt lat="48.51188" lon="-0.01933">
        <ele>317.979</ele>
        <time>2016-06-01T19:46:15Z</time>
      </trkpt>
      <trkpt lat="48.51225" lon="-0.01753">
        <ele>320.636</ele>
        <time>2016-06-01T19:45:55Z</time>
      </trkpt>
      <trkpt lat="48.51235" lon="-0.01693">
        <ele>319.957</ele>
        <time>2016-06-01T19:45:35Z</time>
      </trkpt>
      <trkpt lat="48.51223" lon="-0.01643">
        <ele>321.961</ele>
        <time>2016-06-01T19:45:15Z</time>
      </trkpt>
      <trkpt lat="48.51209" lon="-0.01616">
        <ele>325.089</ele>
        <time>2016-06-01T19:44:55Z</time>
      </trkpt>
      <trkpt lat="48.51512" lon="-0.01225">
        <ele>298.013</ele>
        <time>2016-06-01T19:44:35Z</time>
      </trkpt>
      <trkpt lat="48.51535" lon="-0.01193">
        <ele>299.75</ele>
        <time>2016-06-01T19:44:15Z</time>
      </trkpt>
      <trkpt lat="48.51557" lon="-0.01189">
        <ele>298.095</ele>
        <time>2016-06-01T19:43:55Z</time>
      </trkpt>
      <trkpt lat="48.51562" lon="-0.01178">
        <ele>297.679</ele>
        <time>2016-06-01T19:43:35Z</time>
      </trkpt>
      <trkpt lat="48.51604" lon="-0.01025">
        <ele>300.308</ele>
        <time>2016-06-01T19:43:15Z</time>
      </trkpt>
      <trkpt lat="48.51633" lon="-0.0092">
        <ele>295.307</ele>
        <time>2016-06-01T19:42:55Z</time>
      </trkpt>
      <trkpt lat="48.51667" lon="-0.00845">
        <ele>296.361</ele>
        <time>2016-06-01T19:42:35Z</time>
      </trkpt>
      <trkpt lat="48.51688" lon="-0.00747">
        <ele>297.531</ele>
        <time>2016-06-01T19:42:15Z</time>
      </trkpt>
      <trkpt lat="48.5167" lon="-0.00723">
        <ele>304.032</ele>
        <time>2016-06-01T19:41:55Z</time>
      </trkpt>
      <trkpt lat="48.5167" lon="-0.00723">
        <ele>304.023</ele>
        <time>2016-06-01T19:41:35Z</time>
      </trkpt>
      <trkpt lat="48.51357" lon="0.01758">
        <ele>410.977</ele>
        <time>2016-06-01T19:41:15Z</time>
      </trkpt>
      <trkpt lat="48.519" lon="0.01565">
        <ele>383.635</ele>
        <time>2016-06-01T19:40:55Z</time>
      </trkpt>
      <trkpt lat="48.52512" lon="0.01981">
        <ele>375.689</ele>
        <time>2016-06-01T19:40:35Z</time>
      </trkpt>
      <trkpt lat="48.52536" lon="0.02002">
        <ele>376.956</ele>
        <time>2016-06-01T19:40:15Z</time>
      </trkpt>
      <trkpt lat="48.52845" lon="0.02208">
        <ele>383.471</ele>
        <time>2016-06-01T19:39:55Z</time>
      </trkpt>
      <trkpt lat="48.53298" lon="0.02519">
        <ele>375.465</ele>
        <time>2016-06-01T19:39:35Z</time>
      </trkpt>
      <trkpt lat="48.53467" lon="0.02625">
        <ele>375.708</ele>
        <time>2016-06-01T19:39:15Z</time>
      </trkpt>
      <trkpt lat="48.53973" lon="0.02968">
        <ele>374.321</ele>
        <time>2016-06-01T19:38:55Z</time>
      </trkpt>
      <trkpt lat="48.53983" lon="0.03425">
        <ele>378.165</ele>
        <time>2016-06-01T19:38:35Z</time>
      </trkpt>
      <trkpt lat="48.54388" lon="0.0368">
        <ele>384.093</ele>
        <time>2016-06-01T19:38:15Z</time>
      </trkpt>
      <trkpt lat="48.54377" lon="0.03734">
        <ele>384.318</ele>
        <time>2016-06-01T19:37:55Z</time>
      </trkpt>
      <trkpt lat="48.54885" lon="0.04073">
        <ele>405.459</ele>
        <time>2016-06-01T19:37:35Z</time>
      </trkpt>
      <trkpt lat="48.54882" lon="0.04294">
        <ele>410.413</ele>
        <time>2016-06-01T19:37:15Z</time>
      </trkpt>
      <trkpt lat="48.5509" lon="0.03715">
        <ele>410.341</ele>
        <time>2016-06-01T19:36:55Z</time>
      </trkpt>
      <trkpt lat="48.5509" lon="0.03715">
        <ele>410.315</ele>
        <time>2016-06-01T19:36:35Z</time>
      </trkpt>
      <trkpt lat="48.55091" lon="0.03715">
        <ele>410.312</ele>
        <time>2016-06-01T19:36:15Z</time>
      </trkpt>
      <trkpt lat="48.55672" lon="0.03545">
        <ele>357.977</ele>
        <time>2016-06-01T19:35:55Z</time>
      </trkpt>
      <trkpt lat="48.55784" lon="0.03112">
        <ele>350.861</ele>
        <time>2016-06-01T19:35:35Z</time>
      </trkpt>
      <trkpt lat="48.55828" lon="0.03131">
        <ele>349.908</ele>
        <time>2016-06-01T19:35:15Z</time>
      </trkpt>
      <trkpt lat="48.55764" lon="0.01936">
        <ele>366.823</ele>
        <time>2016-06-01T19:34:55Z</time>
      </trkpt>
      <trkpt lat="48.55902" lon="0.00318">
        <ele>375.203</ele>
        <time>2016-06-01T19:34:35Z</time>
      </trkpt>
      <trkpt lat="48.55936" lon="0.00337">
        <ele>370.659</ele>
        <time>2016-06-01T19:34:15Z</time>
      </trkpt>
      <trkpt lat="48.55972" lon="0.00367">
        <ele>365.184</ele>
        <time>2016-06-01T19:33:55Z</time>
      </trkpt>
      <trkpt lat="48.56004" lon="0.00361">
        <ele>362.395</ele>
        <time>2016-06-01T19:33:35Z</time>
      </trkpt>
      <trkpt lat="48.56027" lon="0.00384">
        <ele>357.389</ele>
        <time>2016-06-01T19:33:15Z</time>
      </trkpt>
      <trkpt lat="48.56078" lon="0.00434">
        <ele>353.277</ele>
        <time>2016-06-01T19:32:55Z</time>
      </trkpt>
      <trkpt lat="48.56146" lon="0.00453">
        <ele>346.911</ele>
        <time>2016-06-01T19:32:35Z</time>
      </trkpt>
      <trkpt lat="48.5618" lon="0.0049">
        <ele>342.298</ele>
        <time>2016-06-01T19:32:15Z</time>
      </trkpt>
      <trkpt lat="48.56268" lon="0.00509">
        <ele>332.383</ele>
        <time>2016-06-01T19:31:55Z</time>
      </trkpt>
      <trkpt lat="48.56287" lon="0.00483">
        <ele>328.827</ele>
        <time>2016-06-01T19:31:35Z</time>
      </trkpt>
      <trkpt lat="48.56335" lon="0.00464">
        <ele>323.208</ele>
        <time>2016-06-01T19:31:15Z</time>
      </trkpt>
      <trkpt lat="48.56442" lon="0.00505">
        <ele>316.015</ele>
        <time>2016-06-01T19:30:55Z</time>
      </trkpt>
      <trkpt lat="48.56496" lon="0.00539">
        <ele>308.687</ele>
        <time>2016-06-01T19:30:35Z</time>
      </trkpt>
      <trkpt lat="48.56471" lon="0.00429">
        <ele>312.517</ele>
        <time>2016-06-01T19:30:15Z</time>
      </trkpt>
      <trkpt lat="48.5645" lon="0.00417">
        <ele>313.642</ele>
        <time>2016-06-01T19:29:55Z</time>
      </trkpt>
      <trkpt lat="48.56437" lon="0.00387">
        <ele>313.353</ele>
        <time>2016-06-01T19:29:35Z</time>
      </trkpt>
      <trkpt lat="48.56402" lon="0.00346">
        <ele>314.877</ele>
        <time>2016-06-01T19:29:15Z</time>
      </trkpt>
      <trkpt lat="48.56403" lon="0.00247">
        <ele>319.925</ele>
        <time>2016-06-01T19:28:55Z</time>
      </trkpt>
      <trkpt lat="48.56372" lon="0.00236">
        <ele>321.029</ele>
        <time>2016-06-01T19:28:35Z</time>
      </trkpt>
      <trkpt lat="48.56322" lon="0.00223">
        <ele>323.776</ele>
        <time>2016-06-01T19:28:15Z</time>
      </trkpt>
      <trkpt lat="48.56281" lon="0.00223">
        <ele>325.871</ele>
        <time>2016-06-01T19:27:55Z</time>
      </trkpt>
      <trkpt lat="48.56182" lon="0.00189">
        <ele>326.985</ele>
        <time>2016-06-01T19:27:35Z</time>
      </trkpt>
      <trkpt lat="48.56136" lon="0.0014">
        <ele>334.708</ele>
        <time>2016-06-01T19:27:15Z</time>
      </trkpt>
      <trkpt lat="48.56105" lon="0.00071">
        <ele>342.223</ele>
        <time>2016-06-01T19:26:55Z</time>
      </trkpt>
      <trkpt lat="48.56094" lon="-2.0E-5">
        <ele>349.649</ele>
        <time>2016-06-01T19:26:35Z</time>
      </trkpt>
      <trkpt lat="48.5605" lon="-0.00103">
        <ele>353.495</ele>
        <time>2016-06-01T19:26:15Z</time>
      </trkpt>
      <trkpt lat="48.56001" lon="-0.00148">
        <ele>354.197</ele>
        <time>2016-06-01T19:25:55Z</time>
      </trkpt>
      <trkpt lat="48.5598" lon="-0.00186">
        <ele>357.668</ele>
        <time>2016-06-01T19:25:35Z</time>
      </trkpt>
      <trkpt lat="48.55952" lon="-0.00214">
        <ele>359.922</ele>
        <time>2016-06-01T19:25:15Z</time>
      </trkpt>
      <trkpt lat="48.56109" lon="-0.02062">
        <ele>397.01</ele>
        <time>2016-06-01T19:24:55Z</time>
      </trkpt>
      <trkpt lat="48.56332" lon="-0.02352">
        <ele>388.744</ele>
        <time>2016-06-01T19:24:35Z</time>
      </trkpt>
      <trkpt lat="48.56195" lon="-0.02442">
        <ele>394.081</ele>
        <time>2016-06-01T19:24:15Z</time>
      </trkpt>
      <trkpt lat="48.55817" lon="-0.03326">
        <ele>401.336</ele>
        <time>2016-06-01T19:23:55Z</time>
      </trkpt>
      <trkpt lat="48.55834" lon="-0.03377">
        <ele>397.49</ele>
        <time>2016-06-01T19:23:35Z</time>
      </trkpt>
      <trkpt lat="48.55849" lon="-0.03407">
        <ele>396.208</ele>
        <time>2016-06-01T19:23:15Z</time>
      </trkpt>
      <trkpt lat="48.55862" lon="-0.03493">
        <ele>396.91</ele>
        <time>2016-06-01T19:22:55Z</time>
      </trkpt>
      <trkpt lat="48.55854" lon="-0.03515">
        <ele>396.564</ele>
        <time>2016-06-01T19:22:35Z</time>
      </trkpt>
      <trkpt lat="48.55855" lon="-0.03686">
        <ele>388.543</ele>
        <time>2016-06-01T19:22:15Z</time>
      </trkpt>
      <trkpt lat="48.55865" lon="-0.03721">
        <ele>386.692</ele>
        <time>2016-06-01T19:21:55Z</time>
      </trkpt>
      <trkpt lat="48.55876" lon="-0.03787">
        <ele>384.253</ele>
        <time>2016-06-01T19:21:35Z</time>
      </trkpt>
      <trkpt lat="48.55871" lon="-0.03849">
        <ele>384.157</ele>
        <time>2016-06-01T19:21:15Z</time>
      </trkpt>
      <trkpt lat="48.55857" lon="-0.03892">
        <ele>383.865</ele>
        <time>2016-06-01T19:20:55Z</time>
      </trkpt>
      <trkpt lat="48.55866" lon="-0.03939">
        <ele>381.689</ele>
        <time>2016-06-01T19:20:35Z</time>
      </trkpt>
      <trkpt lat="48.55882" lon="-0.03946">
        <ele>382.526</ele>
        <time>2016-06-01T19:20:15Z</time>
      </trkpt>
      <trkpt lat="48.55952" lon="-0.04388">
        <ele>364.571</ele>
        <time>2016-06-01T19:19:55Z</time>
      </trkpt>
      <trkpt lat="48.55946" lon="-0.04429">
        <ele>363.875</ele>
        <time>2016-06-01T19:19:35Z</time>
      </trkpt>
      <trkpt lat="48.55974" lon="-0.04635">
        <ele>362.708</ele>
        <time>2016-06-01T19:19:15Z</time>
      </trkpt>
      <trkpt lat="48.56027" lon="-0.04948">
        <ele>351.826</ele>
        <time>2016-06-01T19:18:55Z</time>
      </trkpt>
      <trkpt lat="48.56045" lon="-0.04997">
        <ele>348.415</ele>
        <time>2016-06-01T19:18:35Z</time>
      </trkpt>
      <trkpt lat="48.56065" lon="-0.04984">
        <ele>347.798</ele>
        <time>2016-06-01T19:18:15Z</time>
      </trkpt>
      <trkpt lat="48.55972" lon="-0.05662">
        <ele>359.911</ele>
        <time>2016-06-01T19:17:55Z</time>
      </trkpt>
      <trkpt lat="48.56368" lon="-0.05771">
        <ele>357.162</ele>
        <time>2020-12-24T01:18:55Z</time>
      </trkpt>
      <trkpt lat="48.56537" lon="-0.05686">
        <ele>353.816</ele>
        <time>2020-12-24T01:18:35Z</time>
      </trkpt>
      <trkpt lat="48.56673" lon="-0.05871">
        <ele>348.864</ele>
        <time>2016-06-01T19:16:55Z</time>
      </trkpt>
      <trkpt lat="48.56673" lon="-0.05871">
        <ele>348.838</ele>
        <time>2016-06-01T19:16:35Z</time>
      </trkpt>
      <trkpt lat="48.57183" lon="-0.06032">
        <ele>352.645</ele>
        <time>2016-06-01T19:16:15Z</time>
      </trkpt>
      <trkpt lat="48.57206" lon="-0.06025">
        <ele>351.91</ele>
        <time>2016-06-01T19:15:55Z</time>
      </trkpt>
      <trkpt lat="48.57237" lon="-0.06044">
        <ele>352.314</ele>
        <time>2016-06-01T19:15:35Z</time>
      </trkpt>
      <trkpt lat="48.58882" lon="-0.06557">
        <ele>371.608</ele>
        <time>2016-06-01T19:15:15Z</time>
      </trkpt>
      <trkpt lat="48.59647" lon="-0.05746">
        <ele>290.726</ele>
        <time>2016-06-01T19:14:55Z</time>
      </trkpt>
      <trkpt lat="48.59681" lon="-0.0572">
        <ele>287.46</ele>
        <time>2016-06-01T19:14:35Z</time>
      </trkpt>
      <trkpt lat="48.5981" lon="-0.05804">
        <ele>279.686</ele>
        <time>2016-06-01T19:14:15Z</time>
      </trkpt>
      <trkpt lat="48.59817" lon="-0.05922">
        <ele>277.035</ele>
        <time>2016-06-01T19:13:55Z</time>
      </trkpt>
      <trkpt lat="48.59846" lon="-0.06014">
        <ele>273.956</ele>
        <time>2016-06-01T19:13:35Z</time>
      </trkpt>
      <trkpt lat="48.59874" lon="-0.06098">
        <ele>270.95</ele>
        <time>2016-06-01T19:13:15Z</time>
      </trkpt>
      <trkpt lat="48.59908" lon="-0.06141">
        <ele>274.158</ele>
        <time>2016-06-01T19:12:55Z</time>
      </trkpt>
      <trkpt lat="48.59979" lon="-0.06169">
        <ele>270.252</ele>
        <time>2016-06-01T19:12:35Z</time>
      </trkpt>
      <trkpt lat="48.60071" lon="-0.06177">
        <ele>264.259</ele>
        <time>2016-06-01T19:12:15Z</time>
      </trkpt>
      <trkpt lat="48.60151" lon="-0.06186">
        <ele>260.414</ele>
        <time>2016-06-01T19:11:55Z</time>
      </trkpt>
      <trkpt lat="48.60195" lon="-0.06233">
        <ele>264.658</ele>
        <time>2016-06-01T19:11:35Z</time>
      </trkpt>
      <trkpt lat="48.60222" lon="-0.06244">
        <ele>265.908</ele>
        <time>2016-06-01T19:11:15Z</time>
      </trkpt>
      <trkpt lat="48.60351" lon="-0.06231">
        <ele>261.311</ele>
        <time>2016-06-01T19:10:55Z</time>
      </trkpt>
      <trkpt lat="48.6042" lon="-0.06261">
        <ele>258.283</ele>
        <time>2016-06-01T19:10:35Z</time>
      </trkpt>
      <trkpt lat="48.60476" lon="-0.06302">
        <ele>255.423</ele>
        <time>2016-06-01T19:10:15Z</time>
      </trkpt>
      <trkpt lat="48.60484" lon="-0.06353">
        <ele>260.752</ele>
        <time>2016-06-01T19:09:55Z</time>
      </trkpt>
      <trkpt lat="48.6046" lon="-0.06416">
        <ele>271.743</ele>
        <time>2016-06-01T19:09:35Z</time>
      </trkpt>
      <trkpt lat="48.60459" lon="-0.06467">
        <ele>271.547</ele>
        <time>2016-06-01T19:09:15Z</time>
      </trkpt>
      <trkpt lat="48.60477" lon="-0.06553">
        <ele>267.635</ele>
        <time>2016-06-01T19:08:55Z</time>
      </trkpt>
      <trkpt lat="48.60613" lon="-0.06383">
        <ele>250.369</ele>
        <time>2016-06-01T19:08:35Z</time>
      </trkpt>
      <trkpt lat="48.60598" lon="-0.06295">
        <ele>247.336</ele>
        <time>2016-06-01T19:08:15Z</time>
      </trkpt>
      <trkpt lat="48.60611" lon="-0.06276">
        <ele>246.091</ele>
        <time>2016-06-01T19:07:55Z</time>
      </trkpt>
      <trkpt lat="48.60622" lon="-0.06186">
        <ele>247.515</ele>
        <time>2016-06-01T19:07:35Z</time>
      </trkpt>
      <trkpt lat="48.6062" lon="-0.06085">
        <ele>255.108</ele>
        <time>2016-06-01T19:07:15Z</time>
      </trkpt>
      <trkpt lat="48.60632" lon="-0.05963">
        <ele>268.319</ele>
        <time>2016-06-01T19:06:55Z</time>
      </trkpt>
      <trkpt lat="48.60613" lon="-0.05879">
        <ele>277.781</ele>
        <time>2016-06-01T19:06:35Z</time>
      </trkpt>
      <trkpt lat="48.6062" lon="-0.05853">
        <ele>279.391</ele>
        <time>2016-06-01T19:06:15Z</time>
      </trkpt>
      <trkpt lat="48.60721" lon="-0.05695">
        <ele>287.256</ele>
        <time>2016-06-01T19:05:55Z</time>
      </trkpt>
      <trkpt lat="48.60751" lon="-0.05575">
        <ele>298.157</ele>
        <time>2016-06-01T19:05:35Z</time>
      </trkpt>
      <trkpt lat="48.60784" lon="-0.0554">
        <ele>298.281</ele>
        <time>2016-06-01T19:05:15Z</time>
      </trkpt>
      <trkpt lat="48.60863" lon="-0.05502">
        <ele>293.759</ele>
        <time>2016-06-01T19:04:55Z</time>
      </trkpt>
      <trkpt lat="48.60859" lon="-0.05446">
        <ele>300.043</ele>
        <time>2016-06-01T19:04:35Z</time>
      </trkpt>
      <trkpt lat="48.60864" lon="-0.05216">
        <ele>312.86</ele>
        <time>2016-06-01T19:04:15Z</time>
      </trkpt>
      <trkpt lat="48.60843" lon="-0.05186">
        <ele>316.975</ele>
        <time>2016-06-01T19:03:55Z</time>
      </trkpt>
      <trkpt lat="48.60809" lon="-0.05085">
        <ele>322.859</ele>
        <time>2016-06-01T19:03:35Z</time>
      </trkpt>
      <trkpt lat="48.60768" lon="-0.05014">
        <ele>324.208</ele>
        <time>2016-06-01T19:03:15Z</time>
      </trkpt>
      <trkpt lat="48.60781" lon="-0.04931">
        <ele>320.615</ele>
        <time>2016-06-01T19:02:55Z</time>
      </trkpt>
      <trkpt lat="48.60791" lon="-0.04796">
        <ele>321.523</ele>
        <time>2016-06-01T19:02:35Z</time>
      </trkpt>
      <trkpt lat="48.60811" lon="-0.04643">
        <ele>323.533</ele>
        <time>2016-06-01T19:02:15Z</time>
      </trkpt>
      <trkpt lat="48.60829" lon="-0.04538">
        <ele>324.624</ele>
        <time>2016-06-01T19:01:55Z</time>
      </trkpt>
      <trkpt lat="48.60826" lon="-0.04478">
        <ele>325.745</ele>
        <time>2016-06-01T19:01:35Z</time>
      </trkpt>
      <trkpt lat="48.60777" lon="-0.04442">
        <ele>326.159</ele>
        <time>2016-06-01T19:01:15Z</time>
      </trkpt>
      <trkpt lat="48.60656" lon="-0.04392">
        <ele>330.057</ele>
        <time>2016-06-01T19:00:55Z</time>
      </trkpt>
      <trkpt lat="48.60598" lon="-0.04388">
        <ele>332.111</ele>
        <time>2016-06-01T19:00:35Z</time>
      </trkpt>
      <trkpt lat="48.60558" lon="-0.04405">
        <ele>332.538</ele>
        <time>2016-06-01T19:00:15Z</time>
      </trkpt>
      <trkpt lat="48.60477" lon="-0.04083">
        <ele>338.533</ele>
        <time>2016-06-01T18:59:55Z</time>
      </trkpt>
      <trkpt lat="48.60477" lon="-0.04051">
        <ele>338.257</ele>
        <time>2016-06-01T18:59:35Z</time>
      </trkpt>
      <trkpt lat="48.60951" lon="-0.03933">
        <ele>328.508</ele>
        <time>2016-06-01T18:59:15Z</time>
      </trkpt>
      <trkpt lat="48.60972" lon="-0.03897">
        <ele>327.015</ele>
        <time>2016-06-01T18:58:55Z</time>
      </trkpt>
      <trkpt lat="48.60998" lon="-0.03875">
        <ele>325.187</ele>
        <time>2016-06-01T18:58:35Z</time>
      </trkpt>
      <trkpt lat="48.61013" lon="-0.03851">
        <ele>324.217</ele>
        <time>2016-06-01T18:58:15Z</time>
      </trkpt>
      <trkpt lat="48.61053" lon="-0.0374">
        <ele>320.076</ele>
        <time>2016-06-01T18:57:55Z</time>
      </trkpt>
      <trkpt lat="48.61067" lon="-0.03706">
        <ele>320.017</ele>
        <time>2016-06-01T18:57:35Z</time>
      </trkpt>
      <trkpt lat="48.61089" lon="-0.03684">
        <ele>319.971</ele>
        <time>2016-06-01T18:57:15Z</time>
      </trkpt>
      <trkpt lat="48.61109" lon="-0.03654">
        <ele>320.179</ele>
        <time>2016-06-01T18:56:55Z</time>
      </trkpt>
      <trkpt lat="48.61121" lon="-0.03618">
        <ele>318.323</ele>
        <time>2016-06-01T18:56:35Z</time>
      </trkpt>
      <trkpt lat="48.6112" lon="-0.03575">
        <ele>317.24</ele>
        <time>2016-06-01T18:56:15Z</time>
      </trkpt>
      <trkpt lat="48.61131" lon="-0.03536">
        <ele>312.035</ele>
        <time>2016-06-01T18:55:55Z</time>
      </trkpt>
      <trkpt lat="48.61175" lon="-0.03515">
        <ele>300.479</ele>
        <time>2016-06-01T18:55:35Z</time>
      </trkpt>
      <trkpt lat="48.61204" lon="-0.0353">
        <ele>294.808</ele>
        <time>2016-06-01T18:55:15Z</time>
      </trkpt>
      <trkpt lat="48.61274" lon="-0.03622">
        <ele>286.711</ele>
        <time>2016-06-01T18:54:55Z</time>
      </trkpt>
      <trkpt lat="48.61317" lon="-0.03712">
        <ele>282.892</ele>
        <time>2016-06-01T18:54:35Z</time>
      </trkpt>
      <trkpt lat="48.6136" lon="-0.03746">
        <ele>277.432</ele>
        <time>2016-06-01T18:54:15Z</time>
      </trkpt>
      <trkpt lat="48.61384" lon="-0.03755">
        <ele>273.971</ele>
        <time>2016-06-01T18:53:55Z</time>
      </trkpt>
      <trkpt lat="48.61511" lon="-0.03665">
        <ele>251.652</ele>
        <time>2016-06-01T18:53:35Z</time>
      </trkpt>
      <trkpt lat="48.6188" lon="-0.03738">
        <ele>230.526</ele>
        <time>2016-06-01T18:53:15Z</time>
      </trkpt>
      <trkpt lat="48.61892" lon="-0.03427">
        <ele>230.914</ele>
        <time>2016-06-01T18:52:55Z</time>
      </trkpt>
      <trkpt lat="48.61906" lon="-0.03403">
        <ele>230.498</ele>
        <time>2016-06-01T18:52:35Z</time>
      </trkpt>
      <trkpt lat="48.61955" lon="-0.03424">
        <ele>228.695</ele>
        <time>2016-06-01T18:52:15Z</time>
      </trkpt>
      <trkpt lat="48.62016" lon="-0.03459">
        <ele>225.94</ele>
        <time>2016-06-01T18:51:55Z</time>
      </trkpt>
      <trkpt lat="48.62036" lon="-0.03463">
        <ele>225.034</ele>
        <time>2016-06-01T18:51:35Z</time>
      </trkpt>
      <trkpt lat="48.62073" lon="-0.03444">
        <ele>225.708</ele>
        <time>2016-06-01T18:51:15Z</time>
      </trkpt>
      <trkpt lat="48.62103" lon="-0.03444">
        <ele>225.317</ele>
        <time>2016-06-01T18:50:55Z</time>
      </trkpt>
      <trkpt lat="48.62157" lon="-0.03463">
        <ele>223.143</ele>
        <time>2016-06-01T18:50:35Z</time>
      </trkpt>
      <trkpt lat="48.62181" lon="-0.03452">
        <ele>223.982</ele>
        <time>2016-06-01T18:50:15Z</time>
      </trkpt>
      <trkpt lat="48.62216" lon="-0.03424">
        <ele>223.425</ele>
        <time>2016-06-01T18:49:55Z</time>
      </trkpt>
      <trkpt lat="48.62252" lon="-0.0342">
        <ele>220.126</ele>
        <time>2016-06-01T18:49:35Z</time>
      </trkpt>
      <trkpt lat="48.62284" lon="-0.03435">
        <ele>218.94</ele>
        <time>2016-06-01T18:49:15Z</time>
      </trkpt>
      <trkpt lat="48.62328" lon="-0.03446">
        <ele>219.038</ele>
        <time>2016-06-01T18:48:55Z</time>
      </trkpt>
      <trkpt lat="48.6238" lon="-0.03437">
        <ele>217.322</ele>
        <time>2016-06-01T18:48:35Z</time>
      </trkpt>
      <trkpt lat="48.62435" lon="-0.03446">
        <ele>216.359</ele>
        <time>2016-06-01T18:48:15Z</time>
      </trkpt>
      <trkpt lat="48.62473" lon="-0.03424">
        <ele>216.034</ele>
        <time>2016-06-01T18:47:55Z</time>
      </trkpt>
      <trkpt lat="48.62496" lon="-0.03397">
        <ele>215.328</ele>
        <time>2016-06-01T18:47:35Z</time>
      </trkpt>
      <trkpt lat="48.62534" lon="-0.03369">
        <ele>213.808</ele>
        <time>2016-06-01T18:47:15Z</time>
      </trkpt>
      <trkpt lat="48.62565" lon="-0.03373">
        <ele>213.005</ele>
        <time>2016-06-01T18:46:55Z</time>
      </trkpt>
      <trkpt lat="48.62612" lon="-0.03356">
        <ele>213.041</ele>
        <time>2016-06-01T18:46:35Z</time>
      </trkpt>
      <trkpt lat="48.62666" lon="-0.0327">
        <ele>210.721</ele>
        <time>2016-06-01T18:46:15Z</time>
      </trkpt>
      <trkpt lat="48.62791" lon="-0.03118">
        <ele>204.962</ele>
        <time>2016-06-01T18:45:55Z</time>
      </trkpt>
      <trkpt lat="48.62829" lon="-0.03038">
        <ele>203.223</ele>
        <time>2016-06-01T18:45:35Z</time>
      </trkpt>
      <trkpt lat="48.6285" lon="-0.03017">
        <ele>202.027</ele>
        <time>2016-06-01T18:45:15Z</time>
      </trkpt>
      <trkpt lat="48.62879" lon="-0.03017">
        <ele>201.695</ele>
        <time>2016-06-01T18:44:55Z</time>
      </trkpt>
      <trkpt lat="48.62957" lon="-0.03058">
        <ele>200.939</ele>
        <time>2016-06-01T18:44:35Z</time>
      </trkpt>
      <trkpt lat="48.62979" lon="-0.03066">
        <ele>200.586</ele>
        <time>2016-06-01T18:44:15Z</time>
      </trkpt>
      <trkpt lat="48.63035" lon="-0.0303">
        <ele>200.281</ele>
        <time>2016-06-01T18:43:55Z</time>
      </trkpt>
      <trkpt lat="48.63113" lon="-0.02946">
        <ele>206.045</ele>
        <time>2016-06-01T18:43:35Z</time>
      </trkpt>
      <trkpt lat="48.63158" lon="-0.02837">
        <ele>210.008</ele>
        <time>2016-06-01T18:43:15Z</time>
      </trkpt>
      <trkpt lat="48.63209" lon="-0.02774">
        <ele>213.625</ele>
        <time>2016-06-01T18:42:55Z</time>
      </trkpt>
      <trkpt lat="48.63266" lon="-0.02712">
        <ele>220.823</ele>
        <time>2016-06-01T18:42:35Z</time>
      </trkpt>
      <trkpt lat="48.63764" lon="-0.02319">
        <ele>264.297</ele>
        <time>2016-06-01T18:42:15Z</time>
      </trkpt>
      <trkpt lat="48.63819" lon="-0.023">
        <ele>269.161</ele>
        <time>2016-06-01T18:41:55Z</time>
      </trkpt>
      <trkpt lat="48.63835" lon="-0.02285">
        <ele>269.862</ele>
        <time>2016-06-01T18:41:35Z</time>
      </trkpt>
      <trkpt lat="48.63859" lon="-0.02281">
        <ele>270.066</ele>
        <time>2016-06-01T18:41:15Z</time>
      </trkpt>
      <trkpt lat="48.63876" lon="-0.02307">
        <ele>270.534</ele>
        <time>2016-06-01T18:40:55Z</time>
      </trkpt>
      <trkpt lat="48.63941" lon="-0.02652">
        <ele>270.158</ele>
        <time>2016-06-01T18:40:35Z</time>
      </trkpt>
      <trkpt lat="48.63954" lon="-0.02764">
        <ele>269.585</ele>
        <time>2016-06-01T18:40:15Z</time>
      </trkpt>
      <trkpt lat="48.63995" lon="-0.03025">
        <ele>265.39</ele>
        <time>2016-06-01T18:39:55Z</time>
      </trkpt>
      <trkpt lat="48.64015" lon="-0.03079">
        <ele>263.814</ele>
        <time>2016-06-01T18:39:35Z</time>
      </trkpt>
      <trkpt lat="48.64037" lon="-0.0318">
        <ele>262.908</ele>
        <time>2016-06-01T18:39:15Z</time>
      </trkpt>
      <trkpt lat="48.64066" lon="-0.03259">
        <ele>261.717</ele>
        <time>2016-06-01T18:38:55Z</time>
      </trkpt>
      <trkpt lat="48.64284" lon="-0.04036">
        <ele>259.661</ele>
        <time>2016-06-01T18:38:35Z</time>
      </trkpt>
      <trkpt lat="48.64353" lon="-0.04347">
        <ele>251.581</ele>
        <time>2016-06-01T18:38:15Z</time>
      </trkpt>
      <trkpt lat="48.64336" lon="-0.04366">
        <ele>251.059</ele>
        <time>2016-06-01T18:37:55Z</time>
      </trkpt>
      <trkpt lat="48.64406" lon="-0.04562">
        <ele>248.43</ele>
        <time>2016-06-01T18:37:35Z</time>
      </trkpt>
      <trkpt lat="48.64429" lon="-0.04628">
        <ele>247.674</ele>
        <time>2016-06-01T18:37:15Z</time>
      </trkpt>
      <trkpt lat="48.64504" lon="-0.04909">
        <ele>243.042</ele>
        <time>2016-06-01T18:36:55Z</time>
      </trkpt>
      <trkpt lat="48.64502" lon="-0.04926">
        <ele>243.096</ele>
        <time>2016-06-01T18:36:35Z</time>
      </trkpt>
      <trkpt lat="48.6457" lon="-0.05057">
        <ele>241.653</ele>
        <time>2016-06-01T18:36:15Z</time>
      </trkpt>
      <trkpt lat="48.64599" lon="-0.05178">
        <ele>244.128</ele>
        <time>2016-06-01T18:35:55Z</time>
      </trkpt>
      <trkpt lat="48.64637" lon="-0.05259">
        <ele>244.242</ele>
        <time>2016-06-01T18:35:35Z</time>
      </trkpt>
      <trkpt lat="48.64661" lon="-0.05495">
        <ele>237.008</ele>
        <time>2016-06-01T18:35:15Z</time>
      </trkpt>
      <trkpt lat="48.64664" lon="-0.05585">
        <ele>236.926</ele>
        <time>2016-06-01T18:34:55Z</time>
      </trkpt>
      <trkpt lat="48.64678" lon="-0.05701">
        <ele>237.342</ele>
        <time>2016-06-01T18:34:35Z</time>
      </trkpt>
      <trkpt lat="48.65356" lon="-0.05572">
        <ele>263.368</ele>
        <time>2016-06-01T18:34:15Z</time>
      </trkpt>
      <trkpt lat="48.65388" lon="-0.05579">
        <ele>263.099</ele>
        <time>2016-06-01T18:33:55Z</time>
      </trkpt>
      <trkpt lat="48.65437" lon="-0.05566">
        <ele>262.41</ele>
        <time>2016-06-01T18:33:35Z</time>
      </trkpt>
      <trkpt lat="48.65473" lon="-0.05592">
        <ele>260.764</ele>
        <time>2016-06-01T18:33:15Z</time>
      </trkpt>
      <trkpt lat="48.65509" lon="-0.05579">
        <ele>260.872</ele>
        <time>2016-06-01T18:32:55Z</time>
      </trkpt>
      <trkpt lat="48.65585" lon="-0.056">
        <ele>258.436</ele>
        <time>2016-06-01T18:32:35Z</time>
      </trkpt>
      <trkpt lat="48.65631" lon="-0.05566">
        <ele>259.033</ele>
        <time>2016-06-01T18:32:15Z</time>
      </trkpt>
      <trkpt lat="48.65704" lon="-0.05551">
        <ele>258.028</ele>
        <time>2016-06-01T18:31:55Z</time>
      </trkpt>
      <trkpt lat="48.65815" lon="-0.05551">
        <ele>257.042</ele>
        <time>2016-06-01T18:31:35Z</time>
      </trkpt>
      <trkpt lat="48.65815" lon="-0.05551">
        <ele>257.008</ele>
        <time>2016-06-01T18:31:15Z</time>
      </trkpt>
      <trkpt lat="48.66015" lon="-0.0554">
        <ele>252.414</ele>
        <time>2016-06-01T18:30:55Z</time>
      </trkpt>
      <trkpt lat="48.66063" lon="-0.05549">
        <ele>248.368</ele>
        <time>2016-06-01T18:30:35Z</time>
      </trkpt>
      <trkpt lat="48.66175" lon="-0.0554">
        <ele>242.265</ele>
        <time>2016-06-01T18:30:15Z</time>
      </trkpt>
      <trkpt lat="48.66467" lon="-0.05527">
        <ele>225.351</ele>
        <time>2016-06-01T18:29:55Z</time>
      </trkpt>
      <trkpt lat="48.66468" lon="-0.05514">
        <ele>224.382</ele>
        <time>2016-06-01T18:29:35Z</time>
      </trkpt>
      <trkpt lat="48.66461" lon="-0.05452">
        <ele>221.556</ele>
        <time>2016-06-01T18:29:15Z</time>
      </trkpt>
      <trkpt lat="48.66457" lon="-0.05392">
        <ele>223.074</ele>
        <time>2016-06-01T18:28:55Z</time>
      </trkpt>
      <trkpt lat="48.66526" lon="-0.05338">
        <ele>218.248</ele>
        <time>2016-06-01T18:28:35Z</time>
      </trkpt>
      <trkpt lat="48.66568" lon="-0.05321">
        <ele>215.865</ele>
        <time>2016-06-01T18:28:15Z</time>
      </trkpt>
      <trkpt lat="48.66604" lon="-0.05319">
        <ele>209.78</ele>
        <time>2016-06-01T18:27:55Z</time>
      </trkpt>
      <trkpt lat="48.66627" lon="-0.05341">
        <ele>206.284</ele>
        <time>2016-06-01T18:27:35Z</time>
      </trkpt>
      <trkpt lat="48.66674" lon="-0.05392">
        <ele>202.508</ele>
        <time>2016-06-01T18:27:15Z</time>
      </trkpt>
      <trkpt lat="48.66701" lon="-0.0548">
        <ele>201.026</ele>
        <time>2016-06-01T18:26:55Z</time>
      </trkpt>
      <trkpt lat="48.66748" lon="-0.05538">
        <ele>200.406</ele>
        <time>2016-06-01T18:26:35Z</time>
      </trkpt>
      <trkpt lat="48.66936" lon="-0.05673">
        <ele>185.689</ele>
        <time>2016-06-01T18:26:15Z</time>
      </trkpt>
      <trkpt lat="48.67047" lon="-0.05733">
        <ele>188.776</ele>
        <time>2016-06-01T18:25:55Z</time>
      </trkpt>
      <trkpt lat="48.67047" lon="-0.05781">
        <ele>188.617</ele>
        <time>2016-06-01T18:25:35Z</time>
      </trkpt>
      <trkpt lat="48.67055" lon="-0.05873">
        <ele>187.021</ele>
        <time>2016-06-01T18:25:15Z</time>
      </trkpt>
      <trkpt lat="48.67066" lon="-0.05954">
        <ele>186.499</ele>
        <time>2016-06-01T18:24:55Z</time>
      </trkpt>
      <trkpt lat="48.67081" lon="-0.05971">
        <ele>186.923</ele>
        <time>2016-06-01T18:24:35Z</time>
      </trkpt>
      <trkpt lat="48.67103" lon="-0.06012">
        <ele>187.01</ele>
        <time>2016-06-01T18:24:15Z</time>
      </trkpt>
      <trkpt lat="48.67115" lon="-0.06057">
        <ele>186.175</ele>
        <time>2016-06-01T18:23:55Z</time>
      </trkpt>
      <trkpt lat="48.67133" lon="-0.06132">
        <ele>184.839</ele>
        <time>2016-06-01T18:23:35Z</time>
      </trkpt>
      <trkpt lat="48.67159" lon="-0.06173">
        <ele>184.808</ele>
        <time>2016-06-01T18:23:15Z</time>
      </trkpt>
      <trkpt lat="48.67187" lon="-0.06246">
        <ele>181.413</ele>
        <time>2016-06-01T18:22:55Z</time>
      </trkpt>
      <trkpt lat="48.67214" lon="-0.06272">
        <ele>182.949</ele>
        <time>2016-06-01T18:22:35Z</time>
      </trkpt>
      <trkpt lat="48.67236" lon="-0.06263">
        <ele>183.237</ele>
        <time>2016-06-01T18:22:15Z</time>
      </trkpt>
      <trkpt lat="48.67272" lon="-0.06429">
        <ele>181.136</ele>
        <time>2016-06-01T18:21:55Z</time>
      </trkpt>
      <trkpt lat="48.67252" lon="-0.06478">
        <ele>181.387</ele>
        <time>2016-06-01T18:21:35Z</time>
      </trkpt>
      <trkpt lat="48.67252" lon="-0.06521">
        <ele>182.931</ele>
        <time>2016-06-01T18:21:15Z</time>
      </trkpt>
      <trkpt lat="48.67249" lon="-0.06574">
        <ele>182.679</ele>
        <time>2016-06-01T18:20:55Z</time>
      </trkpt>
      <trkpt lat="48.67244" lon="-0.06645">
        <ele>185.843</ele>
        <time>2016-06-01T18:20:35Z</time>
      </trkpt>
      <trkpt lat="48.67229" lon="-0.06733">
        <ele>187.51</ele>
        <time>2016-06-01T18:20:15Z</time>
      </trkpt>
      <trkpt lat="48.67208" lon="-0.068">
        <ele>185.675</ele>
        <time>2016-06-01T18:19:55Z</time>
      </trkpt>
      <trkpt lat="48.67201" lon="-0.06866">
        <ele>185.229</ele>
        <time>2016-06-01T18:19:35Z</time>
      </trkpt>
      <trkpt lat="48.67218" lon="-0.06911">
        <ele>185.808</ele>
        <time>2016-06-01T18:19:15Z</time>
      </trkpt>
      <trkpt lat="48.67217" lon="-0.06982">
        <ele>185.013</ele>
        <time>2016-06-01T18:18:55Z</time>
      </trkpt>
      <trkpt lat="48.67202" lon="-0.07034">
        <ele>185.249</ele>
        <time>2016-06-01T18:18:35Z</time>
      </trkpt>
      <trkpt lat="48.67225" lon="-0.07038">
        <ele>184.937</ele>
        <time>2016-06-01T18:18:15Z</time>
      </trkpt>
      <trkpt lat="48.67248" lon="-0.07092">
        <ele>184.138</ele>
        <time>2016-06-01T18:17:55Z</time>
      </trkpt>
      <trkpt lat="48.67419" lon="-0.07143">
        <ele>173.999</ele>
        <time>2016-06-01T18:17:35Z</time>
      </trkpt>
      <trkpt lat="48.67473" lon="-0.07192">
        <ele>173.923</ele>
        <time>2016-06-01T18:17:15Z</time>
      </trkpt>
      <trkpt lat="48.67517" lon="-0.07216">
        <ele>172.631</ele>
        <time>2016-06-01T18:16:55Z</time>
      </trkpt>
      <trkpt lat="48.67571" lon="-0.07227">
        <ele>169.485</ele>
        <time>2016-06-01T18:16:35Z</time>
      </trkpt>
      <trkpt lat="48.67639" lon="-0.07235">
        <ele>166.062</ele>
        <time>2016-06-01T18:16:15Z</time>
      </trkpt>
      <trkpt lat="48.67679" lon="-0.07278">
        <ele>163.697</ele>
        <time>2016-06-01T18:15:55Z</time>
      </trkpt>
      <trkpt lat="48.67755" lon="-0.07323">
        <ele>162.861</ele>
        <time>2016-06-01T18:15:35Z</time>
      </trkpt>
      <trkpt lat="48.6782" lon="-0.07366">
        <ele>159.508</ele>
        <time>2016-06-01T18:15:15Z</time>
      </trkpt>
      <trkpt lat="48.67877" lon="-0.07349">
        <ele>159.614</ele>
        <time>2016-06-01T18:14:55Z</time>
      </trkpt>
      <trkpt lat="48.67919" lon="-0.07358">
        <ele>161.004</ele>
        <time>2016-06-01T18:14:35Z</time>
      </trkpt>
      <trkpt lat="48.67977" lon="-0.07353">
        <ele>160.053</ele>
        <time>2016-06-01T18:14:15Z</time>
      </trkpt>
      <trkpt lat="48.68034" lon="-0.07371">
        <ele>159.799</ele>
        <time>2016-06-01T18:13:55Z</time>
      </trkpt>
      <trkpt lat="48.68055" lon="-0.07383">
        <ele>160.01</ele>
        <time>2016-06-01T18:13:35Z</time>
      </trkpt>
      <trkpt lat="48.68159" lon="-0.07383">
        <ele>160.274</ele>
        <time>2016-06-01T18:13:15Z</time>
      </trkpt>
      <trkpt lat="48.68329" lon="-0.07405">
        <ele>161.522</ele>
        <time>2016-06-01T18:12:55Z</time>
      </trkpt>
      <trkpt lat="48.68381" lon="-0.07418">
        <ele>160.356</ele>
        <time>2016-06-01T18:12:35Z</time>
      </trkpt>
      <trkpt lat="48.68402" lon="-0.07413">
        <ele>159.563</ele>
        <time>2016-06-01T18:12:15Z</time>
      </trkpt>
      <trkpt lat="48.68435" lon="-0.07386">
        <ele>157.938</ele>
        <time>2016-06-01T18:11:55Z</time>
      </trkpt>
      <trkpt lat="48.68463" lon="-0.07379">
        <ele>158.682</ele>
        <time>2016-06-01T18:11:35Z</time>
      </trkpt>
      <trkpt lat="48.68504" lon="-0.07411">
        <ele>159.908</ele>
        <time>2016-06-01T18:11:15Z</time>
      </trkpt>
      <trkpt lat="48.68558" lon="-0.07439">
        <ele>160.416</ele>
        <time>2016-06-01T18:10:55Z</time>
      </trkpt>
      <trkpt lat="48.68605" lon="-0.07428">
        <ele>164.306</ele>
        <time>2016-06-01T18:10:35Z</time>
      </trkpt>
      <trkpt lat="48.68683" lon="-0.07373">
        <ele>166.664</ele>
        <time>2016-06-01T18:10:15Z</time>
      </trkpt>
      <trkpt lat="48.6873" lon="-0.07347">
        <ele>166.759</ele>
        <time>2016-06-01T18:09:55Z</time>
      </trkpt>
      <trkpt lat="48.68728" lon="-0.07413">
        <ele>166.85</ele>
        <time>2016-06-01T18:09:35Z</time>
      </trkpt>
      <trkpt lat="48.68745" lon="-0.07564">
        <ele>163.814</ele>
        <time>2016-06-01T18:09:15Z</time>
      </trkpt>
      <trkpt lat="48.68774" lon="-0.07624">
        <ele>163.492</ele>
        <time>2016-06-01T18:08:55Z</time>
      </trkpt>
      <trkpt lat="48.68813" lon="-0.07647">
        <ele>162.796</ele>
        <time>2016-06-01T18:08:35Z</time>
      </trkpt>
      <trkpt lat="48.68857" lon="-0.0766">
        <ele>161.183</ele>
        <time>2016-06-01T18:08:15Z</time>
      </trkpt>
      <trkpt lat="48.68886" lon="-0.07664">
        <ele>161.118</ele>
        <time>2016-06-01T18:07:55Z</time>
      </trkpt>
      <trkpt lat="48.689" lon="-0.07662">
        <ele>161.562</ele>
        <time>2016-06-01T18:07:35Z</time>
      </trkpt>
      <trkpt lat="48.69126" lon="-0.07958">
        <ele>164.308</ele>
        <time>2016-06-01T18:07:15Z</time>
      </trkpt>
      <trkpt lat="48.69153" lon="-0.07978">
        <ele>165.413</ele>
        <time>2016-06-01T18:06:55Z</time>
      </trkpt>
      <trkpt lat="48.69183" lon="-0.07995">
        <ele>166.121</ele>
        <time>2016-06-01T18:06:35Z</time>
      </trkpt>
      <trkpt lat="48.69177" lon="-0.08034">
        <ele>164.861</ele>
        <time>2016-06-01T18:06:15Z</time>
      </trkpt>
      <trkpt lat="48.69172" lon="-0.08055">
        <ele>164.038</ele>
        <time>2016-06-01T18:05:55Z</time>
      </trkpt>
      <trkpt lat="48.69141" lon="-0.08102">
        <ele>163.149</ele>
        <time>2016-06-01T18:05:35Z</time>
      </trkpt>
      <trkpt lat="48.69118" lon="-0.08143">
        <ele>162.183</ele>
        <time>2016-06-01T18:05:15Z</time>
      </trkpt>
      <trkpt lat="48.69125" lon="-0.08164">
        <ele>161.631</ele>
        <time>2016-06-01T18:04:55Z</time>
      </trkpt>
      <trkpt lat="48.69159" lon="-0.08197">
        <ele>160.665</ele>
        <time>2016-06-01T18:04:35Z</time>
      </trkpt>
      <trkpt lat="48.69183" lon="-0.08192">
        <ele>161.132</ele>
        <time>2016-06-01T18:04:15Z</time>
      </trkpt>
      <trkpt lat="48.6922" lon="-0.08205">
        <ele>159.397</ele>
        <time>2016-06-01T18:03:55Z</time>
      </trkpt>
      <trkpt lat="48.69241" lon="-0.08201">
        <ele>159.561</ele>
        <time>2016-06-01T18:03:35Z</time>
      </trkpt>
      <trkpt lat="48.69238" lon="-0.0833">
        <ele>155.408</ele>
        <time>2016-06-01T18:03:15Z</time>
      </trkpt>
      <trkpt lat="48.69282" lon="-0.0842">
        <ele>155.008</ele>
        <time>2016-06-01T18:02:55Z</time>
      </trkpt>
      <trkpt lat="48.69292" lon="-0.08566">
        <ele>154.753</ele>
        <time>2016-06-01T18:02:35Z</time>
      </trkpt>
      <trkpt lat="48.69269" lon="-0.0874">
        <ele>153.352</ele>
        <time>2016-06-01T18:02:15Z</time>
      </trkpt>
      <trkpt lat="48.69269" lon="-0.08808">
        <ele>153.499</ele>
        <time>2016-06-01T18:01:55Z</time>
      </trkpt>
      <trkpt lat="48.69301" lon="-0.08907">
        <ele>155.39</ele>
        <time>2016-06-01T18:01:35Z</time>
      </trkpt>
      <trkpt lat="48.69309" lon="-0.08958">
        <ele>155.634</ele>
        <time>2016-06-01T18:01:15Z</time>
      </trkpt>
      <trkpt lat="48.69302" lon="-0.09089">
        <ele>158.112</ele>
        <time>2016-06-01T18:00:55Z</time>
      </trkpt>
      <trkpt lat="48.69293" lon="-0.09132">
        <ele>158.416</ele>
        <time>2016-06-01T18:00:35Z</time>
      </trkpt>
      <trkpt lat="48.69353" lon="-0.09244">
        <ele>157.123</ele>
        <time>2016-06-01T18:00:15Z</time>
      </trkpt>
      <trkpt lat="48.69381" lon="-0.09274">
        <ele>156.988</ele>
        <time>2016-06-01T17:59:55Z</time>
      </trkpt>
      <trkpt lat="48.69401" lon="-0.09332">
        <ele>156.662</ele>
        <time>2016-06-01T17:59:35Z</time>
      </trkpt>
      <trkpt lat="48.69434" lon="-0.09398">
        <ele>157.108</ele>
        <time>2016-06-01T17:59:15Z</time>
      </trkpt>
      <trkpt lat="48.69442" lon="-0.09441">
        <ele>157.916</ele>
        <time>2016-06-01T17:58:55Z</time>
      </trkpt>
      <trkpt lat="48.69482" lon="-0.09548">
        <ele>158.706</ele>
        <time>2016-06-01T17:58:35Z</time>
      </trkpt>
      <trkpt lat="48.69514" lon="-0.09694">
        <ele>161.564</ele>
        <time>2016-06-01T17:58:15Z</time>
      </trkpt>
      <trkpt lat="48.69575" lon="-0.09875">
        <ele>160.867</ele>
        <time>2016-06-01T17:57:55Z</time>
      </trkpt>
      <trkpt lat="48.6974" lon="-0.09965">
        <ele>158.328</ele>
        <time>2016-06-01T17:57:35Z</time>
      </trkpt>
      <trkpt lat="48.69864" lon="-0.10042">
        <ele>158.032</ele>
        <time>2016-06-01T17:57:15Z</time>
      </trkpt>
      <trkpt lat="48.69921" lon="-0.1007">
        <ele>156.86</ele>
        <time>2016-06-01T17:56:55Z</time>
      </trkpt>
      <trkpt lat="48.69985" lon="-0.10096">
        <ele>156.034</ele>
        <time>2016-06-01T17:56:35Z</time>
      </trkpt>
      <trkpt lat="48.70109" lon="-0.10154">
        <ele>154.681</ele>
        <time>2016-06-01T17:56:15Z</time>
      </trkpt>
      <trkpt lat="48.70145" lon="-0.10177">
        <ele>155.496</ele>
        <time>2016-06-01T17:55:55Z</time>
      </trkpt>
      <trkpt lat="48.7016" lon="-0.10162">
        <ele>154.85</ele>
        <time>2016-06-01T17:55:35Z</time>
      </trkpt>
      <trkpt lat="48.70333" lon="-0.10214">
        <ele>154.008</ele>
        <time>2016-06-01T17:55:15Z</time>
      </trkpt>
      <trkpt lat="48.70359" lon="-0.10214">
        <ele>154.611</ele>
        <time>2016-06-01T17:54:55Z</time>
      </trkpt>
      <trkpt lat="48.70383" lon="-0.1025">
        <ele>156.047</ele>
        <time>2016-06-01T17:54:35Z</time>
      </trkpt>
      <trkpt lat="48.70376" lon="-0.10269">
        <ele>156.045</ele>
        <time>2016-06-01T17:54:15Z</time>
      </trkpt>
      <trkpt lat="48.70373" lon="-0.1033">
        <ele>155.174</ele>
        <time>2016-06-01T17:53:55Z</time>
      </trkpt>
      <trkpt lat="48.70395" lon="-0.10639">
        <ele>154.845</ele>
        <time>2016-06-01T17:53:35Z</time>
      </trkpt>
      <trkpt lat="48.7039" lon="-0.10759">
        <ele>154.059</ele>
        <time>2016-06-01T17:53:15Z</time>
      </trkpt>
      <trkpt lat="48.70455" lon="-0.10898">
        <ele>154.817</ele>
        <time>2016-06-01T17:52:55Z</time>
      </trkpt>
      <trkpt lat="48.70516" lon="-0.10967">
        <ele>154.091</ele>
        <time>2016-06-01T17:52:35Z</time>
      </trkpt>
      <trkpt lat="48.70645" lon="-0.11031">
        <ele>154.868</ele>
        <time>2016-06-01T17:52:15Z</time>
      </trkpt>
      <trkpt lat="48.70829" lon="-0.11158">
        <ele>154.893</ele>
        <time>2016-06-01T17:51:55Z</time>
      </trkpt>
      <trkpt lat="48.7089" lon="-0.11254">
        <ele>157.267</ele>
        <time>2016-06-01T17:51:35Z</time>
      </trkpt>
      <trkpt lat="48.70949" lon="-0.11325">
        <ele>158.808</ele>
        <time>2016-06-01T17:51:15Z</time>
      </trkpt>
      <trkpt lat="48.71218" lon="-0.11583">
        <ele>161.019</ele>
        <time>2016-06-01T17:50:55Z</time>
      </trkpt>
      <trkpt lat="48.71364" lon="-0.11729">
        <ele>157.009</ele>
        <time>2016-06-01T17:50:35Z</time>
      </trkpt>
      <trkpt lat="48.71453" lon="-0.11797">
        <ele>155.019</ele>
        <time>2016-06-01T17:50:15Z</time>
      </trkpt>
      <trkpt lat="48.71437" lon="-0.12342">
        <ele>152.456</ele>
        <time>2016-06-01T17:49:55Z</time>
      </trkpt>
      <trkpt lat="48.71463" lon="-0.12383">
        <ele>151.987</ele>
        <time>2016-06-01T17:49:35Z</time>
      </trkpt>
      <trkpt lat="48.71561" lon="-0.12435">
        <ele>153.071</ele>
        <time>2016-06-01T17:49:15Z</time>
      </trkpt>
      <trkpt lat="48.71551" lon="-0.12615">
        <ele>150.779</ele>
        <time>2016-06-01T17:48:55Z</time>
      </trkpt>
      <trkpt lat="48.71605" lon="-0.12621">
        <ele>151.543</ele>
        <time>2016-06-01T17:48:35Z</time>
      </trkpt>
      <trkpt lat="48.71668" lon="-0.12619">
        <ele>150.74</ele>
        <time>2016-06-01T17:48:15Z</time>
      </trkpt>
      <trkpt lat="48.71725" lon="-0.126">
        <ele>151.545</ele>
        <time>2016-06-01T17:47:55Z</time>
      </trkpt>
      <trkpt lat="48.71769" lon="-0.12649">
        <ele>151.649</ele>
        <time>2016-06-01T17:47:35Z</time>
      </trkpt>
      <trkpt lat="48.71875" lon="-0.12604">
        <ele>152.008</ele>
        <time>2016-06-01T17:47:15Z</time>
      </trkpt>
      <trkpt lat="48.7194" lon="-0.1269">
        <ele>151.021</ele>
        <time>2016-06-01T17:46:55Z</time>
      </trkpt>
      <trkpt lat="48.71971" lon="-0.12741">
        <ele>149.301</ele>
        <time>2016-06-01T17:46:35Z</time>
      </trkpt>
      <trkpt lat="48.72028" lon="-0.12808">
        <ele>148.139</ele>
        <time>2016-06-01T17:46:15Z</time>
      </trkpt>
      <trkpt lat="48.72072" lon="-0.12838">
        <ele>149.899</ele>
        <time>2016-06-01T17:45:55Z</time>
      </trkpt>
      <trkpt lat="48.72072" lon="-0.129">
        <ele>150.61</ele>
        <time>2016-06-01T17:45:35Z</time>
      </trkpt>
      <trkpt lat="48.72042" lon="-0.13005">
        <ele>151.124</ele>
        <time>2016-06-01T17:45:15Z</time>
      </trkpt>
      <trkpt lat="48.72029" lon="-0.13168">
        <ele>152.232</ele>
        <time>2016-06-01T17:44:55Z</time>
      </trkpt>
      <trkpt lat="48.72045" lon="-0.13218">
        <ele>153.926</ele>
        <time>2016-06-01T17:44:35Z</time>
      </trkpt>
      <trkpt lat="48.72109" lon="-0.13282">
        <ele>152.983</ele>
        <time>2016-06-01T17:44:15Z</time>
      </trkpt>
      <trkpt lat="48.72143" lon="-0.13344">
        <ele>152.958</ele>
        <time>2016-06-01T17:43:55Z</time>
      </trkpt>
      <trkpt lat="48.72158" lon="-0.13398">
        <ele>152.772</ele>
        <time>2016-06-01T17:43:35Z</time>
      </trkpt>
      <trkpt lat="48.7224" lon="-0.14014">
        <ele>161.008</ele>
        <time>2016-06-01T17:43:15Z</time>
      </trkpt>
      <trkpt lat="48.72257" lon="-0.14085">
        <ele>161.311</ele>
        <time>2016-06-01T17:42:55Z</time>
      </trkpt>
      <trkpt lat="48.72288" lon="-0.14164">
        <ele>161.883</ele>
        <time>2016-06-01T17:42:35Z</time>
      </trkpt>
      <trkpt lat="48.72341" lon="-0.14265">
        <ele>164.062</ele>
        <time>2016-06-01T17:42:15Z</time>
      </trkpt>
      <trkpt lat="48.72413" lon="-0.14351">
        <ele>164.052</ele>
        <time>2016-06-01T17:41:55Z</time>
      </trkpt>
      <trkpt lat="48.72578" lon="-0.14499">
        <ele>163.823</ele>
        <time>2016-06-01T17:41:35Z</time>
      </trkpt>
      <trkpt lat="48.72603" lon="-0.14535">
        <ele>164.627</ele>
        <time>2016-06-01T17:41:15Z</time>
      </trkpt>
      <trkpt lat="48.72638" lon="-0.14612">
        <ele>164.925</ele>
        <time>2016-06-01T17:40:55Z</time>
      </trkpt>
      <trkpt lat="48.72693" lon="-0.14679">
        <ele>162.129</ele>
        <time>2016-06-01T17:40:35Z</time>
      </trkpt>
      <trkpt lat="48.72744" lon="-0.14728">
        <ele>158.156</ele>
        <time>2016-06-01T17:40:15Z</time>
      </trkpt>
      <trkpt lat="48.72791" lon="-0.14754">
        <ele>156.471</ele>
        <time>2016-06-01T17:39:55Z</time>
      </trkpt>
      <trkpt lat="48.72809" lon="-0.14746">
        <ele>156.175</ele>
        <time>2016-06-01T17:39:35Z</time>
      </trkpt>
      <trkpt lat="48.72835" lon="-0.14681">
        <ele>157.408</ele>
        <time>2016-06-01T17:39:15Z</time>
      </trkpt>
      <trkpt lat="48.72842" lon="-0.14683">
        <ele>157.02</ele>
        <time>2016-06-01T17:38:55Z</time>
      </trkpt>
      <trkpt lat="48.72966" lon="-0.14788">
        <ele>172.173</ele>
        <time>2016-06-01T17:38:35Z</time>
      </trkpt>
      <trkpt lat="48.72995" lon="-0.14782">
        <ele>173.792</ele>
        <time>2016-06-01T17:38:15Z</time>
      </trkpt>
      <trkpt lat="48.73043" lon="-0.14677">
        <ele>174.025</ele>
        <time>2016-06-01T17:37:55Z</time>
      </trkpt>
      <trkpt lat="48.73255" lon="-0.14741">
        <ele>180.836</ele>
        <time>2016-06-01T17:37:35Z</time>
      </trkpt>
      <trkpt lat="48.73384" lon="-0.14849">
        <ele>175.75</ele>
        <time>2016-06-01T17:37:15Z</time>
      </trkpt>
      <trkpt lat="48.73381" lon="-0.14926">
        <ele>174.828</ele>
        <time>2016-06-01T17:36:55Z</time>
      </trkpt>
      <trkpt lat="48.73416" lon="-0.15029">
        <ele>181.222</ele>
        <time>2016-06-01T17:36:35Z</time>
      </trkpt>
      <trkpt lat="48.73418" lon="-0.15327">
        <ele>194.929</ele>
        <time>2016-06-01T17:36:15Z</time>
      </trkpt>
      <trkpt lat="48.73426" lon="-0.15396">
        <ele>197.644</ele>
        <time>2016-06-01T17:35:55Z</time>
      </trkpt>
      <trkpt lat="48.73448" lon="-0.15464">
        <ele>198.348</ele>
        <time>2016-06-01T17:35:35Z</time>
      </trkpt>
      <trkpt lat="48.73479" lon="-0.15647">
        <ele>198.608</ele>
        <time>2016-06-01T17:35:15Z</time>
      </trkpt>
      <trkpt lat="48.73487" lon="-0.15846">
        <ele>198.42</ele>
        <time>2016-06-01T17:34:55Z</time>
      </trkpt>
      <trkpt lat="48.73497" lon="-0.15943">
        <ele>198.1</ele>
        <time>2016-06-01T17:34:35Z</time>
      </trkpt>
      <trkpt lat="48.73513" lon="-0.15992">
        <ele>196.729</ele>
        <time>2016-06-01T17:34:15Z</time>
      </trkpt>
      <trkpt lat="48.73528" lon="-0.16022">
        <ele>194.422</ele>
        <time>2016-06-01T17:33:55Z</time>
      </trkpt>
      <trkpt lat="48.73527" lon="-0.16052">
        <ele>194.113</ele>
        <time>2016-06-01T17:33:35Z</time>
      </trkpt>
      <trkpt lat="48.73545" lon="-0.16151">
        <ele>192.887</ele>
        <time>2016-06-01T17:33:15Z</time>
      </trkpt>
      <trkpt lat="48.73586" lon="-0.16196">
        <ele>190.925</ele>
        <time>2016-06-01T17:32:55Z</time>
      </trkpt>
      <trkpt lat="48.73622" lon="-0.16202">
        <ele>189.169</ele>
        <time>2016-06-01T17:32:35Z</time>
      </trkpt>
      <trkpt lat="48.73644" lon="-0.16235">
        <ele>186.586</ele>
        <time>2016-06-01T17:32:15Z</time>
      </trkpt>
      <trkpt lat="48.73685" lon="-0.16361">
        <ele>187.761</ele>
        <time>2016-06-01T17:31:55Z</time>
      </trkpt>
      <trkpt lat="48.7374" lon="-0.16449">
        <ele>176.195</ele>
        <time>2016-06-01T17:31:35Z</time>
      </trkpt>
      <trkpt lat="48.7379" lon="-0.16546">
        <ele>174.008</ele>
        <time>2016-06-01T17:31:15Z</time>
      </trkpt>
      <trkpt lat="48.73842" lon="-0.16675">
        <ele>169.426</ele>
        <time>2016-06-01T17:30:55Z</time>
      </trkpt>
      <trkpt lat="48.73855" lon="-0.16705">
        <ele>168.415</ele>
        <time>2016-06-01T17:30:35Z</time>
      </trkpt>
      <trkpt lat="48.73895" lon="-0.17005">
        <ele>166.998</ele>
        <time>2016-06-01T17:30:15Z</time>
      </trkpt>
      <trkpt lat="48.73943" lon="-0.17054">
        <ele>163.281</ele>
        <time>2016-06-01T17:29:55Z</time>
      </trkpt>
      <trkpt lat="48.74009" lon="-0.17198">
        <ele>157.342</ele>
        <time>2016-06-01T17:29:35Z</time>
      </trkpt>
      <trkpt lat="48.74072" lon="-0.17293">
        <ele>151.686</ele>
        <time>2016-06-01T17:29:15Z</time>
      </trkpt>
      <trkpt lat="48.7412" lon="-0.17331">
        <ele>149.694</ele>
        <time>2016-06-01T17:28:55Z</time>
      </trkpt>
      <trkpt lat="48.74124" lon="-0.17402">
        <ele>149.888</ele>
        <time>2016-06-01T17:28:35Z</time>
      </trkpt>
      <trkpt lat="48.74138" lon="-0.17434">
        <ele>148.445</ele>
        <time>2016-06-01T17:28:15Z</time>
      </trkpt>
      <trkpt lat="48.74158" lon="-0.17518">
        <ele>155.97</ele>
        <time>2016-06-01T17:27:55Z</time>
      </trkpt>
      <trkpt lat="48.74159" lon="-0.17556">
        <ele>156.764</ele>
        <time>2016-06-01T17:27:35Z</time>
      </trkpt>
      <trkpt lat="48.7414" lon="-0.17621">
        <ele>155.208</ele>
        <time>2016-06-01T17:27:15Z</time>
      </trkpt>
      <trkpt lat="48.74103" lon="-0.17732">
        <ele>169.517</ele>
        <time>2016-06-01T17:26:55Z</time>
      </trkpt>
      <trkpt lat="48.74021" lon="-0.17842">
        <ele>170.189</ele>
        <time>2016-06-01T17:26:35Z</time>
      </trkpt>
      <trkpt lat="48.74008" lon="-0.17874">
        <ele>175.185</ele>
        <time>2016-06-01T17:26:15Z</time>
      </trkpt>
      <trkpt lat="48.73967" lon="-0.17906">
        <ele>172.645</ele>
        <time>2016-06-01T17:25:55Z</time>
      </trkpt>
      <trkpt lat="48.73906" lon="-0.17968">
        <ele>176.576</ele>
        <time>2016-06-01T17:25:35Z</time>
      </trkpt>
      <trkpt lat="48.73888" lon="-0.17994">
        <ele>178.36</ele>
        <time>2016-06-01T17:25:15Z</time>
      </trkpt>
      <trkpt lat="48.73886" lon="-0.18011">
        <ele>179.348</ele>
        <time>2016-06-01T17:24:55Z</time>
      </trkpt>
      <trkpt lat="48.73671" lon="-0.18142">
        <ele>189.812</ele>
        <time>2016-06-01T17:24:35Z</time>
      </trkpt>
      <trkpt lat="48.7351" lon="-0.18438">
        <ele>200.229</ele>
        <time>2016-06-01T17:24:15Z</time>
      </trkpt>
      <trkpt lat="48.73497" lon="-0.18546">
        <ele>201.324</ele>
        <time>2016-06-01T17:23:55Z</time>
      </trkpt>
      <trkpt lat="48.73474" lon="-0.18616">
        <ele>203.868</ele>
        <time>2016-06-01T17:23:35Z</time>
      </trkpt>
      <trkpt lat="48.73429" lon="-0.18773">
        <ele>206.608</ele>
        <time>2016-06-01T17:23:15Z</time>
      </trkpt>
      <trkpt lat="48.73409" lon="-0.18831">
        <ele>205.217</ele>
        <time>2016-06-01T17:22:55Z</time>
      </trkpt>
      <trkpt lat="48.73378" lon="-0.18861">
        <ele>209.289</ele>
        <time>2016-06-01T17:22:35Z</time>
      </trkpt>
      <trkpt lat="48.73358" lon="-0.18966">
        <ele>214.128</ele>
        <time>2016-06-01T17:22:15Z</time>
      </trkpt>
      <trkpt lat="48.73339" lon="-0.19033">
        <ele>217.345</ele>
        <time>2016-06-01T17:21:55Z</time>
      </trkpt>
      <trkpt lat="48.73292" lon="-0.19211">
        <ele>220.026</ele>
        <time>2016-06-01T17:21:35Z</time>
      </trkpt>
      <trkpt lat="48.7318" lon="-0.19359">
        <ele>224.25</ele>
        <time>2016-06-01T17:21:15Z</time>
      </trkpt>
      <trkpt lat="48.73142" lon="-0.19421">
        <ele>221.188</ele>
        <time>2016-06-01T17:20:55Z</time>
      </trkpt>
      <trkpt lat="48.73133" lon="-0.19473">
        <ele>222.052</ele>
        <time>2016-06-01T17:20:35Z</time>
      </trkpt>
      <trkpt lat="48.73231" lon="-0.19509">
        <ele>219.529</ele>
        <time>2016-06-01T17:20:15Z</time>
      </trkpt>
      <trkpt lat="48.73288" lon="-0.19561">
        <ele>215.594</ele>
        <time>2016-06-01T17:19:55Z</time>
      </trkpt>
      <trkpt lat="48.733" lon="-0.19661">
        <ele>222.528</ele>
        <time>2016-06-01T17:19:35Z</time>
      </trkpt>
      <trkpt lat="48.7333" lon="-0.19749">
        <ele>227.408</ele>
        <time>2016-06-01T17:19:15Z</time>
      </trkpt>
      <trkpt lat="48.73384" lon="-0.19795">
        <ele>222.317</ele>
        <time>2016-06-01T17:18:55Z</time>
      </trkpt>
      <trkpt lat="48.73439" lon="-0.19876">
        <ele>227.189</ele>
        <time>2016-06-01T17:18:35Z</time>
      </trkpt>
      <trkpt lat="48.73439" lon="-0.19876">
        <ele>227.128</ele>
        <time>2016-06-01T17:18:15Z</time>
      </trkpt>
      <trkpt lat="48.73515" lon="-0.19842">
        <ele>217.448</ele>
        <time>2016-06-01T17:17:55Z</time>
      </trkpt>
      <trkpt lat="48.73624" lon="-0.19752">
        <ele>204.679</ele>
        <time>2016-06-01T17:17:35Z</time>
      </trkpt>
      <trkpt lat="48.7365" lon="-0.19743">
        <ele>201.953</ele>
        <time>2016-06-01T17:17:15Z</time>
      </trkpt>
      <trkpt lat="48.73682" lon="-0.19769">
        <ele>202.281</ele>
        <time>2016-06-01T17:16:55Z</time>
      </trkpt>
      <trkpt lat="48.73701" lon="-0.19747">
        <ele>199.835</ele>
        <time>2016-06-01T17:16:35Z</time>
      </trkpt>
      <trkpt lat="48.73726" lon="-0.19634">
        <ele>189.612</ele>
        <time>2016-06-01T17:16:15Z</time>
      </trkpt>
      <trkpt lat="48.73767" lon="-0.19634">
        <ele>191.477</ele>
        <time>2016-06-01T17:15:55Z</time>
      </trkpt>
      <trkpt lat="48.73813" lon="-0.19668">
        <ele>190.151</ele>
        <time>2016-06-01T17:15:35Z</time>
      </trkpt>
      <trkpt lat="48.73872" lon="-0.19715">
        <ele>189.308</ele>
        <time>2016-06-01T17:15:15Z</time>
      </trkpt>
      <trkpt lat="48.73909" lon="-0.19696">
        <ele>185.514</ele>
        <time>2016-06-01T17:14:55Z</time>
      </trkpt>
      <trkpt lat="48.74018" lon="-0.19717">
        <ele>182.059</ele>
        <time>2016-06-01T17:14:35Z</time>
      </trkpt>
      <trkpt lat="48.74093" lon="-0.19754">
        <ele>178.356</ele>
        <time>2016-06-01T17:14:15Z</time>
      </trkpt>
      <trkpt lat="48.74271" lon="-0.19743">
        <ele>178.978</ele>
        <time>2016-06-01T17:13:55Z</time>
      </trkpt>
      <trkpt lat="48.74356" lon="-0.19724">
        <ele>181.539</ele>
        <time>2016-06-01T17:13:35Z</time>
      </trkpt>
      <trkpt lat="48.74458" lon="-0.19685">
        <ele>181.423</ele>
        <time>2016-06-01T17:13:15Z</time>
      </trkpt>
      <trkpt lat="48.74515" lon="-0.19601">
        <ele>179.021</ele>
        <time>2016-06-01T17:12:55Z</time>
      </trkpt>
      <trkpt lat="48.74612" lon="-0.1949">
        <ele>176.345</ele>
        <time>2016-06-01T17:12:35Z</time>
      </trkpt>
      <trkpt lat="48.74657" lon="-0.19417">
        <ele>171.082</ele>
        <time>2016-06-01T17:12:15Z</time>
      </trkpt>
      <trkpt lat="48.7473" lon="-0.19239">
        <ele>170.357</ele>
        <time>2016-06-01T17:11:55Z</time>
      </trkpt>
      <trkpt lat="48.74747" lon="-0.19127">
        <ele>165.681</ele>
        <time>2016-06-01T17:11:35Z</time>
      </trkpt>
      <trkpt lat="48.74764" lon="-0.19039">
        <ele>162.308</ele>
        <time>2016-06-01T17:11:15Z</time>
      </trkpt>
      <trkpt lat="48.74816" lon="-0.18857">
        <ele>161.714</ele>
        <time>2016-06-01T17:10:55Z</time>
      </trkpt>
      <trkpt lat="48.74833" lon="-0.18812">
        <ele>160.004</ele>
        <time>2016-06-01T17:10:35Z</time>
      </trkpt>
      <trkpt lat="48.74908" lon="-0.18692">
        <ele>154.953</ele>
        <time>2016-06-01T17:10:15Z</time>
      </trkpt>
      <trkpt lat="48.74919" lon="-0.18659">
        <ele>153.927</ele>
        <time>2016-06-01T17:09:55Z</time>
      </trkpt>
      <trkpt lat="48.74895" lon="-0.18578">
        <ele>149.838</ele>
        <time>2016-06-01T17:09:35Z</time>
      </trkpt>
      <trkpt lat="48.74874" lon="-0.18546">
        <ele>146.982</ele>
        <time>2016-06-01T17:09:15Z</time>
      </trkpt>
      <trkpt lat="48.74739" lon="-0.18466">
        <ele>143.28</ele>
        <time>2016-06-01T17:08:55Z</time>
      </trkpt>
      <trkpt lat="48.74715" lon="-0.18481">
        <ele>143.244</ele>
        <time>2016-06-01T17:08:35Z</time>
      </trkpt>
      <trkpt lat="48.74669" lon="-0.18552">
        <ele>145.031</ele>
        <time>2016-06-01T17:08:15Z</time>
      </trkpt>
      <trkpt lat="48.74653" lon="-0.18595">
        <ele>145.586</ele>
        <time>2016-06-01T17:07:55Z</time>
      </trkpt>
      <trkpt lat="48.74623" lon="-0.18657">
        <ele>153.17</ele>
        <time>2016-06-01T17:07:35Z</time>
      </trkpt>
      <trkpt lat="48.74628" lon="-0.18591">
        <ele>151.508</ele>
        <time>2016-06-01T17:07:15Z</time>
      </trkpt>
      <trkpt lat="48.74609" lon="-0.18535">
        <ele>154.817</ele>
        <time>2016-06-01T17:06:55Z</time>
      </trkpt>
      <trkpt lat="48.74606" lon="-0.18477">
        <ele>150.561</ele>
        <time>2016-06-01T17:06:35Z</time>
      </trkpt>
      <trkpt lat="48.74648" lon="-0.18335">
        <ele>159.848</ele>
        <time>2016-06-01T17:06:15Z</time>
      </trkpt>
      <trkpt lat="48.74693" lon="-0.18344">
        <ele>165.161</ele>
        <time>2016-06-01T17:05:55Z</time>
      </trkpt>
      <trkpt lat="48.7473" lon="-0.18307">
        <ele>166.982</ele>
        <time>2016-06-01T17:05:35Z</time>
      </trkpt>
      <trkpt lat="48.74829" lon="-0.18123">
        <ele>173.186</ele>
        <time>2016-06-01T17:05:15Z</time>
      </trkpt>
      <trkpt lat="48.74959" lon="-0.18044">
        <ele>172.534</ele>
        <time>2016-06-01T17:04:55Z</time>
      </trkpt>
      <trkpt lat="48.74996" lon="-0.18041">
        <ele>172.968</ele>
        <time>2016-06-01T17:04:35Z</time>
      </trkpt>
      <trkpt lat="48.7503" lon="-0.18022">
        <ele>175.145</ele>
        <time>2016-06-01T17:04:15Z</time>
      </trkpt>
      <trkpt lat="48.75059" lon="-0.17979">
        <ele>177.15</ele>
        <time>2016-06-01T17:03:55Z</time>
      </trkpt>
      <trkpt lat="48.75201" lon="-0.17842">
        <ele>187.854</ele>
        <time>2016-06-01T17:03:35Z</time>
      </trkpt>
      <trkpt lat="48.75266" lon="-0.17795">
        <ele>189.008</ele>
        <time>2016-06-01T17:03:15Z</time>
      </trkpt>
      <trkpt lat="48.75307" lon="-0.17739">
        <ele>191.426</ele>
        <time>2016-06-01T17:02:55Z</time>
      </trkpt>
      <trkpt lat="48.75312" lon="-0.17715">
        <ele>192.76</ele>
        <time>2016-06-01T17:02:35Z</time>
      </trkpt>
      <trkpt lat="48.75337" lon="-0.17711">
        <ele>193.486</ele>
        <time>2016-06-01T17:02:15Z</time>
      </trkpt>
      <trkpt lat="48.75433" lon="-0.1764">
        <ele>199.02</ele>
        <time>2016-06-01T17:01:55Z</time>
      </trkpt>
      <trkpt lat="48.75453" lon="-0.1764">
        <ele>199.051</ele>
        <time>2016-06-01T17:01:35Z</time>
      </trkpt>
      <trkpt lat="48.75576" lon="-0.1767">
        <ele>202.555</ele>
        <time>2016-06-01T17:01:15Z</time>
      </trkpt>
      <trkpt lat="48.75581" lon="-0.1772">
        <ele>200.033</ele>
        <time>2016-06-01T17:00:55Z</time>
      </trkpt>
      <trkpt lat="48.75607" lon="-0.17814">
        <ele>197.147</ele>
        <time>2016-06-01T17:00:35Z</time>
      </trkpt>
      <trkpt lat="48.75656" lon="-0.17938">
        <ele>194.434</ele>
        <time>2016-06-01T17:00:15Z</time>
      </trkpt>
      <trkpt lat="48.75638" lon="-0.17992">
        <ele>193.649</ele>
        <time>2016-06-01T16:59:55Z</time>
      </trkpt>
      <trkpt lat="48.75639" lon="-0.18035">
        <ele>192.843</ele>
        <time>2016-06-01T16:59:35Z</time>
      </trkpt>
      <trkpt lat="48.75655" lon="-0.18067">
        <ele>193.308</ele>
        <time>2016-06-01T16:59:15Z</time>
      </trkpt>
      <trkpt lat="48.75655" lon="-0.18091">
        <ele>193.615</ele>
        <time>2016-06-01T16:58:55Z</time>
      </trkpt>
      <trkpt lat="48.75665" lon="-0.18119">
        <ele>193.941</ele>
        <time>2016-06-01T16:58:35Z</time>
      </trkpt>
      <trkpt lat="48.75701" lon="-0.18114">
        <ele>196.871</ele>
        <time>2016-06-01T16:58:15Z</time>
      </trkpt>
      <trkpt lat="48.75716" lon="-0.18172">
        <ele>198.324</ele>
        <time>2016-06-01T16:57:55Z</time>
      </trkpt>
      <trkpt lat="48.75693" lon="-0.18202">
        <ele>196.895</ele>
        <time>2016-06-01T16:57:35Z</time>
      </trkpt>
      <trkpt lat="48.75687" lon="-0.18273">
        <ele>195.369</ele>
        <time>2016-06-01T16:57:15Z</time>
      </trkpt>
      <trkpt lat="48.75693" lon="-0.1828">
        <ele>195.897</ele>
        <time>2016-06-01T16:56:55Z</time>
      </trkpt>
      <trkpt lat="48.75707" lon="-0.18449">
        <ele>196.291</ele>
        <time>2016-06-01T16:56:35Z</time>
      </trkpt>
      <trkpt lat="48.75709" lon="-0.1849">
        <ele>196.468</ele>
        <time>2016-06-01T16:56:15Z</time>
      </trkpt>
      <trkpt lat="48.75675" lon="-0.18651">
        <ele>184.253</ele>
        <time>2016-06-01T16:55:55Z</time>
      </trkpt>
      <trkpt lat="48.75662" lon="-0.18728">
        <ele>177.117</ele>
        <time>2016-06-01T16:55:35Z</time>
      </trkpt>
      <trkpt lat="48.75601" lon="-0.18782">
        <ele>169.308</ele>
        <time>2016-06-01T16:55:15Z</time>
      </trkpt>
      <trkpt lat="48.75563" lon="-0.18788">
        <ele>161.615</ele>
        <time>2016-06-01T16:54:55Z</time>
      </trkpt>
      <trkpt lat="48.75536" lon="-0.18822">
        <ele>155.387</ele>
        <time>2016-06-01T16:54:35Z</time>
      </trkpt>
      <trkpt lat="48.75505" lon="-0.18857">
        <ele>149.417</ele>
        <time>2016-06-01T16:54:15Z</time>
      </trkpt>
      <trkpt lat="48.75509" lon="-0.18895">
        <ele>148.431</ele>
        <time>2016-06-01T16:53:55Z</time>
      </trkpt>
      <trkpt lat="48.75526" lon="-0.18913">
        <ele>149.072</ele>
        <time>2016-06-01T16:53:35Z</time>
      </trkpt>
      <trkpt lat="48.75561" lon="-0.18979">
        <ele>151.026</ele>
        <time>2016-06-01T16:53:15Z</time>
      </trkpt>
      <trkpt lat="48.75506" lon="-0.18986">
        <ele>149.394</ele>
        <time>2016-06-01T16:52:55Z</time>
      </trkpt>
      <trkpt lat="48.75468" lon="-0.18968">
        <ele>145.428</ele>
        <time>2016-06-01T16:52:35Z</time>
      </trkpt>
      <trkpt lat="48.75427" lon="-0.19052">
        <ele>143.475</ele>
        <time>2016-06-01T16:52:15Z</time>
      </trkpt>
      <trkpt lat="48.75383" lon="-0.19269">
        <ele>151.53</ele>
        <time>2016-06-01T16:51:55Z</time>
      </trkpt>
      <trkpt lat="48.75356" lon="-0.19376">
        <ele>155.044</ele>
        <time>2016-06-01T16:51:35Z</time>
      </trkpt>
      <trkpt lat="48.75322" lon="-0.1952">
        <ele>151.108</ele>
        <time>2016-06-01T16:51:15Z</time>
      </trkpt>
      <trkpt lat="48.75305" lon="-0.19769">
        <ele>151.626</ele>
        <time>2016-06-01T16:50:55Z</time>
      </trkpt>
      <trkpt lat="48.75192" lon="-0.20176">
        <ele>163.442</ele>
        <time>2016-06-01T16:50:35Z</time>
      </trkpt>
      <trkpt lat="48.75143" lon="-0.20243">
        <ele>167.687</ele>
        <time>2016-06-01T16:50:15Z</time>
      </trkpt>
      <trkpt lat="48.75071" lon="-0.20288">
        <ele>170.084</ele>
        <time>2016-06-01T16:49:55Z</time>
      </trkpt>
      <trkpt lat="48.74976" lon="-0.2029">
        <ele>166.375</ele>
        <time>2016-06-01T16:49:35Z</time>
      </trkpt>
      <trkpt lat="48.74895" lon="-0.20271">
        <ele>165.289</ele>
        <time>2016-06-01T16:49:15Z</time>
      </trkpt>
      <trkpt lat="48.74813" lon="-0.20271">
        <ele>170.267</ele>
        <time>2016-06-01T16:48:55Z</time>
      </trkpt>
      <trkpt lat="48.74739" lon="-0.20252">
        <ele>166.011</ele>
        <time>2016-06-01T16:48:35Z</time>
      </trkpt>
      <trkpt lat="48.74628" lon="-0.20254">
        <ele>164.678</ele>
        <time>2016-06-01T16:48:15Z</time>
      </trkpt>
      <trkpt lat="48.74541" lon="-0.20219">
        <ele>164.893</ele>
        <time>2016-06-01T16:47:55Z</time>
      </trkpt>
      <trkpt lat="48.74381" lon="-0.20136">
        <ele>159.527</ele>
        <time>2016-06-01T16:47:35Z</time>
      </trkpt>
      <trkpt lat="48.74142" lon="-0.2005">
        <ele>142.908</ele>
        <time>2016-06-01T16:47:15Z</time>
      </trkpt>
      <trkpt lat="48.74137" lon="-0.20073">
        <ele>144.119</ele>
        <time>2016-06-01T16:46:55Z</time>
      </trkpt>
      <trkpt lat="48.74111" lon="-0.20138">
        <ele>146.009</ele>
        <time>2016-06-01T16:46:35Z</time>
      </trkpt>
      <trkpt lat="48.74134" lon="-0.20226">
        <ele>155.019</ele>
        <time>2016-06-01T16:46:15Z</time>
      </trkpt>
      <trkpt lat="48.74135" lon="-0.20297">
        <ele>161.884</ele>
        <time>2016-06-01T16:45:55Z</time>
      </trkpt>
      <trkpt lat="48.74159" lon="-0.20393">
        <ele>168.275</ele>
        <time>2016-06-01T16:45:35Z</time>
      </trkpt>
      <trkpt lat="48.74148" lon="-0.205">
        <ele>166.449</ele>
        <time>2016-06-01T16:45:15Z</time>
      </trkpt>
      <trkpt lat="48.74121" lon="-0.20644">
        <ele>161.197</ele>
        <time>2016-06-01T16:44:55Z</time>
      </trkpt>
      <trkpt lat="48.74137" lon="-0.20709">
        <ele>157.721</ele>
        <time>2016-06-01T16:44:35Z</time>
      </trkpt>
      <trkpt lat="48.74205" lon="-0.20803">
        <ele>158.858</ele>
        <time>2016-06-01T16:44:15Z</time>
      </trkpt>
      <trkpt lat="48.74209" lon="-0.20835">
        <ele>152.753</ele>
        <time>2016-06-01T16:43:55Z</time>
      </trkpt>
      <trkpt lat="48.74226" lon="-0.20882">
        <ele>147.587</ele>
        <time>2016-06-01T16:43:35Z</time>
      </trkpt>
      <trkpt lat="48.74265" lon="-0.20925">
        <ele>150.308</ele>
        <time>2016-06-01T16:43:15Z</time>
      </trkpt>
      <trkpt lat="48.74301" lon="-0.20975">
        <ele>148.207</ele>
        <time>2016-06-01T16:42:55Z</time>
      </trkpt>
      <trkpt lat="48.74314" lon="-0.20966">
        <ele>150.443</ele>
        <time>2016-06-01T16:42:35Z</time>
      </trkpt>
      <trkpt lat="48.74348" lon="-0.21018">
        <ele>142.713</ele>
        <time>2016-06-01T16:42:15Z</time>
      </trkpt>
      <trkpt lat="48.74346" lon="-0.2117">
        <ele>144.851</ele>
        <time>2016-06-01T16:41:55Z</time>
      </trkpt>
      <trkpt lat="48.74247" lon="-0.21191">
        <ele>157.292</ele>
        <time>2016-06-01T16:41:35Z</time>
      </trkpt>
      <trkpt lat="48.74203" lon="-0.21191">
        <ele>159.646</ele>
        <time>2016-06-01T16:41:15Z</time>
      </trkpt>
      <trkpt lat="48.74148" lon="-0.21161">
        <ele>156.254</ele>
        <time>2016-06-01T16:40:55Z</time>
      </trkpt>
      <trkpt lat="48.74076" lon="-0.21093">
        <ele>148.798</ele>
        <time>2016-06-01T16:40:35Z</time>
      </trkpt>
      <trkpt lat="48.74048" lon="-0.21069">
        <ele>142.685</ele>
        <time>2016-06-01T16:40:15Z</time>
      </trkpt>
      <trkpt lat="48.73995" lon="-0.21063">
        <ele>144.36</ele>
        <time>2016-06-01T16:39:55Z</time>
      </trkpt>
      <trkpt lat="48.73923" lon="-0.21161">
        <ele>156.414</ele>
        <time>2016-06-01T16:39:35Z</time>
      </trkpt>
      <trkpt lat="48.73847" lon="-0.2146">
        <ele>175.208</ele>
        <time>2016-06-01T16:39:15Z</time>
      </trkpt>
      <trkpt lat="48.73817" lon="-0.21503">
        <ele>181.626</ele>
        <time>2016-06-01T16:38:55Z</time>
      </trkpt>
      <trkpt lat="48.73728" lon="-0.21612">
        <ele>187.424</ele>
        <time>2016-06-01T16:38:35Z</time>
      </trkpt>
      <trkpt lat="48.73702" lon="-0.21646">
        <ele>188.288</ele>
        <time>2016-06-01T16:38:15Z</time>
      </trkpt>
      <trkpt lat="48.73704" lon="-0.21728">
        <ele>194.246</ele>
        <time>2016-06-01T16:37:55Z</time>
      </trkpt>
      <trkpt lat="48.73782" lon="-0.2208">
        <ele>198.127</ele>
        <time>2016-06-01T16:37:35Z</time>
      </trkpt>
      <trkpt lat="48.73851" lon="-0.22198">
        <ele>199.611</ele>
        <time>2016-06-01T16:37:15Z</time>
      </trkpt>
      <trkpt lat="48.73849" lon="-0.22251">
        <ele>200.259</ele>
        <time>2016-06-01T16:36:55Z</time>
      </trkpt>
      <trkpt lat="48.7381" lon="-0.22309">
        <ele>199.073</ele>
        <time>2016-06-01T16:36:35Z</time>
      </trkpt>
      <trkpt lat="48.7351" lon="-0.22663">
        <ele>211.79</ele>
        <time>2016-06-01T16:36:15Z</time>
      </trkpt>
      <trkpt lat="48.73449" lon="-0.22713">
        <ele>214.145</ele>
        <time>2016-06-01T16:35:55Z</time>
      </trkpt>
      <trkpt lat="48.7345" lon="-0.22869">
        <ele>213.259</ele>
        <time>2016-06-01T16:35:35Z</time>
      </trkpt>
      <trkpt lat="48.73498" lon="-0.22889">
        <ele>215.908</ele>
        <time>2016-06-01T16:35:15Z</time>
      </trkpt>
      <trkpt lat="48.7375" lon="-0.23202">
        <ele>214.211</ele>
        <time>2016-06-01T16:34:55Z</time>
      </trkpt>
      <trkpt lat="48.73766" lon="-0.23314">
        <ele>218.692</ele>
        <time>2016-06-01T16:34:35Z</time>
      </trkpt>
      <trkpt lat="48.73944" lon="-0.23751">
        <ele>214.032</ele>
        <time>2016-06-01T16:34:15Z</time>
      </trkpt>
      <trkpt lat="48.7394" lon="-0.23801">
        <ele>212.935</ele>
        <time>2016-06-01T16:33:55Z</time>
      </trkpt>
      <trkpt lat="48.73923" lon="-0.23904">
        <ele>212.516</ele>
        <time>2016-06-01T16:33:35Z</time>
      </trkpt>
      <trkpt lat="48.73919" lon="-0.23987">
        <ele>208.51</ele>
        <time>2016-06-01T16:33:15Z</time>
      </trkpt>
      <trkpt lat="48.73936" lon="-0.24045">
        <ele>206.718</ele>
        <time>2016-06-01T16:32:55Z</time>
      </trkpt>
      <trkpt lat="48.73992" lon="-0.2406">
        <ele>205.172</ele>
        <time>2016-06-01T16:32:35Z</time>
      </trkpt>
      <trkpt lat="48.74046" lon="-0.24086">
        <ele>202.139</ele>
        <time>2016-06-01T16:32:15Z</time>
      </trkpt>
      <trkpt lat="48.74215" lon="-0.24075">
        <ele>187.314</ele>
        <time>2016-06-01T16:31:55Z</time>
      </trkpt>
      <trkpt lat="48.74365" lon="-0.24045">
        <ele>184.998</ele>
        <time>2016-06-01T16:31:35Z</time>
      </trkpt>
      <trkpt lat="48.74513" lon="-0.24062">
        <ele>181.108</ele>
        <time>2016-06-01T16:31:15Z</time>
      </trkpt>
      <trkpt lat="48.74605" lon="-0.24041">
        <ele>174.411</ele>
        <time>2016-06-01T16:30:55Z</time>
      </trkpt>
      <trkpt lat="48.74676" lon="-0.24011">
        <ele>167.883</ele>
        <time>2016-06-01T16:30:35Z</time>
      </trkpt>
      <trkpt lat="48.74752" lon="-0.23942">
        <ele>157.223</ele>
        <time>2016-06-01T16:30:15Z</time>
      </trkpt>
      <trkpt lat="48.74788" lon="-0.23934">
        <ele>157.616</ele>
        <time>2016-06-01T16:29:55Z</time>
      </trkpt>
      <trkpt lat="48.74871" lon="-0.23992">
        <ele>160.837</ele>
        <time>2016-06-01T16:29:35Z</time>
      </trkpt>
      <trkpt lat="48.74902" lon="-0.24045">
        <ele>160.531</ele>
        <time>2016-06-01T16:29:15Z</time>
      </trkpt>
      <trkpt lat="48.74986" lon="-0.24116">
        <ele>161.749</ele>
        <time>2016-06-01T16:28:55Z</time>
      </trkpt>
      <trkpt lat="48.75099" lon="-0.2415">
        <ele>158.233</ele>
        <time>2016-06-01T16:28:35Z</time>
      </trkpt>
      <trkpt lat="48.75119" lon="-0.24172">
        <ele>158.59</ele>
        <time>2016-06-01T16:28:15Z</time>
      </trkpt>
      <trkpt lat="48.75239" lon="-0.24103">
        <ele>159.665</ele>
        <time>2016-06-01T16:27:55Z</time>
      </trkpt>
      <trkpt lat="48.75266" lon="-0.24114">
        <ele>162.839</ele>
        <time>2016-06-01T16:27:35Z</time>
      </trkpt>
      <trkpt lat="48.75274" lon="-0.24148">
        <ele>166.508</ele>
        <time>2016-06-01T16:27:15Z</time>
      </trkpt>
      <trkpt lat="48.75271" lon="-0.24155">
        <ele>166.811</ele>
        <time>2016-06-01T16:26:55Z</time>
      </trkpt>
      <trkpt lat="48.75267" lon="-0.24183">
        <ele>168.292</ele>
        <time>2016-06-01T16:26:35Z</time>
      </trkpt>
      <trkpt lat="48.75281" lon="-0.24208">
        <ele>169.632</ele>
        <time>2016-06-01T16:26:15Z</time>
      </trkpt>
      <trkpt lat="48.7528" lon="-0.24262">
        <ele>173.294</ele>
        <time>2016-06-01T16:25:55Z</time>
      </trkpt>
      <trkpt lat="48.75305" lon="-0.24318">
        <ele>177.925</ele>
        <time>2016-06-01T16:25:35Z</time>
      </trkpt>
      <trkpt lat="48.75307" lon="-0.24339">
        <ele>178.939</ele>
        <time>2016-06-01T16:25:15Z</time>
      </trkpt>
      <trkpt lat="48.7527" lon="-0.24386">
        <ele>184.957</ele>
        <time>2016-06-01T16:24:55Z</time>
      </trkpt>
      <trkpt lat="48.75249" lon="-0.24447">
        <ele>188.251</ele>
        <time>2016-06-01T16:24:35Z</time>
      </trkpt>
      <trkpt lat="48.75178" lon="-0.24509">
        <ele>192.668</ele>
        <time>2016-06-01T16:24:15Z</time>
      </trkpt>
      <trkpt lat="48.75165" lon="-0.24552">
        <ele>193.013</ele>
        <time>2016-06-01T16:23:55Z</time>
      </trkpt>
      <trkpt lat="48.75179" lon="-0.24672">
        <ele>186.967</ele>
        <time>2016-06-01T16:23:35Z</time>
      </trkpt>
      <trkpt lat="48.75225" lon="-0.24762">
        <ele>186.208</ele>
        <time>2016-06-01T16:23:15Z</time>
      </trkpt>
      <trkpt lat="48.75225" lon="-0.24786">
        <ele>187.613</ele>
        <time>2016-06-01T16:22:55Z</time>
      </trkpt>
      <trkpt lat="48.75182" lon="-0.24916">
        <ele>194.076</ele>
        <time>2016-06-01T16:22:35Z</time>
      </trkpt>
      <trkpt lat="48.75163" lon="-0.24989">
        <ele>199.616</ele>
        <time>2016-06-01T16:22:15Z</time>
      </trkpt>
      <trkpt lat="48.75188" lon="-0.25146">
        <ele>203.091</ele>
        <time>2016-06-01T16:21:55Z</time>
      </trkpt>
      <trkpt lat="48.75247" lon="-0.2511">
        <ele>200.952</ele>
        <time>2016-06-01T16:21:35Z</time>
      </trkpt>
      <trkpt lat="48.75348" lon="-0.25049">
        <ele>198.996</ele>
        <time>2016-06-01T16:21:15Z</time>
      </trkpt>
      <trkpt lat="48.75406" lon="-0.24979">
        <ele>197.914</ele>
        <time>2016-06-01T16:20:55Z</time>
      </trkpt>
      <trkpt lat="48.75495" lon="-0.24841">
        <ele>190.838</ele>
        <time>2016-06-01T16:20:35Z</time>
      </trkpt>
      <trkpt lat="48.75542" lon="-0.24781">
        <ele>183.785</ele>
        <time>2016-06-01T16:20:15Z</time>
      </trkpt>
      <trkpt lat="48.75577" lon="-0.24764">
        <ele>180.59</ele>
        <time>2016-06-01T16:19:55Z</time>
      </trkpt>
      <trkpt lat="48.75615" lon="-0.24749">
        <ele>176.544</ele>
        <time>2016-06-01T16:19:35Z</time>
      </trkpt>
      <trkpt lat="48.75693" lon="-0.24777">
        <ele>165.208</ele>
        <time>2016-06-01T16:19:15Z</time>
      </trkpt>
      <trkpt lat="48.75723" lon="-0.24773">
        <ele>159.726</ele>
        <time>2016-06-01T16:18:55Z</time>
      </trkpt>
      <trkpt lat="48.75769" lon="-0.24747">
        <ele>148.76</ele>
        <time>2016-06-01T16:18:35Z</time>
      </trkpt>
      <trkpt lat="48.75822" lon="-0.24773">
        <ele>146.086</ele>
        <time>2016-06-01T16:18:15Z</time>
      </trkpt>
      <trkpt lat="48.7586" lon="-0.24777">
        <ele>142.27</ele>
        <time>2016-06-01T16:17:55Z</time>
      </trkpt>
      <trkpt lat="48.7599" lon="-0.24884">
        <ele>141.871</ele>
        <time>2016-06-01T16:17:35Z</time>
      </trkpt>
      <trkpt lat="48.76105" lon="-0.24934">
        <ele>139.535</ele>
        <time>2016-06-01T16:17:15Z</time>
      </trkpt>
      <trkpt lat="48.76105" lon="-0.24934">
        <ele>139.563</ele>
        <time>2016-06-01T16:17:15Z</time>
      </trkpt>
      <trkpt lat="48.76113" lon="-0.24944">
        <ele>139.087</ele>
        <time>2019-10-26T14:11:46Z</time>
      </trkpt>
      <trkpt lat="48.76039" lon="-0.25014">
        <ele>140.584</ele>
        <time>2019-10-26T14:11:26Z</time>
      </trkpt>
      <trkpt lat="48.7597" lon="-0.25072">
        <ele>146.519</ele>
        <time>2019-10-26T14:11:06Z</time>
      </trkpt>
      <trkpt lat="48.75987" lon="-0.25125">
        <ele>145.873</ele>
        <time>2019-10-26T14:10:46Z</time>
      </trkpt>
      <trkpt lat="48.76006" lon="-0.25181">
        <ele>150.008</ele>
        <time>2019-10-26T14:10:26Z</time>
      </trkpt>
      <trkpt lat="48.76036" lon="-0.25296">
        <ele>167.113</ele>
        <time>2019-10-26T14:10:06Z</time>
      </trkpt>
      <trkpt lat="48.76083" lon="-0.25322">
        <ele>164.385</ele>
        <time>2019-10-26T14:09:46Z</time>
      </trkpt>
      <trkpt lat="48.76156" lon="-0.25415">
        <ele>158.473</ele>
        <time>2019-10-26T14:09:26Z</time>
      </trkpt>
      <trkpt lat="48.76165" lon="-0.2552">
        <ele>166.992</ele>
        <time>2019-10-26T14:09:06Z</time>
      </trkpt>
      <trkpt lat="48.76195" lon="-0.2556">
        <ele>166.593</ele>
        <time>2019-10-26T14:08:46Z</time>
      </trkpt>
      <trkpt lat="48.76243" lon="-0.25608">
        <ele>166.417</ele>
        <time>2019-10-26T14:08:26Z</time>
      </trkpt>
      <trkpt lat="48.76269" lon="-0.2565">
        <ele>167.815</ele>
        <time>2019-10-26T14:08:06Z</time>
      </trkpt>
      <trkpt lat="48.76304" lon="-0.25749">
        <ele>171.329</ele>
        <time>2019-10-26T14:07:46Z</time>
      </trkpt>
      <trkpt lat="48.76345" lon="-0.25822">
        <ele>178.576</ele>
        <time>2019-10-26T14:07:26Z</time>
      </trkpt>
      <trkpt lat="48.76348" lon="-0.25904">
        <ele>181.731</ele>
        <time>2019-10-26T14:07:06Z</time>
      </trkpt>
      <trkpt lat="48.7629" lon="-0.26015">
        <ele>188.445</ele>
        <time>2019-10-26T14:06:46Z</time>
      </trkpt>
      <trkpt lat="48.76237" lon="-0.26149">
        <ele>193.008</ele>
        <time>2019-10-26T14:06:26Z</time>
      </trkpt>
      <trkpt lat="48.76234" lon="-0.26255">
        <ele>197.723</ele>
        <time>2019-10-26T14:06:06Z</time>
      </trkpt>
      <trkpt lat="48.76266" lon="-0.26372">
        <ele>199.149</ele>
        <time>2019-10-26T14:05:46Z</time>
      </trkpt>
      <trkpt lat="48.76278" lon="-0.26457">
        <ele>200.195</ele>
        <time>2019-10-26T14:05:26Z</time>
      </trkpt>
      <trkpt lat="48.76242" lon="-0.26594">
        <ele>187.022</ele>
        <time>2019-10-26T14:05:06Z</time>
      </trkpt>
      <trkpt lat="48.76263" lon="-0.26642">
        <ele>185.663</ele>
        <time>2019-10-26T14:04:46Z</time>
      </trkpt>
      <trkpt lat="48.76295" lon="-0.26649">
        <ele>186.717</ele>
        <time>2016-05-31T23:54:25Z</time>
      </trkpt>
      <trkpt lat="48.76351" lon="-0.26631">
        <ele>187.745</ele>
        <time>2016-05-31T23:54:05Z</time>
      </trkpt>
      <trkpt lat="48.76424" lon="-0.26692">
        <ele>192.789</ele>
        <time>2016-05-31T23:53:45Z</time>
      </trkpt>
      <trkpt lat="48.76482" lon="-0.26802">
        <ele>198.056</ele>
        <time>2016-05-31T23:53:25Z</time>
      </trkpt>
      <trkpt lat="48.76544" lon="-0.26816">
        <ele>197.161</ele>
        <time>2016-05-31T23:53:05Z</time>
      </trkpt>
      <trkpt lat="48.76579" lon="-0.2684">
        <ele>198.965</ele>
        <time>2016-05-31T23:52:45Z</time>
      </trkpt>
      <trkpt lat="48.76604" lon="-0.2689">
        <ele>201.508</ele>
        <time>2016-05-31T23:52:25Z</time>
      </trkpt>
      <trkpt lat="48.76585" lon="-0.26956">
        <ele>201.422</ele>
        <time>2016-05-31T23:52:05Z</time>
      </trkpt>
      <trkpt lat="48.76616" lon="-0.27053">
        <ele>200.757</ele>
        <time>2016-05-31T23:51:45Z</time>
      </trkpt>
      <trkpt lat="48.76619" lon="-0.27198">
        <ele>197.994</ele>
        <time>2016-05-31T23:51:25Z</time>
      </trkpt>
      <trkpt lat="48.7664" lon="-0.27269">
        <ele>195.997</ele>
        <time>2016-05-31T23:51:05Z</time>
      </trkpt>
      <trkpt lat="48.76649" lon="-0.27351">
        <ele>194.828</ele>
        <time>2016-05-31T23:50:45Z</time>
      </trkpt>
      <trkpt lat="48.76669" lon="-0.27385">
        <ele>193.282</ele>
        <time>2016-05-31T23:50:25Z</time>
      </trkpt>
      <trkpt lat="48.76668" lon="-0.27484">
        <ele>187.66</ele>
        <time>2016-05-31T23:50:05Z</time>
      </trkpt>
      <trkpt lat="48.76681" lon="-0.27498">
        <ele>187.154</ele>
        <time>2016-05-31T23:49:45Z</time>
      </trkpt>
      <trkpt lat="48.76731" lon="-0.27499">
        <ele>185.411</ele>
        <time>2016-05-31T23:49:25Z</time>
      </trkpt>
      <trkpt lat="48.76805" lon="-0.2749">
        <ele>180.816</ele>
        <time>2016-05-31T23:49:05Z</time>
      </trkpt>
      <trkpt lat="48.769" lon="-0.27458">
        <ele>180.84</ele>
        <time>2016-05-31T23:48:45Z</time>
      </trkpt>
      <trkpt lat="48.77009" lon="-0.27451">
        <ele>174.908</ele>
        <time>2016-05-31T23:48:25Z</time>
      </trkpt>
      <trkpt lat="48.77034" lon="-0.27488">
        <ele>172.011</ele>
        <time>2016-05-31T23:48:05Z</time>
      </trkpt>
      <trkpt lat="48.77085" lon="-0.27534">
        <ele>165.947</ele>
        <time>2016-05-31T23:47:45Z</time>
      </trkpt>
      <trkpt lat="48.77142" lon="-0.27563">
        <ele>157.445</ele>
        <time>2016-05-31T23:47:25Z</time>
      </trkpt>
      <trkpt lat="48.77196" lon="-0.27553">
        <ele>153.07</ele>
        <time>2016-05-31T23:47:05Z</time>
      </trkpt>
      <trkpt lat="48.77243" lon="-0.27596">
        <ele>160.561</ele>
        <time>2016-05-31T23:46:45Z</time>
      </trkpt>
      <trkpt lat="48.77282" lon="-0.27642">
        <ele>160.945</ele>
        <time>2016-05-31T23:46:25Z</time>
      </trkpt>
      <trkpt lat="48.773" lon="-0.27642">
        <ele>159.533</ele>
        <time>2016-05-31T23:46:05Z</time>
      </trkpt>
      <trkpt lat="48.77346" lon="-0.27619">
        <ele>155.837</ele>
        <time>2016-05-31T23:45:45Z</time>
      </trkpt>
      <trkpt lat="48.77386" lon="-0.27686">
        <ele>155.944</ele>
        <time>2016-05-31T23:45:25Z</time>
      </trkpt>
      <trkpt lat="48.77418" lon="-0.27761">
        <ele>156.899</ele>
        <time>2016-05-31T23:45:05Z</time>
      </trkpt>
      <trkpt lat="48.77419" lon="-0.27795">
        <ele>159.763</ele>
        <time>2016-05-31T23:44:45Z</time>
      </trkpt>
      <trkpt lat="48.77408" lon="-0.27957">
        <ele>178.108</ele>
        <time>2016-05-31T23:44:25Z</time>
      </trkpt>
      <trkpt lat="48.77495" lon="-0.28142">
        <ele>184.815</ele>
        <time>2016-05-31T23:44:05Z</time>
      </trkpt>
      <trkpt lat="48.77495" lon="-0.28142">
        <ele>184.841</ele>
        <time>2016-05-31T23:43:45Z</time>
      </trkpt>
      <trkpt lat="48.77495" lon="-0.28142">
        <ele>184.871</ele>
        <time>2016-05-31T23:43:25Z</time>
      </trkpt>
      <trkpt lat="48.77577" lon="-0.28375">
        <ele>182.742</ele>
        <time>2016-05-31T23:43:05Z</time>
      </trkpt>
      <trkpt lat="48.77652" lon="-0.28357">
        <ele>173.523</ele>
        <time>2016-05-31T23:42:45Z</time>
      </trkpt>
      <trkpt lat="48.77721" lon="-0.28349">
        <ele>165.667</ele>
        <time>2016-05-31T23:42:25Z</time>
      </trkpt>
      <trkpt lat="48.77799" lon="-0.28295">
        <ele>159.445</ele>
        <time>2016-05-31T23:42:05Z</time>
      </trkpt>
      <trkpt lat="48.77825" lon="-0.28453">
        <ele>158.729</ele>
        <time>2020-12-23T21:57:55Z</time>
      </trkpt>
      <trkpt lat="48.77896" lon="-0.28447">
        <ele>155.856</ele>
        <time>2020-12-23T21:57:35Z</time>
      </trkpt>
      <trkpt lat="48.77922" lon="-0.28465">
        <ele>153.441</ele>
        <time>2020-12-23T21:57:15Z</time>
      </trkpt>
      <trkpt lat="48.77977" lon="-0.28483">
        <ele>143.525</ele>
        <time>2020-12-23T21:56:55Z</time>
      </trkpt>
      <trkpt lat="48.77993" lon="-0.28574">
        <ele>138.908</ele>
        <time>2016-05-31T23:40:25Z</time>
      </trkpt>
      <trkpt lat="48.77993" lon="-0.28641">
        <ele>144.626</ele>
        <time>2020-12-23T21:56:15Z</time>
      </trkpt>
      <trkpt lat="48.77936" lon="-0.28837">
        <ele>161.615</ele>
        <time>2020-12-23T21:55:55Z</time>
      </trkpt>
      <trkpt lat="48.77894" lon="-0.28883">
        <ele>163.398</ele>
        <time>2016-05-31T23:37:25Z</time>
      </trkpt>
      <trkpt lat="48.7783" lon="-0.28917">
        <ele>167.494</ele>
        <time>2016-05-31T23:37:05Z</time>
      </trkpt>
      <trkpt lat="48.77745" lon="-0.29031">
        <ele>175.395</ele>
        <time>2016-05-31T23:36:45Z</time>
      </trkpt>
      <trkpt lat="48.77877" lon="-0.29123">
        <ele>172.449</ele>
        <time>2016-05-31T23:36:25Z</time>
      </trkpt>
      <trkpt lat="48.77916" lon="-0.2916">
        <ele>171.847</ele>
        <time>2016-05-31T23:36:05Z</time>
      </trkpt>
      <trkpt lat="48.77949" lon="-0.2916">
        <ele>169.771</ele>
        <time>2016-05-31T23:35:45Z</time>
      </trkpt>
      <trkpt lat="48.77963" lon="-0.29188">
        <ele>170.878</ele>
        <time>2016-05-31T23:35:25Z</time>
      </trkpt>
      <trkpt lat="48.77939" lon="-0.29224">
        <ele>172.033</ele>
        <time>2016-05-31T23:35:05Z</time>
      </trkpt>
      <trkpt lat="48.78053" lon="-0.29282">
        <ele>174.387</ele>
        <time>2016-05-31T23:34:45Z</time>
      </trkpt>
      <trkpt lat="48.78063" lon="-0.29334">
        <ele>176.708</ele>
        <time>2016-05-31T23:34:25Z</time>
      </trkpt>
      <trkpt lat="48.78066" lon="-0.29469">
        <ele>180.209</ele>
        <time>2016-05-31T23:34:05Z</time>
      </trkpt>
      <trkpt lat="48.78001" lon="-0.29718">
        <ele>193.854</ele>
        <time>2016-05-31T23:33:45Z</time>
      </trkpt>
      <trkpt lat="48.77868" lon="-0.30025">
        <ele>181.414</ele>
        <time>2016-05-31T23:33:25Z</time>
      </trkpt>
      <trkpt lat="48.77861" lon="-0.30126">
        <ele>178.526</ele>
        <time>2016-05-31T23:33:05Z</time>
      </trkpt>
      <trkpt lat="48.77865" lon="-0.3025">
        <ele>178.627</ele>
        <time>2016-05-31T23:32:45Z</time>
      </trkpt>
      <trkpt lat="48.77793" lon="-0.30851">
        <ele>158.761</ele>
        <time>2016-05-31T23:32:25Z</time>
      </trkpt>
      <trkpt lat="48.77756" lon="-0.30973">
        <ele>155.569</ele>
        <time>2016-05-31T23:32:05Z</time>
      </trkpt>
      <trkpt lat="48.77737" lon="-0.3107">
        <ele>151.613</ele>
        <time>2016-05-31T23:31:45Z</time>
      </trkpt>
      <trkpt lat="48.77923" lon="-0.31158">
        <ele>151.76</ele>
        <time>2016-05-31T23:31:25Z</time>
      </trkpt>
      <trkpt lat="48.77947" lon="-0.31162">
        <ele>156.635</ele>
        <time>2016-05-31T23:31:05Z</time>
      </trkpt>
      <trkpt lat="48.78066" lon="-0.31108">
        <ele>173.129</ele>
        <time>2016-05-31T23:30:45Z</time>
      </trkpt>
      <trkpt lat="48.78076" lon="-0.31089">
        <ele>171.908</ele>
        <time>2016-05-31T23:30:25Z</time>
      </trkpt>
      <trkpt lat="48.78137" lon="-0.30988">
        <ele>168.413</ele>
        <time>2016-05-31T23:30:05Z</time>
      </trkpt>
      <trkpt lat="48.78164" lon="-0.3095">
        <ele>164.649</ele>
        <time>2016-05-31T23:29:45Z</time>
      </trkpt>
      <trkpt lat="48.7827" lon="-0.30862">
        <ele>172.237</ele>
        <time>2016-05-31T23:29:25Z</time>
      </trkpt>
      <trkpt lat="48.78315" lon="-0.30838">
        <ele>173.984</ele>
        <time>2016-05-31T23:29:05Z</time>
      </trkpt>
      <trkpt lat="48.78362" lon="-0.30834">
        <ele>175.095</ele>
        <time>2016-05-31T23:28:45Z</time>
      </trkpt>
      <trkpt lat="48.78447" lon="-0.30861">
        <ele>181.899</ele>
        <time>2016-05-31T23:28:25Z</time>
      </trkpt>
      <trkpt lat="48.78447" lon="-0.30861">
        <ele>181.887</ele>
        <time>2016-05-31T23:28:05Z</time>
      </trkpt>
      <trkpt lat="48.78485" lon="-0.30931">
        <ele>185.331</ele>
        <time>2016-05-31T23:27:45Z</time>
      </trkpt>
      <trkpt lat="48.78534" lon="-0.30976">
        <ele>188.478</ele>
        <time>2016-05-31T23:27:25Z</time>
      </trkpt>
      <trkpt lat="48.78561" lon="-0.31032">
        <ele>192.343</ele>
        <time>2016-05-31T23:27:05Z</time>
      </trkpt>
      <trkpt lat="48.78624" lon="-0.31047">
        <ele>192.567</ele>
        <time>2016-05-31T23:26:45Z</time>
      </trkpt>
      <trkpt lat="48.78648" lon="-0.31072">
        <ele>193.608</ele>
        <time>2016-05-31T23:26:25Z</time>
      </trkpt>
      <trkpt lat="48.78647" lon="-0.31116">
        <ele>194.215</ele>
        <time>2016-05-31T23:26:05Z</time>
      </trkpt>
      <trkpt lat="48.78624" lon="-0.31164">
        <ele>194.187</ele>
        <time>2016-05-31T23:25:45Z</time>
      </trkpt>
      <trkpt lat="48.78706" lon="-0.31196">
        <ele>181.617</ele>
        <time>2016-05-31T23:25:25Z</time>
      </trkpt>
      <trkpt lat="48.78835" lon="-0.31195">
        <ele>165.73</ele>
        <time>2016-05-31T23:25:05Z</time>
      </trkpt>
      <trkpt lat="48.78945" lon="-0.31153">
        <ele>168.471</ele>
        <time>2016-05-31T23:24:45Z</time>
      </trkpt>
      <trkpt lat="48.7907" lon="-0.31163">
        <ele>162.265</ele>
        <time>2016-05-31T23:24:25Z</time>
      </trkpt>
      <trkpt lat="48.79224" lon="-0.31149">
        <ele>160.033</ele>
        <time>2016-05-31T23:24:05Z</time>
      </trkpt>
      <trkpt lat="48.79265" lon="-0.31191">
        <ele>159.667</ele>
        <time>2016-05-31T23:23:45Z</time>
      </trkpt>
      <trkpt lat="48.793" lon="-0.31202">
        <ele>160.024</ele>
        <time>2016-05-31T23:23:25Z</time>
      </trkpt>
      <trkpt lat="48.79374" lon="-0.31199">
        <ele>159.969</ele>
        <time>2016-05-31T23:23:05Z</time>
      </trkpt>
      <trkpt lat="48.79505" lon="-0.31313">
        <ele>150.993</ele>
        <time>2016-05-31T23:22:45Z</time>
      </trkpt>
      <trkpt lat="48.79544" lon="-0.3133">
        <ele>144.608</ele>
        <time>2016-05-31T23:22:25Z</time>
      </trkpt>
      <trkpt lat="48.79584" lon="-0.31294">
        <ele>139.926</ele>
        <time>2016-05-31T23:22:05Z</time>
      </trkpt>
      <trkpt lat="48.79614" lon="-0.31244">
        <ele>133.633</ele>
        <time>2016-05-31T23:21:45Z</time>
      </trkpt>
      <trkpt lat="48.79633" lon="-0.31216">
        <ele>125.878</ele>
        <time>2016-05-31T23:21:25Z</time>
      </trkpt>
      <trkpt lat="48.79644" lon="-0.31235">
        <ele>123.212</ele>
        <time>2016-05-31T23:21:05Z</time>
      </trkpt>
      <trkpt lat="48.79644" lon="-0.3137">
        <ele>106.923</ele>
        <time>2016-05-31T23:20:45Z</time>
      </trkpt>
      <trkpt lat="48.79662" lon="-0.31444">
        <ele>102.257</ele>
        <time>2016-05-31T23:20:25Z</time>
      </trkpt>
      <trkpt lat="48.79651" lon="-0.3151">
        <ele>101.115</ele>
        <time>2016-05-31T23:20:05Z</time>
      </trkpt>
      <trkpt lat="48.79644" lon="-0.31556">
        <ele>99.059</ele>
        <time>2016-05-31T23:19:45Z</time>
      </trkpt>
      <trkpt lat="48.79579" lon="-0.31522">
        <ele>105.516</ele>
        <time>2016-05-31T23:19:25Z</time>
      </trkpt>
      <trkpt lat="48.79564" lon="-0.31595">
        <ele>106.291</ele>
        <time>2016-05-31T23:19:05Z</time>
      </trkpt>
      <trkpt lat="48.79489" lon="-0.31593">
        <ele>119.915</ele>
        <time>2016-05-31T23:18:45Z</time>
      </trkpt>
      <trkpt lat="48.79424" lon="-0.31634">
        <ele>136.008</ele>
        <time>2016-05-31T23:18:25Z</time>
      </trkpt>
      <trkpt lat="48.79419" lon="-0.31661">
        <ele>136.923</ele>
        <time>2016-05-31T23:18:05Z</time>
      </trkpt>
      <trkpt lat="48.79445" lon="-0.31665">
        <ele>135.849</ele>
        <time>2016-05-31T23:17:45Z</time>
      </trkpt>
      <trkpt lat="48.79481" lon="-0.31703">
        <ele>135.595</ele>
        <time>2016-05-31T23:17:25Z</time>
      </trkpt>
      <trkpt lat="48.7955" lon="-0.31845">
        <ele>138.284</ele>
        <time>2016-05-31T23:17:05Z</time>
      </trkpt>
      <trkpt lat="48.79574" lon="-0.31956">
        <ele>155.815</ele>
        <time>2016-05-31T23:16:45Z</time>
      </trkpt>
      <trkpt lat="48.79623" lon="-0.32015">
        <ele>168.189</ele>
        <time>2016-05-31T23:16:25Z</time>
      </trkpt>
      <trkpt lat="48.79696" lon="-0.32097">
        <ele>174.057</ele>
        <time>2016-05-31T23:16:05Z</time>
      </trkpt>
      <trkpt lat="48.79789" lon="-0.32174">
        <ele>183.591</ele>
        <time>2016-05-31T23:15:45Z</time>
      </trkpt>
      <trkpt lat="48.79797" lon="-0.32252">
        <ele>186.138</ele>
        <time>2016-05-31T23:15:25Z</time>
      </trkpt>
      <trkpt lat="48.79847" lon="-0.32259">
        <ele>188.893</ele>
        <time>2016-05-31T23:15:05Z</time>
      </trkpt>
      <trkpt lat="48.79878" lon="-0.32281">
        <ele>190.257</ele>
        <time>2016-05-31T23:14:45Z</time>
      </trkpt>
      <trkpt lat="48.79905" lon="-0.3233">
        <ele>193.808</ele>
        <time>2016-05-31T23:14:25Z</time>
      </trkpt>
      <trkpt lat="48.79988" lon="-0.32391">
        <ele>192.609</ele>
        <time>2016-05-31T23:14:05Z</time>
      </trkpt>
      <trkpt lat="48.80019" lon="-0.32403">
        <ele>193.554</ele>
        <time>2016-05-31T23:13:45Z</time>
      </trkpt>
      <trkpt lat="48.80116" lon="-0.32393">
        <ele>189.414</ele>
        <time>2016-05-31T23:13:25Z</time>
      </trkpt>
      <trkpt lat="48.80168" lon="-0.32344">
        <ele>190.225</ele>
        <time>2016-05-31T23:13:05Z</time>
      </trkpt>
      <trkpt lat="48.8025" lon="-0.32332">
        <ele>195.976</ele>
        <time>2016-05-31T23:12:45Z</time>
      </trkpt>
      <trkpt lat="48.80278" lon="-0.32313">
        <ele>196.32</ele>
        <time>2016-05-31T23:12:25Z</time>
      </trkpt>
      <trkpt lat="48.80357" lon="-0.32273">
        <ele>201.368</ele>
        <time>2016-05-31T23:12:05Z</time>
      </trkpt>
      <trkpt lat="48.80405" lon="-0.32241">
        <ele>191.132</ele>
        <time>2016-05-31T23:11:45Z</time>
      </trkpt>
      <trkpt lat="48.80441" lon="-0.32159">
        <ele>180.219</ele>
        <time>2016-05-31T23:11:25Z</time>
      </trkpt>
      <trkpt lat="48.80485" lon="-0.32162">
        <ele>173.894</ele>
        <time>2016-05-31T23:11:05Z</time>
      </trkpt>
      <trkpt lat="48.80523" lon="-0.32154">
        <ele>168.798</ele>
        <time>2016-05-31T23:10:45Z</time>
      </trkpt>
      <trkpt lat="48.8055" lon="-0.32184">
        <ele>165.208</ele>
        <time>2016-05-31T23:10:25Z</time>
      </trkpt>
      <trkpt lat="48.80563" lon="-0.32226">
        <ele>164.411</ele>
        <time>2016-05-31T23:10:05Z</time>
      </trkpt>
      <trkpt lat="48.80576" lon="-0.32252">
        <ele>162.483</ele>
        <time>2016-05-31T23:09:45Z</time>
      </trkpt>
      <trkpt lat="48.80641" lon="-0.32239">
        <ele>156.023</ele>
        <time>2016-05-31T23:09:25Z</time>
      </trkpt>
      <trkpt lat="48.80698" lon="-0.32203">
        <ele>158.724</ele>
        <time>2016-05-31T23:09:05Z</time>
      </trkpt>
      <trkpt lat="48.80754" lon="-0.32073">
        <ele>159.615</ele>
        <time>2016-05-31T23:08:45Z</time>
      </trkpt>
      <trkpt lat="48.8076" lon="-0.31995">
        <ele>154.539</ele>
        <time>2016-05-31T23:08:25Z</time>
      </trkpt>
      <trkpt lat="48.8075" lon="-0.31843">
        <ele>142.497</ele>
        <time>2016-05-31T23:08:05Z</time>
      </trkpt>
      <trkpt lat="48.80774" lon="-0.31799">
        <ele>139.131</ele>
        <time>2016-05-31T23:07:45Z</time>
      </trkpt>
      <trkpt lat="48.80827" lon="-0.31749">
        <ele>137.228</ele>
        <time>2016-05-31T23:07:25Z</time>
      </trkpt>
      <trkpt lat="48.80861" lon="-0.317">
        <ele>134.473</ele>
        <time>2016-05-31T23:07:05Z</time>
      </trkpt>
      <trkpt lat="48.80896" lon="-0.31587">
        <ele>130.037</ele>
        <time>2016-05-31T23:06:45Z</time>
      </trkpt>
      <trkpt lat="48.80911" lon="-0.31512">
        <ele>123.908</ele>
        <time>2016-05-31T23:06:25Z</time>
      </trkpt>
      <trkpt lat="48.80955" lon="-0.31479">
        <ele>121.807</ele>
        <time>2016-05-31T23:06:05Z</time>
      </trkpt>
      <trkpt lat="48.81003" lon="-0.31484">
        <ele>114.343</ele>
        <time>2016-05-31T23:05:45Z</time>
      </trkpt>
      <trkpt lat="48.81057" lon="-0.31511">
        <ele>101.113</ele>
        <time>2016-05-31T23:05:25Z</time>
      </trkpt>
      <trkpt lat="48.81079" lon="-0.31546">
        <ele>97.895</ele>
        <time>2016-05-31T23:05:05Z</time>
      </trkpt>
      <trkpt lat="48.81103" lon="-0.31617">
        <ele>93.936</ele>
        <time>2016-05-31T23:04:45Z</time>
      </trkpt>
      <trkpt lat="48.81139" lon="-0.3179">
        <ele>91.99</ele>
        <time>2016-05-31T23:04:25Z</time>
      </trkpt>
      <trkpt lat="48.81154" lon="-0.31919">
        <ele>88.628</ele>
        <time>2016-05-31T23:04:05Z</time>
      </trkpt>
      <trkpt lat="48.81175" lon="-0.32036">
        <ele>82.982</ele>
        <time>2016-05-31T23:03:45Z</time>
      </trkpt>
      <trkpt lat="48.81164" lon="-0.32115">
        <ele>89.249</ele>
        <time>2016-05-31T23:03:25Z</time>
      </trkpt>
      <trkpt lat="48.81166" lon="-0.32197">
        <ele>109.074</ele>
        <time>2016-05-31T23:03:05Z</time>
      </trkpt>
      <trkpt lat="48.81222" lon="-0.32352">
        <ele>117.058</ele>
        <time>2016-05-31T23:02:45Z</time>
      </trkpt>
      <trkpt lat="48.81201" lon="-0.3242">
        <ele>127.908</ele>
        <time>2016-05-31T23:02:25Z</time>
      </trkpt>
      <trkpt lat="48.81172" lon="-0.32419">
        <ele>136.611</ele>
        <time>2016-05-31T23:02:05Z</time>
      </trkpt>
      <trkpt lat="48.81119" lon="-0.32426">
        <ele>146.447</ele>
        <time>2016-05-31T23:01:45Z</time>
      </trkpt>
      <trkpt lat="48.81047" lon="-0.32482">
        <ele>151.426</ele>
        <time>2016-05-31T23:01:25Z</time>
      </trkpt>
      <trkpt lat="48.81009" lon="-0.32546">
        <ele>156.947</ele>
        <time>2016-05-31T23:01:05Z</time>
      </trkpt>
      <trkpt lat="48.81032" lon="-0.32643">
        <ele>157.868</ele>
        <time>2016-05-31T23:00:45Z</time>
      </trkpt>
      <trkpt lat="48.81004" lon="-0.32671">
        <ele>161.692</ele>
        <time>2016-05-31T23:00:25Z</time>
      </trkpt>
      <trkpt lat="48.81004" lon="-0.32671">
        <ele>161.65</ele>
        <time>2016-05-31T23:00:05Z</time>
      </trkpt>
      <trkpt lat="48.80903" lon="-0.32772">
        <ele>174.044</ele>
        <time>2016-05-31T22:59:45Z</time>
      </trkpt>
      <trkpt lat="48.80816" lon="-0.32882">
        <ele>180.931</ele>
        <time>2016-05-31T22:59:25Z</time>
      </trkpt>
      <trkpt lat="48.80792" lon="-0.32932">
        <ele>179.926</ele>
        <time>2016-05-31T22:59:05Z</time>
      </trkpt>
      <trkpt lat="48.80803" lon="-0.33029">
        <ele>185.68</ele>
        <time>2016-05-31T22:58:45Z</time>
      </trkpt>
      <trkpt lat="48.80835" lon="-0.33111">
        <ele>190.208</ele>
        <time>2016-05-31T22:58:25Z</time>
      </trkpt>
      <trkpt lat="48.8083" lon="-0.33155">
        <ele>189.616</ele>
        <time>2016-05-31T22:58:05Z</time>
      </trkpt>
      <trkpt lat="48.80806" lon="-0.33196">
        <ele>189.188</ele>
        <time>2016-05-31T22:57:45Z</time>
      </trkpt>
      <trkpt lat="48.80827" lon="-0.33269">
        <ele>191.846</ele>
        <time>2016-05-31T22:57:25Z</time>
      </trkpt>
      <trkpt lat="48.80849" lon="-0.33395">
        <ele>196.836</ele>
        <time>2016-05-31T22:57:05Z</time>
      </trkpt>
      <trkpt lat="48.80872" lon="-0.33436">
        <ele>199.167</ele>
        <time>2016-05-31T22:56:45Z</time>
      </trkpt>
      <trkpt lat="48.80898" lon="-0.33457">
        <ele>200.131</ele>
        <time>2016-05-31T22:56:25Z</time>
      </trkpt>
      <trkpt lat="48.80953" lon="-0.33471">
        <ele>202.389</ele>
        <time>2016-05-31T22:56:05Z</time>
      </trkpt>
      <trkpt lat="48.81118" lon="-0.33354">
        <ele>194.453</ele>
        <time>2016-05-31T22:55:45Z</time>
      </trkpt>
      <trkpt lat="48.81162" lon="-0.33342">
        <ele>189.35</ele>
        <time>2016-05-31T22:55:25Z</time>
      </trkpt>
      <trkpt lat="48.81202" lon="-0.33318">
        <ele>182.355</ele>
        <time>2016-05-31T22:55:05Z</time>
      </trkpt>
      <trkpt lat="48.81261" lon="-0.33358">
        <ele>168.869</ele>
        <time>2016-05-31T22:54:45Z</time>
      </trkpt>
      <trkpt lat="48.81275" lon="-0.33407">
        <ele>166.708</ele>
        <time>2016-05-31T22:54:25Z</time>
      </trkpt>
      <trkpt lat="48.8127" lon="-0.33448">
        <ele>170.91</ele>
        <time>2016-05-31T22:54:05Z</time>
      </trkpt>
      <trkpt lat="48.81321" lon="-0.33584">
        <ele>178.155</ele>
        <time>2016-05-31T22:53:45Z</time>
      </trkpt>
      <trkpt lat="48.81302" lon="-0.33682">
        <ele>189.934</ele>
        <time>2016-05-31T22:53:25Z</time>
      </trkpt>
      <trkpt lat="48.81276" lon="-0.33693">
        <ele>196.331</ele>
        <time>2016-05-31T22:53:05Z</time>
      </trkpt>
      <trkpt lat="48.81273" lon="-0.33725">
        <ele>200.512</ele>
        <time>2016-05-31T22:52:45Z</time>
      </trkpt>
      <trkpt lat="48.81255" lon="-0.33799">
        <ele>205.496</ele>
        <time>2016-05-31T22:52:25Z</time>
      </trkpt>
      <trkpt lat="48.81242" lon="-0.3391">
        <ele>212.024</ele>
        <time>2016-05-31T22:52:05Z</time>
      </trkpt>
      <trkpt lat="48.81244" lon="-0.33968">
        <ele>212.478</ele>
        <time>2016-05-31T22:51:45Z</time>
      </trkpt>
      <trkpt lat="48.8124" lon="-0.33994">
        <ele>213.565</ele>
        <time>2016-05-31T22:51:25Z</time>
      </trkpt>
      <trkpt lat="48.81229" lon="-0.34036">
        <ele>214.55</ele>
        <time>2016-05-31T22:51:05Z</time>
      </trkpt>
      <trkpt lat="48.81209" lon="-0.34078">
        <ele>214.574</ele>
        <time>2016-05-31T22:50:45Z</time>
      </trkpt>
      <trkpt lat="48.81192" lon="-0.34094">
        <ele>215.108</ele>
        <time>2016-05-31T22:50:25Z</time>
      </trkpt>
      <trkpt lat="48.81179" lon="-0.34118">
        <ele>215.817</ele>
        <time>2016-05-31T22:50:05Z</time>
      </trkpt>
      <trkpt lat="48.8117" lon="-0.34208">
        <ele>217.943</ele>
        <time>2016-05-31T22:49:45Z</time>
      </trkpt>
      <trkpt lat="48.81186" lon="-0.34198">
        <ele>217.382</ele>
        <time>2016-05-31T22:49:25Z</time>
      </trkpt>
      <trkpt lat="48.81191" lon="-0.342">
        <ele>217.165</ele>
        <time>2016-05-31T22:49:05Z</time>
      </trkpt>
      <trkpt lat="48.81195" lon="-0.34231">
        <ele>216.756</ele>
        <time>2016-05-31T22:48:45Z</time>
      </trkpt>
      <trkpt lat="48.81232" lon="-0.34232">
        <ele>214.75</ele>
        <time>2016-05-31T22:48:25Z</time>
      </trkpt>
      <trkpt lat="48.81255" lon="-0.3426">
        <ele>211.968</ele>
        <time>2016-05-31T22:48:05Z</time>
      </trkpt>
      <trkpt lat="48.81266" lon="-0.34265">
        <ele>210.252</ele>
        <time>2016-05-31T22:47:45Z</time>
      </trkpt>
      <trkpt lat="48.81307" lon="-0.34236">
        <ele>204.899</ele>
        <time>2016-05-31T22:46:05Z</time>
      </trkpt>
      <trkpt lat="48.81341" lon="-0.34225">
        <ele>199.654</ele>
        <time>2016-05-31T22:45:45Z</time>
      </trkpt>
      <trkpt lat="48.81374" lon="-0.34223">
        <ele>195.188</ele>
        <time>2016-05-31T22:45:25Z</time>
      </trkpt>
      <trkpt lat="48.81389" lon="-0.34279">
        <ele>196.108</ele>
        <time>2016-05-31T22:45:05Z</time>
      </trkpt>
      <trkpt lat="48.81406" lon="-0.34315">
        <ele>197.105</ele>
        <time>2016-05-31T22:44:45Z</time>
      </trkpt>
      <trkpt lat="48.81438" lon="-0.34348">
        <ele>194.141</ele>
        <time>2016-05-31T22:44:25Z</time>
      </trkpt>
      <trkpt lat="48.81477" lon="-0.34446">
        <ele>193.421</ele>
        <time>2016-05-31T22:44:05Z</time>
      </trkpt>
      <trkpt lat="48.815" lon="-0.3453">
        <ele>194.336</ele>
        <time>2016-05-31T22:43:45Z</time>
      </trkpt>
      <trkpt lat="48.81539" lon="-0.34606">
        <ele>193.237</ele>
        <time>2016-05-31T22:43:25Z</time>
      </trkpt>
      <trkpt lat="48.81566" lon="-0.34647">
        <ele>191.321</ele>
        <time>2016-05-31T22:43:05Z</time>
      </trkpt>
      <trkpt lat="48.81584" lon="-0.34695">
        <ele>191.989</ele>
        <time>2016-05-31T22:42:45Z</time>
      </trkpt>
      <trkpt lat="48.81619" lon="-0.34761">
        <ele>190.863</ele>
        <time>2016-05-31T22:42:25Z</time>
      </trkpt>
      <trkpt lat="48.81643" lon="-0.34833">
        <ele>196.57</ele>
        <time>2016-05-31T22:42:05Z</time>
      </trkpt>
      <trkpt lat="48.81661" lon="-0.34936">
        <ele>204.615</ele>
        <time>2016-05-31T22:41:45Z</time>
      </trkpt>
      <trkpt lat="48.81663" lon="-0.34965">
        <ele>206.119</ele>
        <time>2016-05-31T22:41:25Z</time>
      </trkpt>
      <trkpt lat="48.81611" lon="-0.35179">
        <ele>211.608</ele>
        <time>2016-05-31T22:41:05Z</time>
      </trkpt>
      <trkpt lat="48.81593" lon="-0.35208">
        <ele>209.518</ele>
        <time>2016-05-31T22:40:45Z</time>
      </trkpt>
      <trkpt lat="48.81454" lon="-0.35312">
        <ele>222.617</ele>
        <time>2016-05-31T22:40:25Z</time>
      </trkpt>
      <trkpt lat="48.81357" lon="-0.35365">
        <ele>230.036</ele>
        <time>2016-05-31T22:40:05Z</time>
      </trkpt>
      <trkpt lat="48.81369" lon="-0.35442">
        <ele>228.574</ele>
        <time>2016-05-31T22:39:45Z</time>
      </trkpt>
      <trkpt lat="48.81416" lon="-0.35668">
        <ele>226.055</ele>
        <time>2016-05-31T22:39:25Z</time>
      </trkpt>
      <trkpt lat="48.81423" lon="-0.35724">
        <ele>226.599</ele>
        <time>2016-05-31T22:39:05Z</time>
      </trkpt>
      <trkpt lat="48.8142" lon="-0.35748">
        <ele>226.967</ele>
        <time>2016-05-31T22:38:45Z</time>
      </trkpt>
      <trkpt lat="48.81435" lon="-0.35749">
        <ele>226.371</ele>
        <time>2016-05-31T22:38:25Z</time>
      </trkpt>
      <trkpt lat="48.81491" lon="-0.35805">
        <ele>220.318</ele>
        <time>2016-05-31T22:38:05Z</time>
      </trkpt>
      <trkpt lat="48.81548" lon="-0.35837">
        <ele>216.643</ele>
        <time>2016-05-31T22:37:45Z</time>
      </trkpt>
      <trkpt lat="48.81545" lon="-0.35927">
        <ele>224.477</ele>
        <time>2016-05-31T22:37:25Z</time>
      </trkpt>
      <trkpt lat="48.81473" lon="-0.35983">
        <ele>226.808</ele>
        <time>2016-05-31T22:37:05Z</time>
      </trkpt>
      <trkpt lat="48.81467" lon="-0.36001">
        <ele>227.905</ele>
        <time>2016-05-31T22:36:45Z</time>
      </trkpt>
      <trkpt lat="48.81466" lon="-0.36036">
        <ele>230.432</ele>
        <time>2016-05-31T22:36:25Z</time>
      </trkpt>
      <trkpt lat="48.81476" lon="-0.36067">
        <ele>231.412</ele>
        <time>2016-05-31T22:36:05Z</time>
      </trkpt>
      <trkpt lat="48.81474" lon="-0.36099">
        <ele>232.07</ele>
        <time>2016-05-31T22:35:45Z</time>
      </trkpt>
      <trkpt lat="48.81492" lon="-0.36154">
        <ele>232.731</ele>
        <time>2016-05-31T22:35:25Z</time>
      </trkpt>
      <trkpt lat="48.81499" lon="-0.3619">
        <ele>233.835</ele>
        <time>2016-05-31T22:35:05Z</time>
      </trkpt>
      <trkpt lat="48.81613" lon="-0.36303">
        <ele>236.923</ele>
        <time>2016-05-31T22:34:45Z</time>
      </trkpt>
      <trkpt lat="48.81657" lon="-0.36358">
        <ele>233.087</ele>
        <time>2016-05-31T22:34:25Z</time>
      </trkpt>
      <trkpt lat="48.81693" lon="-0.36388">
        <ele>234.094</ele>
        <time>2016-05-31T22:34:05Z</time>
      </trkpt>
      <trkpt lat="48.81712" lon="-0.36392">
        <ele>234.849</ele>
        <time>2016-05-31T22:33:45Z</time>
      </trkpt>
      <trkpt lat="48.81767" lon="-0.36384">
        <ele>236.553</ele>
        <time>2016-05-31T22:33:25Z</time>
      </trkpt>
      <trkpt lat="48.81789" lon="-0.36387">
        <ele>236.408</ele>
        <time>2016-05-31T22:33:05Z</time>
      </trkpt>
      <trkpt lat="48.81836" lon="-0.36429">
        <ele>236.614</ele>
        <time>2016-05-31T22:32:45Z</time>
      </trkpt>
      <trkpt lat="48.81889" lon="-0.36462">
        <ele>233.013</ele>
        <time>2016-05-31T22:32:25Z</time>
      </trkpt>
      <trkpt lat="48.81919" lon="-0.36496">
        <ele>233.972</ele>
        <time>2016-05-31T22:32:05Z</time>
      </trkpt>
      <trkpt lat="48.8199" lon="-0.36612">
        <ele>228.498</ele>
        <time>2016-05-31T22:31:45Z</time>
      </trkpt>
      <trkpt lat="48.82026" lon="-0.36644">
        <ele>225.289</ele>
        <time>2016-05-31T22:31:25Z</time>
      </trkpt>
      <trkpt lat="48.82093" lon="-0.36765">
        <ele>219.953</ele>
        <time>2016-05-31T22:31:05Z</time>
      </trkpt>
      <trkpt lat="48.82144" lon="-0.36891">
        <ele>215.381</ele>
        <time>2016-05-31T22:30:45Z</time>
      </trkpt>
      <trkpt lat="48.82156" lon="-0.36949">
        <ele>215.725</ele>
        <time>2016-05-31T22:30:25Z</time>
      </trkpt>
      <trkpt lat="48.8218" lon="-0.3696">
        <ele>215.092</ele>
        <time>2016-05-31T22:30:05Z</time>
      </trkpt>
      <trkpt lat="48.8222" lon="-0.36919">
        <ele>213.927</ele>
        <time>2016-05-31T22:29:45Z</time>
      </trkpt>
      <trkpt lat="48.82244" lon="-0.36962">
        <ele>213.581</ele>
        <time>2016-05-31T22:29:25Z</time>
      </trkpt>
      <trkpt lat="48.82241" lon="-0.36994">
        <ele>213.308</ele>
        <time>2016-05-31T22:29:05Z</time>
      </trkpt>
      <trkpt lat="48.82311" lon="-0.3718">
        <ele>205.214</ele>
        <time>2016-05-31T22:28:45Z</time>
      </trkpt>
      <trkpt lat="48.82311" lon="-0.3718">
        <ele>205.259</ele>
        <time>2016-05-31T22:28:25Z</time>
      </trkpt>
      <trkpt lat="48.82374" lon="-0.37274">
        <ele>195.556</ele>
        <time>2016-05-31T22:28:05Z</time>
      </trkpt>
      <trkpt lat="48.82433" lon="-0.37351">
        <ele>187.15</ele>
        <time>2016-05-31T22:27:45Z</time>
      </trkpt>
      <trkpt lat="48.82465" lon="-0.37374">
        <ele>182.261</ele>
        <time>2016-05-31T22:27:25Z</time>
      </trkpt>
      <trkpt lat="48.82478" lon="-0.37368">
        <ele>181.335</ele>
        <time>2016-05-31T22:27:05Z</time>
      </trkpt>
      <trkpt lat="48.82709" lon="-0.37863">
        <ele>160.213</ele>
        <time>2016-05-31T22:26:45Z</time>
      </trkpt>
      <trkpt lat="48.82777" lon="-0.37898">
        <ele>161.987</ele>
        <time>2016-05-31T22:26:25Z</time>
      </trkpt>
      <trkpt lat="48.82824" lon="-0.3787">
        <ele>159.944</ele>
        <time>2016-05-31T22:26:05Z</time>
      </trkpt>
      <trkpt lat="48.82824" lon="-0.3787">
        <ele>159.949</ele>
        <time>2016-05-31T22:25:45Z</time>
      </trkpt>
      <trkpt lat="48.82824" lon="-0.3787">
        <ele>159.943</ele>
        <time>2016-05-31T22:25:25Z</time>
      </trkpt>
      <trkpt lat="48.82824" lon="-0.3787">
        <ele>159.908</ele>
        <time>2016-05-31T22:25:05Z</time>
      </trkpt>
      <trkpt lat="48.82926" lon="-0.38172">
        <ele>155.714</ele>
        <time>2016-05-31T22:24:45Z</time>
      </trkpt>
      <trkpt lat="48.82938" lon="-0.38172">
        <ele>154.713</ele>
        <time>2016-05-31T22:24:25Z</time>
      </trkpt>
      <trkpt lat="48.82949" lon="-0.38202">
        <ele>153.672</ele>
        <time>2016-05-31T22:24:05Z</time>
      </trkpt>
      <trkpt lat="48.83011" lon="-0.38153">
        <ele>152.934</ele>
        <time>2016-05-31T22:23:45Z</time>
      </trkpt>
      <trkpt lat="48.83012" lon="-0.38127">
        <ele>154.535</ele>
        <time>2016-05-31T22:23:25Z</time>
      </trkpt>
      <trkpt lat="48.83067" lon="-0.3813">
        <ele>151.059</ele>
        <time>2016-05-31T22:23:05Z</time>
      </trkpt>
      <trkpt lat="48.83067" lon="-0.3813">
        <ele>151.027</ele>
        <time>2016-05-31T22:22:45Z</time>
      </trkpt>
      <trkpt lat="48.8314" lon="-0.38206">
        <ele>145.381</ele>
        <time>2016-05-31T22:22:25Z</time>
      </trkpt>
      <trkpt lat="48.83162" lon="-0.3826">
        <ele>148.068</ele>
        <time>2016-05-31T22:22:05Z</time>
      </trkpt>
      <trkpt lat="48.83185" lon="-0.38278">
        <ele>149.753</ele>
        <time>2016-05-31T22:21:45Z</time>
      </trkpt>
      <trkpt lat="48.83242" lon="-0.38403">
        <ele>152.277</ele>
        <time>2016-05-31T22:21:25Z</time>
      </trkpt>
      <trkpt lat="48.8329" lon="-0.38533">
        <ele>150.608</ele>
        <time>2016-05-31T22:21:05Z</time>
      </trkpt>
      <trkpt lat="48.8333" lon="-0.38603">
        <ele>149.219</ele>
        <time>2016-05-31T22:20:45Z</time>
      </trkpt>
      <trkpt lat="48.83419" lon="-0.3849">
        <ele>158.909</ele>
        <time>2016-05-31T22:20:25Z</time>
      </trkpt>
      <trkpt lat="48.83471" lon="-0.3838">
        <ele>162.019</ele>
        <time>2016-05-31T22:20:05Z</time>
      </trkpt>
      <trkpt lat="48.83511" lon="-0.38218">
        <ele>163.014</ele>
        <time>2016-05-31T22:19:45Z</time>
      </trkpt>
      <trkpt lat="48.8356" lon="-0.38177">
        <ele>161.935</ele>
        <time>2016-05-31T22:19:25Z</time>
      </trkpt>
      <trkpt lat="48.83658" lon="-0.38124">
        <ele>158.539</ele>
        <time>2016-05-31T22:19:05Z</time>
      </trkpt>
      <trkpt lat="48.83757" lon="-0.37991">
        <ele>149.167</ele>
        <time>2016-05-31T22:18:45Z</time>
      </trkpt>
      <trkpt lat="48.83796" lon="-0.37928">
        <ele>141.871</ele>
        <time>2016-05-31T22:18:25Z</time>
      </trkpt>
      <trkpt lat="48.83835" lon="-0.37865">
        <ele>138.078</ele>
        <time>2016-05-31T22:18:05Z</time>
      </trkpt>
      <trkpt lat="48.83888" lon="-0.37937">
        <ele>136.173</ele>
        <time>2016-05-31T22:17:45Z</time>
      </trkpt>
      <trkpt lat="48.83991" lon="-0.3806">
        <ele>127.677</ele>
        <time>2016-05-31T22:17:25Z</time>
      </trkpt>
      <trkpt lat="48.84023" lon="-0.38147">
        <ele>125.908</ele>
        <time>2016-05-31T22:17:05Z</time>
      </trkpt>
      <trkpt lat="48.84091" lon="-0.38283">
        <ele>108.111</ele>
        <time>2016-05-31T22:16:45Z</time>
      </trkpt>
      <trkpt lat="48.84117" lon="-0.38309">
        <ele>102.165</ele>
        <time>2016-05-31T22:16:25Z</time>
      </trkpt>
      <trkpt lat="48.8415" lon="-0.38356">
        <ele>97.015</ele>
        <time>2016-05-31T22:16:05Z</time>
      </trkpt>
      <trkpt lat="48.84165" lon="-0.38451">
        <ele>93.862</ele>
        <time>2016-05-31T22:15:45Z</time>
      </trkpt>
      <trkpt lat="48.84159" lon="-0.38528">
        <ele>93.133</ele>
        <time>2016-05-31T22:15:25Z</time>
      </trkpt>
      <trkpt lat="48.84156" lon="-0.38668">
        <ele>97.417</ele>
        <time>2016-05-31T22:15:05Z</time>
      </trkpt>
      <trkpt lat="48.84184" lon="-0.38815">
        <ele>98.395</ele>
        <time>2016-05-31T22:14:45Z</time>
      </trkpt>
      <trkpt lat="48.84163" lon="-0.38856">
        <ele>100.339</ele>
        <time>2016-05-31T22:14:25Z</time>
      </trkpt>
      <trkpt lat="48.84165" lon="-0.38892">
        <ele>99.136</ele>
        <time>2016-05-31T22:14:05Z</time>
      </trkpt>
      <trkpt lat="48.84199" lon="-0.39065">
        <ele>96.851</ele>
        <time>2016-05-31T22:13:45Z</time>
      </trkpt>
      <trkpt lat="48.84217" lon="-0.39218">
        <ele>93.295</ele>
        <time>2016-05-31T22:13:25Z</time>
      </trkpt>
      <trkpt lat="48.84212" lon="-0.39323">
        <ele>87.508</ele>
        <time>2016-05-31T22:13:05Z</time>
      </trkpt>
      <trkpt lat="48.84187" lon="-0.39413">
        <ele>78.42</ele>
        <time>2016-05-31T22:12:45Z</time>
      </trkpt>
      <trkpt lat="48.84194" lon="-0.39444">
        <ele>75.073</ele>
        <time>2016-05-31T22:12:25Z</time>
      </trkpt>
      <trkpt lat="48.84227" lon="-0.39529">
        <ele>64.092</ele>
        <time>2016-05-31T22:12:05Z</time>
      </trkpt>
      <trkpt lat="48.84264" lon="-0.3956">
        <ele>63.144</ele>
        <time>2016-05-31T22:11:45Z</time>
      </trkpt>
      <trkpt lat="48.842" lon="-0.39589">
        <ele>57.615</ele>
        <time>2016-05-31T22:11:25Z</time>
      </trkpt>
      <trkpt lat="48.84173" lon="-0.3964">
        <ele>60.729</ele>
        <time>2016-05-31T22:11:05Z</time>
      </trkpt>
      <trkpt lat="48.84191" lon="-0.39708">
        <ele>64.597</ele>
        <time>2016-05-31T22:10:45Z</time>
      </trkpt>
      <trkpt lat="48.84271" lon="-0.39832">
        <ele>67.391</ele>
        <time>2016-05-31T22:10:25Z</time>
      </trkpt>
      <trkpt lat="48.84342" lon="-0.39849">
        <ele>72.068</ele>
        <time>2016-05-31T22:10:05Z</time>
      </trkpt>
      <trkpt lat="48.84414" lon="-0.3982">
        <ele>74.423</ele>
        <time>2016-05-31T22:09:45Z</time>
      </trkpt>
      <trkpt lat="48.84503" lon="-0.39688">
        <ele>72.277</ele>
        <time>2016-05-31T22:09:25Z</time>
      </trkpt>
      <trkpt lat="48.84574" lon="-0.39445">
        <ele>66.408</ele>
        <time>2016-05-31T22:09:05Z</time>
      </trkpt>
      <trkpt lat="48.84594" lon="-0.39321">
        <ele>67.217</ele>
        <time>2016-05-31T22:08:45Z</time>
      </trkpt>
      <trkpt lat="48.84576" lon="-0.39182">
        <ele>68.698</ele>
        <time>2016-05-31T22:08:25Z</time>
      </trkpt>
      <trkpt lat="48.84521" lon="-0.3908">
        <ele>66.518</ele>
        <time>2016-05-31T22:08:05Z</time>
      </trkpt>
      <trkpt lat="48.84441" lon="-0.38964">
        <ele>64.152</ele>
        <time>2016-05-31T22:07:45Z</time>
      </trkpt>
      <trkpt lat="48.8434" lon="-0.38835">
        <ele>58.823</ele>
        <time>2016-05-31T22:07:25Z</time>
      </trkpt>
      <trkpt lat="48.84321" lon="-0.38686">
        <ele>57.537</ele>
        <time>2016-05-31T22:07:05Z</time>
      </trkpt>
      <trkpt lat="48.84334" lon="-0.3857">
        <ele>58.795</ele>
        <time>2016-05-31T22:06:45Z</time>
      </trkpt>
      <trkpt lat="48.84434" lon="-0.38227">
        <ele>61.039</ele>
        <time>2016-05-31T22:06:25Z</time>
      </trkpt>
      <trkpt lat="48.84473" lon="-0.38163">
        <ele>57.736</ele>
        <time>2016-05-31T22:06:05Z</time>
      </trkpt>
      <trkpt lat="48.84519" lon="-0.38152">
        <ele>55.681</ele>
        <time>2016-05-31T22:05:45Z</time>
      </trkpt>
      <trkpt lat="48.84501" lon="-0.38211">
        <ele>61.715</ele>
        <time>2016-05-31T22:05:25Z</time>
      </trkpt>
      <trkpt lat="48.84462" lon="-0.38296">
        <ele>70.208</ele>
        <time>2016-05-31T22:05:05Z</time>
      </trkpt>
      <trkpt lat="48.84456" lon="-0.38351">
        <ele>71.919</ele>
        <time>2016-05-31T22:04:45Z</time>
      </trkpt>
      <trkpt lat="48.84445" lon="-0.38394">
        <ele>73.481</ele>
        <time>2016-05-31T22:04:25Z</time>
      </trkpt>
      <trkpt lat="48.84449" lon="-0.38466">
        <ele>77.291</ele>
        <time>2016-05-31T22:04:05Z</time>
      </trkpt>
      <trkpt lat="48.84449" lon="-0.38583">
        <ele>82.112</ele>
        <time>2016-05-31T22:03:45Z</time>
      </trkpt>
      <trkpt lat="48.84494" lon="-0.38731">
        <ele>95.583</ele>
        <time>2016-05-31T22:03:25Z</time>
      </trkpt>
      <trkpt lat="48.84563" lon="-0.38902">
        <ele>109.187</ele>
        <time>2016-05-31T22:03:05Z</time>
      </trkpt>
      <trkpt lat="48.84624" lon="-0.39006">
        <ele>113.135</ele>
        <time>2016-05-31T22:02:45Z</time>
      </trkpt>
      <trkpt lat="48.84644" lon="-0.39064">
        <ele>109.149</ele>
        <time>2016-05-31T22:02:25Z</time>
      </trkpt>
      <trkpt lat="48.84647" lon="-0.39113">
        <ele>106.466</ele>
        <time>2016-05-31T22:02:05Z</time>
      </trkpt>
      <trkpt lat="48.84659" lon="-0.39161">
        <ele>104.081</ele>
        <time>2016-05-31T22:01:45Z</time>
      </trkpt>
      <trkpt lat="48.84675" lon="-0.39292">
        <ele>97.945</ele>
        <time>2016-05-31T22:01:25Z</time>
      </trkpt>
      <trkpt lat="48.84675" lon="-0.39368">
        <ele>98.108</ele>
        <time>2016-05-31T22:01:05Z</time>
      </trkpt>
      <trkpt lat="48.84689" lon="-0.39377">
        <ele>99.524</ele>
        <time>2016-05-31T22:00:45Z</time>
      </trkpt>
      <trkpt lat="48.84708" lon="-0.39376">
        <ele>99.031</ele>
        <time>2016-05-31T22:00:25Z</time>
      </trkpt>
      <trkpt lat="48.84835" lon="-0.39107">
        <ele>83.796</ele>
        <time>2016-05-31T22:00:05Z</time>
      </trkpt>
      <trkpt lat="48.84878" lon="-0.391">
        <ele>77.168</ele>
        <time>2016-05-31T21:59:45Z</time>
      </trkpt>
      <trkpt lat="48.84961" lon="-0.39207">
        <ele>74.869</ele>
        <time>2016-05-31T21:59:25Z</time>
      </trkpt>
      <trkpt lat="48.84991" lon="-0.39158">
        <ele>66.233</ele>
        <time>2016-05-31T21:59:05Z</time>
      </trkpt>
      <trkpt lat="48.85055" lon="-0.39225">
        <ele>70.561</ele>
        <time>2016-05-31T21:58:45Z</time>
      </trkpt>
      <trkpt lat="48.85121" lon="-0.39347">
        <ele>72.985</ele>
        <time>2016-05-31T21:58:25Z</time>
      </trkpt>
      <trkpt lat="48.85141" lon="-0.39352">
        <ele>68.842</ele>
        <time>2016-05-31T21:58:05Z</time>
      </trkpt>
      <trkpt lat="48.85154" lon="-0.39405">
        <ele>67.187</ele>
        <time>2016-05-31T21:57:45Z</time>
      </trkpt>
      <trkpt lat="48.85179" lon="-0.39374">
        <ele>59.371</ele>
        <time>2016-05-31T21:57:25Z</time>
      </trkpt>
      <trkpt lat="48.85207" lon="-0.39372">
        <ele>56.508</ele>
        <time>2016-05-31T21:57:05Z</time>
      </trkpt>
      <trkpt lat="48.85267" lon="-0.39299">
        <ele>51.714</ele>
        <time>2016-05-31T21:56:45Z</time>
      </trkpt>
      <trkpt lat="48.85329" lon="-0.39302">
        <ele>49.704</ele>
        <time>2016-05-31T21:56:25Z</time>
      </trkpt>
      <trkpt lat="48.85421" lon="-0.3939">
        <ele>50.853</ele>
        <time>2016-05-31T21:56:05Z</time>
      </trkpt>
      <trkpt lat="48.85644" lon="-0.398">
        <ele>51.024</ele>
        <time>2016-05-31T21:55:45Z</time>
      </trkpt>
      <trkpt lat="48.85675" lon="-0.39835">
        <ele>51.785</ele>
        <time>2016-05-31T21:55:25Z</time>
      </trkpt>
      <trkpt lat="48.85692" lon="-0.39882">
        <ele>51.269</ele>
        <time>2016-05-31T21:55:05Z</time>
      </trkpt>
      <trkpt lat="48.85711" lon="-0.39928">
        <ele>51.477</ele>
        <time>2016-05-31T21:54:45Z</time>
      </trkpt>
      <trkpt lat="48.85741" lon="-0.40013">
        <ele>56.791</ele>
        <time>2016-05-31T21:54:25Z</time>
      </trkpt>
      <trkpt lat="48.8574" lon="-0.40061">
        <ele>60.598</ele>
        <time>2016-05-31T21:54:05Z</time>
      </trkpt>
      <trkpt lat="48.85684" lon="-0.40145">
        <ele>68.323</ele>
        <time>2016-05-31T21:53:45Z</time>
      </trkpt>
      <trkpt lat="48.85642" lon="-0.40241">
        <ele>74.457</ele>
        <time>2016-05-31T21:53:25Z</time>
      </trkpt>
      <trkpt lat="48.85612" lon="-0.4046">
        <ele>88.108</ele>
        <time>2016-05-31T21:53:05Z</time>
      </trkpt>
      <trkpt lat="48.85419" lon="-0.40905">
        <ele>111.203</ele>
        <time>2016-05-31T21:52:45Z</time>
      </trkpt>
      <trkpt lat="48.85354" lon="-0.41093">
        <ele>122.221</ele>
        <time>2016-05-31T21:52:25Z</time>
      </trkpt>
      <trkpt lat="48.8538" lon="-0.41099">
        <ele>122.011</ele>
        <time>2016-05-31T21:52:05Z</time>
      </trkpt>
      <trkpt lat="48.85508" lon="-0.41203">
        <ele>126.377</ele>
        <time>2016-05-31T21:51:45Z</time>
      </trkpt>
      <trkpt lat="48.85604" lon="-0.41222">
        <ele>119.038</ele>
        <time>2016-05-31T21:51:25Z</time>
      </trkpt>
      <trkpt lat="48.85668" lon="-0.41261">
        <ele>118.672</ele>
        <time>2016-05-31T21:51:05Z</time>
      </trkpt>
      <trkpt lat="48.85722" lon="-0.4128">
        <ele>117.18</ele>
        <time>2016-05-31T21:50:45Z</time>
      </trkpt>
      <trkpt lat="48.85787" lon="-0.41248">
        <ele>114.634</ele>
        <time>2016-05-31T21:50:25Z</time>
      </trkpt>
      <trkpt lat="48.85957" lon="-0.41204">
        <ele>108.711</ele>
        <time>2016-05-31T21:50:05Z</time>
      </trkpt>
      <trkpt lat="48.85978" lon="-0.41189">
        <ele>107.486</ele>
        <time>2016-05-31T21:49:45Z</time>
      </trkpt>
      <trkpt lat="48.86062" lon="-0.41231">
        <ele>100.42</ele>
        <time>2016-05-31T21:49:25Z</time>
      </trkpt>
      <trkpt lat="48.8613" lon="-0.4114">
        <ele>94.008</ele>
        <time>2016-05-31T21:49:05Z</time>
      </trkpt>
      <trkpt lat="48.86123" lon="-0.4124">
        <ele>94.222</ele>
        <time>2016-05-31T21:48:45Z</time>
      </trkpt>
      <trkpt lat="48.86151" lon="-0.41258">
        <ele>94.102</ele>
        <time>2016-05-31T21:48:25Z</time>
      </trkpt>
      <trkpt lat="48.86261" lon="-0.41379">
        <ele>98.549</ele>
        <time>2016-05-31T21:48:05Z</time>
      </trkpt>
      <trkpt lat="48.86319" lon="-0.41473">
        <ele>99.562</ele>
        <time>2016-05-31T21:47:45Z</time>
      </trkpt>
      <trkpt lat="48.86372" lon="-0.41407">
        <ele>95.733</ele>
        <time>2016-05-31T21:47:25Z</time>
      </trkpt>
      <trkpt lat="48.86443" lon="-0.41261">
        <ele>89.737</ele>
        <time>2016-05-31T21:47:05Z</time>
      </trkpt>
      <trkpt lat="48.86495" lon="-0.41228">
        <ele>88.935</ele>
        <time>2016-05-31T21:46:45Z</time>
      </trkpt>
      <trkpt lat="48.86532" lon="-0.41184">
        <ele>86.559</ele>
        <time>2016-05-31T21:46:25Z</time>
      </trkpt>
      <trkpt lat="48.86599" lon="-0.41148">
        <ele>84.596</ele>
        <time>2016-05-31T21:46:05Z</time>
      </trkpt>
      <trkpt lat="48.86664" lon="-0.41035">
        <ele>77.471</ele>
        <time>2016-05-31T21:45:45Z</time>
      </trkpt>
      <trkpt lat="48.86761" lon="-0.40829">
        <ele>65.495</ele>
        <time>2016-05-31T21:45:25Z</time>
      </trkpt>
      <trkpt lat="48.87282" lon="-0.41205">
        <ele>51.008</ele>
        <time>2016-05-31T21:45:05Z</time>
      </trkpt>
      <trkpt lat="48.87254" lon="-0.41261">
        <ele>51.82</ele>
        <time>2016-05-31T21:44:45Z</time>
      </trkpt>
      <trkpt lat="48.8732" lon="-0.41298">
        <ele>55.273</ele>
        <time>2016-05-31T21:44:25Z</time>
      </trkpt>
      <trkpt lat="48.87357" lon="-0.41362">
        <ele>62.092</ele>
        <time>2016-05-31T21:44:05Z</time>
      </trkpt>
      <trkpt lat="48.87361" lon="-0.41453">
        <ele>72.695</ele>
        <time>2016-05-31T21:43:45Z</time>
      </trkpt>
      <trkpt lat="48.87417" lon="-0.41504">
        <ele>75.316</ele>
        <time>2016-05-31T21:43:25Z</time>
      </trkpt>
      <trkpt lat="48.87491" lon="-0.41644">
        <ele>81.89</ele>
        <time>2016-05-31T21:43:05Z</time>
      </trkpt>
      <trkpt lat="48.87592" lon="-0.418">
        <ele>75.368</ele>
        <time>2016-05-31T21:42:45Z</time>
      </trkpt>
      <trkpt lat="48.87669" lon="-0.41939">
        <ele>70.932</ele>
        <time>2016-05-31T21:42:25Z</time>
      </trkpt>
      <trkpt lat="48.87699" lon="-0.42023">
        <ele>69.849</ele>
        <time>2016-05-31T21:42:05Z</time>
      </trkpt>
      <trkpt lat="48.87802" lon="-0.42178">
        <ele>69.214</ele>
        <time>2016-05-31T21:41:45Z</time>
      </trkpt>
      <trkpt lat="48.87934" lon="-0.42524">
        <ele>84.868</ele>
        <time>2016-05-31T21:41:25Z</time>
      </trkpt>
      <trkpt lat="48.87998" lon="-0.42623">
        <ele>92.908</ele>
        <time>2016-05-31T21:41:05Z</time>
      </trkpt>
      <trkpt lat="48.8805" lon="-0.42683">
        <ele>102.911</ele>
        <time>2016-05-31T21:40:45Z</time>
      </trkpt>
      <trkpt lat="48.8817" lon="-0.42722">
        <ele>114.183</ele>
        <time>2016-05-31T21:40:25Z</time>
      </trkpt>
      <trkpt lat="48.8822" lon="-0.42683">
        <ele>112.523</ele>
        <time>2016-05-31T21:40:05Z</time>
      </trkpt>
      <trkpt lat="48.88314" lon="-0.4266">
        <ele>115.767</ele>
        <time>2016-05-31T21:39:45Z</time>
      </trkpt>
      <trkpt lat="48.88341" lon="-0.42673">
        <ele>115.088</ele>
        <time>2016-05-31T21:39:25Z</time>
      </trkpt>
      <trkpt lat="48.88361" lon="-0.42654">
        <ele>111.672</ele>
        <time>2016-05-31T21:39:05Z</time>
      </trkpt>
      <trkpt lat="48.88459" lon="-0.42532">
        <ele>96.75</ele>
        <time>2016-05-31T21:38:45Z</time>
      </trkpt>
      <trkpt lat="48.8854" lon="-0.42332">
        <ele>87.774</ele>
        <time>2016-05-31T21:38:25Z</time>
      </trkpt>
      <trkpt lat="48.88628" lon="-0.42169">
        <ele>87.951</ele>
        <time>2016-05-31T21:38:05Z</time>
      </trkpt>
      <trkpt lat="48.88668" lon="-0.42006">
        <ele>86.386</ele>
        <time>2016-05-31T21:37:45Z</time>
      </trkpt>
      <trkpt lat="48.88738" lon="-0.41875">
        <ele>78.45</ele>
        <time>2016-05-31T21:37:25Z</time>
      </trkpt>
      <trkpt lat="48.88802" lon="-0.41781">
        <ele>73.108</ele>
        <time>2016-05-31T21:37:05Z</time>
      </trkpt>
      <trkpt lat="48.8884" lon="-0.41754">
        <ele>72.115</ele>
        <time>2016-05-31T21:36:45Z</time>
      </trkpt>
      <trkpt lat="48.88875" lon="-0.41758">
        <ele>72.305</ele>
        <time>2016-05-31T21:36:25Z</time>
      </trkpt>
      <trkpt lat="48.8889" lon="-0.41772">
        <ele>72.744</ele>
        <time>2016-05-31T21:36:05Z</time>
      </trkpt>
      <trkpt lat="48.88906" lon="-0.41806">
        <ele>72.599</ele>
        <time>2016-05-31T21:35:45Z</time>
      </trkpt>
      <trkpt lat="48.88914" lon="-0.41843">
        <ele>72.77</ele>
        <time>2016-05-31T21:35:25Z</time>
      </trkpt>
      <trkpt lat="48.88916" lon="-0.41906">
        <ele>71.554</ele>
        <time>2016-05-31T21:35:05Z</time>
      </trkpt>
      <trkpt lat="48.88904" lon="-0.41998">
        <ele>68.072</ele>
        <time>2016-05-31T21:34:45Z</time>
      </trkpt>
      <trkpt lat="48.88859" lon="-0.42119">
        <ele>60.876</ele>
        <time>2016-05-31T21:34:25Z</time>
      </trkpt>
      <trkpt lat="48.88837" lon="-0.42172">
        <ele>62.253</ele>
        <time>2016-05-31T21:34:05Z</time>
      </trkpt>
      <trkpt lat="48.888" lon="-0.4231">
        <ele>58.448</ele>
        <time>2016-05-31T21:33:45Z</time>
      </trkpt>
      <trkpt lat="48.88737" lon="-0.42426">
        <ele>50.032</ele>
        <time>2016-05-31T21:33:25Z</time>
      </trkpt>
      <trkpt lat="48.88542" lon="-0.42648">
        <ele>52.208</ele>
        <time>2016-05-31T21:33:05Z</time>
      </trkpt>
      <trkpt lat="48.88486" lon="-0.42746">
        <ele>56.324</ele>
        <time>2016-05-31T21:32:45Z</time>
      </trkpt>
      <trkpt lat="48.88463" lon="-0.42863">
        <ele>54.304</ele>
        <time>2016-05-31T21:32:25Z</time>
      </trkpt>
      <trkpt lat="48.88414" lon="-0.43058">
        <ele>52.969</ele>
        <time>2016-05-31T21:32:05Z</time>
      </trkpt>
      <trkpt lat="48.88353" lon="-0.4324">
        <ele>55.139</ele>
        <time>2016-05-31T21:31:45Z</time>
      </trkpt>
      <trkpt lat="48.88342" lon="-0.43327">
        <ele>59.14</ele>
        <time>2016-05-31T21:31:25Z</time>
      </trkpt>
      <trkpt lat="48.88345" lon="-0.43516">
        <ele>58.394</ele>
        <time>2016-05-31T21:31:05Z</time>
      </trkpt>
      <trkpt lat="48.88343" lon="-0.43753">
        <ele>55.632</ele>
        <time>2016-05-31T21:30:45Z</time>
      </trkpt>
      <trkpt lat="48.88354" lon="-0.43965">
        <ele>58.276</ele>
        <time>2016-05-31T21:30:25Z</time>
      </trkpt>
      <trkpt lat="48.8841" lon="-0.44275">
        <ele>59.213</ele>
        <time>2016-05-31T21:30:05Z</time>
      </trkpt>
      <trkpt lat="48.88414" lon="-0.44276">
        <ele>57.198</ele>
        <time>2016-05-31T21:29:45Z</time>
      </trkpt>
      <trkpt lat="48.88441" lon="-0.44341">
        <ele>60.752</ele>
        <time>2016-05-31T21:29:25Z</time>
      </trkpt>
      <trkpt lat="48.88504" lon="-0.44412">
        <ele>60.808</ele>
        <time>2016-05-31T21:29:05Z</time>
      </trkpt>
      <trkpt lat="48.88599" lon="-0.44487">
        <ele>57.114</ele>
        <time>2016-05-31T21:28:05Z</time>
      </trkpt>
      <trkpt lat="48.88725" lon="-0.44548">
        <ele>57.368</ele>
        <time>2016-05-31T21:27:45Z</time>
      </trkpt>
      <trkpt lat="48.88764" lon="-0.44561">
        <ele>52.065</ele>
        <time>2016-05-31T21:27:25Z</time>
      </trkpt>
      <trkpt lat="48.88793" lon="-0.44594">
        <ele>54.076</ele>
        <time>2016-05-31T21:27:05Z</time>
      </trkpt>
      <trkpt lat="48.88812" lon="-0.44613">
        <ele>53.457</ele>
        <time>2016-05-31T21:26:45Z</time>
      </trkpt>
      <trkpt lat="48.88814" lon="-0.44659">
        <ele>62.411</ele>
        <time>2016-05-31T21:26:25Z</time>
      </trkpt>
      <trkpt lat="48.88774" lon="-0.44689">
        <ele>75.099</ele>
        <time>2016-05-31T21:26:05Z</time>
      </trkpt>
      <trkpt lat="48.88777" lon="-0.44745">
        <ele>86.083</ele>
        <time>2016-05-31T21:25:45Z</time>
      </trkpt>
      <trkpt lat="48.88775" lon="-0.44789">
        <ele>94.25</ele>
        <time>2016-05-31T21:25:25Z</time>
      </trkpt>
      <trkpt lat="48.88837" lon="-0.44818">
        <ele>92.255</ele>
        <time>2016-05-31T21:25:05Z</time>
      </trkpt>
      <trkpt lat="48.88864" lon="-0.44849">
        <ele>91.499</ele>
        <time>2016-05-31T21:24:45Z</time>
      </trkpt>
      <trkpt lat="48.88871" lon="-0.44894">
        <ele>95.408</ele>
        <time>2016-05-31T21:24:25Z</time>
      </trkpt>
      <trkpt lat="48.88814" lon="-0.45047">
        <ele>115.411</ele>
        <time>2016-05-31T21:24:05Z</time>
      </trkpt>
      <trkpt lat="48.8883" lon="-0.45129">
        <ele>123.392</ele>
        <time>2016-05-31T21:23:45Z</time>
      </trkpt>
      <trkpt lat="48.88758" lon="-0.45341">
        <ele>152.132</ele>
        <time>2016-05-31T21:23:25Z</time>
      </trkpt>
      <trkpt lat="48.88745" lon="-0.45527">
        <ele>175.595</ele>
        <time>2016-05-31T21:23:05Z</time>
      </trkpt>
      <trkpt lat="48.88749" lon="-0.4565">
        <ele>185.426</ele>
        <time>2016-05-31T21:22:45Z</time>
      </trkpt>
      <trkpt lat="48.88762" lon="-0.45704">
        <ele>188.59</ele>
        <time>2016-05-31T21:22:25Z</time>
      </trkpt>
      <trkpt lat="48.88745" lon="-0.45793">
        <ele>191.848</ele>
        <time>2016-05-31T21:22:05Z</time>
      </trkpt>
      <trkpt lat="48.88754" lon="-0.45839">
        <ele>192.172</ele>
        <time>2016-05-31T21:21:45Z</time>
      </trkpt>
      <trkpt lat="48.88809" lon="-0.46138">
        <ele>181.859</ele>
        <time>2016-05-31T21:21:25Z</time>
      </trkpt>
      <trkpt lat="48.88807" lon="-0.46219">
        <ele>178.214</ele>
        <time>2016-05-31T21:21:05Z</time>
      </trkpt>
      <trkpt lat="48.88895" lon="-0.46241">
        <ele>167.758</ele>
        <time>2016-05-31T21:20:45Z</time>
      </trkpt>
      <trkpt lat="48.88984" lon="-0.46231">
        <ele>153.308</ele>
        <time>2016-05-31T21:20:25Z</time>
      </trkpt>
      <trkpt lat="48.89084" lon="-0.46258">
        <ele>142.214</ele>
        <time>2016-05-31T21:20:05Z</time>
      </trkpt>
      <trkpt lat="48.89185" lon="-0.46313">
        <ele>136.168</ele>
        <time>2016-05-31T21:19:45Z</time>
      </trkpt>
      <trkpt lat="48.89311" lon="-0.46323">
        <ele>126.627</ele>
        <time>2016-05-31T21:19:25Z</time>
      </trkpt>
      <trkpt lat="48.89405" lon="-0.46336">
        <ele>114.586</ele>
        <time>2016-05-31T21:19:05Z</time>
      </trkpt>
      <trkpt lat="48.89503" lon="-0.46322">
        <ele>106.217</ele>
        <time>2016-05-31T21:18:45Z</time>
      </trkpt>
      <trkpt lat="48.89605" lon="-0.46344">
        <ele>96.211</ele>
        <time>2016-05-31T21:18:25Z</time>
      </trkpt>
      <trkpt lat="48.89679" lon="-0.4633">
        <ele>87.349</ele>
        <time>2016-05-31T21:18:05Z</time>
      </trkpt>
      <trkpt lat="48.89743" lon="-0.46381">
        <ele>78.113</ele>
        <time>2016-05-31T21:17:45Z</time>
      </trkpt>
      <trkpt lat="48.89764" lon="-0.46401">
        <ele>76.66</ele>
        <time>2016-05-31T21:17:25Z</time>
      </trkpt>
      <trkpt lat="48.89847" lon="-0.46359">
        <ele>75.045</ele>
        <time>2016-05-31T21:17:05Z</time>
      </trkpt>
      <trkpt lat="48.89963" lon="-0.46223">
        <ele>74.359</ele>
        <time>2016-05-31T21:16:45Z</time>
      </trkpt>
      <trkpt lat="48.90042" lon="-0.46068">
        <ele>70.208</ele>
        <time>2016-05-31T21:16:25Z</time>
      </trkpt>
      <trkpt lat="48.90119" lon="-0.45965">
        <ele>63.607</ele>
        <time>2016-05-31T21:16:05Z</time>
      </trkpt>
      <trkpt lat="48.90128" lon="-0.45925">
        <ele>60.261</ele>
        <time>2016-05-31T21:15:45Z</time>
      </trkpt>
      <trkpt lat="48.90158" lon="-0.45872">
        <ele>53.831</ele>
        <time>2016-05-31T21:15:25Z</time>
      </trkpt>
      <trkpt lat="48.90212" lon="-0.45868">
        <ele>57.262</ele>
        <time>2016-05-31T21:15:05Z</time>
      </trkpt>
      <trkpt lat="48.90224" lon="-0.45835">
        <ele>51.343</ele>
        <time>2016-05-31T21:14:45Z</time>
      </trkpt>
      <trkpt lat="48.90287" lon="-0.45791">
        <ele>46.317</ele>
        <time>2016-05-31T21:14:25Z</time>
      </trkpt>
      <trkpt lat="48.90243" lon="-0.45582">
        <ele>46.525</ele>
        <time>2016-05-31T21:14:05Z</time>
      </trkpt>
      <trkpt lat="48.90212" lon="-0.45561">
        <ele>50.999</ele>
        <time>2016-05-31T21:13:45Z</time>
      </trkpt>
      <trkpt lat="48.90083" lon="-0.4558">
        <ele>52.226</ele>
        <time>2016-05-31T21:13:25Z</time>
      </trkpt>
      <trkpt lat="48.90023" lon="-0.45566">
        <ele>56.061</ele>
        <time>2016-05-31T21:13:05Z</time>
      </trkpt>
      <trkpt lat="48.90027" lon="-0.45532">
        <ele>58.845</ele>
        <time>2016-05-31T21:12:45Z</time>
      </trkpt>
      <trkpt lat="48.90015" lon="-0.45429">
        <ele>66.108</ele>
        <time>2016-05-31T21:12:25Z</time>
      </trkpt>
      <trkpt lat="48.89988" lon="-0.45247">
        <ele>79.721</ele>
        <time>2016-05-31T21:12:05Z</time>
      </trkpt>
      <trkpt lat="48.8999" lon="-0.45212">
        <ele>81.665</ele>
        <time>2016-05-31T21:11:45Z</time>
      </trkpt>
      <trkpt lat="48.90081" lon="-0.45211">
        <ele>83.393</ele>
        <time>2016-05-31T21:11:25Z</time>
      </trkpt>
      <trkpt lat="48.90151" lon="-0.45223">
        <ele>80.846</ele>
        <time>2016-05-31T21:11:05Z</time>
      </trkpt>
      <trkpt lat="48.90254" lon="-0.45148">
        <ele>86.147</ele>
        <time>2016-05-31T21:10:45Z</time>
      </trkpt>
      <trkpt lat="48.90308" lon="-0.4509">
        <ele>86.111</ele>
        <time>2016-05-31T21:10:25Z</time>
      </trkpt>
      <trkpt lat="48.90315" lon="-0.45061">
        <ele>89.099</ele>
        <time>2016-05-31T21:10:05Z</time>
      </trkpt>
      <trkpt lat="48.90345" lon="-0.4502">
        <ele>92.613</ele>
        <time>2016-05-31T21:09:45Z</time>
      </trkpt>
      <trkpt lat="48.90361" lon="-0.45029">
        <ele>92.97</ele>
        <time>2016-05-31T21:09:25Z</time>
      </trkpt>
      <trkpt lat="48.90368" lon="-0.45063">
        <ele>92.685</ele>
        <time>2016-05-31T21:09:05Z</time>
      </trkpt>
      <trkpt lat="48.90386" lon="-0.45065">
        <ele>95.549</ele>
        <time>2016-05-31T21:08:45Z</time>
      </trkpt>
      <trkpt lat="48.90411" lon="-0.45028">
        <ele>98.608</ele>
        <time>2016-05-31T21:08:25Z</time>
      </trkpt>
      <trkpt lat="48.90456" lon="-0.45027">
        <ele>103.718</ele>
        <time>2016-05-31T21:08:05Z</time>
      </trkpt>
      <trkpt lat="48.90569" lon="-0.45046">
        <ele>111.817</ele>
        <time>2016-05-31T21:07:45Z</time>
      </trkpt>
      <trkpt lat="48.90638" lon="-0.45047">
        <ele>118.836</ele>
        <time>2016-05-31T21:07:25Z</time>
      </trkpt>
      <trkpt lat="48.90704" lon="-0.45037">
        <ele>130.079</ele>
        <time>2016-05-31T21:07:05Z</time>
      </trkpt>
      <trkpt lat="48.90798" lon="-0.4505">
        <ele>139.78</ele>
        <time>2016-05-31T21:06:45Z</time>
      </trkpt>
      <trkpt lat="48.90836" lon="-0.45089">
        <ele>140.074</ele>
        <time>2016-05-31T21:06:25Z</time>
      </trkpt>
      <trkpt lat="48.90889" lon="-0.45119">
        <ele>141.932</ele>
        <time>2016-05-31T21:06:05Z</time>
      </trkpt>
      <trkpt lat="48.90964" lon="-0.45078">
        <ele>149.266</ele>
        <time>2016-05-31T21:05:45Z</time>
      </trkpt>
      <trkpt lat="48.90963" lon="-0.45098">
        <ele>149.013</ele>
        <time>2016-05-31T21:05:25Z</time>
      </trkpt>
      <trkpt lat="48.90944" lon="-0.45158">
        <ele>148.638</ele>
        <time>2016-05-31T21:05:05Z</time>
      </trkpt>
      <trkpt lat="48.90942" lon="-0.45299">
        <ele>146.672</ele>
        <time>2016-05-31T21:04:45Z</time>
      </trkpt>
      <trkpt lat="48.90945" lon="-0.45384">
        <ele>150.208</ele>
        <time>2016-05-31T21:04:25Z</time>
      </trkpt>
      <trkpt lat="48.9097" lon="-0.4548">
        <ele>143.614</ele>
        <time>2016-05-31T21:04:05Z</time>
      </trkpt>
      <trkpt lat="48.91031" lon="-0.45616">
        <ele>142.368</ele>
        <time>2016-05-31T21:03:45Z</time>
      </trkpt>
      <trkpt lat="48.91025" lon="-0.45661">
        <ele>130.165</ele>
        <time>2016-05-31T21:03:25Z</time>
      </trkpt>
      <trkpt lat="48.91037" lon="-0.45688">
        <ele>131.257</ele>
        <time>2016-05-31T21:03:05Z</time>
      </trkpt>
      <trkpt lat="48.91047" lon="-0.4573">
        <ele>126.188</ele>
        <time>2016-05-31T21:02:45Z</time>
      </trkpt>
      <trkpt lat="48.91062" lon="-0.45778">
        <ele>123.712</ele>
        <time>2016-05-31T21:02:25Z</time>
      </trkpt>
      <trkpt lat="48.91082" lon="-0.46042">
        <ele>114.32</ele>
        <time>2016-05-31T21:02:05Z</time>
      </trkpt>
      <trkpt lat="48.91105" lon="-0.46086">
        <ele>120.924</ele>
        <time>2016-05-31T21:01:45Z</time>
      </trkpt>
      <trkpt lat="48.91099" lon="-0.46142">
        <ele>113.711</ele>
        <time>2016-05-31T21:01:25Z</time>
      </trkpt>
      <trkpt lat="48.91111" lon="-0.46175">
        <ele>117.316</ele>
        <time>2016-05-31T21:01:05Z</time>
      </trkpt>
      <trkpt lat="48.91126" lon="-0.46239">
        <ele>115.05</ele>
        <time>2016-05-31T21:00:45Z</time>
      </trkpt>
      <trkpt lat="48.9111" lon="-0.4633">
        <ele>101.708</ele>
        <time>2016-05-31T21:00:25Z</time>
      </trkpt>
      <trkpt lat="48.91121" lon="-0.46356">
        <ele>103.415</ele>
        <time>2016-05-31T21:00:05Z</time>
      </trkpt>
      <trkpt lat="48.91126" lon="-0.46542">
        <ele>106.105</ele>
        <time>2016-05-31T20:59:45Z</time>
      </trkpt>
      <trkpt lat="48.91109" lon="-0.46577">
        <ele>97.944</ele>
        <time>2016-05-31T20:59:25Z</time>
      </trkpt>
      <trkpt lat="48.91124" lon="-0.46597">
        <ele>103.142</ele>
        <time>2016-05-31T20:59:05Z</time>
      </trkpt>
      <trkpt lat="48.91132" lon="-0.46647">
        <ele>103.743</ele>
        <time>2016-05-31T20:58:45Z</time>
      </trkpt>
      <trkpt lat="48.9113" lon="-0.46767">
        <ele>101.757</ele>
        <time>2016-05-31T20:58:25Z</time>
      </trkpt>
      <trkpt lat="48.91112" lon="-0.46805">
        <ele>92.435</ele>
        <time>2016-05-31T20:58:05Z</time>
      </trkpt>
      <trkpt lat="48.91113" lon="-0.46866">
        <ele>97.549</ele>
        <time>2016-05-31T20:57:45Z</time>
      </trkpt>
      <trkpt lat="48.91096" lon="-0.4689">
        <ele>94.546</ele>
        <time>2016-05-31T20:57:25Z</time>
      </trkpt>
      <trkpt lat="48.91086" lon="-0.46975">
        <ele>89.111</ele>
        <time>2016-05-31T20:57:05Z</time>
      </trkpt>
      <trkpt lat="48.91121" lon="-0.47021">
        <ele>96.475</ele>
        <time>2016-05-31T20:56:45Z</time>
      </trkpt>
      <trkpt lat="48.91157" lon="-0.47078">
        <ele>88.008</ele>
        <time>2016-05-31T20:56:25Z</time>
      </trkpt>
      <trkpt lat="48.9118" lon="-0.47092">
        <ele>84.025</ele>
        <time>2016-05-31T20:56:05Z</time>
      </trkpt>
      <trkpt lat="48.91206" lon="-0.4709">
        <ele>79.323</ele>
        <time>2016-05-31T20:55:45Z</time>
      </trkpt>
      <trkpt lat="48.91232" lon="-0.47109">
        <ele>70.497</ele>
        <time>2016-05-31T20:55:25Z</time>
      </trkpt>
      <trkpt lat="48.91274" lon="-0.47201">
        <ele>55.07</ele>
        <time>2016-05-31T20:55:05Z</time>
      </trkpt>
      <trkpt lat="48.91278" lon="-0.47241">
        <ele>53.321</ele>
        <time>2016-05-31T20:54:45Z</time>
      </trkpt>
      <trkpt lat="48.91345" lon="-0.4721">
        <ele>49.475</ele>
        <time>2016-05-31T20:54:25Z</time>
      </trkpt>
      <trkpt lat="48.91345" lon="-0.47277">
        <ele>48.633</ele>
        <time>2016-05-31T20:54:05Z</time>
      </trkpt>
      <trkpt lat="48.91382" lon="-0.47383">
        <ele>38.977</ele>
        <time>2016-05-31T20:53:45Z</time>
      </trkpt>
      <trkpt lat="48.91437" lon="-0.4737">
        <ele>39.764</ele>
        <time>2016-05-31T20:53:25Z</time>
      </trkpt>
      <trkpt lat="48.91565" lon="-0.47363">
        <ele>41.999</ele>
        <time>2016-05-31T20:53:05Z</time>
      </trkpt>
      <trkpt lat="48.91657" lon="-0.4735">
        <ele>39.593</ele>
        <time>2016-05-31T20:52:45Z</time>
      </trkpt>
      <trkpt lat="48.9167" lon="-0.4736">
        <ele>38.808</ele>
        <time>2016-05-31T20:52:25Z</time>
      </trkpt>
      <trkpt lat="48.91714" lon="-0.47242">
        <ele>42.914</ele>
        <time>2016-05-31T20:52:05Z</time>
      </trkpt>
      <trkpt lat="48.9171" lon="-0.47196">
        <ele>45.413</ele>
        <time>2016-05-31T20:51:45Z</time>
      </trkpt>
      <trkpt lat="48.91724" lon="-0.4713">
        <ele>46.072</ele>
        <time>2016-05-31T20:51:25Z</time>
      </trkpt>
      <trkpt lat="48.91745" lon="-0.47106">
        <ele>48.087</ele>
        <time>2016-05-31T20:51:05Z</time>
      </trkpt>
      <trkpt lat="48.91773" lon="-0.47043">
        <ele>57.268</ele>
        <time>2016-05-31T20:50:45Z</time>
      </trkpt>
      <trkpt lat="48.91809" lon="-0.47043">
        <ele>59.552</ele>
        <time>2016-05-31T20:50:05Z</time>
      </trkpt>
      <trkpt lat="48.91835" lon="-0.46992">
        <ele>69.24</ele>
        <time>2016-05-31T20:49:45Z</time>
      </trkpt>
      <trkpt lat="48.91861" lon="-0.47005">
        <ele>72.114</ele>
        <time>2016-05-31T20:49:05Z</time>
      </trkpt>
      <trkpt lat="48.9195" lon="-0.47">
        <ele>78.871</ele>
        <time>2016-05-31T20:48:45Z</time>
      </trkpt>
      <trkpt lat="48.91989" lon="-0.47011">
        <ele>76.876</ele>
        <time>2016-05-31T20:48:25Z</time>
      </trkpt>
      <trkpt lat="48.92069" lon="-0.46997">
        <ele>85.64</ele>
        <time>2016-05-31T20:48:05Z</time>
      </trkpt>
      <trkpt lat="48.92315" lon="-0.46901">
        <ele>96.408</ele>
        <time>2016-05-31T20:47:45Z</time>
      </trkpt>
      <trkpt lat="48.9236" lon="-0.46921">
        <ele>93.417</ele>
        <time>2016-05-31T20:47:25Z</time>
      </trkpt>
      <trkpt lat="48.92517" lon="-0.46867">
        <ele>115.761</ele>
        <time>2016-05-31T20:47:05Z</time>
      </trkpt>
      <trkpt lat="48.92634" lon="-0.46878">
        <ele>119.348</ele>
        <time>2016-05-31T20:46:45Z</time>
      </trkpt>
      <trkpt lat="48.92701" lon="-0.46917">
        <ele>119.898</ele>
        <time>2016-05-31T20:46:25Z</time>
      </trkpt>
      <trkpt lat="48.92777" lon="-0.46986">
        <ele>109.359</ele>
        <time>2016-05-31T20:46:05Z</time>
      </trkpt>
      <trkpt lat="48.92835" lon="-0.47026">
        <ele>124.543</ele>
        <time>2016-05-31T20:45:45Z</time>
      </trkpt>
      <trkpt lat="48.92931" lon="-0.47158">
        <ele>137.041</ele>
        <time>2016-05-31T20:45:25Z</time>
      </trkpt>
      <trkpt lat="48.92964" lon="-0.47284">
        <ele>136.165</ele>
        <time>2016-05-31T20:45:05Z</time>
      </trkpt>
      <trkpt lat="48.92983" lon="-0.47402">
        <ele>139.442</ele>
        <time>2016-05-31T20:44:45Z</time>
      </trkpt>
      <trkpt lat="48.92987" lon="-0.47469">
        <ele>145.277</ele>
        <time>2016-05-31T20:44:25Z</time>
      </trkpt>
      <trkpt lat="48.93002" lon="-0.47508">
        <ele>155.021</ele>
        <time>2016-05-31T20:44:05Z</time>
      </trkpt>
      <trkpt lat="48.92981" lon="-0.47545">
        <ele>154.108</ele>
        <time>2016-05-31T20:43:45Z</time>
      </trkpt>
      <trkpt lat="48.92985" lon="-0.47568">
        <ele>157.508</ele>
        <time>2016-05-31T20:43:25Z</time>
      </trkpt>
      <trkpt lat="48.92969" lon="-0.47631">
        <ele>158.953</ele>
        <time>2016-05-31T20:43:05Z</time>
      </trkpt>
      <trkpt lat="48.92958" lon="-0.47684">
        <ele>151.152</ele>
        <time>2016-05-31T20:42:45Z</time>
      </trkpt>
      <trkpt lat="48.92923" lon="-0.47734">
        <ele>134.164</ele>
        <time>2016-05-31T20:42:25Z</time>
      </trkpt>
      <trkpt lat="48.92926" lon="-0.47785">
        <ele>125.675</ele>
        <time>2016-05-31T20:42:05Z</time>
      </trkpt>
      <trkpt lat="48.92917" lon="-0.47875">
        <ele>99.979</ele>
        <time>2016-05-31T20:41:45Z</time>
      </trkpt>
      <trkpt lat="48.92988" lon="-0.4788">
        <ele>105.567</ele>
        <time>2016-05-31T20:41:25Z</time>
      </trkpt>
      <trkpt lat="48.92967" lon="-0.47912">
        <ele>97.051</ele>
        <time>2016-05-31T20:41:05Z</time>
      </trkpt>
      <trkpt lat="48.92957" lon="-0.47959">
        <ele>89.928</ele>
        <time>2016-05-31T20:40:45Z</time>
      </trkpt>
      <trkpt lat="48.92929" lon="-0.48027">
        <ele>79.543</ele>
        <time>2016-05-31T20:40:25Z</time>
      </trkpt>
      <trkpt lat="48.92929" lon="-0.48027">
        <ele>79.577</ele>
        <time>2016-05-31T20:40:05Z</time>
      </trkpt>
      <trkpt lat="48.92884" lon="-0.48093">
        <ele>63.608</ele>
        <time>2016-05-31T20:39:45Z</time>
      </trkpt>
      <trkpt lat="48.92838" lon="-0.48124">
        <ele>52.115</ele>
        <time>2016-05-31T20:39:25Z</time>
      </trkpt>
      <trkpt lat="48.92817" lon="-0.48121">
        <ele>48.487</ele>
        <time>2016-05-31T20:39:05Z</time>
      </trkpt>
      <trkpt lat="48.92813" lon="-0.48256">
        <ele>46.017</ele>
        <time>2016-05-31T20:38:45Z</time>
      </trkpt>
      <trkpt lat="48.92822" lon="-0.48343">
        <ele>44.199</ele>
        <time>2016-05-31T20:38:25Z</time>
      </trkpt>
      <trkpt lat="48.9279" lon="-0.48285">
        <ele>40.68</ele>
        <time>2016-05-31T20:38:05Z</time>
      </trkpt>
      <trkpt lat="48.92789" lon="-0.48234">
        <ele>42.894</ele>
        <time>2016-05-31T20:37:45Z</time>
      </trkpt>
      <trkpt lat="48.92753" lon="-0.48156">
        <ele>38.762</ele>
        <time>2016-05-31T20:37:25Z</time>
      </trkpt>
      <trkpt lat="48.92755" lon="-0.48079">
        <ele>38.476</ele>
        <time>2016-05-31T20:37:05Z</time>
      </trkpt>
      <trkpt lat="48.92746" lon="-0.48031">
        <ele>36.673</ele>
        <time>2016-05-31T20:36:45Z</time>
      </trkpt>
      <trkpt lat="48.92602" lon="-0.48038">
        <ele>34.648</ele>
        <time>2016-05-31T20:36:25Z</time>
      </trkpt>
      <trkpt lat="48.92559" lon="-0.48057">
        <ele>34.932</ele>
        <time>2016-05-31T20:36:05Z</time>
      </trkpt>
      <trkpt lat="48.92509" lon="-0.48094">
        <ele>36.108</ele>
        <time>2016-05-31T20:35:45Z</time>
      </trkpt>
      <trkpt lat="48.92507" lon="-0.48127">
        <ele>35.714</ele>
        <time>2016-05-31T20:35:25Z</time>
      </trkpt>
      <trkpt lat="48.92473" lon="-0.4816">
        <ele>39.768</ele>
        <time>2016-05-31T20:35:05Z</time>
      </trkpt>
      <trkpt lat="48.92464" lon="-0.48192">
        <ele>43.165</ele>
        <time>2016-05-31T20:34:45Z</time>
      </trkpt>
      <trkpt lat="48.92473" lon="-0.48271">
        <ele>47.724</ele>
        <time>2016-05-31T20:34:25Z</time>
      </trkpt>
      <trkpt lat="48.92463" lon="-0.48356">
        <ele>50.985</ele>
        <time>2016-05-31T20:34:05Z</time>
      </trkpt>
      <trkpt lat="48.92468" lon="-0.48399">
        <ele>53.429</ele>
        <time>2016-05-31T20:33:45Z</time>
      </trkpt>
      <trkpt lat="48.9246" lon="-0.48477">
        <ele>56.097</ele>
        <time>2016-05-31T20:33:25Z</time>
      </trkpt>
      <trkpt lat="48.9247" lon="-0.48605">
        <ele>53.641</ele>
        <time>2016-05-31T20:33:05Z</time>
      </trkpt>
      <trkpt lat="48.92458" lon="-0.48674">
        <ele>54.218</ele>
        <time>2016-05-31T20:32:45Z</time>
      </trkpt>
      <trkpt lat="48.92443" lon="-0.48803">
        <ele>53.393</ele>
        <time>2016-05-31T20:32:25Z</time>
      </trkpt>
      <trkpt lat="48.92441" lon="-0.48857">
        <ele>53.247</ele>
        <time>2016-05-31T20:32:05Z</time>
      </trkpt>
      <trkpt lat="48.92423" lon="-0.48914">
        <ele>53.108</ele>
        <time>2016-05-31T20:31:45Z</time>
      </trkpt>
      <trkpt lat="48.92442" lon="-0.48932">
        <ele>52.915</ele>
        <time>2016-05-31T20:31:25Z</time>
      </trkpt>
      <trkpt lat="48.92475" lon="-0.48973">
        <ele>50.087</ele>
        <time>2016-05-31T20:31:05Z</time>
      </trkpt>
      <trkpt lat="48.92479" lon="-0.49039">
        <ele>43.017</ele>
        <time>2016-05-31T20:30:45Z</time>
      </trkpt>
      <trkpt lat="48.92463" lon="-0.49071">
        <ele>40.93</ele>
        <time>2016-05-31T20:30:25Z</time>
      </trkpt>
      <trkpt lat="48.92456" lon="-0.49135">
        <ele>42.741</ele>
        <time>2016-05-31T20:30:05Z</time>
      </trkpt>
      <trkpt lat="48.92474" lon="-0.49157">
        <ele>43.045</ele>
        <time>2016-05-31T20:29:45Z</time>
      </trkpt>
      <trkpt lat="48.92484" lon="-0.49236">
        <ele>46.753</ele>
        <time>2016-05-31T20:29:25Z</time>
      </trkpt>
      <trkpt lat="48.92467" lon="-0.49338">
        <ele>46.417</ele>
        <time>2016-05-31T20:29:05Z</time>
      </trkpt>
      <trkpt lat="48.92445" lon="-0.4944">
        <ele>49.744</ele>
        <time>2016-05-31T20:28:45Z</time>
      </trkpt>
      <trkpt lat="48.92455" lon="-0.49568">
        <ele>48.119</ele>
        <time>2016-05-31T20:28:25Z</time>
      </trkpt>
      <trkpt lat="48.92452" lon="-0.49641">
        <ele>49.373</ele>
        <time>2016-05-31T20:28:05Z</time>
      </trkpt>
      <trkpt lat="48.924" lon="-0.49685">
        <ele>49.308</ele>
        <time>2016-05-31T20:27:45Z</time>
      </trkpt>
      <trkpt lat="48.92387" lon="-0.49724">
        <ele>48.215</ele>
        <time>2016-05-31T20:27:25Z</time>
      </trkpt>
      <trkpt lat="48.92381" lon="-0.49779">
        <ele>46.841</ele>
        <time>2016-05-31T20:27:05Z</time>
      </trkpt>
      <trkpt lat="48.92357" lon="-0.49873">
        <ele>46.171</ele>
        <time>2016-05-31T20:26:45Z</time>
      </trkpt>
      <trkpt lat="48.92311" lon="-0.50046">
        <ele>44.718</ele>
        <time>2016-05-31T20:26:25Z</time>
      </trkpt>
      <trkpt lat="48.92316" lon="-0.50069">
        <ele>43.719</ele>
        <time>2016-05-31T20:26:05Z</time>
      </trkpt>
      <trkpt lat="48.9231" lon="-0.50106">
        <ele>43.843</ele>
        <time>2016-05-31T20:25:45Z</time>
      </trkpt>
      <trkpt lat="48.92283" lon="-0.50136">
        <ele>44.991</ele>
        <time>2016-05-31T20:25:25Z</time>
      </trkpt>
      <trkpt lat="48.92272" lon="-0.50182">
        <ele>44.875</ele>
        <time>2016-05-31T20:25:05Z</time>
      </trkpt>
      <trkpt lat="48.92281" lon="-0.50322">
        <ele>45.412</ele>
        <time>2016-05-31T20:24:45Z</time>
      </trkpt>
      <trkpt lat="48.9231" lon="-0.50441">
        <ele>45.187</ele>
        <time>2016-05-31T20:24:25Z</time>
      </trkpt>
      <trkpt lat="48.92284" lon="-0.50539">
        <ele>46.761</ele>
        <time>2016-05-31T20:24:05Z</time>
      </trkpt>
      <trkpt lat="48.92377" lon="-0.5063">
        <ele>46.408</ele>
        <time>2016-05-31T20:23:45Z</time>
      </trkpt>
      <trkpt lat="48.92425" lon="-0.50742">
        <ele>45.917</ele>
        <time>2016-05-31T20:23:25Z</time>
      </trkpt>
      <trkpt lat="48.92437" lon="-0.5087">
        <ele>44.507</ele>
        <time>2016-05-31T20:23:05Z</time>
      </trkpt>
      <trkpt lat="48.92438" lon="-0.51018">
        <ele>44.755</ele>
        <time>2016-05-31T20:22:45Z</time>
      </trkpt>
      <trkpt lat="48.92469" lon="-0.51096">
        <ele>40.278</ele>
        <time>2016-05-31T20:22:25Z</time>
      </trkpt>
      <trkpt lat="48.9248" lon="-0.51157">
        <ele>42.169</ele>
        <time>2016-05-31T20:22:05Z</time>
      </trkpt>
      <trkpt lat="48.92475" lon="-0.51207">
        <ele>43.583</ele>
        <time>2016-05-31T20:21:45Z</time>
      </trkpt>
      <trkpt lat="48.92482" lon="-0.51271">
        <ele>53.711</ele>
        <time>2016-05-31T20:21:25Z</time>
      </trkpt>
      <trkpt lat="48.92523" lon="-0.51327">
        <ele>63.625</ele>
        <time>2016-05-31T20:21:05Z</time>
      </trkpt>
      <trkpt lat="48.92563" lon="-0.51324">
        <ele>56.392</ele>
        <time>2016-05-31T20:20:45Z</time>
      </trkpt>
      <trkpt lat="48.92633" lon="-0.513">
        <ele>51.667</ele>
        <time>2016-05-31T20:20:25Z</time>
      </trkpt>
      <trkpt lat="48.92853" lon="-0.51208">
        <ele>39.511</ele>
        <time>2016-05-31T20:20:05Z</time>
      </trkpt>
      <trkpt lat="48.92888" lon="-0.51218">
        <ele>39.608</ele>
        <time>2016-05-31T20:19:45Z</time>
      </trkpt>
      <trkpt lat="48.92917" lon="-0.5124">
        <ele>43.111</ele>
        <time>2016-05-31T20:19:25Z</time>
      </trkpt>
      <trkpt lat="48.92949" lon="-0.51244">
        <ele>47.456</ele>
        <time>2016-05-31T20:19:05Z</time>
      </trkpt>
      <trkpt lat="48.92994" lon="-0.51214">
        <ele>42.454</ele>
        <time>2016-05-31T20:18:45Z</time>
      </trkpt>
      <trkpt lat="48.93337" lon="-0.51335">
        <ele>46.865</ele>
        <time>2016-05-31T20:18:25Z</time>
      </trkpt>
      <trkpt lat="48.93591" lon="-0.51376">
        <ele>37.246</ele>
        <time>2016-05-31T20:18:05Z</time>
      </trkpt>
      <trkpt lat="48.93624" lon="-0.51424">
        <ele>37.86</ele>
        <time>2016-05-31T20:17:45Z</time>
      </trkpt>
      <trkpt lat="48.93659" lon="-0.51424">
        <ele>35.758</ele>
        <time>2016-05-31T20:17:25Z</time>
      </trkpt>
      <trkpt lat="48.93764" lon="-0.51362">
        <ele>41.722</ele>
        <time>2016-05-31T20:17:05Z</time>
      </trkpt>
      <trkpt lat="48.93821" lon="-0.51286">
        <ele>39.219</ele>
        <time>2016-05-31T20:16:45Z</time>
      </trkpt>
      <trkpt lat="48.93885" lon="-0.51168">
        <ele>37.524</ele>
        <time>2016-05-31T20:16:25Z</time>
      </trkpt>
      <trkpt lat="48.93951" lon="-0.51095">
        <ele>44.158</ele>
        <time>2016-05-31T20:16:05Z</time>
      </trkpt>
      <trkpt lat="48.94017" lon="-0.5101">
        <ele>37.208</ele>
        <time>2016-05-31T20:15:45Z</time>
      </trkpt>
      <trkpt lat="48.94051" lon="-0.50979">
        <ele>36.114</ele>
        <time>2016-05-31T20:15:25Z</time>
      </trkpt>
      <trkpt lat="48.94105" lon="-0.50987">
        <ele>45.804</ele>
        <time>2016-05-31T20:15:05Z</time>
      </trkpt>
      <trkpt lat="48.94129" lon="-0.50958">
        <ele>39.424</ele>
        <time>2016-05-31T20:14:45Z</time>
      </trkpt>
      <trkpt lat="48.94194" lon="-0.50945">
        <ele>46.061</ele>
        <time>2016-05-31T20:14:25Z</time>
      </trkpt>
      <trkpt lat="48.94343" lon="-0.50836">
        <ele>39.222</ele>
        <time>2016-05-31T20:14:05Z</time>
      </trkpt>
      <trkpt lat="48.94416" lon="-0.50805">
        <ele>34.946</ele>
        <time>2016-05-31T20:13:45Z</time>
      </trkpt>
      <trkpt lat="48.94471" lon="-0.5081">
        <ele>38.054</ele>
        <time>2016-05-31T20:13:25Z</time>
      </trkpt>
      <trkpt lat="48.94487" lon="-0.50753">
        <ele>36.218</ele>
        <time>2016-05-31T20:13:05Z</time>
      </trkpt>
      <trkpt lat="48.94519" lon="-0.50668">
        <ele>36.865</ele>
        <time>2016-05-31T20:12:45Z</time>
      </trkpt>
      <trkpt lat="48.9456" lon="-0.50609">
        <ele>35.04</ele>
        <time>2016-05-31T20:12:25Z</time>
      </trkpt>
      <trkpt lat="48.94595" lon="-0.50597">
        <ele>35.164</ele>
        <time>2016-05-31T20:12:05Z</time>
      </trkpt>
      <trkpt lat="48.94626" lon="-0.50612">
        <ele>33.408</ele>
        <time>2016-05-31T20:11:45Z</time>
      </trkpt>
      <trkpt lat="48.94654" lon="-0.50636">
        <ele>32.126</ele>
        <time>2016-05-31T20:11:25Z</time>
      </trkpt>
      <trkpt lat="48.94743" lon="-0.50593">
        <ele>36.424</ele>
        <time>2016-05-31T20:11:05Z</time>
      </trkpt>
      <trkpt lat="48.9479" lon="-0.50598">
        <ele>37.588</ele>
        <time>2016-05-31T20:10:45Z</time>
      </trkpt>
      <trkpt lat="48.94822" lon="-0.5064">
        <ele>40.698</ele>
        <time>2016-05-31T20:10:25Z</time>
      </trkpt>
      <trkpt lat="48.94907" lon="-0.50804">
        <ele>46.389</ele>
        <time>2016-05-31T20:10:05Z</time>
      </trkpt>
      <trkpt lat="48.94897" lon="-0.50823">
        <ele>47.023</ele>
        <time>2016-05-31T20:09:45Z</time>
      </trkpt>
      <trkpt lat="48.94917" lon="-0.50856">
        <ele>52.591</ele>
        <time>2016-05-31T20:09:25Z</time>
      </trkpt>
      <trkpt lat="48.94943" lon="-0.50881">
        <ele>57.555</ele>
        <time>2016-05-31T20:09:05Z</time>
      </trkpt>
      <trkpt lat="48.94996" lon="-0.50894">
        <ele>60.942</ele>
        <time>2016-05-31T20:08:45Z</time>
      </trkpt>
      <trkpt lat="48.95097" lon="-0.50879">
        <ele>81.197</ele>
        <time>2016-05-31T20:08:25Z</time>
      </trkpt>
      <trkpt lat="48.95127" lon="-0.5095">
        <ele>86.771</ele>
        <time>2016-05-31T20:08:05Z</time>
      </trkpt>
      <trkpt lat="48.95164" lon="-0.51018">
        <ele>92.908</ele>
        <time>2016-05-31T20:07:45Z</time>
      </trkpt>
      <trkpt lat="48.95301" lon="-0.51073">
        <ele>109.723</ele>
        <time>2016-05-31T20:07:25Z</time>
      </trkpt>
      <trkpt lat="48.95343" lon="-0.51106">
        <ele>117.803</ele>
        <time>2016-05-31T20:07:05Z</time>
      </trkpt>
      <trkpt lat="48.95395" lon="-0.51171">
        <ele>121.659</ele>
        <time>2016-05-31T20:06:45Z</time>
      </trkpt>
      <trkpt lat="48.95416" lon="-0.51186">
        <ele>123.099</ele>
        <time>2016-05-31T20:06:25Z</time>
      </trkpt>
      <trkpt lat="48.95507" lon="-0.51362">
        <ele>144.86</ele>
        <time>2016-05-31T20:06:05Z</time>
      </trkpt>
      <trkpt lat="48.95627" lon="-0.51419">
        <ele>159.444</ele>
        <time>2016-05-31T20:05:45Z</time>
      </trkpt>
      <trkpt lat="48.95711" lon="-0.51483">
        <ele>175.452</ele>
        <time>2016-05-31T20:05:25Z</time>
      </trkpt>
      <trkpt lat="48.95772" lon="-0.51495">
        <ele>182.556</ele>
        <time>2016-05-31T20:05:05Z</time>
      </trkpt>
      <trkpt lat="48.95829" lon="-0.51527">
        <ele>191.323</ele>
        <time>2016-05-31T20:04:45Z</time>
      </trkpt>
      <trkpt lat="48.95872" lon="-0.51579">
        <ele>196.728</ele>
        <time>2016-05-31T20:04:25Z</time>
      </trkpt>
      <trkpt lat="48.95908" lon="-0.51706">
        <ele>199.262</ele>
        <time>2016-05-31T20:04:05Z</time>
      </trkpt>
      <trkpt lat="48.95983" lon="-0.51796">
        <ele>200.608</ele>
        <time>2016-05-31T20:03:45Z</time>
      </trkpt>
      <trkpt lat="48.96066" lon="-0.51999">
        <ele>214.721</ele>
        <time>2016-05-31T20:03:25Z</time>
      </trkpt>
      <trkpt lat="48.96059" lon="-0.52034">
        <ele>216.929</ele>
        <time>2016-05-31T20:03:05Z</time>
      </trkpt>
      <trkpt lat="48.96076" lon="-0.52046">
        <ele>215.966</ele>
        <time>2016-05-31T20:02:45Z</time>
      </trkpt>
      <trkpt lat="48.96162" lon="-0.52247">
        <ele>213.826</ele>
        <time>2016-05-31T20:02:25Z</time>
      </trkpt>
      <trkpt lat="48.96282" lon="-0.52543">
        <ele>212.787</ele>
        <time>2016-05-31T20:02:05Z</time>
      </trkpt>
      <trkpt lat="48.96328" lon="-0.52598">
        <ele>211.871</ele>
        <time>2016-05-31T20:01:45Z</time>
      </trkpt>
      <trkpt lat="48.96403" lon="-0.52796">
        <ele>204.579</ele>
        <time>2016-05-31T20:01:25Z</time>
      </trkpt>
      <trkpt lat="48.96418" lon="-0.52854">
        <ele>200.173</ele>
        <time>2016-05-31T20:01:05Z</time>
      </trkpt>
      <trkpt lat="48.96471" lon="-0.52916">
        <ele>197.04</ele>
        <time>2016-05-31T20:00:45Z</time>
      </trkpt>
      <trkpt lat="48.96529" lon="-0.52799">
        <ele>193.725</ele>
        <time>2016-05-31T20:00:25Z</time>
      </trkpt>
      <trkpt lat="48.96552" lon="-0.52631">
        <ele>183.829</ele>
        <time>2016-05-31T20:00:05Z</time>
      </trkpt>
      <trkpt lat="48.96569" lon="-0.52552">
        <ele>176.008</ele>
        <time>2016-05-31T19:59:45Z</time>
      </trkpt>
      <trkpt lat="48.96605" lon="-0.52478">
        <ele>168.607</ele>
        <time>2016-05-31T19:59:25Z</time>
      </trkpt>
      <trkpt lat="48.96637" lon="-0.52385">
        <ele>161.761</ele>
        <time>2016-05-31T19:59:05Z</time>
      </trkpt>
      <trkpt lat="48.96668" lon="-0.52332">
        <ele>157.831</ele>
        <time>2016-05-31T19:58:45Z</time>
      </trkpt>
      <trkpt lat="48.96706" lon="-0.52281">
        <ele>155.21</ele>
        <time>2016-05-31T19:58:25Z</time>
      </trkpt>
      <trkpt lat="48.96734" lon="-0.52272">
        <ele>155.681</ele>
        <time>2016-05-31T19:58:05Z</time>
      </trkpt>
      <trkpt lat="48.96821" lon="-0.522">
        <ele>157.215</ele>
        <time>2016-05-31T19:57:45Z</time>
      </trkpt>
      <trkpt lat="48.96848" lon="-0.52171">
        <ele>156.693</ele>
        <time>2016-05-31T19:57:25Z</time>
      </trkpt>
      <trkpt lat="48.96865" lon="-0.52138">
        <ele>158.177</ele>
        <time>2016-05-31T19:57:05Z</time>
      </trkpt>
      <trkpt lat="48.97119" lon="-0.51953">
        <ele>172.274</ele>
        <time>2016-05-31T19:56:45Z</time>
      </trkpt>
      <trkpt lat="48.97145" lon="-0.51888">
        <ele>182.249</ele>
        <time>2016-05-31T19:56:25Z</time>
      </trkpt>
      <trkpt lat="48.97151" lon="-0.51816">
        <ele>183.943</ele>
        <time>2016-05-31T19:56:05Z</time>
      </trkpt>
      <trkpt lat="48.97139" lon="-0.51782">
        <ele>181.908</ele>
        <time>2016-05-31T19:55:45Z</time>
      </trkpt>
      <trkpt lat="48.97047" lon="-0.51622">
        <ele>183.614</ele>
        <time>2016-05-31T19:55:25Z</time>
      </trkpt>
      <trkpt lat="48.96986" lon="-0.5155">
        <ele>182.613</ele>
        <time>2016-05-31T19:55:05Z</time>
      </trkpt>
      <trkpt lat="48.96933" lon="-0.51479">
        <ele>184.872</ele>
        <time>2016-05-31T19:54:45Z</time>
      </trkpt>
      <trkpt lat="48.96869" lon="-0.51316">
        <ele>189.686</ele>
        <time>2016-05-31T19:54:25Z</time>
      </trkpt>
      <trkpt lat="48.96833" lon="-0.51308">
        <ele>194.127</ele>
        <time>2016-05-31T19:54:05Z</time>
      </trkpt>
      <trkpt lat="48.96813" lon="-0.51286">
        <ele>195.891</ele>
        <time>2016-05-31T19:53:45Z</time>
      </trkpt>
      <trkpt lat="48.96823" lon="-0.51214">
        <ele>188.619</ele>
        <time>2016-05-31T19:53:25Z</time>
      </trkpt>
      <trkpt lat="48.96843" lon="-0.51118">
        <ele>165.713</ele>
        <time>2016-05-31T19:53:05Z</time>
      </trkpt>
      <trkpt lat="48.9689" lon="-0.51004">
        <ele>142.57</ele>
        <time>2016-05-31T19:52:45Z</time>
      </trkpt>
      <trkpt lat="48.96932" lon="-0.50863">
        <ele>129.315</ele>
        <time>2016-05-31T19:52:25Z</time>
      </trkpt>
      <trkpt lat="48.97047" lon="-0.50725">
        <ele>127.069</ele>
        <time>2016-05-31T19:52:05Z</time>
      </trkpt>
      <trkpt lat="48.9702" lon="-0.50702">
        <ele>123.808</ele>
        <time>2016-05-31T19:51:45Z</time>
      </trkpt>
      <trkpt lat="48.97069" lon="-0.50638">
        <ele>121.413</ele>
        <time>2016-05-31T19:51:25Z</time>
      </trkpt>
      <trkpt lat="48.97168" lon="-0.50491">
        <ele>119.149</ele>
        <time>2016-05-31T19:51:05Z</time>
      </trkpt>
      <trkpt lat="48.97303" lon="-0.50263">
        <ele>110.137</ele>
        <time>2016-05-31T19:50:45Z</time>
      </trkpt>
      <trkpt lat="48.97325" lon="-0.50239">
        <ele>108.126</ele>
        <time>2016-05-31T19:50:25Z</time>
      </trkpt>
      <trkpt lat="48.9737" lon="-0.50268">
        <ele>113.367</ele>
        <time>2016-05-31T19:50:05Z</time>
      </trkpt>
      <trkpt lat="48.97382" lon="-0.50257">
        <ele>112.591</ele>
        <time>2016-05-31T19:49:45Z</time>
      </trkpt>
      <trkpt lat="48.97395" lon="-0.50144">
        <ele>110.349</ele>
        <time>2016-05-31T19:49:25Z</time>
      </trkpt>
      <trkpt lat="48.97416" lon="-0.50193">
        <ele>116.863</ele>
        <time>2016-05-31T19:49:05Z</time>
      </trkpt>
      <trkpt lat="48.97669" lon="-0.50332">
        <ele>137.85</ele>
        <time>2016-05-31T19:48:45Z</time>
      </trkpt>
      <trkpt lat="48.97756" lon="-0.50359">
        <ele>130.715</ele>
        <time>2016-05-31T19:48:25Z</time>
      </trkpt>
      <trkpt lat="48.97862" lon="-0.50384">
        <ele>125.849</ele>
        <time>2016-05-31T19:48:05Z</time>
      </trkpt>
      <trkpt lat="48.97919" lon="-0.5038">
        <ele>119.408</ele>
        <time>2016-05-31T19:47:45Z</time>
      </trkpt>
      <trkpt lat="48.97973" lon="-0.50392">
        <ele>116.917</ele>
        <time>2016-05-31T19:47:25Z</time>
      </trkpt>
      <trkpt lat="48.97977" lon="-0.50302">
        <ele>118.27</ele>
        <time>2016-05-31T19:47:05Z</time>
      </trkpt>
      <trkpt lat="48.98014" lon="-0.50217">
        <ele>122.738</ele>
        <time>2016-05-31T19:46:45Z</time>
      </trkpt>
      <trkpt lat="48.98091" lon="-0.49984">
        <ele>122.739</ele>
        <time>2016-05-31T19:46:25Z</time>
      </trkpt>
      <trkpt lat="48.98218" lon="-0.49557">
        <ele>132.59</ele>
        <time>2016-05-31T19:46:05Z</time>
      </trkpt>
      <trkpt lat="48.98268" lon="-0.49419">
        <ele>134.344</ele>
        <time>2016-05-31T19:45:45Z</time>
      </trkpt>
      <trkpt lat="48.98327" lon="-0.49346">
        <ele>136.012</ele>
        <time>2016-05-31T19:45:25Z</time>
      </trkpt>
      <trkpt lat="48.98428" lon="-0.49178">
        <ele>134.896</ele>
        <time>2016-05-31T19:45:05Z</time>
      </trkpt>
      <trkpt lat="48.98473" lon="-0.49119">
        <ele>131.563</ele>
        <time>2016-05-31T19:44:45Z</time>
      </trkpt>
      <trkpt lat="48.98567" lon="-0.49038">
        <ele>119.668</ele>
        <time>2016-05-31T19:44:25Z</time>
      </trkpt>
      <trkpt lat="48.98655" lon="-0.48851">
        <ele>96.792</ele>
        <time>2016-05-31T19:44:05Z</time>
      </trkpt>
      <trkpt lat="48.98695" lon="-0.48822">
        <ele>88.808</ele>
        <time>2016-05-31T19:43:45Z</time>
      </trkpt>
      <trkpt lat="48.9875" lon="-0.4883">
        <ele>87.626</ele>
        <time>2016-05-31T19:43:25Z</time>
      </trkpt>
      <trkpt lat="48.98779" lon="-0.48744">
        <ele>76.842</ele>
        <time>2016-05-31T19:43:05Z</time>
      </trkpt>
      <trkpt lat="48.98807" lon="-0.48733">
        <ele>69.068</ele>
        <time>2016-05-31T19:42:45Z</time>
      </trkpt>
      <trkpt lat="48.98836" lon="-0.48678">
        <ele>63.524</ele>
        <time>2016-05-31T19:42:25Z</time>
      </trkpt>
      <trkpt lat="48.98853" lon="-0.48622">
        <ele>60.375</ele>
        <time>2016-05-31T19:42:05Z</time>
      </trkpt>
      <trkpt lat="48.98859" lon="-0.48565">
        <ele>57.639</ele>
        <time>2016-05-31T19:41:45Z</time>
      </trkpt>
      <trkpt lat="48.9888" lon="-0.48539">
        <ele>53.277</ele>
        <time>2016-05-31T19:41:25Z</time>
      </trkpt>
      <trkpt lat="48.9888" lon="-0.48539">
        <ele>53.251</ele>
        <time>2016-05-31T19:41:05Z</time>
      </trkpt>
      <trkpt lat="48.9888" lon="-0.48539">
        <ele>53.278</ele>
        <time>2016-05-31T19:40:45Z</time>
      </trkpt>
      <trkpt lat="48.9888" lon="-0.48539">
        <ele>53.233</ele>
        <time>2016-05-31T19:40:25Z</time>
      </trkpt>
      <trkpt lat="48.9888" lon="-0.48539">
        <ele>53.277</ele>
        <time>2016-05-31T19:40:05Z</time>
      </trkpt>
      <trkpt lat="48.98971" lon="-0.48485">
        <ele>41.608</ele>
        <time>2016-05-31T19:39:45Z</time>
      </trkpt>
      <trkpt lat="48.98933" lon="-0.48403">
        <ele>37.015</ele>
        <time>2016-05-31T19:39:25Z</time>
      </trkpt>
      <trkpt lat="48.98904" lon="-0.4841">
        <ele>37.487</ele>
        <time>2016-05-31T19:39:05Z</time>
      </trkpt>
      <trkpt lat="48.98869" lon="-0.48384">
        <ele>28.417</ele>
        <time>2016-05-31T19:38:45Z</time>
      </trkpt>
      <trkpt lat="48.98936" lon="-0.48352">
        <ele>27.266</ele>
        <time>2016-05-31T19:38:25Z</time>
      </trkpt>
      <trkpt lat="48.99002" lon="-0.4833">
        <ele>28.647</ele>
        <time>2016-05-31T19:38:05Z</time>
      </trkpt>
      <trkpt lat="48.98933" lon="-0.48178">
        <ele>24.971</ele>
        <time>2016-05-31T19:37:45Z</time>
      </trkpt>
      <trkpt lat="48.98933" lon="-0.48178">
        <ele>24.989</ele>
        <time>2016-05-31T19:37:25Z</time>
      </trkpt>
      <trkpt lat="48.98869" lon="-0.48174">
        <ele>25.583</ele>
        <time>2016-05-31T19:37:05Z</time>
      </trkpt>
      <trkpt lat="48.98775" lon="-0.47972">
        <ele>39.53</ele>
        <time>2016-05-31T19:36:45Z</time>
      </trkpt>
      <trkpt lat="48.98759" lon="-0.4795">
        <ele>42.515</ele>
        <time>2016-05-31T19:36:25Z</time>
      </trkpt>
      <trkpt lat="48.98763" lon="-0.47753">
        <ele>42.739</ele>
        <time>2016-05-31T19:36:05Z</time>
      </trkpt>
      <trkpt lat="48.98798" lon="-0.47723">
        <ele>39.608</ele>
        <time>2016-05-31T19:35:45Z</time>
      </trkpt>
      <trkpt lat="48.98829" lon="-0.47659">
        <ele>42.715</ele>
        <time>2016-05-31T19:35:25Z</time>
      </trkpt>
      <trkpt lat="48.98833" lon="-0.47594">
        <ele>48.823</ele>
        <time>2016-05-31T19:35:05Z</time>
      </trkpt>
      <trkpt lat="48.98814" lon="-0.47483">
        <ele>50.533</ele>
        <time>2016-05-31T19:34:45Z</time>
      </trkpt>
      <trkpt lat="48.98831" lon="-0.47414">
        <ele>57.029</ele>
        <time>2016-05-31T19:34:25Z</time>
      </trkpt>
      <trkpt lat="48.98839" lon="-0.47425">
        <ele>59.53</ele>
        <time>2016-05-31T19:34:05Z</time>
      </trkpt>
      <trkpt lat="48.98836" lon="-0.475">
        <ele>56.834</ele>
        <time>2016-05-31T19:33:45Z</time>
      </trkpt>
      <trkpt lat="48.98846" lon="-0.47541">
        <ele>57.332</ele>
        <time>2016-05-31T19:33:25Z</time>
      </trkpt>
      <trkpt lat="48.98863" lon="-0.47558">
        <ele>59.316</ele>
        <time>2016-05-31T19:33:05Z</time>
      </trkpt>
      <trkpt lat="48.98867" lon="-0.47584">
        <ele>58.573</ele>
        <time>2016-05-31T19:32:45Z</time>
      </trkpt>
      <trkpt lat="48.98898" lon="-0.47654">
        <ele>63.638</ele>
        <time>2016-05-31T19:32:25Z</time>
      </trkpt>
      <trkpt lat="48.98966" lon="-0.47247">
        <ele>78.022</ele>
        <time>2016-05-31T19:32:05Z</time>
      </trkpt>
      <trkpt lat="48.98997" lon="-0.47176">
        <ele>81.408</ele>
        <time>2016-05-31T19:31:45Z</time>
      </trkpt>
      <trkpt lat="48.99016" lon="-0.47122">
        <ele>83.014</ele>
        <time>2016-05-31T19:31:25Z</time>
      </trkpt>
      <trkpt lat="48.99103" lon="-0.47136">
        <ele>90.368</ele>
        <time>2016-05-31T19:31:05Z</time>
      </trkpt>
      <trkpt lat="48.99103" lon="-0.47136">
        <ele>90.365</ele>
        <time>2016-05-31T19:30:45Z</time>
      </trkpt>
      <trkpt lat="48.99398" lon="-0.47054">
        <ele>92.145</ele>
        <time>2016-05-31T19:30:25Z</time>
      </trkpt>
      <trkpt lat="48.99477" lon="-0.47026">
        <ele>94.176</ele>
        <time>2016-05-31T19:30:05Z</time>
      </trkpt>
      <trkpt lat="48.99477" lon="-0.47264">
        <ele>78.18</ele>
        <time>2016-05-31T19:29:45Z</time>
      </trkpt>
      <trkpt lat="48.99519" lon="-0.47264">
        <ele>77.998</ele>
        <time>2016-05-31T19:29:25Z</time>
      </trkpt>
      <trkpt lat="48.99531" lon="-0.47312">
        <ele>73.882</ele>
        <time>2016-05-31T19:29:05Z</time>
      </trkpt>
      <trkpt lat="48.99592" lon="-0.47475">
        <ele>60.299</ele>
        <time>2016-05-31T19:28:45Z</time>
      </trkpt>
      <trkpt lat="48.99609" lon="-0.47498">
        <ele>55.454</ele>
        <time>2016-05-31T19:28:25Z</time>
      </trkpt>
      <trkpt lat="48.99637" lon="-0.47491">
        <ele>54.218</ele>
        <time>2016-05-31T19:28:05Z</time>
      </trkpt>
      <trkpt lat="48.99675" lon="-0.4746">
        <ele>51.008</ele>
        <time>2016-05-31T19:27:45Z</time>
      </trkpt>
      <trkpt lat="48.99693" lon="-0.47424">
        <ele>50.817</ele>
        <time>2016-05-31T19:27:25Z</time>
      </trkpt>
      <trkpt lat="48.99802" lon="-0.4716">
        <ele>60.689</ele>
        <time>2016-05-31T19:27:05Z</time>
      </trkpt>
      <trkpt lat="48.99863" lon="-0.47035">
        <ele>58.728</ele>
        <time>2016-05-31T19:26:45Z</time>
      </trkpt>
      <trkpt lat="48.99888" lon="-0.46915">
        <ele>60.917</ele>
        <time>2016-05-31T19:26:25Z</time>
      </trkpt>
      <trkpt lat="49.00006" lon="-0.46702">
        <ele>54.868</ele>
        <time>2016-05-31T19:26:05Z</time>
      </trkpt>
      <trkpt lat="49.00031" lon="-0.46691">
        <ele>51.672</ele>
        <time>2016-05-31T19:25:45Z</time>
      </trkpt>
      <trkpt lat="49.00093" lon="-0.46614">
        <ele>44.58</ele>
        <time>2016-05-31T19:25:25Z</time>
      </trkpt>
      <trkpt lat="49.00182" lon="-0.46514">
        <ele>44.744</ele>
        <time>2016-05-31T19:25:05Z</time>
      </trkpt>
      <trkpt lat="49.00182" lon="-0.46494">
        <ele>49.951</ele>
        <time>2016-05-31T19:24:45Z</time>
      </trkpt>
      <trkpt lat="49.00156" lon="-0.46477">
        <ele>64.366</ele>
        <time>2016-05-31T19:24:25Z</time>
      </trkpt>
      <trkpt lat="49.00208" lon="-0.46428">
        <ele>64.87</ele>
        <time>2016-05-31T19:24:05Z</time>
      </trkpt>
      <trkpt lat="49.002" lon="-0.46411">
        <ele>70.908</ele>
        <time>2016-05-31T19:23:45Z</time>
      </trkpt>
      <trkpt lat="49.00228" lon="-0.46399">
        <ele>76.716</ele>
        <time>2016-05-31T19:23:25Z</time>
      </trkpt>
      <trkpt lat="49.00214" lon="-0.46378">
        <ele>83.088</ele>
        <time>2016-05-31T19:23:05Z</time>
      </trkpt>
      <trkpt lat="49.00238" lon="-0.46355">
        <ele>91.546</ele>
        <time>2016-05-31T19:22:45Z</time>
      </trkpt>
      <trkpt lat="49.00232" lon="-0.46329">
        <ele>98.162</ele>
        <time>2016-05-31T19:22:25Z</time>
      </trkpt>
      <trkpt lat="49.002" lon="-0.46322">
        <ele>96.443</ele>
        <time>2016-05-31T19:22:05Z</time>
      </trkpt>
      <trkpt lat="49.00171" lon="-0.46338">
        <ele>93.057</ele>
        <time>2016-05-31T19:21:45Z</time>
      </trkpt>
      <trkpt lat="49.00154" lon="-0.4629">
        <ele>106.055</ele>
        <time>2016-05-31T19:21:25Z</time>
      </trkpt>
      <trkpt lat="49.00206" lon="-0.46223">
        <ele>115.549</ele>
        <time>2016-05-31T19:21:05Z</time>
      </trkpt>
      <trkpt lat="49.0026" lon="-0.46296">
        <ele>107.446</ele>
        <time>2016-05-31T19:20:45Z</time>
      </trkpt>
      <trkpt lat="49.00345" lon="-0.46306">
        <ele>101.511</ele>
        <time>2016-05-31T19:20:25Z</time>
      </trkpt>
      <trkpt lat="49.00377" lon="-0.46306">
        <ele>100.455</ele>
        <time>2016-05-31T19:20:05Z</time>
      </trkpt>
      <trkpt lat="49.00409" lon="-0.46343">
        <ele>92.908</ele>
        <time>2016-05-31T19:19:45Z</time>
      </trkpt>
      <trkpt lat="49.0043" lon="-0.46358">
        <ele>90.621</ele>
        <time>2016-05-31T19:19:25Z</time>
      </trkpt>
      <trkpt lat="49.00478" lon="-0.4638">
        <ele>83.065</ele>
        <time>2016-05-31T19:19:05Z</time>
      </trkpt>
      <trkpt lat="49.00521" lon="-0.46451">
        <ele>66.993</ele>
        <time>2016-05-31T19:18:45Z</time>
      </trkpt>
      <trkpt lat="49.00545" lon="-0.46484">
        <ele>62.816</ele>
        <time>2016-05-31T19:18:25Z</time>
      </trkpt>
      <trkpt lat="49.0057" lon="-0.46485">
        <ele>68.357</ele>
        <time>2016-05-31T19:18:05Z</time>
      </trkpt>
      <trkpt lat="49.00587" lon="-0.46475">
        <ele>71.681</ele>
        <time>2016-05-31T19:17:45Z</time>
      </trkpt>
      <trkpt lat="49.00584" lon="-0.46516">
        <ele>66.799</ele>
        <time>2016-05-31T19:17:25Z</time>
      </trkpt>
      <trkpt lat="49.0061" lon="-0.46592">
        <ele>51.923</ele>
        <time>2016-05-31T19:17:05Z</time>
      </trkpt>
      <trkpt lat="49.00623" lon="-0.46654">
        <ele>43.97</ele>
        <time>2016-05-31T19:16:45Z</time>
      </trkpt>
      <trkpt lat="49.0071" lon="-0.46874">
        <ele>30.455</ele>
        <time>2016-05-31T19:16:25Z</time>
      </trkpt>
      <trkpt lat="49.00732" lon="-0.46887">
        <ele>31.399</ele>
        <time>2016-05-31T19:16:05Z</time>
      </trkpt>
      <trkpt lat="49.00749" lon="-0.46949">
        <ele>27.508</ele>
        <time>2016-05-31T19:15:45Z</time>
      </trkpt>
      <trkpt lat="49.00765" lon="-0.46956">
        <ele>29.118</ele>
        <time>2016-05-31T19:15:25Z</time>
      </trkpt>
      <trkpt lat="49.00778" lon="-0.4693">
        <ele>33.617</ele>
        <time>2016-05-31T19:15:05Z</time>
      </trkpt>
      <trkpt lat="49.00765" lon="-0.46852">
        <ele>40.136</ele>
        <time>2016-05-31T19:14:45Z</time>
      </trkpt>
      <trkpt lat="49.00762" lon="-0.46788">
        <ele>45.391</ele>
        <time>2016-05-31T19:14:25Z</time>
      </trkpt>
      <trkpt lat="49.0078" lon="-0.46747">
        <ele>52.852</ele>
        <time>2016-05-31T19:14:05Z</time>
      </trkpt>
      <trkpt lat="49.00747" lon="-0.46743">
        <ele>48.916</ele>
        <time>2016-05-31T19:13:45Z</time>
      </trkpt>
      <trkpt lat="49.00779" lon="-0.46695">
        <ele>60.054</ele>
        <time>2016-05-31T19:13:25Z</time>
      </trkpt>
      <trkpt lat="49.00805" lon="-0.46691">
        <ele>61.348</ele>
        <time>2016-05-31T19:13:05Z</time>
      </trkpt>
      <trkpt lat="49.00814" lon="-0.46706">
        <ele>60.855</ele>
        <time>2016-05-31T19:12:45Z</time>
      </trkpt>
      <trkpt lat="49.00817" lon="-0.468">
        <ele>55.46</ele>
        <time>2016-05-31T19:12:25Z</time>
      </trkpt>
      <trkpt lat="49.00831" lon="-0.46844">
        <ele>52.464</ele>
        <time>2016-05-31T19:12:05Z</time>
      </trkpt>
      <trkpt lat="49.00864" lon="-0.46864">
        <ele>52.708</ele>
        <time>2016-05-31T19:11:45Z</time>
      </trkpt>
      <trkpt lat="49.00914" lon="-0.46873">
        <ele>49.517</ele>
        <time>2016-05-31T19:11:25Z</time>
      </trkpt>
      <trkpt lat="49.00963" lon="-0.46831">
        <ele>48.825</ele>
        <time>2016-05-31T19:11:05Z</time>
      </trkpt>
      <trkpt lat="49.01" lon="-0.46791">
        <ele>51.683</ele>
        <time>2016-05-31T19:10:45Z</time>
      </trkpt>
      <trkpt lat="49.01008" lon="-0.46754">
        <ele>55.177</ele>
        <time>2016-05-31T19:10:25Z</time>
      </trkpt>
      <trkpt lat="49.01025" lon="-0.46766">
        <ele>53.558</ele>
        <time>2016-05-31T19:10:05Z</time>
      </trkpt>
      <trkpt lat="49.01064" lon="-0.46747">
        <ele>51.632</ele>
        <time>2016-05-31T19:09:45Z</time>
      </trkpt>
      <trkpt lat="49.01102" lon="-0.46742">
        <ele>50.43</ele>
        <time>2016-05-31T19:09:25Z</time>
      </trkpt>
      <trkpt lat="49.0121" lon="-0.46756">
        <ele>47.454</ele>
        <time>2016-05-31T19:09:05Z</time>
      </trkpt>
      <trkpt lat="49.0125" lon="-0.46752">
        <ele>45.871</ele>
        <time>2016-05-31T19:08:45Z</time>
      </trkpt>
      <trkpt lat="49.01369" lon="-0.46728">
        <ele>46.096</ele>
        <time>2016-05-31T19:08:25Z</time>
      </trkpt>
      <trkpt lat="49.01521" lon="-0.46673">
        <ele>45.36</ele>
        <time>2016-05-31T19:08:05Z</time>
      </trkpt>
      <trkpt lat="49.01565" lon="-0.46648">
        <ele>45.108</ele>
        <time>2016-05-31T19:07:45Z</time>
      </trkpt>
      <trkpt lat="49.01621" lon="-0.4657">
        <ele>49.915</ele>
        <time>2016-05-31T19:07:25Z</time>
      </trkpt>
      <trkpt lat="49.01674" lon="-0.46462">
        <ele>61.005</ele>
        <time>2016-05-31T19:07:05Z</time>
      </trkpt>
      <trkpt lat="49.01835" lon="-0.46377">
        <ele>53.444</ele>
        <time>2016-05-31T19:06:45Z</time>
      </trkpt>
      <trkpt lat="49.01805" lon="-0.46224">
        <ele>57.356</ele>
        <time>2016-05-31T19:06:25Z</time>
      </trkpt>
      <trkpt lat="49.0179" lon="-0.46039">
        <ele>58.717</ele>
        <time>2016-05-31T19:06:05Z</time>
      </trkpt>
      <trkpt lat="49.01804" lon="-0.46126">
        <ele>53.231</ele>
        <time>2016-05-31T19:05:45Z</time>
      </trkpt>
      <trkpt lat="49.01829" lon="-0.46249">
        <ele>51.449</ele>
        <time>2016-05-31T19:05:25Z</time>
      </trkpt>
      <trkpt lat="49.01883" lon="-0.46354">
        <ele>40.353</ele>
        <time>2016-05-31T19:05:05Z</time>
      </trkpt>
      <trkpt lat="49.01916" lon="-0.4638">
        <ele>38.42</ele>
        <time>2016-05-31T19:04:45Z</time>
      </trkpt>
      <trkpt lat="49.01953" lon="-0.46465">
        <ele>35.095</ele>
        <time>2016-05-31T19:04:25Z</time>
      </trkpt>
      <trkpt lat="49.02077" lon="-0.4652">
        <ele>31.589</ele>
        <time>2016-05-31T19:04:05Z</time>
      </trkpt>
      <trkpt lat="49.02209" lon="-0.46482">
        <ele>41.108</ele>
        <time>2016-05-31T19:03:45Z</time>
      </trkpt>
      <trkpt lat="49.02287" lon="-0.46482">
        <ele>33.713</ele>
        <time>2016-05-31T19:03:25Z</time>
      </trkpt>
      <trkpt lat="49.02399" lon="-0.46451">
        <ele>34.649</ele>
        <time>2016-05-31T19:03:05Z</time>
      </trkpt>
      <trkpt lat="49.02542" lon="-0.46427">
        <ele>25.937</ele>
        <time>2016-05-31T19:02:45Z</time>
      </trkpt>
      <trkpt lat="49.02578" lon="-0.46395">
        <ele>30.244</ele>
        <time>2016-05-31T19:02:25Z</time>
      </trkpt>
      <trkpt lat="49.02585" lon="-0.46299">
        <ele>34.775</ele>
        <time>2016-05-31T19:02:05Z</time>
      </trkpt>
      <trkpt lat="49.02599" lon="-0.46315">
        <ele>36.549</ele>
        <time>2016-05-31T19:01:45Z</time>
      </trkpt>
      <trkpt lat="49.02606" lon="-0.4637">
        <ele>34.387</ele>
        <time>2016-05-31T19:01:25Z</time>
      </trkpt>
      <trkpt lat="49.02635" lon="-0.46286">
        <ele>43.491</ele>
        <time>2016-05-31T19:01:05Z</time>
      </trkpt>
      <trkpt lat="49.02663" lon="-0.46224">
        <ele>48.588</ele>
        <time>2016-05-31T19:00:25Z</time>
      </trkpt>
      <trkpt lat="49.02689" lon="-0.46069">
        <ele>56.763</ele>
        <time>2016-05-31T19:00:05Z</time>
      </trkpt>
      <trkpt lat="49.02722" lon="-0.45903">
        <ele>65.597</ele>
        <time>2016-05-31T18:59:25Z</time>
      </trkpt>
      <trkpt lat="49.02749" lon="-0.45852">
        <ele>66.908</ele>
        <time>2016-05-31T18:59:05Z</time>
      </trkpt>
      <trkpt lat="49.03186" lon="-0.45748">
        <ele>69.611</ele>
        <time>2016-05-31T18:58:45Z</time>
      </trkpt>
      <trkpt lat="49.03164" lon="-0.45617">
        <ele>74.165</ele>
        <time>2016-05-31T18:58:25Z</time>
      </trkpt>
      <trkpt lat="49.03146" lon="-0.45564">
        <ele>77.015</ele>
        <time>2016-05-31T18:58:05Z</time>
      </trkpt>
      <trkpt lat="49.03123" lon="-0.45539">
        <ele>79.454</ele>
        <time>2016-05-31T18:57:45Z</time>
      </trkpt>
      <trkpt lat="49.0309" lon="-0.45407">
        <ele>82.975</ele>
        <time>2016-05-31T18:57:25Z</time>
      </trkpt>
      <trkpt lat="49.03027" lon="-0.4524">
        <ele>89.729</ele>
        <time>2016-05-31T18:57:05Z</time>
      </trkpt>
      <trkpt lat="49.03047" lon="-0.45171">
        <ele>94.857</ele>
        <time>2016-05-31T18:56:45Z</time>
      </trkpt>
      <trkpt lat="49.03082" lon="-0.45185">
        <ele>94.791</ele>
        <time>2016-05-31T18:56:25Z</time>
      </trkpt>
      <trkpt lat="49.0312" lon="-0.45148">
        <ele>95.638</ele>
        <time>2016-05-31T18:56:05Z</time>
      </trkpt>
      <trkpt lat="49.03117" lon="-0.44985">
        <ele>102.783</ele>
        <time>2016-05-31T18:55:45Z</time>
      </trkpt>
      <trkpt lat="49.03108" lon="-0.44826">
        <ele>112.987</ele>
        <time>2016-05-31T18:55:25Z</time>
      </trkpt>
      <trkpt lat="49.03134" lon="-0.44585">
        <ele>123.008</ele>
        <time>2016-05-31T18:55:05Z</time>
      </trkpt>
      <trkpt lat="49.03185" lon="-0.44375">
        <ele>135.203</ele>
        <time>2016-05-31T18:54:45Z</time>
      </trkpt>
      <trkpt lat="49.03201" lon="-0.43904">
        <ele>141.721</ele>
        <time>2016-05-31T18:54:25Z</time>
      </trkpt>
      <trkpt lat="49.0332" lon="-0.43964">
        <ele>142.011</ele>
        <time>2016-05-31T18:54:05Z</time>
      </trkpt>
      <trkpt lat="49.03387" lon="-0.43424">
        <ele>141.285</ele>
        <time>2020-12-23T17:15:15Z</time>
      </trkpt>
      <trkpt lat="49.0366" lon="-0.4352">
        <ele>131.326</ele>
        <time>2020-12-23T17:14:55Z</time>
      </trkpt>
      <trkpt lat="49.03746" lon="-0.42833">
        <ele>109.36</ele>
        <time>2016-05-31T18:51:25Z</time>
      </trkpt>
      <trkpt lat="49.03714" lon="-0.42802">
        <ele>110.478</ele>
        <time>2016-05-31T18:50:05Z</time>
      </trkpt>
      <trkpt lat="49.03717" lon="-0.42766">
        <ele>112.652</ele>
        <time>2016-05-31T18:49:45Z</time>
      </trkpt>
      <trkpt lat="49.03824" lon="-0.42774">
        <ele>109.059</ele>
        <time>2016-05-31T18:49:25Z</time>
      </trkpt>
      <trkpt lat="49.03841" lon="-0.42823">
        <ele>106.254</ele>
        <time>2016-05-31T18:49:05Z</time>
      </trkpt>
      <trkpt lat="49.03929" lon="-0.42843">
        <ele>114.748</ele>
        <time>2016-05-31T18:48:45Z</time>
      </trkpt>
      <trkpt lat="49.04096" lon="-0.42735">
        <ele>126.608</ele>
        <time>2020-12-23T17:12:35Z</time>
      </trkpt>
      <trkpt lat="49.04962" lon="-0.43572">
        <ele>80.32</ele>
        <time>2020-12-23T17:12:15Z</time>
      </trkpt>
      <trkpt lat="49.04939" lon="-0.4375">
        <ele>74</ele>
        <time>2016-05-31T18:43:05Z</time>
      </trkpt>
      <trkpt lat="49.04955" lon="-0.4387">
        <ele>72.429</ele>
        <time>2016-05-31T18:42:45Z</time>
      </trkpt>
      <trkpt lat="49.04974" lon="-0.43926">
        <ele>69.432</ele>
        <time>2016-05-31T18:42:25Z</time>
      </trkpt>
      <trkpt lat="49.05042" lon="-0.44044">
        <ele>65.593</ele>
        <time>2016-05-31T18:42:05Z</time>
      </trkpt>
      <trkpt lat="49.05085" lon="-0.4406">
        <ele>65.317</ele>
        <time>2016-05-31T18:41:45Z</time>
      </trkpt>
      <trkpt lat="49.05132" lon="-0.44044">
        <ele>63.465</ele>
        <time>2016-05-31T18:41:25Z</time>
      </trkpt>
      <trkpt lat="49.05186" lon="-0.44055">
        <ele>62.029</ele>
        <time>2016-05-31T18:41:05Z</time>
      </trkpt>
      <trkpt lat="49.05231" lon="-0.44075">
        <ele>63.416</ele>
        <time>2016-05-31T18:40:45Z</time>
      </trkpt>
      <trkpt lat="49.05285" lon="-0.44142">
        <ele>61.851</ele>
        <time>2016-05-31T18:39:45Z</time>
      </trkpt>
      <trkpt lat="49.05322" lon="-0.44147">
        <ele>59.755</ele>
        <time>2016-05-31T18:39:25Z</time>
      </trkpt>
      <trkpt lat="49.05357" lon="-0.44171">
        <ele>57.108</ele>
        <time>2016-05-31T18:39:05Z</time>
      </trkpt>
      <trkpt lat="49.05459" lon="-0.44241">
        <ele>52.82</ele>
        <time>2016-05-31T18:38:45Z</time>
      </trkpt>
      <trkpt lat="49.05519" lon="-0.44249">
        <ele>48.773</ele>
        <time>2016-05-31T18:38:25Z</time>
      </trkpt>
      <trkpt lat="49.05635" lon="-0.44213">
        <ele>45.792</ele>
        <time>2016-05-31T18:38:05Z</time>
      </trkpt>
      <trkpt lat="49.05689" lon="-0.44202">
        <ele>43.131</ele>
        <time>2016-05-31T18:37:45Z</time>
      </trkpt>
      <trkpt lat="49.05749" lon="-0.44293">
        <ele>48.382</ele>
        <time>2016-05-31T18:37:25Z</time>
      </trkpt>
      <trkpt lat="49.05817" lon="-0.44336">
        <ele>44.236</ele>
        <time>2016-05-31T18:37:05Z</time>
      </trkpt>
      <trkpt lat="49.05909" lon="-0.44319">
        <ele>39.064</ele>
        <time>2016-05-31T18:36:45Z</time>
      </trkpt>
      <trkpt lat="49.06009" lon="-0.44364">
        <ele>34.448</ele>
        <time>2016-05-31T18:36:25Z</time>
      </trkpt>
      <trkpt lat="49.06127" lon="-0.44445">
        <ele>28.855</ele>
        <time>2016-05-31T18:36:05Z</time>
      </trkpt>
      <trkpt lat="49.06208" lon="-0.44456">
        <ele>21.49</ele>
        <time>2016-05-31T18:35:45Z</time>
      </trkpt>
      <trkpt lat="49.06171" lon="-0.4438">
        <ele>22.064</ele>
        <time>2016-05-31T18:35:05Z</time>
      </trkpt>
      <trkpt lat="49.0615" lon="-0.44283">
        <ele>30.608</ele>
        <time>2016-05-31T18:34:45Z</time>
      </trkpt>
      <trkpt lat="49.06155" lon="-0.44125">
        <ele>29.517</ele>
        <time>2016-05-31T18:34:25Z</time>
      </trkpt>
      <trkpt lat="49.06169" lon="-0.44019">
        <ele>28.625</ele>
        <time>2016-05-31T18:34:05Z</time>
      </trkpt>
      <trkpt lat="49.06144" lon="-0.43929">
        <ele>44.383</ele>
        <time>2016-05-31T18:33:45Z</time>
      </trkpt>
      <trkpt lat="49.06172" lon="-0.43754">
        <ele>60.699</ele>
        <time>2016-05-31T18:33:25Z</time>
      </trkpt>
      <trkpt lat="49.06173" lon="-0.43634">
        <ele>67.94</ele>
        <time>2016-05-31T18:33:05Z</time>
      </trkpt>
      <trkpt lat="49.0619" lon="-0.43542">
        <ele>71.474</ele>
        <time>2016-05-31T18:32:45Z</time>
      </trkpt>
      <trkpt lat="49.062" lon="-0.43428">
        <ele>71.352</ele>
        <time>2016-05-31T18:32:25Z</time>
      </trkpt>
      <trkpt lat="49.06221" lon="-0.4325">
        <ele>71.256</ele>
        <time>2016-05-31T18:32:05Z</time>
      </trkpt>
      <trkpt lat="49.06185" lon="-0.43242">
        <ele>73.913</ele>
        <time>2016-05-31T18:31:45Z</time>
      </trkpt>
      <trkpt lat="49.06204" lon="-0.42963">
        <ele>80.098</ele>
        <time>2016-05-31T18:31:25Z</time>
      </trkpt>
      <trkpt lat="49.06181" lon="-0.42927">
        <ele>80.852</ele>
        <time>2016-05-31T18:31:05Z</time>
      </trkpt>
      <trkpt lat="49.06123" lon="-0.42916">
        <ele>83.008</ele>
        <time>2016-05-31T18:30:45Z</time>
      </trkpt>
      <trkpt lat="49.06004" lon="-0.42876">
        <ele>84.919</ele>
        <time>2016-05-31T18:30:25Z</time>
      </trkpt>
      <trkpt lat="49.05921" lon="-0.42855">
        <ele>86.281</ele>
        <time>2016-05-31T18:30:05Z</time>
      </trkpt>
      <trkpt lat="49.05932" lon="-0.4279">
        <ele>87.067</ele>
        <time>2016-05-31T18:29:45Z</time>
      </trkpt>
      <trkpt lat="49.05951" lon="-0.42732">
        <ele>88.299</ele>
        <time>2016-05-31T18:29:25Z</time>
      </trkpt>
      <trkpt lat="49.06009" lon="-0.42601">
        <ele>88.69</ele>
        <time>2016-05-31T18:29:05Z</time>
      </trkpt>
      <trkpt lat="49.06028" lon="-0.42498">
        <ele>89.184</ele>
        <time>2016-05-31T18:28:45Z</time>
      </trkpt>
      <trkpt lat="49.06077" lon="-0.42348">
        <ele>90.172</ele>
        <time>2016-05-31T18:28:25Z</time>
      </trkpt>
      <trkpt lat="49.06129" lon="-0.42283">
        <ele>89.076</ele>
        <time>2016-05-31T18:28:05Z</time>
      </trkpt>
      <trkpt lat="49.06139" lon="-0.422">
        <ele>91.653</ele>
        <time>2016-05-31T18:27:45Z</time>
      </trkpt>
      <trkpt lat="49.06191" lon="-0.422">
        <ele>90.178</ele>
        <time>2016-05-31T18:27:25Z</time>
      </trkpt>
      <trkpt lat="49.06274" lon="-0.42176">
        <ele>87.142</ele>
        <time>2016-05-31T18:27:05Z</time>
      </trkpt>
      <trkpt lat="49.06352" lon="-0.42125">
        <ele>85.308</ele>
        <time>2016-05-31T18:26:45Z</time>
      </trkpt>
      <trkpt lat="49.06366" lon="-0.42052">
        <ele>85.914</ele>
        <time>2016-05-31T18:26:25Z</time>
      </trkpt>
      <trkpt lat="49.06374" lon="-0.41949">
        <ele>86.668</ele>
        <time>2016-05-31T18:26:05Z</time>
      </trkpt>
      <trkpt lat="49.06405" lon="-0.41796">
        <ele>88.065</ele>
        <time>2016-05-31T18:25:45Z</time>
      </trkpt>
      <trkpt lat="49.06449" lon="-0.41654">
        <ele>87.852</ele>
        <time>2016-05-31T18:25:25Z</time>
      </trkpt>
      <trkpt lat="49.06501" lon="-0.41532">
        <ele>88.763</ele>
        <time>2016-05-31T18:25:05Z</time>
      </trkpt>
      <trkpt lat="49.06592" lon="-0.414">
        <ele>90.637</ele>
        <time>2016-05-31T18:24:45Z</time>
      </trkpt>
      <trkpt lat="49.06873" lon="-0.4142">
        <ele>84.535</ele>
        <time>2016-05-31T18:24:25Z</time>
      </trkpt>
      <trkpt lat="49.07195" lon="-0.4134">
        <ele>82.739</ele>
        <time>2016-05-31T18:24:05Z</time>
      </trkpt>
      <trkpt lat="49.07761" lon="-0.41121">
        <ele>78.416</ele>
        <time>2016-05-31T18:23:45Z</time>
      </trkpt>
      <trkpt lat="49.08071" lon="-0.40995">
        <ele>70.691</ele>
        <time>2016-05-31T18:23:25Z</time>
      </trkpt>
      <trkpt lat="49.07999" lon="-0.40553">
        <ele>76.085</ele>
        <time>2016-05-31T18:23:05Z</time>
      </trkpt>
      <trkpt lat="49.07983" lon="-0.40458">
        <ele>76.108</ele>
        <time>2016-05-31T18:22:45Z</time>
      </trkpt>
      <trkpt lat="49.07958" lon="-0.40472">
        <ele>76.525</ele>
        <time>2016-05-31T18:22:25Z</time>
      </trkpt>
      <trkpt lat="49.07898" lon="-0.40294">
        <ele>64.323</ele>
        <time>2016-05-31T18:21:45Z</time>
      </trkpt>
      <trkpt lat="49.07886" lon="-0.40247">
        <ele>62.197</ele>
        <time>2016-05-31T18:21:25Z</time>
      </trkpt>
      <trkpt lat="49.07879" lon="-0.40216">
        <ele>62.381</ele>
        <time>2016-05-31T18:21:05Z</time>
      </trkpt>
      <trkpt lat="49.08036" lon="-0.40066">
        <ele>58.072</ele>
        <time>2016-05-31T18:20:45Z</time>
      </trkpt>
      <trkpt lat="49.08056" lon="-0.39916">
        <ele>51.016</ele>
        <time>2016-05-31T18:20:25Z</time>
      </trkpt>
      <trkpt lat="49.08046" lon="-0.3987">
        <ele>50.224</ele>
        <time>2016-05-31T18:20:05Z</time>
      </trkpt>
      <trkpt lat="49.08095" lon="-0.39813">
        <ele>49.088</ele>
        <time>2020-12-23T16:49:55Z</time>
      </trkpt>
      <trkpt lat="49.08148" lon="-0.3966">
        <ele>44.855</ele>
        <time>2020-12-23T16:49:35Z</time>
      </trkpt>
      <trkpt lat="49.08186" lon="-0.39613">
        <ele>44.86</ele>
        <time>2020-12-23T16:49:15Z</time>
      </trkpt>
      <trkpt lat="49.08249" lon="-0.3951">
        <ele>41.364</ele>
        <time>2020-12-23T16:48:55Z</time>
      </trkpt>
      <trkpt lat="49.0829" lon="-0.39482">
        <ele>42.608</ele>
        <time>2020-12-23T16:48:35Z</time>
      </trkpt>
      <trkpt lat="49.08321" lon="-0.39416">
        <ele>39.717</ele>
        <time>2020-12-23T16:48:15Z</time>
      </trkpt>
      <trkpt lat="49.08464" lon="-0.39267">
        <ele>38.943</ele>
        <time>2020-12-23T16:47:55Z</time>
      </trkpt>
      <trkpt lat="49.08459" lon="-0.39201">
        <ele>37.782</ele>
        <time>2020-12-23T16:47:35Z</time>
      </trkpt>
      <trkpt lat="49.08501" lon="-0.39097">
        <ele>34.758</ele>
        <time>2020-12-23T16:47:15Z</time>
      </trkpt>
      <trkpt lat="49.08481" lon="-0.39029">
        <ele>36.269</ele>
        <time>2020-12-23T16:46:55Z</time>
      </trkpt>
      <trkpt lat="49.08501" lon="-0.3894">
        <ele>37.853</ele>
        <time>2020-12-23T16:46:35Z</time>
      </trkpt>
      <trkpt lat="49.08467" lon="-0.3887">
        <ele>41.191</ele>
        <time>2020-12-23T16:46:15Z</time>
      </trkpt>
      <trkpt lat="49.08367" lon="-0.38626">
        <ele>39.075</ele>
        <time>2020-12-23T16:45:55Z</time>
      </trkpt>
      <trkpt lat="49.08356" lon="-0.38551">
        <ele>34.572</ele>
        <time>2020-12-23T16:45:35Z</time>
      </trkpt>
      <trkpt lat="49.0841" lon="-0.38389">
        <ele>25.057</ele>
        <time>2020-12-23T16:45:15Z</time>
      </trkpt>
      <trkpt lat="49.08371" lon="-0.38175">
        <ele>25.171</ele>
        <time>2020-12-23T16:44:55Z</time>
      </trkpt>
      <trkpt lat="49.08377" lon="-0.38081">
        <ele>26.908</ele>
        <time>2020-12-23T16:44:35Z</time>
      </trkpt>
      <trkpt lat="49.08554" lon="-0.37979">
        <ele>16.914</ele>
        <time>2016-05-31T18:12:25Z</time>
      </trkpt>
      <trkpt lat="49.0862" lon="-0.37908">
        <ele>25.659</ele>
        <time>2016-05-31T18:12:05Z</time>
      </trkpt>
      <trkpt lat="49.08633" lon="-0.37991">
        <ele>26.756</ele>
        <time>2016-05-31T18:11:45Z</time>
      </trkpt>
      <trkpt lat="49.08605" lon="-0.38171">
        <ele>22.435</ele>
        <time>2016-05-31T18:11:25Z</time>
      </trkpt>
      <trkpt lat="49.08577" lon="-0.38284">
        <ele>22.936</ele>
        <time>2016-05-31T18:11:05Z</time>
      </trkpt>
      <trkpt lat="49.08571" lon="-0.38393">
        <ele>17.14</ele>
        <time>2016-05-31T18:10:45Z</time>
      </trkpt>
      <trkpt lat="49.08617" lon="-0.38482">
        <ele>17.788</ele>
        <time>2016-05-31T18:10:25Z</time>
      </trkpt>
      <trkpt lat="49.08696" lon="-0.38553">
        <ele>18.592</ele>
        <time>2016-05-31T18:10:05Z</time>
      </trkpt>
      <trkpt lat="49.08729" lon="-0.38604">
        <ele>19.969</ele>
        <time>2016-05-31T18:09:45Z</time>
      </trkpt>
      <trkpt lat="49.08749" lon="-0.3864">
        <ele>19.974</ele>
        <time>2016-05-31T18:09:25Z</time>
      </trkpt>
      <trkpt lat="49.08766" lon="-0.38673">
        <ele>22.498</ele>
        <time>2016-05-31T18:09:05Z</time>
      </trkpt>
      <trkpt lat="49.08809" lon="-0.3875">
        <ele>24.008</ele>
        <time>2016-05-31T18:08:45Z</time>
      </trkpt>
      <trkpt lat="49.08824" lon="-0.38821">
        <ele>24.908</ele>
        <time>2016-05-31T18:08:25Z</time>
      </trkpt>
      <trkpt lat="49.08821" lon="-0.38947">
        <ele>20.862</ele>
        <time>2016-05-31T18:08:05Z</time>
      </trkpt>
      <trkpt lat="49.08842" lon="-0.39035">
        <ele>20.722</ele>
        <time>2016-05-31T18:07:45Z</time>
      </trkpt>
      <trkpt lat="49.08858" lon="-0.39093">
        <ele>18.416</ele>
        <time>2016-05-31T18:07:25Z</time>
      </trkpt>
      <trkpt lat="49.08918" lon="-0.39177">
        <ele>21.057</ele>
        <time>2016-05-31T18:07:05Z</time>
      </trkpt>
      <trkpt lat="49.08992" lon="-0.39256">
        <ele>18.041</ele>
        <time>2016-05-31T18:06:45Z</time>
      </trkpt>
      <trkpt lat="49.09094" lon="-0.39271">
        <ele>18.959</ele>
        <time>2016-05-31T18:06:25Z</time>
      </trkpt>
      <trkpt lat="49.09159" lon="-0.3925">
        <ele>22.163</ele>
        <time>2016-05-31T18:06:05Z</time>
      </trkpt>
      <trkpt lat="49.09252" lon="-0.39186">
        <ele>14.85</ele>
        <time>2016-05-31T18:05:45Z</time>
      </trkpt>
      <trkpt lat="49.09292" lon="-0.39169">
        <ele>13.455</ele>
        <time>2016-05-31T18:05:25Z</time>
      </trkpt>
      <trkpt lat="49.09318" lon="-0.39117">
        <ele>15.879</ele>
        <time>2016-05-31T18:05:05Z</time>
      </trkpt>
      <trkpt lat="49.09348" lon="-0.39099">
        <ele>16.808</ele>
        <time>2016-05-31T18:04:45Z</time>
      </trkpt>
      <trkpt lat="49.09378" lon="-0.39111">
        <ele>16.618</ele>
        <time>2016-05-31T18:04:25Z</time>
      </trkpt>
      <trkpt lat="49.09449" lon="-0.3912">
        <ele>14.617</ele>
        <time>2016-05-31T18:03:45Z</time>
      </trkpt>
      <trkpt lat="49.09553" lon="-0.39172">
        <ele>13.036</ele>
        <time>2016-05-31T18:03:25Z</time>
      </trkpt>
      <trkpt lat="49.09574" lon="-0.3918">
        <ele>13.398</ele>
        <time>2016-05-31T18:03:05Z</time>
      </trkpt>
      <trkpt lat="49.09699" lon="-0.39161">
        <ele>12.319</ele>
        <time>2016-05-31T18:02:25Z</time>
      </trkpt>
      <trkpt lat="49.09723" lon="-0.3914">
        <ele>11.953</ele>
        <time>2016-05-31T18:02:05Z</time>
      </trkpt>
      <trkpt lat="49.09778" lon="-0.39041">
        <ele>15.061</ele>
        <time>2016-05-31T18:01:45Z</time>
      </trkpt>
      <trkpt lat="49.0982" lon="-0.38986">
        <ele>19.065</ele>
        <time>2016-05-31T18:01:25Z</time>
      </trkpt>
      <trkpt lat="49.09864" lon="-0.38907">
        <ele>19.482</ele>
        <time>2016-05-31T18:01:05Z</time>
      </trkpt>
      <trkpt lat="49.09935" lon="-0.38834">
        <ele>17.127</ele>
        <time>2016-05-31T18:00:25Z</time>
      </trkpt>
      <trkpt lat="49.09969" lon="-0.38783">
        <ele>19.061</ele>
        <time>2016-05-31T18:00:05Z</time>
      </trkpt>
      <trkpt lat="49.10005" lon="-0.38746">
        <ele>13.808</ele>
        <time>2016-05-31T17:59:05Z</time>
      </trkpt>
      <trkpt lat="49.10026" lon="-0.38706">
        <ele>15.32</ele>
        <time>2016-05-31T17:58:45Z</time>
      </trkpt>
      <trkpt lat="49.10085" lon="-0.38633">
        <ele>13.7</ele>
        <time>2016-05-31T17:58:25Z</time>
      </trkpt>
      <trkpt lat="49.10164" lon="-0.38544">
        <ele>20.157</ele>
        <time>2016-05-31T17:58:05Z</time>
      </trkpt>
      <trkpt lat="49.10194" lon="-0.38494">
        <ele>19.245</ele>
        <time>2016-05-31T17:57:45Z</time>
      </trkpt>
      <trkpt lat="49.10223" lon="-0.3844">
        <ele>22.396</ele>
        <time>2016-05-31T17:57:25Z</time>
      </trkpt>
      <trkpt lat="49.10254" lon="-0.38389">
        <ele>23.06</ele>
        <time>2016-05-31T17:57:05Z</time>
      </trkpt>
      <trkpt lat="49.10285" lon="-0.38363">
        <ele>24.818</ele>
        <time>2016-05-31T17:56:45Z</time>
      </trkpt>
      <trkpt lat="49.1042" lon="-0.3837">
        <ele>15.392</ele>
        <time>2016-05-31T17:56:25Z</time>
      </trkpt>
      <trkpt lat="49.10525" lon="-0.38376">
        <ele>13.839</ele>
        <time>2016-05-31T17:56:05Z</time>
      </trkpt>
      <trkpt lat="49.10574" lon="-0.38363">
        <ele>12.974</ele>
        <time>2016-05-31T17:55:45Z</time>
      </trkpt>
      <trkpt lat="49.10637" lon="-0.38367">
        <ele>12.528</ele>
        <time>2016-05-31T17:55:25Z</time>
      </trkpt>
      <trkpt lat="49.10756" lon="-0.38341">
        <ele>18.208</ele>
        <time>2016-05-31T17:55:05Z</time>
      </trkpt>
      <trkpt lat="49.10788" lon="-0.38301">
        <ele>15.617</ele>
        <time>2016-05-31T17:54:45Z</time>
      </trkpt>
      <trkpt lat="49.10801" lon="-0.38217">
        <ele>16.689</ele>
        <time>2016-05-31T17:54:25Z</time>
      </trkpt>
      <trkpt lat="49.10847" lon="-0.38225">
        <ele>17.728</ele>
        <time>2016-05-31T17:54:05Z</time>
      </trkpt>
      <trkpt lat="49.11056" lon="-0.38183">
        <ele>21.958</ele>
        <time>2016-05-31T17:53:45Z</time>
      </trkpt>
      <trkpt lat="49.11154" lon="-0.38212">
        <ele>26.149</ele>
        <time>2016-05-31T17:53:25Z</time>
      </trkpt>
      <trkpt lat="49.11217" lon="-0.38275">
        <ele>18.353</ele>
        <time>2016-05-31T17:53:05Z</time>
      </trkpt>
      <trkpt lat="49.11294" lon="-0.38324">
        <ele>15.521</ele>
        <time>2016-05-31T17:52:45Z</time>
      </trkpt>
      <trkpt lat="49.11437" lon="-0.38351">
        <ele>20.745</ele>
        <time>2016-05-31T17:52:25Z</time>
      </trkpt>
      <trkpt lat="49.11606" lon="-0.38362">
        <ele>19.072</ele>
        <time>2016-05-31T17:52:05Z</time>
      </trkpt>
      <trkpt lat="49.11701" lon="-0.38437">
        <ele>21.287</ele>
        <time>2016-05-31T17:51:45Z</time>
      </trkpt>
      <trkpt lat="49.11762" lon="-0.38489">
        <ele>26.011</ele>
        <time>2016-05-31T17:50:05Z</time>
      </trkpt>
      <trkpt lat="49.1182" lon="-0.38521">
        <ele>30.108</ele>
        <time>2016-05-31T17:49:45Z</time>
      </trkpt>
      <trkpt lat="49.11861" lon="-0.38515">
        <ele>33.017</ele>
        <time>2016-05-31T17:49:25Z</time>
      </trkpt>
      <trkpt lat="49.11913" lon="-0.38485">
        <ele>33.907</ele>
        <time>2016-05-31T17:49:05Z</time>
      </trkpt>
      <trkpt lat="49.1205" lon="-0.38599">
        <ele>27.655</ele>
        <time>2016-05-31T17:48:45Z</time>
      </trkpt>
      <trkpt lat="49.12212" lon="-0.38762">
        <ele>25.374</ele>
        <time>2016-05-31T17:48:25Z</time>
      </trkpt>
      <trkpt lat="49.12321" lon="-0.38841">
        <ele>28.385</ele>
        <time>2016-05-31T17:48:05Z</time>
      </trkpt>
      <trkpt lat="49.12483" lon="-0.389">
        <ele>25.019</ele>
        <time>2016-05-31T17:47:45Z</time>
      </trkpt>
      <trkpt lat="49.12592" lon="-0.38971">
        <ele>25.077</ele>
        <time>2016-05-31T17:47:25Z</time>
      </trkpt>
      <trkpt lat="49.12631" lon="-0.38714">
        <ele>27.661</ele>
        <time>2016-05-31T17:47:05Z</time>
      </trkpt>
      <trkpt lat="49.12744" lon="-0.38699">
        <ele>27.268</ele>
        <time>2016-05-31T17:46:45Z</time>
      </trkpt>
      <trkpt lat="49.12745" lon="-0.38699">
        <ele>27.293</ele>
        <time>2016-05-31T17:46:25Z</time>
      </trkpt>
      <trkpt lat="49.12943" lon="-0.38691">
        <ele>28.087</ele>
        <time>2016-05-31T17:46:05Z</time>
      </trkpt>
      <trkpt lat="49.1303" lon="-0.38655">
        <ele>27.308</ele>
        <time>2016-05-31T17:45:45Z</time>
      </trkpt>
      <trkpt lat="49.13175" lon="-0.38618">
        <ele>27.219</ele>
        <time>2016-05-31T17:45:25Z</time>
      </trkpt>
      <trkpt lat="49.13296" lon="-0.386">
        <ele>25.109</ele>
        <time>2016-05-31T17:45:05Z</time>
      </trkpt>
      <trkpt lat="49.13507" lon="-0.38587">
        <ele>23.919</ele>
        <time>2016-05-31T17:44:45Z</time>
      </trkpt>
      <trkpt lat="49.13679" lon="-0.38562">
        <ele>25.572</ele>
        <time>2016-05-31T17:44:25Z</time>
      </trkpt>
      <trkpt lat="49.13724" lon="-0.38566">
        <ele>23.313</ele>
        <time>2016-05-31T17:44:05Z</time>
      </trkpt>
      <trkpt lat="49.13746" lon="-0.38579">
        <ele>22.237</ele>
        <time>2016-05-31T17:43:45Z</time>
      </trkpt>
      <trkpt lat="49.13809" lon="-0.38583">
        <ele>21.275</ele>
        <time>2016-05-31T17:43:25Z</time>
      </trkpt>
      <trkpt lat="49.13905" lon="-0.38615">
        <ele>20.039</ele>
        <time>2016-05-31T17:43:05Z</time>
      </trkpt>
      <trkpt lat="49.1399" lon="-0.38631">
        <ele>20.546</ele>
        <time>2016-05-31T17:42:45Z</time>
      </trkpt>
      <trkpt lat="49.13995" lon="-0.3866">
        <ele>19.411</ele>
        <time>2016-05-31T17:42:25Z</time>
      </trkpt>
      <trkpt lat="49.13964" lon="-0.3872">
        <ele>17.125</ele>
        <time>2016-05-31T17:42:05Z</time>
      </trkpt>
      <trkpt lat="49.13964" lon="-0.3874">
        <ele>17.008</ele>
        <time>2016-05-31T17:41:45Z</time>
      </trkpt>
      <trkpt lat="49.13963" lon="-0.38741">
        <ele>17.022</ele>
        <time>2016-05-31T17:41:25Z</time>
      </trkpt>
      <trkpt lat="49.14037" lon="-0.38845">
        <ele>12.157</ele>
        <time>2016-05-31T17:41:05Z</time>
      </trkpt>
      <trkpt lat="49.14134" lon="-0.39049">
        <ele>6.294</ele>
        <time>2016-05-31T17:40:45Z</time>
      </trkpt>
      <trkpt lat="49.14249" lon="-0.38908">
        <ele>6.649</ele>
        <time>2016-05-31T17:40:25Z</time>
      </trkpt>
      <trkpt lat="49.14388" lon="-0.38675">
        <ele>6.04</ele>
        <time>2016-05-31T17:40:05Z</time>
      </trkpt>
      <trkpt lat="49.14404" lon="-0.38708">
        <ele>4.954</ele>
        <time>2016-05-31T17:39:45Z</time>
      </trkpt>
      <trkpt lat="49.14416" lon="-0.3892">
        <ele>5.072</ele>
        <time>2016-05-31T17:39:25Z</time>
      </trkpt>
      <trkpt lat="49.14436" lon="-0.38912">
        <ele>5.016</ele>
        <time>2016-05-31T17:39:05Z</time>
      </trkpt>
      <trkpt lat="49.14459" lon="-0.38875">
        <ele>4.793</ele>
        <time>2016-05-31T17:38:45Z</time>
      </trkpt>
      <trkpt lat="49.14507" lon="-0.38833">
        <ele>3.828</ele>
        <time>2016-05-31T17:38:25Z</time>
      </trkpt>
      <trkpt lat="49.14688" lon="-0.38679">
        <ele>7.142</ele>
        <time>2016-05-31T17:38:05Z</time>
      </trkpt>
      <trkpt lat="49.1481" lon="-0.38589">
        <ele>5.008</ele>
        <time>2016-05-31T17:37:45Z</time>
      </trkpt>
      <trkpt lat="49.15228" lon="-0.38317">
        <ele>6.614</ele>
        <time>2016-05-31T17:37:25Z</time>
      </trkpt>
      <trkpt lat="49.15096" lon="-0.37808">
        <ele>6.068</ele>
        <time>2016-05-31T17:36:05Z</time>
      </trkpt>
      <trkpt lat="49.15066" lon="-0.37633">
        <ele>11.565</ele>
        <time>2016-05-31T17:35:45Z</time>
      </trkpt>
      <trkpt lat="49.15104" lon="-0.37511">
        <ele>20.286</ele>
        <time>2020-12-23T16:11:15Z</time>
      </trkpt>
      <trkpt lat="49.15226" lon="-0.37361">
        <ele>20.857</ele>
        <time>2020-12-23T16:10:55Z</time>
      </trkpt>
      <trkpt lat="49.15408" lon="-0.37254">
        <ele>22.071</ele>
        <time>2020-12-23T16:10:35Z</time>
      </trkpt>
      <trkpt lat="49.15488" lon="-0.37182">
        <ele>23.899</ele>
        <time>2020-12-23T16:10:15Z</time>
      </trkpt>
      <trkpt lat="49.15642" lon="-0.37111">
        <ele>21.683</ele>
        <time>2020-12-23T16:09:55Z</time>
      </trkpt>
      <trkpt lat="49.15816" lon="-0.3706">
        <ele>20.58</ele>
        <time>2020-12-23T16:09:35Z</time>
      </trkpt>
      <trkpt lat="49.15854" lon="-0.37011">
        <ele>29.735</ele>
        <time>2016-05-31T17:32:25Z</time>
      </trkpt>
      <trkpt lat="49.15952" lon="-0.36972">
        <ele>29.019</ele>
        <time>2016-05-31T17:32:05Z</time>
      </trkpt>
      <trkpt lat="49.16489" lon="-0.36713">
        <ele>27.708</ele>
        <time>2016-05-31T17:31:45Z</time>
      </trkpt>
      <trkpt lat="49.16717" lon="-0.36582">
        <ele>28.318</ele>
        <time>2016-05-31T17:31:25Z</time>
      </trkpt>
      <trkpt lat="49.16809" lon="-0.3651">
        <ele>26.617</ele>
        <time>2016-05-31T17:31:05Z</time>
      </trkpt>
      <trkpt lat="49.16826" lon="-0.36519">
        <ele>25.336</ele>
        <time>2016-05-31T17:30:45Z</time>
      </trkpt>
      <trkpt lat="49.16883" lon="-0.36491">
        <ele>22.628</ele>
        <time>2016-05-31T17:30:25Z</time>
      </trkpt>
      <trkpt lat="49.1694" lon="-0.36459">
        <ele>19.269</ele>
        <time>2016-05-31T17:30:05Z</time>
      </trkpt>
      <trkpt lat="49.16995" lon="-0.36422">
        <ele>16.283</ele>
        <time>2016-05-31T17:29:45Z</time>
      </trkpt>
      <trkpt lat="49.17052" lon="-0.36391">
        <ele>13.431</ele>
        <time>2016-05-31T17:29:25Z</time>
      </trkpt>
      <trkpt lat="49.17064" lon="-0.36411">
        <ele>9.775</ele>
        <time>2016-05-31T17:29:05Z</time>
      </trkpt>
      <trkpt lat="49.17051" lon="-0.3645">
        <ele>8.072</ele>
        <time>2016-05-31T17:28:45Z</time>
      </trkpt>
      <trkpt lat="49.17066" lon="-0.36468">
        <ele>6.797</ele>
        <time>2016-05-31T17:28:25Z</time>
      </trkpt>
      <trkpt lat="49.17092" lon="-0.36412">
        <ele>6.491</ele>
        <time>2016-05-31T17:28:05Z</time>
      </trkpt>
      <trkpt lat="49.17184" lon="-0.36479">
        <ele>5.308</ele>
        <time>2016-05-31T17:27:45Z</time>
      </trkpt>
      <trkpt lat="49.17401" lon="-0.36149">
        <ele>7.617</ele>
        <time>2016-05-31T17:27:25Z</time>
      </trkpt>
      <trkpt lat="49.17614" lon="-0.35811">
        <ele>9.052</ele>
        <time>2016-05-31T17:27:05Z</time>
      </trkpt>
      <trkpt lat="49.17637" lon="-0.35758">
        <ele>11.258</ele>
        <time>2016-05-31T17:26:45Z</time>
      </trkpt>
      <trkpt lat="49.17972" lon="-0.35022">
        <ele>8.664</ele>
        <time>2016-05-31T17:26:25Z</time>
      </trkpt>
      <trkpt lat="49.18097" lon="-0.34898">
        <ele>4.075</ele>
        <time>2020-12-23T16:02:55Z</time>
      </trkpt>
      <trkpt lat="49.18304" lon="-0.35286">
        <ele>5.399</ele>
        <time>2016-05-31T17:24:05Z</time>
      </trkpt>
    </trkseg>
  </trk>
</gpx>